<?xml version="1.0" encoding="UTF-8"?>
<gpx
  version="1.0"
  creator="GPSBabel - http://www.gpsbabel.org"
  xmlns:xsi="http://www.w3.org/2001/XMLSchema-instance"
  xmlns="http://www.topografix.com/GPX/1/0"
  xsi:schemaLocation="http://www.topografix.com/GPX/1/0 http://www.topografix.com/GPX/1/0/gpx.xsd">
<time>2011-10-20T11:43:30Z</time>
<bounds minlat="32.709007263" minlon="34.994457245" maxlat="32.762443542" maxlon="35.041564941"/>
<trk>
  <name>Holux2011/10/20_07:05</name>
<trkseg>
<trkpt lat="32.762443542" lon="35.015991211">
  <ele>459.729004</ele>
  <time>2011-10-20T05:05:09Z</time>
  <speed>0.040000</speed>
</trkpt>
<trkpt lat="32.762416840" lon="35.015983582">
  <ele>460.947754</ele>
  <time>2011-10-20T05:05:17Z</time>
  <speed>0.200000</speed>
</trkpt>
<trkpt lat="32.762393951" lon="35.016017914">
  <ele>461.010254</ele>
  <time>2011-10-20T05:05:26Z</time>
  <speed>1.640000</speed>
</trkpt>
<trkpt lat="32.762378693" lon="35.016048431">
  <ele>461.010254</ele>
  <time>2011-10-20T05:05:28Z</time>
  <speed>2.030000</speed>
</trkpt>
<trkpt lat="32.762359619" lon="35.016086578">
  <ele>460.846191</ele>
  <time>2011-10-20T05:05:30Z</time>
  <speed>1.730000</speed>
</trkpt>
<trkpt lat="32.762336731" lon="35.016105652">
  <ele>461.041504</ele>
  <time>2011-10-20T05:05:32Z</time>
  <speed>1.070000</speed>
</trkpt>
<trkpt lat="32.762325287" lon="35.016136169">
  <ele>461.627441</ele>
  <time>2011-10-20T05:05:36Z</time>
  <speed>0.480000</speed>
</trkpt>
<trkpt lat="32.762313843" lon="35.016151428">
  <ele>463.971191</ele>
  <time>2011-10-20T05:06:02Z</time>
  <speed>0.040000</speed>
</trkpt>
<trkpt lat="32.762287140" lon="35.016174316">
  <ele>463.361816</ele>
  <time>2011-10-20T05:07:03Z</time>
  <speed>1.700000</speed>
</trkpt>
<trkpt lat="32.762264252" lon="35.016212463">
  <ele>462.455566</ele>
  <time>2011-10-20T05:07:05Z</time>
  <speed>2.270000</speed>
</trkpt>
<trkpt lat="32.762248993" lon="35.016239166">
  <ele>461.932129</ele>
  <time>2011-10-20T05:07:06Z</time>
  <speed>2.700000</speed>
</trkpt>
<trkpt lat="32.762214661" lon="35.016281128">
  <ele>460.033691</ele>
  <time>2011-10-20T05:07:08Z</time>
  <speed>3.680000</speed>
</trkpt>
<trkpt lat="32.762191772" lon="35.016315460">
  <ele>459.619629</ele>
  <time>2011-10-20T05:07:09Z</time>
  <speed>4.200000</speed>
</trkpt>
<trkpt lat="32.762168884" lon="35.016349792">
  <ele>458.986816</ele>
  <time>2011-10-20T05:07:10Z</time>
  <speed>4.640000</speed>
</trkpt>
<trkpt lat="32.762138367" lon="35.016391754">
  <ele>458.314941</ele>
  <time>2011-10-20T05:07:11Z</time>
  <speed>5.270000</speed>
</trkpt>
<trkpt lat="32.762100220" lon="35.016433716">
  <ele>457.783691</ele>
  <time>2011-10-20T05:07:12Z</time>
  <speed>5.890000</speed>
</trkpt>
<trkpt lat="32.762062073" lon="35.016483307">
  <ele>456.900879</ele>
  <time>2011-10-20T05:07:13Z</time>
  <speed>6.820000</speed>
</trkpt>
<trkpt lat="32.762020111" lon="35.016536713">
  <ele>456.283691</ele>
  <time>2011-10-20T05:07:14Z</time>
  <speed>7.190000</speed>
</trkpt>
<trkpt lat="32.761978149" lon="35.016597748">
  <ele>455.510254</ele>
  <time>2011-10-20T05:07:15Z</time>
  <speed>7.360000</speed>
</trkpt>
<trkpt lat="32.761936188" lon="35.016658783">
  <ele>454.791504</ele>
  <time>2011-10-20T05:07:16Z</time>
  <speed>7.480000</speed>
</trkpt>
<trkpt lat="32.761898041" lon="35.016719818">
  <ele>453.846191</ele>
  <time>2011-10-20T05:07:17Z</time>
  <speed>7.480000</speed>
</trkpt>
<trkpt lat="32.761859894" lon="35.016780853">
  <ele>452.900879</ele>
  <time>2011-10-20T05:07:18Z</time>
  <speed>7.430000</speed>
</trkpt>
<trkpt lat="32.761825562" lon="35.016845703">
  <ele>451.877441</ele>
  <time>2011-10-20T05:07:19Z</time>
  <speed>7.140000</speed>
</trkpt>
<trkpt lat="32.761787415" lon="35.016906738">
  <ele>451.064941</ele>
  <time>2011-10-20T05:07:20Z</time>
  <speed>6.610000</speed>
</trkpt>
<trkpt lat="32.761753082" lon="35.016963959">
  <ele>450.377441</ele>
  <time>2011-10-20T05:07:21Z</time>
  <speed>6.280000</speed>
</trkpt>
<trkpt lat="32.761722565" lon="35.017021179">
  <ele>449.877441</ele>
  <time>2011-10-20T05:07:22Z</time>
  <speed>5.790000</speed>
</trkpt>
<trkpt lat="32.761688232" lon="35.017066956">
  <ele>449.564941</ele>
  <time>2011-10-20T05:07:23Z</time>
  <speed>5.240000</speed>
</trkpt>
<trkpt lat="32.761661530" lon="35.017112732">
  <ele>449.189941</ele>
  <time>2011-10-20T05:07:24Z</time>
  <speed>4.990000</speed>
</trkpt>
<trkpt lat="32.761638641" lon="35.017154694">
  <ele>448.830566</ele>
  <time>2011-10-20T05:07:25Z</time>
  <speed>4.460000</speed>
</trkpt>
<trkpt lat="32.761611938" lon="35.017192841">
  <ele>448.377441</ele>
  <time>2011-10-20T05:07:26Z</time>
  <speed>4.110000</speed>
</trkpt>
<trkpt lat="32.761589050" lon="35.017230988">
  <ele>448.229004</ele>
  <time>2011-10-20T05:07:27Z</time>
  <speed>4.140000</speed>
</trkpt>
<trkpt lat="32.761566162" lon="35.017261505">
  <ele>448.049316</ele>
  <time>2011-10-20T05:07:28Z</time>
  <speed>4.100000</speed>
</trkpt>
<trkpt lat="32.761539459" lon="35.017299652">
  <ele>448.455566</ele>
  <time>2011-10-20T05:07:29Z</time>
  <speed>4.010000</speed>
</trkpt>
<trkpt lat="32.761516571" lon="35.017333984">
  <ele>448.150879</ele>
  <time>2011-10-20T05:07:30Z</time>
  <speed>3.860000</speed>
</trkpt>
<trkpt lat="32.761493683" lon="35.017368317">
  <ele>448.166504</ele>
  <time>2011-10-20T05:07:31Z</time>
  <speed>3.890000</speed>
</trkpt>
<trkpt lat="32.761470795" lon="35.017402649">
  <ele>448.221191</ele>
  <time>2011-10-20T05:07:32Z</time>
  <speed>3.770000</speed>
</trkpt>
<trkpt lat="32.761455536" lon="35.017436981">
  <ele>448.127441</ele>
  <time>2011-10-20T05:07:33Z</time>
  <speed>3.840000</speed>
</trkpt>
<trkpt lat="32.761432648" lon="35.017467499">
  <ele>448.479004</ele>
  <time>2011-10-20T05:07:34Z</time>
  <speed>3.720000</speed>
</trkpt>
<trkpt lat="32.761405945" lon="35.017501831">
  <ele>448.986816</ele>
  <time>2011-10-20T05:07:35Z</time>
  <speed>3.790000</speed>
</trkpt>
<trkpt lat="32.761386871" lon="35.017536163">
  <ele>449.314941</ele>
  <time>2011-10-20T05:07:36Z</time>
  <speed>3.580000</speed>
</trkpt>
<trkpt lat="32.761363983" lon="35.017559052">
  <ele>450.033691</ele>
  <time>2011-10-20T05:07:37Z</time>
  <speed>3.440000</speed>
</trkpt>
<trkpt lat="32.761329651" lon="35.017616272">
  <ele>450.557129</ele>
  <time>2011-10-20T05:07:39Z</time>
  <speed>3.240000</speed>
</trkpt>
<trkpt lat="32.761310577" lon="35.017646790">
  <ele>450.619629</ele>
  <time>2011-10-20T05:07:40Z</time>
  <speed>3.160000</speed>
</trkpt>
<trkpt lat="32.761272430" lon="35.017696381">
  <ele>451.994629</ele>
  <time>2011-10-20T05:07:42Z</time>
  <speed>2.720000</speed>
</trkpt>
<trkpt lat="32.761245728" lon="35.017730713">
  <ele>451.291504</ele>
  <time>2011-10-20T05:07:44Z</time>
  <speed>1.850000</speed>
</trkpt>
<trkpt lat="32.761238098" lon="35.017772675">
  <ele>452.049316</ele>
  <time>2011-10-20T05:07:47Z</time>
  <speed>1.600000</speed>
</trkpt>
<trkpt lat="32.761222839" lon="35.017814636">
  <ele>452.697754</ele>
  <time>2011-10-20T05:07:49Z</time>
  <speed>2.200000</speed>
</trkpt>
<trkpt lat="32.761199951" lon="35.017860413">
  <ele>452.682129</ele>
  <time>2011-10-20T05:07:51Z</time>
  <speed>2.420000</speed>
</trkpt>
<trkpt lat="32.761173248" lon="35.017906189">
  <ele>452.393066</ele>
  <time>2011-10-20T05:07:53Z</time>
  <speed>2.360000</speed>
</trkpt>
<trkpt lat="32.761142731" lon="35.017951965">
  <ele>452.549316</ele>
  <time>2011-10-20T05:07:55Z</time>
  <speed>2.800000</speed>
</trkpt>
<trkpt lat="32.761108398" lon="35.018001556">
  <ele>453.268066</ele>
  <time>2011-10-20T05:07:57Z</time>
  <speed>3.380000</speed>
</trkpt>
<trkpt lat="32.761074066" lon="35.018054962">
  <ele>453.854004</ele>
  <time>2011-10-20T05:07:59Z</time>
  <speed>2.700000</speed>
</trkpt>
<trkpt lat="32.761054993" lon="35.018100739">
  <ele>454.135254</ele>
  <time>2011-10-20T05:08:01Z</time>
  <speed>2.080000</speed>
</trkpt>
<trkpt lat="32.761035919" lon="35.018123627">
  <ele>454.510254</ele>
  <time>2011-10-20T05:08:02Z</time>
  <speed>2.450000</speed>
</trkpt>
<trkpt lat="32.761009216" lon="35.018169403">
  <ele>455.189941</ele>
  <time>2011-10-20T05:08:04Z</time>
  <speed>2.610000</speed>
</trkpt>
<trkpt lat="32.760990143" lon="35.018196106">
  <ele>454.697754</ele>
  <time>2011-10-20T05:08:05Z</time>
  <speed>2.850000</speed>
</trkpt>
<trkpt lat="32.760974884" lon="35.018222809">
  <ele>454.424316</ele>
  <time>2011-10-20T05:08:06Z</time>
  <speed>2.990000</speed>
</trkpt>
<trkpt lat="32.760940552" lon="35.018276215">
  <ele>453.385254</ele>
  <time>2011-10-20T05:08:08Z</time>
  <speed>3.280000</speed>
</trkpt>
<trkpt lat="32.760913849" lon="35.018310547">
  <ele>453.979004</ele>
  <time>2011-10-20T05:08:09Z</time>
  <speed>3.280000</speed>
</trkpt>
<trkpt lat="32.760894775" lon="35.018337250">
  <ele>454.549316</ele>
  <time>2011-10-20T05:08:10Z</time>
  <speed>3.120000</speed>
</trkpt>
<trkpt lat="32.760879517" lon="35.018367767">
  <ele>454.791504</ele>
  <time>2011-10-20T05:08:11Z</time>
  <speed>3.260000</speed>
</trkpt>
<trkpt lat="32.760860443" lon="35.018398285">
  <ele>455.010254</ele>
  <time>2011-10-20T05:08:12Z</time>
  <speed>3.800000</speed>
</trkpt>
<trkpt lat="32.760841370" lon="35.018432617">
  <ele>454.846191</ele>
  <time>2011-10-20T05:08:13Z</time>
  <speed>3.880000</speed>
</trkpt>
<trkpt lat="32.760818481" lon="35.018466949">
  <ele>454.182129</ele>
  <time>2011-10-20T05:08:14Z</time>
  <speed>4.270000</speed>
</trkpt>
<trkpt lat="32.760795593" lon="35.018505096">
  <ele>453.986816</ele>
  <time>2011-10-20T05:08:15Z</time>
  <speed>4.630000</speed>
</trkpt>
<trkpt lat="32.760765076" lon="35.018547058">
  <ele>454.033691</ele>
  <time>2011-10-20T05:08:16Z</time>
  <speed>5.330000</speed>
</trkpt>
<trkpt lat="32.760738373" lon="35.018589020">
  <ele>453.127441</ele>
  <time>2011-10-20T05:08:17Z</time>
  <speed>5.850000</speed>
</trkpt>
<trkpt lat="32.760704041" lon="35.018638611">
  <ele>452.182129</ele>
  <time>2011-10-20T05:08:18Z</time>
  <speed>6.360000</speed>
</trkpt>
<trkpt lat="32.760665894" lon="35.018688202">
  <ele>451.916504</ele>
  <time>2011-10-20T05:08:19Z</time>
  <speed>6.520000</speed>
</trkpt>
<trkpt lat="32.760620117" lon="35.018737793">
  <ele>453.150879</ele>
  <time>2011-10-20T05:08:20Z</time>
  <speed>6.810000</speed>
</trkpt>
<trkpt lat="32.760578156" lon="35.018787384">
  <ele>452.635254</ele>
  <time>2011-10-20T05:08:21Z</time>
  <speed>6.900000</speed>
</trkpt>
<trkpt lat="32.760532379" lon="35.018844604">
  <ele>452.682129</ele>
  <time>2011-10-20T05:08:22Z</time>
  <speed>7.270000</speed>
</trkpt>
<trkpt lat="32.760490417" lon="35.018905640">
  <ele>452.064941</ele>
  <time>2011-10-20T05:08:23Z</time>
  <speed>7.360000</speed>
</trkpt>
<trkpt lat="32.760444641" lon="35.018962860">
  <ele>450.822754</ele>
  <time>2011-10-20T05:08:24Z</time>
  <speed>7.620000</speed>
</trkpt>
<trkpt lat="32.760402679" lon="35.019023895">
  <ele>449.494629</ele>
  <time>2011-10-20T05:08:25Z</time>
  <speed>7.710000</speed>
</trkpt>
<trkpt lat="32.760360718" lon="35.019088745">
  <ele>449.283691</ele>
  <time>2011-10-20T05:08:26Z</time>
  <speed>7.890000</speed>
</trkpt>
<trkpt lat="32.760318756" lon="35.019157410">
  <ele>448.752441</ele>
  <time>2011-10-20T05:08:27Z</time>
  <speed>7.720000</speed>
</trkpt>
<trkpt lat="32.760276794" lon="35.019218445">
  <ele>447.994629</ele>
  <time>2011-10-20T05:08:28Z</time>
  <speed>7.910000</speed>
</trkpt>
<trkpt lat="32.760227203" lon="35.019283295">
  <ele>447.174316</ele>
  <time>2011-10-20T05:08:29Z</time>
  <speed>8.130000</speed>
</trkpt>
<trkpt lat="32.760173798" lon="35.019351959">
  <ele>447.018066</ele>
  <time>2011-10-20T05:08:30Z</time>
  <speed>8.450000</speed>
</trkpt>
<trkpt lat="32.760124207" lon="35.019416809">
  <ele>445.494629</ele>
  <time>2011-10-20T05:08:31Z</time>
  <speed>9.140000</speed>
</trkpt>
<trkpt lat="32.760059357" lon="35.019485474">
  <ele>444.697754</ele>
  <time>2011-10-20T05:08:32Z</time>
  <speed>9.710000</speed>
</trkpt>
<trkpt lat="32.759990692" lon="35.019554138">
  <ele>444.057129</ele>
  <time>2011-10-20T05:08:33Z</time>
  <speed>10.410000</speed>
</trkpt>
<trkpt lat="32.759918213" lon="35.019630432">
  <ele>443.135254</ele>
  <time>2011-10-20T05:08:34Z</time>
  <speed>10.530000</speed>
</trkpt>
<trkpt lat="32.759857178" lon="35.019706726">
  <ele>441.799316</ele>
  <time>2011-10-20T05:08:35Z</time>
  <speed>10.270000</speed>
</trkpt>
<trkpt lat="32.759792328" lon="35.019786835">
  <ele>441.002441</ele>
  <time>2011-10-20T05:08:36Z</time>
  <speed>10.200000</speed>
</trkpt>
<trkpt lat="32.759727478" lon="35.019863129">
  <ele>440.166504</ele>
  <time>2011-10-20T05:08:37Z</time>
  <speed>9.830000</speed>
</trkpt>
<trkpt lat="32.759662628" lon="35.019935608">
  <ele>439.791504</ele>
  <time>2011-10-20T05:08:38Z</time>
  <speed>9.460000</speed>
</trkpt>
<trkpt lat="32.759605408" lon="35.020008087">
  <ele>439.439941</ele>
  <time>2011-10-20T05:08:39Z</time>
  <speed>9.280000</speed>
</trkpt>
<trkpt lat="32.759540558" lon="35.020076752">
  <ele>438.752441</ele>
  <time>2011-10-20T05:08:40Z</time>
  <speed>9.120000</speed>
</trkpt>
<trkpt lat="32.759483337" lon="35.020145416">
  <ele>438.033691</ele>
  <time>2011-10-20T05:08:41Z</time>
  <speed>8.610000</speed>
</trkpt>
<trkpt lat="32.759426117" lon="35.020202637">
  <ele>437.049316</ele>
  <time>2011-10-20T05:08:42Z</time>
  <speed>8.290000</speed>
</trkpt>
<trkpt lat="32.759372711" lon="35.020259857">
  <ele>436.643066</ele>
  <time>2011-10-20T05:08:43Z</time>
  <speed>7.430000</speed>
</trkpt>
<trkpt lat="32.759319305" lon="35.020309448">
  <ele>436.557129</ele>
  <time>2011-10-20T05:08:44Z</time>
  <speed>7.230000</speed>
</trkpt>
<trkpt lat="32.759265900" lon="35.020351410">
  <ele>435.385254</ele>
  <time>2011-10-20T05:08:45Z</time>
  <speed>7.270000</speed>
</trkpt>
<trkpt lat="32.759208679" lon="35.020393372">
  <ele>434.408691</ele>
  <time>2011-10-20T05:08:46Z</time>
  <speed>7.500000</speed>
</trkpt>
<trkpt lat="32.759155273" lon="35.020439148">
  <ele>433.916504</ele>
  <time>2011-10-20T05:08:47Z</time>
  <speed>7.560000</speed>
</trkpt>
<trkpt lat="32.759098053" lon="35.020481110">
  <ele>434.166504</ele>
  <time>2011-10-20T05:08:48Z</time>
  <speed>7.750000</speed>
</trkpt>
<trkpt lat="32.759037018" lon="35.020542145">
  <ele>434.400879</ele>
  <time>2011-10-20T05:08:49Z</time>
  <speed>8.080000</speed>
</trkpt>
<trkpt lat="32.758983612" lon="35.020599365">
  <ele>434.299316</ele>
  <time>2011-10-20T05:08:50Z</time>
  <speed>8.140000</speed>
</trkpt>
<trkpt lat="32.758930206" lon="35.020660400">
  <ele>434.549316</ele>
  <time>2011-10-20T05:08:51Z</time>
  <speed>8.240000</speed>
</trkpt>
<trkpt lat="32.758876801" lon="35.020721436">
  <ele>433.830566</ele>
  <time>2011-10-20T05:08:52Z</time>
  <speed>8.060000</speed>
</trkpt>
<trkpt lat="32.758827209" lon="35.020774841">
  <ele>433.666504</ele>
  <time>2011-10-20T05:08:53Z</time>
  <speed>7.440000</speed>
</trkpt>
<trkpt lat="32.758777618" lon="35.020832062">
  <ele>434.166504</ele>
  <time>2011-10-20T05:08:54Z</time>
  <speed>7.400000</speed>
</trkpt>
<trkpt lat="32.758731842" lon="35.020885468">
  <ele>434.025879</ele>
  <time>2011-10-20T05:08:55Z</time>
  <speed>6.710000</speed>
</trkpt>
<trkpt lat="32.758686066" lon="35.020931244">
  <ele>434.236816</ele>
  <time>2011-10-20T05:08:56Z</time>
  <speed>6.550000</speed>
</trkpt>
<trkpt lat="32.758640289" lon="35.020965576">
  <ele>434.377441</ele>
  <time>2011-10-20T05:08:57Z</time>
  <speed>5.870000</speed>
</trkpt>
<trkpt lat="32.758590698" lon="35.020988464">
  <ele>435.143066</ele>
  <time>2011-10-20T05:08:58Z</time>
  <speed>5.600000</speed>
</trkpt>
<trkpt lat="32.758548737" lon="35.021007538">
  <ele>434.986816</ele>
  <time>2011-10-20T05:08:59Z</time>
  <speed>5.230000</speed>
</trkpt>
<trkpt lat="32.758495331" lon="35.021011353">
  <ele>434.932129</ele>
  <time>2011-10-20T05:09:00Z</time>
  <speed>5.590000</speed>
</trkpt>
<trkpt lat="32.758453369" lon="35.021030426">
  <ele>434.596191</ele>
  <time>2011-10-20T05:09:01Z</time>
  <speed>5.200000</speed>
</trkpt>
<trkpt lat="32.758403778" lon="35.021049500">
  <ele>435.057129</ele>
  <time>2011-10-20T05:09:02Z</time>
  <speed>5.560000</speed>
</trkpt>
<trkpt lat="32.758354187" lon="35.021064758">
  <ele>435.393066</ele>
  <time>2011-10-20T05:09:03Z</time>
  <speed>5.610000</speed>
</trkpt>
<trkpt lat="32.758304596" lon="35.021080017">
  <ele>435.932129</ele>
  <time>2011-10-20T05:09:04Z</time>
  <speed>5.780000</speed>
</trkpt>
<trkpt lat="32.758251190" lon="35.021095276">
  <ele>434.768066</ele>
  <time>2011-10-20T05:09:05Z</time>
  <speed>5.970000</speed>
</trkpt>
<trkpt lat="32.758197784" lon="35.021118164">
  <ele>434.572754</ele>
  <time>2011-10-20T05:09:06Z</time>
  <speed>6.160000</speed>
</trkpt>
<trkpt lat="32.758140564" lon="35.021137238">
  <ele>434.205566</ele>
  <time>2011-10-20T05:09:07Z</time>
  <speed>6.530000</speed>
</trkpt>
<trkpt lat="32.758087158" lon="35.021167755">
  <ele>434.072754</ele>
  <time>2011-10-20T05:09:08Z</time>
  <speed>6.690000</speed>
</trkpt>
<trkpt lat="32.758033752" lon="35.021205902">
  <ele>434.369629</ele>
  <time>2011-10-20T05:09:09Z</time>
  <speed>6.660000</speed>
</trkpt>
<trkpt lat="32.757976532" lon="35.021251678">
  <ele>435.002441</ele>
  <time>2011-10-20T05:09:10Z</time>
  <speed>6.980000</speed>
</trkpt>
<trkpt lat="32.757919312" lon="35.021305084">
  <ele>436.369629</ele>
  <time>2011-10-20T05:09:11Z</time>
  <speed>7.030000</speed>
</trkpt>
<trkpt lat="32.757869720" lon="35.021354675">
  <ele>436.479004</ele>
  <time>2011-10-20T05:09:12Z</time>
  <speed>6.900000</speed>
</trkpt>
<trkpt lat="32.757823944" lon="35.021411896">
  <ele>435.666504</ele>
  <time>2011-10-20T05:09:13Z</time>
  <speed>7.040000</speed>
</trkpt>
<trkpt lat="32.757778168" lon="35.021472931">
  <ele>434.557129</ele>
  <time>2011-10-20T05:09:14Z</time>
  <speed>7.130000</speed>
</trkpt>
<trkpt lat="32.757743835" lon="35.021541595">
  <ele>434.158691</ele>
  <time>2011-10-20T05:09:15Z</time>
  <speed>7.400000</speed>
</trkpt>
<trkpt lat="32.757709503" lon="35.021606445">
  <ele>433.291504</ele>
  <time>2011-10-20T05:09:16Z</time>
  <speed>6.890000</speed>
</trkpt>
<trkpt lat="32.757678986" lon="35.021675110">
  <ele>432.658691</ele>
  <time>2011-10-20T05:09:17Z</time>
  <speed>6.720000</speed>
</trkpt>
<trkpt lat="32.757652283" lon="35.021739960">
  <ele>431.658691</ele>
  <time>2011-10-20T05:09:18Z</time>
  <speed>6.480000</speed>
</trkpt>
<trkpt lat="32.757621765" lon="35.021804810">
  <ele>431.447754</ele>
  <time>2011-10-20T05:09:19Z</time>
  <speed>6.160000</speed>
</trkpt>
<trkpt lat="32.757595062" lon="35.021862030">
  <ele>431.057129</ele>
  <time>2011-10-20T05:09:20Z</time>
  <speed>6.380000</speed>
</trkpt>
<trkpt lat="32.757560730" lon="35.021923065">
  <ele>430.510254</ele>
  <time>2011-10-20T05:09:21Z</time>
  <speed>6.990000</speed>
</trkpt>
<trkpt lat="32.757518768" lon="35.021984100">
  <ele>430.119629</ele>
  <time>2011-10-20T05:09:22Z</time>
  <speed>7.310000</speed>
</trkpt>
<trkpt lat="32.757476807" lon="35.022052765">
  <ele>429.408691</ele>
  <time>2011-10-20T05:09:23Z</time>
  <speed>8.230000</speed>
</trkpt>
<trkpt lat="32.757427216" lon="35.022113800">
  <ele>428.807129</ele>
  <time>2011-10-20T05:09:24Z</time>
  <speed>7.890000</speed>
</trkpt>
<trkpt lat="32.757366180" lon="35.022167206">
  <ele>429.002441</ele>
  <time>2011-10-20T05:09:25Z</time>
  <speed>7.810000</speed>
</trkpt>
<trkpt lat="32.757312775" lon="35.022228241">
  <ele>427.939941</ele>
  <time>2011-10-20T05:09:26Z</time>
  <speed>7.630000</speed>
</trkpt>
<trkpt lat="32.757259369" lon="35.022281647">
  <ele>428.025879</ele>
  <time>2011-10-20T05:09:27Z</time>
  <speed>7.660000</speed>
</trkpt>
<trkpt lat="32.757209778" lon="35.022335052">
  <ele>427.447754</ele>
  <time>2011-10-20T05:09:28Z</time>
  <speed>7.620000</speed>
</trkpt>
<trkpt lat="32.757156372" lon="35.022392273">
  <ele>427.143066</ele>
  <time>2011-10-20T05:09:29Z</time>
  <speed>7.850000</speed>
</trkpt>
<trkpt lat="32.757099152" lon="35.022445679">
  <ele>427.393066</ele>
  <time>2011-10-20T05:09:30Z</time>
  <speed>7.810000</speed>
</trkpt>
<trkpt lat="32.757049561" lon="35.022495270">
  <ele>426.588379</ele>
  <time>2011-10-20T05:09:31Z</time>
  <speed>7.660000</speed>
</trkpt>
<trkpt lat="32.756992340" lon="35.022552490">
  <ele>427.393066</ele>
  <time>2011-10-20T05:09:32Z</time>
  <speed>7.850000</speed>
</trkpt>
<trkpt lat="32.756938934" lon="35.022609711">
  <ele>427.908691</ele>
  <time>2011-10-20T05:09:33Z</time>
  <speed>7.930000</speed>
</trkpt>
<trkpt lat="32.756889343" lon="35.022666931">
  <ele>428.119629</ele>
  <time>2011-10-20T05:09:34Z</time>
  <speed>8.070000</speed>
</trkpt>
<trkpt lat="32.756839752" lon="35.022727966">
  <ele>427.713379</ele>
  <time>2011-10-20T05:09:35Z</time>
  <speed>7.940000</speed>
</trkpt>
<trkpt lat="32.756786346" lon="35.022785187">
  <ele>428.229004</ele>
  <time>2011-10-20T05:09:36Z</time>
  <speed>7.770000</speed>
</trkpt>
<trkpt lat="32.756740570" lon="35.022846222">
  <ele>428.869629</ele>
  <time>2011-10-20T05:09:37Z</time>
  <speed>7.480000</speed>
</trkpt>
<trkpt lat="32.756698608" lon="35.022911072">
  <ele>429.393066</ele>
  <time>2011-10-20T05:09:38Z</time>
  <speed>7.230000</speed>
</trkpt>
<trkpt lat="32.756668091" lon="35.022960663">
  <ele>428.908691</ele>
  <time>2011-10-20T05:09:39Z</time>
  <speed>5.170000</speed>
</trkpt>
<trkpt lat="32.756645203" lon="35.022991180">
  <ele>427.814941</ele>
  <time>2011-10-20T05:09:40Z</time>
  <speed>3.480000</speed>
</trkpt>
<trkpt lat="32.756626129" lon="35.023006439">
  <ele>428.783691</ele>
  <time>2011-10-20T05:09:41Z</time>
  <speed>2.370000</speed>
</trkpt>
<trkpt lat="32.756599426" lon="35.023040771">
  <ele>428.127441</ele>
  <time>2011-10-20T05:09:43Z</time>
  <speed>1.580000</speed>
</trkpt>
<trkpt lat="32.756626129" lon="35.023052216">
  <ele>428.760254</ele>
  <time>2011-10-20T05:09:46Z</time>
  <speed>0.950000</speed>
</trkpt>
<trkpt lat="32.756641388" lon="35.023021698">
  <ele>431.025879</ele>
  <time>2011-10-20T05:09:48Z</time>
  <speed>0.850000</speed>
</trkpt>
<trkpt lat="32.756671906" lon="35.023021698">
  <ele>431.861816</ele>
  <time>2011-10-20T05:09:51Z</time>
  <speed>1.360000</speed>
</trkpt>
<trkpt lat="32.756660461" lon="35.023059845">
  <ele>431.869629</ele>
  <time>2011-10-20T05:09:54Z</time>
  <speed>1.120000</speed>
</trkpt>
<trkpt lat="32.756645203" lon="35.023097992">
  <ele>431.447754</ele>
  <time>2011-10-20T05:09:57Z</time>
  <speed>1.140000</speed>
</trkpt>
<trkpt lat="32.756629944" lon="35.023132324">
  <ele>431.307129</ele>
  <time>2011-10-20T05:10:00Z</time>
  <speed>1.090000</speed>
</trkpt>
<trkpt lat="32.756649017" lon="35.023143768">
  <ele>433.455566</ele>
  <time>2011-10-20T05:10:04Z</time>
  <speed>0.090000</speed>
</trkpt>
<trkpt lat="32.756668091" lon="35.023162842">
  <ele>435.307129</ele>
  <time>2011-10-20T05:10:20Z</time>
  <speed>1.210000</speed>
</trkpt>
<trkpt lat="32.756698608" lon="35.023170471">
  <ele>436.549316</ele>
  <time>2011-10-20T05:10:23Z</time>
  <speed>1.210000</speed>
</trkpt>
<trkpt lat="32.756717682" lon="35.023204803">
  <ele>436.463379</ele>
  <time>2011-10-20T05:10:25Z</time>
  <speed>1.430000</speed>
</trkpt>
<trkpt lat="32.756748199" lon="35.023239136">
  <ele>436.424316</ele>
  <time>2011-10-20T05:10:27Z</time>
  <speed>2.300000</speed>
</trkpt>
<trkpt lat="32.756790161" lon="35.023281097">
  <ele>437.088379</ele>
  <time>2011-10-20T05:10:29Z</time>
  <speed>2.990000</speed>
</trkpt>
<trkpt lat="32.756813049" lon="35.023303986">
  <ele>437.111816</ele>
  <time>2011-10-20T05:10:30Z</time>
  <speed>2.790000</speed>
</trkpt>
<trkpt lat="32.756855011" lon="35.023338318">
  <ele>438.189941</ele>
  <time>2011-10-20T05:10:32Z</time>
  <speed>3.390000</speed>
</trkpt>
<trkpt lat="32.756885529" lon="35.023361206">
  <ele>438.729004</ele>
  <time>2011-10-20T05:10:33Z</time>
  <speed>3.320000</speed>
</trkpt>
<trkpt lat="32.756916046" lon="35.023368835">
  <ele>438.924316</ele>
  <time>2011-10-20T05:10:34Z</time>
  <speed>3.410000</speed>
</trkpt>
<trkpt lat="32.756950378" lon="35.023376465">
  <ele>438.518066</ele>
  <time>2011-10-20T05:10:35Z</time>
  <speed>3.320000</speed>
</trkpt>
<trkpt lat="32.757003784" lon="35.023387909">
  <ele>438.307129</ele>
  <time>2011-10-20T05:10:37Z</time>
  <speed>3.160000</speed>
</trkpt>
<trkpt lat="32.757053375" lon="35.023403168">
  <ele>439.369629</ele>
  <time>2011-10-20T05:10:39Z</time>
  <speed>3.610000</speed>
</trkpt>
<trkpt lat="32.757083893" lon="35.023406982">
  <ele>439.252441</ele>
  <time>2011-10-20T05:10:40Z</time>
  <speed>3.680000</speed>
</trkpt>
<trkpt lat="32.757118225" lon="35.023410797">
  <ele>439.596191</ele>
  <time>2011-10-20T05:10:41Z</time>
  <speed>3.710000</speed>
</trkpt>
<trkpt lat="32.757152557" lon="35.023414612">
  <ele>439.275879</ele>
  <time>2011-10-20T05:10:42Z</time>
  <speed>3.720000</speed>
</trkpt>
<trkpt lat="32.757183075" lon="35.023414612">
  <ele>438.814941</ele>
  <time>2011-10-20T05:10:43Z</time>
  <speed>3.550000</speed>
</trkpt>
<trkpt lat="32.757213593" lon="35.023414612">
  <ele>438.502441</ele>
  <time>2011-10-20T05:10:44Z</time>
  <speed>3.410000</speed>
</trkpt>
<trkpt lat="32.757244110" lon="35.023414612">
  <ele>437.768066</ele>
  <time>2011-10-20T05:10:45Z</time>
  <speed>3.770000</speed>
</trkpt>
<trkpt lat="32.757286072" lon="35.023422241">
  <ele>436.205566</ele>
  <time>2011-10-20T05:10:46Z</time>
  <speed>3.860000</speed>
</trkpt>
<trkpt lat="32.757324219" lon="35.023429871">
  <ele>435.869629</ele>
  <time>2011-10-20T05:10:47Z</time>
  <speed>4.090000</speed>
</trkpt>
<trkpt lat="32.757366180" lon="35.023441315">
  <ele>434.807129</ele>
  <time>2011-10-20T05:10:48Z</time>
  <speed>4.130000</speed>
</trkpt>
<trkpt lat="32.757396698" lon="35.023456573">
  <ele>435.025879</ele>
  <time>2011-10-20T05:10:49Z</time>
  <speed>4.090000</speed>
</trkpt>
<trkpt lat="32.757438660" lon="35.023479462">
  <ele>435.471191</ele>
  <time>2011-10-20T05:10:50Z</time>
  <speed>3.910000</speed>
</trkpt>
<trkpt lat="32.757457733" lon="35.023502350">
  <ele>435.916504</ele>
  <time>2011-10-20T05:10:51Z</time>
  <speed>3.920000</speed>
</trkpt>
<trkpt lat="32.757488251" lon="35.023521423">
  <ele>436.330566</ele>
  <time>2011-10-20T05:10:52Z</time>
  <speed>4.100000</speed>
</trkpt>
<trkpt lat="32.757522583" lon="35.023548126">
  <ele>437.104004</ele>
  <time>2011-10-20T05:10:53Z</time>
  <speed>4.380000</speed>
</trkpt>
<trkpt lat="32.757553101" lon="35.023574829">
  <ele>437.830566</ele>
  <time>2011-10-20T05:10:54Z</time>
  <speed>4.370000</speed>
</trkpt>
<trkpt lat="32.757591248" lon="35.023597717">
  <ele>437.877441</ele>
  <time>2011-10-20T05:10:55Z</time>
  <speed>4.440000</speed>
</trkpt>
<trkpt lat="32.757625580" lon="35.023624420">
  <ele>438.299316</ele>
  <time>2011-10-20T05:10:56Z</time>
  <speed>4.330000</speed>
</trkpt>
<trkpt lat="32.757656097" lon="35.023651123">
  <ele>438.080566</ele>
  <time>2011-10-20T05:10:57Z</time>
  <speed>4.180000</speed>
</trkpt>
<trkpt lat="32.757686615" lon="35.023677826">
  <ele>438.354004</ele>
  <time>2011-10-20T05:10:58Z</time>
  <speed>4.050000</speed>
</trkpt>
<trkpt lat="32.757713318" lon="35.023704529">
  <ele>438.189941</ele>
  <time>2011-10-20T05:10:59Z</time>
  <speed>3.970000</speed>
</trkpt>
<trkpt lat="32.757740021" lon="35.023735046">
  <ele>438.471191</ele>
  <time>2011-10-20T05:11:00Z</time>
  <speed>3.960000</speed>
</trkpt>
<trkpt lat="32.757762909" lon="35.023757935">
  <ele>439.510254</ele>
  <time>2011-10-20T05:11:01Z</time>
  <speed>3.990000</speed>
</trkpt>
<trkpt lat="32.757793427" lon="35.023788452">
  <ele>439.400879</ele>
  <time>2011-10-20T05:11:02Z</time>
  <speed>4.140000</speed>
</trkpt>
<trkpt lat="32.757820129" lon="35.023815155">
  <ele>439.564941</ele>
  <time>2011-10-20T05:11:03Z</time>
  <speed>4.210000</speed>
</trkpt>
<trkpt lat="32.757854462" lon="35.023849487">
  <ele>439.666504</ele>
  <time>2011-10-20T05:11:04Z</time>
  <speed>4.110000</speed>
</trkpt>
<trkpt lat="32.757884979" lon="35.023876190">
  <ele>439.189941</ele>
  <time>2011-10-20T05:11:05Z</time>
  <speed>4.050000</speed>
</trkpt>
<trkpt lat="32.757919312" lon="35.023906708">
  <ele>439.604004</ele>
  <time>2011-10-20T05:11:06Z</time>
  <speed>4.370000</speed>
</trkpt>
<trkpt lat="32.757949829" lon="35.023941040">
  <ele>439.299316</ele>
  <time>2011-10-20T05:11:07Z</time>
  <speed>4.580000</speed>
</trkpt>
<trkpt lat="32.757984161" lon="35.023967743">
  <ele>440.072754</ele>
  <time>2011-10-20T05:11:08Z</time>
  <speed>4.570000</speed>
</trkpt>
<trkpt lat="32.758018494" lon="35.023998260">
  <ele>439.830566</ele>
  <time>2011-10-20T05:11:09Z</time>
  <speed>4.670000</speed>
</trkpt>
<trkpt lat="32.758052826" lon="35.024028778">
  <ele>440.330566</ele>
  <time>2011-10-20T05:11:10Z</time>
  <speed>4.730000</speed>
</trkpt>
<trkpt lat="32.758087158" lon="35.024063110">
  <ele>440.104004</ele>
  <time>2011-10-20T05:11:11Z</time>
  <speed>5.040000</speed>
</trkpt>
<trkpt lat="32.758129120" lon="35.024101257">
  <ele>440.244629</ele>
  <time>2011-10-20T05:11:12Z</time>
  <speed>5.180000</speed>
</trkpt>
<trkpt lat="32.758163452" lon="35.024135590">
  <ele>440.291504</ele>
  <time>2011-10-20T05:11:13Z</time>
  <speed>5.350000</speed>
</trkpt>
<trkpt lat="32.758205414" lon="35.024169922">
  <ele>440.338379</ele>
  <time>2011-10-20T05:11:14Z</time>
  <speed>5.470000</speed>
</trkpt>
<trkpt lat="32.758243561" lon="35.024204254">
  <ele>440.869629</ele>
  <time>2011-10-20T05:11:15Z</time>
  <speed>5.430000</speed>
</trkpt>
<trkpt lat="32.758277893" lon="35.024242401">
  <ele>441.104004</ele>
  <time>2011-10-20T05:11:16Z</time>
  <speed>5.440000</speed>
</trkpt>
<trkpt lat="32.758323669" lon="35.024276733">
  <ele>440.721191</ele>
  <time>2011-10-20T05:11:17Z</time>
  <speed>5.550000</speed>
</trkpt>
<trkpt lat="32.758361816" lon="35.024318695">
  <ele>440.268066</ele>
  <time>2011-10-20T05:11:18Z</time>
  <speed>5.550000</speed>
</trkpt>
<trkpt lat="32.758407593" lon="35.024356842">
  <ele>439.869629</ele>
  <time>2011-10-20T05:11:19Z</time>
  <speed>5.650000</speed>
</trkpt>
<trkpt lat="32.758445740" lon="35.024391174">
  <ele>439.807129</ele>
  <time>2011-10-20T05:11:20Z</time>
  <speed>5.400000</speed>
</trkpt>
<trkpt lat="32.758487701" lon="35.024429321">
  <ele>439.080566</ele>
  <time>2011-10-20T05:11:21Z</time>
  <speed>5.630000</speed>
</trkpt>
<trkpt lat="32.758525848" lon="35.024463654">
  <ele>439.174316</ele>
  <time>2011-10-20T05:11:22Z</time>
  <speed>5.480000</speed>
</trkpt>
<trkpt lat="32.758567810" lon="35.024482727">
  <ele>438.721191</ele>
  <time>2011-10-20T05:11:23Z</time>
  <speed>5.340000</speed>
</trkpt>
<trkpt lat="32.758602142" lon="35.024520874">
  <ele>438.525879</ele>
  <time>2011-10-20T05:11:24Z</time>
  <speed>4.520000</speed>
</trkpt>
<trkpt lat="32.758632660" lon="35.024555206">
  <ele>438.252441</ele>
  <time>2011-10-20T05:11:25Z</time>
  <speed>4.340000</speed>
</trkpt>
<trkpt lat="32.758666992" lon="35.024581909">
  <ele>438.229004</ele>
  <time>2011-10-20T05:11:26Z</time>
  <speed>4.260000</speed>
</trkpt>
<trkpt lat="32.758708954" lon="35.024616241">
  <ele>438.479004</ele>
  <time>2011-10-20T05:11:27Z</time>
  <speed>5.360000</speed>
</trkpt>
<trkpt lat="32.758766174" lon="35.024635315">
  <ele>438.236816</ele>
  <time>2011-10-20T05:11:28Z</time>
  <speed>5.460000</speed>
</trkpt>
<trkpt lat="32.758819580" lon="35.024654388">
  <ele>438.213379</ele>
  <time>2011-10-20T05:11:29Z</time>
  <speed>5.600000</speed>
</trkpt>
<trkpt lat="32.758865356" lon="35.024673462">
  <ele>438.775879</ele>
  <time>2011-10-20T05:11:30Z</time>
  <speed>4.740000</speed>
</trkpt>
<trkpt lat="32.758907318" lon="35.024681091">
  <ele>439.057129</ele>
  <time>2011-10-20T05:11:31Z</time>
  <speed>4.460000</speed>
</trkpt>
<trkpt lat="32.758937836" lon="35.024684906">
  <ele>437.096191</ele>
  <time>2011-10-20T05:11:32Z</time>
  <speed>2.890000</speed>
</trkpt>
<trkpt lat="32.758975983" lon="35.024711609">
  <ele>436.408691</ele>
  <time>2011-10-20T05:11:34Z</time>
  <speed>2.010000</speed>
</trkpt>
<trkpt lat="32.759010315" lon="35.024711609">
  <ele>434.643066</ele>
  <time>2011-10-20T05:11:36Z</time>
  <speed>1.730000</speed>
</trkpt>
<trkpt lat="32.759037018" lon="35.024723053">
  <ele>433.689941</ele>
  <time>2011-10-20T05:11:38Z</time>
  <speed>1.370000</speed>
</trkpt>
<trkpt lat="32.759071350" lon="35.024719238">
  <ele>432.502441</ele>
  <time>2011-10-20T05:11:40Z</time>
  <speed>1.940000</speed>
</trkpt>
<trkpt lat="32.759105682" lon="35.024723053">
  <ele>431.893066</ele>
  <time>2011-10-20T05:11:42Z</time>
  <speed>1.230000</speed>
</trkpt>
<trkpt lat="32.759143829" lon="35.024730682">
  <ele>431.166504</ele>
  <time>2011-10-20T05:11:45Z</time>
  <speed>1.040000</speed>
</trkpt>
<trkpt lat="32.759170532" lon="35.024742126">
  <ele>430.744629</ele>
  <time>2011-10-20T05:11:49Z</time>
  <speed>0.540000</speed>
</trkpt>
<trkpt lat="32.759189606" lon="35.024784088">
  <ele>429.799316</ele>
  <time>2011-10-20T05:11:55Z</time>
  <speed>2.530000</speed>
</trkpt>
<trkpt lat="32.759204865" lon="35.024814606">
  <ele>431.275879</ele>
  <time>2011-10-20T05:11:56Z</time>
  <speed>2.610000</speed>
</trkpt>
<trkpt lat="32.759262085" lon="35.024864197">
  <ele>430.400879</ele>
  <time>2011-10-20T05:11:58Z</time>
  <speed>4.140000</speed>
</trkpt>
<trkpt lat="32.759292603" lon="35.024906158">
  <ele>431.197754</ele>
  <time>2011-10-20T05:11:59Z</time>
  <speed>4.940000</speed>
</trkpt>
<trkpt lat="32.759323120" lon="35.024955750">
  <ele>431.432129</ele>
  <time>2011-10-20T05:12:00Z</time>
  <speed>5.260000</speed>
</trkpt>
<trkpt lat="32.759349823" lon="35.024997711">
  <ele>431.111816</ele>
  <time>2011-10-20T05:12:01Z</time>
  <speed>5.350000</speed>
</trkpt>
<trkpt lat="32.759372711" lon="35.025043488">
  <ele>431.018066</ele>
  <time>2011-10-20T05:12:02Z</time>
  <speed>4.730000</speed>
</trkpt>
<trkpt lat="32.759399414" lon="35.025089264">
  <ele>430.947754</ele>
  <time>2011-10-20T05:12:03Z</time>
  <speed>4.760000</speed>
</trkpt>
<trkpt lat="32.759418488" lon="35.025135040">
  <ele>430.479004</ele>
  <time>2011-10-20T05:12:04Z</time>
  <speed>4.510000</speed>
</trkpt>
<trkpt lat="32.759426117" lon="35.025169373">
  <ele>430.314941</ele>
  <time>2011-10-20T05:12:05Z</time>
  <speed>2.780000</speed>
</trkpt>
<trkpt lat="32.759449005" lon="35.025211334">
  <ele>430.049316</ele>
  <time>2011-10-20T05:12:07Z</time>
  <speed>2.770000</speed>
</trkpt>
<trkpt lat="32.759460449" lon="35.025238037">
  <ele>428.994629</ele>
  <time>2011-10-20T05:12:08Z</time>
  <speed>2.130000</speed>
</trkpt>
<trkpt lat="32.759487152" lon="35.025276184">
  <ele>428.432129</ele>
  <time>2011-10-20T05:12:10Z</time>
  <speed>1.300000</speed>
</trkpt>
<trkpt lat="32.759498596" lon="35.025302887">
  <ele>427.041504</ele>
  <time>2011-10-20T05:12:12Z</time>
  <speed>1.230000</speed>
</trkpt>
<trkpt lat="32.759521484" lon="35.025321960">
  <ele>427.096191</ele>
  <time>2011-10-20T05:12:13Z</time>
  <speed>2.590000</speed>
</trkpt>
<trkpt lat="32.759540558" lon="35.025348663">
  <ele>426.697754</ele>
  <time>2011-10-20T05:12:14Z</time>
  <speed>3.260000</speed>
</trkpt>
<trkpt lat="32.759548187" lon="35.025382996">
  <ele>426.338379</ele>
  <time>2011-10-20T05:12:15Z</time>
  <speed>3.070000</speed>
</trkpt>
<trkpt lat="32.759552002" lon="35.025413513">
  <ele>425.807129</ele>
  <time>2011-10-20T05:12:16Z</time>
  <speed>2.850000</speed>
</trkpt>
<trkpt lat="32.759571075" lon="35.025455475">
  <ele>424.979004</ele>
  <time>2011-10-20T05:12:17Z</time>
  <speed>2.980000</speed>
</trkpt>
<trkpt lat="32.759593964" lon="35.025489807">
  <ele>424.775879</ele>
  <time>2011-10-20T05:12:18Z</time>
  <speed>3.500000</speed>
</trkpt>
<trkpt lat="32.759639740" lon="35.025527954">
  <ele>423.861816</ele>
  <time>2011-10-20T05:12:19Z</time>
  <speed>2.810000</speed>
</trkpt>
<trkpt lat="32.759666443" lon="35.025547028">
  <ele>423.604004</ele>
  <time>2011-10-20T05:12:20Z</time>
  <speed>2.160000</speed>
</trkpt>
<trkpt lat="32.759647369" lon="35.025596619">
  <ele>422.986816</ele>
  <time>2011-10-20T05:12:22Z</time>
  <speed>2.410000</speed>
</trkpt>
<trkpt lat="32.759613037" lon="35.025646210">
  <ele>423.088379</ele>
  <time>2011-10-20T05:12:24Z</time>
  <speed>3.120000</speed>
</trkpt>
<trkpt lat="32.759590149" lon="35.025672913">
  <ele>422.666504</ele>
  <time>2011-10-20T05:12:25Z</time>
  <speed>2.780000</speed>
</trkpt>
<trkpt lat="32.759567261" lon="35.025699615">
  <ele>422.197754</ele>
  <time>2011-10-20T05:12:26Z</time>
  <speed>3.570000</speed>
</trkpt>
<trkpt lat="32.759540558" lon="35.025726318">
  <ele>421.400879</ele>
  <time>2011-10-20T05:12:27Z</time>
  <speed>2.980000</speed>
</trkpt>
<trkpt lat="32.759506226" lon="35.025733948">
  <ele>421.502441</ele>
  <time>2011-10-20T05:12:28Z</time>
  <speed>3.370000</speed>
</trkpt>
<trkpt lat="32.759475708" lon="35.025726318">
  <ele>421.096191</ele>
  <time>2011-10-20T05:12:29Z</time>
  <speed>3.700000</speed>
</trkpt>
<trkpt lat="32.759433746" lon="35.025737762">
  <ele>420.518066</ele>
  <time>2011-10-20T05:12:30Z</time>
  <speed>3.330000</speed>
</trkpt>
<trkpt lat="32.759395599" lon="35.025753021">
  <ele>420.354004</ele>
  <time>2011-10-20T05:12:31Z</time>
  <speed>3.720000</speed>
</trkpt>
<trkpt lat="32.759361267" lon="35.025764465">
  <ele>420.393066</ele>
  <time>2011-10-20T05:12:32Z</time>
  <speed>4.090000</speed>
</trkpt>
<trkpt lat="32.759334564" lon="35.025772095">
  <ele>421.104004</ele>
  <time>2011-10-20T05:12:33Z</time>
  <speed>2.610000</speed>
</trkpt>
<trkpt lat="32.759300232" lon="35.025749207">
  <ele>421.596191</ele>
  <time>2011-10-20T05:12:35Z</time>
  <speed>1.940000</speed>
</trkpt>
<trkpt lat="32.759273529" lon="35.025737762">
  <ele>421.533691</ele>
  <time>2011-10-20T05:12:36Z</time>
  <speed>2.750000</speed>
</trkpt>
<trkpt lat="32.759243011" lon="35.025722504">
  <ele>421.861816</ele>
  <time>2011-10-20T05:12:37Z</time>
  <speed>3.620000</speed>
</trkpt>
<trkpt lat="32.759197235" lon="35.025699615">
  <ele>422.291504</ele>
  <time>2011-10-20T05:12:38Z</time>
  <speed>3.230000</speed>
</trkpt>
<trkpt lat="32.759170532" lon="35.025684357">
  <ele>422.275879</ele>
  <time>2011-10-20T05:12:39Z</time>
  <speed>2.950000</speed>
</trkpt>
<trkpt lat="32.759140015" lon="35.025665283">
  <ele>422.049316</ele>
  <time>2011-10-20T05:12:40Z</time>
  <speed>2.860000</speed>
</trkpt>
<trkpt lat="32.759120941" lon="35.025638580">
  <ele>421.658691</ele>
  <time>2011-10-20T05:12:41Z</time>
  <speed>2.830000</speed>
</trkpt>
<trkpt lat="32.759094238" lon="35.025623322">
  <ele>421.213379</ele>
  <time>2011-10-20T05:12:42Z</time>
  <speed>2.920000</speed>
</trkpt>
<trkpt lat="32.759067535" lon="35.025604248">
  <ele>420.463379</ele>
  <time>2011-10-20T05:12:43Z</time>
  <speed>3.380000</speed>
</trkpt>
<trkpt lat="32.759033203" lon="35.025581360">
  <ele>420.064941</ele>
  <time>2011-10-20T05:12:44Z</time>
  <speed>3.550000</speed>
</trkpt>
<trkpt lat="32.758998871" lon="35.025558472">
  <ele>419.385254</ele>
  <time>2011-10-20T05:12:45Z</time>
  <speed>4.540000</speed>
</trkpt>
<trkpt lat="32.758960724" lon="35.025520325">
  <ele>419.697754</ele>
  <time>2011-10-20T05:12:46Z</time>
  <speed>5.020000</speed>
</trkpt>
<trkpt lat="32.758922577" lon="35.025478363">
  <ele>419.744629</ele>
  <time>2011-10-20T05:12:47Z</time>
  <speed>5.480000</speed>
</trkpt>
<trkpt lat="32.758876801" lon="35.025428772">
  <ele>420.471191</ele>
  <time>2011-10-20T05:12:48Z</time>
  <speed>4.870000</speed>
</trkpt>
<trkpt lat="32.758842468" lon="35.025386810">
  <ele>420.627441</ele>
  <time>2011-10-20T05:12:49Z</time>
  <speed>4.500000</speed>
</trkpt>
<trkpt lat="32.758808136" lon="35.025360107">
  <ele>420.229004</ele>
  <time>2011-10-20T05:12:50Z</time>
  <speed>4.420000</speed>
</trkpt>
<trkpt lat="32.758769989" lon="35.025337219">
  <ele>419.760254</ele>
  <time>2011-10-20T05:12:51Z</time>
  <speed>4.340000</speed>
</trkpt>
<trkpt lat="32.758735657" lon="35.025306702">
  <ele>419.768066</ele>
  <time>2011-10-20T05:12:52Z</time>
  <speed>4.760000</speed>
</trkpt>
<trkpt lat="32.758701324" lon="35.025272369">
  <ele>419.900879</ele>
  <time>2011-10-20T05:12:53Z</time>
  <speed>4.730000</speed>
</trkpt>
<trkpt lat="32.758663177" lon="35.025241852">
  <ele>420.322754</ele>
  <time>2011-10-20T05:12:54Z</time>
  <speed>3.610000</speed>
</trkpt>
<trkpt lat="32.758632660" lon="35.025207520">
  <ele>419.854004</ele>
  <time>2011-10-20T05:12:56Z</time>
  <speed>1.350000</speed>
</trkpt>
<trkpt lat="32.758602142" lon="35.025192261">
  <ele>419.611816</ele>
  <time>2011-10-20T05:13:02Z</time>
  <speed>0.800000</speed>
</trkpt>
<trkpt lat="32.758567810" lon="35.025184631">
  <ele>419.736816</ele>
  <time>2011-10-20T05:13:07Z</time>
  <speed>0.800000</speed>
</trkpt>
<trkpt lat="32.758533478" lon="35.025161743">
  <ele>419.729004</ele>
  <time>2011-10-20T05:13:12Z</time>
  <speed>1.720000</speed>
</trkpt>
<trkpt lat="32.758514404" lon="35.025119781">
  <ele>419.760254</ele>
  <time>2011-10-20T05:13:14Z</time>
  <speed>2.520000</speed>
</trkpt>
<trkpt lat="32.758483887" lon="35.025077820">
  <ele>419.596191</ele>
  <time>2011-10-20T05:13:16Z</time>
  <speed>2.750000</speed>
</trkpt>
<trkpt lat="32.758464813" lon="35.025047302">
  <ele>419.979004</ele>
  <time>2011-10-20T05:13:17Z</time>
  <speed>3.060000</speed>
</trkpt>
<trkpt lat="32.758438110" lon="35.025016785">
  <ele>420.354004</ele>
  <time>2011-10-20T05:13:18Z</time>
  <speed>3.480000</speed>
</trkpt>
<trkpt lat="32.758407593" lon="35.024990082">
  <ele>420.393066</ele>
  <time>2011-10-20T05:13:19Z</time>
  <speed>4.010000</speed>
</trkpt>
<trkpt lat="32.758377075" lon="35.024963379">
  <ele>420.307129</ele>
  <time>2011-10-20T05:13:20Z</time>
  <speed>4.370000</speed>
</trkpt>
<trkpt lat="32.758338928" lon="35.024948120">
  <ele>420.150879</ele>
  <time>2011-10-20T05:13:21Z</time>
  <speed>4.010000</speed>
</trkpt>
<trkpt lat="32.758312225" lon="35.024913788">
  <ele>420.127441</ele>
  <time>2011-10-20T05:13:22Z</time>
  <speed>4.760000</speed>
</trkpt>
<trkpt lat="32.758285522" lon="35.024871826">
  <ele>419.838379</ele>
  <time>2011-10-20T05:13:23Z</time>
  <speed>4.200000</speed>
</trkpt>
<trkpt lat="32.758262634" lon="35.024848938">
  <ele>419.729004</ele>
  <time>2011-10-20T05:13:24Z</time>
  <speed>2.960000</speed>
</trkpt>
<trkpt lat="32.758201599" lon="35.024845123">
  <ele>418.518066</ele>
  <time>2011-10-20T05:13:26Z</time>
  <speed>3.040000</speed>
</trkpt>
<trkpt lat="32.758171082" lon="35.024860382">
  <ele>418.713379</ele>
  <time>2011-10-20T05:13:27Z</time>
  <speed>3.200000</speed>
</trkpt>
<trkpt lat="32.758144379" lon="35.024887085">
  <ele>418.635254</ele>
  <time>2011-10-20T05:13:28Z</time>
  <speed>3.190000</speed>
</trkpt>
<trkpt lat="32.758125305" lon="35.024913788">
  <ele>419.127441</ele>
  <time>2011-10-20T05:13:29Z</time>
  <speed>3.060000</speed>
</trkpt>
<trkpt lat="32.758113861" lon="35.024955750">
  <ele>419.510254</ele>
  <time>2011-10-20T05:13:30Z</time>
  <speed>3.380000</speed>
</trkpt>
<trkpt lat="32.758102417" lon="35.025001526">
  <ele>419.682129</ele>
  <time>2011-10-20T05:13:31Z</time>
  <speed>3.760000</speed>
</trkpt>
<trkpt lat="32.758090973" lon="35.025043488">
  <ele>419.408691</ele>
  <time>2011-10-20T05:13:32Z</time>
  <speed>3.980000</speed>
</trkpt>
<trkpt lat="32.758075714" lon="35.025081635">
  <ele>419.424316</ele>
  <time>2011-10-20T05:13:33Z</time>
  <speed>3.440000</speed>
</trkpt>
<trkpt lat="32.758060455" lon="35.025119781">
  <ele>419.721191</ele>
  <time>2011-10-20T05:13:34Z</time>
  <speed>3.290000</speed>
</trkpt>
<trkpt lat="32.758056641" lon="35.025157928">
  <ele>419.854004</ele>
  <time>2011-10-20T05:13:35Z</time>
  <speed>3.520000</speed>
</trkpt>
<trkpt lat="32.758045197" lon="35.025196075">
  <ele>420.486816</ele>
  <time>2011-10-20T05:13:36Z</time>
  <speed>3.430000</speed>
</trkpt>
<trkpt lat="32.758037567" lon="35.025234222">
  <ele>420.666504</ele>
  <time>2011-10-20T05:13:37Z</time>
  <speed>2.930000</speed>
</trkpt>
<trkpt lat="32.758026123" lon="35.025268555">
  <ele>420.775879</ele>
  <time>2011-10-20T05:13:38Z</time>
  <speed>2.900000</speed>
</trkpt>
<trkpt lat="32.758018494" lon="35.025302887">
  <ele>420.861816</ele>
  <time>2011-10-20T05:13:39Z</time>
  <speed>2.700000</speed>
</trkpt>
<trkpt lat="32.758007050" lon="35.025337219">
  <ele>421.158691</ele>
  <time>2011-10-20T05:13:40Z</time>
  <speed>2.500000</speed>
</trkpt>
<trkpt lat="32.757991791" lon="35.025394440">
  <ele>421.596191</ele>
  <time>2011-10-20T05:13:42Z</time>
  <speed>1.880000</speed>
</trkpt>
<trkpt lat="32.757972717" lon="35.025440216">
  <ele>421.877441</ele>
  <time>2011-10-20T05:13:44Z</time>
  <speed>2.230000</speed>
</trkpt>
<trkpt lat="32.757957458" lon="35.025505066">
  <ele>423.518066</ele>
  <time>2011-10-20T05:13:46Z</time>
  <speed>2.670000</speed>
</trkpt>
<trkpt lat="32.757953644" lon="35.025562286">
  <ele>423.416504</ele>
  <time>2011-10-20T05:13:48Z</time>
  <speed>3.100000</speed>
</trkpt>
<trkpt lat="32.757942200" lon="35.025592804">
  <ele>423.666504</ele>
  <time>2011-10-20T05:13:49Z</time>
  <speed>3.110000</speed>
</trkpt>
<trkpt lat="32.757926941" lon="35.025623322">
  <ele>423.971191</ele>
  <time>2011-10-20T05:13:50Z</time>
  <speed>3.560000</speed>
</trkpt>
<trkpt lat="32.757907867" lon="35.025661469">
  <ele>423.736816</ele>
  <time>2011-10-20T05:13:51Z</time>
  <speed>4.050000</speed>
</trkpt>
<trkpt lat="32.757892609" lon="35.025691986">
  <ele>423.666504</ele>
  <time>2011-10-20T05:13:52Z</time>
  <speed>3.070000</speed>
</trkpt>
<trkpt lat="32.757877350" lon="35.025722504">
  <ele>423.869629</ele>
  <time>2011-10-20T05:13:53Z</time>
  <speed>3.250000</speed>
</trkpt>
<trkpt lat="32.757854462" lon="35.025756836">
  <ele>424.189941</ele>
  <time>2011-10-20T05:13:54Z</time>
  <speed>3.710000</speed>
</trkpt>
<trkpt lat="32.757831573" lon="35.025798798">
  <ele>423.439941</ele>
  <time>2011-10-20T05:13:55Z</time>
  <speed>3.600000</speed>
</trkpt>
<trkpt lat="32.757801056" lon="35.025829315">
  <ele>422.486816</ele>
  <time>2011-10-20T05:13:56Z</time>
  <speed>3.940000</speed>
</trkpt>
<trkpt lat="32.757774353" lon="35.025848389">
  <ele>422.385254</ele>
  <time>2011-10-20T05:13:57Z</time>
  <speed>3.350000</speed>
</trkpt>
<trkpt lat="32.757751465" lon="35.025867462">
  <ele>422.502441</ele>
  <time>2011-10-20T05:13:58Z</time>
  <speed>2.500000</speed>
</trkpt>
<trkpt lat="32.757724762" lon="35.025905609">
  <ele>422.744629</ele>
  <time>2011-10-20T05:13:59Z</time>
  <speed>2.540000</speed>
</trkpt>
<trkpt lat="32.757709503" lon="35.025943756">
  <ele>422.955566</ele>
  <time>2011-10-20T05:14:01Z</time>
  <speed>0.970000</speed>
</trkpt>
<trkpt lat="32.757690430" lon="35.025966644">
  <ele>422.807129</ele>
  <time>2011-10-20T05:14:21Z</time>
  <speed>0.640000</speed>
</trkpt>
<trkpt lat="32.757671356" lon="35.026000977">
  <ele>423.158691</ele>
  <time>2011-10-20T05:14:24Z</time>
  <speed>1.370000</speed>
</trkpt>
<trkpt lat="32.757640839" lon="35.026027679">
  <ele>423.627441</ele>
  <time>2011-10-20T05:14:27Z</time>
  <speed>1.020000</speed>
</trkpt>
<trkpt lat="32.757617950" lon="35.026062012">
  <ele>423.900879</ele>
  <time>2011-10-20T05:14:29Z</time>
  <speed>1.110000</speed>
</trkpt>
<trkpt lat="32.757610321" lon="35.026092529">
  <ele>424.361816</ele>
  <time>2011-10-20T05:14:30Z</time>
  <speed>1.310000</speed>
</trkpt>
<trkpt lat="32.757598877" lon="35.026134491">
  <ele>424.541504</ele>
  <time>2011-10-20T05:14:32Z</time>
  <speed>2.130000</speed>
</trkpt>
<trkpt lat="32.757591248" lon="35.026184082">
  <ele>424.650879</ele>
  <time>2011-10-20T05:14:34Z</time>
  <speed>1.600000</speed>
</trkpt>
<trkpt lat="32.757595062" lon="35.026218414">
  <ele>424.979004</ele>
  <time>2011-10-20T05:14:36Z</time>
  <speed>1.060000</speed>
</trkpt>
<trkpt lat="32.757617950" lon="35.026248932">
  <ele>425.486816</ele>
  <time>2011-10-20T05:14:37Z</time>
  <speed>2.080000</speed>
</trkpt>
<trkpt lat="32.757629395" lon="35.026302338">
  <ele>426.455566</ele>
  <time>2011-10-20T05:14:38Z</time>
  <speed>2.450000</speed>
</trkpt>
<trkpt lat="32.757640839" lon="35.026336670">
  <ele>426.525879</ele>
  <time>2011-10-20T05:14:39Z</time>
  <speed>2.080000</speed>
</trkpt>
<trkpt lat="32.757663727" lon="35.026371002">
  <ele>426.783691</ele>
  <time>2011-10-20T05:14:41Z</time>
  <speed>1.750000</speed>
</trkpt>
<trkpt lat="32.757678986" lon="35.026397705">
  <ele>426.924316</ele>
  <time>2011-10-20T05:14:43Z</time>
  <speed>0.190000</speed>
</trkpt>
<trkpt lat="32.757701874" lon="35.026428223">
  <ele>427.205566</ele>
  <time>2011-10-20T05:14:59Z</time>
  <speed>0.470000</speed>
</trkpt>
<trkpt lat="32.757728577" lon="35.026443481">
  <ele>427.807129</ele>
  <time>2011-10-20T05:15:03Z</time>
  <speed>0.310000</speed>
</trkpt>
<trkpt lat="32.757751465" lon="35.026470184">
  <ele>428.557129</ele>
  <time>2011-10-20T05:15:08Z</time>
  <speed>0.440000</speed>
</trkpt>
<trkpt lat="32.757785797" lon="35.026493073">
  <ele>430.197754</ele>
  <time>2011-10-20T05:15:40Z</time>
  <speed>0.700000</speed>
</trkpt>
<trkpt lat="32.757808685" lon="35.026504517">
  <ele>430.424316</ele>
  <time>2011-10-20T05:15:41Z</time>
  <speed>1.350000</speed>
</trkpt>
<trkpt lat="32.757835388" lon="35.026538849">
  <ele>430.697754</ele>
  <time>2011-10-20T05:15:43Z</time>
  <speed>2.530000</speed>
</trkpt>
<trkpt lat="32.757854462" lon="35.026565552">
  <ele>430.393066</ele>
  <time>2011-10-20T05:15:44Z</time>
  <speed>3.130000</speed>
</trkpt>
<trkpt lat="32.757877350" lon="35.026607513">
  <ele>430.166504</ele>
  <time>2011-10-20T05:15:45Z</time>
  <speed>4.230000</speed>
</trkpt>
<trkpt lat="32.757900238" lon="35.026653290">
  <ele>430.354004</ele>
  <time>2011-10-20T05:15:46Z</time>
  <speed>5.260000</speed>
</trkpt>
<trkpt lat="32.757926941" lon="35.026702881">
  <ele>430.721191</ele>
  <time>2011-10-20T05:15:47Z</time>
  <speed>4.760000</speed>
</trkpt>
<trkpt lat="32.757957458" lon="35.026760101">
  <ele>431.463379</ele>
  <time>2011-10-20T05:15:48Z</time>
  <speed>4.360000</speed>
</trkpt>
<trkpt lat="32.757972717" lon="35.026805878">
  <ele>431.650879</ele>
  <time>2011-10-20T05:15:49Z</time>
  <speed>4.580000</speed>
</trkpt>
<trkpt lat="32.757980347" lon="35.026851654">
  <ele>431.861816</ele>
  <time>2011-10-20T05:15:50Z</time>
  <speed>4.170000</speed>
</trkpt>
<trkpt lat="32.757995605" lon="35.026901245">
  <ele>431.814941</ele>
  <time>2011-10-20T05:15:51Z</time>
  <speed>4.170000</speed>
</trkpt>
<trkpt lat="32.758007050" lon="35.026939392">
  <ele>431.729004</ele>
  <time>2011-10-20T05:15:52Z</time>
  <speed>3.520000</speed>
</trkpt>
<trkpt lat="32.758010864" lon="35.026981354">
  <ele>431.049316</ele>
  <time>2011-10-20T05:15:53Z</time>
  <speed>3.080000</speed>
</trkpt>
<trkpt lat="32.758014679" lon="35.027011871">
  <ele>430.932129</ele>
  <time>2011-10-20T05:15:54Z</time>
  <speed>2.400000</speed>
</trkpt>
<trkpt lat="32.758022308" lon="35.027057648">
  <ele>431.424316</ele>
  <time>2011-10-20T05:15:56Z</time>
  <speed>1.310000</speed>
</trkpt>
<trkpt lat="32.758033752" lon="35.027099609">
  <ele>431.549316</ele>
  <time>2011-10-20T05:15:58Z</time>
  <speed>1.910000</speed>
</trkpt>
<trkpt lat="32.758045197" lon="35.027130127">
  <ele>432.369629</ele>
  <time>2011-10-20T05:16:00Z</time>
  <speed>1.560000</speed>
</trkpt>
<trkpt lat="32.758064270" lon="35.027175903">
  <ele>432.791504</ele>
  <time>2011-10-20T05:16:02Z</time>
  <speed>2.450000</speed>
</trkpt>
<trkpt lat="32.758075714" lon="35.027202606">
  <ele>432.674316</ele>
  <time>2011-10-20T05:16:03Z</time>
  <speed>3.390000</speed>
</trkpt>
<trkpt lat="32.758090973" lon="35.027240753">
  <ele>432.385254</ele>
  <time>2011-10-20T05:16:04Z</time>
  <speed>3.400000</speed>
</trkpt>
<trkpt lat="32.758090973" lon="35.027286530">
  <ele>432.900879</ele>
  <time>2011-10-20T05:16:05Z</time>
  <speed>3.740000</speed>
</trkpt>
<trkpt lat="32.758087158" lon="35.027328491">
  <ele>432.689941</ele>
  <time>2011-10-20T05:16:06Z</time>
  <speed>3.600000</speed>
</trkpt>
<trkpt lat="32.758083344" lon="35.027370453">
  <ele>432.791504</ele>
  <time>2011-10-20T05:16:07Z</time>
  <speed>3.680000</speed>
</trkpt>
<trkpt lat="32.758079529" lon="35.027408600">
  <ele>432.744629</ele>
  <time>2011-10-20T05:16:08Z</time>
  <speed>3.620000</speed>
</trkpt>
<trkpt lat="32.758075714" lon="35.027450562">
  <ele>432.166504</ele>
  <time>2011-10-20T05:16:09Z</time>
  <speed>3.420000</speed>
</trkpt>
<trkpt lat="32.758075714" lon="35.027492523">
  <ele>432.424316</ele>
  <time>2011-10-20T05:16:10Z</time>
  <speed>3.350000</speed>
</trkpt>
<trkpt lat="32.758064270" lon="35.027557373">
  <ele>432.947754</ele>
  <time>2011-10-20T05:16:11Z</time>
  <speed>3.500000</speed>
</trkpt>
<trkpt lat="32.758056641" lon="35.027595520">
  <ele>432.924316</ele>
  <time>2011-10-20T05:16:12Z</time>
  <speed>3.030000</speed>
</trkpt>
<trkpt lat="32.758037567" lon="35.027622223">
  <ele>433.197754</ele>
  <time>2011-10-20T05:16:13Z</time>
  <speed>3.160000</speed>
</trkpt>
<trkpt lat="32.758037567" lon="35.027660370">
  <ele>433.096191</ele>
  <time>2011-10-20T05:16:14Z</time>
  <speed>3.030000</speed>
</trkpt>
<trkpt lat="32.758010864" lon="35.027675629">
  <ele>432.518066</ele>
  <time>2011-10-20T05:16:15Z</time>
  <speed>2.880000</speed>
</trkpt>
<trkpt lat="32.757987976" lon="35.027694702">
  <ele>432.314941</ele>
  <time>2011-10-20T05:16:16Z</time>
  <speed>3.170000</speed>
</trkpt>
<trkpt lat="32.757961273" lon="35.027713776">
  <ele>432.354004</ele>
  <time>2011-10-20T05:16:17Z</time>
  <speed>3.090000</speed>
</trkpt>
<trkpt lat="32.757934570" lon="35.027732849">
  <ele>431.299316</ele>
  <time>2011-10-20T05:16:18Z</time>
  <speed>3.300000</speed>
</trkpt>
<trkpt lat="32.757904053" lon="35.027740479">
  <ele>431.400879</ele>
  <time>2011-10-20T05:16:19Z</time>
  <speed>3.220000</speed>
</trkpt>
<trkpt lat="32.757865906" lon="35.027763367">
  <ele>430.729004</ele>
  <time>2011-10-20T05:16:20Z</time>
  <speed>4.060000</speed>
</trkpt>
<trkpt lat="32.757827759" lon="35.027778625">
  <ele>429.838379</ele>
  <time>2011-10-20T05:16:21Z</time>
  <speed>3.670000</speed>
</trkpt>
<trkpt lat="32.757789612" lon="35.027790070">
  <ele>429.018066</ele>
  <time>2011-10-20T05:16:22Z</time>
  <speed>3.060000</speed>
</trkpt>
<trkpt lat="32.757759094" lon="35.027793884">
  <ele>429.252441</ele>
  <time>2011-10-20T05:16:23Z</time>
  <speed>2.770000</speed>
</trkpt>
<trkpt lat="32.757736206" lon="35.027805328">
  <ele>427.377441</ele>
  <time>2011-10-20T05:16:24Z</time>
  <speed>3.200000</speed>
</trkpt>
<trkpt lat="32.757705688" lon="35.027812958">
  <ele>426.768066</ele>
  <time>2011-10-20T05:16:25Z</time>
  <speed>3.420000</speed>
</trkpt>
<trkpt lat="32.757678986" lon="35.027812958">
  <ele>426.721191</ele>
  <time>2011-10-20T05:16:26Z</time>
  <speed>3.000000</speed>
</trkpt>
<trkpt lat="32.757621765" lon="35.027801514">
  <ele>426.041504</ele>
  <time>2011-10-20T05:16:28Z</time>
  <speed>2.980000</speed>
</trkpt>
<trkpt lat="32.757591248" lon="35.027805328">
  <ele>425.354004</ele>
  <time>2011-10-20T05:16:29Z</time>
  <speed>3.190000</speed>
</trkpt>
<trkpt lat="32.757560730" lon="35.027801514">
  <ele>425.182129</ele>
  <time>2011-10-20T05:16:30Z</time>
  <speed>3.120000</speed>
</trkpt>
<trkpt lat="32.757530212" lon="35.027793884">
  <ele>425.994629</ele>
  <time>2011-10-20T05:16:31Z</time>
  <speed>2.770000</speed>
</trkpt>
<trkpt lat="32.757499695" lon="35.027778625">
  <ele>426.393066</ele>
  <time>2011-10-20T05:16:32Z</time>
  <speed>3.460000</speed>
</trkpt>
<trkpt lat="32.757465363" lon="35.027770996">
  <ele>427.736816</ele>
  <time>2011-10-20T05:16:33Z</time>
  <speed>3.820000</speed>
</trkpt>
<trkpt lat="32.757431030" lon="35.027763367">
  <ele>428.479004</ele>
  <time>2011-10-20T05:16:34Z</time>
  <speed>3.740000</speed>
</trkpt>
<trkpt lat="32.757400513" lon="35.027744293">
  <ele>428.846191</ele>
  <time>2011-10-20T05:16:35Z</time>
  <speed>3.740000</speed>
</trkpt>
<trkpt lat="32.757366180" lon="35.027736664">
  <ele>429.088379</ele>
  <time>2011-10-20T05:16:36Z</time>
  <speed>3.700000</speed>
</trkpt>
<trkpt lat="32.757328033" lon="35.027725220">
  <ele>429.361816</ele>
  <time>2011-10-20T05:16:37Z</time>
  <speed>3.960000</speed>
</trkpt>
<trkpt lat="32.757293701" lon="35.027717590">
  <ele>428.275879</ele>
  <time>2011-10-20T05:16:38Z</time>
  <speed>4.250000</speed>
</trkpt>
<trkpt lat="32.757255554" lon="35.027709961">
  <ele>428.361816</ele>
  <time>2011-10-20T05:16:39Z</time>
  <speed>4.230000</speed>
</trkpt>
<trkpt lat="32.757221222" lon="35.027694702">
  <ele>428.049316</ele>
  <time>2011-10-20T05:16:40Z</time>
  <speed>3.380000</speed>
</trkpt>
<trkpt lat="32.757190704" lon="35.027687073">
  <ele>428.283691</ele>
  <time>2011-10-20T05:16:41Z</time>
  <speed>3.070000</speed>
</trkpt>
<trkpt lat="32.757164001" lon="35.027675629">
  <ele>429.346191</ele>
  <time>2011-10-20T05:16:42Z</time>
  <speed>3.130000</speed>
</trkpt>
<trkpt lat="32.757141113" lon="35.027656555">
  <ele>428.791504</ele>
  <time>2011-10-20T05:16:43Z</time>
  <speed>3.380000</speed>
</trkpt>
<trkpt lat="32.757110596" lon="35.027641296">
  <ele>428.900879</ele>
  <time>2011-10-20T05:16:44Z</time>
  <speed>3.650000</speed>
</trkpt>
<trkpt lat="32.757076263" lon="35.027626038">
  <ele>429.502441</ele>
  <time>2011-10-20T05:16:45Z</time>
  <speed>4.390000</speed>
</trkpt>
<trkpt lat="32.757038116" lon="35.027610779">
  <ele>429.564941</ele>
  <time>2011-10-20T05:16:46Z</time>
  <speed>4.440000</speed>
</trkpt>
<trkpt lat="32.756996155" lon="35.027595520">
  <ele>429.260254</ele>
  <time>2011-10-20T05:16:47Z</time>
  <speed>5.210000</speed>
</trkpt>
<trkpt lat="32.756954193" lon="35.027576447">
  <ele>426.783691</ele>
  <time>2011-10-20T05:16:48Z</time>
  <speed>5.540000</speed>
</trkpt>
<trkpt lat="32.756900787" lon="35.027561188">
  <ele>426.439941</ele>
  <time>2011-10-20T05:16:49Z</time>
  <speed>5.280000</speed>
</trkpt>
<trkpt lat="32.756858826" lon="35.027549744">
  <ele>425.072754</ele>
  <time>2011-10-20T05:16:50Z</time>
  <speed>5.020000</speed>
</trkpt>
<trkpt lat="32.756813049" lon="35.027538300">
  <ele>424.666504</ele>
  <time>2011-10-20T05:16:51Z</time>
  <speed>5.470000</speed>
</trkpt>
<trkpt lat="32.756763458" lon="35.027523041">
  <ele>423.986816</ele>
  <time>2011-10-20T05:16:52Z</time>
  <speed>5.390000</speed>
</trkpt>
<trkpt lat="32.756721497" lon="35.027492523">
  <ele>423.682129</ele>
  <time>2011-10-20T05:16:53Z</time>
  <speed>5.510000</speed>
</trkpt>
<trkpt lat="32.756679535" lon="35.027462006">
  <ele>423.314941</ele>
  <time>2011-10-20T05:16:54Z</time>
  <speed>4.880000</speed>
</trkpt>
<trkpt lat="32.756641388" lon="35.027446747">
  <ele>424.916504</ele>
  <time>2011-10-20T05:16:55Z</time>
  <speed>3.900000</speed>
</trkpt>
<trkpt lat="32.756614685" lon="35.027420044">
  <ele>423.119629</ele>
  <time>2011-10-20T05:16:57Z</time>
  <speed>0.390000</speed>
</trkpt>
<trkpt lat="32.756591797" lon="35.027400970">
  <ele>422.510254</ele>
  <time>2011-10-20T05:17:08Z</time>
  <speed>0.450000</speed>
</trkpt>
<trkpt lat="32.756572723" lon="35.027381897">
  <ele>422.596191</ele>
  <time>2011-10-20T05:17:14Z</time>
  <speed>0.580000</speed>
</trkpt>
<trkpt lat="32.756549835" lon="35.027362823">
  <ele>423.424316</ele>
  <time>2011-10-20T05:17:17Z</time>
  <speed>1.140000</speed>
</trkpt>
<trkpt lat="32.756519318" lon="35.027332306">
  <ele>423.557129</ele>
  <time>2011-10-20T05:17:20Z</time>
  <speed>1.970000</speed>
</trkpt>
<trkpt lat="32.756473541" lon="35.027305603">
  <ele>424.775879</ele>
  <time>2011-10-20T05:17:22Z</time>
  <speed>3.360000</speed>
</trkpt>
<trkpt lat="32.756443024" lon="35.027282715">
  <ele>425.174316</ele>
  <time>2011-10-20T05:17:23Z</time>
  <speed>3.640000</speed>
</trkpt>
<trkpt lat="32.756412506" lon="35.027263641">
  <ele>425.127441</ele>
  <time>2011-10-20T05:17:24Z</time>
  <speed>3.680000</speed>
</trkpt>
<trkpt lat="32.756374359" lon="35.027248383">
  <ele>425.330566</ele>
  <time>2011-10-20T05:17:25Z</time>
  <speed>4.020000</speed>
</trkpt>
<trkpt lat="32.756336212" lon="35.027240753">
  <ele>424.916504</ele>
  <time>2011-10-20T05:17:26Z</time>
  <speed>4.460000</speed>
</trkpt>
<trkpt lat="32.756290436" lon="35.027233124">
  <ele>424.650879</ele>
  <time>2011-10-20T05:17:27Z</time>
  <speed>4.400000</speed>
</trkpt>
<trkpt lat="32.756252289" lon="35.027229309">
  <ele>424.158691</ele>
  <time>2011-10-20T05:17:28Z</time>
  <speed>4.980000</speed>
</trkpt>
<trkpt lat="32.756206512" lon="35.027225494">
  <ele>424.150879</ele>
  <time>2011-10-20T05:17:29Z</time>
  <speed>4.460000</speed>
</trkpt>
<trkpt lat="32.756164551" lon="35.027225494">
  <ele>423.861816</ele>
  <time>2011-10-20T05:17:30Z</time>
  <speed>3.800000</speed>
</trkpt>
<trkpt lat="32.756122589" lon="35.027229309">
  <ele>422.447754</ele>
  <time>2011-10-20T05:17:31Z</time>
  <speed>4.160000</speed>
</trkpt>
<trkpt lat="32.756084442" lon="35.027236938">
  <ele>422.213379</ele>
  <time>2011-10-20T05:17:32Z</time>
  <speed>4.170000</speed>
</trkpt>
<trkpt lat="32.756042480" lon="35.027236938">
  <ele>420.572754</ele>
  <time>2011-10-20T05:17:33Z</time>
  <speed>3.880000</speed>
</trkpt>
<trkpt lat="32.756008148" lon="35.027244568">
  <ele>420.760254</ele>
  <time>2011-10-20T05:17:34Z</time>
  <speed>3.960000</speed>
</trkpt>
<trkpt lat="32.755970001" lon="35.027256012">
  <ele>420.705566</ele>
  <time>2011-10-20T05:17:35Z</time>
  <speed>3.680000</speed>
</trkpt>
<trkpt lat="32.755939484" lon="35.027271271">
  <ele>420.932129</ele>
  <time>2011-10-20T05:17:36Z</time>
  <speed>3.430000</speed>
</trkpt>
<trkpt lat="32.755912781" lon="35.027294159">
  <ele>421.025879</ele>
  <time>2011-10-20T05:17:37Z</time>
  <speed>3.330000</speed>
</trkpt>
<trkpt lat="32.755897522" lon="35.027324677">
  <ele>421.338379</ele>
  <time>2011-10-20T05:17:38Z</time>
  <speed>2.920000</speed>
</trkpt>
<trkpt lat="32.755878448" lon="35.027378082">
  <ele>420.932129</ele>
  <time>2011-10-20T05:17:40Z</time>
  <speed>2.250000</speed>
</trkpt>
<trkpt lat="32.755855560" lon="35.027416229">
  <ele>421.260254</ele>
  <time>2011-10-20T05:17:41Z</time>
  <speed>2.570000</speed>
</trkpt>
<trkpt lat="32.755847931" lon="35.027446747">
  <ele>421.369629</ele>
  <time>2011-10-20T05:17:42Z</time>
  <speed>2.070000</speed>
</trkpt>
<trkpt lat="32.755832672" lon="35.027500153">
  <ele>421.479004</ele>
  <time>2011-10-20T05:17:44Z</time>
  <speed>2.110000</speed>
</trkpt>
<trkpt lat="32.755828857" lon="35.027530670">
  <ele>421.830566</ele>
  <time>2011-10-20T05:17:45Z</time>
  <speed>2.600000</speed>
</trkpt>
<trkpt lat="32.755825043" lon="35.027565002">
  <ele>421.916504</ele>
  <time>2011-10-20T05:17:46Z</time>
  <speed>2.490000</speed>
</trkpt>
<trkpt lat="32.755821228" lon="35.027595520">
  <ele>421.979004</ele>
  <time>2011-10-20T05:17:47Z</time>
  <speed>2.230000</speed>
</trkpt>
<trkpt lat="32.755813599" lon="35.027626038">
  <ele>421.650879</ele>
  <time>2011-10-20T05:17:48Z</time>
  <speed>2.060000</speed>
</trkpt>
<trkpt lat="32.755798340" lon="35.027671814">
  <ele>421.666504</ele>
  <time>2011-10-20T05:17:50Z</time>
  <speed>1.850000</speed>
</trkpt>
<trkpt lat="32.755779266" lon="35.027706146">
  <ele>422.244629</ele>
  <time>2011-10-20T05:17:51Z</time>
  <speed>2.330000</speed>
</trkpt>
<trkpt lat="32.755767822" lon="35.027736664">
  <ele>421.893066</ele>
  <time>2011-10-20T05:17:52Z</time>
  <speed>1.940000</speed>
</trkpt>
<trkpt lat="32.755760193" lon="35.027770996">
  <ele>422.049316</ele>
  <time>2011-10-20T05:17:53Z</time>
  <speed>2.250000</speed>
</trkpt>
<trkpt lat="32.755756378" lon="35.027809143">
  <ele>422.299316</ele>
  <time>2011-10-20T05:17:54Z</time>
  <speed>2.630000</speed>
</trkpt>
<trkpt lat="32.755733490" lon="35.027893066">
  <ele>422.721191</ele>
  <time>2011-10-20T05:17:56Z</time>
  <speed>2.510000</speed>
</trkpt>
<trkpt lat="32.755729675" lon="35.027931213">
  <ele>423.447754</ele>
  <time>2011-10-20T05:17:57Z</time>
  <speed>1.980000</speed>
</trkpt>
<trkpt lat="32.755702972" lon="35.027961731">
  <ele>423.736816</ele>
  <time>2011-10-20T05:17:59Z</time>
  <speed>2.080000</speed>
</trkpt>
<trkpt lat="32.755664825" lon="35.027984619">
  <ele>423.518066</ele>
  <time>2011-10-20T05:18:02Z</time>
  <speed>1.390000</speed>
</trkpt>
<trkpt lat="32.755638123" lon="35.027973175">
  <ele>423.682129</ele>
  <time>2011-10-20T05:18:09Z</time>
  <speed>1.070000</speed>
</trkpt>
<trkpt lat="32.755611420" lon="35.027961731">
  <ele>424.463379</ele>
  <time>2011-10-20T05:18:12Z</time>
  <speed>0.660000</speed>
</trkpt>
<trkpt lat="32.755580902" lon="35.027957916">
  <ele>425.971191</ele>
  <time>2011-10-20T05:18:15Z</time>
  <speed>0.700000</speed>
</trkpt>
<trkpt lat="32.755554199" lon="35.027942657">
  <ele>426.299316</ele>
  <time>2011-10-20T05:18:18Z</time>
  <speed>1.340000</speed>
</trkpt>
<trkpt lat="32.755531311" lon="35.027927399">
  <ele>426.947754</ele>
  <time>2011-10-20T05:18:21Z</time>
  <speed>0.300000</speed>
</trkpt>
<trkpt lat="32.755496979" lon="35.027908325">
  <ele>426.838379</ele>
  <time>2011-10-20T05:18:24Z</time>
  <speed>0.940000</speed>
</trkpt>
<trkpt lat="32.755477905" lon="35.027893066">
  <ele>428.744629</ele>
  <time>2011-10-20T05:18:27Z</time>
  <speed>0.820000</speed>
</trkpt>
<trkpt lat="32.755458832" lon="35.027870178">
  <ele>429.119629</ele>
  <time>2011-10-20T05:18:30Z</time>
  <speed>0.790000</speed>
</trkpt>
<trkpt lat="32.755439758" lon="35.027839661">
  <ele>428.900879</ele>
  <time>2011-10-20T05:18:34Z</time>
  <speed>0.970000</speed>
</trkpt>
<trkpt lat="32.755424500" lon="35.027809143">
  <ele>428.893066</ele>
  <time>2011-10-20T05:18:37Z</time>
  <speed>1.220000</speed>
</trkpt>
<trkpt lat="32.755401611" lon="35.027790070">
  <ele>429.307129</ele>
  <time>2011-10-20T05:18:39Z</time>
  <speed>1.600000</speed>
</trkpt>
<trkpt lat="32.755378723" lon="35.027759552">
  <ele>429.463379</ele>
  <time>2011-10-20T05:18:41Z</time>
  <speed>1.350000</speed>
</trkpt>
<trkpt lat="32.755348206" lon="35.027748108">
  <ele>429.330566</ele>
  <time>2011-10-20T05:18:45Z</time>
  <speed>1.160000</speed>
</trkpt>
<trkpt lat="32.755306244" lon="35.027736664">
  <ele>429.721191</ele>
  <time>2011-10-20T05:18:48Z</time>
  <speed>1.080000</speed>
</trkpt>
<trkpt lat="32.755275726" lon="35.027732849">
  <ele>430.447754</ele>
  <time>2011-10-20T05:18:51Z</time>
  <speed>0.950000</speed>
</trkpt>
<trkpt lat="32.755241394" lon="35.027729034">
  <ele>430.955566</ele>
  <time>2011-10-20T05:18:54Z</time>
  <speed>1.240000</speed>
</trkpt>
<trkpt lat="32.755218506" lon="35.027736664">
  <ele>432.783691</ele>
  <time>2011-10-20T05:18:57Z</time>
  <speed>0.250000</speed>
</trkpt>
<trkpt lat="32.755191803" lon="35.027725220">
  <ele>433.189941</ele>
  <time>2011-10-20T05:19:00Z</time>
  <speed>1.310000</speed>
</trkpt>
<trkpt lat="32.755149841" lon="35.027713776">
  <ele>433.346191</ele>
  <time>2011-10-20T05:19:03Z</time>
  <speed>2.140000</speed>
</trkpt>
<trkpt lat="32.755119324" lon="35.027683258">
  <ele>434.361816</ele>
  <time>2011-10-20T05:19:05Z</time>
  <speed>1.970000</speed>
</trkpt>
<trkpt lat="32.755088806" lon="35.027671814">
  <ele>434.416504</ele>
  <time>2011-10-20T05:19:07Z</time>
  <speed>1.800000</speed>
</trkpt>
<trkpt lat="32.755062103" lon="35.027660370">
  <ele>434.244629</ele>
  <time>2011-10-20T05:19:09Z</time>
  <speed>1.510000</speed>
</trkpt>
<trkpt lat="32.755031586" lon="35.027633667">
  <ele>435.197754</ele>
  <time>2011-10-20T05:19:11Z</time>
  <speed>1.820000</speed>
</trkpt>
<trkpt lat="32.754993439" lon="35.027599335">
  <ele>434.854004</ele>
  <time>2011-10-20T05:19:13Z</time>
  <speed>2.250000</speed>
</trkpt>
<trkpt lat="32.754959106" lon="35.027572632">
  <ele>435.643066</ele>
  <time>2011-10-20T05:19:15Z</time>
  <speed>1.840000</speed>
</trkpt>
<trkpt lat="32.754928589" lon="35.027549744">
  <ele>435.916504</ele>
  <time>2011-10-20T05:19:17Z</time>
  <speed>1.770000</speed>
</trkpt>
<trkpt lat="32.754890442" lon="35.027549744">
  <ele>436.275879</ele>
  <time>2011-10-20T05:19:19Z</time>
  <speed>1.930000</speed>
</trkpt>
<trkpt lat="32.754848480" lon="35.027542114">
  <ele>436.854004</ele>
  <time>2011-10-20T05:19:21Z</time>
  <speed>2.100000</speed>
</trkpt>
<trkpt lat="32.754817963" lon="35.027515411">
  <ele>437.244629</ele>
  <time>2011-10-20T05:19:23Z</time>
  <speed>1.830000</speed>
</trkpt>
<trkpt lat="32.754806519" lon="35.027481079">
  <ele>437.783691</ele>
  <time>2011-10-20T05:19:25Z</time>
  <speed>1.660000</speed>
</trkpt>
<trkpt lat="32.754772186" lon="35.027458191">
  <ele>437.963379</ele>
  <time>2011-10-20T05:19:27Z</time>
  <speed>1.880000</speed>
</trkpt>
<trkpt lat="32.754730225" lon="35.027450562">
  <ele>438.775879</ele>
  <time>2011-10-20T05:19:29Z</time>
  <speed>2.180000</speed>
</trkpt>
<trkpt lat="32.754688263" lon="35.027446747">
  <ele>439.135254</ele>
  <time>2011-10-20T05:19:31Z</time>
  <speed>2.220000</speed>
</trkpt>
<trkpt lat="32.754653931" lon="35.027446747">
  <ele>439.572754</ele>
  <time>2011-10-20T05:19:33Z</time>
  <speed>1.850000</speed>
</trkpt>
<trkpt lat="32.754600525" lon="35.027477264">
  <ele>439.611816</ele>
  <time>2011-10-20T05:19:35Z</time>
  <speed>2.640000</speed>
</trkpt>
<trkpt lat="32.754573822" lon="35.027492523">
  <ele>439.650879</ele>
  <time>2011-10-20T05:19:36Z</time>
  <speed>2.940000</speed>
</trkpt>
<trkpt lat="32.754524231" lon="35.027523041">
  <ele>439.963379</ele>
  <time>2011-10-20T05:19:38Z</time>
  <speed>3.240000</speed>
</trkpt>
<trkpt lat="32.754497528" lon="35.027545929">
  <ele>438.752441</ele>
  <time>2011-10-20T05:19:39Z</time>
  <speed>2.900000</speed>
</trkpt>
<trkpt lat="32.754470825" lon="35.027565002">
  <ele>437.939941</ele>
  <time>2011-10-20T05:19:40Z</time>
  <speed>3.070000</speed>
</trkpt>
<trkpt lat="32.754421234" lon="35.027587891">
  <ele>438.275879</ele>
  <time>2011-10-20T05:19:42Z</time>
  <speed>2.650000</speed>
</trkpt>
<trkpt lat="32.754375458" lon="35.027610779">
  <ele>436.697754</ele>
  <time>2011-10-20T05:19:44Z</time>
  <speed>2.810000</speed>
</trkpt>
<trkpt lat="32.754329681" lon="35.027637482">
  <ele>436.119629</ele>
  <time>2011-10-20T05:19:46Z</time>
  <speed>2.360000</speed>
</trkpt>
<trkpt lat="32.754291534" lon="35.027664185">
  <ele>436.025879</ele>
  <time>2011-10-20T05:19:48Z</time>
  <speed>2.670000</speed>
</trkpt>
<trkpt lat="32.754238129" lon="35.027679443">
  <ele>435.721191</ele>
  <time>2011-10-20T05:19:50Z</time>
  <speed>2.500000</speed>
</trkpt>
<trkpt lat="32.754192352" lon="35.027698517">
  <ele>435.299316</ele>
  <time>2011-10-20T05:19:52Z</time>
  <speed>2.320000</speed>
</trkpt>
<trkpt lat="32.754142761" lon="35.027706146">
  <ele>435.104004</ele>
  <time>2011-10-20T05:19:54Z</time>
  <speed>2.950000</speed>
</trkpt>
<trkpt lat="32.754112244" lon="35.027709961">
  <ele>434.158691</ele>
  <time>2011-10-20T05:19:55Z</time>
  <speed>3.210000</speed>
</trkpt>
<trkpt lat="32.754077911" lon="35.027725220">
  <ele>433.729004</ele>
  <time>2011-10-20T05:19:56Z</time>
  <speed>3.600000</speed>
</trkpt>
<trkpt lat="32.754043579" lon="35.027732849">
  <ele>433.064941</ele>
  <time>2011-10-20T05:19:57Z</time>
  <speed>3.910000</speed>
</trkpt>
<trkpt lat="32.754009247" lon="35.027748108">
  <ele>432.838379</ele>
  <time>2011-10-20T05:19:58Z</time>
  <speed>4.150000</speed>
</trkpt>
<trkpt lat="32.753967285" lon="35.027748108">
  <ele>431.682129</ele>
  <time>2011-10-20T05:19:59Z</time>
  <speed>5.090000</speed>
</trkpt>
<trkpt lat="32.753921509" lon="35.027744293">
  <ele>431.471191</ele>
  <time>2011-10-20T05:20:00Z</time>
  <speed>5.360000</speed>
</trkpt>
<trkpt lat="32.753871918" lon="35.027729034">
  <ele>431.424316</ele>
  <time>2011-10-20T05:20:01Z</time>
  <speed>5.790000</speed>
</trkpt>
<trkpt lat="32.753822327" lon="35.027709961">
  <ele>431.963379</ele>
  <time>2011-10-20T05:20:02Z</time>
  <speed>5.940000</speed>
</trkpt>
<trkpt lat="32.753772736" lon="35.027694702">
  <ele>432.213379</ele>
  <time>2011-10-20T05:20:03Z</time>
  <speed>5.770000</speed>
</trkpt>
<trkpt lat="32.753715515" lon="35.027679443">
  <ele>432.111816</ele>
  <time>2011-10-20T05:20:04Z</time>
  <speed>6.220000</speed>
</trkpt>
<trkpt lat="32.753654480" lon="35.027683258">
  <ele>432.033691</ele>
  <time>2011-10-20T05:20:05Z</time>
  <speed>6.560000</speed>
</trkpt>
<trkpt lat="32.753597260" lon="35.027702332">
  <ele>432.018066</ele>
  <time>2011-10-20T05:20:06Z</time>
  <speed>6.200000</speed>
</trkpt>
<trkpt lat="32.753547668" lon="35.027729034">
  <ele>431.541504</ele>
  <time>2011-10-20T05:20:07Z</time>
  <speed>6.080000</speed>
</trkpt>
<trkpt lat="32.753517151" lon="35.027778625">
  <ele>431.580566</ele>
  <time>2011-10-20T05:20:08Z</time>
  <speed>5.030000</speed>
</trkpt>
<trkpt lat="32.753501892" lon="35.027832031">
  <ele>431.791504</ele>
  <time>2011-10-20T05:20:09Z</time>
  <speed>4.990000</speed>
</trkpt>
<trkpt lat="32.753498077" lon="35.027889252">
  <ele>432.385254</ele>
  <time>2011-10-20T05:20:10Z</time>
  <speed>4.550000</speed>
</trkpt>
<trkpt lat="32.753490448" lon="35.027938843">
  <ele>433.268066</ele>
  <time>2011-10-20T05:20:11Z</time>
  <speed>4.490000</speed>
</trkpt>
<trkpt lat="32.753475189" lon="35.027988434">
  <ele>434.189941</ele>
  <time>2011-10-20T05:20:12Z</time>
  <speed>4.380000</speed>
</trkpt>
<trkpt lat="32.753452301" lon="35.028026581">
  <ele>432.541504</ele>
  <time>2011-10-20T05:20:13Z</time>
  <speed>5.090000</speed>
</trkpt>
<trkpt lat="32.753417969" lon="35.028064728">
  <ele>432.760254</ele>
  <time>2011-10-20T05:20:14Z</time>
  <speed>4.760000</speed>
</trkpt>
<trkpt lat="32.753391266" lon="35.028099060">
  <ele>431.908691</ele>
  <time>2011-10-20T05:20:15Z</time>
  <speed>4.450000</speed>
</trkpt>
<trkpt lat="32.753345490" lon="35.028137207">
  <ele>433.447754</ele>
  <time>2011-10-20T05:20:16Z</time>
  <speed>4.590000</speed>
</trkpt>
<trkpt lat="32.753311157" lon="35.028156281">
  <ele>434.189941</ele>
  <time>2011-10-20T05:20:17Z</time>
  <speed>4.240000</speed>
</trkpt>
<trkpt lat="32.753269196" lon="35.028190613">
  <ele>436.955566</ele>
  <time>2011-10-20T05:20:18Z</time>
  <speed>4.360000</speed>
</trkpt>
<trkpt lat="32.753238678" lon="35.028221130">
  <ele>437.205566</ele>
  <time>2011-10-20T05:20:19Z</time>
  <speed>4.400000</speed>
</trkpt>
<trkpt lat="32.753208160" lon="35.028251648">
  <ele>437.377441</ele>
  <time>2011-10-20T05:20:20Z</time>
  <speed>4.570000</speed>
</trkpt>
<trkpt lat="32.753181458" lon="35.028285980">
  <ele>437.189941</ele>
  <time>2011-10-20T05:20:21Z</time>
  <speed>4.790000</speed>
</trkpt>
<trkpt lat="32.753143311" lon="35.028324127">
  <ele>437.111816</ele>
  <time>2011-10-20T05:20:22Z</time>
  <speed>5.170000</speed>
</trkpt>
<trkpt lat="32.753105164" lon="35.028358459">
  <ele>436.221191</ele>
  <time>2011-10-20T05:20:23Z</time>
  <speed>5.520000</speed>
</trkpt>
<trkpt lat="32.753063202" lon="35.028392792">
  <ele>435.541504</ele>
  <time>2011-10-20T05:20:24Z</time>
  <speed>5.700000</speed>
</trkpt>
<trkpt lat="32.753021240" lon="35.028427124">
  <ele>435.205566</ele>
  <time>2011-10-20T05:20:25Z</time>
  <speed>5.350000</speed>
</trkpt>
<trkpt lat="32.752979279" lon="35.028465271">
  <ele>436.307129</ele>
  <time>2011-10-20T05:20:26Z</time>
  <speed>5.100000</speed>
</trkpt>
<trkpt lat="32.752933502" lon="35.028491974">
  <ele>435.830566</ele>
  <time>2011-10-20T05:20:27Z</time>
  <speed>4.970000</speed>
</trkpt>
<trkpt lat="32.752895355" lon="35.028511047">
  <ele>435.619629</ele>
  <time>2011-10-20T05:20:28Z</time>
  <speed>5.030000</speed>
</trkpt>
<trkpt lat="32.752849579" lon="35.028526306">
  <ele>435.572754</ele>
  <time>2011-10-20T05:20:29Z</time>
  <speed>4.920000</speed>
</trkpt>
<trkpt lat="32.752807617" lon="35.028530121">
  <ele>435.322754</ele>
  <time>2011-10-20T05:20:30Z</time>
  <speed>5.610000</speed>
</trkpt>
<trkpt lat="32.752754211" lon="35.028526306">
  <ele>434.400879</ele>
  <time>2011-10-20T05:20:31Z</time>
  <speed>5.740000</speed>
</trkpt>
<trkpt lat="32.752704620" lon="35.028530121">
  <ele>433.088379</ele>
  <time>2011-10-20T05:20:32Z</time>
  <speed>5.100000</speed>
</trkpt>
<trkpt lat="32.752666473" lon="35.028545380">
  <ele>431.971191</ele>
  <time>2011-10-20T05:20:33Z</time>
  <speed>4.440000</speed>
</trkpt>
<trkpt lat="32.752628326" lon="35.028572083">
  <ele>431.830566</ele>
  <time>2011-10-20T05:20:34Z</time>
  <speed>4.560000</speed>
</trkpt>
<trkpt lat="32.752593994" lon="35.028606415">
  <ele>431.619629</ele>
  <time>2011-10-20T05:20:35Z</time>
  <speed>5.300000</speed>
</trkpt>
<trkpt lat="32.752552032" lon="35.028640747">
  <ele>431.104004</ele>
  <time>2011-10-20T05:20:36Z</time>
  <speed>5.590000</speed>
</trkpt>
<trkpt lat="32.752510071" lon="35.028675079">
  <ele>430.393066</ele>
  <time>2011-10-20T05:20:37Z</time>
  <speed>5.680000</speed>
</trkpt>
<trkpt lat="32.752464294" lon="35.028709412">
  <ele>429.744629</ele>
  <time>2011-10-20T05:20:38Z</time>
  <speed>5.440000</speed>
</trkpt>
<trkpt lat="32.752429962" lon="35.028743744">
  <ele>429.143066</ele>
  <time>2011-10-20T05:20:39Z</time>
  <speed>4.810000</speed>
</trkpt>
<trkpt lat="32.752399445" lon="35.028774261">
  <ele>429.096191</ele>
  <time>2011-10-20T05:20:40Z</time>
  <speed>4.260000</speed>
</trkpt>
<trkpt lat="32.752372742" lon="35.028804779">
  <ele>428.197754</ele>
  <time>2011-10-20T05:20:41Z</time>
  <speed>3.830000</speed>
</trkpt>
<trkpt lat="32.752342224" lon="35.028820038">
  <ele>428.502441</ele>
  <time>2011-10-20T05:20:42Z</time>
  <speed>3.860000</speed>
</trkpt>
<trkpt lat="32.752315521" lon="35.028823853">
  <ele>428.244629</ele>
  <time>2011-10-20T05:20:43Z</time>
  <speed>2.850000</speed>
</trkpt>
<trkpt lat="32.752273560" lon="35.028839111">
  <ele>428.299316</ele>
  <time>2011-10-20T05:20:45Z</time>
  <speed>2.650000</speed>
</trkpt>
<trkpt lat="32.752254486" lon="35.028862000">
  <ele>427.549316</ele>
  <time>2011-10-20T05:20:46Z</time>
  <speed>2.840000</speed>
</trkpt>
<trkpt lat="32.752231598" lon="35.028919220">
  <ele>426.643066</ele>
  <time>2011-10-20T05:20:48Z</time>
  <speed>2.340000</speed>
</trkpt>
<trkpt lat="32.752231598" lon="35.028953552">
  <ele>426.564941</ele>
  <time>2011-10-20T05:20:51Z</time>
  <speed>0.070000</speed>
</trkpt>
<trkpt lat="32.752204895" lon="35.028980255">
  <ele>425.713379</ele>
  <time>2011-10-20T05:21:25Z</time>
  <speed>2.160000</speed>
</trkpt>
<trkpt lat="32.752178192" lon="35.029014587">
  <ele>424.955566</ele>
  <time>2011-10-20T05:21:27Z</time>
  <speed>2.460000</speed>
</trkpt>
<trkpt lat="32.752143860" lon="35.029075623">
  <ele>424.869629</ele>
  <time>2011-10-20T05:21:29Z</time>
  <speed>3.690000</speed>
</trkpt>
<trkpt lat="32.752120972" lon="35.029109955">
  <ele>424.182129</ele>
  <time>2011-10-20T05:21:30Z</time>
  <speed>4.730000</speed>
</trkpt>
<trkpt lat="32.752098083" lon="35.029148102">
  <ele>423.822754</ele>
  <time>2011-10-20T05:21:31Z</time>
  <speed>4.220000</speed>
</trkpt>
<trkpt lat="32.752071381" lon="35.029182434">
  <ele>423.564941</ele>
  <time>2011-10-20T05:21:32Z</time>
  <speed>4.220000</speed>
</trkpt>
<trkpt lat="32.752040863" lon="35.029220581">
  <ele>423.002441</ele>
  <time>2011-10-20T05:21:33Z</time>
  <speed>4.290000</speed>
</trkpt>
<trkpt lat="32.752017975" lon="35.029254913">
  <ele>423.385254</ele>
  <time>2011-10-20T05:21:34Z</time>
  <speed>4.530000</speed>
</trkpt>
<trkpt lat="32.751987457" lon="35.029289246">
  <ele>423.275879</ele>
  <time>2011-10-20T05:21:35Z</time>
  <speed>4.290000</speed>
</trkpt>
<trkpt lat="32.751960754" lon="35.029323578">
  <ele>423.549316</ele>
  <time>2011-10-20T05:21:36Z</time>
  <speed>4.340000</speed>
</trkpt>
<trkpt lat="32.751934052" lon="35.029365540">
  <ele>424.299316</ele>
  <time>2011-10-20T05:21:37Z</time>
  <speed>4.270000</speed>
</trkpt>
<trkpt lat="32.751907349" lon="35.029403687">
  <ele>424.893066</ele>
  <time>2011-10-20T05:21:38Z</time>
  <speed>4.220000</speed>
</trkpt>
<trkpt lat="32.751892090" lon="35.029445648">
  <ele>424.291504</ele>
  <time>2011-10-20T05:21:39Z</time>
  <speed>4.160000</speed>
</trkpt>
<trkpt lat="32.751873016" lon="35.029491425">
  <ele>424.455566</ele>
  <time>2011-10-20T05:21:40Z</time>
  <speed>4.180000</speed>
</trkpt>
<trkpt lat="32.751853943" lon="35.029525757">
  <ele>423.705566</ele>
  <time>2011-10-20T05:21:41Z</time>
  <speed>3.610000</speed>
</trkpt>
<trkpt lat="32.751838684" lon="35.029560089">
  <ele>424.205566</ele>
  <time>2011-10-20T05:21:42Z</time>
  <speed>3.300000</speed>
</trkpt>
<trkpt lat="32.751834869" lon="35.029598236">
  <ele>423.385254</ele>
  <time>2011-10-20T05:21:43Z</time>
  <speed>3.860000</speed>
</trkpt>
<trkpt lat="32.751823425" lon="35.029651642">
  <ele>423.518066</ele>
  <time>2011-10-20T05:21:44Z</time>
  <speed>3.680000</speed>
</trkpt>
<trkpt lat="32.751811981" lon="35.029685974">
  <ele>423.111816</ele>
  <time>2011-10-20T05:21:45Z</time>
  <speed>3.150000</speed>
</trkpt>
<trkpt lat="32.751789093" lon="35.029735565">
  <ele>422.760254</ele>
  <time>2011-10-20T05:21:47Z</time>
  <speed>2.270000</speed>
</trkpt>
<trkpt lat="32.751773834" lon="35.029769897">
  <ele>421.314941</ele>
  <time>2011-10-20T05:21:49Z</time>
  <speed>2.180000</speed>
</trkpt>
<trkpt lat="32.751777649" lon="35.029827118">
  <ele>421.908691</ele>
  <time>2011-10-20T05:21:51Z</time>
  <speed>2.610000</speed>
</trkpt>
<trkpt lat="32.751792908" lon="35.029891968">
  <ele>423.111816</ele>
  <time>2011-10-20T05:21:53Z</time>
  <speed>2.520000</speed>
</trkpt>
<trkpt lat="32.751808167" lon="35.029941559">
  <ele>422.893066</ele>
  <time>2011-10-20T05:21:55Z</time>
  <speed>2.350000</speed>
</trkpt>
<trkpt lat="32.751823425" lon="35.029998779">
  <ele>423.494629</ele>
  <time>2011-10-20T05:21:57Z</time>
  <speed>2.310000</speed>
</trkpt>
<trkpt lat="32.751842499" lon="35.030036926">
  <ele>423.752441</ele>
  <time>2011-10-20T05:21:59Z</time>
  <speed>1.920000</speed>
</trkpt>
<trkpt lat="32.751846313" lon="35.030090332">
  <ele>423.908691</ele>
  <time>2011-10-20T05:22:01Z</time>
  <speed>2.620000</speed>
</trkpt>
<trkpt lat="32.751850128" lon="35.030124664">
  <ele>424.080566</ele>
  <time>2011-10-20T05:22:02Z</time>
  <speed>2.800000</speed>
</trkpt>
<trkpt lat="32.751838684" lon="35.030155182">
  <ele>424.713379</ele>
  <time>2011-10-20T05:22:04Z</time>
  <speed>1.540000</speed>
</trkpt>
<trkpt lat="32.751819611" lon="35.030174255">
  <ele>425.955566</ele>
  <time>2011-10-20T05:22:06Z</time>
  <speed>1.080000</speed>
</trkpt>
<trkpt lat="32.751792908" lon="35.030204773">
  <ele>426.564941</ele>
  <time>2011-10-20T05:22:09Z</time>
  <speed>1.590000</speed>
</trkpt>
<trkpt lat="32.751770020" lon="35.030246735">
  <ele>427.260254</ele>
  <time>2011-10-20T05:22:11Z</time>
  <speed>2.060000</speed>
</trkpt>
<trkpt lat="32.751750946" lon="35.030281067">
  <ele>428.322754</ele>
  <time>2011-10-20T05:22:13Z</time>
  <speed>1.980000</speed>
</trkpt>
<trkpt lat="32.751731873" lon="35.030323029">
  <ele>428.971191</ele>
  <time>2011-10-20T05:22:15Z</time>
  <speed>1.680000</speed>
</trkpt>
<trkpt lat="32.751705170" lon="35.030353546">
  <ele>430.604004</ele>
  <time>2011-10-20T05:22:18Z</time>
  <speed>1.300000</speed>
</trkpt>
<trkpt lat="32.751697540" lon="35.030391693">
  <ele>432.533691</ele>
  <time>2011-10-20T05:22:21Z</time>
  <speed>1.440000</speed>
</trkpt>
<trkpt lat="32.751693726" lon="35.030422211">
  <ele>434.455566</ele>
  <time>2011-10-20T05:22:22Z</time>
  <speed>1.950000</speed>
</trkpt>
<trkpt lat="32.751705170" lon="35.030471802">
  <ele>435.369629</ele>
  <time>2011-10-20T05:22:24Z</time>
  <speed>1.900000</speed>
</trkpt>
<trkpt lat="32.751701355" lon="35.030509949">
  <ele>437.213379</ele>
  <time>2011-10-20T05:22:26Z</time>
  <speed>1.840000</speed>
</trkpt>
<trkpt lat="32.751728058" lon="35.030544281">
  <ele>437.244629</ele>
  <time>2011-10-20T05:22:28Z</time>
  <speed>1.940000</speed>
</trkpt>
<trkpt lat="32.751762390" lon="35.030582428">
  <ele>438.494629</ele>
  <time>2011-10-20T05:22:30Z</time>
  <speed>1.700000</speed>
</trkpt>
<trkpt lat="32.751789093" lon="35.030620575">
  <ele>438.939941</ele>
  <time>2011-10-20T05:22:32Z</time>
  <speed>2.020000</speed>
</trkpt>
<trkpt lat="32.751808167" lon="35.030670166">
  <ele>439.127441</ele>
  <time>2011-10-20T05:22:34Z</time>
  <speed>2.430000</speed>
</trkpt>
<trkpt lat="32.751804352" lon="35.030719757">
  <ele>438.838379</ele>
  <time>2011-10-20T05:22:36Z</time>
  <speed>2.310000</speed>
</trkpt>
<trkpt lat="32.751777649" lon="35.030761719">
  <ele>439.861816</ele>
  <time>2011-10-20T05:22:38Z</time>
  <speed>2.280000</speed>
</trkpt>
<trkpt lat="32.751754761" lon="35.030792236">
  <ele>440.244629</ele>
  <time>2011-10-20T05:22:40Z</time>
  <speed>1.800000</speed>
</trkpt>
<trkpt lat="32.751728058" lon="35.030815125">
  <ele>440.479004</ele>
  <time>2011-10-20T05:22:42Z</time>
  <speed>1.840000</speed>
</trkpt>
<trkpt lat="32.751701355" lon="35.030834198">
  <ele>440.268066</ele>
  <time>2011-10-20T05:22:44Z</time>
  <speed>1.640000</speed>
</trkpt>
<trkpt lat="32.751667023" lon="35.030853271">
  <ele>441.096191</ele>
  <time>2011-10-20T05:22:47Z</time>
  <speed>1.650000</speed>
</trkpt>
<trkpt lat="32.751640320" lon="35.030864716">
  <ele>440.689941</ele>
  <time>2011-10-20T05:22:49Z</time>
  <speed>1.600000</speed>
</trkpt>
<trkpt lat="32.751609802" lon="35.030872345">
  <ele>440.510254</ele>
  <time>2011-10-20T05:22:51Z</time>
  <speed>1.480000</speed>
</trkpt>
<trkpt lat="32.751583099" lon="35.030857086">
  <ele>440.846191</ele>
  <time>2011-10-20T05:22:53Z</time>
  <speed>1.370000</speed>
</trkpt>
<trkpt lat="32.751552582" lon="35.030857086">
  <ele>441.064941</ele>
  <time>2011-10-20T05:22:56Z</time>
  <speed>1.280000</speed>
</trkpt>
<trkpt lat="32.751510620" lon="35.030849457">
  <ele>442.111816</ele>
  <time>2011-10-20T05:22:59Z</time>
  <speed>1.320000</speed>
</trkpt>
<trkpt lat="32.751472473" lon="35.030841827">
  <ele>441.846191</ele>
  <time>2011-10-20T05:23:02Z</time>
  <speed>1.060000</speed>
</trkpt>
<trkpt lat="32.751441956" lon="35.030841827">
  <ele>442.205566</ele>
  <time>2011-10-20T05:23:06Z</time>
  <speed>1.000000</speed>
</trkpt>
<trkpt lat="32.751407623" lon="35.030818939">
  <ele>442.713379</ele>
  <time>2011-10-20T05:23:09Z</time>
  <speed>1.170000</speed>
</trkpt>
<trkpt lat="32.751377106" lon="35.030807495">
  <ele>442.939941</ele>
  <time>2011-10-20T05:23:12Z</time>
  <speed>1.390000</speed>
</trkpt>
<trkpt lat="32.751338959" lon="35.030792236">
  <ele>443.854004</ele>
  <time>2011-10-20T05:23:15Z</time>
  <speed>1.130000</speed>
</trkpt>
<trkpt lat="32.751312256" lon="35.030803680">
  <ele>444.205566</ele>
  <time>2011-10-20T05:23:18Z</time>
  <speed>0.960000</speed>
</trkpt>
<trkpt lat="32.751300812" lon="35.030834198">
  <ele>444.260254</ele>
  <time>2011-10-20T05:23:20Z</time>
  <speed>1.050000</speed>
</trkpt>
<trkpt lat="32.751266479" lon="35.030838013">
  <ele>444.775879</ele>
  <time>2011-10-20T05:23:23Z</time>
  <speed>0.870000</speed>
</trkpt>
<trkpt lat="32.751235962" lon="35.030838013">
  <ele>445.205566</ele>
  <time>2011-10-20T05:23:26Z</time>
  <speed>1.040000</speed>
</trkpt>
<trkpt lat="32.751209259" lon="35.030834198">
  <ele>446.564941</ele>
  <time>2011-10-20T05:23:29Z</time>
  <speed>1.220000</speed>
</trkpt>
<trkpt lat="32.751182556" lon="35.030811310">
  <ele>446.213379</ele>
  <time>2011-10-20T05:23:32Z</time>
  <speed>1.280000</speed>
</trkpt>
<trkpt lat="32.751159668" lon="35.030776978">
  <ele>447.197754</ele>
  <time>2011-10-20T05:23:35Z</time>
  <speed>1.250000</speed>
</trkpt>
<trkpt lat="32.751132965" lon="35.030754089">
  <ele>448.080566</ele>
  <time>2011-10-20T05:23:38Z</time>
  <speed>1.120000</speed>
</trkpt>
<trkpt lat="32.751106262" lon="35.030731201">
  <ele>447.971191</ele>
  <time>2011-10-20T05:23:41Z</time>
  <speed>1.200000</speed>
</trkpt>
<trkpt lat="32.751083374" lon="35.030696869">
  <ele>447.525879</ele>
  <time>2011-10-20T05:23:44Z</time>
  <speed>1.380000</speed>
</trkpt>
<trkpt lat="32.751060486" lon="35.030685425">
  <ele>447.658691</ele>
  <time>2011-10-20T05:23:46Z</time>
  <speed>1.290000</speed>
</trkpt>
<trkpt lat="32.751033783" lon="35.030681610">
  <ele>447.666504</ele>
  <time>2011-10-20T05:23:48Z</time>
  <speed>1.560000</speed>
</trkpt>
<trkpt lat="32.751003265" lon="35.030708313">
  <ele>447.510254</ele>
  <time>2011-10-20T05:23:51Z</time>
  <speed>1.770000</speed>
</trkpt>
<trkpt lat="32.750976563" lon="35.030738831">
  <ele>447.432129</ele>
  <time>2011-10-20T05:23:53Z</time>
  <speed>2.100000</speed>
</trkpt>
<trkpt lat="32.750942230" lon="35.030769348">
  <ele>446.627441</ele>
  <time>2011-10-20T05:23:55Z</time>
  <speed>2.140000</speed>
</trkpt>
<trkpt lat="32.750907898" lon="35.030799866">
  <ele>446.736816</ele>
  <time>2011-10-20T05:23:57Z</time>
  <speed>1.700000</speed>
</trkpt>
<trkpt lat="32.750885010" lon="35.030822754">
  <ele>446.229004</ele>
  <time>2011-10-20T05:23:59Z</time>
  <speed>1.510000</speed>
</trkpt>
<trkpt lat="32.750865936" lon="35.030849457">
  <ele>446.400879</ele>
  <time>2011-10-20T05:24:01Z</time>
  <speed>1.670000</speed>
</trkpt>
<trkpt lat="32.750843048" lon="35.030872345">
  <ele>446.049316</ele>
  <time>2011-10-20T05:24:03Z</time>
  <speed>1.710000</speed>
</trkpt>
<trkpt lat="32.750823975" lon="35.030902863">
  <ele>446.869629</ele>
  <time>2011-10-20T05:24:05Z</time>
  <speed>1.490000</speed>
</trkpt>
<trkpt lat="32.750812531" lon="35.030937195">
  <ele>447.057129</ele>
  <time>2011-10-20T05:24:07Z</time>
  <speed>1.540000</speed>
</trkpt>
<trkpt lat="32.750789642" lon="35.030967712">
  <ele>447.643066</ele>
  <time>2011-10-20T05:24:09Z</time>
  <speed>1.640000</speed>
</trkpt>
<trkpt lat="32.750766754" lon="35.030998230">
  <ele>447.729004</ele>
  <time>2011-10-20T05:24:11Z</time>
  <speed>1.610000</speed>
</trkpt>
<trkpt lat="32.750743866" lon="35.031024933">
  <ele>447.932129</ele>
  <time>2011-10-20T05:24:13Z</time>
  <speed>1.640000</speed>
</trkpt>
<trkpt lat="32.750720978" lon="35.031051636">
  <ele>447.932129</ele>
  <time>2011-10-20T05:24:15Z</time>
  <speed>1.510000</speed>
</trkpt>
<trkpt lat="32.750694275" lon="35.031070709">
  <ele>447.439941</ele>
  <time>2011-10-20T05:24:17Z</time>
  <speed>1.630000</speed>
</trkpt>
<trkpt lat="32.750667572" lon="35.031089783">
  <ele>447.158691</ele>
  <time>2011-10-20T05:24:19Z</time>
  <speed>1.760000</speed>
</trkpt>
<trkpt lat="32.750644684" lon="35.031108856">
  <ele>447.588379</ele>
  <time>2011-10-20T05:24:21Z</time>
  <speed>1.420000</speed>
</trkpt>
<trkpt lat="32.750610352" lon="35.031124115">
  <ele>447.127441</ele>
  <time>2011-10-20T05:24:24Z</time>
  <speed>1.810000</speed>
</trkpt>
<trkpt lat="32.750583649" lon="35.031135559">
  <ele>447.549316</ele>
  <time>2011-10-20T05:24:26Z</time>
  <speed>1.720000</speed>
</trkpt>
<trkpt lat="32.750553131" lon="35.031147003">
  <ele>448.229004</ele>
  <time>2011-10-20T05:24:28Z</time>
  <speed>1.930000</speed>
</trkpt>
<trkpt lat="32.750526428" lon="35.031166077">
  <ele>449.775879</ele>
  <time>2011-10-20T05:24:30Z</time>
  <speed>1.460000</speed>
</trkpt>
<trkpt lat="32.750495911" lon="35.031192780">
  <ele>450.846191</ele>
  <time>2011-10-20T05:24:32Z</time>
  <speed>1.950000</speed>
</trkpt>
<trkpt lat="32.750465393" lon="35.031215668">
  <ele>452.018066</ele>
  <time>2011-10-20T05:24:34Z</time>
  <speed>1.690000</speed>
</trkpt>
<trkpt lat="32.750431061" lon="35.031234741">
  <ele>453.471191</ele>
  <time>2011-10-20T05:24:36Z</time>
  <speed>1.800000</speed>
</trkpt>
<trkpt lat="32.750404358" lon="35.031250000">
  <ele>453.666504</ele>
  <time>2011-10-20T05:24:38Z</time>
  <speed>1.660000</speed>
</trkpt>
<trkpt lat="32.750389099" lon="35.031276703">
  <ele>454.064941</ele>
  <time>2011-10-20T05:24:40Z</time>
  <speed>1.440000</speed>
</trkpt>
<trkpt lat="32.750370026" lon="35.031303406">
  <ele>454.213379</ele>
  <time>2011-10-20T05:24:42Z</time>
  <speed>1.840000</speed>
</trkpt>
<trkpt lat="32.750350952" lon="35.031330109">
  <ele>454.229004</ele>
  <time>2011-10-20T05:24:44Z</time>
  <speed>1.770000</speed>
</trkpt>
<trkpt lat="32.750324249" lon="35.031364441">
  <ele>455.002441</ele>
  <time>2011-10-20T05:24:46Z</time>
  <speed>1.990000</speed>
</trkpt>
<trkpt lat="32.750297546" lon="35.031394958">
  <ele>455.010254</ele>
  <time>2011-10-20T05:24:49Z</time>
  <speed>1.820000</speed>
</trkpt>
<trkpt lat="32.750278473" lon="35.031425476">
  <ele>455.971191</ele>
  <time>2011-10-20T05:24:51Z</time>
  <speed>1.850000</speed>
</trkpt>
<trkpt lat="32.750263214" lon="35.031463623">
  <ele>455.463379</ele>
  <time>2011-10-20T05:24:53Z</time>
  <speed>1.980000</speed>
</trkpt>
<trkpt lat="32.750240326" lon="35.031490326">
  <ele>455.689941</ele>
  <time>2011-10-20T05:24:55Z</time>
  <speed>1.770000</speed>
</trkpt>
<trkpt lat="32.750217438" lon="35.031536102">
  <ele>455.963379</ele>
  <time>2011-10-20T05:24:57Z</time>
  <speed>2.040000</speed>
</trkpt>
<trkpt lat="32.750194550" lon="35.031585693">
  <ele>455.916504</ele>
  <time>2011-10-20T05:24:59Z</time>
  <speed>2.690000</speed>
</trkpt>
<trkpt lat="32.750171661" lon="35.031635284">
  <ele>455.658691</ele>
  <time>2011-10-20T05:25:01Z</time>
  <speed>2.380000</speed>
</trkpt>
<trkpt lat="32.750148773" lon="35.031692505">
  <ele>455.947754</ele>
  <time>2011-10-20T05:25:03Z</time>
  <speed>2.980000</speed>
</trkpt>
<trkpt lat="32.750137329" lon="35.031723022">
  <ele>455.369629</ele>
  <time>2011-10-20T05:25:04Z</time>
  <speed>3.280000</speed>
</trkpt>
<trkpt lat="32.750122070" lon="35.031753540">
  <ele>455.189941</ele>
  <time>2011-10-20T05:25:05Z</time>
  <speed>3.250000</speed>
</trkpt>
<trkpt lat="32.750076294" lon="35.031784058">
  <ele>454.268066</ele>
  <time>2011-10-20T05:25:07Z</time>
  <speed>3.280000</speed>
</trkpt>
<trkpt lat="32.750049591" lon="35.031799316">
  <ele>453.885254</ele>
  <time>2011-10-20T05:25:08Z</time>
  <speed>3.130000</speed>
</trkpt>
<trkpt lat="32.750007629" lon="35.031833649">
  <ele>454.291504</ele>
  <time>2011-10-20T05:25:10Z</time>
  <speed>2.650000</speed>
</trkpt>
<trkpt lat="32.749980927" lon="35.031879425">
  <ele>453.455566</ele>
  <time>2011-10-20T05:25:12Z</time>
  <speed>2.300000</speed>
</trkpt>
<trkpt lat="32.749961853" lon="35.031925201">
  <ele>454.299316</ele>
  <time>2011-10-20T05:25:14Z</time>
  <speed>2.430000</speed>
</trkpt>
<trkpt lat="32.749938965" lon="35.031967163">
  <ele>455.494629</ele>
  <time>2011-10-20T05:25:16Z</time>
  <speed>2.480000</speed>
</trkpt>
<trkpt lat="32.749916077" lon="35.032005310">
  <ele>456.088379</ele>
  <time>2011-10-20T05:25:18Z</time>
  <speed>2.390000</speed>
</trkpt>
<trkpt lat="32.749897003" lon="35.032058716">
  <ele>456.150879</ele>
  <time>2011-10-20T05:25:20Z</time>
  <speed>2.640000</speed>
</trkpt>
<trkpt lat="32.749881744" lon="35.032119751">
  <ele>456.580566</ele>
  <time>2011-10-20T05:25:22Z</time>
  <speed>2.730000</speed>
</trkpt>
<trkpt lat="32.749874115" lon="35.032176971">
  <ele>456.783691</ele>
  <time>2011-10-20T05:25:24Z</time>
  <speed>2.750000</speed>
</trkpt>
<trkpt lat="32.749862671" lon="35.032234192">
  <ele>456.963379</ele>
  <time>2011-10-20T05:25:26Z</time>
  <speed>2.990000</speed>
</trkpt>
<trkpt lat="32.749855042" lon="35.032264709">
  <ele>456.268066</ele>
  <time>2011-10-20T05:25:27Z</time>
  <speed>3.070000</speed>
</trkpt>
<trkpt lat="32.749828339" lon="35.032321930">
  <ele>457.619629</ele>
  <time>2011-10-20T05:25:29Z</time>
  <speed>3.190000</speed>
</trkpt>
<trkpt lat="32.749786377" lon="35.032356262">
  <ele>457.447754</ele>
  <time>2011-10-20T05:25:31Z</time>
  <speed>3.190000</speed>
</trkpt>
<trkpt lat="32.749752045" lon="35.032402039">
  <ele>457.182129</ele>
  <time>2011-10-20T05:25:33Z</time>
  <speed>2.590000</speed>
</trkpt>
<trkpt lat="32.749721527" lon="35.032428741">
  <ele>456.213379</ele>
  <time>2011-10-20T05:25:35Z</time>
  <speed>2.200000</speed>
</trkpt>
<trkpt lat="32.749687195" lon="35.032463074">
  <ele>456.143066</ele>
  <time>2011-10-20T05:25:37Z</time>
  <speed>2.220000</speed>
</trkpt>
<trkpt lat="32.749664307" lon="35.032508850">
  <ele>457.244629</ele>
  <time>2011-10-20T05:25:39Z</time>
  <speed>2.530000</speed>
</trkpt>
<trkpt lat="32.749652863" lon="35.032558441">
  <ele>457.432129</ele>
  <time>2011-10-20T05:25:41Z</time>
  <speed>2.090000</speed>
</trkpt>
<trkpt lat="32.749637604" lon="35.032604218">
  <ele>457.955566</ele>
  <time>2011-10-20T05:25:43Z</time>
  <speed>2.270000</speed>
</trkpt>
<trkpt lat="32.749629974" lon="35.032653809">
  <ele>458.580566</ele>
  <time>2011-10-20T05:25:45Z</time>
  <speed>2.280000</speed>
</trkpt>
<trkpt lat="32.749622345" lon="35.032703400">
  <ele>458.689941</ele>
  <time>2011-10-20T05:25:47Z</time>
  <speed>2.290000</speed>
</trkpt>
<trkpt lat="32.749610901" lon="35.032745361">
  <ele>459.268066</ele>
  <time>2011-10-20T05:25:49Z</time>
  <speed>2.150000</speed>
</trkpt>
<trkpt lat="32.749599457" lon="35.032794952">
  <ele>459.463379</ele>
  <time>2011-10-20T05:25:51Z</time>
  <speed>2.200000</speed>
</trkpt>
<trkpt lat="32.749595642" lon="35.032836914">
  <ele>458.385254</ele>
  <time>2011-10-20T05:25:53Z</time>
  <speed>2.180000</speed>
</trkpt>
<trkpt lat="32.749572754" lon="35.032875061">
  <ele>458.689941</ele>
  <time>2011-10-20T05:25:55Z</time>
  <speed>2.070000</speed>
</trkpt>
<trkpt lat="32.749553680" lon="35.032897949">
  <ele>459.494629</ele>
  <time>2011-10-20T05:25:56Z</time>
  <speed>2.270000</speed>
</trkpt>
<trkpt lat="32.749507904" lon="35.032901764">
  <ele>462.150879</ele>
  <time>2011-10-20T05:25:58Z</time>
  <speed>2.010000</speed>
</trkpt>
<trkpt lat="32.749485016" lon="35.032871246">
  <ele>462.627441</ele>
  <time>2011-10-20T05:26:00Z</time>
  <speed>1.700000</speed>
</trkpt>
<trkpt lat="32.749477386" lon="35.032817841">
  <ele>463.299316</ele>
  <time>2011-10-20T05:26:02Z</time>
  <speed>1.790000</speed>
</trkpt>
<trkpt lat="32.749473572" lon="35.032768250">
  <ele>464.689941</ele>
  <time>2011-10-20T05:26:04Z</time>
  <speed>2.150000</speed>
</trkpt>
<trkpt lat="32.749469757" lon="35.032714844">
  <ele>465.689941</ele>
  <time>2011-10-20T05:26:06Z</time>
  <speed>2.300000</speed>
</trkpt>
<trkpt lat="32.749458313" lon="35.032665253">
  <ele>465.986816</ele>
  <time>2011-10-20T05:26:08Z</time>
  <speed>2.070000</speed>
</trkpt>
<trkpt lat="32.749431610" lon="35.032627106">
  <ele>464.971191</ele>
  <time>2011-10-20T05:26:10Z</time>
  <speed>2.400000</speed>
</trkpt>
<trkpt lat="32.749393463" lon="35.032623291">
  <ele>465.814941</ele>
  <time>2011-10-20T05:26:12Z</time>
  <speed>2.170000</speed>
</trkpt>
<trkpt lat="32.749355316" lon="35.032649994">
  <ele>466.611816</ele>
  <time>2011-10-20T05:26:14Z</time>
  <speed>2.420000</speed>
</trkpt>
<trkpt lat="32.749324799" lon="35.032684326">
  <ele>466.635254</ele>
  <time>2011-10-20T05:26:16Z</time>
  <speed>2.090000</speed>
</trkpt>
<trkpt lat="32.749294281" lon="35.032714844">
  <ele>466.971191</ele>
  <time>2011-10-20T05:26:18Z</time>
  <speed>2.170000</speed>
</trkpt>
<trkpt lat="32.749267578" lon="35.032745361">
  <ele>467.697754</ele>
  <time>2011-10-20T05:26:20Z</time>
  <speed>1.750000</speed>
</trkpt>
<trkpt lat="32.749240875" lon="35.032768250">
  <ele>467.229004</ele>
  <time>2011-10-20T05:26:22Z</time>
  <speed>1.970000</speed>
</trkpt>
<trkpt lat="32.749214172" lon="35.032787323">
  <ele>465.822754</ele>
  <time>2011-10-20T05:26:24Z</time>
  <speed>1.910000</speed>
</trkpt>
<trkpt lat="32.749179840" lon="35.032794952">
  <ele>465.283691</ele>
  <time>2011-10-20T05:26:26Z</time>
  <speed>1.980000</speed>
</trkpt>
<trkpt lat="32.749153137" lon="35.032794952">
  <ele>465.432129</ele>
  <time>2011-10-20T05:26:28Z</time>
  <speed>2.020000</speed>
</trkpt>
<trkpt lat="32.749118805" lon="35.032783508">
  <ele>465.674316</ele>
  <time>2011-10-20T05:26:30Z</time>
  <speed>1.900000</speed>
</trkpt>
<trkpt lat="32.749084473" lon="35.032779694">
  <ele>466.135254</ele>
  <time>2011-10-20T05:26:32Z</time>
  <speed>1.820000</speed>
</trkpt>
<trkpt lat="32.749050140" lon="35.032775879">
  <ele>466.174316</ele>
  <time>2011-10-20T05:26:34Z</time>
  <speed>1.730000</speed>
</trkpt>
<trkpt lat="32.749019623" lon="35.032768250">
  <ele>466.994629</ele>
  <time>2011-10-20T05:26:36Z</time>
  <speed>1.940000</speed>
</trkpt>
<trkpt lat="32.748989105" lon="35.032752991">
  <ele>467.838379</ele>
  <time>2011-10-20T05:26:38Z</time>
  <speed>2.060000</speed>
</trkpt>
<trkpt lat="32.748958588" lon="35.032733917">
  <ele>469.072754</ele>
  <time>2011-10-20T05:26:40Z</time>
  <speed>1.830000</speed>
</trkpt>
<trkpt lat="32.748924255" lon="35.032726288">
  <ele>471.205566</ele>
  <time>2011-10-20T05:26:42Z</time>
  <speed>1.890000</speed>
</trkpt>
<trkpt lat="32.748897552" lon="35.032711029">
  <ele>471.713379</ele>
  <time>2011-10-20T05:26:44Z</time>
  <speed>1.540000</speed>
</trkpt>
<trkpt lat="32.748867035" lon="35.032699585">
  <ele>473.346191</ele>
  <time>2011-10-20T05:26:46Z</time>
  <speed>1.440000</speed>
</trkpt>
<trkpt lat="32.748828888" lon="35.032691956">
  <ele>473.111816</ele>
  <time>2011-10-20T05:26:48Z</time>
  <speed>1.900000</speed>
</trkpt>
<trkpt lat="32.748794556" lon="35.032688141">
  <ele>473.127441</ele>
  <time>2011-10-20T05:26:50Z</time>
  <speed>1.770000</speed>
</trkpt>
<trkpt lat="32.748764038" lon="35.032684326">
  <ele>472.916504</ele>
  <time>2011-10-20T05:26:52Z</time>
  <speed>1.880000</speed>
</trkpt>
<trkpt lat="32.748737335" lon="35.032688141">
  <ele>473.697754</ele>
  <time>2011-10-20T05:26:54Z</time>
  <speed>1.710000</speed>
</trkpt>
<trkpt lat="32.748703003" lon="35.032691956">
  <ele>472.869629</ele>
  <time>2011-10-20T05:26:56Z</time>
  <speed>1.820000</speed>
</trkpt>
<trkpt lat="32.748676300" lon="35.032703400">
  <ele>472.580566</ele>
  <time>2011-10-20T05:26:58Z</time>
  <speed>1.750000</speed>
</trkpt>
<trkpt lat="32.748645782" lon="35.032703400">
  <ele>472.502441</ele>
  <time>2011-10-20T05:27:00Z</time>
  <speed>1.650000</speed>
</trkpt>
<trkpt lat="32.748615265" lon="35.032711029">
  <ele>472.564941</ele>
  <time>2011-10-20T05:27:02Z</time>
  <speed>1.780000</speed>
</trkpt>
<trkpt lat="32.748580933" lon="35.032726288">
  <ele>473.541504</ele>
  <time>2011-10-20T05:27:04Z</time>
  <speed>1.660000</speed>
</trkpt>
<trkpt lat="32.748554230" lon="35.032737732">
  <ele>473.846191</ele>
  <time>2011-10-20T05:27:06Z</time>
  <speed>1.560000</speed>
</trkpt>
<trkpt lat="32.748527527" lon="35.032764435">
  <ele>474.049316</ele>
  <time>2011-10-20T05:27:08Z</time>
  <speed>1.730000</speed>
</trkpt>
<trkpt lat="32.748500824" lon="35.032775879">
  <ele>474.635254</ele>
  <time>2011-10-20T05:27:10Z</time>
  <speed>1.840000</speed>
</trkpt>
<trkpt lat="32.748477936" lon="35.032798767">
  <ele>474.650879</ele>
  <time>2011-10-20T05:27:12Z</time>
  <speed>1.700000</speed>
</trkpt>
<trkpt lat="32.748462677" lon="35.032833099">
  <ele>475.033691</ele>
  <time>2011-10-20T05:27:14Z</time>
  <speed>1.660000</speed>
</trkpt>
<trkpt lat="32.748439789" lon="35.032855988">
  <ele>474.939941</ele>
  <time>2011-10-20T05:27:16Z</time>
  <speed>1.910000</speed>
</trkpt>
<trkpt lat="32.748416901" lon="35.032878876">
  <ele>475.049316</ele>
  <time>2011-10-20T05:27:18Z</time>
  <speed>1.350000</speed>
</trkpt>
<trkpt lat="32.748397827" lon="35.032901764">
  <ele>474.674316</ele>
  <time>2011-10-20T05:27:20Z</time>
  <speed>1.370000</speed>
</trkpt>
<trkpt lat="32.748374939" lon="35.032928467">
  <ele>474.963379</ele>
  <time>2011-10-20T05:27:22Z</time>
  <speed>1.510000</speed>
</trkpt>
<trkpt lat="32.748348236" lon="35.032958984">
  <ele>474.986816</ele>
  <time>2011-10-20T05:27:25Z</time>
  <speed>1.350000</speed>
</trkpt>
<trkpt lat="32.748325348" lon="35.032981873">
  <ele>476.010254</ele>
  <time>2011-10-20T05:27:27Z</time>
  <speed>1.480000</speed>
</trkpt>
<trkpt lat="32.748302460" lon="35.033000946">
  <ele>477.018066</ele>
  <time>2011-10-20T05:27:29Z</time>
  <speed>1.720000</speed>
</trkpt>
<trkpt lat="32.748271942" lon="35.033000946">
  <ele>477.752441</ele>
  <time>2011-10-20T05:27:31Z</time>
  <speed>1.910000</speed>
</trkpt>
<trkpt lat="32.748260498" lon="35.032970428">
  <ele>477.885254</ele>
  <time>2011-10-20T05:27:33Z</time>
  <speed>1.520000</speed>
</trkpt>
<trkpt lat="32.748256683" lon="35.032928467">
  <ele>478.799316</ele>
  <time>2011-10-20T05:27:35Z</time>
  <speed>1.780000</speed>
</trkpt>
<trkpt lat="32.748252869" lon="35.032897949">
  <ele>479.635254</ele>
  <time>2011-10-20T05:27:37Z</time>
  <speed>1.550000</speed>
</trkpt>
<trkpt lat="32.748245239" lon="35.032859802">
  <ele>479.064941</ele>
  <time>2011-10-20T05:27:39Z</time>
  <speed>1.270000</speed>
</trkpt>
<trkpt lat="32.748249054" lon="35.032821655">
  <ele>479.283691</ele>
  <time>2011-10-20T05:27:41Z</time>
  <speed>1.340000</speed>
</trkpt>
<trkpt lat="32.748252869" lon="35.032775879">
  <ele>478.650879</ele>
  <time>2011-10-20T05:27:44Z</time>
  <speed>1.450000</speed>
</trkpt>
<trkpt lat="32.748252869" lon="35.032741547">
  <ele>478.760254</ele>
  <time>2011-10-20T05:27:46Z</time>
  <speed>1.210000</speed>
</trkpt>
<trkpt lat="32.748249054" lon="35.032691956">
  <ele>479.666504</ele>
  <time>2011-10-20T05:27:49Z</time>
  <speed>1.400000</speed>
</trkpt>
<trkpt lat="32.748245239" lon="35.032657623">
  <ele>480.611816</ele>
  <time>2011-10-20T05:27:51Z</time>
  <speed>1.400000</speed>
</trkpt>
<trkpt lat="32.748256683" lon="35.032611847">
  <ele>480.549316</ele>
  <time>2011-10-20T05:27:54Z</time>
  <speed>1.550000</speed>
</trkpt>
<trkpt lat="32.748271942" lon="35.032573700">
  <ele>480.768066</ele>
  <time>2011-10-20T05:27:57Z</time>
  <speed>1.380000</speed>
</trkpt>
<trkpt lat="32.748283386" lon="35.032543182">
  <ele>480.525879</ele>
  <time>2011-10-20T05:27:59Z</time>
  <speed>1.560000</speed>
</trkpt>
<trkpt lat="32.748306274" lon="35.032501221">
  <ele>482.408691</ele>
  <time>2011-10-20T05:28:02Z</time>
  <speed>1.530000</speed>
</trkpt>
<trkpt lat="32.748332977" lon="35.032466888">
  <ele>483.080566</ele>
  <time>2011-10-20T05:28:05Z</time>
  <speed>1.340000</speed>
</trkpt>
<trkpt lat="32.748355865" lon="35.032447815">
  <ele>483.369629</ele>
  <time>2011-10-20T05:28:07Z</time>
  <speed>1.600000</speed>
</trkpt>
<trkpt lat="32.748374939" lon="35.032421112">
  <ele>484.424316</ele>
  <time>2011-10-20T05:28:09Z</time>
  <speed>1.530000</speed>
</trkpt>
<trkpt lat="32.748390198" lon="35.032390594">
  <ele>485.229004</ele>
  <time>2011-10-20T05:28:11Z</time>
  <speed>1.760000</speed>
</trkpt>
<trkpt lat="32.748416901" lon="35.032371521">
  <ele>485.143066</ele>
  <time>2011-10-20T05:28:13Z</time>
  <speed>1.940000</speed>
</trkpt>
<trkpt lat="32.748435974" lon="35.032348633">
  <ele>486.330566</ele>
  <time>2011-10-20T05:28:15Z</time>
  <speed>1.450000</speed>
</trkpt>
<trkpt lat="32.748455048" lon="35.032314301">
  <ele>487.439941</ele>
  <time>2011-10-20T05:28:17Z</time>
  <speed>1.730000</speed>
</trkpt>
<trkpt lat="32.748474121" lon="35.032283783">
  <ele>487.424316</ele>
  <time>2011-10-20T05:28:19Z</time>
  <speed>1.890000</speed>
</trkpt>
<trkpt lat="32.748493195" lon="35.032253265">
  <ele>487.564941</ele>
  <time>2011-10-20T05:28:21Z</time>
  <speed>2.100000</speed>
</trkpt>
<trkpt lat="32.748519897" lon="35.032222748">
  <ele>487.572754</ele>
  <time>2011-10-20T05:28:23Z</time>
  <speed>2.250000</speed>
</trkpt>
<trkpt lat="32.748535156" lon="35.032173157">
  <ele>487.049316</ele>
  <time>2011-10-20T05:28:25Z</time>
  <speed>2.570000</speed>
</trkpt>
<trkpt lat="32.748542786" lon="35.032115936">
  <ele>487.166504</ele>
  <time>2011-10-20T05:28:27Z</time>
  <speed>3.050000</speed>
</trkpt>
<trkpt lat="32.748542786" lon="35.032077789">
  <ele>486.783691</ele>
  <time>2011-10-20T05:28:28Z</time>
  <speed>3.430000</speed>
</trkpt>
<trkpt lat="32.748542786" lon="35.032039642">
  <ele>485.939941</ele>
  <time>2011-10-20T05:28:29Z</time>
  <speed>3.870000</speed>
</trkpt>
<trkpt lat="32.748531342" lon="35.032001495">
  <ele>485.682129</ele>
  <time>2011-10-20T05:28:30Z</time>
  <speed>4.110000</speed>
</trkpt>
<trkpt lat="32.748516083" lon="35.031963348">
  <ele>485.775879</ele>
  <time>2011-10-20T05:28:31Z</time>
  <speed>4.530000</speed>
</trkpt>
<trkpt lat="32.748489380" lon="35.031929016">
  <ele>486.416504</ele>
  <time>2011-10-20T05:28:32Z</time>
  <speed>4.180000</speed>
</trkpt>
<trkpt lat="32.748466492" lon="35.031894684">
  <ele>486.252441</ele>
  <time>2011-10-20T05:28:33Z</time>
  <speed>3.930000</speed>
</trkpt>
<trkpt lat="32.748443604" lon="35.031860352">
  <ele>486.666504</ele>
  <time>2011-10-20T05:28:34Z</time>
  <speed>3.750000</speed>
</trkpt>
<trkpt lat="32.748420715" lon="35.031833649">
  <ele>486.893066</ele>
  <time>2011-10-20T05:28:35Z</time>
  <speed>3.350000</speed>
</trkpt>
<trkpt lat="32.748397827" lon="35.031810760">
  <ele>487.174316</ele>
  <time>2011-10-20T05:28:36Z</time>
  <speed>3.020000</speed>
</trkpt>
<trkpt lat="32.748378754" lon="35.031784058">
  <ele>486.549316</ele>
  <time>2011-10-20T05:28:37Z</time>
  <speed>2.580000</speed>
</trkpt>
<trkpt lat="32.748336792" lon="35.031745911">
  <ele>486.697754</ele>
  <time>2011-10-20T05:28:39Z</time>
  <speed>2.560000</speed>
</trkpt>
<trkpt lat="32.748306274" lon="35.031711578">
  <ele>486.174316</ele>
  <time>2011-10-20T05:28:41Z</time>
  <speed>2.420000</speed>
</trkpt>
<trkpt lat="32.748275757" lon="35.031688690">
  <ele>485.939941</ele>
  <time>2011-10-20T05:28:43Z</time>
  <speed>2.380000</speed>
</trkpt>
<trkpt lat="32.748237610" lon="35.031661987">
  <ele>487.010254</ele>
  <time>2011-10-20T05:28:45Z</time>
  <speed>2.410000</speed>
</trkpt>
<trkpt lat="32.748203278" lon="35.031646729">
  <ele>487.416504</ele>
  <time>2011-10-20T05:28:47Z</time>
  <speed>2.250000</speed>
</trkpt>
<trkpt lat="32.748165131" lon="35.031631470">
  <ele>489.463379</ele>
  <time>2011-10-20T05:28:49Z</time>
  <speed>2.170000</speed>
</trkpt>
<trkpt lat="32.748123169" lon="35.031620026">
  <ele>490.893066</ele>
  <time>2011-10-20T05:28:51Z</time>
  <speed>2.380000</speed>
</trkpt>
<trkpt lat="32.748085022" lon="35.031600952">
  <ele>491.986816</ele>
  <time>2011-10-20T05:28:53Z</time>
  <speed>2.300000</speed>
</trkpt>
<trkpt lat="32.748043060" lon="35.031585693">
  <ele>492.713379</ele>
  <time>2011-10-20T05:28:55Z</time>
  <speed>2.190000</speed>
</trkpt>
<trkpt lat="32.748008728" lon="35.031570435">
  <ele>493.244629</ele>
  <time>2011-10-20T05:28:57Z</time>
  <speed>2.040000</speed>
</trkpt>
<trkpt lat="32.747970581" lon="35.031562805">
  <ele>493.260254</ele>
  <time>2011-10-20T05:28:59Z</time>
  <speed>2.220000</speed>
</trkpt>
<trkpt lat="32.747932434" lon="35.031547546">
  <ele>491.900879</ele>
  <time>2011-10-20T05:29:01Z</time>
  <speed>2.060000</speed>
</trkpt>
<trkpt lat="32.747894287" lon="35.031536102">
  <ele>490.830566</ele>
  <time>2011-10-20T05:29:03Z</time>
  <speed>2.060000</speed>
</trkpt>
<trkpt lat="32.747856140" lon="35.031528473">
  <ele>491.104004</ele>
  <time>2011-10-20T05:29:05Z</time>
  <speed>2.280000</speed>
</trkpt>
<trkpt lat="32.747817993" lon="35.031524658">
  <ele>490.236816</ele>
  <time>2011-10-20T05:29:07Z</time>
  <speed>1.950000</speed>
</trkpt>
<trkpt lat="32.747783661" lon="35.031524658">
  <ele>490.104004</ele>
  <time>2011-10-20T05:29:09Z</time>
  <speed>2.230000</speed>
</trkpt>
<trkpt lat="32.747741699" lon="35.031536102">
  <ele>490.486816</ele>
  <time>2011-10-20T05:29:11Z</time>
  <speed>2.210000</speed>
</trkpt>
<trkpt lat="32.747699738" lon="35.031558990">
  <ele>491.471191</ele>
  <time>2011-10-20T05:29:13Z</time>
  <speed>2.070000</speed>
</trkpt>
<trkpt lat="32.747665405" lon="35.031578064">
  <ele>491.799316</ele>
  <time>2011-10-20T05:29:15Z</time>
  <speed>2.240000</speed>
</trkpt>
<trkpt lat="32.747631073" lon="35.031585693">
  <ele>491.658691</ele>
  <time>2011-10-20T05:29:17Z</time>
  <speed>1.790000</speed>
</trkpt>
<trkpt lat="32.747600555" lon="35.031600952">
  <ele>490.994629</ele>
  <time>2011-10-20T05:29:19Z</time>
  <speed>2.100000</speed>
</trkpt>
<trkpt lat="32.747562408" lon="35.031627655">
  <ele>492.135254</ele>
  <time>2011-10-20T05:29:21Z</time>
  <speed>2.510000</speed>
</trkpt>
<trkpt lat="32.747531891" lon="35.031650543">
  <ele>492.291504</ele>
  <time>2011-10-20T05:29:23Z</time>
  <speed>1.580000</speed>
</trkpt>
<trkpt lat="32.747509003" lon="35.031673431">
  <ele>492.494629</ele>
  <time>2011-10-20T05:29:25Z</time>
  <speed>1.760000</speed>
</trkpt>
<trkpt lat="32.747482300" lon="35.031696320">
  <ele>493.471191</ele>
  <time>2011-10-20T05:29:27Z</time>
  <speed>1.710000</speed>
</trkpt>
<trkpt lat="32.747463226" lon="35.031726837">
  <ele>494.705566</ele>
  <time>2011-10-20T05:29:29Z</time>
  <speed>1.720000</speed>
</trkpt>
<trkpt lat="32.747444153" lon="35.031757355">
  <ele>494.650879</ele>
  <time>2011-10-20T05:29:31Z</time>
  <speed>1.360000</speed>
</trkpt>
<trkpt lat="32.747428894" lon="35.031787872">
  <ele>494.158691</ele>
  <time>2011-10-20T05:29:33Z</time>
  <speed>1.610000</speed>
</trkpt>
<trkpt lat="32.747421265" lon="35.031818390">
  <ele>493.822754</ele>
  <time>2011-10-20T05:29:35Z</time>
  <speed>1.810000</speed>
</trkpt>
<trkpt lat="32.747406006" lon="35.031856537">
  <ele>493.525879</ele>
  <time>2011-10-20T05:29:37Z</time>
  <speed>1.520000</speed>
</trkpt>
<trkpt lat="32.747394562" lon="35.031890869">
  <ele>494.861816</ele>
  <time>2011-10-20T05:29:39Z</time>
  <speed>1.410000</speed>
</trkpt>
<trkpt lat="32.747383118" lon="35.031929016">
  <ele>496.619629</ele>
  <time>2011-10-20T05:29:41Z</time>
  <speed>1.380000</speed>
</trkpt>
<trkpt lat="32.747394562" lon="35.031978607">
  <ele>495.721191</ele>
  <time>2011-10-20T05:29:44Z</time>
  <speed>1.570000</speed>
</trkpt>
<trkpt lat="32.747406006" lon="35.032012939">
  <ele>495.424316</ele>
  <time>2011-10-20T05:29:46Z</time>
  <speed>1.810000</speed>
</trkpt>
<trkpt lat="32.747421265" lon="35.032047272">
  <ele>495.947754</ele>
  <time>2011-10-20T05:29:48Z</time>
  <speed>1.560000</speed>
</trkpt>
<trkpt lat="32.747436523" lon="35.032081604">
  <ele>496.932129</ele>
  <time>2011-10-20T05:29:50Z</time>
  <speed>1.680000</speed>
</trkpt>
<trkpt lat="32.747444153" lon="35.032119751">
  <ele>497.354004</ele>
  <time>2011-10-20T05:29:52Z</time>
  <speed>1.430000</speed>
</trkpt>
<trkpt lat="32.747447968" lon="35.032165527">
  <ele>496.916504</ele>
  <time>2011-10-20T05:29:55Z</time>
  <speed>1.760000</speed>
</trkpt>
<trkpt lat="32.747444153" lon="35.032203674">
  <ele>497.260254</ele>
  <time>2011-10-20T05:29:57Z</time>
  <speed>1.690000</speed>
</trkpt>
<trkpt lat="32.747444153" lon="35.032234192">
  <ele>497.814941</ele>
  <time>2011-10-20T05:29:59Z</time>
  <speed>1.550000</speed>
</trkpt>
<trkpt lat="32.747425079" lon="35.032276154">
  <ele>498.400879</ele>
  <time>2011-10-20T05:30:02Z</time>
  <speed>1.630000</speed>
</trkpt>
<trkpt lat="32.747394562" lon="35.032302856">
  <ele>498.682129</ele>
  <time>2011-10-20T05:30:04Z</time>
  <speed>1.840000</speed>
</trkpt>
<trkpt lat="32.747375488" lon="35.032325745">
  <ele>498.822754</ele>
  <time>2011-10-20T05:30:06Z</time>
  <speed>1.680000</speed>
</trkpt>
<trkpt lat="32.747348785" lon="35.032348633">
  <ele>498.924316</ele>
  <time>2011-10-20T05:30:08Z</time>
  <speed>1.710000</speed>
</trkpt>
<trkpt lat="32.747325897" lon="35.032386780">
  <ele>499.393066</ele>
  <time>2011-10-20T05:30:11Z</time>
  <speed>1.690000</speed>
</trkpt>
<trkpt lat="32.747303009" lon="35.032409668">
  <ele>499.822754</ele>
  <time>2011-10-20T05:30:13Z</time>
  <speed>1.350000</speed>
</trkpt>
<trkpt lat="32.747272491" lon="35.032440186">
  <ele>500.783691</ele>
  <time>2011-10-20T05:30:16Z</time>
  <speed>1.360000</speed>
</trkpt>
<trkpt lat="32.747253418" lon="35.032459259">
  <ele>501.877441</ele>
  <time>2011-10-20T05:30:18Z</time>
  <speed>1.500000</speed>
</trkpt>
<trkpt lat="32.747234344" lon="35.032489777">
  <ele>502.361816</ele>
  <time>2011-10-20T05:30:21Z</time>
  <speed>1.500000</speed>
</trkpt>
<trkpt lat="32.747211456" lon="35.032516479">
  <ele>503.814941</ele>
  <time>2011-10-20T05:30:23Z</time>
  <speed>1.690000</speed>
</trkpt>
<trkpt lat="32.747196198" lon="35.032550812">
  <ele>503.596191</ele>
  <time>2011-10-20T05:30:25Z</time>
  <speed>1.450000</speed>
</trkpt>
<trkpt lat="32.747184753" lon="35.032585144">
  <ele>503.354004</ele>
  <time>2011-10-20T05:30:27Z</time>
  <speed>1.180000</speed>
</trkpt>
<trkpt lat="32.747169495" lon="35.032634735">
  <ele>504.354004</ele>
  <time>2011-10-20T05:30:30Z</time>
  <speed>1.360000</speed>
</trkpt>
<trkpt lat="32.747165680" lon="35.032665253">
  <ele>504.479004</ele>
  <time>2011-10-20T05:30:32Z</time>
  <speed>1.490000</speed>
</trkpt>
<trkpt lat="32.747161865" lon="35.032699585">
  <ele>504.307129</ele>
  <time>2011-10-20T05:30:34Z</time>
  <speed>1.860000</speed>
</trkpt>
<trkpt lat="32.747158051" lon="35.032737732">
  <ele>504.111816</ele>
  <time>2011-10-20T05:30:36Z</time>
  <speed>1.840000</speed>
</trkpt>
<trkpt lat="32.747146606" lon="35.032772064">
  <ele>504.885254</ele>
  <time>2011-10-20T05:30:38Z</time>
  <speed>1.690000</speed>
</trkpt>
<trkpt lat="32.747127533" lon="35.032798767">
  <ele>505.229004</ele>
  <time>2011-10-20T05:30:40Z</time>
  <speed>1.750000</speed>
</trkpt>
<trkpt lat="32.747112274" lon="35.032829285">
  <ele>505.314941</ele>
  <time>2011-10-20T05:30:42Z</time>
  <speed>1.500000</speed>
</trkpt>
<trkpt lat="32.747093201" lon="35.032863617">
  <ele>505.908691</ele>
  <time>2011-10-20T05:30:44Z</time>
  <speed>1.770000</speed>
</trkpt>
<trkpt lat="32.747074127" lon="35.032894135">
  <ele>506.291504</ele>
  <time>2011-10-20T05:30:46Z</time>
  <speed>1.780000</speed>
</trkpt>
<trkpt lat="32.747055054" lon="35.032924652">
  <ele>506.541504</ele>
  <time>2011-10-20T05:30:48Z</time>
  <speed>1.840000</speed>
</trkpt>
<trkpt lat="32.747028351" lon="35.032943726">
  <ele>507.494629</ele>
  <time>2011-10-20T05:30:50Z</time>
  <speed>1.700000</speed>
</trkpt>
<trkpt lat="32.747009277" lon="35.032974243">
  <ele>508.838379</ele>
  <time>2011-10-20T05:30:52Z</time>
  <speed>1.750000</speed>
</trkpt>
<trkpt lat="32.746982574" lon="35.033004761">
  <ele>510.596191</ele>
  <time>2011-10-20T05:30:54Z</time>
  <speed>1.890000</speed>
</trkpt>
<trkpt lat="32.746948242" lon="35.033027649">
  <ele>512.317383</ele>
  <time>2011-10-20T05:30:56Z</time>
  <speed>1.810000</speed>
</trkpt>
<trkpt lat="32.746917725" lon="35.033058167">
  <ele>513.567383</ele>
  <time>2011-10-20T05:30:58Z</time>
  <speed>1.620000</speed>
</trkpt>
<trkpt lat="32.746891022" lon="35.033081055">
  <ele>514.036133</ele>
  <time>2011-10-20T05:31:00Z</time>
  <speed>1.670000</speed>
</trkpt>
<trkpt lat="32.746871948" lon="35.033107758">
  <ele>514.004883</ele>
  <time>2011-10-20T05:31:02Z</time>
  <speed>1.840000</speed>
</trkpt>
<trkpt lat="32.746849060" lon="35.033126831">
  <ele>514.911133</ele>
  <time>2011-10-20T05:31:04Z</time>
  <speed>1.770000</speed>
</trkpt>
<trkpt lat="32.746818542" lon="35.033149719">
  <ele>516.051758</ele>
  <time>2011-10-20T05:31:06Z</time>
  <speed>1.980000</speed>
</trkpt>
<trkpt lat="32.746791840" lon="35.033176422">
  <ele>517.442383</ele>
  <time>2011-10-20T05:31:08Z</time>
  <speed>1.660000</speed>
</trkpt>
<trkpt lat="32.746772766" lon="35.033203125">
  <ele>518.129883</ele>
  <time>2011-10-20T05:31:10Z</time>
  <speed>1.630000</speed>
</trkpt>
<trkpt lat="32.746746063" lon="35.033241272">
  <ele>517.692383</ele>
  <time>2011-10-20T05:31:13Z</time>
  <speed>1.750000</speed>
</trkpt>
<trkpt lat="32.746723175" lon="35.033256531">
  <ele>517.458008</ele>
  <time>2011-10-20T05:31:15Z</time>
  <speed>1.560000</speed>
</trkpt>
<trkpt lat="32.746700287" lon="35.033279419">
  <ele>517.754883</ele>
  <time>2011-10-20T05:31:17Z</time>
  <speed>1.430000</speed>
</trkpt>
<trkpt lat="32.746673584" lon="35.033309937">
  <ele>518.473633</ele>
  <time>2011-10-20T05:31:19Z</time>
  <speed>1.670000</speed>
</trkpt>
<trkpt lat="32.746635437" lon="35.033332825">
  <ele>518.926758</ele>
  <time>2011-10-20T05:31:22Z</time>
  <speed>1.830000</speed>
</trkpt>
<trkpt lat="32.746604919" lon="35.033344269">
  <ele>518.801758</ele>
  <time>2011-10-20T05:31:24Z</time>
  <speed>1.360000</speed>
</trkpt>
<trkpt lat="32.746574402" lon="35.033351898">
  <ele>519.473633</ele>
  <time>2011-10-20T05:31:26Z</time>
  <speed>1.410000</speed>
</trkpt>
<trkpt lat="32.746547699" lon="35.033367157">
  <ele>520.520508</ele>
  <time>2011-10-20T05:31:28Z</time>
  <speed>1.500000</speed>
</trkpt>
<trkpt lat="32.746528625" lon="35.033390045">
  <ele>521.192383</ele>
  <time>2011-10-20T05:31:30Z</time>
  <speed>1.530000</speed>
</trkpt>
<trkpt lat="32.746501923" lon="35.033405304">
  <ele>521.676758</ele>
  <time>2011-10-20T05:31:32Z</time>
  <speed>1.530000</speed>
</trkpt>
<trkpt lat="32.746479034" lon="35.033435822">
  <ele>522.161133</ele>
  <time>2011-10-20T05:31:34Z</time>
  <speed>1.380000</speed>
</trkpt>
<trkpt lat="32.746452332" lon="35.033458710">
  <ele>522.208008</ele>
  <time>2011-10-20T05:31:37Z</time>
  <speed>1.490000</speed>
</trkpt>
<trkpt lat="32.746429443" lon="35.033477783">
  <ele>523.395508</ele>
  <time>2011-10-20T05:31:39Z</time>
  <speed>1.620000</speed>
</trkpt>
<trkpt lat="32.746417999" lon="35.033508301">
  <ele>524.395508</ele>
  <time>2011-10-20T05:31:41Z</time>
  <speed>1.550000</speed>
</trkpt>
<trkpt lat="32.746395111" lon="35.033535004">
  <ele>525.723633</ele>
  <time>2011-10-20T05:31:44Z</time>
  <speed>1.570000</speed>
</trkpt>
<trkpt lat="32.746368408" lon="35.033565521">
  <ele>527.426758</ele>
  <time>2011-10-20T05:31:46Z</time>
  <speed>1.800000</speed>
</trkpt>
<trkpt lat="32.746349335" lon="35.033592224">
  <ele>527.176758</ele>
  <time>2011-10-20T05:31:48Z</time>
  <speed>1.660000</speed>
</trkpt>
<trkpt lat="32.746318817" lon="35.033626556">
  <ele>526.036133</ele>
  <time>2011-10-20T05:31:51Z</time>
  <speed>1.670000</speed>
</trkpt>
<trkpt lat="32.746295929" lon="35.033653259">
  <ele>524.583008</ele>
  <time>2011-10-20T05:31:53Z</time>
  <speed>1.750000</speed>
</trkpt>
<trkpt lat="32.746265411" lon="35.033687592">
  <ele>523.911133</ele>
  <time>2011-10-20T05:31:56Z</time>
  <speed>1.590000</speed>
</trkpt>
<trkpt lat="32.746231079" lon="35.033710480">
  <ele>522.692383</ele>
  <time>2011-10-20T05:31:59Z</time>
  <speed>1.590000</speed>
</trkpt>
<trkpt lat="32.746200562" lon="35.033737183">
  <ele>522.098633</ele>
  <time>2011-10-20T05:32:01Z</time>
  <speed>2.010000</speed>
</trkpt>
<trkpt lat="32.746173859" lon="35.033756256">
  <ele>522.395508</ele>
  <time>2011-10-20T05:32:03Z</time>
  <speed>1.740000</speed>
</trkpt>
<trkpt lat="32.746147156" lon="35.033775330">
  <ele>523.145508</ele>
  <time>2011-10-20T05:32:05Z</time>
  <speed>1.910000</speed>
</trkpt>
<trkpt lat="32.746112823" lon="35.033802032">
  <ele>523.411133</ele>
  <time>2011-10-20T05:32:07Z</time>
  <speed>1.710000</speed>
</trkpt>
<trkpt lat="32.746078491" lon="35.033821106">
  <ele>522.020508</ele>
  <time>2011-10-20T05:32:09Z</time>
  <speed>2.150000</speed>
</trkpt>
<trkpt lat="32.746044159" lon="35.033847809">
  <ele>522.395508</ele>
  <time>2011-10-20T05:32:11Z</time>
  <speed>1.750000</speed>
</trkpt>
<trkpt lat="32.746017456" lon="35.033863068">
  <ele>523.067383</ele>
  <time>2011-10-20T05:32:13Z</time>
  <speed>1.600000</speed>
</trkpt>
<trkpt lat="32.745994568" lon="35.033870697">
  <ele>521.848633</ele>
  <time>2011-10-20T05:32:15Z</time>
  <speed>1.620000</speed>
</trkpt>
<trkpt lat="32.745964050" lon="35.033870697">
  <ele>521.223633</ele>
  <time>2011-10-20T05:32:17Z</time>
  <speed>1.730000</speed>
</trkpt>
<trkpt lat="32.745929718" lon="35.033863068">
  <ele>520.958008</ele>
  <time>2011-10-20T05:32:19Z</time>
  <speed>1.690000</speed>
</trkpt>
<trkpt lat="32.745895386" lon="35.033870697">
  <ele>520.598633</ele>
  <time>2011-10-20T05:32:21Z</time>
  <speed>1.720000</speed>
</trkpt>
<trkpt lat="32.745872498" lon="35.033855438">
  <ele>519.926758</ele>
  <time>2011-10-20T05:32:23Z</time>
  <speed>1.800000</speed>
</trkpt>
<trkpt lat="32.745838165" lon="35.033859253">
  <ele>520.661133</ele>
  <time>2011-10-20T05:32:25Z</time>
  <speed>1.530000</speed>
</trkpt>
<trkpt lat="32.745803833" lon="35.033840179">
  <ele>521.036133</ele>
  <time>2011-10-20T05:32:28Z</time>
  <speed>1.730000</speed>
</trkpt>
<trkpt lat="32.745780945" lon="35.033821106">
  <ele>521.036133</ele>
  <time>2011-10-20T05:32:30Z</time>
  <speed>1.650000</speed>
</trkpt>
<trkpt lat="32.745742798" lon="35.033817291">
  <ele>520.973633</ele>
  <time>2011-10-20T05:32:33Z</time>
  <speed>1.460000</speed>
</trkpt>
<trkpt lat="32.745723724" lon="35.033836365">
  <ele>519.364258</ele>
  <time>2011-10-20T05:34:46Z</time>
  <speed>0.300000</speed>
</trkpt>
<trkpt lat="32.745685577" lon="35.033863068">
  <ele>519.864258</ele>
  <time>2011-10-20T05:34:49Z</time>
  <speed>1.960000</speed>
</trkpt>
<trkpt lat="32.745647430" lon="35.033889771">
  <ele>519.114258</ele>
  <time>2011-10-20T05:34:51Z</time>
  <speed>2.520000</speed>
</trkpt>
<trkpt lat="32.745609283" lon="35.033935547">
  <ele>519.129883</ele>
  <time>2011-10-20T05:34:53Z</time>
  <speed>3.080000</speed>
</trkpt>
<trkpt lat="32.745582581" lon="35.033958435">
  <ele>519.083008</ele>
  <time>2011-10-20T05:34:54Z</time>
  <speed>3.440000</speed>
</trkpt>
<trkpt lat="32.745552063" lon="35.033988953">
  <ele>519.458008</ele>
  <time>2011-10-20T05:34:55Z</time>
  <speed>3.640000</speed>
</trkpt>
<trkpt lat="32.745521545" lon="35.034019470">
  <ele>519.239258</ele>
  <time>2011-10-20T05:34:56Z</time>
  <speed>4.340000</speed>
</trkpt>
<trkpt lat="32.745487213" lon="35.034042358">
  <ele>519.036133</ele>
  <time>2011-10-20T05:34:57Z</time>
  <speed>4.350000</speed>
</trkpt>
<trkpt lat="32.745445251" lon="35.034061432">
  <ele>518.551758</ele>
  <time>2011-10-20T05:34:58Z</time>
  <speed>4.500000</speed>
</trkpt>
<trkpt lat="32.745407104" lon="35.034084320">
  <ele>518.458008</ele>
  <time>2011-10-20T05:34:59Z</time>
  <speed>4.610000</speed>
</trkpt>
<trkpt lat="32.745365143" lon="35.034114838">
  <ele>519.254883</ele>
  <time>2011-10-20T05:35:00Z</time>
  <speed>5.120000</speed>
</trkpt>
<trkpt lat="32.745323181" lon="35.034145355">
  <ele>519.379883</ele>
  <time>2011-10-20T05:35:01Z</time>
  <speed>5.200000</speed>
</trkpt>
<trkpt lat="32.745281219" lon="35.034179688">
  <ele>520.176758</ele>
  <time>2011-10-20T05:35:02Z</time>
  <speed>5.070000</speed>
</trkpt>
<trkpt lat="32.745246887" lon="35.034206390">
  <ele>519.801758</ele>
  <time>2011-10-20T05:35:03Z</time>
  <speed>4.030000</speed>
</trkpt>
<trkpt lat="32.745212555" lon="35.034229279">
  <ele>519.973633</ele>
  <time>2011-10-20T05:35:04Z</time>
  <speed>3.970000</speed>
</trkpt>
<trkpt lat="32.745170593" lon="35.034259796">
  <ele>519.864258</ele>
  <time>2011-10-20T05:35:05Z</time>
  <speed>4.010000</speed>
</trkpt>
<trkpt lat="32.745128632" lon="35.034282684">
  <ele>520.411133</ele>
  <time>2011-10-20T05:35:06Z</time>
  <speed>3.780000</speed>
</trkpt>
<trkpt lat="32.745082855" lon="35.034317017">
  <ele>521.708008</ele>
  <time>2011-10-20T05:35:07Z</time>
  <speed>4.620000</speed>
</trkpt>
<trkpt lat="32.745044708" lon="35.034347534">
  <ele>522.161133</ele>
  <time>2011-10-20T05:35:08Z</time>
  <speed>4.980000</speed>
</trkpt>
<trkpt lat="32.744995117" lon="35.034378052">
  <ele>522.161133</ele>
  <time>2011-10-20T05:35:09Z</time>
  <speed>5.050000</speed>
</trkpt>
<trkpt lat="32.744949341" lon="35.034408569">
  <ele>522.395508</ele>
  <time>2011-10-20T05:35:10Z</time>
  <speed>5.680000</speed>
</trkpt>
<trkpt lat="32.744892120" lon="35.034442902">
  <ele>522.411133</ele>
  <time>2011-10-20T05:35:11Z</time>
  <speed>6.120000</speed>
</trkpt>
<trkpt lat="32.744838715" lon="35.034454346">
  <ele>521.848633</ele>
  <time>2011-10-20T05:35:12Z</time>
  <speed>5.900000</speed>
</trkpt>
<trkpt lat="32.744785309" lon="35.034473419">
  <ele>521.536133</ele>
  <time>2011-10-20T05:35:13Z</time>
  <speed>5.970000</speed>
</trkpt>
<trkpt lat="32.744728088" lon="35.034481049">
  <ele>521.301758</ele>
  <time>2011-10-20T05:35:14Z</time>
  <speed>5.980000</speed>
</trkpt>
<trkpt lat="32.744667053" lon="35.034492493">
  <ele>521.129883</ele>
  <time>2011-10-20T05:35:15Z</time>
  <speed>6.120000</speed>
</trkpt>
<trkpt lat="32.744602203" lon="35.034503937">
  <ele>520.129883</ele>
  <time>2011-10-20T05:35:16Z</time>
  <speed>6.190000</speed>
</trkpt>
<trkpt lat="32.744541168" lon="35.034519196">
  <ele>519.958008</ele>
  <time>2011-10-20T05:35:17Z</time>
  <speed>6.030000</speed>
</trkpt>
<trkpt lat="32.744487762" lon="35.034526825">
  <ele>520.083008</ele>
  <time>2011-10-20T05:35:18Z</time>
  <speed>5.040000</speed>
</trkpt>
<trkpt lat="32.744441986" lon="35.034538269">
  <ele>519.801758</ele>
  <time>2011-10-20T05:35:19Z</time>
  <speed>4.230000</speed>
</trkpt>
<trkpt lat="32.744400024" lon="35.034561157">
  <ele>519.848633</ele>
  <time>2011-10-20T05:35:20Z</time>
  <speed>2.990000</speed>
</trkpt>
<trkpt lat="32.744361877" lon="35.034576416">
  <ele>519.973633</ele>
  <time>2011-10-20T05:35:21Z</time>
  <speed>2.580000</speed>
</trkpt>
<trkpt lat="32.744327545" lon="35.034591675">
  <ele>520.192383</ele>
  <time>2011-10-20T05:35:22Z</time>
  <speed>2.000000</speed>
</trkpt>
<trkpt lat="32.744297028" lon="35.034599304">
  <ele>519.864258</ele>
  <time>2011-10-20T05:35:23Z</time>
  <speed>2.290000</speed>
</trkpt>
<trkpt lat="32.744262695" lon="35.034614563">
  <ele>519.739258</ele>
  <time>2011-10-20T05:35:24Z</time>
  <speed>2.050000</speed>
</trkpt>
<trkpt lat="32.744213104" lon="35.034626007">
  <ele>518.223633</ele>
  <time>2011-10-20T05:35:26Z</time>
  <speed>1.910000</speed>
</trkpt>
<trkpt lat="32.744178772" lon="35.034633636">
  <ele>517.176758</ele>
  <time>2011-10-20T05:35:27Z</time>
  <speed>2.030000</speed>
</trkpt>
<trkpt lat="32.744129181" lon="35.034641266">
  <ele>516.879883</ele>
  <time>2011-10-20T05:35:29Z</time>
  <speed>1.950000</speed>
</trkpt>
<trkpt lat="32.744079590" lon="35.034641266">
  <ele>516.942383</ele>
  <time>2011-10-20T05:35:31Z</time>
  <speed>2.530000</speed>
</trkpt>
<trkpt lat="32.744045258" lon="35.034637451">
  <ele>516.629883</ele>
  <time>2011-10-20T05:35:32Z</time>
  <speed>2.480000</speed>
</trkpt>
<trkpt lat="32.743991852" lon="35.034637451">
  <ele>515.426758</ele>
  <time>2011-10-20T05:35:34Z</time>
  <speed>2.960000</speed>
</trkpt>
<trkpt lat="32.743961334" lon="35.034645081">
  <ele>515.395508</ele>
  <time>2011-10-20T05:35:35Z</time>
  <speed>3.270000</speed>
</trkpt>
<trkpt lat="32.743919373" lon="35.034652710">
  <ele>515.645508</ele>
  <time>2011-10-20T05:35:36Z</time>
  <speed>4.130000</speed>
</trkpt>
<trkpt lat="32.743881226" lon="35.034664154">
  <ele>515.145508</ele>
  <time>2011-10-20T05:35:37Z</time>
  <speed>4.240000</speed>
</trkpt>
<trkpt lat="32.743846893" lon="35.034675598">
  <ele>515.254883</ele>
  <time>2011-10-20T05:35:38Z</time>
  <speed>3.820000</speed>
</trkpt>
<trkpt lat="32.743801117" lon="35.034698486">
  <ele>513.801758</ele>
  <time>2011-10-20T05:35:39Z</time>
  <speed>5.370000</speed>
</trkpt>
<trkpt lat="32.743747711" lon="35.034725189">
  <ele>513.192383</ele>
  <time>2011-10-20T05:35:40Z</time>
  <speed>5.930000</speed>
</trkpt>
<trkpt lat="32.743698120" lon="35.034751892">
  <ele>512.098633</ele>
  <time>2011-10-20T05:35:41Z</time>
  <speed>5.680000</speed>
</trkpt>
<trkpt lat="32.743648529" lon="35.034774780">
  <ele>511.330566</ele>
  <time>2011-10-20T05:35:42Z</time>
  <speed>5.940000</speed>
</trkpt>
<trkpt lat="32.743591309" lon="35.034812927">
  <ele>510.822754</ele>
  <time>2011-10-20T05:35:43Z</time>
  <speed>6.460000</speed>
</trkpt>
<trkpt lat="32.743537903" lon="35.034858704">
  <ele>510.408691</ele>
  <time>2011-10-20T05:35:44Z</time>
  <speed>6.540000</speed>
</trkpt>
<trkpt lat="32.743492126" lon="35.034904480">
  <ele>510.119629</ele>
  <time>2011-10-20T05:35:45Z</time>
  <speed>6.980000</speed>
</trkpt>
<trkpt lat="32.743438721" lon="35.034946442">
  <ele>508.244629</ele>
  <time>2011-10-20T05:35:46Z</time>
  <speed>6.800000</speed>
</trkpt>
<trkpt lat="32.743389130" lon="35.034988403">
  <ele>506.752441</ele>
  <time>2011-10-20T05:35:47Z</time>
  <speed>6.160000</speed>
</trkpt>
<trkpt lat="32.743343353" lon="35.035022736">
  <ele>507.416504</ele>
  <time>2011-10-20T05:35:48Z</time>
  <speed>5.370000</speed>
</trkpt>
<trkpt lat="32.743297577" lon="35.035045624">
  <ele>507.291504</ele>
  <time>2011-10-20T05:35:49Z</time>
  <speed>5.230000</speed>
</trkpt>
<trkpt lat="32.743255615" lon="35.035076141">
  <ele>507.088379</ele>
  <time>2011-10-20T05:35:50Z</time>
  <speed>5.290000</speed>
</trkpt>
<trkpt lat="32.743221283" lon="35.035106659">
  <ele>507.471191</ele>
  <time>2011-10-20T05:35:51Z</time>
  <speed>5.380000</speed>
</trkpt>
<trkpt lat="32.743179321" lon="35.035140991">
  <ele>507.455566</ele>
  <time>2011-10-20T05:35:52Z</time>
  <speed>5.280000</speed>
</trkpt>
<trkpt lat="32.743141174" lon="35.035160065">
  <ele>507.877441</ele>
  <time>2011-10-20T05:35:53Z</time>
  <speed>4.420000</speed>
</trkpt>
<trkpt lat="32.743110657" lon="35.035175323">
  <ele>508.439941</ele>
  <time>2011-10-20T05:35:54Z</time>
  <speed>3.470000</speed>
</trkpt>
<trkpt lat="32.743083954" lon="35.035186768">
  <ele>508.189941</ele>
  <time>2011-10-20T05:35:55Z</time>
  <speed>3.020000</speed>
</trkpt>
<trkpt lat="32.743034363" lon="35.035213470">
  <ele>509.572754</ele>
  <time>2011-10-20T05:35:57Z</time>
  <speed>1.280000</speed>
</trkpt>
<trkpt lat="32.743019104" lon="35.035247803">
  <ele>510.479004</ele>
  <time>2011-10-20T05:35:59Z</time>
  <speed>1.520000</speed>
</trkpt>
<trkpt lat="32.742996216" lon="35.035285950">
  <ele>512.051758</ele>
  <time>2011-10-20T05:36:01Z</time>
  <speed>2.310000</speed>
</trkpt>
<trkpt lat="32.742973328" lon="35.035335541">
  <ele>512.036133</ele>
  <time>2011-10-20T05:36:03Z</time>
  <speed>2.710000</speed>
</trkpt>
<trkpt lat="32.742958069" lon="35.035366058">
  <ele>512.083008</ele>
  <time>2011-10-20T05:36:04Z</time>
  <speed>3.380000</speed>
</trkpt>
<trkpt lat="32.742938995" lon="35.035396576">
  <ele>512.895508</ele>
  <time>2011-10-20T05:36:05Z</time>
  <speed>3.270000</speed>
</trkpt>
<trkpt lat="32.742923737" lon="35.035427094">
  <ele>513.036133</ele>
  <time>2011-10-20T05:36:06Z</time>
  <speed>3.260000</speed>
</trkpt>
<trkpt lat="32.742904663" lon="35.035461426">
  <ele>514.473633</ele>
  <time>2011-10-20T05:36:07Z</time>
  <speed>2.880000</speed>
</trkpt>
<trkpt lat="32.742866516" lon="35.035491943">
  <ele>514.864258</ele>
  <time>2011-10-20T05:36:09Z</time>
  <speed>2.500000</speed>
</trkpt>
<trkpt lat="32.742828369" lon="35.035518646">
  <ele>514.833008</ele>
  <time>2011-10-20T05:36:11Z</time>
  <speed>2.290000</speed>
</trkpt>
<trkpt lat="32.742790222" lon="35.035545349">
  <ele>514.895508</ele>
  <time>2011-10-20T05:36:13Z</time>
  <speed>2.620000</speed>
</trkpt>
<trkpt lat="32.742752075" lon="35.035568237">
  <ele>514.770508</ele>
  <time>2011-10-20T05:36:15Z</time>
  <speed>2.660000</speed>
</trkpt>
<trkpt lat="32.742721558" lon="35.035579681">
  <ele>515.004883</ele>
  <time>2011-10-20T05:36:16Z</time>
  <speed>3.020000</speed>
</trkpt>
<trkpt lat="32.742698669" lon="35.035594940">
  <ele>513.770508</ele>
  <time>2011-10-20T05:36:17Z</time>
  <speed>3.210000</speed>
</trkpt>
<trkpt lat="32.742671967" lon="35.035606384">
  <ele>513.567383</ele>
  <time>2011-10-20T05:36:18Z</time>
  <speed>2.820000</speed>
</trkpt>
<trkpt lat="32.742649078" lon="35.035625458">
  <ele>513.629883</ele>
  <time>2011-10-20T05:36:19Z</time>
  <speed>2.860000</speed>
</trkpt>
<trkpt lat="32.742626190" lon="35.035648346">
  <ele>512.567383</ele>
  <time>2011-10-20T05:36:20Z</time>
  <speed>3.430000</speed>
</trkpt>
<trkpt lat="32.742603302" lon="35.035667419">
  <ele>512.051758</ele>
  <time>2011-10-20T05:36:21Z</time>
  <speed>3.130000</speed>
</trkpt>
<trkpt lat="32.742576599" lon="35.035686493">
  <ele>511.939941</ele>
  <time>2011-10-20T05:36:22Z</time>
  <speed>3.150000</speed>
</trkpt>
<trkpt lat="32.742546082" lon="35.035701752">
  <ele>511.838379</ele>
  <time>2011-10-20T05:36:23Z</time>
  <speed>3.400000</speed>
</trkpt>
<trkpt lat="32.742519379" lon="35.035717010">
  <ele>512.161133</ele>
  <time>2011-10-20T05:36:24Z</time>
  <speed>3.510000</speed>
</trkpt>
<trkpt lat="32.742488861" lon="35.035732269">
  <ele>512.567383</ele>
  <time>2011-10-20T05:36:25Z</time>
  <speed>3.530000</speed>
</trkpt>
<trkpt lat="32.742462158" lon="35.035743713">
  <ele>511.408691</ele>
  <time>2011-10-20T05:36:26Z</time>
  <speed>3.760000</speed>
</trkpt>
<trkpt lat="32.742431641" lon="35.035758972">
  <ele>511.096191</ele>
  <time>2011-10-20T05:36:27Z</time>
  <speed>3.620000</speed>
</trkpt>
<trkpt lat="32.742397308" lon="35.035774231">
  <ele>511.939941</ele>
  <time>2011-10-20T05:36:28Z</time>
  <speed>3.850000</speed>
</trkpt>
<trkpt lat="32.742362976" lon="35.035785675">
  <ele>511.330566</ele>
  <time>2011-10-20T05:36:29Z</time>
  <speed>3.850000</speed>
</trkpt>
<trkpt lat="32.742328644" lon="35.035800934">
  <ele>511.416504</ele>
  <time>2011-10-20T05:36:30Z</time>
  <speed>4.090000</speed>
</trkpt>
<trkpt lat="32.742294312" lon="35.035816193">
  <ele>512.317383</ele>
  <time>2011-10-20T05:36:31Z</time>
  <speed>3.940000</speed>
</trkpt>
<trkpt lat="32.742259979" lon="35.035831451">
  <ele>511.611816</ele>
  <time>2011-10-20T05:36:32Z</time>
  <speed>4.100000</speed>
</trkpt>
<trkpt lat="32.742221832" lon="35.035846710">
  <ele>512.520508</ele>
  <time>2011-10-20T05:36:33Z</time>
  <speed>3.780000</speed>
</trkpt>
<trkpt lat="32.742191315" lon="35.035861969">
  <ele>511.666504</ele>
  <time>2011-10-20T05:36:34Z</time>
  <speed>3.770000</speed>
</trkpt>
<trkpt lat="32.742160797" lon="35.035873413">
  <ele>512.286133</ele>
  <time>2011-10-20T05:36:35Z</time>
  <speed>3.110000</speed>
</trkpt>
<trkpt lat="32.742137909" lon="35.035888672">
  <ele>512.786133</ele>
  <time>2011-10-20T05:36:36Z</time>
  <speed>3.000000</speed>
</trkpt>
<trkpt lat="32.742115021" lon="35.035907745">
  <ele>512.333008</ele>
  <time>2011-10-20T05:36:37Z</time>
  <speed>3.360000</speed>
</trkpt>
<trkpt lat="32.742084503" lon="35.035926819">
  <ele>511.697754</ele>
  <time>2011-10-20T05:36:38Z</time>
  <speed>3.810000</speed>
</trkpt>
<trkpt lat="32.742046356" lon="35.035953522">
  <ele>512.567383</ele>
  <time>2011-10-20T05:36:39Z</time>
  <speed>4.280000</speed>
</trkpt>
<trkpt lat="32.742012024" lon="35.035976410">
  <ele>512.473633</ele>
  <time>2011-10-20T05:36:40Z</time>
  <speed>4.530000</speed>
</trkpt>
<trkpt lat="32.741977692" lon="35.036006927">
  <ele>512.692383</ele>
  <time>2011-10-20T05:36:41Z</time>
  <speed>4.670000</speed>
</trkpt>
<trkpt lat="32.741943359" lon="35.036033630">
  <ele>511.143066</ele>
  <time>2011-10-20T05:36:42Z</time>
  <speed>4.700000</speed>
</trkpt>
<trkpt lat="32.741909027" lon="35.036064148">
  <ele>511.971191</ele>
  <time>2011-10-20T05:36:43Z</time>
  <speed>4.960000</speed>
</trkpt>
<trkpt lat="32.741878510" lon="35.036102295">
  <ele>513.020508</ele>
  <time>2011-10-20T05:36:44Z</time>
  <speed>5.010000</speed>
</trkpt>
<trkpt lat="32.741851807" lon="35.036144257">
  <ele>512.833008</ele>
  <time>2011-10-20T05:36:45Z</time>
  <speed>4.450000</speed>
</trkpt>
<trkpt lat="32.741828918" lon="35.036182404">
  <ele>513.083008</ele>
  <time>2011-10-20T05:36:46Z</time>
  <speed>4.500000</speed>
</trkpt>
<trkpt lat="32.741809845" lon="35.036216736">
  <ele>513.254883</ele>
  <time>2011-10-20T05:36:47Z</time>
  <speed>4.060000</speed>
</trkpt>
<trkpt lat="32.741790771" lon="35.036258698">
  <ele>512.848633</ele>
  <time>2011-10-20T05:36:48Z</time>
  <speed>4.140000</speed>
</trkpt>
<trkpt lat="32.741779327" lon="35.036296844">
  <ele>511.221191</ele>
  <time>2011-10-20T05:36:49Z</time>
  <speed>3.900000</speed>
</trkpt>
<trkpt lat="32.741756439" lon="35.036327362">
  <ele>511.346191</ele>
  <time>2011-10-20T05:36:50Z</time>
  <speed>4.100000</speed>
</trkpt>
<trkpt lat="32.741733551" lon="35.036365509">
  <ele>511.596191</ele>
  <time>2011-10-20T05:36:51Z</time>
  <speed>3.910000</speed>
</trkpt>
<trkpt lat="32.741714478" lon="35.036396027">
  <ele>511.143066</ele>
  <time>2011-10-20T05:36:52Z</time>
  <speed>3.890000</speed>
</trkpt>
<trkpt lat="32.741691589" lon="35.036422729">
  <ele>510.268066</ele>
  <time>2011-10-20T05:36:53Z</time>
  <speed>3.910000</speed>
</trkpt>
<trkpt lat="32.741672516" lon="35.036457062">
  <ele>510.455566</ele>
  <time>2011-10-20T05:36:54Z</time>
  <speed>3.980000</speed>
</trkpt>
<trkpt lat="32.741657257" lon="35.036499023">
  <ele>510.455566</ele>
  <time>2011-10-20T05:36:55Z</time>
  <speed>3.610000</speed>
</trkpt>
<trkpt lat="32.741649628" lon="35.036537170">
  <ele>509.361816</ele>
  <time>2011-10-20T05:36:56Z</time>
  <speed>3.880000</speed>
</trkpt>
<trkpt lat="32.741630554" lon="35.036567688">
  <ele>509.072754</ele>
  <time>2011-10-20T05:36:57Z</time>
  <speed>3.310000</speed>
</trkpt>
<trkpt lat="32.741619110" lon="35.036602020">
  <ele>508.447754</ele>
  <time>2011-10-20T05:36:58Z</time>
  <speed>3.290000</speed>
</trkpt>
<trkpt lat="32.741596222" lon="35.036628723">
  <ele>507.674316</ele>
  <time>2011-10-20T05:36:59Z</time>
  <speed>2.820000</speed>
</trkpt>
<trkpt lat="32.741569519" lon="35.036647797">
  <ele>506.877441</ele>
  <time>2011-10-20T05:37:00Z</time>
  <speed>3.260000</speed>
</trkpt>
<trkpt lat="32.741542816" lon="35.036663055">
  <ele>506.166504</ele>
  <time>2011-10-20T05:37:01Z</time>
  <speed>3.360000</speed>
</trkpt>
<trkpt lat="32.741512299" lon="35.036674500">
  <ele>505.908691</ele>
  <time>2011-10-20T05:37:02Z</time>
  <speed>3.370000</speed>
</trkpt>
<trkpt lat="32.741477966" lon="35.036701202">
  <ele>505.932129</ele>
  <time>2011-10-20T05:37:03Z</time>
  <speed>3.790000</speed>
</trkpt>
<trkpt lat="32.741451263" lon="35.036724091">
  <ele>505.307129</ele>
  <time>2011-10-20T05:37:04Z</time>
  <speed>3.670000</speed>
</trkpt>
<trkpt lat="32.741420746" lon="35.036750793">
  <ele>504.760254</ele>
  <time>2011-10-20T05:37:05Z</time>
  <speed>3.640000</speed>
</trkpt>
<trkpt lat="32.741397858" lon="35.036766052">
  <ele>503.674316</ele>
  <time>2011-10-20T05:37:06Z</time>
  <speed>3.120000</speed>
</trkpt>
<trkpt lat="32.741371155" lon="35.036785126">
  <ele>502.947754</ele>
  <time>2011-10-20T05:37:07Z</time>
  <speed>3.190000</speed>
</trkpt>
<trkpt lat="32.741348267" lon="35.036804199">
  <ele>502.361816</ele>
  <time>2011-10-20T05:37:08Z</time>
  <speed>3.230000</speed>
</trkpt>
<trkpt lat="32.741321564" lon="35.036827087">
  <ele>502.385254</ele>
  <time>2011-10-20T05:37:09Z</time>
  <speed>3.370000</speed>
</trkpt>
<trkpt lat="32.741291046" lon="35.036849976">
  <ele>502.010254</ele>
  <time>2011-10-20T05:37:10Z</time>
  <speed>3.200000</speed>
</trkpt>
<trkpt lat="32.741260529" lon="35.036872864">
  <ele>501.814941</ele>
  <time>2011-10-20T05:37:11Z</time>
  <speed>3.250000</speed>
</trkpt>
<trkpt lat="32.741233826" lon="35.036895752">
  <ele>501.564941</ele>
  <time>2011-10-20T05:37:12Z</time>
  <speed>3.290000</speed>
</trkpt>
<trkpt lat="32.741207123" lon="35.036914825">
  <ele>501.463379</ele>
  <time>2011-10-20T05:37:13Z</time>
  <speed>3.310000</speed>
</trkpt>
<trkpt lat="32.741176605" lon="35.036937714">
  <ele>501.893066</ele>
  <time>2011-10-20T05:37:14Z</time>
  <speed>3.660000</speed>
</trkpt>
<trkpt lat="32.741134644" lon="35.036968231">
  <ele>505.322754</ele>
  <time>2011-10-20T05:37:15Z</time>
  <speed>3.910000</speed>
</trkpt>
<trkpt lat="32.741100311" lon="35.036991119">
  <ele>506.822754</ele>
  <time>2011-10-20T05:37:16Z</time>
  <speed>3.850000</speed>
</trkpt>
<trkpt lat="32.741062164" lon="35.037025452">
  <ele>510.877441</ele>
  <time>2011-10-20T05:37:17Z</time>
  <speed>4.010000</speed>
</trkpt>
<trkpt lat="32.741031647" lon="35.037055969">
  <ele>512.067383</ele>
  <time>2011-10-20T05:37:18Z</time>
  <speed>3.900000</speed>
</trkpt>
<trkpt lat="32.741001129" lon="35.037082672">
  <ele>512.583008</ele>
  <time>2011-10-20T05:37:19Z</time>
  <speed>4.340000</speed>
</trkpt>
<trkpt lat="32.740970612" lon="35.037113190">
  <ele>512.379883</ele>
  <time>2011-10-20T05:37:20Z</time>
  <speed>4.400000</speed>
</trkpt>
<trkpt lat="32.740936279" lon="35.037143707">
  <ele>514.520508</ele>
  <time>2011-10-20T05:37:21Z</time>
  <speed>4.070000</speed>
</trkpt>
<trkpt lat="32.740917206" lon="35.037166595">
  <ele>514.333008</ele>
  <time>2011-10-20T05:37:22Z</time>
  <speed>3.710000</speed>
</trkpt>
<trkpt lat="32.740890503" lon="35.037185669">
  <ele>514.723633</ele>
  <time>2011-10-20T05:37:23Z</time>
  <speed>3.540000</speed>
</trkpt>
<trkpt lat="32.740856171" lon="35.037204742">
  <ele>515.036133</ele>
  <time>2011-10-20T05:37:24Z</time>
  <speed>3.750000</speed>
</trkpt>
<trkpt lat="32.740821838" lon="35.037216187">
  <ele>515.817383</ele>
  <time>2011-10-20T05:37:25Z</time>
  <speed>3.400000</speed>
</trkpt>
<trkpt lat="32.740795135" lon="35.037223816">
  <ele>515.458008</ele>
  <time>2011-10-20T05:37:26Z</time>
  <speed>2.930000</speed>
</trkpt>
<trkpt lat="32.740772247" lon="35.037227631">
  <ele>514.536133</ele>
  <time>2011-10-20T05:37:27Z</time>
  <speed>3.000000</speed>
</trkpt>
<trkpt lat="32.740718842" lon="35.037231445">
  <ele>514.239258</ele>
  <time>2011-10-20T05:37:29Z</time>
  <speed>3.020000</speed>
</trkpt>
<trkpt lat="32.740692139" lon="35.037223816">
  <ele>514.348633</ele>
  <time>2011-10-20T05:37:30Z</time>
  <speed>2.750000</speed>
</trkpt>
<trkpt lat="32.740653992" lon="35.037193298">
  <ele>516.536133</ele>
  <time>2011-10-20T05:37:32Z</time>
  <speed>2.510000</speed>
</trkpt>
<trkpt lat="32.740627289" lon="35.037181854">
  <ele>517.379883</ele>
  <time>2011-10-20T05:37:33Z</time>
  <speed>2.490000</speed>
</trkpt>
<trkpt lat="32.740600586" lon="35.037189484">
  <ele>518.348633</ele>
  <time>2011-10-20T05:37:34Z</time>
  <speed>2.510000</speed>
</trkpt>
<trkpt lat="32.740573883" lon="35.037197113">
  <ele>518.551758</ele>
  <time>2011-10-20T05:37:35Z</time>
  <speed>3.330000</speed>
</trkpt>
<trkpt lat="32.740539551" lon="35.037208557">
  <ele>517.879883</ele>
  <time>2011-10-20T05:37:36Z</time>
  <speed>3.400000</speed>
</trkpt>
<trkpt lat="32.740509033" lon="35.037212372">
  <ele>517.348633</ele>
  <time>2011-10-20T05:37:37Z</time>
  <speed>3.660000</speed>
</trkpt>
<trkpt lat="32.740474701" lon="35.037220001">
  <ele>517.911133</ele>
  <time>2011-10-20T05:37:38Z</time>
  <speed>3.510000</speed>
</trkpt>
<trkpt lat="32.740440369" lon="35.037227631">
  <ele>518.051758</ele>
  <time>2011-10-20T05:37:39Z</time>
  <speed>3.380000</speed>
</trkpt>
<trkpt lat="32.740406036" lon="35.037239075">
  <ele>519.989258</ele>
  <time>2011-10-20T05:37:40Z</time>
  <speed>3.360000</speed>
</trkpt>
<trkpt lat="32.740375519" lon="35.037239075">
  <ele>520.723633</ele>
  <time>2011-10-20T05:37:41Z</time>
  <speed>3.010000</speed>
</trkpt>
<trkpt lat="32.740348816" lon="35.037246704">
  <ele>520.254883</ele>
  <time>2011-10-20T05:37:42Z</time>
  <speed>2.870000</speed>
</trkpt>
<trkpt lat="32.740322113" lon="35.037254333">
  <ele>520.083008</ele>
  <time>2011-10-20T05:37:43Z</time>
  <speed>2.610000</speed>
</trkpt>
<trkpt lat="32.740276337" lon="35.037258148">
  <ele>520.567383</ele>
  <time>2011-10-20T05:37:45Z</time>
  <speed>1.960000</speed>
</trkpt>
<trkpt lat="32.740242004" lon="35.037246704">
  <ele>520.848633</ele>
  <time>2011-10-20T05:37:47Z</time>
  <speed>2.040000</speed>
</trkpt>
<trkpt lat="32.740207672" lon="35.037220001">
  <ele>520.223633</ele>
  <time>2011-10-20T05:37:49Z</time>
  <speed>3.110000</speed>
</trkpt>
<trkpt lat="32.740188599" lon="35.037193298">
  <ele>519.661133</ele>
  <time>2011-10-20T05:37:50Z</time>
  <speed>3.830000</speed>
</trkpt>
<trkpt lat="32.740154266" lon="35.037166595">
  <ele>519.301758</ele>
  <time>2011-10-20T05:37:51Z</time>
  <speed>4.590000</speed>
</trkpt>
<trkpt lat="32.740119934" lon="35.037143707">
  <ele>519.458008</ele>
  <time>2011-10-20T05:37:52Z</time>
  <speed>4.870000</speed>
</trkpt>
<trkpt lat="32.740077972" lon="35.037113190">
  <ele>519.067383</ele>
  <time>2011-10-20T05:37:53Z</time>
  <speed>5.380000</speed>
</trkpt>
<trkpt lat="32.740036011" lon="35.037105560">
  <ele>519.879883</ele>
  <time>2011-10-20T05:37:54Z</time>
  <speed>4.350000</speed>
</trkpt>
<trkpt lat="32.739994049" lon="35.037101746">
  <ele>518.817383</ele>
  <time>2011-10-20T05:37:55Z</time>
  <speed>4.420000</speed>
</trkpt>
<trkpt lat="32.739955902" lon="35.037094116">
  <ele>518.098633</ele>
  <time>2011-10-20T05:37:56Z</time>
  <speed>4.390000</speed>
</trkpt>
<trkpt lat="32.739913940" lon="35.037090302">
  <ele>517.895508</ele>
  <time>2011-10-20T05:37:57Z</time>
  <speed>4.550000</speed>
</trkpt>
<trkpt lat="32.739868164" lon="35.037086487">
  <ele>516.958008</ele>
  <time>2011-10-20T05:37:58Z</time>
  <speed>4.880000</speed>
</trkpt>
<trkpt lat="32.739822388" lon="35.037094116">
  <ele>516.583008</ele>
  <time>2011-10-20T05:37:59Z</time>
  <speed>4.830000</speed>
</trkpt>
<trkpt lat="32.739776611" lon="35.037097931">
  <ele>516.364258</ele>
  <time>2011-10-20T05:38:00Z</time>
  <speed>4.680000</speed>
</trkpt>
<trkpt lat="32.739734650" lon="35.037090302">
  <ele>515.067383</ele>
  <time>2011-10-20T05:38:01Z</time>
  <speed>4.670000</speed>
</trkpt>
<trkpt lat="32.739696503" lon="35.037067413">
  <ele>513.333008</ele>
  <time>2011-10-20T05:38:02Z</time>
  <speed>5.090000</speed>
</trkpt>
<trkpt lat="32.739654541" lon="35.037036896">
  <ele>510.799316</ele>
  <time>2011-10-20T05:38:03Z</time>
  <speed>5.380000</speed>
</trkpt>
<trkpt lat="32.739608765" lon="35.037017822">
  <ele>510.729004</ele>
  <time>2011-10-20T05:38:04Z</time>
  <speed>5.320000</speed>
</trkpt>
<trkpt lat="32.739562988" lon="35.037006378">
  <ele>511.510254</ele>
  <time>2011-10-20T05:38:05Z</time>
  <speed>4.890000</speed>
</trkpt>
<trkpt lat="32.739517212" lon="35.037002563">
  <ele>510.494629</ele>
  <time>2011-10-20T05:38:06Z</time>
  <speed>5.140000</speed>
</trkpt>
<trkpt lat="32.739471436" lon="35.036998749">
  <ele>509.127441</ele>
  <time>2011-10-20T05:38:07Z</time>
  <speed>4.790000</speed>
</trkpt>
<trkpt lat="32.739421844" lon="35.036994934">
  <ele>507.924316</ele>
  <time>2011-10-20T05:38:08Z</time>
  <speed>5.190000</speed>
</trkpt>
<trkpt lat="32.739372253" lon="35.036987305">
  <ele>506.611816</ele>
  <time>2011-10-20T05:38:09Z</time>
  <speed>5.200000</speed>
</trkpt>
<trkpt lat="32.739330292" lon="35.036979675">
  <ele>505.893066</ele>
  <time>2011-10-20T05:38:10Z</time>
  <speed>4.880000</speed>
</trkpt>
<trkpt lat="32.739295959" lon="35.036952972">
  <ele>505.189941</ele>
  <time>2011-10-20T05:38:11Z</time>
  <speed>4.770000</speed>
</trkpt>
<trkpt lat="32.739265442" lon="35.036926270">
  <ele>504.479004</ele>
  <time>2011-10-20T05:38:12Z</time>
  <speed>3.610000</speed>
</trkpt>
<trkpt lat="32.739250183" lon="35.036895752">
  <ele>503.908691</ele>
  <time>2011-10-20T05:38:13Z</time>
  <speed>3.400000</speed>
</trkpt>
<trkpt lat="32.739234924" lon="35.036861420">
  <ele>503.385254</ele>
  <time>2011-10-20T05:38:14Z</time>
  <speed>2.570000</speed>
</trkpt>
<trkpt lat="32.739212036" lon="35.036830902">
  <ele>504.736816</ele>
  <time>2011-10-20T05:38:16Z</time>
  <speed>1.550000</speed>
</trkpt>
<trkpt lat="32.739170074" lon="35.036838531">
  <ele>504.783691</ele>
  <time>2011-10-20T05:38:18Z</time>
  <speed>2.750000</speed>
</trkpt>
<trkpt lat="32.739116669" lon="35.036857605">
  <ele>504.627441</ele>
  <time>2011-10-20T05:38:20Z</time>
  <speed>3.110000</speed>
</trkpt>
<trkpt lat="32.739089966" lon="35.036857605">
  <ele>503.791504</ele>
  <time>2011-10-20T05:38:21Z</time>
  <speed>3.730000</speed>
</trkpt>
<trkpt lat="32.739048004" lon="35.036849976">
  <ele>502.658691</ele>
  <time>2011-10-20T05:38:22Z</time>
  <speed>5.190000</speed>
</trkpt>
<trkpt lat="32.738998413" lon="35.036842346">
  <ele>502.330566</ele>
  <time>2011-10-20T05:38:23Z</time>
  <speed>5.380000</speed>
</trkpt>
<trkpt lat="32.738948822" lon="35.036834717">
  <ele>501.314941</ele>
  <time>2011-10-20T05:38:24Z</time>
  <speed>5.720000</speed>
</trkpt>
<trkpt lat="32.738895416" lon="35.036823273">
  <ele>500.611816</ele>
  <time>2011-10-20T05:38:25Z</time>
  <speed>6.200000</speed>
</trkpt>
<trkpt lat="32.738838196" lon="35.036808014">
  <ele>500.057129</ele>
  <time>2011-10-20T05:38:26Z</time>
  <speed>6.220000</speed>
</trkpt>
<trkpt lat="32.738777161" lon="35.036796570">
  <ele>498.775879</ele>
  <time>2011-10-20T05:38:27Z</time>
  <speed>6.640000</speed>
</trkpt>
<trkpt lat="32.738719940" lon="35.036781311">
  <ele>498.510254</ele>
  <time>2011-10-20T05:38:28Z</time>
  <speed>6.610000</speed>
</trkpt>
<trkpt lat="32.738662720" lon="35.036769867">
  <ele>497.799316</ele>
  <time>2011-10-20T05:38:29Z</time>
  <speed>6.530000</speed>
</trkpt>
<trkpt lat="32.738601685" lon="35.036769867">
  <ele>497.275879</ele>
  <time>2011-10-20T05:38:30Z</time>
  <speed>6.380000</speed>
</trkpt>
<trkpt lat="32.738548279" lon="35.036788940">
  <ele>494.729004</ele>
  <time>2011-10-20T05:38:31Z</time>
  <speed>6.800000</speed>
</trkpt>
<trkpt lat="32.738487244" lon="35.036804199">
  <ele>493.080566</ele>
  <time>2011-10-20T05:38:32Z</time>
  <speed>7.140000</speed>
</trkpt>
<trkpt lat="32.738418579" lon="35.036823273">
  <ele>491.439941</ele>
  <time>2011-10-20T05:38:33Z</time>
  <speed>7.420000</speed>
</trkpt>
<trkpt lat="32.738349915" lon="35.036838531">
  <ele>490.447754</ele>
  <time>2011-10-20T05:38:34Z</time>
  <speed>7.700000</speed>
</trkpt>
<trkpt lat="32.738281250" lon="35.036846161">
  <ele>489.197754</ele>
  <time>2011-10-20T05:38:35Z</time>
  <speed>7.520000</speed>
</trkpt>
<trkpt lat="32.738212585" lon="35.036853790">
  <ele>488.463379</ele>
  <time>2011-10-20T05:38:36Z</time>
  <speed>7.690000</speed>
</trkpt>
<trkpt lat="32.738140106" lon="35.036857605">
  <ele>487.807129</ele>
  <time>2011-10-20T05:38:37Z</time>
  <speed>7.480000</speed>
</trkpt>
<trkpt lat="32.738067627" lon="35.036865234">
  <ele>488.424316</ele>
  <time>2011-10-20T05:38:38Z</time>
  <speed>7.220000</speed>
</trkpt>
<trkpt lat="32.738002777" lon="35.036869049">
  <ele>487.893066</ele>
  <time>2011-10-20T05:38:39Z</time>
  <speed>7.260000</speed>
</trkpt>
<trkpt lat="32.737934113" lon="35.036869049">
  <ele>488.471191</ele>
  <time>2011-10-20T05:38:40Z</time>
  <speed>7.220000</speed>
</trkpt>
<trkpt lat="32.737873077" lon="35.036865234">
  <ele>488.580566</ele>
  <time>2011-10-20T05:38:41Z</time>
  <speed>6.980000</speed>
</trkpt>
<trkpt lat="32.737819672" lon="35.036846161">
  <ele>488.549316</ele>
  <time>2011-10-20T05:38:42Z</time>
  <speed>5.830000</speed>
</trkpt>
<trkpt lat="32.737785339" lon="35.036815643">
  <ele>486.432129</ele>
  <time>2011-10-20T05:38:43Z</time>
  <speed>4.460000</speed>
</trkpt>
<trkpt lat="32.737754822" lon="35.036796570">
  <ele>485.299316</ele>
  <time>2011-10-20T05:38:44Z</time>
  <speed>4.010000</speed>
</trkpt>
<trkpt lat="32.737720490" lon="35.036785126">
  <ele>485.057129</ele>
  <time>2011-10-20T05:38:45Z</time>
  <speed>3.810000</speed>
</trkpt>
<trkpt lat="32.737682343" lon="35.036792755">
  <ele>484.369629</ele>
  <time>2011-10-20T05:38:46Z</time>
  <speed>4.180000</speed>
</trkpt>
<trkpt lat="32.737644196" lon="35.036808014">
  <ele>483.322754</ele>
  <time>2011-10-20T05:38:47Z</time>
  <speed>4.920000</speed>
</trkpt>
<trkpt lat="32.737602234" lon="35.036823273">
  <ele>482.877441</ele>
  <time>2011-10-20T05:38:48Z</time>
  <speed>4.660000</speed>
</trkpt>
<trkpt lat="32.737560272" lon="35.036827087">
  <ele>482.541504</ele>
  <time>2011-10-20T05:38:49Z</time>
  <speed>4.610000</speed>
</trkpt>
<trkpt lat="32.737514496" lon="35.036815643">
  <ele>481.947754</ele>
  <time>2011-10-20T05:38:50Z</time>
  <speed>5.260000</speed>
</trkpt>
<trkpt lat="32.737468719" lon="35.036811829">
  <ele>481.604004</ele>
  <time>2011-10-20T05:38:51Z</time>
  <speed>4.720000</speed>
</trkpt>
<trkpt lat="32.737426758" lon="35.036811829">
  <ele>480.752441</ele>
  <time>2011-10-20T05:38:52Z</time>
  <speed>4.780000</speed>
</trkpt>
<trkpt lat="32.737380981" lon="35.036808014">
  <ele>480.932129</ele>
  <time>2011-10-20T05:38:53Z</time>
  <speed>4.890000</speed>
</trkpt>
<trkpt lat="32.737331390" lon="35.036811829">
  <ele>481.088379</ele>
  <time>2011-10-20T05:38:54Z</time>
  <speed>5.390000</speed>
</trkpt>
<trkpt lat="32.737281799" lon="35.036811829">
  <ele>480.650879</ele>
  <time>2011-10-20T05:38:55Z</time>
  <speed>5.510000</speed>
</trkpt>
<trkpt lat="32.737224579" lon="35.036808014">
  <ele>480.643066</ele>
  <time>2011-10-20T05:38:56Z</time>
  <speed>5.520000</speed>
</trkpt>
<trkpt lat="32.737174988" lon="35.036808014">
  <ele>480.666504</ele>
  <time>2011-10-20T05:38:57Z</time>
  <speed>5.350000</speed>
</trkpt>
<trkpt lat="32.737125397" lon="35.036800385">
  <ele>481.541504</ele>
  <time>2011-10-20T05:38:58Z</time>
  <speed>5.310000</speed>
</trkpt>
<trkpt lat="32.737071991" lon="35.036804199">
  <ele>482.330566</ele>
  <time>2011-10-20T05:38:59Z</time>
  <speed>5.200000</speed>
</trkpt>
<trkpt lat="32.737030029" lon="35.036796570">
  <ele>481.760254</ele>
  <time>2011-10-20T05:39:00Z</time>
  <speed>4.910000</speed>
</trkpt>
<trkpt lat="32.736984253" lon="35.036796570">
  <ele>481.682129</ele>
  <time>2011-10-20T05:39:01Z</time>
  <speed>5.310000</speed>
</trkpt>
<trkpt lat="32.736934662" lon="35.036792755">
  <ele>482.064941</ele>
  <time>2011-10-20T05:39:02Z</time>
  <speed>5.530000</speed>
</trkpt>
<trkpt lat="32.736885071" lon="35.036788940">
  <ele>481.354004</ele>
  <time>2011-10-20T05:39:03Z</time>
  <speed>5.980000</speed>
</trkpt>
<trkpt lat="32.736827850" lon="35.036785126">
  <ele>481.064941</ele>
  <time>2011-10-20T05:39:04Z</time>
  <speed>5.770000</speed>
</trkpt>
<trkpt lat="32.736774445" lon="35.036769867">
  <ele>481.330566</ele>
  <time>2011-10-20T05:39:05Z</time>
  <speed>6.270000</speed>
</trkpt>
<trkpt lat="32.736721039" lon="35.036754608">
  <ele>481.393066</ele>
  <time>2011-10-20T05:39:06Z</time>
  <speed>5.760000</speed>
</trkpt>
<trkpt lat="32.736671448" lon="35.036750793">
  <ele>481.041504</ele>
  <time>2011-10-20T05:39:07Z</time>
  <speed>5.320000</speed>
</trkpt>
<trkpt lat="32.736621857" lon="35.036746979">
  <ele>481.432129</ele>
  <time>2011-10-20T05:39:08Z</time>
  <speed>5.010000</speed>
</trkpt>
<trkpt lat="32.736579895" lon="35.036735535">
  <ele>481.369629</ele>
  <time>2011-10-20T05:39:09Z</time>
  <speed>4.120000</speed>
</trkpt>
<trkpt lat="32.736549377" lon="35.036724091">
  <ele>481.197754</ele>
  <time>2011-10-20T05:39:10Z</time>
  <speed>3.490000</speed>
</trkpt>
<trkpt lat="32.736495972" lon="35.036727905">
  <ele>483.838379</ele>
  <time>2011-10-20T05:39:12Z</time>
  <speed>2.510000</speed>
</trkpt>
<trkpt lat="32.736457825" lon="35.036727905">
  <ele>483.877441</ele>
  <time>2011-10-20T05:39:14Z</time>
  <speed>2.460000</speed>
</trkpt>
<trkpt lat="32.736412048" lon="35.036716461">
  <ele>484.502441</ele>
  <time>2011-10-20T05:39:16Z</time>
  <speed>2.650000</speed>
</trkpt>
<trkpt lat="32.736362457" lon="35.036708832">
  <ele>484.736816</ele>
  <time>2011-10-20T05:39:18Z</time>
  <speed>3.220000</speed>
</trkpt>
<trkpt lat="32.736328125" lon="35.036705017">
  <ele>486.182129</ele>
  <time>2011-10-20T05:39:19Z</time>
  <speed>3.680000</speed>
</trkpt>
<trkpt lat="32.736289978" lon="35.036705017">
  <ele>486.229004</ele>
  <time>2011-10-20T05:39:20Z</time>
  <speed>4.010000</speed>
</trkpt>
<trkpt lat="32.736251831" lon="35.036705017">
  <ele>486.307129</ele>
  <time>2011-10-20T05:39:21Z</time>
  <speed>4.100000</speed>
</trkpt>
<trkpt lat="32.736217499" lon="35.036708832">
  <ele>485.963379</ele>
  <time>2011-10-20T05:39:22Z</time>
  <speed>4.010000</speed>
</trkpt>
<trkpt lat="32.736179352" lon="35.036712646">
  <ele>485.510254</ele>
  <time>2011-10-20T05:39:23Z</time>
  <speed>4.360000</speed>
</trkpt>
<trkpt lat="32.736137390" lon="35.036720276">
  <ele>486.205566</ele>
  <time>2011-10-20T05:39:24Z</time>
  <speed>4.330000</speed>
</trkpt>
<trkpt lat="32.736095428" lon="35.036720276">
  <ele>487.033691</ele>
  <time>2011-10-20T05:39:25Z</time>
  <speed>4.350000</speed>
</trkpt>
<trkpt lat="32.736057281" lon="35.036720276">
  <ele>488.018066</ele>
  <time>2011-10-20T05:39:26Z</time>
  <speed>3.970000</speed>
</trkpt>
<trkpt lat="32.736022949" lon="35.036724091">
  <ele>488.635254</ele>
  <time>2011-10-20T05:39:27Z</time>
  <speed>3.840000</speed>
</trkpt>
<trkpt lat="32.735988617" lon="35.036727905">
  <ele>489.166504</ele>
  <time>2011-10-20T05:39:28Z</time>
  <speed>3.590000</speed>
</trkpt>
<trkpt lat="32.735958099" lon="35.036735535">
  <ele>490.080566</ele>
  <time>2011-10-20T05:39:29Z</time>
  <speed>3.170000</speed>
</trkpt>
<trkpt lat="32.735931396" lon="35.036743164">
  <ele>490.494629</ele>
  <time>2011-10-20T05:39:30Z</time>
  <speed>3.080000</speed>
</trkpt>
<trkpt lat="32.735900879" lon="35.036743164">
  <ele>490.971191</ele>
  <time>2011-10-20T05:39:31Z</time>
  <speed>3.190000</speed>
</trkpt>
<trkpt lat="32.735870361" lon="35.036746979">
  <ele>491.307129</ele>
  <time>2011-10-20T05:39:32Z</time>
  <speed>3.060000</speed>
</trkpt>
<trkpt lat="32.735836029" lon="35.036762238">
  <ele>493.564941</ele>
  <time>2011-10-20T05:39:33Z</time>
  <speed>3.220000</speed>
</trkpt>
<trkpt lat="32.735805511" lon="35.036766052">
  <ele>494.049316</ele>
  <time>2011-10-20T05:39:34Z</time>
  <speed>3.310000</speed>
</trkpt>
<trkpt lat="32.735778809" lon="35.036777496">
  <ele>493.385254</ele>
  <time>2011-10-20T05:39:35Z</time>
  <speed>3.110000</speed>
</trkpt>
<trkpt lat="32.735748291" lon="35.036788940">
  <ele>493.510254</ele>
  <time>2011-10-20T05:39:36Z</time>
  <speed>3.370000</speed>
</trkpt>
<trkpt lat="32.735721588" lon="35.036808014">
  <ele>494.158691</ele>
  <time>2011-10-20T05:39:37Z</time>
  <speed>3.520000</speed>
</trkpt>
<trkpt lat="32.735694885" lon="35.036823273">
  <ele>493.697754</ele>
  <time>2011-10-20T05:39:38Z</time>
  <speed>3.470000</speed>
</trkpt>
<trkpt lat="32.735671997" lon="35.036842346">
  <ele>493.010254</ele>
  <time>2011-10-20T05:39:39Z</time>
  <speed>3.140000</speed>
</trkpt>
<trkpt lat="32.735649109" lon="35.036865234">
  <ele>492.557129</ele>
  <time>2011-10-20T05:39:40Z</time>
  <speed>3.230000</speed>
</trkpt>
<trkpt lat="32.735633850" lon="35.036895752">
  <ele>492.252441</ele>
  <time>2011-10-20T05:39:41Z</time>
  <speed>2.960000</speed>
</trkpt>
<trkpt lat="32.735618591" lon="35.036922455">
  <ele>491.635254</ele>
  <time>2011-10-20T05:39:42Z</time>
  <speed>2.860000</speed>
</trkpt>
<trkpt lat="32.735603333" lon="35.036952972">
  <ele>491.791504</ele>
  <time>2011-10-20T05:39:43Z</time>
  <speed>2.770000</speed>
</trkpt>
<trkpt lat="32.735576630" lon="35.037002563">
  <ele>491.549316</ele>
  <time>2011-10-20T05:39:45Z</time>
  <speed>2.760000</speed>
</trkpt>
<trkpt lat="32.735546112" lon="35.037059784">
  <ele>490.908691</ele>
  <time>2011-10-20T05:39:47Z</time>
  <speed>2.950000</speed>
</trkpt>
<trkpt lat="32.735530853" lon="35.037086487">
  <ele>491.447754</ele>
  <time>2011-10-20T05:39:48Z</time>
  <speed>2.980000</speed>
</trkpt>
<trkpt lat="32.735511780" lon="35.037113190">
  <ele>491.650879</ele>
  <time>2011-10-20T05:39:49Z</time>
  <speed>2.890000</speed>
</trkpt>
<trkpt lat="32.735485077" lon="35.037174225">
  <ele>491.705566</ele>
  <time>2011-10-20T05:39:51Z</time>
  <speed>3.320000</speed>
</trkpt>
<trkpt lat="32.735477448" lon="35.037204742">
  <ele>491.580566</ele>
  <time>2011-10-20T05:39:52Z</time>
  <speed>3.190000</speed>
</trkpt>
<trkpt lat="32.735466003" lon="35.037235260">
  <ele>492.143066</ele>
  <time>2011-10-20T05:39:53Z</time>
  <speed>3.190000</speed>
</trkpt>
<trkpt lat="32.735454559" lon="35.037277222">
  <ele>494.463379</ele>
  <time>2011-10-20T05:39:54Z</time>
  <speed>3.030000</speed>
</trkpt>
<trkpt lat="32.735439301" lon="35.037326813">
  <ele>493.986816</ele>
  <time>2011-10-20T05:39:56Z</time>
  <speed>2.730000</speed>
</trkpt>
<trkpt lat="32.735424042" lon="35.037384033">
  <ele>494.377441</ele>
  <time>2011-10-20T05:39:58Z</time>
  <speed>2.780000</speed>
</trkpt>
<trkpt lat="32.735420227" lon="35.037414551">
  <ele>494.541504</ele>
  <time>2011-10-20T05:39:59Z</time>
  <speed>2.800000</speed>
</trkpt>
<trkpt lat="32.735412598" lon="35.037448883">
  <ele>494.666504</ele>
  <time>2011-10-20T05:40:00Z</time>
  <speed>2.960000</speed>
</trkpt>
<trkpt lat="32.735408783" lon="35.037506104">
  <ele>494.479004</ele>
  <time>2011-10-20T05:40:02Z</time>
  <speed>2.360000</speed>
</trkpt>
<trkpt lat="32.735397339" lon="35.037563324">
  <ele>494.197754</ele>
  <time>2011-10-20T05:40:04Z</time>
  <speed>2.390000</speed>
</trkpt>
<trkpt lat="32.735382080" lon="35.037616730">
  <ele>494.244629</ele>
  <time>2011-10-20T05:40:06Z</time>
  <speed>2.260000</speed>
</trkpt>
<trkpt lat="32.735363007" lon="35.037654877">
  <ele>494.666504</ele>
  <time>2011-10-20T05:40:08Z</time>
  <speed>1.680000</speed>
</trkpt>
<trkpt lat="32.735347748" lon="35.037696838">
  <ele>493.916504</ele>
  <time>2011-10-20T05:40:10Z</time>
  <speed>2.130000</speed>
</trkpt>
<trkpt lat="32.735332489" lon="35.037754059">
  <ele>493.807129</ele>
  <time>2011-10-20T05:40:12Z</time>
  <speed>2.420000</speed>
</trkpt>
<trkpt lat="32.735328674" lon="35.037807465">
  <ele>493.689941</ele>
  <time>2011-10-20T05:40:14Z</time>
  <speed>2.390000</speed>
</trkpt>
<trkpt lat="32.735324860" lon="35.037864685">
  <ele>493.877441</ele>
  <time>2011-10-20T05:40:16Z</time>
  <speed>2.490000</speed>
</trkpt>
<trkpt lat="32.735321045" lon="35.037921906">
  <ele>492.924316</ele>
  <time>2011-10-20T05:40:18Z</time>
  <speed>2.460000</speed>
</trkpt>
<trkpt lat="32.735321045" lon="35.037979126">
  <ele>492.557129</ele>
  <time>2011-10-20T05:40:20Z</time>
  <speed>2.620000</speed>
</trkpt>
<trkpt lat="32.735321045" lon="35.038036346">
  <ele>492.096191</ele>
  <time>2011-10-20T05:40:22Z</time>
  <speed>3.020000</speed>
</trkpt>
<trkpt lat="32.735309601" lon="35.038066864">
  <ele>492.025879</ele>
  <time>2011-10-20T05:40:23Z</time>
  <speed>3.430000</speed>
</trkpt>
<trkpt lat="32.735305786" lon="35.038105011">
  <ele>491.635254</ele>
  <time>2011-10-20T05:40:24Z</time>
  <speed>3.790000</speed>
</trkpt>
<trkpt lat="32.735290527" lon="35.038158417">
  <ele>495.213379</ele>
  <time>2011-10-20T05:40:25Z</time>
  <speed>3.620000</speed>
</trkpt>
<trkpt lat="32.735282898" lon="35.038188934">
  <ele>495.299316</ele>
  <time>2011-10-20T05:40:26Z</time>
  <speed>3.260000</speed>
</trkpt>
<trkpt lat="32.735271454" lon="35.038223267">
  <ele>494.877441</ele>
  <time>2011-10-20T05:40:27Z</time>
  <speed>3.650000</speed>
</trkpt>
<trkpt lat="32.735252380" lon="35.038257599">
  <ele>495.275879</ele>
  <time>2011-10-20T05:40:28Z</time>
  <speed>4.110000</speed>
</trkpt>
<trkpt lat="32.735244751" lon="35.038295746">
  <ele>494.846191</ele>
  <time>2011-10-20T05:40:29Z</time>
  <speed>3.670000</speed>
</trkpt>
<trkpt lat="32.735225677" lon="35.038330078">
  <ele>494.752441</ele>
  <time>2011-10-20T05:40:30Z</time>
  <speed>3.750000</speed>
</trkpt>
<trkpt lat="32.735202789" lon="35.038360596">
  <ele>495.189941</ele>
  <time>2011-10-20T05:40:31Z</time>
  <speed>4.230000</speed>
</trkpt>
<trkpt lat="32.735179901" lon="35.038398743">
  <ele>494.752441</ele>
  <time>2011-10-20T05:40:32Z</time>
  <speed>4.190000</speed>
</trkpt>
<trkpt lat="32.735153198" lon="35.038429260">
  <ele>494.729004</ele>
  <time>2011-10-20T05:40:33Z</time>
  <speed>4.130000</speed>
</trkpt>
<trkpt lat="32.735130310" lon="35.038471222">
  <ele>495.260254</ele>
  <time>2011-10-20T05:40:34Z</time>
  <speed>3.990000</speed>
</trkpt>
<trkpt lat="32.735118866" lon="35.038501740">
  <ele>494.994629</ele>
  <time>2011-10-20T05:40:35Z</time>
  <speed>3.320000</speed>
</trkpt>
<trkpt lat="32.735107422" lon="35.038536072">
  <ele>494.822754</ele>
  <time>2011-10-20T05:40:36Z</time>
  <speed>3.450000</speed>
</trkpt>
<trkpt lat="32.735095978" lon="35.038570404">
  <ele>494.385254</ele>
  <time>2011-10-20T05:40:37Z</time>
  <speed>3.580000</speed>
</trkpt>
<trkpt lat="32.735092163" lon="35.038604736">
  <ele>494.166504</ele>
  <time>2011-10-20T05:40:38Z</time>
  <speed>3.350000</speed>
</trkpt>
<trkpt lat="32.735076904" lon="35.038631439">
  <ele>494.072754</ele>
  <time>2011-10-20T05:40:39Z</time>
  <speed>2.980000</speed>
</trkpt>
<trkpt lat="32.735065460" lon="35.038665771">
  <ele>494.127441</ele>
  <time>2011-10-20T05:40:40Z</time>
  <speed>3.420000</speed>
</trkpt>
<trkpt lat="32.735050201" lon="35.038700104">
  <ele>493.502441</ele>
  <time>2011-10-20T05:40:41Z</time>
  <speed>3.340000</speed>
</trkpt>
<trkpt lat="32.735034943" lon="35.038730621">
  <ele>493.432129</ele>
  <time>2011-10-20T05:40:42Z</time>
  <speed>3.600000</speed>
</trkpt>
<trkpt lat="32.735015869" lon="35.038764954">
  <ele>493.463379</ele>
  <time>2011-10-20T05:40:43Z</time>
  <speed>3.790000</speed>
</trkpt>
<trkpt lat="32.734996796" lon="35.038799286">
  <ele>493.260254</ele>
  <time>2011-10-20T05:40:44Z</time>
  <speed>3.730000</speed>
</trkpt>
<trkpt lat="32.734977722" lon="35.038845062">
  <ele>493.033691</ele>
  <time>2011-10-20T05:40:45Z</time>
  <speed>4.320000</speed>
</trkpt>
<trkpt lat="32.734962463" lon="35.038883209">
  <ele>493.338379</ele>
  <time>2011-10-20T05:40:46Z</time>
  <speed>3.610000</speed>
</trkpt>
<trkpt lat="32.734947205" lon="35.038909912">
  <ele>493.307129</ele>
  <time>2011-10-20T05:40:47Z</time>
  <speed>3.150000</speed>
</trkpt>
<trkpt lat="32.734909058" lon="35.038955688">
  <ele>492.689941</ele>
  <time>2011-10-20T05:40:49Z</time>
  <speed>2.860000</speed>
</trkpt>
<trkpt lat="32.734874725" lon="35.039005280">
  <ele>492.510254</ele>
  <time>2011-10-20T05:40:51Z</time>
  <speed>2.700000</speed>
</trkpt>
<trkpt lat="32.734855652" lon="35.039047241">
  <ele>492.127441</ele>
  <time>2011-10-20T05:40:52Z</time>
  <speed>3.130000</speed>
</trkpt>
<trkpt lat="32.734828949" lon="35.039100647">
  <ele>491.846191</ele>
  <time>2011-10-20T05:40:54Z</time>
  <speed>2.670000</speed>
</trkpt>
<trkpt lat="32.734806061" lon="35.039150238">
  <ele>491.760254</ele>
  <time>2011-10-20T05:40:56Z</time>
  <speed>2.770000</speed>
</trkpt>
<trkpt lat="32.734794617" lon="35.039180756">
  <ele>492.135254</ele>
  <time>2011-10-20T05:40:57Z</time>
  <speed>2.740000</speed>
</trkpt>
<trkpt lat="32.734786987" lon="35.039218903">
  <ele>492.229004</ele>
  <time>2011-10-20T05:40:58Z</time>
  <speed>3.320000</speed>
</trkpt>
<trkpt lat="32.734771729" lon="35.039260864">
  <ele>492.900879</ele>
  <time>2011-10-20T05:40:59Z</time>
  <speed>3.290000</speed>
</trkpt>
<trkpt lat="32.734756470" lon="35.039287567">
  <ele>492.572754</ele>
  <time>2011-10-20T05:41:00Z</time>
  <speed>2.950000</speed>
</trkpt>
<trkpt lat="32.734748840" lon="35.039321899">
  <ele>493.096191</ele>
  <time>2011-10-20T05:41:01Z</time>
  <speed>2.960000</speed>
</trkpt>
<trkpt lat="32.734745026" lon="35.039356232">
  <ele>493.236816</ele>
  <time>2011-10-20T05:41:02Z</time>
  <speed>3.080000</speed>
</trkpt>
<trkpt lat="32.734733582" lon="35.039390564">
  <ele>493.119629</ele>
  <time>2011-10-20T05:41:03Z</time>
  <speed>2.950000</speed>
</trkpt>
<trkpt lat="32.734722137" lon="35.039432526">
  <ele>493.799316</ele>
  <time>2011-10-20T05:41:04Z</time>
  <speed>3.060000</speed>
</trkpt>
<trkpt lat="32.734706879" lon="35.039463043">
  <ele>493.900879</ele>
  <time>2011-10-20T05:41:05Z</time>
  <speed>3.020000</speed>
</trkpt>
<trkpt lat="32.734683990" lon="35.039485931">
  <ele>493.580566</ele>
  <time>2011-10-20T05:41:06Z</time>
  <speed>2.850000</speed>
</trkpt>
<trkpt lat="32.734664917" lon="35.039516449">
  <ele>493.838379</ele>
  <time>2011-10-20T05:41:07Z</time>
  <speed>3.290000</speed>
</trkpt>
<trkpt lat="32.734649658" lon="35.039543152">
  <ele>494.119629</ele>
  <time>2011-10-20T05:41:08Z</time>
  <speed>2.920000</speed>
</trkpt>
<trkpt lat="32.734619141" lon="35.039588928">
  <ele>494.494629</ele>
  <time>2011-10-20T05:41:10Z</time>
  <speed>2.480000</speed>
</trkpt>
<trkpt lat="32.734603882" lon="35.039638519">
  <ele>495.104004</ele>
  <time>2011-10-20T05:41:12Z</time>
  <speed>2.620000</speed>
</trkpt>
<trkpt lat="32.734584808" lon="35.039695740">
  <ele>495.510254</ele>
  <time>2011-10-20T05:41:14Z</time>
  <speed>2.870000</speed>
</trkpt>
<trkpt lat="32.734558105" lon="35.039752960">
  <ele>496.979004</ele>
  <time>2011-10-20T05:41:16Z</time>
  <speed>2.840000</speed>
</trkpt>
<trkpt lat="32.734539032" lon="35.039775848">
  <ele>497.197754</ele>
  <time>2011-10-20T05:41:17Z</time>
  <speed>2.670000</speed>
</trkpt>
<trkpt lat="32.734516144" lon="35.039817810">
  <ele>496.838379</ele>
  <time>2011-10-20T05:41:19Z</time>
  <speed>1.770000</speed>
</trkpt>
<trkpt lat="32.734493256" lon="35.039855957">
  <ele>497.064941</ele>
  <time>2011-10-20T05:41:21Z</time>
  <speed>2.170000</speed>
</trkpt>
<trkpt lat="32.734462738" lon="35.039878845">
  <ele>497.439941</ele>
  <time>2011-10-20T05:41:23Z</time>
  <speed>1.960000</speed>
</trkpt>
<trkpt lat="32.734428406" lon="35.039863586">
  <ele>497.002441</ele>
  <time>2011-10-20T05:41:25Z</time>
  <speed>1.790000</speed>
</trkpt>
<trkpt lat="32.734397888" lon="35.039852142">
  <ele>498.494629</ele>
  <time>2011-10-20T05:41:27Z</time>
  <speed>1.430000</speed>
</trkpt>
<trkpt lat="32.734367371" lon="35.039844513">
  <ele>500.150879</ele>
  <time>2011-10-20T05:41:29Z</time>
  <speed>1.220000</speed>
</trkpt>
<trkpt lat="32.734340668" lon="35.039855957">
  <ele>502.010254</ele>
  <time>2011-10-20T05:41:31Z</time>
  <speed>1.930000</speed>
</trkpt>
<trkpt lat="32.734310150" lon="35.039882660">
  <ele>503.541504</ele>
  <time>2011-10-20T05:41:33Z</time>
  <speed>1.870000</speed>
</trkpt>
<trkpt lat="32.734291077" lon="35.039924622">
  <ele>503.510254</ele>
  <time>2011-10-20T05:41:35Z</time>
  <speed>2.420000</speed>
</trkpt>
<trkpt lat="32.734275818" lon="35.039978027">
  <ele>502.549316</ele>
  <time>2011-10-20T05:41:37Z</time>
  <speed>2.370000</speed>
</trkpt>
<trkpt lat="32.734275818" lon="35.040031433">
  <ele>503.033691</ele>
  <time>2011-10-20T05:41:39Z</time>
  <speed>2.250000</speed>
</trkpt>
<trkpt lat="32.734291077" lon="35.040073395">
  <ele>502.705566</ele>
  <time>2011-10-20T05:41:41Z</time>
  <speed>2.460000</speed>
</trkpt>
<trkpt lat="32.734302521" lon="35.040126801">
  <ele>502.463379</ele>
  <time>2011-10-20T05:41:43Z</time>
  <speed>2.410000</speed>
</trkpt>
<trkpt lat="32.734317780" lon="35.040176392">
  <ele>502.182129</ele>
  <time>2011-10-20T05:41:45Z</time>
  <speed>2.380000</speed>
</trkpt>
<trkpt lat="32.734336853" lon="35.040229797">
  <ele>503.510254</ele>
  <time>2011-10-20T05:41:47Z</time>
  <speed>2.420000</speed>
</trkpt>
<trkpt lat="32.734363556" lon="35.040287018">
  <ele>504.611816</ele>
  <time>2011-10-20T05:41:49Z</time>
  <speed>2.510000</speed>
</trkpt>
<trkpt lat="32.734363556" lon="35.040336609">
  <ele>504.455566</ele>
  <time>2011-10-20T05:41:51Z</time>
  <speed>2.280000</speed>
</trkpt>
<trkpt lat="32.734359741" lon="35.040386200">
  <ele>504.244629</ele>
  <time>2011-10-20T05:41:53Z</time>
  <speed>1.640000</speed>
</trkpt>
<trkpt lat="32.734340668" lon="35.040416718">
  <ele>502.869629</ele>
  <time>2011-10-20T05:41:55Z</time>
  <speed>1.360000</speed>
</trkpt>
<trkpt lat="32.734325409" lon="35.040454865">
  <ele>502.604004</ele>
  <time>2011-10-20T05:41:57Z</time>
  <speed>1.600000</speed>
</trkpt>
<trkpt lat="32.734298706" lon="35.040477753">
  <ele>501.861816</ele>
  <time>2011-10-20T05:41:59Z</time>
  <speed>1.690000</speed>
</trkpt>
<trkpt lat="32.734275818" lon="35.040508270">
  <ele>501.346191</ele>
  <time>2011-10-20T05:42:01Z</time>
  <speed>1.810000</speed>
</trkpt>
<trkpt lat="32.734256744" lon="35.040538788">
  <ele>500.275879</ele>
  <time>2011-10-20T05:42:03Z</time>
  <speed>1.700000</speed>
</trkpt>
<trkpt lat="32.734226227" lon="35.040561676">
  <ele>499.322754</ele>
  <time>2011-10-20T05:42:05Z</time>
  <speed>1.680000</speed>
</trkpt>
<trkpt lat="32.734203339" lon="35.040546417">
  <ele>498.502441</ele>
  <time>2011-10-20T05:42:08Z</time>
  <speed>0.290000</speed>
</trkpt>
<trkpt lat="32.734210968" lon="35.040576935">
  <ele>498.650879</ele>
  <time>2011-10-20T05:45:59Z</time>
  <speed>0.430000</speed>
</trkpt>
<trkpt lat="32.734237671" lon="35.040607452">
  <ele>499.049316</ele>
  <time>2011-10-20T05:46:05Z</time>
  <speed>1.160000</speed>
</trkpt>
<trkpt lat="32.734260559" lon="35.040637970">
  <ele>499.471191</ele>
  <time>2011-10-20T05:46:07Z</time>
  <speed>2.550000</speed>
</trkpt>
<trkpt lat="32.734279633" lon="35.040664673">
  <ele>499.189941</ele>
  <time>2011-10-20T05:46:08Z</time>
  <speed>3.220000</speed>
</trkpt>
<trkpt lat="32.734302521" lon="35.040699005">
  <ele>498.971191</ele>
  <time>2011-10-20T05:46:09Z</time>
  <speed>4.290000</speed>
</trkpt>
<trkpt lat="32.734333038" lon="35.040733337">
  <ele>498.338379</ele>
  <time>2011-10-20T05:46:10Z</time>
  <speed>5.100000</speed>
</trkpt>
<trkpt lat="32.734363556" lon="35.040775299">
  <ele>497.604004</ele>
  <time>2011-10-20T05:46:11Z</time>
  <speed>5.130000</speed>
</trkpt>
<trkpt lat="32.734394073" lon="35.040813446">
  <ele>497.307129</ele>
  <time>2011-10-20T05:46:12Z</time>
  <speed>4.420000</speed>
</trkpt>
<trkpt lat="32.734409332" lon="35.040851593">
  <ele>496.229004</ele>
  <time>2011-10-20T05:46:13Z</time>
  <speed>3.990000</speed>
</trkpt>
<trkpt lat="32.734413147" lon="35.040889740">
  <ele>495.377441</ele>
  <time>2011-10-20T05:46:14Z</time>
  <speed>2.980000</speed>
</trkpt>
<trkpt lat="32.734405518" lon="35.040920258">
  <ele>494.424316</ele>
  <time>2011-10-20T05:46:15Z</time>
  <speed>2.960000</speed>
</trkpt>
<trkpt lat="32.734390259" lon="35.040950775">
  <ele>493.986816</ele>
  <time>2011-10-20T05:46:16Z</time>
  <speed>3.120000</speed>
</trkpt>
<trkpt lat="32.734375000" lon="35.040977478">
  <ele>492.689941</ele>
  <time>2011-10-20T05:46:17Z</time>
  <speed>2.730000</speed>
</trkpt>
<trkpt lat="32.734363556" lon="35.041007996">
  <ele>491.689941</ele>
  <time>2011-10-20T05:46:18Z</time>
  <speed>2.740000</speed>
</trkpt>
<trkpt lat="32.734352112" lon="35.041046143">
  <ele>489.604004</ele>
  <time>2011-10-20T05:46:20Z</time>
  <speed>0.360000</speed>
</trkpt>
<trkpt lat="32.734336853" lon="35.041065216">
  <ele>487.455566</ele>
  <time>2011-10-20T05:46:23Z</time>
  <speed>0.360000</speed>
</trkpt>
<trkpt lat="32.734321594" lon="35.041107178">
  <ele>487.150879</ele>
  <time>2011-10-20T05:46:26Z</time>
  <speed>2.330000</speed>
</trkpt>
<trkpt lat="32.734287262" lon="35.041152954">
  <ele>486.416504</ele>
  <time>2011-10-20T05:46:28Z</time>
  <speed>2.230000</speed>
</trkpt>
<trkpt lat="32.734260559" lon="35.041179657">
  <ele>485.447754</ele>
  <time>2011-10-20T05:46:30Z</time>
  <speed>2.230000</speed>
</trkpt>
<trkpt lat="32.734210968" lon="35.041213989">
  <ele>484.775879</ele>
  <time>2011-10-20T05:46:32Z</time>
  <speed>3.070000</speed>
</trkpt>
<trkpt lat="32.734180450" lon="35.041229248">
  <ele>484.166504</ele>
  <time>2011-10-20T05:46:33Z</time>
  <speed>3.670000</speed>
</trkpt>
<trkpt lat="32.734146118" lon="35.041252136">
  <ele>482.994629</ele>
  <time>2011-10-20T05:46:34Z</time>
  <speed>3.450000</speed>
</trkpt>
<trkpt lat="32.734111786" lon="35.041271210">
  <ele>482.377441</ele>
  <time>2011-10-20T05:46:35Z</time>
  <speed>3.810000</speed>
</trkpt>
<trkpt lat="32.734077454" lon="35.041282654">
  <ele>481.525879</ele>
  <time>2011-10-20T05:46:36Z</time>
  <speed>4.010000</speed>
</trkpt>
<trkpt lat="32.734043121" lon="35.041301727">
  <ele>481.025879</ele>
  <time>2011-10-20T05:46:37Z</time>
  <speed>4.210000</speed>
</trkpt>
<trkpt lat="32.734001160" lon="35.041313171">
  <ele>481.166504</ele>
  <time>2011-10-20T05:46:38Z</time>
  <speed>4.140000</speed>
</trkpt>
<trkpt lat="32.733966827" lon="35.041328430">
  <ele>480.900879</ele>
  <time>2011-10-20T05:46:39Z</time>
  <speed>3.710000</speed>
</trkpt>
<trkpt lat="32.733928680" lon="35.041343689">
  <ele>481.260254</ele>
  <time>2011-10-20T05:46:40Z</time>
  <speed>3.950000</speed>
</trkpt>
<trkpt lat="32.733898163" lon="35.041358948">
  <ele>480.877441</ele>
  <time>2011-10-20T05:46:41Z</time>
  <speed>3.570000</speed>
</trkpt>
<trkpt lat="32.733867645" lon="35.041366577">
  <ele>481.197754</ele>
  <time>2011-10-20T05:46:42Z</time>
  <speed>2.940000</speed>
</trkpt>
<trkpt lat="32.733829498" lon="35.041381836">
  <ele>481.236816</ele>
  <time>2011-10-20T05:46:44Z</time>
  <speed>1.920000</speed>
</trkpt>
<trkpt lat="32.733791351" lon="35.041412354">
  <ele>480.814941</ele>
  <time>2011-10-20T05:46:46Z</time>
  <speed>2.550000</speed>
</trkpt>
<trkpt lat="32.733764648" lon="35.041431427">
  <ele>481.096191</ele>
  <time>2011-10-20T05:46:47Z</time>
  <speed>3.700000</speed>
</trkpt>
<trkpt lat="32.733737946" lon="35.041446686">
  <ele>480.783691</ele>
  <time>2011-10-20T05:46:48Z</time>
  <speed>3.270000</speed>
</trkpt>
<trkpt lat="32.733699799" lon="35.041454315">
  <ele>480.393066</ele>
  <time>2011-10-20T05:46:49Z</time>
  <speed>4.120000</speed>
</trkpt>
<trkpt lat="32.733657837" lon="35.041458130">
  <ele>479.127441</ele>
  <time>2011-10-20T05:46:50Z</time>
  <speed>4.370000</speed>
</trkpt>
<trkpt lat="32.733615875" lon="35.041461945">
  <ele>477.596191</ele>
  <time>2011-10-20T05:46:51Z</time>
  <speed>4.200000</speed>
</trkpt>
<trkpt lat="32.733573914" lon="35.041469574">
  <ele>475.455566</ele>
  <time>2011-10-20T05:46:52Z</time>
  <speed>4.460000</speed>
</trkpt>
<trkpt lat="32.733531952" lon="35.041481018">
  <ele>474.869629</ele>
  <time>2011-10-20T05:46:53Z</time>
  <speed>4.160000</speed>
</trkpt>
<trkpt lat="32.733505249" lon="35.041492462">
  <ele>473.533691</ele>
  <time>2011-10-20T05:46:54Z</time>
  <speed>3.090000</speed>
</trkpt>
<trkpt lat="32.733474731" lon="35.041515350">
  <ele>473.064941</ele>
  <time>2011-10-20T05:46:55Z</time>
  <speed>3.810000</speed>
</trkpt>
<trkpt lat="32.733432770" lon="35.041538239">
  <ele>471.541504</ele>
  <time>2011-10-20T05:46:56Z</time>
  <speed>5.440000</speed>
</trkpt>
<trkpt lat="32.733386993" lon="35.041557312">
  <ele>470.010254</ele>
  <time>2011-10-20T05:46:57Z</time>
  <speed>5.350000</speed>
</trkpt>
<trkpt lat="32.733337402" lon="35.041564941">
  <ele>468.799316</ele>
  <time>2011-10-20T05:46:58Z</time>
  <speed>5.460000</speed>
</trkpt>
<trkpt lat="32.733287811" lon="35.041561127">
  <ele>466.924316</ele>
  <time>2011-10-20T05:46:59Z</time>
  <speed>5.910000</speed>
</trkpt>
<trkpt lat="32.733234406" lon="35.041553497">
  <ele>465.346191</ele>
  <time>2011-10-20T05:47:00Z</time>
  <speed>5.560000</speed>
</trkpt>
<trkpt lat="32.733184814" lon="35.041549683">
  <ele>464.697754</ele>
  <time>2011-10-20T05:47:01Z</time>
  <speed>5.540000</speed>
</trkpt>
<trkpt lat="32.733135223" lon="35.041553497">
  <ele>464.096191</ele>
  <time>2011-10-20T05:47:02Z</time>
  <speed>5.380000</speed>
</trkpt>
<trkpt lat="32.733085632" lon="35.041553497">
  <ele>463.096191</ele>
  <time>2011-10-20T05:47:03Z</time>
  <speed>5.240000</speed>
</trkpt>
<trkpt lat="32.733036041" lon="35.041545868">
  <ele>464.072754</ele>
  <time>2011-10-20T05:47:04Z</time>
  <speed>4.940000</speed>
</trkpt>
<trkpt lat="32.732997894" lon="35.041526794">
  <ele>464.314941</ele>
  <time>2011-10-20T05:47:05Z</time>
  <speed>4.870000</speed>
</trkpt>
<trkpt lat="32.732971191" lon="35.041511536">
  <ele>463.619629</ele>
  <time>2011-10-20T05:47:06Z</time>
  <speed>2.630000</speed>
</trkpt>
<trkpt lat="32.732948303" lon="35.041519165">
  <ele>462.869629</ele>
  <time>2011-10-20T05:47:07Z</time>
  <speed>3.390000</speed>
</trkpt>
<trkpt lat="32.732913971" lon="35.041522980">
  <ele>462.682129</ele>
  <time>2011-10-20T05:47:08Z</time>
  <speed>3.350000</speed>
</trkpt>
<trkpt lat="32.732883453" lon="35.041522980">
  <ele>463.611816</ele>
  <time>2011-10-20T05:47:09Z</time>
  <speed>3.090000</speed>
</trkpt>
<trkpt lat="32.732852936" lon="35.041511536">
  <ele>463.768066</ele>
  <time>2011-10-20T05:47:10Z</time>
  <speed>4.020000</speed>
</trkpt>
<trkpt lat="32.732818604" lon="35.041488647">
  <ele>463.127441</ele>
  <time>2011-10-20T05:47:11Z</time>
  <speed>4.460000</speed>
</trkpt>
<trkpt lat="32.732780457" lon="35.041473389">
  <ele>463.104004</ele>
  <time>2011-10-20T05:47:12Z</time>
  <speed>4.720000</speed>
</trkpt>
<trkpt lat="32.732730865" lon="35.041450500">
  <ele>463.729004</ele>
  <time>2011-10-20T05:47:13Z</time>
  <speed>4.580000</speed>
</trkpt>
<trkpt lat="32.732692719" lon="35.041442871">
  <ele>463.627441</ele>
  <time>2011-10-20T05:47:14Z</time>
  <speed>4.010000</speed>
</trkpt>
<trkpt lat="32.732654572" lon="35.041446686">
  <ele>463.932129</ele>
  <time>2011-10-20T05:47:15Z</time>
  <speed>4.730000</speed>
</trkpt>
<trkpt lat="32.732612610" lon="35.041442871">
  <ele>464.088379</ele>
  <time>2011-10-20T05:47:16Z</time>
  <speed>4.320000</speed>
</trkpt>
<trkpt lat="32.732574463" lon="35.041435242">
  <ele>464.447754</ele>
  <time>2011-10-20T05:47:17Z</time>
  <speed>3.620000</speed>
</trkpt>
<trkpt lat="32.732543945" lon="35.041427612">
  <ele>463.643066</ele>
  <time>2011-10-20T05:47:18Z</time>
  <speed>2.890000</speed>
</trkpt>
<trkpt lat="32.732498169" lon="35.041423798">
  <ele>463.377441</ele>
  <time>2011-10-20T05:47:20Z</time>
  <speed>2.760000</speed>
</trkpt>
<trkpt lat="32.732471466" lon="35.041423798">
  <ele>462.635254</ele>
  <time>2011-10-20T05:47:21Z</time>
  <speed>3.140000</speed>
</trkpt>
<trkpt lat="32.732440948" lon="35.041427612">
  <ele>462.479004</ele>
  <time>2011-10-20T05:47:22Z</time>
  <speed>3.270000</speed>
</trkpt>
<trkpt lat="32.732414246" lon="35.041435242">
  <ele>462.330566</ele>
  <time>2011-10-20T05:47:23Z</time>
  <speed>2.900000</speed>
</trkpt>
<trkpt lat="32.732383728" lon="35.041435242">
  <ele>461.666504</ele>
  <time>2011-10-20T05:47:24Z</time>
  <speed>2.410000</speed>
</trkpt>
<trkpt lat="32.732334137" lon="35.041423798">
  <ele>462.627441</ele>
  <time>2011-10-20T05:47:26Z</time>
  <speed>2.310000</speed>
</trkpt>
<trkpt lat="32.732299805" lon="35.041400909">
  <ele>461.635254</ele>
  <time>2011-10-20T05:47:28Z</time>
  <speed>1.790000</speed>
</trkpt>
<trkpt lat="32.732276917" lon="35.041416168">
  <ele>460.510254</ele>
  <time>2011-10-20T05:48:12Z</time>
  <speed>1.350000</speed>
</trkpt>
<trkpt lat="32.732238770" lon="35.041431427">
  <ele>461.393066</ele>
  <time>2011-10-20T05:48:14Z</time>
  <speed>2.010000</speed>
</trkpt>
<trkpt lat="32.732192993" lon="35.041442871">
  <ele>461.252441</ele>
  <time>2011-10-20T05:48:16Z</time>
  <speed>2.380000</speed>
</trkpt>
<trkpt lat="32.732143402" lon="35.041427612">
  <ele>460.838379</ele>
  <time>2011-10-20T05:48:18Z</time>
  <speed>2.910000</speed>
</trkpt>
<trkpt lat="32.732124329" lon="35.041397095">
  <ele>460.502441</ele>
  <time>2011-10-20T05:48:19Z</time>
  <speed>4.170000</speed>
</trkpt>
<trkpt lat="32.732105255" lon="35.041370392">
  <ele>460.768066</ele>
  <time>2011-10-20T05:48:20Z</time>
  <speed>3.090000</speed>
</trkpt>
<trkpt lat="32.732082367" lon="35.041343689">
  <ele>461.127441</ele>
  <time>2011-10-20T05:48:21Z</time>
  <speed>3.360000</speed>
</trkpt>
<trkpt lat="32.732055664" lon="35.041316986">
  <ele>461.393066</ele>
  <time>2011-10-20T05:48:22Z</time>
  <speed>3.810000</speed>
</trkpt>
<trkpt lat="32.732021332" lon="35.041290283">
  <ele>460.729004</ele>
  <time>2011-10-20T05:48:23Z</time>
  <speed>4.280000</speed>
</trkpt>
<trkpt lat="32.731983185" lon="35.041259766">
  <ele>460.361816</ele>
  <time>2011-10-20T05:48:24Z</time>
  <speed>4.130000</speed>
</trkpt>
<trkpt lat="32.731945038" lon="35.041240692">
  <ele>460.643066</ele>
  <time>2011-10-20T05:48:25Z</time>
  <speed>3.850000</speed>
</trkpt>
<trkpt lat="32.731910706" lon="35.041225433">
  <ele>460.174316</ele>
  <time>2011-10-20T05:48:26Z</time>
  <speed>3.660000</speed>
</trkpt>
<trkpt lat="32.731872559" lon="35.041217804">
  <ele>460.166504</ele>
  <time>2011-10-20T05:48:27Z</time>
  <speed>3.640000</speed>
</trkpt>
<trkpt lat="32.731838226" lon="35.041210175">
  <ele>459.486816</ele>
  <time>2011-10-20T05:48:28Z</time>
  <speed>3.290000</speed>
</trkpt>
<trkpt lat="32.731811523" lon="35.041191101">
  <ele>459.619629</ele>
  <time>2011-10-20T05:48:29Z</time>
  <speed>3.740000</speed>
</trkpt>
<trkpt lat="32.731784821" lon="35.041164398">
  <ele>459.557129</ele>
  <time>2011-10-20T05:48:30Z</time>
  <speed>4.080000</speed>
</trkpt>
<trkpt lat="32.731758118" lon="35.041126251">
  <ele>459.291504</ele>
  <time>2011-10-20T05:48:31Z</time>
  <speed>4.470000</speed>
</trkpt>
<trkpt lat="32.731731415" lon="35.041088104">
  <ele>458.963379</ele>
  <time>2011-10-20T05:48:32Z</time>
  <speed>4.530000</speed>
</trkpt>
<trkpt lat="32.731700897" lon="35.041049957">
  <ele>457.799316</ele>
  <time>2011-10-20T05:48:33Z</time>
  <speed>4.480000</speed>
</trkpt>
<trkpt lat="32.731678009" lon="35.041011810">
  <ele>457.064941</ele>
  <time>2011-10-20T05:48:34Z</time>
  <speed>3.920000</speed>
</trkpt>
<trkpt lat="32.731655121" lon="35.040977478">
  <ele>457.010254</ele>
  <time>2011-10-20T05:48:35Z</time>
  <speed>3.980000</speed>
</trkpt>
<trkpt lat="32.731636047" lon="35.040939331">
  <ele>456.775879</ele>
  <time>2011-10-20T05:48:36Z</time>
  <speed>4.090000</speed>
</trkpt>
<trkpt lat="32.731616974" lon="35.040901184">
  <ele>456.611816</ele>
  <time>2011-10-20T05:48:37Z</time>
  <speed>3.590000</speed>
</trkpt>
<trkpt lat="32.731605530" lon="35.040859222">
  <ele>456.150879</ele>
  <time>2011-10-20T05:48:38Z</time>
  <speed>4.180000</speed>
</trkpt>
<trkpt lat="32.731590271" lon="35.040824890">
  <ele>456.057129</ele>
  <time>2011-10-20T05:48:39Z</time>
  <speed>3.790000</speed>
</trkpt>
<trkpt lat="32.731575012" lon="35.040771484">
  <ele>455.525879</ele>
  <time>2011-10-20T05:48:40Z</time>
  <speed>4.490000</speed>
</trkpt>
<trkpt lat="32.731563568" lon="35.040721893">
  <ele>455.127441</ele>
  <time>2011-10-20T05:48:41Z</time>
  <speed>4.860000</speed>
</trkpt>
<trkpt lat="32.731536865" lon="35.040676117">
  <ele>455.041504</ele>
  <time>2011-10-20T05:48:42Z</time>
  <speed>5.010000</speed>
</trkpt>
<trkpt lat="32.731517792" lon="35.040626526">
  <ele>454.447754</ele>
  <time>2011-10-20T05:48:43Z</time>
  <speed>4.910000</speed>
</trkpt>
<trkpt lat="32.731498718" lon="35.040576935">
  <ele>453.861816</ele>
  <time>2011-10-20T05:48:44Z</time>
  <speed>5.090000</speed>
</trkpt>
<trkpt lat="32.731475830" lon="35.040519714">
  <ele>453.604004</ele>
  <time>2011-10-20T05:48:45Z</time>
  <speed>5.810000</speed>
</trkpt>
<trkpt lat="32.731456757" lon="35.040458679">
  <ele>453.096191</ele>
  <time>2011-10-20T05:48:46Z</time>
  <speed>6.270000</speed>
</trkpt>
<trkpt lat="32.731430054" lon="35.040401459">
  <ele>452.416504</ele>
  <time>2011-10-20T05:48:47Z</time>
  <speed>5.760000</speed>
</trkpt>
<trkpt lat="32.731395721" lon="35.040344238">
  <ele>452.174316</ele>
  <time>2011-10-20T05:48:48Z</time>
  <speed>5.820000</speed>
</trkpt>
<trkpt lat="32.731372833" lon="35.040294647">
  <ele>451.479004</ele>
  <time>2011-10-20T05:48:49Z</time>
  <speed>5.900000</speed>
</trkpt>
<trkpt lat="32.731346130" lon="35.040241241">
  <ele>451.088379</ele>
  <time>2011-10-20T05:48:50Z</time>
  <speed>5.910000</speed>
</trkpt>
<trkpt lat="32.731315613" lon="35.040187836">
  <ele>450.971191</ele>
  <time>2011-10-20T05:48:51Z</time>
  <speed>5.170000</speed>
</trkpt>
<trkpt lat="32.731292725" lon="35.040153503">
  <ele>450.830566</ele>
  <time>2011-10-20T05:48:52Z</time>
  <speed>3.620000</speed>
</trkpt>
<trkpt lat="32.731269836" lon="35.040122986">
  <ele>449.869629</ele>
  <time>2011-10-20T05:48:53Z</time>
  <speed>3.690000</speed>
</trkpt>
<trkpt lat="32.731250763" lon="35.040096283">
  <ele>449.447754</ele>
  <time>2011-10-20T05:48:54Z</time>
  <speed>3.410000</speed>
</trkpt>
<trkpt lat="32.731224060" lon="35.040046692">
  <ele>448.455566</ele>
  <time>2011-10-20T05:48:56Z</time>
  <speed>2.690000</speed>
</trkpt>
<trkpt lat="32.731201172" lon="35.039997101">
  <ele>447.666504</ele>
  <time>2011-10-20T05:48:58Z</time>
  <speed>2.550000</speed>
</trkpt>
<trkpt lat="32.731170654" lon="35.039962769">
  <ele>446.854004</ele>
  <time>2011-10-20T05:49:00Z</time>
  <speed>2.740000</speed>
</trkpt>
<trkpt lat="32.731147766" lon="35.039939880">
  <ele>446.580566</ele>
  <time>2011-10-20T05:49:01Z</time>
  <speed>2.810000</speed>
</trkpt>
<trkpt lat="32.731128693" lon="35.039916992">
  <ele>446.221191</ele>
  <time>2011-10-20T05:49:02Z</time>
  <speed>2.570000</speed>
</trkpt>
<trkpt lat="32.731113434" lon="35.039890289">
  <ele>445.916504</ele>
  <time>2011-10-20T05:49:03Z</time>
  <speed>2.910000</speed>
</trkpt>
<trkpt lat="32.731094360" lon="35.039863586">
  <ele>445.596191</ele>
  <time>2011-10-20T05:49:04Z</time>
  <speed>3.250000</speed>
</trkpt>
<trkpt lat="32.731071472" lon="35.039833069">
  <ele>445.322754</ele>
  <time>2011-10-20T05:49:05Z</time>
  <speed>3.180000</speed>
</trkpt>
<trkpt lat="32.731048584" lon="35.039806366">
  <ele>445.033691</ele>
  <time>2011-10-20T05:49:06Z</time>
  <speed>3.170000</speed>
</trkpt>
<trkpt lat="32.731010437" lon="35.039760590">
  <ele>444.221191</ele>
  <time>2011-10-20T05:49:08Z</time>
  <speed>2.970000</speed>
</trkpt>
<trkpt lat="32.730968475" lon="35.039745331">
  <ele>441.549316</ele>
  <time>2011-10-20T05:49:09Z</time>
  <speed>2.940000</speed>
</trkpt>
<trkpt lat="32.730949402" lon="35.039722443">
  <ele>441.143066</ele>
  <time>2011-10-20T05:49:10Z</time>
  <speed>2.860000</speed>
</trkpt>
<trkpt lat="32.730922699" lon="35.039653778">
  <ele>440.197754</ele>
  <time>2011-10-20T05:49:12Z</time>
  <speed>2.550000</speed>
</trkpt>
<trkpt lat="32.730880737" lon="35.039619446">
  <ele>439.877441</ele>
  <time>2011-10-20T05:49:14Z</time>
  <speed>2.230000</speed>
</trkpt>
<trkpt lat="32.730842590" lon="35.039596558">
  <ele>439.236816</ele>
  <time>2011-10-20T05:49:16Z</time>
  <speed>2.200000</speed>
</trkpt>
<trkpt lat="32.730812073" lon="35.039581299">
  <ele>437.674316</ele>
  <time>2011-10-20T05:49:18Z</time>
  <speed>2.310000</speed>
</trkpt>
<trkpt lat="32.730785370" lon="35.039539337">
  <ele>436.775879</ele>
  <time>2011-10-20T05:49:20Z</time>
  <speed>2.710000</speed>
</trkpt>
<trkpt lat="32.730762482" lon="35.039493561">
  <ele>436.096191</ele>
  <time>2011-10-20T05:49:22Z</time>
  <speed>2.200000</speed>
</trkpt>
<trkpt lat="32.730731964" lon="35.039463043">
  <ele>435.604004</ele>
  <time>2011-10-20T05:49:24Z</time>
  <speed>1.640000</speed>
</trkpt>
<trkpt lat="32.730693817" lon="35.039451599">
  <ele>434.588379</ele>
  <time>2011-10-20T05:49:26Z</time>
  <speed>1.910000</speed>
</trkpt>
<trkpt lat="32.730655670" lon="35.039447784">
  <ele>433.385254</ele>
  <time>2011-10-20T05:49:28Z</time>
  <speed>1.780000</speed>
</trkpt>
<trkpt lat="32.730632782" lon="35.039413452">
  <ele>432.166504</ele>
  <time>2011-10-20T05:49:31Z</time>
  <speed>1.130000</speed>
</trkpt>
<trkpt lat="32.730609894" lon="35.039390564">
  <ele>431.604004</ele>
  <time>2011-10-20T05:49:33Z</time>
  <speed>1.220000</speed>
</trkpt>
<trkpt lat="32.730590820" lon="35.039352417">
  <ele>430.611816</ele>
  <time>2011-10-20T05:49:36Z</time>
  <speed>1.920000</speed>
</trkpt>
<trkpt lat="32.730571747" lon="35.039321899">
  <ele>430.010254</ele>
  <time>2011-10-20T05:49:38Z</time>
  <speed>0.600000</speed>
</trkpt>
<trkpt lat="32.730545044" lon="35.039325714">
  <ele>429.846191</ele>
  <time>2011-10-20T05:50:18Z</time>
  <speed>0.040000</speed>
</trkpt>
<trkpt lat="32.730518341" lon="35.039329529">
  <ele>430.510254</ele>
  <time>2011-10-20T05:50:38Z</time>
  <speed>0.030000</speed>
</trkpt>
<trkpt lat="32.730525970" lon="35.039299011">
  <ele>430.596191</ele>
  <time>2011-10-20T05:50:44Z</time>
  <speed>0.110000</speed>
</trkpt>
<trkpt lat="32.730529785" lon="35.039268494">
  <ele>431.518066</ele>
  <time>2011-10-20T05:51:17Z</time>
  <speed>0.230000</speed>
</trkpt>
<trkpt lat="32.730525970" lon="35.039230347">
  <ele>431.971191</ele>
  <time>2011-10-20T05:53:31Z</time>
  <speed>0.180000</speed>
</trkpt>
<trkpt lat="32.730518341" lon="35.039188385">
  <ele>432.455566</ele>
  <time>2011-10-20T05:53:40Z</time>
  <speed>0.400000</speed>
</trkpt>
<trkpt lat="32.730484009" lon="35.039196014">
  <ele>432.689941</ele>
  <time>2011-10-20T05:54:01Z</time>
  <speed>1.350000</speed>
</trkpt>
<trkpt lat="32.730468750" lon="35.039157867">
  <ele>433.322754</ele>
  <time>2011-10-20T05:54:03Z</time>
  <speed>1.840000</speed>
</trkpt>
<trkpt lat="32.730426788" lon="35.039142609">
  <ele>433.635254</ele>
  <time>2011-10-20T05:54:06Z</time>
  <speed>0.780000</speed>
</trkpt>
<trkpt lat="32.730392456" lon="35.039131165">
  <ele>433.533691</ele>
  <time>2011-10-20T05:54:07Z</time>
  <speed>1.830000</speed>
</trkpt>
<trkpt lat="32.730354309" lon="35.039112091">
  <ele>433.369629</ele>
  <time>2011-10-20T05:54:08Z</time>
  <speed>2.730000</speed>
</trkpt>
<trkpt lat="32.730323792" lon="35.039104462">
  <ele>433.111816</ele>
  <time>2011-10-20T05:54:10Z</time>
  <speed>1.180000</speed>
</trkpt>
<trkpt lat="32.730304718" lon="35.039081573">
  <ele>432.986816</ele>
  <time>2011-10-20T05:54:19Z</time>
  <speed>0.480000</speed>
</trkpt>
<trkpt lat="32.730327606" lon="35.039089203">
  <ele>434.783691</ele>
  <time>2011-10-20T05:54:26Z</time>
  <speed>0.040000</speed>
</trkpt>
<trkpt lat="32.730297089" lon="35.039073944">
  <ele>434.682129</ele>
  <time>2011-10-20T05:54:30Z</time>
  <speed>1.610000</speed>
</trkpt>
<trkpt lat="32.730274200" lon="35.039043427">
  <ele>434.361816</ele>
  <time>2011-10-20T05:54:32Z</time>
  <speed>1.780000</speed>
</trkpt>
<trkpt lat="32.730266571" lon="35.038993835">
  <ele>434.111816</ele>
  <time>2011-10-20T05:54:34Z</time>
  <speed>2.350000</speed>
</trkpt>
<trkpt lat="32.730228424" lon="35.038944244">
  <ele>433.275879</ele>
  <time>2011-10-20T05:54:36Z</time>
  <speed>3.220000</speed>
</trkpt>
<trkpt lat="32.730213165" lon="35.038909912">
  <ele>433.080566</ele>
  <time>2011-10-20T05:54:37Z</time>
  <speed>3.250000</speed>
</trkpt>
<trkpt lat="32.730194092" lon="35.038871765">
  <ele>432.963379</ele>
  <time>2011-10-20T05:54:38Z</time>
  <speed>4.190000</speed>
</trkpt>
<trkpt lat="32.730167389" lon="35.038829803">
  <ele>433.041504</ele>
  <time>2011-10-20T05:54:39Z</time>
  <speed>4.770000</speed>
</trkpt>
<trkpt lat="32.730136871" lon="35.038795471">
  <ele>432.814941</ele>
  <time>2011-10-20T05:54:40Z</time>
  <speed>4.860000</speed>
</trkpt>
<trkpt lat="32.730094910" lon="35.038757324">
  <ele>432.369629</ele>
  <time>2011-10-20T05:54:41Z</time>
  <speed>5.240000</speed>
</trkpt>
<trkpt lat="32.730064392" lon="35.038711548">
  <ele>432.518066</ele>
  <time>2011-10-20T05:54:42Z</time>
  <speed>5.270000</speed>
</trkpt>
<trkpt lat="32.730030060" lon="35.038665771">
  <ele>432.455566</ele>
  <time>2011-10-20T05:54:43Z</time>
  <speed>4.970000</speed>
</trkpt>
<trkpt lat="32.729995728" lon="35.038619995">
  <ele>432.314941</ele>
  <time>2011-10-20T05:54:44Z</time>
  <speed>5.270000</speed>
</trkpt>
<trkpt lat="32.729957581" lon="35.038581848">
  <ele>431.924316</ele>
  <time>2011-10-20T05:54:45Z</time>
  <speed>4.790000</speed>
</trkpt>
<trkpt lat="32.729919434" lon="35.038555145">
  <ele>431.549316</ele>
  <time>2011-10-20T05:54:46Z</time>
  <speed>5.180000</speed>
</trkpt>
<trkpt lat="32.729873657" lon="35.038524628">
  <ele>431.260254</ele>
  <time>2011-10-20T05:54:47Z</time>
  <speed>5.460000</speed>
</trkpt>
<trkpt lat="32.729835510" lon="35.038486481">
  <ele>430.564941</ele>
  <time>2011-10-20T05:54:48Z</time>
  <speed>5.490000</speed>
</trkpt>
<trkpt lat="32.729793549" lon="35.038444519">
  <ele>430.439941</ele>
  <time>2011-10-20T05:54:49Z</time>
  <speed>5.740000</speed>
</trkpt>
<trkpt lat="32.729747772" lon="35.038398743">
  <ele>429.885254</ele>
  <time>2011-10-20T05:54:50Z</time>
  <speed>6.080000</speed>
</trkpt>
<trkpt lat="32.729709625" lon="35.038349152">
  <ele>429.557129</ele>
  <time>2011-10-20T05:54:51Z</time>
  <speed>6.440000</speed>
</trkpt>
<trkpt lat="32.729667664" lon="35.038303375">
  <ele>429.299316</ele>
  <time>2011-10-20T05:54:52Z</time>
  <speed>5.960000</speed>
</trkpt>
<trkpt lat="32.729621887" lon="35.038257599">
  <ele>428.760254</ele>
  <time>2011-10-20T05:54:53Z</time>
  <speed>6.410000</speed>
</trkpt>
<trkpt lat="32.729572296" lon="35.038208008">
  <ele>427.494629</ele>
  <time>2011-10-20T05:54:54Z</time>
  <speed>6.580000</speed>
</trkpt>
<trkpt lat="32.729545593" lon="35.038146973">
  <ele>425.494629</ele>
  <time>2011-10-20T05:54:55Z</time>
  <speed>6.920000</speed>
</trkpt>
<trkpt lat="32.729507446" lon="35.038085938">
  <ele>425.213379</ele>
  <time>2011-10-20T05:54:56Z</time>
  <speed>7.000000</speed>
</trkpt>
<trkpt lat="32.729465485" lon="35.038028717">
  <ele>425.080566</ele>
  <time>2011-10-20T05:54:57Z</time>
  <speed>6.440000</speed>
</trkpt>
<trkpt lat="32.729423523" lon="35.037975311">
  <ele>424.979004</ele>
  <time>2011-10-20T05:54:58Z</time>
  <speed>6.320000</speed>
</trkpt>
<trkpt lat="32.729377747" lon="35.037933350">
  <ele>424.877441</ele>
  <time>2011-10-20T05:54:59Z</time>
  <speed>5.440000</speed>
</trkpt>
<trkpt lat="32.729331970" lon="35.037899017">
  <ele>423.822754</ele>
  <time>2011-10-20T05:55:00Z</time>
  <speed>5.180000</speed>
</trkpt>
<trkpt lat="32.729301453" lon="35.037876129">
  <ele>423.049316</ele>
  <time>2011-10-20T05:55:01Z</time>
  <speed>3.130000</speed>
</trkpt>
<trkpt lat="32.729259491" lon="35.037841797">
  <ele>422.252441</ele>
  <time>2011-10-20T05:55:03Z</time>
  <speed>3.080000</speed>
</trkpt>
<trkpt lat="32.729228973" lon="35.037826538">
  <ele>421.689941</ele>
  <time>2011-10-20T05:55:04Z</time>
  <speed>3.800000</speed>
</trkpt>
<trkpt lat="32.729206085" lon="35.037807465">
  <ele>419.814941</ele>
  <time>2011-10-20T05:55:05Z</time>
  <speed>3.080000</speed>
</trkpt>
<trkpt lat="32.729167938" lon="35.037776947">
  <ele>418.275879</ele>
  <time>2011-10-20T05:55:07Z</time>
  <speed>1.860000</speed>
</trkpt>
<trkpt lat="32.729145050" lon="35.037742615">
  <ele>414.838379</ele>
  <time>2011-10-20T05:55:09Z</time>
  <speed>2.340000</speed>
</trkpt>
<trkpt lat="32.729110718" lon="35.037700653">
  <ele>412.947754</ele>
  <time>2011-10-20T05:55:11Z</time>
  <speed>3.780000</speed>
</trkpt>
<trkpt lat="32.729076385" lon="35.037689209">
  <ele>412.252441</ele>
  <time>2011-10-20T05:55:12Z</time>
  <speed>4.300000</speed>
</trkpt>
<trkpt lat="32.729034424" lon="35.037666321">
  <ele>411.861816</ele>
  <time>2011-10-20T05:55:13Z</time>
  <speed>4.780000</speed>
</trkpt>
<trkpt lat="32.728996277" lon="35.037647247">
  <ele>411.494629</ele>
  <time>2011-10-20T05:55:14Z</time>
  <speed>5.040000</speed>
</trkpt>
<trkpt lat="32.728950500" lon="35.037620544">
  <ele>411.064941</ele>
  <time>2011-10-20T05:55:15Z</time>
  <speed>5.140000</speed>
</trkpt>
<trkpt lat="32.728908539" lon="35.037597656">
  <ele>410.221191</ele>
  <time>2011-10-20T05:55:16Z</time>
  <speed>5.160000</speed>
</trkpt>
<trkpt lat="32.728862762" lon="35.037570953">
  <ele>409.783691</ele>
  <time>2011-10-20T05:55:17Z</time>
  <speed>5.180000</speed>
</trkpt>
<trkpt lat="32.728805542" lon="35.037555695">
  <ele>409.744629</ele>
  <time>2011-10-20T05:55:18Z</time>
  <speed>5.640000</speed>
</trkpt>
<trkpt lat="32.728748322" lon="35.037544250">
  <ele>409.854004</ele>
  <time>2011-10-20T05:55:19Z</time>
  <speed>5.560000</speed>
</trkpt>
<trkpt lat="32.728698730" lon="35.037532806">
  <ele>408.564941</ele>
  <time>2011-10-20T05:55:20Z</time>
  <speed>5.050000</speed>
</trkpt>
<trkpt lat="32.728649139" lon="35.037528992">
  <ele>408.486816</ele>
  <time>2011-10-20T05:55:21Z</time>
  <speed>4.390000</speed>
</trkpt>
<trkpt lat="32.728614807" lon="35.037517548">
  <ele>408.221191</ele>
  <time>2011-10-20T05:55:22Z</time>
  <speed>3.750000</speed>
</trkpt>
<trkpt lat="32.728580475" lon="35.037506104">
  <ele>407.666504</ele>
  <time>2011-10-20T05:55:23Z</time>
  <speed>3.990000</speed>
</trkpt>
<trkpt lat="32.728549957" lon="35.037487030">
  <ele>406.939941</ele>
  <time>2011-10-20T05:55:24Z</time>
  <speed>4.350000</speed>
</trkpt>
<trkpt lat="32.728515625" lon="35.037464142">
  <ele>406.893066</ele>
  <time>2011-10-20T05:55:25Z</time>
  <speed>4.500000</speed>
</trkpt>
<trkpt lat="32.728481293" lon="35.037433624">
  <ele>406.439941</ele>
  <time>2011-10-20T05:55:26Z</time>
  <speed>4.670000</speed>
</trkpt>
<trkpt lat="32.728446960" lon="35.037399292">
  <ele>405.869629</ele>
  <time>2011-10-20T05:55:27Z</time>
  <speed>4.920000</speed>
</trkpt>
<trkpt lat="32.728408813" lon="35.037376404">
  <ele>404.518066</ele>
  <time>2011-10-20T05:55:28Z</time>
  <speed>5.280000</speed>
</trkpt>
<trkpt lat="32.728363037" lon="35.037364960">
  <ele>404.455566</ele>
  <time>2011-10-20T05:55:29Z</time>
  <speed>5.560000</speed>
</trkpt>
<trkpt lat="32.728317261" lon="35.037334442">
  <ele>403.939941</ele>
  <time>2011-10-20T05:55:30Z</time>
  <speed>5.610000</speed>
</trkpt>
<trkpt lat="32.728271484" lon="35.037300110">
  <ele>403.986816</ele>
  <time>2011-10-20T05:55:31Z</time>
  <speed>5.800000</speed>
</trkpt>
<trkpt lat="32.728221893" lon="35.037261963">
  <ele>403.291504</ele>
  <time>2011-10-20T05:55:32Z</time>
  <speed>6.330000</speed>
</trkpt>
<trkpt lat="32.728160858" lon="35.037235260">
  <ele>402.463379</ele>
  <time>2011-10-20T05:55:33Z</time>
  <speed>6.680000</speed>
</trkpt>
<trkpt lat="32.728096008" lon="35.037223816">
  <ele>400.229004</ele>
  <time>2011-10-20T05:55:34Z</time>
  <speed>6.630000</speed>
</trkpt>
<trkpt lat="32.728034973" lon="35.037208557">
  <ele>397.549316</ele>
  <time>2011-10-20T05:55:35Z</time>
  <speed>6.370000</speed>
</trkpt>
<trkpt lat="32.727981567" lon="35.037181854">
  <ele>396.486816</ele>
  <time>2011-10-20T05:55:36Z</time>
  <speed>6.000000</speed>
</trkpt>
<trkpt lat="32.727939606" lon="35.037139893">
  <ele>395.783691</ele>
  <time>2011-10-20T05:55:37Z</time>
  <speed>5.650000</speed>
</trkpt>
<trkpt lat="32.727905273" lon="35.037094116">
  <ele>395.596191</ele>
  <time>2011-10-20T05:55:38Z</time>
  <speed>5.980000</speed>
</trkpt>
<trkpt lat="32.727870941" lon="35.037052155">
  <ele>394.775879</ele>
  <time>2011-10-20T05:55:39Z</time>
  <speed>5.690000</speed>
</trkpt>
<trkpt lat="32.727821350" lon="35.037017822">
  <ele>394.760254</ele>
  <time>2011-10-20T05:55:40Z</time>
  <speed>5.880000</speed>
</trkpt>
<trkpt lat="32.727771759" lon="35.036987305">
  <ele>394.627441</ele>
  <time>2011-10-20T05:55:41Z</time>
  <speed>6.590000</speed>
</trkpt>
<trkpt lat="32.727722168" lon="35.036956787">
  <ele>393.299316</ele>
  <time>2011-10-20T05:55:42Z</time>
  <speed>6.460000</speed>
</trkpt>
<trkpt lat="32.727668762" lon="35.036937714">
  <ele>393.252441</ele>
  <time>2011-10-20T05:55:43Z</time>
  <speed>6.310000</speed>
</trkpt>
<trkpt lat="32.727607727" lon="35.036926270">
  <ele>393.744629</ele>
  <time>2011-10-20T05:55:44Z</time>
  <speed>6.460000</speed>
</trkpt>
<trkpt lat="32.727550507" lon="35.036914825">
  <ele>393.166504</ele>
  <time>2011-10-20T05:55:45Z</time>
  <speed>6.350000</speed>
</trkpt>
<trkpt lat="32.727497101" lon="35.036895752">
  <ele>392.963379</ele>
  <time>2011-10-20T05:55:46Z</time>
  <speed>6.560000</speed>
</trkpt>
<trkpt lat="32.727436066" lon="35.036876678">
  <ele>393.424316</ele>
  <time>2011-10-20T05:55:47Z</time>
  <speed>6.670000</speed>
</trkpt>
<trkpt lat="32.727378845" lon="35.036857605">
  <ele>392.330566</ele>
  <time>2011-10-20T05:55:48Z</time>
  <speed>6.410000</speed>
</trkpt>
<trkpt lat="32.727329254" lon="35.036834717">
  <ele>393.291504</ele>
  <time>2011-10-20T05:55:49Z</time>
  <speed>5.630000</speed>
</trkpt>
<trkpt lat="32.727291107" lon="35.036804199">
  <ele>393.486816</ele>
  <time>2011-10-20T05:55:50Z</time>
  <speed>4.630000</speed>
</trkpt>
<trkpt lat="32.727264404" lon="35.036777496">
  <ele>393.057129</ele>
  <time>2011-10-20T05:55:51Z</time>
  <speed>3.330000</speed>
</trkpt>
<trkpt lat="32.727245331" lon="35.036746979">
  <ele>391.346191</ele>
  <time>2011-10-20T05:55:52Z</time>
  <speed>3.670000</speed>
</trkpt>
<trkpt lat="32.727226257" lon="35.036724091">
  <ele>391.338379</ele>
  <time>2011-10-20T05:55:53Z</time>
  <speed>3.120000</speed>
</trkpt>
<trkpt lat="32.727203369" lon="35.036701202">
  <ele>391.814941</ele>
  <time>2011-10-20T05:55:54Z</time>
  <speed>3.070000</speed>
</trkpt>
<trkpt lat="32.727180481" lon="35.036678314">
  <ele>392.275879</ele>
  <time>2011-10-20T05:55:55Z</time>
  <speed>3.080000</speed>
</trkpt>
<trkpt lat="32.727157593" lon="35.036655426">
  <ele>392.377441</ele>
  <time>2011-10-20T05:55:56Z</time>
  <speed>3.810000</speed>
</trkpt>
<trkpt lat="32.727123260" lon="35.036632538">
  <ele>391.604004</ele>
  <time>2011-10-20T05:55:57Z</time>
  <speed>4.120000</speed>
</trkpt>
<trkpt lat="32.727088928" lon="35.036609650">
  <ele>391.244629</ele>
  <time>2011-10-20T05:55:58Z</time>
  <speed>4.840000</speed>
</trkpt>
<trkpt lat="32.727046967" lon="35.036582947">
  <ele>390.783691</ele>
  <time>2011-10-20T05:55:59Z</time>
  <speed>5.070000</speed>
</trkpt>
<trkpt lat="32.727005005" lon="35.036560059">
  <ele>390.791504</ele>
  <time>2011-10-20T05:56:00Z</time>
  <speed>5.310000</speed>
</trkpt>
<trkpt lat="32.726955414" lon="35.036537170">
  <ele>390.979004</ele>
  <time>2011-10-20T05:56:01Z</time>
  <speed>5.680000</speed>
</trkpt>
<trkpt lat="32.726902008" lon="35.036510468">
  <ele>391.479004</ele>
  <time>2011-10-20T05:56:02Z</time>
  <speed>6.030000</speed>
</trkpt>
<trkpt lat="32.726848602" lon="35.036487579">
  <ele>391.424316</ele>
  <time>2011-10-20T05:56:03Z</time>
  <speed>6.100000</speed>
</trkpt>
<trkpt lat="32.726795197" lon="35.036464691">
  <ele>391.197754</ele>
  <time>2011-10-20T05:56:04Z</time>
  <speed>6.410000</speed>
</trkpt>
<trkpt lat="32.726734161" lon="35.036460876">
  <ele>391.307129</ele>
  <time>2011-10-20T05:56:05Z</time>
  <speed>6.480000</speed>
</trkpt>
<trkpt lat="32.726676941" lon="35.036453247">
  <ele>390.721191</ele>
  <time>2011-10-20T05:56:06Z</time>
  <speed>6.400000</speed>
</trkpt>
<trkpt lat="32.726619720" lon="35.036445618">
  <ele>390.033691</ele>
  <time>2011-10-20T05:56:07Z</time>
  <speed>6.430000</speed>
</trkpt>
<trkpt lat="32.726558685" lon="35.036445618">
  <ele>388.385254</ele>
  <time>2011-10-20T05:56:08Z</time>
  <speed>6.020000</speed>
</trkpt>
<trkpt lat="32.726512909" lon="35.036434174">
  <ele>386.158691</ele>
  <time>2011-10-20T05:56:09Z</time>
  <speed>5.400000</speed>
</trkpt>
<trkpt lat="32.726474762" lon="35.036415100">
  <ele>385.244629</ele>
  <time>2011-10-20T05:56:10Z</time>
  <speed>4.510000</speed>
</trkpt>
<trkpt lat="32.726444244" lon="35.036384583">
  <ele>384.963379</ele>
  <time>2011-10-20T05:56:11Z</time>
  <speed>4.580000</speed>
</trkpt>
<trkpt lat="32.726417542" lon="35.036354065">
  <ele>384.369629</ele>
  <time>2011-10-20T05:56:12Z</time>
  <speed>4.100000</speed>
</trkpt>
<trkpt lat="32.726387024" lon="35.036338806">
  <ele>383.713379</ele>
  <time>2011-10-20T05:56:13Z</time>
  <speed>3.220000</speed>
</trkpt>
<trkpt lat="32.726364136" lon="35.036331177">
  <ele>382.346191</ele>
  <time>2011-10-20T05:56:14Z</time>
  <speed>2.610000</speed>
</trkpt>
<trkpt lat="32.726337433" lon="35.036300659">
  <ele>381.283691</ele>
  <time>2011-10-20T05:56:16Z</time>
  <speed>2.230000</speed>
</trkpt>
<trkpt lat="32.726314545" lon="35.036251068">
  <ele>379.486816</ele>
  <time>2011-10-20T05:56:18Z</time>
  <speed>3.300000</speed>
</trkpt>
<trkpt lat="32.726291656" lon="35.036216736">
  <ele>379.283691</ele>
  <time>2011-10-20T05:56:19Z</time>
  <speed>4.200000</speed>
</trkpt>
<trkpt lat="32.726264954" lon="35.036186218">
  <ele>377.947754</ele>
  <time>2011-10-20T05:56:20Z</time>
  <speed>4.130000</speed>
</trkpt>
<trkpt lat="32.726245880" lon="35.036148071">
  <ele>377.080566</ele>
  <time>2011-10-20T05:56:21Z</time>
  <speed>4.020000</speed>
</trkpt>
<trkpt lat="32.726219177" lon="35.036117554">
  <ele>375.729004</ele>
  <time>2011-10-20T05:56:22Z</time>
  <speed>3.730000</speed>
</trkpt>
<trkpt lat="32.726192474" lon="35.036087036">
  <ele>374.361816</ele>
  <time>2011-10-20T05:56:23Z</time>
  <speed>3.960000</speed>
</trkpt>
<trkpt lat="32.726169586" lon="35.036056519">
  <ele>372.127441</ele>
  <time>2011-10-20T05:56:24Z</time>
  <speed>3.600000</speed>
</trkpt>
<trkpt lat="32.726146698" lon="35.036022186">
  <ele>371.986816</ele>
  <time>2011-10-20T05:56:25Z</time>
  <speed>3.560000</speed>
</trkpt>
<trkpt lat="32.726135254" lon="35.035987854">
  <ele>371.033691</ele>
  <time>2011-10-20T05:56:26Z</time>
  <speed>3.160000</speed>
</trkpt>
<trkpt lat="32.726123810" lon="35.035961151">
  <ele>370.775879</ele>
  <time>2011-10-20T05:56:27Z</time>
  <speed>2.970000</speed>
</trkpt>
<trkpt lat="32.726112366" lon="35.035930634">
  <ele>369.408691</ele>
  <time>2011-10-20T05:56:28Z</time>
  <speed>2.780000</speed>
</trkpt>
<trkpt lat="32.726097107" lon="35.035907745">
  <ele>368.080566</ele>
  <time>2011-10-20T05:56:29Z</time>
  <speed>3.070000</speed>
</trkpt>
<trkpt lat="32.726078033" lon="35.035884857">
  <ele>367.010254</ele>
  <time>2011-10-20T05:56:30Z</time>
  <speed>2.750000</speed>
</trkpt>
<trkpt lat="32.726055145" lon="35.035861969">
  <ele>366.650879</ele>
  <time>2011-10-20T05:56:31Z</time>
  <speed>3.150000</speed>
</trkpt>
<trkpt lat="32.726039886" lon="35.035835266">
  <ele>366.135254</ele>
  <time>2011-10-20T05:56:32Z</time>
  <speed>3.120000</speed>
</trkpt>
<trkpt lat="32.726016998" lon="35.035804749">
  <ele>365.104004</ele>
  <time>2011-10-20T05:56:33Z</time>
  <speed>3.560000</speed>
</trkpt>
<trkpt lat="32.725997925" lon="35.035774231">
  <ele>363.885254</ele>
  <time>2011-10-20T05:56:34Z</time>
  <speed>2.890000</speed>
</trkpt>
<trkpt lat="32.725978851" lon="35.035747528">
  <ele>363.283691</ele>
  <time>2011-10-20T05:56:35Z</time>
  <speed>3.450000</speed>
</trkpt>
<trkpt lat="32.725963593" lon="35.035713196">
  <ele>362.674316</ele>
  <time>2011-10-20T05:56:36Z</time>
  <speed>3.290000</speed>
</trkpt>
<trkpt lat="32.725948334" lon="35.035682678">
  <ele>361.893066</ele>
  <time>2011-10-20T05:56:37Z</time>
  <speed>3.330000</speed>
</trkpt>
<trkpt lat="32.725933075" lon="35.035655975">
  <ele>361.229004</ele>
  <time>2011-10-20T05:56:38Z</time>
  <speed>2.810000</speed>
</trkpt>
<trkpt lat="32.725910187" lon="35.035606384">
  <ele>361.057129</ele>
  <time>2011-10-20T05:56:40Z</time>
  <speed>2.290000</speed>
</trkpt>
<trkpt lat="32.725883484" lon="35.035572052">
  <ele>360.510254</ele>
  <time>2011-10-20T05:56:42Z</time>
  <speed>2.040000</speed>
</trkpt>
<trkpt lat="32.725841522" lon="35.035545349">
  <ele>359.111816</ele>
  <time>2011-10-20T05:56:44Z</time>
  <speed>2.800000</speed>
</trkpt>
<trkpt lat="32.725814819" lon="35.035533905">
  <ele>357.525879</ele>
  <time>2011-10-20T05:56:45Z</time>
  <speed>2.870000</speed>
</trkpt>
<trkpt lat="32.725791931" lon="35.035514832">
  <ele>356.025879</ele>
  <time>2011-10-20T05:56:46Z</time>
  <speed>2.680000</speed>
</trkpt>
<trkpt lat="32.725772858" lon="35.035491943">
  <ele>355.869629</ele>
  <time>2011-10-20T05:56:49Z</time>
  <speed>0.880000</speed>
</trkpt>
<trkpt lat="32.725742340" lon="35.035484314">
  <ele>355.838379</ele>
  <time>2011-10-20T05:56:52Z</time>
  <speed>1.550000</speed>
</trkpt>
<trkpt lat="32.725700378" lon="35.035495758">
  <ele>355.268066</ele>
  <time>2011-10-20T05:56:54Z</time>
  <speed>2.770000</speed>
</trkpt>
<trkpt lat="32.725666046" lon="35.035491943">
  <ele>355.627441</ele>
  <time>2011-10-20T05:56:55Z</time>
  <speed>2.830000</speed>
</trkpt>
<trkpt lat="32.725616455" lon="35.035461426">
  <ele>354.408691</ele>
  <time>2011-10-20T05:56:57Z</time>
  <speed>3.410000</speed>
</trkpt>
<trkpt lat="32.725589752" lon="35.035434723">
  <ele>353.471191</ele>
  <time>2011-10-20T05:56:58Z</time>
  <speed>4.750000</speed>
</trkpt>
<trkpt lat="32.725559235" lon="35.035392761">
  <ele>352.518066</ele>
  <time>2011-10-20T05:56:59Z</time>
  <speed>4.860000</speed>
</trkpt>
<trkpt lat="32.725524902" lon="35.035350800">
  <ele>351.018066</ele>
  <time>2011-10-20T05:57:00Z</time>
  <speed>5.440000</speed>
</trkpt>
<trkpt lat="32.725494385" lon="35.035301208">
  <ele>350.393066</ele>
  <time>2011-10-20T05:57:01Z</time>
  <speed>5.510000</speed>
</trkpt>
<trkpt lat="32.725471497" lon="35.035247803">
  <ele>349.830566</ele>
  <time>2011-10-20T05:57:02Z</time>
  <speed>5.260000</speed>
</trkpt>
<trkpt lat="32.725452423" lon="35.035198212">
  <ele>350.041504</ele>
  <time>2011-10-20T05:57:03Z</time>
  <speed>4.450000</speed>
</trkpt>
<trkpt lat="32.725429535" lon="35.035160065">
  <ele>351.010254</ele>
  <time>2011-10-20T05:57:04Z</time>
  <speed>4.060000</speed>
</trkpt>
<trkpt lat="32.725414276" lon="35.035121918">
  <ele>350.643066</ele>
  <time>2011-10-20T05:57:05Z</time>
  <speed>3.810000</speed>
</trkpt>
<trkpt lat="32.725399017" lon="35.035076141">
  <ele>351.330566</ele>
  <time>2011-10-20T05:57:06Z</time>
  <speed>4.160000</speed>
</trkpt>
<trkpt lat="32.725387573" lon="35.035034180">
  <ele>351.275879</ele>
  <time>2011-10-20T05:57:07Z</time>
  <speed>4.250000</speed>
</trkpt>
<trkpt lat="32.725368500" lon="35.034984589">
  <ele>349.963379</ele>
  <time>2011-10-20T05:57:08Z</time>
  <speed>4.390000</speed>
</trkpt>
<trkpt lat="32.725345612" lon="35.034946442">
  <ele>350.057129</ele>
  <time>2011-10-20T05:57:09Z</time>
  <speed>3.870000</speed>
</trkpt>
<trkpt lat="32.725330353" lon="35.034904480">
  <ele>349.471191</ele>
  <time>2011-10-20T05:57:10Z</time>
  <speed>4.230000</speed>
</trkpt>
<trkpt lat="32.725311279" lon="35.034866333">
  <ele>349.885254</ele>
  <time>2011-10-20T05:57:11Z</time>
  <speed>3.340000</speed>
</trkpt>
<trkpt lat="32.725296021" lon="35.034839630">
  <ele>349.736816</ele>
  <time>2011-10-20T05:57:12Z</time>
  <speed>3.520000</speed>
</trkpt>
<trkpt lat="32.725273132" lon="35.034812927">
  <ele>349.471191</ele>
  <time>2011-10-20T05:57:13Z</time>
  <speed>3.460000</speed>
</trkpt>
<trkpt lat="32.725246429" lon="35.034786224">
  <ele>349.557129</ele>
  <time>2011-10-20T05:57:14Z</time>
  <speed>4.020000</speed>
</trkpt>
<trkpt lat="32.725215912" lon="35.034759521">
  <ele>349.924316</ele>
  <time>2011-10-20T05:57:15Z</time>
  <speed>4.160000</speed>
</trkpt>
<trkpt lat="32.725173950" lon="35.034732819">
  <ele>349.354004</ele>
  <time>2011-10-20T05:57:16Z</time>
  <speed>5.020000</speed>
</trkpt>
<trkpt lat="32.725131989" lon="35.034694672">
  <ele>351.088379</ele>
  <time>2011-10-20T05:57:17Z</time>
  <speed>5.300000</speed>
</trkpt>
<trkpt lat="32.725090027" lon="35.034664154">
  <ele>351.166504</ele>
  <time>2011-10-20T05:57:18Z</time>
  <speed>5.070000</speed>
</trkpt>
<trkpt lat="32.725051880" lon="35.034633636">
  <ele>351.846191</ele>
  <time>2011-10-20T05:57:19Z</time>
  <speed>5.140000</speed>
</trkpt>
<trkpt lat="32.725013733" lon="35.034603119">
  <ele>352.150879</ele>
  <time>2011-10-20T05:57:20Z</time>
  <speed>4.750000</speed>
</trkpt>
<trkpt lat="32.724975586" lon="35.034572601">
  <ele>352.166504</ele>
  <time>2011-10-20T05:57:21Z</time>
  <speed>4.200000</speed>
</trkpt>
<trkpt lat="32.724937439" lon="35.034549713">
  <ele>351.939941</ele>
  <time>2011-10-20T05:57:22Z</time>
  <speed>4.190000</speed>
</trkpt>
<trkpt lat="32.724914551" lon="35.034523010">
  <ele>350.525879</ele>
  <time>2011-10-20T05:57:23Z</time>
  <speed>3.710000</speed>
</trkpt>
<trkpt lat="32.724891663" lon="35.034496307">
  <ele>349.275879</ele>
  <time>2011-10-20T05:57:24Z</time>
  <speed>3.540000</speed>
</trkpt>
<trkpt lat="32.724861145" lon="35.034477234">
  <ele>348.619629</ele>
  <time>2011-10-20T05:57:25Z</time>
  <speed>3.270000</speed>
</trkpt>
<trkpt lat="32.724830627" lon="35.034469604">
  <ele>348.955566</ele>
  <time>2011-10-20T05:57:26Z</time>
  <speed>2.960000</speed>
</trkpt>
<trkpt lat="32.724807739" lon="35.034454346">
  <ele>348.057129</ele>
  <time>2011-10-20T05:57:27Z</time>
  <speed>3.330000</speed>
</trkpt>
<trkpt lat="32.724781036" lon="35.034427643">
  <ele>348.322754</ele>
  <time>2011-10-20T05:57:28Z</time>
  <speed>3.630000</speed>
</trkpt>
<trkpt lat="32.724765778" lon="35.034397125">
  <ele>347.713379</ele>
  <time>2011-10-20T05:57:29Z</time>
  <speed>3.120000</speed>
</trkpt>
<trkpt lat="32.724750519" lon="35.034366608">
  <ele>347.486816</ele>
  <time>2011-10-20T05:57:30Z</time>
  <speed>3.100000</speed>
</trkpt>
<trkpt lat="32.724731445" lon="35.034336090">
  <ele>346.096191</ele>
  <time>2011-10-20T05:57:31Z</time>
  <speed>3.580000</speed>
</trkpt>
<trkpt lat="32.724708557" lon="35.034305573">
  <ele>346.314941</ele>
  <time>2011-10-20T05:57:32Z</time>
  <speed>4.210000</speed>
</trkpt>
<trkpt lat="32.724685669" lon="35.034267426">
  <ele>346.150879</ele>
  <time>2011-10-20T05:57:33Z</time>
  <speed>4.240000</speed>
</trkpt>
<trkpt lat="32.724658966" lon="35.034236908">
  <ele>345.580566</ele>
  <time>2011-10-20T05:57:34Z</time>
  <speed>4.440000</speed>
</trkpt>
<trkpt lat="32.724624634" lon="35.034206390">
  <ele>345.049316</ele>
  <time>2011-10-20T05:57:35Z</time>
  <speed>4.420000</speed>
</trkpt>
<trkpt lat="32.724586487" lon="35.034183502">
  <ele>344.525879</ele>
  <time>2011-10-20T05:57:36Z</time>
  <speed>4.080000</speed>
</trkpt>
<trkpt lat="32.724555969" lon="35.034156799">
  <ele>343.830566</ele>
  <time>2011-10-20T05:57:37Z</time>
  <speed>3.990000</speed>
</trkpt>
<trkpt lat="32.724529266" lon="35.034133911">
  <ele>343.150879</ele>
  <time>2011-10-20T05:57:38Z</time>
  <speed>3.660000</speed>
</trkpt>
<trkpt lat="32.724502563" lon="35.034114838">
  <ele>342.916504</ele>
  <time>2011-10-20T05:57:39Z</time>
  <speed>3.150000</speed>
</trkpt>
<trkpt lat="32.724479675" lon="35.034095764">
  <ele>341.736816</ele>
  <time>2011-10-20T05:57:40Z</time>
  <speed>2.640000</speed>
</trkpt>
<trkpt lat="32.724430084" lon="35.034069061">
  <ele>341.400879</ele>
  <time>2011-10-20T05:57:42Z</time>
  <speed>2.580000</speed>
</trkpt>
<trkpt lat="32.724407196" lon="35.034057617">
  <ele>342.135254</ele>
  <time>2011-10-20T05:57:43Z</time>
  <speed>2.690000</speed>
</trkpt>
<trkpt lat="32.724384308" lon="35.034038544">
  <ele>343.666504</ele>
  <time>2011-10-20T05:57:44Z</time>
  <speed>2.520000</speed>
</trkpt>
<trkpt lat="32.724357605" lon="35.033992767">
  <ele>344.947754</ele>
  <time>2011-10-20T05:57:46Z</time>
  <speed>2.470000</speed>
</trkpt>
<trkpt lat="32.724330902" lon="35.033973694">
  <ele>345.143066</ele>
  <time>2011-10-20T05:57:47Z</time>
  <speed>3.200000</speed>
</trkpt>
<trkpt lat="32.724304199" lon="35.033954620">
  <ele>345.189941</ele>
  <time>2011-10-20T05:57:48Z</time>
  <speed>3.030000</speed>
</trkpt>
<trkpt lat="32.724269867" lon="35.033924103">
  <ele>342.713379</ele>
  <time>2011-10-20T05:57:50Z</time>
  <speed>2.400000</speed>
</trkpt>
<trkpt lat="32.724227905" lon="35.033897400">
  <ele>342.846191</ele>
  <time>2011-10-20T05:57:52Z</time>
  <speed>2.770000</speed>
</trkpt>
<trkpt lat="32.724201202" lon="35.033878326">
  <ele>342.588379</ele>
  <time>2011-10-20T05:57:53Z</time>
  <speed>3.310000</speed>
</trkpt>
<trkpt lat="32.724178314" lon="35.033855438">
  <ele>342.604004</ele>
  <time>2011-10-20T05:57:54Z</time>
  <speed>3.730000</speed>
</trkpt>
<trkpt lat="32.724151611" lon="35.033824921">
  <ele>340.197754</ele>
  <time>2011-10-20T05:57:55Z</time>
  <speed>3.580000</speed>
</trkpt>
<trkpt lat="32.724128723" lon="35.033798218">
  <ele>340.760254</ele>
  <time>2011-10-20T05:57:56Z</time>
  <speed>3.770000</speed>
</trkpt>
<trkpt lat="32.724109650" lon="35.033767700">
  <ele>340.924316</ele>
  <time>2011-10-20T05:57:57Z</time>
  <speed>3.340000</speed>
</trkpt>
<trkpt lat="32.724090576" lon="35.033737183">
  <ele>340.768066</ele>
  <time>2011-10-20T05:57:58Z</time>
  <speed>3.340000</speed>
</trkpt>
<trkpt lat="32.724082947" lon="35.033706665">
  <ele>341.510254</ele>
  <time>2011-10-20T05:57:59Z</time>
  <speed>2.880000</speed>
</trkpt>
<trkpt lat="32.724063873" lon="35.033649445">
  <ele>341.330566</ele>
  <time>2011-10-20T05:58:01Z</time>
  <speed>2.270000</speed>
</trkpt>
<trkpt lat="32.724048615" lon="35.033615112">
  <ele>341.338379</ele>
  <time>2011-10-20T05:58:03Z</time>
  <speed>1.970000</speed>
</trkpt>
<trkpt lat="32.724018097" lon="35.033569336">
  <ele>340.838379</ele>
  <time>2011-10-20T05:58:05Z</time>
  <speed>2.510000</speed>
</trkpt>
<trkpt lat="32.723995209" lon="35.033550262">
  <ele>340.885254</ele>
  <time>2011-10-20T05:58:06Z</time>
  <speed>3.160000</speed>
</trkpt>
<trkpt lat="32.723964691" lon="35.033527374">
  <ele>341.471191</ele>
  <time>2011-10-20T05:58:07Z</time>
  <speed>4.060000</speed>
</trkpt>
<trkpt lat="32.723930359" lon="35.033489227">
  <ele>341.650879</ele>
  <time>2011-10-20T05:58:08Z</time>
  <speed>4.580000</speed>
</trkpt>
<trkpt lat="32.723896027" lon="35.033458710">
  <ele>341.502441</ele>
  <time>2011-10-20T05:58:09Z</time>
  <speed>4.070000</speed>
</trkpt>
<trkpt lat="32.723850250" lon="35.033432007">
  <ele>341.619629</ele>
  <time>2011-10-20T05:58:10Z</time>
  <speed>4.620000</speed>
</trkpt>
<trkpt lat="32.723815918" lon="35.033405304">
  <ele>340.814941</ele>
  <time>2011-10-20T05:58:11Z</time>
  <speed>4.510000</speed>
</trkpt>
<trkpt lat="32.723777771" lon="35.033374786">
  <ele>340.213379</ele>
  <time>2011-10-20T05:58:12Z</time>
  <speed>4.950000</speed>
</trkpt>
<trkpt lat="32.723735809" lon="35.033344269">
  <ele>338.635254</ele>
  <time>2011-10-20T05:58:13Z</time>
  <speed>4.340000</speed>
</trkpt>
<trkpt lat="32.723705292" lon="35.033317566">
  <ele>338.213379</ele>
  <time>2011-10-20T05:58:14Z</time>
  <speed>4.170000</speed>
</trkpt>
<trkpt lat="32.723678589" lon="35.033287048">
  <ele>337.916504</ele>
  <time>2011-10-20T05:58:15Z</time>
  <speed>3.690000</speed>
</trkpt>
<trkpt lat="32.723648071" lon="35.033260345">
  <ele>337.471191</ele>
  <time>2011-10-20T05:58:16Z</time>
  <speed>3.650000</speed>
</trkpt>
<trkpt lat="32.723613739" lon="35.033229828">
  <ele>337.057129</ele>
  <time>2011-10-20T05:58:17Z</time>
  <speed>4.300000</speed>
</trkpt>
<trkpt lat="32.723575592" lon="35.033206940">
  <ele>336.611816</ele>
  <time>2011-10-20T05:58:18Z</time>
  <speed>5.060000</speed>
</trkpt>
<trkpt lat="32.723545074" lon="35.033168793">
  <ele>336.189941</ele>
  <time>2011-10-20T05:58:19Z</time>
  <speed>4.050000</speed>
</trkpt>
<trkpt lat="32.723526001" lon="35.033126831">
  <ele>336.658691</ele>
  <time>2011-10-20T05:58:20Z</time>
  <speed>4.310000</speed>
</trkpt>
<trkpt lat="32.723510742" lon="35.033088684">
  <ele>337.049316</ele>
  <time>2011-10-20T05:58:21Z</time>
  <speed>3.980000</speed>
</trkpt>
<trkpt lat="32.723495483" lon="35.033050537">
  <ele>337.611816</ele>
  <time>2011-10-20T05:58:22Z</time>
  <speed>3.700000</speed>
</trkpt>
<trkpt lat="32.723472595" lon="35.033008575">
  <ele>337.713379</ele>
  <time>2011-10-20T05:58:23Z</time>
  <speed>4.400000</speed>
</trkpt>
<trkpt lat="32.723442078" lon="35.032966614">
  <ele>337.932129</ele>
  <time>2011-10-20T05:58:24Z</time>
  <speed>4.740000</speed>
</trkpt>
<trkpt lat="32.723415375" lon="35.032932281">
  <ele>336.705566</ele>
  <time>2011-10-20T05:58:25Z</time>
  <speed>4.420000</speed>
</trkpt>
<trkpt lat="32.723392487" lon="35.032894135">
  <ele>336.377441</ele>
  <time>2011-10-20T05:58:26Z</time>
  <speed>4.050000</speed>
</trkpt>
<trkpt lat="32.723377228" lon="35.032859802">
  <ele>335.854004</ele>
  <time>2011-10-20T05:58:27Z</time>
  <speed>3.470000</speed>
</trkpt>
<trkpt lat="32.723369598" lon="35.032825470">
  <ele>335.666504</ele>
  <time>2011-10-20T05:58:28Z</time>
  <speed>3.250000</speed>
</trkpt>
<trkpt lat="32.723346710" lon="35.032794952">
  <ele>334.424316</ele>
  <time>2011-10-20T05:58:29Z</time>
  <speed>3.940000</speed>
</trkpt>
<trkpt lat="32.723320007" lon="35.032764435">
  <ele>333.877441</ele>
  <time>2011-10-20T05:58:30Z</time>
  <speed>4.510000</speed>
</trkpt>
<trkpt lat="32.723285675" lon="35.032730103">
  <ele>333.174316</ele>
  <time>2011-10-20T05:58:31Z</time>
  <speed>4.400000</speed>
</trkpt>
<trkpt lat="32.723255157" lon="35.032714844">
  <ele>331.041504</ele>
  <time>2011-10-20T05:58:32Z</time>
  <speed>4.160000</speed>
</trkpt>
<trkpt lat="32.723228455" lon="35.032680511">
  <ele>330.807129</ele>
  <time>2011-10-20T05:58:33Z</time>
  <speed>4.170000</speed>
</trkpt>
<trkpt lat="32.723205566" lon="35.032638550">
  <ele>329.963379</ele>
  <time>2011-10-20T05:58:34Z</time>
  <speed>5.320000</speed>
</trkpt>
<trkpt lat="32.723182678" lon="35.032588959">
  <ele>329.650879</ele>
  <time>2011-10-20T05:58:35Z</time>
  <speed>5.470000</speed>
</trkpt>
<trkpt lat="32.723152161" lon="35.032535553">
  <ele>328.080566</ele>
  <time>2011-10-20T05:58:36Z</time>
  <speed>6.100000</speed>
</trkpt>
<trkpt lat="32.723114014" lon="35.032485962">
  <ele>327.924316</ele>
  <time>2011-10-20T05:58:37Z</time>
  <speed>6.740000</speed>
</trkpt>
<trkpt lat="32.723075867" lon="35.032428741">
  <ele>327.658691</ele>
  <time>2011-10-20T05:58:38Z</time>
  <speed>6.700000</speed>
</trkpt>
<trkpt lat="32.723033905" lon="35.032379150">
  <ele>328.205566</ele>
  <time>2011-10-20T05:58:39Z</time>
  <speed>6.530000</speed>
</trkpt>
<trkpt lat="32.722995758" lon="35.032325745">
  <ele>328.189941</ele>
  <time>2011-10-20T05:58:40Z</time>
  <speed>6.370000</speed>
</trkpt>
<trkpt lat="32.722957611" lon="35.032279968">
  <ele>327.283691</ele>
  <time>2011-10-20T05:58:41Z</time>
  <speed>6.210000</speed>
</trkpt>
<trkpt lat="32.722923279" lon="35.032222748">
  <ele>326.611816</ele>
  <time>2011-10-20T05:58:42Z</time>
  <speed>6.270000</speed>
</trkpt>
<trkpt lat="32.722892761" lon="35.032165527">
  <ele>326.783691</ele>
  <time>2011-10-20T05:58:43Z</time>
  <speed>6.340000</speed>
</trkpt>
<trkpt lat="32.722862244" lon="35.032108307">
  <ele>326.432129</ele>
  <time>2011-10-20T05:58:44Z</time>
  <speed>6.340000</speed>
</trkpt>
<trkpt lat="32.722827911" lon="35.032051086">
  <ele>326.986816</ele>
  <time>2011-10-20T05:58:45Z</time>
  <speed>6.120000</speed>
</trkpt>
<trkpt lat="32.722801208" lon="35.031997681">
  <ele>326.604004</ele>
  <time>2011-10-20T05:58:46Z</time>
  <speed>5.730000</speed>
</trkpt>
<trkpt lat="32.722782135" lon="35.031940460">
  <ele>327.018066</ele>
  <time>2011-10-20T05:58:47Z</time>
  <speed>5.140000</speed>
</trkpt>
<trkpt lat="32.722766876" lon="35.031894684">
  <ele>327.182129</ele>
  <time>2011-10-20T05:58:48Z</time>
  <speed>4.640000</speed>
</trkpt>
<trkpt lat="32.722747803" lon="35.031860352">
  <ele>327.322754</ele>
  <time>2011-10-20T05:58:49Z</time>
  <speed>3.770000</speed>
</trkpt>
<trkpt lat="32.722732544" lon="35.031829834">
  <ele>328.033691</ele>
  <time>2011-10-20T05:58:50Z</time>
  <speed>2.810000</speed>
</trkpt>
<trkpt lat="32.722717285" lon="35.031791687">
  <ele>328.174316</ele>
  <time>2011-10-20T05:58:52Z</time>
  <speed>1.690000</speed>
</trkpt>
<trkpt lat="32.722705841" lon="35.031757355">
  <ele>328.377441</ele>
  <time>2011-10-20T05:58:54Z</time>
  <speed>2.000000</speed>
</trkpt>
<trkpt lat="32.722679138" lon="35.031730652">
  <ele>328.619629</ele>
  <time>2011-10-20T05:58:56Z</time>
  <speed>1.530000</speed>
</trkpt>
<trkpt lat="32.722656250" lon="35.031711578">
  <ele>329.979004</ele>
  <time>2011-10-20T05:59:12Z</time>
  <speed>0.230000</speed>
</trkpt>
<trkpt lat="32.722637177" lon="35.031692505">
  <ele>329.158691</ele>
  <time>2011-10-20T05:59:21Z</time>
  <speed>2.590000</speed>
</trkpt>
<trkpt lat="32.722610474" lon="35.031677246">
  <ele>328.846191</ele>
  <time>2011-10-20T05:59:22Z</time>
  <speed>3.290000</speed>
</trkpt>
<trkpt lat="32.722576141" lon="35.031658173">
  <ele>327.885254</ele>
  <time>2011-10-20T05:59:23Z</time>
  <speed>4.310000</speed>
</trkpt>
<trkpt lat="32.722526550" lon="35.031650543">
  <ele>326.916504</ele>
  <time>2011-10-20T05:59:24Z</time>
  <speed>5.550000</speed>
</trkpt>
<trkpt lat="32.722469330" lon="35.031642914">
  <ele>325.900879</ele>
  <time>2011-10-20T05:59:25Z</time>
  <speed>6.110000</speed>
</trkpt>
<trkpt lat="32.722412109" lon="35.031654358">
  <ele>325.064941</ele>
  <time>2011-10-20T05:59:26Z</time>
  <speed>6.190000</speed>
</trkpt>
<trkpt lat="32.722347260" lon="35.031658173">
  <ele>324.510254</ele>
  <time>2011-10-20T05:59:27Z</time>
  <speed>6.540000</speed>
</trkpt>
<trkpt lat="32.722290039" lon="35.031665802">
  <ele>323.947754</ele>
  <time>2011-10-20T05:59:28Z</time>
  <speed>7.040000</speed>
</trkpt>
<trkpt lat="32.722229004" lon="35.031673431">
  <ele>322.518066</ele>
  <time>2011-10-20T05:59:29Z</time>
  <speed>6.590000</speed>
</trkpt>
<trkpt lat="32.722167969" lon="35.031677246">
  <ele>321.979004</ele>
  <time>2011-10-20T05:59:30Z</time>
  <speed>6.020000</speed>
</trkpt>
<trkpt lat="32.722106934" lon="35.031688690">
  <ele>320.619629</ele>
  <time>2011-10-20T05:59:31Z</time>
  <speed>6.120000</speed>
</trkpt>
<trkpt lat="32.722053528" lon="35.031681061">
  <ele>320.158691</ele>
  <time>2011-10-20T05:59:32Z</time>
  <speed>5.740000</speed>
</trkpt>
<trkpt lat="32.722011566" lon="35.031650543">
  <ele>319.963379</ele>
  <time>2011-10-20T05:59:33Z</time>
  <speed>5.490000</speed>
</trkpt>
<trkpt lat="32.721977234" lon="35.031604767">
  <ele>318.807129</ele>
  <time>2011-10-20T05:59:34Z</time>
  <speed>5.900000</speed>
</trkpt>
<trkpt lat="32.721946716" lon="35.031551361">
  <ele>318.986816</ele>
  <time>2011-10-20T05:59:35Z</time>
  <speed>6.370000</speed>
</trkpt>
<trkpt lat="32.721908569" lon="35.031494141">
  <ele>319.018066</ele>
  <time>2011-10-20T05:59:36Z</time>
  <speed>6.740000</speed>
</trkpt>
<trkpt lat="32.721870422" lon="35.031433105">
  <ele>319.479004</ele>
  <time>2011-10-20T05:59:37Z</time>
  <speed>6.630000</speed>
</trkpt>
<trkpt lat="32.721832275" lon="35.031379700">
  <ele>319.549316</ele>
  <time>2011-10-20T05:59:38Z</time>
  <speed>6.760000</speed>
</trkpt>
<trkpt lat="32.721786499" lon="35.031326294">
  <ele>319.064941</ele>
  <time>2011-10-20T05:59:39Z</time>
  <speed>7.080000</speed>
</trkpt>
<trkpt lat="32.721740723" lon="35.031280518">
  <ele>318.502441</ele>
  <time>2011-10-20T05:59:40Z</time>
  <speed>6.740000</speed>
</trkpt>
<trkpt lat="32.721698761" lon="35.031227112">
  <ele>317.939941</ele>
  <time>2011-10-20T05:59:41Z</time>
  <speed>6.810000</speed>
</trkpt>
<trkpt lat="32.721664429" lon="35.031169891">
  <ele>316.916504</ele>
  <time>2011-10-20T05:59:42Z</time>
  <speed>6.420000</speed>
</trkpt>
<trkpt lat="32.721626282" lon="35.031112671">
  <ele>316.596191</ele>
  <time>2011-10-20T05:59:43Z</time>
  <speed>6.630000</speed>
</trkpt>
<trkpt lat="32.721595764" lon="35.031055450">
  <ele>315.705566</ele>
  <time>2011-10-20T05:59:44Z</time>
  <speed>6.450000</speed>
</trkpt>
<trkpt lat="32.721561432" lon="35.030990601">
  <ele>315.588379</ele>
  <time>2011-10-20T05:59:45Z</time>
  <speed>6.400000</speed>
</trkpt>
<trkpt lat="32.721538544" lon="35.030929565">
  <ele>316.064941</ele>
  <time>2011-10-20T05:59:46Z</time>
  <speed>6.120000</speed>
</trkpt>
<trkpt lat="32.721527100" lon="35.030864716">
  <ele>316.033691</ele>
  <time>2011-10-20T05:59:47Z</time>
  <speed>6.460000</speed>
</trkpt>
<trkpt lat="32.721519470" lon="35.030792236">
  <ele>315.416504</ele>
  <time>2011-10-20T05:59:48Z</time>
  <speed>6.980000</speed>
</trkpt>
<trkpt lat="32.721504211" lon="35.030719757">
  <ele>315.111816</ele>
  <time>2011-10-20T05:59:49Z</time>
  <speed>7.080000</speed>
</trkpt>
<trkpt lat="32.721477509" lon="35.030647278">
  <ele>315.150879</ele>
  <time>2011-10-20T05:59:50Z</time>
  <speed>7.090000</speed>
</trkpt>
<trkpt lat="32.721446991" lon="35.030570984">
  <ele>314.533691</ele>
  <time>2011-10-20T05:59:51Z</time>
  <speed>6.970000</speed>
</trkpt>
<trkpt lat="32.721420288" lon="35.030513763">
  <ele>313.752441</ele>
  <time>2011-10-20T05:59:52Z</time>
  <speed>6.670000</speed>
</trkpt>
<trkpt lat="32.721389771" lon="35.030448914">
  <ele>313.854004</ele>
  <time>2011-10-20T05:59:53Z</time>
  <speed>6.180000</speed>
</trkpt>
<trkpt lat="32.721363068" lon="35.030399323">
  <ele>312.916504</ele>
  <time>2011-10-20T05:59:54Z</time>
  <speed>5.800000</speed>
</trkpt>
<trkpt lat="32.721336365" lon="35.030353546">
  <ele>311.838379</ele>
  <time>2011-10-20T05:59:55Z</time>
  <speed>5.490000</speed>
</trkpt>
<trkpt lat="32.721305847" lon="35.030303955">
  <ele>311.455566</ele>
  <time>2011-10-20T05:59:56Z</time>
  <speed>5.220000</speed>
</trkpt>
<trkpt lat="32.721279144" lon="35.030254364">
  <ele>311.275879</ele>
  <time>2011-10-20T05:59:57Z</time>
  <speed>5.310000</speed>
</trkpt>
<trkpt lat="32.721256256" lon="35.030204773">
  <ele>310.533691</ele>
  <time>2011-10-20T05:59:58Z</time>
  <speed>5.290000</speed>
</trkpt>
<trkpt lat="32.721240997" lon="35.030155182">
  <ele>310.572754</ele>
  <time>2011-10-20T05:59:59Z</time>
  <speed>5.010000</speed>
</trkpt>
<trkpt lat="32.721225739" lon="35.030109406">
  <ele>310.510254</ele>
  <time>2011-10-20T06:00:00Z</time>
  <speed>4.470000</speed>
</trkpt>
<trkpt lat="32.721221924" lon="35.030067444">
  <ele>310.432129</ele>
  <time>2011-10-20T06:00:01Z</time>
  <speed>3.580000</speed>
</trkpt>
<trkpt lat="32.721225739" lon="35.030033112">
  <ele>309.697754</ele>
  <time>2011-10-20T06:00:02Z</time>
  <speed>2.960000</speed>
</trkpt>
<trkpt lat="32.721271515" lon="35.030021667">
  <ele>309.025879</ele>
  <time>2011-10-20T06:00:04Z</time>
  <speed>2.840000</speed>
</trkpt>
<trkpt lat="32.721302032" lon="35.030029297">
  <ele>308.674316</ele>
  <time>2011-10-20T06:00:05Z</time>
  <speed>2.790000</speed>
</trkpt>
<trkpt lat="32.721332550" lon="35.030033112">
  <ele>308.463379</ele>
  <time>2011-10-20T06:00:06Z</time>
  <speed>2.750000</speed>
</trkpt>
<trkpt lat="32.721363068" lon="35.030025482">
  <ele>308.330566</ele>
  <time>2011-10-20T06:00:07Z</time>
  <speed>2.820000</speed>
</trkpt>
<trkpt lat="32.721393585" lon="35.030017853">
  <ele>307.900879</ele>
  <time>2011-10-20T06:00:08Z</time>
  <speed>2.930000</speed>
</trkpt>
<trkpt lat="32.721443176" lon="35.029998779">
  <ele>307.705566</ele>
  <time>2011-10-20T06:00:10Z</time>
  <speed>2.540000</speed>
</trkpt>
<trkpt lat="32.721481323" lon="35.029983521">
  <ele>308.697754</ele>
  <time>2011-10-20T06:00:12Z</time>
  <speed>2.540000</speed>
</trkpt>
<trkpt lat="32.721530914" lon="35.029956818">
  <ele>308.682129</ele>
  <time>2011-10-20T06:00:14Z</time>
  <speed>3.100000</speed>
</trkpt>
<trkpt lat="32.721557617" lon="35.029941559">
  <ele>308.838379</ele>
  <time>2011-10-20T06:00:15Z</time>
  <speed>3.530000</speed>
</trkpt>
<trkpt lat="32.721580505" lon="35.029922485">
  <ele>308.307129</ele>
  <time>2011-10-20T06:00:16Z</time>
  <speed>3.580000</speed>
</trkpt>
<trkpt lat="32.721607208" lon="35.029895782">
  <ele>308.768066</ele>
  <time>2011-10-20T06:00:17Z</time>
  <speed>4.090000</speed>
</trkpt>
<trkpt lat="32.721637726" lon="35.029869080">
  <ele>309.455566</ele>
  <time>2011-10-20T06:00:18Z</time>
  <speed>4.450000</speed>
</trkpt>
<trkpt lat="32.721668243" lon="35.029834747">
  <ele>310.080566</ele>
  <time>2011-10-20T06:00:19Z</time>
  <speed>4.400000</speed>
</trkpt>
<trkpt lat="32.721698761" lon="35.029804230">
  <ele>309.549316</ele>
  <time>2011-10-20T06:00:20Z</time>
  <speed>4.330000</speed>
</trkpt>
<trkpt lat="32.721729279" lon="35.029773712">
  <ele>309.689941</ele>
  <time>2011-10-20T06:00:21Z</time>
  <speed>4.420000</speed>
</trkpt>
<trkpt lat="32.721759796" lon="35.029743195">
  <ele>309.260254</ele>
  <time>2011-10-20T06:00:22Z</time>
  <speed>4.520000</speed>
</trkpt>
<trkpt lat="32.721794128" lon="35.029716492">
  <ele>309.252441</ele>
  <time>2011-10-20T06:00:23Z</time>
  <speed>4.600000</speed>
</trkpt>
<trkpt lat="32.721828461" lon="35.029685974">
  <ele>309.260254</ele>
  <time>2011-10-20T06:00:24Z</time>
  <speed>4.650000</speed>
</trkpt>
<trkpt lat="32.721862793" lon="35.029659271">
  <ele>309.525879</ele>
  <time>2011-10-20T06:00:25Z</time>
  <speed>4.830000</speed>
</trkpt>
<trkpt lat="32.721897125" lon="35.029624939">
  <ele>308.885254</ele>
  <time>2011-10-20T06:00:26Z</time>
  <speed>4.930000</speed>
</trkpt>
<trkpt lat="32.721931458" lon="35.029590607">
  <ele>308.775879</ele>
  <time>2011-10-20T06:00:27Z</time>
  <speed>5.030000</speed>
</trkpt>
<trkpt lat="32.721965790" lon="35.029556274">
  <ele>308.361816</ele>
  <time>2011-10-20T06:00:28Z</time>
  <speed>5.110000</speed>
</trkpt>
<trkpt lat="32.722003937" lon="35.029521942">
  <ele>308.541504</ele>
  <time>2011-10-20T06:00:29Z</time>
  <speed>5.200000</speed>
</trkpt>
<trkpt lat="32.722042084" lon="35.029483795">
  <ele>308.674316</ele>
  <time>2011-10-20T06:00:30Z</time>
  <speed>5.180000</speed>
</trkpt>
<trkpt lat="32.722076416" lon="35.029449463">
  <ele>308.838379</ele>
  <time>2011-10-20T06:00:31Z</time>
  <speed>4.970000</speed>
</trkpt>
<trkpt lat="32.722103119" lon="35.029411316">
  <ele>308.705566</ele>
  <time>2011-10-20T06:00:32Z</time>
  <speed>4.930000</speed>
</trkpt>
<trkpt lat="32.722137451" lon="35.029373169">
  <ele>309.049316</ele>
  <time>2011-10-20T06:00:33Z</time>
  <speed>4.730000</speed>
</trkpt>
<trkpt lat="32.722167969" lon="35.029342651">
  <ele>309.236816</ele>
  <time>2011-10-20T06:00:34Z</time>
  <speed>4.460000</speed>
</trkpt>
<trkpt lat="32.722198486" lon="35.029308319">
  <ele>308.791504</ele>
  <time>2011-10-20T06:00:35Z</time>
  <speed>4.470000</speed>
</trkpt>
<trkpt lat="32.722229004" lon="35.029273987">
  <ele>308.971191</ele>
  <time>2011-10-20T06:00:36Z</time>
  <speed>4.510000</speed>
</trkpt>
<trkpt lat="32.722259521" lon="35.029247284">
  <ele>309.260254</ele>
  <time>2011-10-20T06:00:37Z</time>
  <speed>4.380000</speed>
</trkpt>
<trkpt lat="32.722290039" lon="35.029216766">
  <ele>309.393066</ele>
  <time>2011-10-20T06:00:38Z</time>
  <speed>4.350000</speed>
</trkpt>
<trkpt lat="32.722320557" lon="35.029190063">
  <ele>309.088379</ele>
  <time>2011-10-20T06:00:39Z</time>
  <speed>4.430000</speed>
</trkpt>
<trkpt lat="32.722351074" lon="35.029155731">
  <ele>309.361816</ele>
  <time>2011-10-20T06:00:40Z</time>
  <speed>4.690000</speed>
</trkpt>
<trkpt lat="32.722381592" lon="35.029125214">
  <ele>309.330566</ele>
  <time>2011-10-20T06:00:41Z</time>
  <speed>4.490000</speed>
</trkpt>
<trkpt lat="32.722415924" lon="35.029094696">
  <ele>309.447754</ele>
  <time>2011-10-20T06:00:42Z</time>
  <speed>4.590000</speed>
</trkpt>
<trkpt lat="32.722450256" lon="35.029060364">
  <ele>309.760254</ele>
  <time>2011-10-20T06:00:43Z</time>
  <speed>4.750000</speed>
</trkpt>
<trkpt lat="32.722484589" lon="35.029029846">
  <ele>310.025879</ele>
  <time>2011-10-20T06:00:44Z</time>
  <speed>4.640000</speed>
</trkpt>
<trkpt lat="32.722518921" lon="35.029003143">
  <ele>310.299316</ele>
  <time>2011-10-20T06:00:45Z</time>
  <speed>4.660000</speed>
</trkpt>
<trkpt lat="32.722553253" lon="35.028976440">
  <ele>310.588379</ele>
  <time>2011-10-20T06:00:46Z</time>
  <speed>4.670000</speed>
</trkpt>
<trkpt lat="32.722587585" lon="35.028949738">
  <ele>310.658691</ele>
  <time>2011-10-20T06:00:47Z</time>
  <speed>4.310000</speed>
</trkpt>
<trkpt lat="32.722621918" lon="35.028926849">
  <ele>310.424316</ele>
  <time>2011-10-20T06:00:48Z</time>
  <speed>4.330000</speed>
</trkpt>
<trkpt lat="32.722656250" lon="35.028903961">
  <ele>310.869629</ele>
  <time>2011-10-20T06:00:49Z</time>
  <speed>4.230000</speed>
</trkpt>
<trkpt lat="32.722686768" lon="35.028877258">
  <ele>310.971191</ele>
  <time>2011-10-20T06:00:50Z</time>
  <speed>4.210000</speed>
</trkpt>
<trkpt lat="32.722717285" lon="35.028850555">
  <ele>311.346191</ele>
  <time>2011-10-20T06:00:51Z</time>
  <speed>4.070000</speed>
</trkpt>
<trkpt lat="32.722751617" lon="35.028827667">
  <ele>311.588379</ele>
  <time>2011-10-20T06:00:52Z</time>
  <speed>4.090000</speed>
</trkpt>
<trkpt lat="32.722789764" lon="35.028816223">
  <ele>311.471191</ele>
  <time>2011-10-20T06:00:53Z</time>
  <speed>4.190000</speed>
</trkpt>
<trkpt lat="32.722824097" lon="35.028793335">
  <ele>311.361816</ele>
  <time>2011-10-20T06:00:54Z</time>
  <speed>4.270000</speed>
</trkpt>
<trkpt lat="32.722858429" lon="35.028766632">
  <ele>311.361816</ele>
  <time>2011-10-20T06:00:55Z</time>
  <speed>4.270000</speed>
</trkpt>
<trkpt lat="32.722888947" lon="35.028739929">
  <ele>311.322754</ele>
  <time>2011-10-20T06:00:56Z</time>
  <speed>4.310000</speed>
</trkpt>
<trkpt lat="32.722923279" lon="35.028713226">
  <ele>311.518066</ele>
  <time>2011-10-20T06:00:57Z</time>
  <speed>4.380000</speed>
</trkpt>
<trkpt lat="32.722949982" lon="35.028682709">
  <ele>312.197754</ele>
  <time>2011-10-20T06:00:58Z</time>
  <speed>4.300000</speed>
</trkpt>
<trkpt lat="32.722980499" lon="35.028659821">
  <ele>312.541504</ele>
  <time>2011-10-20T06:00:59Z</time>
  <speed>4.320000</speed>
</trkpt>
<trkpt lat="32.723007202" lon="35.028625488">
  <ele>312.260254</ele>
  <time>2011-10-20T06:01:00Z</time>
  <speed>4.330000</speed>
</trkpt>
<trkpt lat="32.723037720" lon="35.028598785">
  <ele>312.518066</ele>
  <time>2011-10-20T06:01:01Z</time>
  <speed>4.290000</speed>
</trkpt>
<trkpt lat="32.723060608" lon="35.028568268">
  <ele>312.549316</ele>
  <time>2011-10-20T06:01:02Z</time>
  <speed>4.190000</speed>
</trkpt>
<trkpt lat="32.723091125" lon="35.028537750">
  <ele>312.213379</ele>
  <time>2011-10-20T06:01:03Z</time>
  <speed>4.130000</speed>
</trkpt>
<trkpt lat="32.723121643" lon="35.028507233">
  <ele>312.330566</ele>
  <time>2011-10-20T06:01:04Z</time>
  <speed>4.350000</speed>
</trkpt>
<trkpt lat="32.723148346" lon="35.028476715">
  <ele>312.822754</ele>
  <time>2011-10-20T06:01:05Z</time>
  <speed>4.110000</speed>
</trkpt>
<trkpt lat="32.723171234" lon="35.028442383">
  <ele>313.213379</ele>
  <time>2011-10-20T06:01:06Z</time>
  <speed>3.970000</speed>
</trkpt>
<trkpt lat="32.723201752" lon="35.028419495">
  <ele>313.385254</ele>
  <time>2011-10-20T06:01:07Z</time>
  <speed>3.770000</speed>
</trkpt>
<trkpt lat="32.723224640" lon="35.028392792">
  <ele>313.885254</ele>
  <time>2011-10-20T06:01:08Z</time>
  <speed>3.700000</speed>
</trkpt>
<trkpt lat="32.723247528" lon="35.028362274">
  <ele>313.494629</ele>
  <time>2011-10-20T06:01:09Z</time>
  <speed>3.500000</speed>
</trkpt>
<trkpt lat="32.723266602" lon="35.028327942">
  <ele>313.619629</ele>
  <time>2011-10-20T06:01:10Z</time>
  <speed>3.810000</speed>
</trkpt>
<trkpt lat="32.723289490" lon="35.028293610">
  <ele>313.635254</ele>
  <time>2011-10-20T06:01:11Z</time>
  <speed>4.050000</speed>
</trkpt>
<trkpt lat="32.723304749" lon="35.028251648">
  <ele>314.643066</ele>
  <time>2011-10-20T06:01:12Z</time>
  <speed>3.800000</speed>
</trkpt>
<trkpt lat="32.723331451" lon="35.028228760">
  <ele>314.666504</ele>
  <time>2011-10-20T06:01:13Z</time>
  <speed>3.790000</speed>
</trkpt>
<trkpt lat="32.723358154" lon="35.028202057">
  <ele>315.377441</ele>
  <time>2011-10-20T06:01:14Z</time>
  <speed>3.970000</speed>
</trkpt>
<trkpt lat="32.723381042" lon="35.028167725">
  <ele>315.197754</ele>
  <time>2011-10-20T06:01:15Z</time>
  <speed>3.840000</speed>
</trkpt>
<trkpt lat="32.723403931" lon="35.028129578">
  <ele>315.564941</ele>
  <time>2011-10-20T06:01:16Z</time>
  <speed>3.950000</speed>
</trkpt>
<trkpt lat="32.723423004" lon="35.028095245">
  <ele>315.744629</ele>
  <time>2011-10-20T06:01:17Z</time>
  <speed>3.870000</speed>
</trkpt>
<trkpt lat="32.723445892" lon="35.028064728">
  <ele>315.760254</ele>
  <time>2011-10-20T06:01:18Z</time>
  <speed>3.730000</speed>
</trkpt>
<trkpt lat="32.723464966" lon="35.028041840">
  <ele>315.557129</ele>
  <time>2011-10-20T06:01:19Z</time>
  <speed>3.230000</speed>
</trkpt>
<trkpt lat="32.723484039" lon="35.028015137">
  <ele>315.502441</ele>
  <time>2011-10-20T06:01:20Z</time>
  <speed>3.230000</speed>
</trkpt>
<trkpt lat="32.723503113" lon="35.027988434">
  <ele>315.408691</ele>
  <time>2011-10-20T06:01:21Z</time>
  <speed>3.220000</speed>
</trkpt>
<trkpt lat="32.723518372" lon="35.027961731">
  <ele>315.697754</ele>
  <time>2011-10-20T06:01:22Z</time>
  <speed>3.280000</speed>
</trkpt>
<trkpt lat="32.723541260" lon="35.027938843">
  <ele>315.744629</ele>
  <time>2011-10-20T06:01:23Z</time>
  <speed>3.500000</speed>
</trkpt>
<trkpt lat="32.723560333" lon="35.027904510">
  <ele>315.385254</ele>
  <time>2011-10-20T06:01:24Z</time>
  <speed>3.630000</speed>
</trkpt>
<trkpt lat="32.723579407" lon="35.027873993">
  <ele>315.299316</ele>
  <time>2011-10-20T06:01:25Z</time>
  <speed>3.700000</speed>
</trkpt>
<trkpt lat="32.723606110" lon="35.027839661">
  <ele>315.439941</ele>
  <time>2011-10-20T06:01:26Z</time>
  <speed>4.230000</speed>
</trkpt>
<trkpt lat="32.723625183" lon="35.027805328">
  <ele>314.932129</ele>
  <time>2011-10-20T06:01:27Z</time>
  <speed>4.060000</speed>
</trkpt>
<trkpt lat="32.723644257" lon="35.027770996">
  <ele>314.775879</ele>
  <time>2011-10-20T06:01:28Z</time>
  <speed>4.110000</speed>
</trkpt>
<trkpt lat="32.723667145" lon="35.027729034">
  <ele>315.213379</ele>
  <time>2011-10-20T06:01:29Z</time>
  <speed>4.500000</speed>
</trkpt>
<trkpt lat="32.723690033" lon="35.027687073">
  <ele>315.127441</ele>
  <time>2011-10-20T06:01:30Z</time>
  <speed>4.740000</speed>
</trkpt>
<trkpt lat="32.723712921" lon="35.027645111">
  <ele>314.916504</ele>
  <time>2011-10-20T06:01:31Z</time>
  <speed>4.690000</speed>
</trkpt>
<trkpt lat="32.723735809" lon="35.027603149">
  <ele>315.213379</ele>
  <time>2011-10-20T06:01:32Z</time>
  <speed>4.750000</speed>
</trkpt>
<trkpt lat="32.723762512" lon="35.027561188">
  <ele>315.010254</ele>
  <time>2011-10-20T06:01:33Z</time>
  <speed>4.790000</speed>
</trkpt>
<trkpt lat="32.723789215" lon="35.027530670">
  <ele>314.877441</ele>
  <time>2011-10-20T06:01:34Z</time>
  <speed>4.740000</speed>
</trkpt>
<trkpt lat="32.723819733" lon="35.027488708">
  <ele>314.744629</ele>
  <time>2011-10-20T06:01:35Z</time>
  <speed>4.970000</speed>
</trkpt>
<trkpt lat="32.723846436" lon="35.027446747">
  <ele>314.666504</ele>
  <time>2011-10-20T06:01:36Z</time>
  <speed>4.800000</speed>
</trkpt>
<trkpt lat="32.723869324" lon="35.027404785">
  <ele>314.635254</ele>
  <time>2011-10-20T06:01:37Z</time>
  <speed>4.890000</speed>
</trkpt>
<trkpt lat="32.723892212" lon="35.027355194">
  <ele>315.135254</ele>
  <time>2011-10-20T06:01:38Z</time>
  <speed>4.930000</speed>
</trkpt>
<trkpt lat="32.723915100" lon="35.027305603">
  <ele>314.955566</ele>
  <time>2011-10-20T06:01:39Z</time>
  <speed>5.310000</speed>
</trkpt>
<trkpt lat="32.723934174" lon="35.027256012">
  <ele>314.854004</ele>
  <time>2011-10-20T06:01:40Z</time>
  <speed>5.370000</speed>
</trkpt>
<trkpt lat="32.723964691" lon="35.027206421">
  <ele>314.658691</ele>
  <time>2011-10-20T06:01:41Z</time>
  <speed>5.400000</speed>
</trkpt>
<trkpt lat="32.723991394" lon="35.027149200">
  <ele>315.564941</ele>
  <time>2011-10-20T06:01:42Z</time>
  <speed>5.350000</speed>
</trkpt>
<trkpt lat="32.724014282" lon="35.027103424">
  <ele>315.822754</ele>
  <time>2011-10-20T06:01:43Z</time>
  <speed>5.180000</speed>
</trkpt>
<trkpt lat="32.724040985" lon="35.027061462">
  <ele>315.893066</ele>
  <time>2011-10-20T06:01:44Z</time>
  <speed>4.880000</speed>
</trkpt>
<trkpt lat="32.724071503" lon="35.027023315">
  <ele>315.697754</ele>
  <time>2011-10-20T06:01:45Z</time>
  <speed>4.690000</speed>
</trkpt>
<trkpt lat="32.724090576" lon="35.026981354">
  <ele>316.268066</ele>
  <time>2011-10-20T06:01:46Z</time>
  <speed>4.380000</speed>
</trkpt>
<trkpt lat="32.724113464" lon="35.026939392">
  <ele>316.666504</ele>
  <time>2011-10-20T06:01:47Z</time>
  <speed>4.270000</speed>
</trkpt>
<trkpt lat="32.724132538" lon="35.026901245">
  <ele>316.596191</ele>
  <time>2011-10-20T06:01:48Z</time>
  <speed>4.410000</speed>
</trkpt>
<trkpt lat="32.724159241" lon="35.026874542">
  <ele>315.893066</ele>
  <time>2011-10-20T06:01:49Z</time>
  <speed>4.590000</speed>
</trkpt>
<trkpt lat="32.724185944" lon="35.026824951">
  <ele>315.924316</ele>
  <time>2011-10-20T06:01:50Z</time>
  <speed>4.670000</speed>
</trkpt>
<trkpt lat="32.724208832" lon="35.026782990">
  <ele>315.768066</ele>
  <time>2011-10-20T06:01:51Z</time>
  <speed>4.440000</speed>
</trkpt>
<trkpt lat="32.724227905" lon="35.026741028">
  <ele>315.955566</ele>
  <time>2011-10-20T06:01:52Z</time>
  <speed>4.420000</speed>
</trkpt>
<trkpt lat="32.724254608" lon="35.026702881">
  <ele>316.088379</ele>
  <time>2011-10-20T06:01:53Z</time>
  <speed>4.440000</speed>
</trkpt>
<trkpt lat="32.724285126" lon="35.026676178">
  <ele>315.643066</ele>
  <time>2011-10-20T06:01:54Z</time>
  <speed>4.400000</speed>
</trkpt>
<trkpt lat="32.724311829" lon="35.026641846">
  <ele>315.900879</ele>
  <time>2011-10-20T06:01:55Z</time>
  <speed>4.460000</speed>
</trkpt>
<trkpt lat="32.724338531" lon="35.026603699">
  <ele>315.619629</ele>
  <time>2011-10-20T06:01:56Z</time>
  <speed>4.720000</speed>
</trkpt>
<trkpt lat="32.724365234" lon="35.026565552">
  <ele>315.994629</ele>
  <time>2011-10-20T06:01:57Z</time>
  <speed>4.550000</speed>
</trkpt>
<trkpt lat="32.724391937" lon="35.026523590">
  <ele>316.041504</ele>
  <time>2011-10-20T06:01:58Z</time>
  <speed>4.630000</speed>
</trkpt>
<trkpt lat="32.724422455" lon="35.026493073">
  <ele>315.932129</ele>
  <time>2011-10-20T06:01:59Z</time>
  <speed>4.640000</speed>
</trkpt>
<trkpt lat="32.724452972" lon="35.026458740">
  <ele>315.752441</ele>
  <time>2011-10-20T06:02:00Z</time>
  <speed>4.770000</speed>
</trkpt>
<trkpt lat="32.724479675" lon="35.026420593">
  <ele>316.291504</ele>
  <time>2011-10-20T06:02:01Z</time>
  <speed>4.530000</speed>
</trkpt>
<trkpt lat="32.724517822" lon="35.026401520">
  <ele>315.158691</ele>
  <time>2011-10-20T06:02:02Z</time>
  <speed>4.510000</speed>
</trkpt>
<trkpt lat="32.724555969" lon="35.026371002">
  <ele>315.596191</ele>
  <time>2011-10-20T06:02:03Z</time>
  <speed>4.840000</speed>
</trkpt>
<trkpt lat="32.724590302" lon="35.026340485">
  <ele>315.783691</ele>
  <time>2011-10-20T06:02:04Z</time>
  <speed>4.530000</speed>
</trkpt>
<trkpt lat="32.724617004" lon="35.026306152">
  <ele>315.611816</ele>
  <time>2011-10-20T06:02:05Z</time>
  <speed>4.330000</speed>
</trkpt>
<trkpt lat="32.724647522" lon="35.026275635">
  <ele>315.346191</ele>
  <time>2011-10-20T06:02:06Z</time>
  <speed>4.470000</speed>
</trkpt>
<trkpt lat="32.724678040" lon="35.026245117">
  <ele>314.799316</ele>
  <time>2011-10-20T06:02:07Z</time>
  <speed>4.400000</speed>
</trkpt>
<trkpt lat="32.724708557" lon="35.026222229">
  <ele>314.229004</ele>
  <time>2011-10-20T06:02:08Z</time>
  <speed>3.910000</speed>
</trkpt>
<trkpt lat="32.724735260" lon="35.026191711">
  <ele>313.822754</ele>
  <time>2011-10-20T06:02:09Z</time>
  <speed>3.740000</speed>
</trkpt>
<trkpt lat="32.724750519" lon="35.026157379">
  <ele>313.744629</ele>
  <time>2011-10-20T06:02:10Z</time>
  <speed>3.760000</speed>
</trkpt>
<trkpt lat="32.724769592" lon="35.026123047">
  <ele>313.564941</ele>
  <time>2011-10-20T06:02:11Z</time>
  <speed>4.140000</speed>
</trkpt>
<trkpt lat="32.724788666" lon="35.026084900">
  <ele>313.322754</ele>
  <time>2011-10-20T06:02:12Z</time>
  <speed>4.040000</speed>
</trkpt>
<trkpt lat="32.724811554" lon="35.026050568">
  <ele>313.010254</ele>
  <time>2011-10-20T06:02:13Z</time>
  <speed>4.030000</speed>
</trkpt>
<trkpt lat="32.724834442" lon="35.026012421">
  <ele>312.846191</ele>
  <time>2011-10-20T06:02:14Z</time>
  <speed>3.860000</speed>
</trkpt>
<trkpt lat="32.724853516" lon="35.025974274">
  <ele>312.564941</ele>
  <time>2011-10-20T06:02:15Z</time>
  <speed>3.700000</speed>
</trkpt>
<trkpt lat="32.724868774" lon="35.025936127">
  <ele>312.479004</ele>
  <time>2011-10-20T06:02:16Z</time>
  <speed>3.670000</speed>
</trkpt>
<trkpt lat="32.724887848" lon="35.025897980">
  <ele>312.635254</ele>
  <time>2011-10-20T06:02:17Z</time>
  <speed>4.030000</speed>
</trkpt>
<trkpt lat="32.724903107" lon="35.025863647">
  <ele>312.213379</ele>
  <time>2011-10-20T06:02:18Z</time>
  <speed>4.390000</speed>
</trkpt>
<trkpt lat="32.724918365" lon="35.025821686">
  <ele>312.525879</ele>
  <time>2011-10-20T06:02:19Z</time>
  <speed>4.580000</speed>
</trkpt>
<trkpt lat="32.724933624" lon="35.025775909">
  <ele>312.408691</ele>
  <time>2011-10-20T06:02:20Z</time>
  <speed>5.010000</speed>
</trkpt>
<trkpt lat="32.724945068" lon="35.025718689">
  <ele>313.299316</ele>
  <time>2011-10-20T06:02:21Z</time>
  <speed>4.970000</speed>
</trkpt>
<trkpt lat="32.724960327" lon="35.025657654">
  <ele>314.033691</ele>
  <time>2011-10-20T06:02:22Z</time>
  <speed>5.530000</speed>
</trkpt>
<trkpt lat="32.724979401" lon="35.025592804">
  <ele>314.299316</ele>
  <time>2011-10-20T06:02:23Z</time>
  <speed>5.950000</speed>
</trkpt>
<trkpt lat="32.725002289" lon="35.025535583">
  <ele>313.471191</ele>
  <time>2011-10-20T06:02:24Z</time>
  <speed>5.730000</speed>
</trkpt>
<trkpt lat="32.725025177" lon="35.025482178">
  <ele>312.463379</ele>
  <time>2011-10-20T06:02:25Z</time>
  <speed>5.280000</speed>
</trkpt>
<trkpt lat="32.725044250" lon="35.025432587">
  <ele>312.018066</ele>
  <time>2011-10-20T06:02:26Z</time>
  <speed>4.870000</speed>
</trkpt>
<trkpt lat="32.725055695" lon="35.025375366">
  <ele>312.314941</ele>
  <time>2011-10-20T06:02:27Z</time>
  <speed>4.670000</speed>
</trkpt>
<trkpt lat="32.725070953" lon="35.025333405">
  <ele>311.932129</ele>
  <time>2011-10-20T06:02:28Z</time>
  <speed>4.440000</speed>
</trkpt>
<trkpt lat="32.725086212" lon="35.025287628">
  <ele>311.885254</ele>
  <time>2011-10-20T06:02:29Z</time>
  <speed>3.790000</speed>
</trkpt>
<trkpt lat="32.725090027" lon="35.025253296">
  <ele>311.658691</ele>
  <time>2011-10-20T06:02:30Z</time>
  <speed>3.390000</speed>
</trkpt>
<trkpt lat="32.725097656" lon="35.025218964">
  <ele>311.049316</ele>
  <time>2011-10-20T06:02:31Z</time>
  <speed>3.830000</speed>
</trkpt>
<trkpt lat="32.725105286" lon="35.025180817">
  <ele>311.104004</ele>
  <time>2011-10-20T06:02:32Z</time>
  <speed>3.770000</speed>
</trkpt>
<trkpt lat="32.725112915" lon="35.025138855">
  <ele>310.947754</ele>
  <time>2011-10-20T06:02:33Z</time>
  <speed>3.740000</speed>
</trkpt>
<trkpt lat="32.725128174" lon="35.025104523">
  <ele>310.432129</ele>
  <time>2011-10-20T06:02:34Z</time>
  <speed>3.720000</speed>
</trkpt>
<trkpt lat="32.725147247" lon="35.025074005">
  <ele>309.650879</ele>
  <time>2011-10-20T06:02:35Z</time>
  <speed>3.750000</speed>
</trkpt>
<trkpt lat="32.725170135" lon="35.025039673">
  <ele>309.393066</ele>
  <time>2011-10-20T06:02:36Z</time>
  <speed>4.300000</speed>
</trkpt>
<trkpt lat="32.725196838" lon="35.025001526">
  <ele>308.596191</ele>
  <time>2011-10-20T06:02:37Z</time>
  <speed>4.490000</speed>
</trkpt>
<trkpt lat="32.725208282" lon="35.024944305">
  <ele>309.541504</ele>
  <time>2011-10-20T06:02:38Z</time>
  <speed>4.580000</speed>
</trkpt>
<trkpt lat="32.725212097" lon="35.024887085">
  <ele>310.127441</ele>
  <time>2011-10-20T06:02:39Z</time>
  <speed>4.250000</speed>
</trkpt>
<trkpt lat="32.725227356" lon="35.024837494">
  <ele>309.869629</ele>
  <time>2011-10-20T06:02:40Z</time>
  <speed>3.960000</speed>
</trkpt>
<trkpt lat="32.725231171" lon="35.024799347">
  <ele>309.760254</ele>
  <time>2011-10-20T06:02:41Z</time>
  <speed>3.340000</speed>
</trkpt>
<trkpt lat="32.725234985" lon="35.024768829">
  <ele>309.049316</ele>
  <time>2011-10-20T06:02:42Z</time>
  <speed>3.210000</speed>
</trkpt>
<trkpt lat="32.725246429" lon="35.024738312">
  <ele>309.189941</ele>
  <time>2011-10-20T06:02:43Z</time>
  <speed>3.360000</speed>
</trkpt>
<trkpt lat="32.725254059" lon="35.024703979">
  <ele>307.752441</ele>
  <time>2011-10-20T06:02:44Z</time>
  <speed>3.310000</speed>
</trkpt>
<trkpt lat="32.725257874" lon="35.024673462">
  <ele>306.721191</ele>
  <time>2011-10-20T06:02:45Z</time>
  <speed>3.320000</speed>
</trkpt>
<trkpt lat="32.725257874" lon="35.024639130">
  <ele>306.260254</ele>
  <time>2011-10-20T06:02:46Z</time>
  <speed>3.260000</speed>
</trkpt>
<trkpt lat="32.725254059" lon="35.024593353">
  <ele>305.947754</ele>
  <time>2011-10-20T06:02:47Z</time>
  <speed>4.120000</speed>
</trkpt>
<trkpt lat="32.725254059" lon="35.024551392">
  <ele>306.025879</ele>
  <time>2011-10-20T06:02:48Z</time>
  <speed>4.230000</speed>
</trkpt>
<trkpt lat="32.725254059" lon="35.024505615">
  <ele>305.447754</ele>
  <time>2011-10-20T06:02:49Z</time>
  <speed>5.110000</speed>
</trkpt>
<trkpt lat="32.725261688" lon="35.024448395">
  <ele>305.424316</ele>
  <time>2011-10-20T06:02:50Z</time>
  <speed>5.430000</speed>
</trkpt>
<trkpt lat="32.725280762" lon="35.024391174">
  <ele>305.135254</ele>
  <time>2011-10-20T06:02:51Z</time>
  <speed>5.810000</speed>
</trkpt>
<trkpt lat="32.725299835" lon="35.024333954">
  <ele>304.400879</ele>
  <time>2011-10-20T06:02:52Z</time>
  <speed>5.710000</speed>
</trkpt>
<trkpt lat="32.725322723" lon="35.024284363">
  <ele>303.557129</ele>
  <time>2011-10-20T06:02:53Z</time>
  <speed>4.890000</speed>
</trkpt>
<trkpt lat="32.725345612" lon="35.024246216">
  <ele>303.549316</ele>
  <time>2011-10-20T06:02:54Z</time>
  <speed>4.600000</speed>
</trkpt>
<trkpt lat="32.725368500" lon="35.024211884">
  <ele>303.033691</ele>
  <time>2011-10-20T06:02:55Z</time>
  <speed>4.020000</speed>
</trkpt>
<trkpt lat="32.725395203" lon="35.024177551">
  <ele>302.658691</ele>
  <time>2011-10-20T06:02:56Z</time>
  <speed>4.540000</speed>
</trkpt>
<trkpt lat="32.725425720" lon="35.024143219">
  <ele>301.619629</ele>
  <time>2011-10-20T06:02:57Z</time>
  <speed>5.060000</speed>
</trkpt>
<trkpt lat="32.725460052" lon="35.024108887">
  <ele>300.463379</ele>
  <time>2011-10-20T06:02:58Z</time>
  <speed>5.060000</speed>
</trkpt>
<trkpt lat="32.725502014" lon="35.024082184">
  <ele>299.479004</ele>
  <time>2011-10-20T06:02:59Z</time>
  <speed>4.480000</speed>
</trkpt>
<trkpt lat="32.725540161" lon="35.024063110">
  <ele>298.791504</ele>
  <time>2011-10-20T06:03:00Z</time>
  <speed>4.650000</speed>
</trkpt>
<trkpt lat="32.725593567" lon="35.024055481">
  <ele>297.635254</ele>
  <time>2011-10-20T06:03:01Z</time>
  <speed>5.830000</speed>
</trkpt>
<trkpt lat="32.725650787" lon="35.024055481">
  <ele>296.830566</ele>
  <time>2011-10-20T06:03:02Z</time>
  <speed>5.350000</speed>
</trkpt>
<trkpt lat="32.725692749" lon="35.024066925">
  <ele>296.846191</ele>
  <time>2011-10-20T06:03:03Z</time>
  <speed>3.910000</speed>
</trkpt>
<trkpt lat="32.725723267" lon="35.024085999">
  <ele>295.705566</ele>
  <time>2011-10-20T06:03:04Z</time>
  <speed>3.500000</speed>
</trkpt>
<trkpt lat="32.725746155" lon="35.024116516">
  <ele>295.682129</ele>
  <time>2011-10-20T06:03:05Z</time>
  <speed>3.700000</speed>
</trkpt>
<trkpt lat="32.725772858" lon="35.024147034">
  <ele>295.322754</ele>
  <time>2011-10-20T06:03:06Z</time>
  <speed>3.570000</speed>
</trkpt>
<trkpt lat="32.725803375" lon="35.024173737">
  <ele>294.541504</ele>
  <time>2011-10-20T06:03:07Z</time>
  <speed>3.660000</speed>
</trkpt>
<trkpt lat="32.725837708" lon="35.024192810">
  <ele>293.705566</ele>
  <time>2011-10-20T06:03:08Z</time>
  <speed>4.320000</speed>
</trkpt>
<trkpt lat="32.725879669" lon="35.024211884">
  <ele>292.947754</ele>
  <time>2011-10-20T06:03:09Z</time>
  <speed>4.530000</speed>
</trkpt>
<trkpt lat="32.725925446" lon="35.024223328">
  <ele>292.424316</ele>
  <time>2011-10-20T06:03:10Z</time>
  <speed>5.180000</speed>
</trkpt>
<trkpt lat="32.725975037" lon="35.024230957">
  <ele>291.838379</ele>
  <time>2011-10-20T06:03:11Z</time>
  <speed>4.800000</speed>
</trkpt>
<trkpt lat="32.726016998" lon="35.024238586">
  <ele>291.447754</ele>
  <time>2011-10-20T06:03:12Z</time>
  <speed>4.490000</speed>
</trkpt>
<trkpt lat="32.726058960" lon="35.024234772">
  <ele>290.986816</ele>
  <time>2011-10-20T06:03:13Z</time>
  <speed>4.450000</speed>
</trkpt>
<trkpt lat="32.726089478" lon="35.024219513">
  <ele>290.307129</ele>
  <time>2011-10-20T06:03:14Z</time>
  <speed>3.110000</speed>
</trkpt>
<trkpt lat="32.726093292" lon="35.024154663">
  <ele>288.268066</ele>
  <time>2011-10-20T06:03:16Z</time>
  <speed>3.150000</speed>
</trkpt>
<trkpt lat="32.726089478" lon="35.024116516">
  <ele>287.018066</ele>
  <time>2011-10-20T06:03:17Z</time>
  <speed>3.760000</speed>
</trkpt>
<trkpt lat="32.726078033" lon="35.024059296">
  <ele>285.947754</ele>
  <time>2011-10-20T06:03:18Z</time>
  <speed>5.270000</speed>
</trkpt>
<trkpt lat="32.726058960" lon="35.023998260">
  <ele>284.666504</ele>
  <time>2011-10-20T06:03:19Z</time>
  <speed>6.950000</speed>
</trkpt>
<trkpt lat="32.726043701" lon="35.023925781">
  <ele>282.822754</ele>
  <time>2011-10-20T06:03:20Z</time>
  <speed>6.830000</speed>
</trkpt>
<trkpt lat="32.726036072" lon="35.023845673">
  <ele>282.697754</ele>
  <time>2011-10-20T06:03:21Z</time>
  <speed>7.190000</speed>
</trkpt>
<trkpt lat="32.726047516" lon="35.023784637">
  <ele>282.432129</ele>
  <time>2011-10-20T06:03:22Z</time>
  <speed>5.050000</speed>
</trkpt>
<trkpt lat="32.726043701" lon="35.023727417">
  <ele>281.377441</ele>
  <time>2011-10-20T06:03:23Z</time>
  <speed>5.250000</speed>
</trkpt>
<trkpt lat="32.726032257" lon="35.023670197">
  <ele>281.088379</ele>
  <time>2011-10-20T06:03:24Z</time>
  <speed>4.970000</speed>
</trkpt>
<trkpt lat="32.726032257" lon="35.023620605">
  <ele>280.455566</ele>
  <time>2011-10-20T06:03:25Z</time>
  <speed>3.910000</speed>
</trkpt>
<trkpt lat="32.726043701" lon="35.023582458">
  <ele>279.260254</ele>
  <time>2011-10-20T06:03:26Z</time>
  <speed>3.590000</speed>
</trkpt>
<trkpt lat="32.726058960" lon="35.023551941">
  <ele>278.752441</ele>
  <time>2011-10-20T06:03:27Z</time>
  <speed>3.250000</speed>
</trkpt>
<trkpt lat="32.726085663" lon="35.023529053">
  <ele>277.135254</ele>
  <time>2011-10-20T06:03:28Z</time>
  <speed>3.040000</speed>
</trkpt>
<trkpt lat="32.726139069" lon="35.023509979">
  <ele>275.760254</ele>
  <time>2011-10-20T06:03:30Z</time>
  <speed>2.830000</speed>
</trkpt>
<trkpt lat="32.726169586" lon="35.023494720">
  <ele>274.979004</ele>
  <time>2011-10-20T06:03:31Z</time>
  <speed>3.240000</speed>
</trkpt>
<trkpt lat="32.726196289" lon="35.023479462">
  <ele>274.291504</ele>
  <time>2011-10-20T06:03:32Z</time>
  <speed>3.220000</speed>
</trkpt>
<trkpt lat="32.726222992" lon="35.023460388">
  <ele>273.713379</ele>
  <time>2011-10-20T06:03:33Z</time>
  <speed>3.020000</speed>
</trkpt>
<trkpt lat="32.726242065" lon="35.023437500">
  <ele>273.361816</ele>
  <time>2011-10-20T06:03:34Z</time>
  <speed>2.780000</speed>
</trkpt>
<trkpt lat="32.726272583" lon="35.023429871">
  <ele>272.830566</ele>
  <time>2011-10-20T06:03:35Z</time>
  <speed>3.130000</speed>
</trkpt>
<trkpt lat="32.726306915" lon="35.023418427">
  <ele>272.666504</ele>
  <time>2011-10-20T06:03:36Z</time>
  <speed>3.270000</speed>
</trkpt>
<trkpt lat="32.726337433" lon="35.023418427">
  <ele>272.260254</ele>
  <time>2011-10-20T06:03:37Z</time>
  <speed>2.990000</speed>
</trkpt>
<trkpt lat="32.726360321" lon="35.023414612">
  <ele>271.408691</ele>
  <time>2011-10-20T06:03:38Z</time>
  <speed>2.270000</speed>
</trkpt>
<trkpt lat="32.726394653" lon="35.023403168">
  <ele>270.424316</ele>
  <time>2011-10-20T06:03:40Z</time>
  <speed>1.960000</speed>
</trkpt>
<trkpt lat="32.726428986" lon="35.023399353">
  <ele>270.049316</ele>
  <time>2011-10-20T06:03:42Z</time>
  <speed>1.430000</speed>
</trkpt>
<trkpt lat="32.726451874" lon="35.023380280">
  <ele>270.486816</ele>
  <time>2011-10-20T06:03:44Z</time>
  <speed>1.480000</speed>
</trkpt>
<trkpt lat="32.726482391" lon="35.023353577">
  <ele>269.510254</ele>
  <time>2011-10-20T06:03:46Z</time>
  <speed>1.760000</speed>
</trkpt>
<trkpt lat="32.726505280" lon="35.023330688">
  <ele>268.932129</ele>
  <time>2011-10-20T06:03:48Z</time>
  <speed>1.170000</speed>
</trkpt>
<trkpt lat="32.726531982" lon="35.023303986">
  <ele>267.830566</ele>
  <time>2011-10-20T06:03:51Z</time>
  <speed>0.920000</speed>
</trkpt>
<trkpt lat="32.726554871" lon="35.023277283">
  <ele>266.955566</ele>
  <time>2011-10-20T06:03:53Z</time>
  <speed>1.750000</speed>
</trkpt>
<trkpt lat="32.726585388" lon="35.023242950">
  <ele>266.525879</ele>
  <time>2011-10-20T06:03:55Z</time>
  <speed>1.840000</speed>
</trkpt>
<trkpt lat="32.726627350" lon="35.023216248">
  <ele>266.119629</ele>
  <time>2011-10-20T06:03:57Z</time>
  <speed>3.150000</speed>
</trkpt>
<trkpt lat="32.726661682" lon="35.023200989">
  <ele>266.424316</ele>
  <time>2011-10-20T06:03:58Z</time>
  <speed>4.270000</speed>
</trkpt>
<trkpt lat="32.726692200" lon="35.023181915">
  <ele>267.166504</ele>
  <time>2011-10-20T06:03:59Z</time>
  <speed>4.010000</speed>
</trkpt>
<trkpt lat="32.726726532" lon="35.023147583">
  <ele>267.689941</ele>
  <time>2011-10-20T06:04:00Z</time>
  <speed>4.360000</speed>
</trkpt>
<trkpt lat="32.726741791" lon="35.023113251">
  <ele>267.080566</ele>
  <time>2011-10-20T06:04:01Z</time>
  <speed>4.150000</speed>
</trkpt>
<trkpt lat="32.726760864" lon="35.023063660">
  <ele>267.611816</ele>
  <time>2011-10-20T06:04:02Z</time>
  <speed>4.560000</speed>
</trkpt>
<trkpt lat="32.726772308" lon="35.023017883">
  <ele>267.424316</ele>
  <time>2011-10-20T06:04:03Z</time>
  <speed>4.010000</speed>
</trkpt>
<trkpt lat="32.726791382" lon="35.022979736">
  <ele>267.158691</ele>
  <time>2011-10-20T06:04:04Z</time>
  <speed>3.520000</speed>
</trkpt>
<trkpt lat="32.726806641" lon="35.022949219">
  <ele>267.166504</ele>
  <time>2011-10-20T06:04:05Z</time>
  <speed>2.960000</speed>
</trkpt>
<trkpt lat="32.726814270" lon="35.022903442">
  <ele>266.900879</ele>
  <time>2011-10-20T06:04:07Z</time>
  <speed>1.580000</speed>
</trkpt>
<trkpt lat="32.726814270" lon="35.022861481">
  <ele>266.229004</ele>
  <time>2011-10-20T06:04:09Z</time>
  <speed>2.010000</speed>
</trkpt>
<trkpt lat="32.726840973" lon="35.022815704">
  <ele>265.666504</ele>
  <time>2011-10-20T06:04:11Z</time>
  <speed>2.580000</speed>
</trkpt>
<trkpt lat="32.726852417" lon="35.022789001">
  <ele>265.377441</ele>
  <time>2011-10-20T06:04:12Z</time>
  <speed>2.630000</speed>
</trkpt>
<trkpt lat="32.726871490" lon="35.022754669">
  <ele>265.393066</ele>
  <time>2011-10-20T06:04:13Z</time>
  <speed>2.530000</speed>
</trkpt>
<trkpt lat="32.726902008" lon="35.022701263">
  <ele>265.299316</ele>
  <time>2011-10-20T06:04:15Z</time>
  <speed>2.630000</speed>
</trkpt>
<trkpt lat="32.726921082" lon="35.022655487">
  <ele>265.166504</ele>
  <time>2011-10-20T06:04:17Z</time>
  <speed>2.100000</speed>
</trkpt>
<trkpt lat="32.726932526" lon="35.022621155">
  <ele>265.236816</ele>
  <time>2011-10-20T06:04:19Z</time>
  <speed>0.910000</speed>
</trkpt>
<trkpt lat="32.726913452" lon="35.022598267">
  <ele>264.979004</ele>
  <time>2011-10-20T06:04:21Z</time>
  <speed>0.690000</speed>
</trkpt>
<trkpt lat="32.726913452" lon="35.022567749">
  <ele>264.643066</ele>
  <time>2011-10-20T06:05:15Z</time>
  <speed>0.460000</speed>
</trkpt>
<trkpt lat="32.726924896" lon="35.022529602">
  <ele>264.627441</ele>
  <time>2011-10-20T06:05:18Z</time>
  <speed>1.830000</speed>
</trkpt>
<trkpt lat="32.726940155" lon="35.022480011">
  <ele>264.299316</ele>
  <time>2011-10-20T06:05:20Z</time>
  <speed>1.640000</speed>
</trkpt>
<trkpt lat="32.726867676" lon="35.022434235">
  <ele>264.479004</ele>
  <time>2011-10-20T06:05:21Z</time>
  <speed>2.320000</speed>
</trkpt>
<trkpt lat="32.726840973" lon="35.022403717">
  <ele>264.416504</ele>
  <time>2011-10-20T06:05:22Z</time>
  <speed>2.240000</speed>
</trkpt>
<trkpt lat="32.726810455" lon="35.022384644">
  <ele>264.135254</ele>
  <time>2011-10-20T06:05:23Z</time>
  <speed>2.340000</speed>
</trkpt>
<trkpt lat="32.726787567" lon="35.022354126">
  <ele>264.150879</ele>
  <time>2011-10-20T06:05:24Z</time>
  <speed>2.470000</speed>
</trkpt>
<trkpt lat="32.726757050" lon="35.022319794">
  <ele>264.432129</ele>
  <time>2011-10-20T06:05:26Z</time>
  <speed>1.450000</speed>
</trkpt>
<trkpt lat="32.726715088" lon="35.022300720">
  <ele>264.682129</ele>
  <time>2011-10-20T06:05:27Z</time>
  <speed>1.960000</speed>
</trkpt>
<trkpt lat="32.726688385" lon="35.022254944">
  <ele>265.705566</ele>
  <time>2011-10-20T06:05:29Z</time>
  <speed>1.430000</speed>
</trkpt>
<trkpt lat="32.726673126" lon="35.022228241">
  <ele>265.424316</ele>
  <time>2011-10-20T06:05:31Z</time>
  <speed>1.360000</speed>
</trkpt>
<trkpt lat="32.726642609" lon="35.022193909">
  <ele>265.502441</ele>
  <time>2011-10-20T06:05:33Z</time>
  <speed>2.060000</speed>
</trkpt>
<trkpt lat="32.726596832" lon="35.022174835">
  <ele>266.025879</ele>
  <time>2011-10-20T06:05:35Z</time>
  <speed>2.130000</speed>
</trkpt>
<trkpt lat="32.726570129" lon="35.022163391">
  <ele>266.322754</ele>
  <time>2011-10-20T06:05:36Z</time>
  <speed>2.370000</speed>
</trkpt>
<trkpt lat="32.726543427" lon="35.022151947">
  <ele>265.713379</ele>
  <time>2011-10-20T06:05:37Z</time>
  <speed>3.210000</speed>
</trkpt>
<trkpt lat="32.726512909" lon="35.022144318">
  <ele>265.377441</ele>
  <time>2011-10-20T06:05:38Z</time>
  <speed>2.690000</speed>
</trkpt>
<trkpt lat="32.726474762" lon="35.022121429">
  <ele>265.760254</ele>
  <time>2011-10-20T06:05:40Z</time>
  <speed>2.360000</speed>
</trkpt>
<trkpt lat="32.726448059" lon="35.022087097">
  <ele>265.666504</ele>
  <time>2011-10-20T06:05:42Z</time>
  <speed>2.160000</speed>
</trkpt>
<trkpt lat="32.726417542" lon="35.022056580">
  <ele>265.838379</ele>
  <time>2011-10-20T06:05:44Z</time>
  <speed>1.770000</speed>
</trkpt>
<trkpt lat="32.726375580" lon="35.022029877">
  <ele>266.213379</ele>
  <time>2011-10-20T06:05:46Z</time>
  <speed>2.120000</speed>
</trkpt>
<trkpt lat="32.726352692" lon="35.022006989">
  <ele>266.150879</ele>
  <time>2011-10-20T06:05:47Z</time>
  <speed>2.150000</speed>
</trkpt>
<trkpt lat="32.726318359" lon="35.021968842">
  <ele>267.705566</ele>
  <time>2011-10-20T06:05:49Z</time>
  <speed>2.100000</speed>
</trkpt>
<trkpt lat="32.726291656" lon="35.021926880">
  <ele>269.486816</ele>
  <time>2011-10-20T06:05:51Z</time>
  <speed>2.030000</speed>
</trkpt>
<trkpt lat="32.726264954" lon="35.021900177">
  <ele>270.432129</ele>
  <time>2011-10-20T06:05:53Z</time>
  <speed>1.650000</speed>
</trkpt>
<trkpt lat="32.726245880" lon="35.021865845">
  <ele>271.252441</ele>
  <time>2011-10-20T06:05:55Z</time>
  <speed>1.440000</speed>
</trkpt>
<trkpt lat="32.726230621" lon="35.021831512">
  <ele>272.064941</ele>
  <time>2011-10-20T06:05:57Z</time>
  <speed>1.340000</speed>
</trkpt>
<trkpt lat="32.726222992" lon="35.021793365">
  <ele>272.307129</ele>
  <time>2011-10-20T06:05:59Z</time>
  <speed>1.740000</speed>
</trkpt>
<trkpt lat="32.726207733" lon="35.021766663">
  <ele>272.432129</ele>
  <time>2011-10-20T06:06:01Z</time>
  <speed>1.640000</speed>
</trkpt>
<trkpt lat="32.726192474" lon="35.021728516">
  <ele>273.299316</ele>
  <time>2011-10-20T06:06:03Z</time>
  <speed>1.670000</speed>
</trkpt>
<trkpt lat="32.726161957" lon="35.021686554">
  <ele>272.822754</ele>
  <time>2011-10-20T06:06:05Z</time>
  <speed>1.560000</speed>
</trkpt>
<trkpt lat="32.726135254" lon="35.021663666">
  <ele>272.799316</ele>
  <time>2011-10-20T06:06:07Z</time>
  <speed>1.720000</speed>
</trkpt>
<trkpt lat="32.726123810" lon="35.021629333">
  <ele>272.955566</ele>
  <time>2011-10-20T06:06:09Z</time>
  <speed>1.550000</speed>
</trkpt>
<trkpt lat="32.726104736" lon="35.021598816">
  <ele>272.791504</ele>
  <time>2011-10-20T06:06:11Z</time>
  <speed>1.070000</speed>
</trkpt>
<trkpt lat="32.726078033" lon="35.021575928">
  <ele>273.564941</ele>
  <time>2011-10-20T06:06:13Z</time>
  <speed>1.120000</speed>
</trkpt>
<trkpt lat="32.726058960" lon="35.021549225">
  <ele>273.963379</ele>
  <time>2011-10-20T06:06:15Z</time>
  <speed>1.080000</speed>
</trkpt>
<trkpt lat="32.726036072" lon="35.021526337">
  <ele>273.768066</ele>
  <time>2011-10-20T06:06:17Z</time>
  <speed>1.600000</speed>
</trkpt>
<trkpt lat="32.726016998" lon="35.021499634">
  <ele>274.557129</ele>
  <time>2011-10-20T06:06:19Z</time>
  <speed>1.270000</speed>
</trkpt>
<trkpt lat="32.726001740" lon="35.021472931">
  <ele>275.018066</ele>
  <time>2011-10-20T06:06:21Z</time>
  <speed>1.340000</speed>
</trkpt>
<trkpt lat="32.725986481" lon="35.021423340">
  <ele>275.713379</ele>
  <time>2011-10-20T06:06:23Z</time>
  <speed>1.400000</speed>
</trkpt>
<trkpt lat="32.725982666" lon="35.021389008">
  <ele>275.619629</ele>
  <time>2011-10-20T06:06:25Z</time>
  <speed>1.320000</speed>
</trkpt>
<trkpt lat="32.725963593" lon="35.021358490">
  <ele>276.221191</ele>
  <time>2011-10-20T06:06:27Z</time>
  <speed>1.360000</speed>
</trkpt>
<trkpt lat="32.725963593" lon="35.021324158">
  <ele>276.580566</ele>
  <time>2011-10-20T06:06:29Z</time>
  <speed>1.620000</speed>
</trkpt>
<trkpt lat="32.725955963" lon="35.021289825">
  <ele>277.854004</ele>
  <time>2011-10-20T06:06:31Z</time>
  <speed>1.370000</speed>
</trkpt>
<trkpt lat="32.725967407" lon="35.021255493">
  <ele>279.104004</ele>
  <time>2011-10-20T06:06:34Z</time>
  <speed>0.930000</speed>
</trkpt>
<trkpt lat="32.725971222" lon="35.021213531">
  <ele>281.057129</ele>
  <time>2011-10-20T06:06:37Z</time>
  <speed>1.430000</speed>
</trkpt>
<trkpt lat="32.725963593" lon="35.021167755">
  <ele>282.189941</ele>
  <time>2011-10-20T06:06:40Z</time>
  <speed>1.470000</speed>
</trkpt>
<trkpt lat="32.725982666" lon="35.021137238">
  <ele>282.252441</ele>
  <time>2011-10-20T06:06:42Z</time>
  <speed>1.510000</speed>
</trkpt>
<trkpt lat="32.725994110" lon="35.021106720">
  <ele>282.760254</ele>
  <time>2011-10-20T06:06:44Z</time>
  <speed>1.340000</speed>
</trkpt>
<trkpt lat="32.726009369" lon="35.021068573">
  <ele>283.760254</ele>
  <time>2011-10-20T06:06:47Z</time>
  <speed>1.270000</speed>
</trkpt>
<trkpt lat="32.726028442" lon="35.021045685">
  <ele>284.369629</ele>
  <time>2011-10-20T06:06:49Z</time>
  <speed>1.450000</speed>
</trkpt>
<trkpt lat="32.726032257" lon="35.021003723">
  <ele>285.596191</ele>
  <time>2011-10-20T06:06:52Z</time>
  <speed>1.880000</speed>
</trkpt>
<trkpt lat="32.726009369" lon="35.020969391">
  <ele>285.955566</ele>
  <time>2011-10-20T06:06:54Z</time>
  <speed>1.640000</speed>
</trkpt>
<trkpt lat="32.725978851" lon="35.020957947">
  <ele>285.830566</ele>
  <time>2011-10-20T06:06:56Z</time>
  <speed>0.800000</speed>
</trkpt>
<trkpt lat="32.725948334" lon="35.020973206">
  <ele>285.525879</ele>
  <time>2011-10-20T06:06:58Z</time>
  <speed>1.410000</speed>
</trkpt>
<trkpt lat="32.725917816" lon="35.020992279">
  <ele>285.064941</ele>
  <time>2011-10-20T06:07:00Z</time>
  <speed>1.370000</speed>
</trkpt>
<trkpt lat="32.725887299" lon="35.021015167">
  <ele>285.049316</ele>
  <time>2011-10-20T06:07:02Z</time>
  <speed>1.210000</speed>
</trkpt>
<trkpt lat="32.725856781" lon="35.021011353">
  <ele>284.658691</ele>
  <time>2011-10-20T06:07:04Z</time>
  <speed>1.730000</speed>
</trkpt>
<trkpt lat="32.725830078" lon="35.021007538">
  <ele>285.486816</ele>
  <time>2011-10-20T06:07:06Z</time>
  <speed>1.100000</speed>
</trkpt>
<trkpt lat="32.725791931" lon="35.021022797">
  <ele>284.619629</ele>
  <time>2011-10-20T06:07:09Z</time>
  <speed>1.420000</speed>
</trkpt>
<trkpt lat="32.725772858" lon="35.021045685">
  <ele>285.119629</ele>
  <time>2011-10-20T06:07:11Z</time>
  <speed>1.530000</speed>
</trkpt>
<trkpt lat="32.725765228" lon="35.021080017">
  <ele>284.502441</ele>
  <time>2011-10-20T06:07:13Z</time>
  <speed>1.590000</speed>
</trkpt>
<trkpt lat="32.725769043" lon="35.021118164">
  <ele>284.010254</ele>
  <time>2011-10-20T06:07:15Z</time>
  <speed>1.570000</speed>
</trkpt>
<trkpt lat="32.725761414" lon="35.021152496">
  <ele>284.119629</ele>
  <time>2011-10-20T06:07:17Z</time>
  <speed>1.640000</speed>
</trkpt>
<trkpt lat="32.725753784" lon="35.021186829">
  <ele>283.783691</ele>
  <time>2011-10-20T06:07:19Z</time>
  <speed>1.700000</speed>
</trkpt>
<trkpt lat="32.725749969" lon="35.021236420">
  <ele>283.143066</ele>
  <time>2011-10-20T06:07:22Z</time>
  <speed>1.520000</speed>
</trkpt>
<trkpt lat="32.725734711" lon="35.021270752">
  <ele>283.494629</ele>
  <time>2011-10-20T06:07:24Z</time>
  <speed>1.620000</speed>
</trkpt>
<trkpt lat="32.725723267" lon="35.021301270">
  <ele>283.557129</ele>
  <time>2011-10-20T06:07:26Z</time>
  <speed>1.580000</speed>
</trkpt>
<trkpt lat="32.725711823" lon="35.021335602">
  <ele>284.252441</ele>
  <time>2011-10-20T06:07:28Z</time>
  <speed>1.640000</speed>
</trkpt>
<trkpt lat="32.725704193" lon="35.021369934">
  <ele>284.322754</ele>
  <time>2011-10-20T06:07:30Z</time>
  <speed>1.410000</speed>
</trkpt>
<trkpt lat="32.725692749" lon="35.021404266">
  <ele>284.213379</ele>
  <time>2011-10-20T06:07:32Z</time>
  <speed>1.420000</speed>
</trkpt>
<trkpt lat="32.725685120" lon="35.021442413">
  <ele>284.502441</ele>
  <time>2011-10-20T06:07:34Z</time>
  <speed>1.430000</speed>
</trkpt>
<trkpt lat="32.725677490" lon="35.021492004">
  <ele>284.432129</ele>
  <time>2011-10-20T06:07:37Z</time>
  <speed>1.620000</speed>
</trkpt>
<trkpt lat="32.725666046" lon="35.021537781">
  <ele>284.307129</ele>
  <time>2011-10-20T06:07:40Z</time>
  <speed>1.900000</speed>
</trkpt>
<trkpt lat="32.725658417" lon="35.021568298">
  <ele>284.588379</ele>
  <time>2011-10-20T06:07:42Z</time>
  <speed>1.630000</speed>
</trkpt>
<trkpt lat="32.725646973" lon="35.021602631">
  <ele>284.346191</ele>
  <time>2011-10-20T06:07:44Z</time>
  <speed>1.620000</speed>
</trkpt>
<trkpt lat="32.725639343" lon="35.021640778">
  <ele>284.400879</ele>
  <time>2011-10-20T06:07:46Z</time>
  <speed>1.610000</speed>
</trkpt>
<trkpt lat="32.725635529" lon="35.021675110">
  <ele>284.658691</ele>
  <time>2011-10-20T06:07:48Z</time>
  <speed>1.670000</speed>
</trkpt>
<trkpt lat="32.725624084" lon="35.021705627">
  <ele>284.830566</ele>
  <time>2011-10-20T06:07:50Z</time>
  <speed>1.670000</speed>
</trkpt>
<trkpt lat="32.725612640" lon="35.021739960">
  <ele>284.822754</ele>
  <time>2011-10-20T06:07:52Z</time>
  <speed>1.510000</speed>
</trkpt>
<trkpt lat="32.725605011" lon="35.021770477">
  <ele>284.846191</ele>
  <time>2011-10-20T06:07:54Z</time>
  <speed>1.640000</speed>
</trkpt>
<trkpt lat="32.725589752" lon="35.021804810">
  <ele>285.393066</ele>
  <time>2011-10-20T06:07:56Z</time>
  <speed>1.420000</speed>
</trkpt>
<trkpt lat="32.725566864" lon="35.021842957">
  <ele>285.729004</ele>
  <time>2011-10-20T06:07:59Z</time>
  <speed>1.600000</speed>
</trkpt>
<trkpt lat="32.725547791" lon="35.021884918">
  <ele>286.002441</ele>
  <time>2011-10-20T06:08:02Z</time>
  <speed>1.790000</speed>
</trkpt>
<trkpt lat="32.725528717" lon="35.021915436">
  <ele>286.830566</ele>
  <time>2011-10-20T06:08:04Z</time>
  <speed>1.630000</speed>
</trkpt>
<trkpt lat="32.725509644" lon="35.021949768">
  <ele>287.416504</ele>
  <time>2011-10-20T06:08:06Z</time>
  <speed>1.780000</speed>
</trkpt>
<trkpt lat="32.725490570" lon="35.021980286">
  <ele>287.908691</ele>
  <time>2011-10-20T06:08:08Z</time>
  <speed>1.600000</speed>
</trkpt>
<trkpt lat="32.725460052" lon="35.022014618">
  <ele>287.643066</ele>
  <time>2011-10-20T06:08:10Z</time>
  <speed>2.120000</speed>
</trkpt>
<trkpt lat="32.725440979" lon="35.022048950">
  <ele>287.510254</ele>
  <time>2011-10-20T06:08:12Z</time>
  <speed>1.790000</speed>
</trkpt>
<trkpt lat="32.725418091" lon="35.022071838">
  <ele>287.205566</ele>
  <time>2011-10-20T06:08:14Z</time>
  <speed>1.800000</speed>
</trkpt>
<trkpt lat="32.725391388" lon="35.022098541">
  <ele>287.080566</ele>
  <time>2011-10-20T06:08:16Z</time>
  <speed>1.840000</speed>
</trkpt>
<trkpt lat="32.725364685" lon="35.022117615">
  <ele>287.564941</ele>
  <time>2011-10-20T06:08:18Z</time>
  <speed>1.950000</speed>
</trkpt>
<trkpt lat="32.725337982" lon="35.022136688">
  <ele>287.439941</ele>
  <time>2011-10-20T06:08:20Z</time>
  <speed>1.650000</speed>
</trkpt>
<trkpt lat="32.725315094" lon="35.022159576">
  <ele>286.986816</ele>
  <time>2011-10-20T06:08:22Z</time>
  <speed>1.920000</speed>
</trkpt>
<trkpt lat="32.725288391" lon="35.022178650">
  <ele>286.572754</ele>
  <time>2011-10-20T06:08:24Z</time>
  <speed>1.790000</speed>
</trkpt>
<trkpt lat="32.725265503" lon="35.022201538">
  <ele>286.236816</ele>
  <time>2011-10-20T06:08:26Z</time>
  <speed>1.820000</speed>
</trkpt>
<trkpt lat="32.725238800" lon="35.022224426">
  <ele>286.322754</ele>
  <time>2011-10-20T06:08:28Z</time>
  <speed>1.920000</speed>
</trkpt>
<trkpt lat="32.725208282" lon="35.022258759">
  <ele>287.338379</ele>
  <time>2011-10-20T06:08:30Z</time>
  <speed>1.830000</speed>
</trkpt>
<trkpt lat="32.725181580" lon="35.022289276">
  <ele>287.393066</ele>
  <time>2011-10-20T06:08:32Z</time>
  <speed>1.900000</speed>
</trkpt>
<trkpt lat="32.725158691" lon="35.022312164">
  <ele>287.486816</ele>
  <time>2011-10-20T06:08:34Z</time>
  <speed>1.710000</speed>
</trkpt>
<trkpt lat="32.725135803" lon="35.022338867">
  <ele>287.979004</ele>
  <time>2011-10-20T06:08:36Z</time>
  <speed>1.880000</speed>
</trkpt>
<trkpt lat="32.725112915" lon="35.022365570">
  <ele>287.822754</ele>
  <time>2011-10-20T06:08:38Z</time>
  <speed>1.930000</speed>
</trkpt>
<trkpt lat="32.725082397" lon="35.022384644">
  <ele>287.713379</ele>
  <time>2011-10-20T06:08:40Z</time>
  <speed>1.980000</speed>
</trkpt>
<trkpt lat="32.725055695" lon="35.022403717">
  <ele>288.361816</ele>
  <time>2011-10-20T06:08:42Z</time>
  <speed>1.770000</speed>
</trkpt>
<trkpt lat="32.725032806" lon="35.022434235">
  <ele>288.377441</ele>
  <time>2011-10-20T06:08:44Z</time>
  <speed>1.870000</speed>
</trkpt>
<trkpt lat="32.725006104" lon="35.022457123">
  <ele>288.814941</ele>
  <time>2011-10-20T06:08:46Z</time>
  <speed>2.210000</speed>
</trkpt>
<trkpt lat="32.724979401" lon="35.022483826">
  <ele>288.572754</ele>
  <time>2011-10-20T06:08:48Z</time>
  <speed>1.930000</speed>
</trkpt>
<trkpt lat="32.724948883" lon="35.022518158">
  <ele>288.721191</ele>
  <time>2011-10-20T06:08:50Z</time>
  <speed>1.900000</speed>
</trkpt>
<trkpt lat="32.724914551" lon="35.022541046">
  <ele>288.814941</ele>
  <time>2011-10-20T06:08:52Z</time>
  <speed>1.870000</speed>
</trkpt>
<trkpt lat="32.724887848" lon="35.022571564">
  <ele>289.635254</ele>
  <time>2011-10-20T06:08:54Z</time>
  <speed>1.910000</speed>
</trkpt>
<trkpt lat="32.724857330" lon="35.022590637">
  <ele>290.252441</ele>
  <time>2011-10-20T06:08:56Z</time>
  <speed>1.930000</speed>
</trkpt>
<trkpt lat="32.724826813" lon="35.022617340">
  <ele>291.580566</ele>
  <time>2011-10-20T06:08:58Z</time>
  <speed>1.940000</speed>
</trkpt>
<trkpt lat="32.724803925" lon="35.022640228">
  <ele>292.549316</ele>
  <time>2011-10-20T06:09:00Z</time>
  <speed>1.890000</speed>
</trkpt>
<trkpt lat="32.724773407" lon="35.022670746">
  <ele>293.557129</ele>
  <time>2011-10-20T06:09:02Z</time>
  <speed>1.960000</speed>
</trkpt>
<trkpt lat="32.724742889" lon="35.022686005">
  <ele>294.275879</ele>
  <time>2011-10-20T06:09:04Z</time>
  <speed>1.910000</speed>
</trkpt>
<trkpt lat="32.724720001" lon="35.022720337">
  <ele>295.377441</ele>
  <time>2011-10-20T06:09:06Z</time>
  <speed>1.790000</speed>
</trkpt>
<trkpt lat="32.724697113" lon="35.022754669">
  <ele>295.650879</ele>
  <time>2011-10-20T06:09:08Z</time>
  <speed>2.090000</speed>
</trkpt>
<trkpt lat="32.724670410" lon="35.022789001">
  <ele>295.588379</ele>
  <time>2011-10-20T06:09:10Z</time>
  <speed>1.870000</speed>
</trkpt>
<trkpt lat="32.724639893" lon="35.022819519">
  <ele>296.393066</ele>
  <time>2011-10-20T06:09:12Z</time>
  <speed>1.840000</speed>
</trkpt>
<trkpt lat="32.724617004" lon="35.022850037">
  <ele>297.002441</ele>
  <time>2011-10-20T06:09:14Z</time>
  <speed>1.760000</speed>
</trkpt>
<trkpt lat="32.724594116" lon="35.022880554">
  <ele>297.479004</ele>
  <time>2011-10-20T06:09:16Z</time>
  <speed>1.850000</speed>
</trkpt>
<trkpt lat="32.724578857" lon="35.022918701">
  <ele>297.705566</ele>
  <time>2011-10-20T06:09:18Z</time>
  <speed>1.810000</speed>
</trkpt>
<trkpt lat="32.724563599" lon="35.022960663">
  <ele>298.166504</ele>
  <time>2011-10-20T06:09:20Z</time>
  <speed>1.850000</speed>
</trkpt>
<trkpt lat="32.724548340" lon="35.022994995">
  <ele>298.713379</ele>
  <time>2011-10-20T06:09:22Z</time>
  <speed>2.150000</speed>
</trkpt>
<trkpt lat="32.724540710" lon="35.023025513">
  <ele>299.346191</ele>
  <time>2011-10-20T06:09:24Z</time>
  <speed>1.860000</speed>
</trkpt>
<trkpt lat="32.724533081" lon="35.023063660">
  <ele>299.908691</ele>
  <time>2011-10-20T06:09:26Z</time>
  <speed>1.990000</speed>
</trkpt>
<trkpt lat="32.724533081" lon="35.023109436">
  <ele>299.221191</ele>
  <time>2011-10-20T06:09:28Z</time>
  <speed>1.940000</speed>
</trkpt>
<trkpt lat="32.724525452" lon="35.023151398">
  <ele>298.713379</ele>
  <time>2011-10-20T06:09:30Z</time>
  <speed>1.900000</speed>
</trkpt>
<trkpt lat="32.724517822" lon="35.023189545">
  <ele>298.893066</ele>
  <time>2011-10-20T06:09:32Z</time>
  <speed>1.970000</speed>
</trkpt>
<trkpt lat="32.724506378" lon="35.023223877">
  <ele>299.229004</ele>
  <time>2011-10-20T06:09:34Z</time>
  <speed>1.820000</speed>
</trkpt>
<trkpt lat="32.724514008" lon="35.023262024">
  <ele>299.908691</ele>
  <time>2011-10-20T06:09:36Z</time>
  <speed>1.930000</speed>
</trkpt>
<trkpt lat="32.724517822" lon="35.023296356">
  <ele>300.580566</ele>
  <time>2011-10-20T06:09:38Z</time>
  <speed>1.780000</speed>
</trkpt>
<trkpt lat="32.724517822" lon="35.023338318">
  <ele>300.736816</ele>
  <time>2011-10-20T06:09:40Z</time>
  <speed>1.990000</speed>
</trkpt>
<trkpt lat="32.724521637" lon="35.023376465">
  <ele>300.971191</ele>
  <time>2011-10-20T06:09:42Z</time>
  <speed>1.820000</speed>
</trkpt>
<trkpt lat="32.724525452" lon="35.023418427">
  <ele>301.510254</ele>
  <time>2011-10-20T06:09:44Z</time>
  <speed>1.880000</speed>
</trkpt>
<trkpt lat="32.724525452" lon="35.023460388">
  <ele>301.541504</ele>
  <time>2011-10-20T06:09:46Z</time>
  <speed>2.070000</speed>
</trkpt>
<trkpt lat="32.724521637" lon="35.023498535">
  <ele>301.705566</ele>
  <time>2011-10-20T06:09:48Z</time>
  <speed>1.940000</speed>
</trkpt>
<trkpt lat="32.724517822" lon="35.023544312">
  <ele>301.596191</ele>
  <time>2011-10-20T06:09:50Z</time>
  <speed>2.130000</speed>
</trkpt>
<trkpt lat="32.724514008" lon="35.023574829">
  <ele>302.361816</ele>
  <time>2011-10-20T06:09:51Z</time>
  <speed>2.000000</speed>
</trkpt>
<trkpt lat="32.724506378" lon="35.023612976">
  <ele>304.025879</ele>
  <time>2011-10-20T06:09:53Z</time>
  <speed>1.980000</speed>
</trkpt>
<trkpt lat="32.724502563" lon="35.023658752">
  <ele>305.119629</ele>
  <time>2011-10-20T06:09:55Z</time>
  <speed>2.120000</speed>
</trkpt>
<trkpt lat="32.724494934" lon="35.023700714">
  <ele>305.189941</ele>
  <time>2011-10-20T06:09:57Z</time>
  <speed>2.020000</speed>
</trkpt>
<trkpt lat="32.724491119" lon="35.023738861">
  <ele>305.893066</ele>
  <time>2011-10-20T06:09:59Z</time>
  <speed>2.080000</speed>
</trkpt>
<trkpt lat="32.724475861" lon="35.023777008">
  <ele>305.916504</ele>
  <time>2011-10-20T06:10:01Z</time>
  <speed>1.950000</speed>
</trkpt>
<trkpt lat="32.724464417" lon="35.023826599">
  <ele>306.307129</ele>
  <time>2011-10-20T06:10:03Z</time>
  <speed>1.940000</speed>
</trkpt>
<trkpt lat="32.724445343" lon="35.023868561">
  <ele>306.971191</ele>
  <time>2011-10-20T06:10:05Z</time>
  <speed>2.030000</speed>
</trkpt>
<trkpt lat="32.724433899" lon="35.023906708">
  <ele>306.557129</ele>
  <time>2011-10-20T06:10:07Z</time>
  <speed>2.160000</speed>
</trkpt>
<trkpt lat="32.724403381" lon="35.023941040">
  <ele>306.518066</ele>
  <time>2011-10-20T06:10:09Z</time>
  <speed>1.990000</speed>
</trkpt>
<trkpt lat="32.724372864" lon="35.023967743">
  <ele>306.275879</ele>
  <time>2011-10-20T06:10:11Z</time>
  <speed>1.970000</speed>
</trkpt>
<trkpt lat="32.724346161" lon="35.023998260">
  <ele>307.033691</ele>
  <time>2011-10-20T06:10:13Z</time>
  <speed>2.010000</speed>
</trkpt>
<trkpt lat="32.724315643" lon="35.024017334">
  <ele>307.744629</ele>
  <time>2011-10-20T06:10:15Z</time>
  <speed>2.060000</speed>
</trkpt>
<trkpt lat="32.724281311" lon="35.024036407">
  <ele>308.205566</ele>
  <time>2011-10-20T06:10:17Z</time>
  <speed>1.920000</speed>
</trkpt>
<trkpt lat="32.724250793" lon="35.024055481">
  <ele>308.213379</ele>
  <time>2011-10-20T06:10:19Z</time>
  <speed>1.970000</speed>
</trkpt>
<trkpt lat="32.724216461" lon="35.024070740">
  <ele>308.580566</ele>
  <time>2011-10-20T06:10:21Z</time>
  <speed>2.200000</speed>
</trkpt>
<trkpt lat="32.724182129" lon="35.024082184">
  <ele>308.510254</ele>
  <time>2011-10-20T06:10:23Z</time>
  <speed>2.040000</speed>
</trkpt>
<trkpt lat="32.724155426" lon="35.024105072">
  <ele>308.455566</ele>
  <time>2011-10-20T06:10:25Z</time>
  <speed>1.980000</speed>
</trkpt>
<trkpt lat="32.724117279" lon="35.024124146">
  <ele>308.377441</ele>
  <time>2011-10-20T06:10:27Z</time>
  <speed>2.100000</speed>
</trkpt>
<trkpt lat="32.724079132" lon="35.024127960">
  <ele>308.119629</ele>
  <time>2011-10-20T06:10:29Z</time>
  <speed>2.160000</speed>
</trkpt>
<trkpt lat="32.724037170" lon="35.024124146">
  <ele>308.541504</ele>
  <time>2011-10-20T06:10:31Z</time>
  <speed>1.940000</speed>
</trkpt>
<trkpt lat="32.723995209" lon="35.024116516">
  <ele>309.377441</ele>
  <time>2011-10-20T06:10:33Z</time>
  <speed>1.960000</speed>
</trkpt>
<trkpt lat="32.723964691" lon="35.024097443">
  <ele>309.666504</ele>
  <time>2011-10-20T06:10:35Z</time>
  <speed>2.040000</speed>
</trkpt>
<trkpt lat="32.723934174" lon="35.024070740">
  <ele>309.455566</ele>
  <time>2011-10-20T06:10:37Z</time>
  <speed>2.040000</speed>
</trkpt>
<trkpt lat="32.723903656" lon="35.024044037">
  <ele>309.111816</ele>
  <time>2011-10-20T06:10:39Z</time>
  <speed>2.010000</speed>
</trkpt>
<trkpt lat="32.723869324" lon="35.024013519">
  <ele>309.947754</ele>
  <time>2011-10-20T06:10:41Z</time>
  <speed>1.960000</speed>
</trkpt>
<trkpt lat="32.723838806" lon="35.023983002">
  <ele>310.674316</ele>
  <time>2011-10-20T06:10:43Z</time>
  <speed>2.130000</speed>
</trkpt>
<trkpt lat="32.723815918" lon="35.023948669">
  <ele>310.658691</ele>
  <time>2011-10-20T06:10:45Z</time>
  <speed>2.060000</speed>
</trkpt>
<trkpt lat="32.723796844" lon="35.023906708">
  <ele>310.549316</ele>
  <time>2011-10-20T06:10:47Z</time>
  <speed>2.280000</speed>
</trkpt>
<trkpt lat="32.723777771" lon="35.023880005">
  <ele>311.049316</ele>
  <time>2011-10-20T06:10:49Z</time>
  <speed>2.000000</speed>
</trkpt>
<trkpt lat="32.723754883" lon="35.023841858">
  <ele>311.986816</ele>
  <time>2011-10-20T06:10:51Z</time>
  <speed>1.880000</speed>
</trkpt>
<trkpt lat="32.723731995" lon="35.023803711">
  <ele>312.549316</ele>
  <time>2011-10-20T06:10:53Z</time>
  <speed>1.960000</speed>
</trkpt>
<trkpt lat="32.723709106" lon="35.023765564">
  <ele>312.822754</ele>
  <time>2011-10-20T06:10:55Z</time>
  <speed>2.160000</speed>
</trkpt>
<trkpt lat="32.723697662" lon="35.023727417">
  <ele>312.643066</ele>
  <time>2011-10-20T06:10:57Z</time>
  <speed>1.970000</speed>
</trkpt>
<trkpt lat="32.723682404" lon="35.023685455">
  <ele>312.846191</ele>
  <time>2011-10-20T06:10:59Z</time>
  <speed>1.730000</speed>
</trkpt>
<trkpt lat="32.723663330" lon="35.023651123">
  <ele>313.314941</ele>
  <time>2011-10-20T06:11:01Z</time>
  <speed>2.140000</speed>
</trkpt>
<trkpt lat="32.723648071" lon="35.023609161">
  <ele>313.963379</ele>
  <time>2011-10-20T06:11:03Z</time>
  <speed>2.290000</speed>
</trkpt>
<trkpt lat="32.723640442" lon="35.023563385">
  <ele>314.439941</ele>
  <time>2011-10-20T06:11:05Z</time>
  <speed>1.960000</speed>
</trkpt>
<trkpt lat="32.723640442" lon="35.023521423">
  <ele>314.674316</ele>
  <time>2011-10-20T06:11:07Z</time>
  <speed>2.170000</speed>
</trkpt>
<trkpt lat="32.723640442" lon="35.023475647">
  <ele>314.689941</ele>
  <time>2011-10-20T06:11:09Z</time>
  <speed>2.290000</speed>
</trkpt>
<trkpt lat="32.723636627" lon="35.023429871">
  <ele>315.197754</ele>
  <time>2011-10-20T06:11:11Z</time>
  <speed>2.300000</speed>
</trkpt>
<trkpt lat="32.723625183" lon="35.023380280">
  <ele>315.549316</ele>
  <time>2011-10-20T06:11:13Z</time>
  <speed>1.890000</speed>
</trkpt>
<trkpt lat="32.723625183" lon="35.023342133">
  <ele>315.354004</ele>
  <time>2011-10-20T06:11:15Z</time>
  <speed>2.060000</speed>
</trkpt>
<trkpt lat="32.723621368" lon="35.023303986">
  <ele>315.283691</ele>
  <time>2011-10-20T06:11:17Z</time>
  <speed>2.290000</speed>
</trkpt>
<trkpt lat="32.723621368" lon="35.023258209">
  <ele>315.299316</ele>
  <time>2011-10-20T06:11:19Z</time>
  <speed>2.410000</speed>
</trkpt>
<trkpt lat="32.723617554" lon="35.023208618">
  <ele>315.549316</ele>
  <time>2011-10-20T06:11:21Z</time>
  <speed>2.670000</speed>
</trkpt>
<trkpt lat="32.723625183" lon="35.023151398">
  <ele>315.557129</ele>
  <time>2011-10-20T06:11:23Z</time>
  <speed>2.830000</speed>
</trkpt>
<trkpt lat="32.723628998" lon="35.023094177">
  <ele>315.963379</ele>
  <time>2011-10-20T06:11:25Z</time>
  <speed>2.710000</speed>
</trkpt>
<trkpt lat="32.723628998" lon="35.023040771">
  <ele>316.783691</ele>
  <time>2011-10-20T06:11:27Z</time>
  <speed>2.600000</speed>
</trkpt>
<trkpt lat="32.723628998" lon="35.022983551">
  <ele>317.041504</ele>
  <time>2011-10-20T06:11:29Z</time>
  <speed>2.500000</speed>
</trkpt>
<trkpt lat="32.723640442" lon="35.022933960">
  <ele>317.518066</ele>
  <time>2011-10-20T06:11:31Z</time>
  <speed>1.750000</speed>
</trkpt>
<trkpt lat="32.723636627" lon="35.022891998">
  <ele>317.971191</ele>
  <time>2011-10-20T06:11:33Z</time>
  <speed>1.920000</speed>
</trkpt>
<trkpt lat="32.723628998" lon="35.022842407">
  <ele>318.775879</ele>
  <time>2011-10-20T06:11:35Z</time>
  <speed>2.180000</speed>
</trkpt>
<trkpt lat="32.723644257" lon="35.022785187">
  <ele>318.346191</ele>
  <time>2011-10-20T06:11:37Z</time>
  <speed>2.100000</speed>
</trkpt>
<trkpt lat="32.723644257" lon="35.022731781">
  <ele>318.736816</ele>
  <time>2011-10-20T06:11:39Z</time>
  <speed>2.050000</speed>
</trkpt>
<trkpt lat="32.723651886" lon="35.022686005">
  <ele>318.564941</ele>
  <time>2011-10-20T06:11:41Z</time>
  <speed>1.890000</speed>
</trkpt>
<trkpt lat="32.723663330" lon="35.022640228">
  <ele>317.604004</ele>
  <time>2011-10-20T06:11:43Z</time>
  <speed>1.850000</speed>
</trkpt>
<trkpt lat="32.723674774" lon="35.022590637">
  <ele>317.588379</ele>
  <time>2011-10-20T06:11:45Z</time>
  <speed>1.770000</speed>
</trkpt>
<trkpt lat="32.723670959" lon="35.022533417">
  <ele>317.346191</ele>
  <time>2011-10-20T06:11:47Z</time>
  <speed>2.230000</speed>
</trkpt>
<trkpt lat="32.723655701" lon="35.022487640">
  <ele>317.010254</ele>
  <time>2011-10-20T06:11:49Z</time>
  <speed>2.100000</speed>
</trkpt>
<trkpt lat="32.723648071" lon="35.022449493">
  <ele>316.432129</ele>
  <time>2011-10-20T06:11:51Z</time>
  <speed>1.800000</speed>
</trkpt>
<trkpt lat="32.723651886" lon="35.022396088">
  <ele>316.291504</ele>
  <time>2011-10-20T06:11:53Z</time>
  <speed>2.050000</speed>
</trkpt>
<trkpt lat="32.723659515" lon="35.022357941">
  <ele>316.174316</ele>
  <time>2011-10-20T06:11:55Z</time>
  <speed>1.660000</speed>
</trkpt>
<trkpt lat="32.723670959" lon="35.022315979">
  <ele>317.119629</ele>
  <time>2011-10-20T06:11:57Z</time>
  <speed>1.930000</speed>
</trkpt>
<trkpt lat="32.723693848" lon="35.022270203">
  <ele>316.752441</ele>
  <time>2011-10-20T06:11:59Z</time>
  <speed>1.960000</speed>
</trkpt>
<trkpt lat="32.723701477" lon="35.022224426">
  <ele>316.143066</ele>
  <time>2011-10-20T06:12:01Z</time>
  <speed>1.970000</speed>
</trkpt>
<trkpt lat="32.723709106" lon="35.022190094">
  <ele>315.291504</ele>
  <time>2011-10-20T06:12:03Z</time>
  <speed>1.750000</speed>
</trkpt>
<trkpt lat="32.723712921" lon="35.022155762">
  <ele>314.299316</ele>
  <time>2011-10-20T06:12:05Z</time>
  <speed>1.730000</speed>
</trkpt>
<trkpt lat="32.723724365" lon="35.022117615">
  <ele>313.580566</ele>
  <time>2011-10-20T06:12:07Z</time>
  <speed>1.670000</speed>
</trkpt>
<trkpt lat="32.723731995" lon="35.022083282">
  <ele>312.658691</ele>
  <time>2011-10-20T06:12:09Z</time>
  <speed>1.610000</speed>
</trkpt>
<trkpt lat="32.723697662" lon="35.022010803">
  <ele>313.721191</ele>
  <time>2011-10-20T06:12:12Z</time>
  <speed>1.210000</speed>
</trkpt>
<trkpt lat="32.723667145" lon="35.021995544">
  <ele>313.104004</ele>
  <time>2011-10-20T06:12:13Z</time>
  <speed>1.650000</speed>
</trkpt>
<trkpt lat="32.723651886" lon="35.021965027">
  <ele>313.416504</ele>
  <time>2011-10-20T06:12:14Z</time>
  <speed>1.620000</speed>
</trkpt>
<trkpt lat="32.723667145" lon="35.021919250">
  <ele>314.057129</ele>
  <time>2011-10-20T06:12:16Z</time>
  <speed>1.470000</speed>
</trkpt>
<trkpt lat="32.723678589" lon="35.021881104">
  <ele>314.182129</ele>
  <time>2011-10-20T06:12:18Z</time>
  <speed>1.650000</speed>
</trkpt>
<trkpt lat="32.723686218" lon="35.021839142">
  <ele>315.197754</ele>
  <time>2011-10-20T06:12:20Z</time>
  <speed>1.270000</speed>
</trkpt>
<trkpt lat="32.723678589" lon="35.021793365">
  <ele>315.729004</ele>
  <time>2011-10-20T06:12:23Z</time>
  <speed>1.440000</speed>
</trkpt>
<trkpt lat="32.723667145" lon="35.021759033">
  <ele>315.650879</ele>
  <time>2011-10-20T06:12:25Z</time>
  <speed>1.600000</speed>
</trkpt>
<trkpt lat="32.723682404" lon="35.021728516">
  <ele>315.525879</ele>
  <time>2011-10-20T06:12:27Z</time>
  <speed>1.260000</speed>
</trkpt>
<trkpt lat="32.723690033" lon="35.021682739">
  <ele>316.377441</ele>
  <time>2011-10-20T06:12:30Z</time>
  <speed>1.290000</speed>
</trkpt>
<trkpt lat="32.723705292" lon="35.021652222">
  <ele>317.002441</ele>
  <time>2011-10-20T06:12:32Z</time>
  <speed>1.470000</speed>
</trkpt>
<trkpt lat="32.723712921" lon="35.021614075">
  <ele>317.760254</ele>
  <time>2011-10-20T06:12:34Z</time>
  <speed>1.280000</speed>
</trkpt>
<trkpt lat="32.723709106" lon="35.021575928">
  <ele>318.229004</ele>
  <time>2011-10-20T06:12:36Z</time>
  <speed>1.510000</speed>
</trkpt>
<trkpt lat="32.723709106" lon="35.021537781">
  <ele>319.314941</ele>
  <time>2011-10-20T06:12:38Z</time>
  <speed>1.520000</speed>
</trkpt>
<trkpt lat="32.723697662" lon="35.021480560">
  <ele>321.064941</ele>
  <time>2011-10-20T06:12:40Z</time>
  <speed>1.470000</speed>
</trkpt>
<trkpt lat="32.723693848" lon="35.021427155">
  <ele>322.041504</ele>
  <time>2011-10-20T06:12:42Z</time>
  <speed>1.690000</speed>
</trkpt>
<trkpt lat="32.723682404" lon="35.021381378">
  <ele>323.197754</ele>
  <time>2011-10-20T06:12:44Z</time>
  <speed>1.540000</speed>
</trkpt>
<trkpt lat="32.723670959" lon="35.021350861">
  <ele>324.471191</ele>
  <time>2011-10-20T06:12:45Z</time>
  <speed>1.540000</speed>
</trkpt>
<trkpt lat="32.723659515" lon="35.021320343">
  <ele>325.822754</ele>
  <time>2011-10-20T06:12:46Z</time>
  <speed>1.570000</speed>
</trkpt>
<trkpt lat="32.723644257" lon="35.021286011">
  <ele>327.432129</ele>
  <time>2011-10-20T06:12:47Z</time>
  <speed>1.700000</speed>
</trkpt>
<trkpt lat="32.723632813" lon="35.021251678">
  <ele>327.072754</ele>
  <time>2011-10-20T06:12:49Z</time>
  <speed>1.880000</speed>
</trkpt>
<trkpt lat="32.723613739" lon="35.021209717">
  <ele>328.291504</ele>
  <time>2011-10-20T06:12:51Z</time>
  <speed>1.770000</speed>
</trkpt>
<trkpt lat="32.723598480" lon="35.021179199">
  <ele>328.361816</ele>
  <time>2011-10-20T06:12:53Z</time>
  <speed>1.970000</speed>
</trkpt>
<trkpt lat="32.723575592" lon="35.021141052">
  <ele>328.502441</ele>
  <time>2011-10-20T06:12:55Z</time>
  <speed>1.990000</speed>
</trkpt>
<trkpt lat="32.723552704" lon="35.021099091">
  <ele>328.916504</ele>
  <time>2011-10-20T06:12:57Z</time>
  <speed>2.040000</speed>
</trkpt>
<trkpt lat="32.723533630" lon="35.021076202">
  <ele>329.549316</ele>
  <time>2011-10-20T06:12:58Z</time>
  <speed>2.080000</speed>
</trkpt>
<trkpt lat="32.723503113" lon="35.021038055">
  <ele>330.213379</ele>
  <time>2011-10-20T06:13:00Z</time>
  <speed>1.930000</speed>
</trkpt>
<trkpt lat="32.723476410" lon="35.021003723">
  <ele>330.174316</ele>
  <time>2011-10-20T06:13:02Z</time>
  <speed>1.870000</speed>
</trkpt>
<trkpt lat="32.723449707" lon="35.020969391">
  <ele>330.854004</ele>
  <time>2011-10-20T06:13:04Z</time>
  <speed>2.110000</speed>
</trkpt>
<trkpt lat="32.723419189" lon="35.020935059">
  <ele>331.244629</ele>
  <time>2011-10-20T06:13:06Z</time>
  <speed>2.070000</speed>
</trkpt>
<trkpt lat="32.723400116" lon="35.020908356">
  <ele>330.760254</ele>
  <time>2011-10-20T06:13:08Z</time>
  <speed>1.730000</speed>
</trkpt>
<trkpt lat="32.723373413" lon="35.020881653">
  <ele>330.807129</ele>
  <time>2011-10-20T06:13:10Z</time>
  <speed>1.820000</speed>
</trkpt>
<trkpt lat="32.723346710" lon="35.020858765">
  <ele>330.838379</ele>
  <time>2011-10-20T06:13:12Z</time>
  <speed>2.010000</speed>
</trkpt>
<trkpt lat="32.723316193" lon="35.020839691">
  <ele>331.205566</ele>
  <time>2011-10-20T06:13:14Z</time>
  <speed>1.560000</speed>
</trkpt>
<trkpt lat="32.723293304" lon="35.020805359">
  <ele>331.408691</ele>
  <time>2011-10-20T06:13:16Z</time>
  <speed>1.760000</speed>
</trkpt>
<trkpt lat="32.723274231" lon="35.020778656">
  <ele>331.189941</ele>
  <time>2011-10-20T06:13:18Z</time>
  <speed>1.400000</speed>
</trkpt>
<trkpt lat="32.723247528" lon="35.020748138">
  <ele>332.205566</ele>
  <time>2011-10-20T06:13:21Z</time>
  <speed>1.770000</speed>
</trkpt>
<trkpt lat="32.723224640" lon="35.020694733">
  <ele>332.416504</ele>
  <time>2011-10-20T06:13:24Z</time>
  <speed>1.730000</speed>
</trkpt>
<trkpt lat="32.723213196" lon="35.020652771">
  <ele>333.135254</ele>
  <time>2011-10-20T06:13:26Z</time>
  <speed>1.430000</speed>
</trkpt>
<trkpt lat="32.723201752" lon="35.020622253">
  <ele>333.775879</ele>
  <time>2011-10-20T06:13:28Z</time>
  <speed>1.620000</speed>
</trkpt>
<trkpt lat="32.723182678" lon="35.020580292">
  <ele>334.174316</ele>
  <time>2011-10-20T06:13:31Z</time>
  <speed>1.680000</speed>
</trkpt>
<trkpt lat="32.723155975" lon="35.020542145">
  <ele>334.619629</ele>
  <time>2011-10-20T06:13:33Z</time>
  <speed>1.530000</speed>
</trkpt>
<trkpt lat="32.723140717" lon="35.020503998">
  <ele>334.838379</ele>
  <time>2011-10-20T06:13:36Z</time>
  <speed>1.420000</speed>
</trkpt>
<trkpt lat="32.723125458" lon="35.020465851">
  <ele>334.674316</ele>
  <time>2011-10-20T06:13:38Z</time>
  <speed>1.560000</speed>
</trkpt>
<trkpt lat="32.723106384" lon="35.020427704">
  <ele>335.158691</ele>
  <time>2011-10-20T06:13:40Z</time>
  <speed>1.410000</speed>
</trkpt>
<trkpt lat="32.723094940" lon="35.020393372">
  <ele>335.447754</ele>
  <time>2011-10-20T06:13:42Z</time>
  <speed>1.590000</speed>
</trkpt>
<trkpt lat="32.723075867" lon="35.020366669">
  <ele>336.729004</ele>
  <time>2011-10-20T06:13:44Z</time>
  <speed>1.730000</speed>
</trkpt>
<trkpt lat="32.723064423" lon="35.020332336">
  <ele>336.932129</ele>
  <time>2011-10-20T06:13:46Z</time>
  <speed>1.810000</speed>
</trkpt>
<trkpt lat="32.723052979" lon="35.020298004">
  <ele>337.361816</ele>
  <time>2011-10-20T06:13:48Z</time>
  <speed>1.450000</speed>
</trkpt>
<trkpt lat="32.723037720" lon="35.020259857">
  <ele>338.307129</ele>
  <time>2011-10-20T06:13:51Z</time>
  <speed>1.270000</speed>
</trkpt>
<trkpt lat="32.723049164" lon="35.020229340">
  <ele>338.994629</ele>
  <time>2011-10-20T06:13:53Z</time>
  <speed>1.500000</speed>
</trkpt>
<trkpt lat="32.723041534" lon="35.020202637">
  <ele>340.150879</ele>
  <time>2011-10-20T06:13:55Z</time>
  <speed>1.500000</speed>
</trkpt>
<trkpt lat="32.723030090" lon="35.020168304">
  <ele>340.408691</ele>
  <time>2011-10-20T06:13:57Z</time>
  <speed>1.270000</speed>
</trkpt>
<trkpt lat="32.723014832" lon="35.020137787">
  <ele>341.377441</ele>
  <time>2011-10-20T06:13:59Z</time>
  <speed>1.550000</speed>
</trkpt>
<trkpt lat="32.723011017" lon="35.020103455">
  <ele>342.611816</ele>
  <time>2011-10-20T06:14:01Z</time>
  <speed>1.680000</speed>
</trkpt>
<trkpt lat="32.723011017" lon="35.020072937">
  <ele>342.877441</ele>
  <time>2011-10-20T06:14:03Z</time>
  <speed>1.410000</speed>
</trkpt>
<trkpt lat="32.723007202" lon="35.020027161">
  <ele>342.854004</ele>
  <time>2011-10-20T06:14:06Z</time>
  <speed>1.430000</speed>
</trkpt>
<trkpt lat="32.722991943" lon="35.019992828">
  <ele>344.104004</ele>
  <time>2011-10-20T06:14:08Z</time>
  <speed>1.450000</speed>
</trkpt>
<trkpt lat="32.722984314" lon="35.019958496">
  <ele>344.775879</ele>
  <time>2011-10-20T06:14:10Z</time>
  <speed>1.420000</speed>
</trkpt>
<trkpt lat="32.722980499" lon="35.019924164">
  <ele>344.869629</ele>
  <time>2011-10-20T06:14:13Z</time>
  <speed>1.380000</speed>
</trkpt>
<trkpt lat="32.722976685" lon="35.019882202">
  <ele>345.025879</ele>
  <time>2011-10-20T06:14:16Z</time>
  <speed>1.300000</speed>
</trkpt>
<trkpt lat="32.722972870" lon="35.019832611">
  <ele>346.025879</ele>
  <time>2011-10-20T06:14:19Z</time>
  <speed>1.540000</speed>
</trkpt>
<trkpt lat="32.722972870" lon="35.019786835">
  <ele>346.189941</ele>
  <time>2011-10-20T06:14:22Z</time>
  <speed>1.330000</speed>
</trkpt>
<trkpt lat="32.722965240" lon="35.019744873">
  <ele>347.072754</ele>
  <time>2011-10-20T06:14:24Z</time>
  <speed>1.680000</speed>
</trkpt>
<trkpt lat="32.722957611" lon="35.019706726">
  <ele>347.533691</ele>
  <time>2011-10-20T06:14:26Z</time>
  <speed>1.470000</speed>
</trkpt>
<trkpt lat="32.722957611" lon="35.019676208">
  <ele>347.533691</ele>
  <time>2011-10-20T06:14:28Z</time>
  <speed>1.510000</speed>
</trkpt>
<trkpt lat="32.722957611" lon="35.019641876">
  <ele>348.057129</ele>
  <time>2011-10-20T06:14:30Z</time>
  <speed>1.470000</speed>
</trkpt>
<trkpt lat="32.722957611" lon="35.019603729">
  <ele>347.760254</ele>
  <time>2011-10-20T06:14:32Z</time>
  <speed>1.540000</speed>
</trkpt>
<trkpt lat="32.722957611" lon="35.019569397">
  <ele>347.541504</ele>
  <time>2011-10-20T06:14:34Z</time>
  <speed>1.420000</speed>
</trkpt>
<trkpt lat="32.722953796" lon="35.019531250">
  <ele>348.088379</ele>
  <time>2011-10-20T06:14:36Z</time>
  <speed>1.460000</speed>
</trkpt>
<trkpt lat="32.722953796" lon="35.019496918">
  <ele>349.166504</ele>
  <time>2011-10-20T06:14:39Z</time>
  <speed>1.380000</speed>
</trkpt>
<trkpt lat="32.722942352" lon="35.019454956">
  <ele>349.924316</ele>
  <time>2011-10-20T06:14:42Z</time>
  <speed>1.430000</speed>
</trkpt>
<trkpt lat="32.722938538" lon="35.019409180">
  <ele>351.033691</ele>
  <time>2011-10-20T06:14:45Z</time>
  <speed>1.530000</speed>
</trkpt>
<trkpt lat="32.722930908" lon="35.019359589">
  <ele>350.814941</ele>
  <time>2011-10-20T06:14:48Z</time>
  <speed>1.350000</speed>
</trkpt>
<trkpt lat="32.722930908" lon="35.019309998">
  <ele>350.432129</ele>
  <time>2011-10-20T06:14:51Z</time>
  <speed>1.630000</speed>
</trkpt>
<trkpt lat="32.722927094" lon="35.019279480">
  <ele>350.330566</ele>
  <time>2011-10-20T06:14:53Z</time>
  <speed>1.560000</speed>
</trkpt>
<trkpt lat="32.722919464" lon="35.019241333">
  <ele>351.322754</ele>
  <time>2011-10-20T06:14:56Z</time>
  <speed>1.200000</speed>
</trkpt>
<trkpt lat="32.722915649" lon="35.019207001">
  <ele>351.830566</ele>
  <time>2011-10-20T06:14:58Z</time>
  <speed>1.350000</speed>
</trkpt>
<trkpt lat="32.722915649" lon="35.019165039">
  <ele>353.049316</ele>
  <time>2011-10-20T06:15:00Z</time>
  <speed>1.380000</speed>
</trkpt>
<trkpt lat="32.722911835" lon="35.019119263">
  <ele>353.510254</ele>
  <time>2011-10-20T06:15:03Z</time>
  <speed>1.340000</speed>
</trkpt>
<trkpt lat="32.722908020" lon="35.019081116">
  <ele>353.275879</ele>
  <time>2011-10-20T06:15:06Z</time>
  <speed>1.480000</speed>
</trkpt>
<trkpt lat="32.722908020" lon="35.019046783">
  <ele>352.814941</ele>
  <time>2011-10-20T06:15:09Z</time>
  <speed>1.390000</speed>
</trkpt>
<trkpt lat="32.722911835" lon="35.019008636">
  <ele>353.611816</ele>
  <time>2011-10-20T06:15:11Z</time>
  <speed>1.410000</speed>
</trkpt>
<trkpt lat="32.722904205" lon="35.018962860">
  <ele>354.143066</ele>
  <time>2011-10-20T06:15:14Z</time>
  <speed>1.360000</speed>
</trkpt>
<trkpt lat="32.722904205" lon="35.018924713">
  <ele>353.908691</ele>
  <time>2011-10-20T06:15:17Z</time>
  <speed>1.370000</speed>
</trkpt>
<trkpt lat="32.722900391" lon="35.018894196">
  <ele>354.260254</ele>
  <time>2011-10-20T06:15:19Z</time>
  <speed>1.210000</speed>
</trkpt>
<trkpt lat="32.722896576" lon="35.018852234">
  <ele>354.135254</ele>
  <time>2011-10-20T06:15:22Z</time>
  <speed>1.600000</speed>
</trkpt>
<trkpt lat="32.722900391" lon="35.018814087">
  <ele>353.713379</ele>
  <time>2011-10-20T06:15:25Z</time>
  <speed>1.690000</speed>
</trkpt>
<trkpt lat="32.722896576" lon="35.018775940">
  <ele>354.307129</ele>
  <time>2011-10-20T06:15:27Z</time>
  <speed>1.290000</speed>
</trkpt>
<trkpt lat="32.722896576" lon="35.018730164">
  <ele>354.377441</ele>
  <time>2011-10-20T06:15:30Z</time>
  <speed>1.390000</speed>
</trkpt>
<trkpt lat="32.722892761" lon="35.018692017">
  <ele>354.377441</ele>
  <time>2011-10-20T06:15:32Z</time>
  <speed>1.380000</speed>
</trkpt>
<trkpt lat="32.722888947" lon="35.018650055">
  <ele>355.127441</ele>
  <time>2011-10-20T06:15:34Z</time>
  <speed>1.400000</speed>
</trkpt>
<trkpt lat="32.722888947" lon="35.018615723">
  <ele>354.932129</ele>
  <time>2011-10-20T06:15:36Z</time>
  <speed>1.700000</speed>
</trkpt>
<trkpt lat="32.722881317" lon="35.018581390">
  <ele>355.354004</ele>
  <time>2011-10-20T06:15:38Z</time>
  <speed>1.980000</speed>
</trkpt>
<trkpt lat="32.722873688" lon="35.018539429">
  <ele>355.689941</ele>
  <time>2011-10-20T06:15:40Z</time>
  <speed>1.870000</speed>
</trkpt>
<trkpt lat="32.722862244" lon="35.018501282">
  <ele>356.252441</ele>
  <time>2011-10-20T06:15:42Z</time>
  <speed>1.810000</speed>
</trkpt>
<trkpt lat="32.722854614" lon="35.018451691">
  <ele>356.932129</ele>
  <time>2011-10-20T06:15:44Z</time>
  <speed>1.820000</speed>
</trkpt>
<trkpt lat="32.722854614" lon="35.018409729">
  <ele>356.744629</ele>
  <time>2011-10-20T06:15:46Z</time>
  <speed>2.140000</speed>
</trkpt>
<trkpt lat="32.722846985" lon="35.018363953">
  <ele>356.596191</ele>
  <time>2011-10-20T06:15:48Z</time>
  <speed>2.100000</speed>
</trkpt>
<trkpt lat="32.722831726" lon="35.018329620">
  <ele>356.799316</ele>
  <time>2011-10-20T06:15:50Z</time>
  <speed>1.760000</speed>
</trkpt>
<trkpt lat="32.722808838" lon="35.018291473">
  <ele>356.213379</ele>
  <time>2011-10-20T06:15:52Z</time>
  <speed>1.960000</speed>
</trkpt>
<trkpt lat="32.722782135" lon="35.018268585">
  <ele>355.174316</ele>
  <time>2011-10-20T06:15:54Z</time>
  <speed>2.040000</speed>
</trkpt>
<trkpt lat="32.722747803" lon="35.018245697">
  <ele>355.463379</ele>
  <time>2011-10-20T06:15:56Z</time>
  <speed>2.180000</speed>
</trkpt>
<trkpt lat="32.722709656" lon="35.018226624">
  <ele>355.096191</ele>
  <time>2011-10-20T06:15:58Z</time>
  <speed>2.170000</speed>
</trkpt>
<trkpt lat="32.722675323" lon="35.018218994">
  <ele>355.252441</ele>
  <time>2011-10-20T06:16:00Z</time>
  <speed>2.040000</speed>
</trkpt>
<trkpt lat="32.722629547" lon="35.018226624">
  <ele>355.916504</ele>
  <time>2011-10-20T06:16:02Z</time>
  <speed>2.060000</speed>
</trkpt>
<trkpt lat="32.722591400" lon="35.018245697">
  <ele>355.814941</ele>
  <time>2011-10-20T06:16:04Z</time>
  <speed>2.010000</speed>
</trkpt>
<trkpt lat="32.722553253" lon="35.018249512">
  <ele>355.979004</ele>
  <time>2011-10-20T06:16:06Z</time>
  <speed>2.100000</speed>
</trkpt>
<trkpt lat="32.722511292" lon="35.018257141">
  <ele>356.158691</ele>
  <time>2011-10-20T06:16:08Z</time>
  <speed>2.100000</speed>
</trkpt>
<trkpt lat="32.722469330" lon="35.018264771">
  <ele>357.025879</ele>
  <time>2011-10-20T06:16:10Z</time>
  <speed>1.960000</speed>
</trkpt>
<trkpt lat="32.722434998" lon="35.018253326">
  <ele>357.541504</ele>
  <time>2011-10-20T06:16:12Z</time>
  <speed>1.990000</speed>
</trkpt>
<trkpt lat="32.722408295" lon="35.018230438">
  <ele>356.908691</ele>
  <time>2011-10-20T06:16:14Z</time>
  <speed>1.950000</speed>
</trkpt>
<trkpt lat="32.722373962" lon="35.018207550">
  <ele>356.627441</ele>
  <time>2011-10-20T06:16:16Z</time>
  <speed>1.750000</speed>
</trkpt>
<trkpt lat="32.722343445" lon="35.018192291">
  <ele>356.979004</ele>
  <time>2011-10-20T06:16:18Z</time>
  <speed>1.920000</speed>
</trkpt>
<trkpt lat="32.722316742" lon="35.018169403">
  <ele>356.932129</ele>
  <time>2011-10-20T06:16:20Z</time>
  <speed>1.600000</speed>
</trkpt>
<trkpt lat="32.722293854" lon="35.018142700">
  <ele>357.244629</ele>
  <time>2011-10-20T06:16:22Z</time>
  <speed>1.660000</speed>
</trkpt>
<trkpt lat="32.722274780" lon="35.018119812">
  <ele>357.111816</ele>
  <time>2011-10-20T06:16:24Z</time>
  <speed>1.540000</speed>
</trkpt>
<trkpt lat="32.722251892" lon="35.018096924">
  <ele>356.994629</ele>
  <time>2011-10-20T06:16:26Z</time>
  <speed>1.640000</speed>
</trkpt>
<trkpt lat="32.722232819" lon="35.018070221">
  <ele>357.080566</ele>
  <time>2011-10-20T06:16:28Z</time>
  <speed>1.700000</speed>
</trkpt>
<trkpt lat="32.722209930" lon="35.018051147">
  <ele>357.385254</ele>
  <time>2011-10-20T06:16:30Z</time>
  <speed>1.640000</speed>
</trkpt>
<trkpt lat="32.722183228" lon="35.018013000">
  <ele>357.861816</ele>
  <time>2011-10-20T06:16:33Z</time>
  <speed>1.700000</speed>
</trkpt>
<trkpt lat="32.722164154" lon="35.017978668">
  <ele>357.830566</ele>
  <time>2011-10-20T06:16:35Z</time>
  <speed>1.460000</speed>
</trkpt>
<trkpt lat="32.722141266" lon="35.017951965">
  <ele>357.463379</ele>
  <time>2011-10-20T06:16:37Z</time>
  <speed>1.610000</speed>
</trkpt>
<trkpt lat="32.722118378" lon="35.017932892">
  <ele>357.564941</ele>
  <time>2011-10-20T06:16:39Z</time>
  <speed>1.580000</speed>
</trkpt>
<trkpt lat="32.722091675" lon="35.017910004">
  <ele>357.643066</ele>
  <time>2011-10-20T06:16:41Z</time>
  <speed>1.660000</speed>
</trkpt>
<trkpt lat="32.722068787" lon="35.017883301">
  <ele>357.775879</ele>
  <time>2011-10-20T06:16:43Z</time>
  <speed>1.600000</speed>
</trkpt>
<trkpt lat="32.722038269" lon="35.017852783">
  <ele>359.127441</ele>
  <time>2011-10-20T06:16:45Z</time>
  <speed>1.800000</speed>
</trkpt>
<trkpt lat="32.722015381" lon="35.017833710">
  <ele>359.658691</ele>
  <time>2011-10-20T06:16:47Z</time>
  <speed>1.450000</speed>
</trkpt>
<trkpt lat="32.721992493" lon="35.017807007">
  <ele>360.057129</ele>
  <time>2011-10-20T06:16:49Z</time>
  <speed>1.600000</speed>
</trkpt>
<trkpt lat="32.721954346" lon="35.017784119">
  <ele>360.627441</ele>
  <time>2011-10-20T06:16:52Z</time>
  <speed>1.700000</speed>
</trkpt>
<trkpt lat="32.721931458" lon="35.017768860">
  <ele>361.111816</ele>
  <time>2011-10-20T06:16:54Z</time>
  <speed>1.660000</speed>
</trkpt>
<trkpt lat="32.721900940" lon="35.017765045">
  <ele>361.463379</ele>
  <time>2011-10-20T06:16:56Z</time>
  <speed>1.450000</speed>
</trkpt>
<trkpt lat="32.721874237" lon="35.017761230">
  <ele>362.080566</ele>
  <time>2011-10-20T06:16:58Z</time>
  <speed>1.730000</speed>
</trkpt>
<trkpt lat="32.721843719" lon="35.017757416">
  <ele>362.650879</ele>
  <time>2011-10-20T06:17:00Z</time>
  <speed>1.470000</speed>
</trkpt>
<trkpt lat="32.721817017" lon="35.017765045">
  <ele>363.236816</ele>
  <time>2011-10-20T06:17:02Z</time>
  <speed>1.390000</speed>
</trkpt>
<trkpt lat="32.721790314" lon="35.017768860">
  <ele>363.885254</ele>
  <time>2011-10-20T06:17:04Z</time>
  <speed>1.220000</speed>
</trkpt>
<trkpt lat="32.721763611" lon="35.017784119">
  <ele>364.291504</ele>
  <time>2011-10-20T06:17:06Z</time>
  <speed>1.510000</speed>
</trkpt>
<trkpt lat="32.721736908" lon="35.017799377">
  <ele>365.080566</ele>
  <time>2011-10-20T06:17:08Z</time>
  <speed>1.680000</speed>
</trkpt>
<trkpt lat="32.721710205" lon="35.017810822">
  <ele>365.299316</ele>
  <time>2011-10-20T06:17:10Z</time>
  <speed>1.350000</speed>
</trkpt>
<trkpt lat="32.721683502" lon="35.017826080">
  <ele>365.846191</ele>
  <time>2011-10-20T06:17:12Z</time>
  <speed>1.430000</speed>
</trkpt>
<trkpt lat="32.721652985" lon="35.017856598">
  <ele>366.268066</ele>
  <time>2011-10-20T06:17:15Z</time>
  <speed>1.450000</speed>
</trkpt>
<trkpt lat="32.721618652" lon="35.017868042">
  <ele>366.127441</ele>
  <time>2011-10-20T06:17:18Z</time>
  <speed>1.280000</speed>
</trkpt>
<trkpt lat="32.721599579" lon="35.017890930">
  <ele>366.783691</ele>
  <time>2011-10-20T06:17:20Z</time>
  <speed>1.260000</speed>
</trkpt>
<trkpt lat="32.721572876" lon="35.017910004">
  <ele>367.525879</ele>
  <time>2011-10-20T06:17:22Z</time>
  <speed>1.450000</speed>
</trkpt>
<trkpt lat="32.721546173" lon="35.017925262">
  <ele>368.252441</ele>
  <time>2011-10-20T06:17:24Z</time>
  <speed>1.450000</speed>
</trkpt>
<trkpt lat="32.721519470" lon="35.017948151">
  <ele>368.502441</ele>
  <time>2011-10-20T06:17:27Z</time>
  <speed>1.540000</speed>
</trkpt>
<trkpt lat="32.721492767" lon="35.017982483">
  <ele>367.846191</ele>
  <time>2011-10-20T06:17:30Z</time>
  <speed>1.390000</speed>
</trkpt>
<trkpt lat="32.721462250" lon="35.018009186">
  <ele>368.049316</ele>
  <time>2011-10-20T06:17:33Z</time>
  <speed>1.200000</speed>
</trkpt>
<trkpt lat="32.721431732" lon="35.018039703">
  <ele>368.518066</ele>
  <time>2011-10-20T06:17:36Z</time>
  <speed>1.210000</speed>
</trkpt>
<trkpt lat="32.721412659" lon="35.018058777">
  <ele>369.354004</ele>
  <time>2011-10-20T06:17:38Z</time>
  <speed>1.540000</speed>
</trkpt>
<trkpt lat="32.721374512" lon="35.018077850">
  <ele>370.611816</ele>
  <time>2011-10-20T06:17:41Z</time>
  <speed>1.460000</speed>
</trkpt>
<trkpt lat="32.721355438" lon="35.018104553">
  <ele>370.502441</ele>
  <time>2011-10-20T06:17:43Z</time>
  <speed>1.470000</speed>
</trkpt>
<trkpt lat="32.721340179" lon="35.018138885">
  <ele>370.119629</ele>
  <time>2011-10-20T06:17:46Z</time>
  <speed>1.330000</speed>
</trkpt>
<trkpt lat="32.721317291" lon="35.018177032">
  <ele>369.525879</ele>
  <time>2011-10-20T06:17:49Z</time>
  <speed>1.670000</speed>
</trkpt>
<trkpt lat="32.721298218" lon="35.018203735">
  <ele>369.775879</ele>
  <time>2011-10-20T06:17:51Z</time>
  <speed>1.740000</speed>
</trkpt>
<trkpt lat="32.721282959" lon="35.018230438">
  <ele>370.111816</ele>
  <time>2011-10-20T06:17:53Z</time>
  <speed>1.620000</speed>
</trkpt>
<trkpt lat="32.721260071" lon="35.018249512">
  <ele>370.119629</ele>
  <time>2011-10-20T06:17:55Z</time>
  <speed>1.730000</speed>
</trkpt>
<trkpt lat="32.721237183" lon="35.018276215">
  <ele>371.119629</ele>
  <time>2011-10-20T06:17:57Z</time>
  <speed>1.590000</speed>
</trkpt>
<trkpt lat="32.721214294" lon="35.018299103">
  <ele>371.439941</ele>
  <time>2011-10-20T06:17:59Z</time>
  <speed>1.630000</speed>
</trkpt>
<trkpt lat="32.721191406" lon="35.018325806">
  <ele>371.385254</ele>
  <time>2011-10-20T06:18:02Z</time>
  <speed>1.410000</speed>
</trkpt>
<trkpt lat="32.721160889" lon="35.018356323">
  <ele>371.494629</ele>
  <time>2011-10-20T06:18:05Z</time>
  <speed>1.790000</speed>
</trkpt>
<trkpt lat="32.721134186" lon="35.018371582">
  <ele>371.955566</ele>
  <time>2011-10-20T06:18:07Z</time>
  <speed>1.590000</speed>
</trkpt>
<trkpt lat="32.721107483" lon="35.018390656">
  <ele>372.330566</ele>
  <time>2011-10-20T06:18:09Z</time>
  <speed>1.550000</speed>
</trkpt>
<trkpt lat="32.721076965" lon="35.018405914">
  <ele>373.252441</ele>
  <time>2011-10-20T06:18:11Z</time>
  <speed>1.660000</speed>
</trkpt>
<trkpt lat="32.721046448" lon="35.018417358">
  <ele>373.338379</ele>
  <time>2011-10-20T06:18:13Z</time>
  <speed>1.570000</speed>
</trkpt>
<trkpt lat="32.721015930" lon="35.018428802">
  <ele>373.533691</ele>
  <time>2011-10-20T06:18:15Z</time>
  <speed>1.510000</speed>
</trkpt>
<trkpt lat="32.720989227" lon="35.018444061">
  <ele>373.736816</ele>
  <time>2011-10-20T06:18:17Z</time>
  <speed>1.680000</speed>
</trkpt>
<trkpt lat="32.720962524" lon="35.018463135">
  <ele>373.869629</ele>
  <time>2011-10-20T06:18:19Z</time>
  <speed>1.570000</speed>
</trkpt>
<trkpt lat="32.720935822" lon="35.018486023">
  <ele>374.189941</ele>
  <time>2011-10-20T06:18:21Z</time>
  <speed>1.810000</speed>
</trkpt>
<trkpt lat="32.720905304" lon="35.018505096">
  <ele>375.143066</ele>
  <time>2011-10-20T06:18:23Z</time>
  <speed>1.490000</speed>
</trkpt>
<trkpt lat="32.720870972" lon="35.018508911">
  <ele>375.838379</ele>
  <time>2011-10-20T06:18:25Z</time>
  <speed>1.670000</speed>
</trkpt>
<trkpt lat="32.720840454" lon="35.018520355">
  <ele>376.307129</ele>
  <time>2011-10-20T06:18:27Z</time>
  <speed>1.540000</speed>
</trkpt>
<trkpt lat="32.720806122" lon="35.018516541">
  <ele>376.619629</ele>
  <time>2011-10-20T06:18:29Z</time>
  <speed>1.690000</speed>
</trkpt>
<trkpt lat="32.720779419" lon="35.018516541">
  <ele>377.088379</ele>
  <time>2011-10-20T06:18:31Z</time>
  <speed>1.730000</speed>
</trkpt>
<trkpt lat="32.720752716" lon="35.018512726">
  <ele>376.697754</ele>
  <time>2011-10-20T06:18:33Z</time>
  <speed>1.670000</speed>
</trkpt>
<trkpt lat="32.720722198" lon="35.018493652">
  <ele>376.447754</ele>
  <time>2011-10-20T06:18:35Z</time>
  <speed>1.770000</speed>
</trkpt>
<trkpt lat="32.720691681" lon="35.018470764">
  <ele>376.580566</ele>
  <time>2011-10-20T06:18:37Z</time>
  <speed>2.070000</speed>
</trkpt>
<trkpt lat="32.720668793" lon="35.018436432">
  <ele>376.182129</ele>
  <time>2011-10-20T06:18:39Z</time>
  <speed>2.240000</speed>
</trkpt>
<trkpt lat="32.720649719" lon="35.018394470">
  <ele>375.674316</ele>
  <time>2011-10-20T06:18:41Z</time>
  <speed>2.600000</speed>
</trkpt>
<trkpt lat="32.720634460" lon="35.018337250">
  <ele>375.697754</ele>
  <time>2011-10-20T06:18:43Z</time>
  <speed>3.110000</speed>
</trkpt>
<trkpt lat="32.720626831" lon="35.018302917">
  <ele>375.486816</ele>
  <time>2011-10-20T06:18:44Z</time>
  <speed>3.540000</speed>
</trkpt>
<trkpt lat="32.720619202" lon="35.018268585">
  <ele>375.432129</ele>
  <time>2011-10-20T06:18:45Z</time>
  <speed>3.380000</speed>
</trkpt>
<trkpt lat="32.720611572" lon="35.018226624">
  <ele>375.463379</ele>
  <time>2011-10-20T06:18:46Z</time>
  <speed>3.770000</speed>
</trkpt>
<trkpt lat="32.720603943" lon="35.018188477">
  <ele>375.775879</ele>
  <time>2011-10-20T06:18:47Z</time>
  <speed>4.040000</speed>
</trkpt>
<trkpt lat="32.720596313" lon="35.018146515">
  <ele>375.682129</ele>
  <time>2011-10-20T06:18:48Z</time>
  <speed>4.230000</speed>
</trkpt>
<trkpt lat="32.720584869" lon="35.018104553">
  <ele>375.744629</ele>
  <time>2011-10-20T06:18:49Z</time>
  <speed>4.150000</speed>
</trkpt>
<trkpt lat="32.720577240" lon="35.018062592">
  <ele>375.682129</ele>
  <time>2011-10-20T06:18:50Z</time>
  <speed>3.880000</speed>
</trkpt>
<trkpt lat="32.720565796" lon="35.018028259">
  <ele>376.299316</ele>
  <time>2011-10-20T06:18:51Z</time>
  <speed>3.440000</speed>
</trkpt>
<trkpt lat="32.720554352" lon="35.017997742">
  <ele>376.799316</ele>
  <time>2011-10-20T06:18:52Z</time>
  <speed>3.090000</speed>
</trkpt>
<trkpt lat="32.720542908" lon="35.017967224">
  <ele>377.018066</ele>
  <time>2011-10-20T06:18:53Z</time>
  <speed>2.650000</speed>
</trkpt>
<trkpt lat="32.720527649" lon="35.017917633">
  <ele>377.830566</ele>
  <time>2011-10-20T06:18:55Z</time>
  <speed>2.160000</speed>
</trkpt>
<trkpt lat="32.720508575" lon="35.017879486">
  <ele>378.057129</ele>
  <time>2011-10-20T06:18:57Z</time>
  <speed>1.990000</speed>
</trkpt>
<trkpt lat="32.720481873" lon="35.017841339">
  <ele>378.689941</ele>
  <time>2011-10-20T06:18:59Z</time>
  <speed>1.970000</speed>
</trkpt>
<trkpt lat="32.720458984" lon="35.017803192">
  <ele>378.807129</ele>
  <time>2011-10-20T06:19:01Z</time>
  <speed>1.920000</speed>
</trkpt>
<trkpt lat="32.720443726" lon="35.017768860">
  <ele>378.588379</ele>
  <time>2011-10-20T06:19:03Z</time>
  <speed>1.760000</speed>
</trkpt>
<trkpt lat="32.720413208" lon="35.017742157">
  <ele>378.939941</ele>
  <time>2011-10-20T06:19:05Z</time>
  <speed>1.780000</speed>
</trkpt>
<trkpt lat="32.720386505" lon="35.017723083">
  <ele>378.557129</ele>
  <time>2011-10-20T06:19:07Z</time>
  <speed>1.480000</speed>
</trkpt>
<trkpt lat="32.720344543" lon="35.017707825">
  <ele>378.682129</ele>
  <time>2011-10-20T06:19:10Z</time>
  <speed>1.750000</speed>
</trkpt>
<trkpt lat="32.720310211" lon="35.017723083">
  <ele>379.057129</ele>
  <time>2011-10-20T06:19:12Z</time>
  <speed>1.790000</speed>
</trkpt>
<trkpt lat="32.720291138" lon="35.017757416">
  <ele>380.494629</ele>
  <time>2011-10-20T06:19:14Z</time>
  <speed>1.950000</speed>
</trkpt>
<trkpt lat="32.720291138" lon="35.017799377">
  <ele>381.018066</ele>
  <time>2011-10-20T06:19:16Z</time>
  <speed>1.740000</speed>
</trkpt>
<trkpt lat="32.720294952" lon="35.017845154">
  <ele>381.268066</ele>
  <time>2011-10-20T06:19:18Z</time>
  <speed>1.510000</speed>
</trkpt>
<trkpt lat="32.720306396" lon="35.017879486">
  <ele>381.596191</ele>
  <time>2011-10-20T06:19:20Z</time>
  <speed>1.420000</speed>
</trkpt>
<trkpt lat="32.720317841" lon="35.017917633">
  <ele>380.979004</ele>
  <time>2011-10-20T06:19:22Z</time>
  <speed>1.180000</speed>
</trkpt>
<trkpt lat="32.720336914" lon="35.017955780">
  <ele>380.557129</ele>
  <time>2011-10-20T06:19:25Z</time>
  <speed>0.720000</speed>
</trkpt>
<trkpt lat="32.720314026" lon="35.017948151">
  <ele>379.275879</ele>
  <time>2011-10-20T06:19:53Z</time>
  <speed>0.020000</speed>
</trkpt>
<trkpt lat="32.720329285" lon="35.017971039">
  <ele>378.018066</ele>
  <time>2011-10-20T06:20:55Z</time>
  <speed>0.260000</speed>
</trkpt>
<trkpt lat="32.720344543" lon="35.018001556">
  <ele>377.221191</ele>
  <time>2011-10-20T06:21:03Z</time>
  <speed>0.480000</speed>
</trkpt>
<trkpt lat="32.720329285" lon="35.018020630">
  <ele>379.354004</ele>
  <time>2011-10-20T06:22:33Z</time>
  <speed>0.030000</speed>
</trkpt>
<trkpt lat="32.720325470" lon="35.018047333">
  <ele>381.314941</ele>
  <time>2011-10-20T06:23:22Z</time>
</trkpt>
<trkpt lat="32.720352173" lon="35.018051147">
  <ele>380.166504</ele>
  <time>2011-10-20T06:23:40Z</time>
  <speed>0.090000</speed>
</trkpt>
<trkpt lat="32.720359802" lon="35.018081665">
  <ele>379.986816</ele>
  <time>2011-10-20T06:23:44Z</time>
  <speed>1.600000</speed>
</trkpt>
<trkpt lat="32.720371246" lon="35.018127441">
  <ele>379.682129</ele>
  <time>2011-10-20T06:23:46Z</time>
  <speed>2.660000</speed>
</trkpt>
<trkpt lat="32.720375061" lon="35.018184662">
  <ele>379.275879</ele>
  <time>2011-10-20T06:23:48Z</time>
  <speed>2.950000</speed>
</trkpt>
<trkpt lat="32.720382690" lon="35.018215179">
  <ele>379.674316</ele>
  <time>2011-10-20T06:23:49Z</time>
  <speed>2.710000</speed>
</trkpt>
<trkpt lat="32.720386505" lon="35.018264771">
  <ele>379.205566</ele>
  <time>2011-10-20T06:23:51Z</time>
  <speed>1.920000</speed>
</trkpt>
<trkpt lat="32.720390320" lon="35.018310547">
  <ele>378.908691</ele>
  <time>2011-10-20T06:23:53Z</time>
  <speed>2.100000</speed>
</trkpt>
<trkpt lat="32.720397949" lon="35.018356323">
  <ele>378.729004</ele>
  <time>2011-10-20T06:23:55Z</time>
  <speed>2.180000</speed>
</trkpt>
<trkpt lat="32.720409393" lon="35.018405914">
  <ele>378.814941</ele>
  <time>2011-10-20T06:23:57Z</time>
  <speed>2.080000</speed>
</trkpt>
<trkpt lat="32.720424652" lon="35.018444061">
  <ele>378.510254</ele>
  <time>2011-10-20T06:23:59Z</time>
  <speed>2.110000</speed>
</trkpt>
<trkpt lat="32.720451355" lon="35.018474579">
  <ele>378.229004</ele>
  <time>2011-10-20T06:24:01Z</time>
  <speed>2.060000</speed>
</trkpt>
<trkpt lat="32.720474243" lon="35.018505096">
  <ele>378.502441</ele>
  <time>2011-10-20T06:24:03Z</time>
  <speed>2.220000</speed>
</trkpt>
<trkpt lat="32.720500946" lon="35.018543243">
  <ele>378.979004</ele>
  <time>2011-10-20T06:24:05Z</time>
  <speed>2.130000</speed>
</trkpt>
<trkpt lat="32.720516205" lon="35.018577576">
  <ele>378.994629</ele>
  <time>2011-10-20T06:24:07Z</time>
  <speed>2.080000</speed>
</trkpt>
<trkpt lat="32.720539093" lon="35.018615723">
  <ele>379.533691</ele>
  <time>2011-10-20T06:24:09Z</time>
  <speed>1.960000</speed>
</trkpt>
<trkpt lat="32.720561981" lon="35.018653870">
  <ele>379.955566</ele>
  <time>2011-10-20T06:24:11Z</time>
  <speed>2.170000</speed>
</trkpt>
<trkpt lat="32.720577240" lon="35.018688202">
  <ele>379.689941</ele>
  <time>2011-10-20T06:24:13Z</time>
  <speed>2.010000</speed>
</trkpt>
<trkpt lat="32.720600128" lon="35.018726349">
  <ele>380.135254</ele>
  <time>2011-10-20T06:24:15Z</time>
  <speed>1.940000</speed>
</trkpt>
<trkpt lat="32.720615387" lon="35.018760681">
  <ele>380.236816</ele>
  <time>2011-10-20T06:24:17Z</time>
  <speed>1.970000</speed>
</trkpt>
<trkpt lat="32.720642090" lon="35.018795013">
  <ele>380.697754</ele>
  <time>2011-10-20T06:24:19Z</time>
  <speed>1.820000</speed>
</trkpt>
<trkpt lat="32.720661163" lon="35.018825531">
  <ele>381.322754</ele>
  <time>2011-10-20T06:24:21Z</time>
  <speed>1.970000</speed>
</trkpt>
<trkpt lat="32.720680237" lon="35.018863678">
  <ele>382.025879</ele>
  <time>2011-10-20T06:24:23Z</time>
  <speed>1.900000</speed>
</trkpt>
<trkpt lat="32.720695496" lon="35.018898010">
  <ele>382.666504</ele>
  <time>2011-10-20T06:24:25Z</time>
  <speed>2.030000</speed>
</trkpt>
<trkpt lat="32.720714569" lon="35.018936157">
  <ele>383.643066</ele>
  <time>2011-10-20T06:24:27Z</time>
  <speed>1.980000</speed>
</trkpt>
<trkpt lat="32.720729828" lon="35.018970490">
  <ele>384.994629</ele>
  <time>2011-10-20T06:24:29Z</time>
  <speed>1.660000</speed>
</trkpt>
<trkpt lat="32.720745087" lon="35.019001007">
  <ele>385.783691</ele>
  <time>2011-10-20T06:24:31Z</time>
  <speed>1.460000</speed>
</trkpt>
<trkpt lat="32.720764160" lon="35.019031525">
  <ele>385.682129</ele>
  <time>2011-10-20T06:24:33Z</time>
  <speed>1.560000</speed>
</trkpt>
<trkpt lat="32.720779419" lon="35.019062042">
  <ele>386.018066</ele>
  <time>2011-10-20T06:24:35Z</time>
  <speed>1.850000</speed>
</trkpt>
<trkpt lat="32.720802307" lon="35.019092560">
  <ele>386.822754</ele>
  <time>2011-10-20T06:24:37Z</time>
  <speed>2.030000</speed>
</trkpt>
<trkpt lat="32.720825195" lon="35.019126892">
  <ele>387.643066</ele>
  <time>2011-10-20T06:24:39Z</time>
  <speed>1.730000</speed>
</trkpt>
<trkpt lat="32.720836639" lon="35.019157410">
  <ele>388.189941</ele>
  <time>2011-10-20T06:24:41Z</time>
  <speed>1.440000</speed>
</trkpt>
<trkpt lat="32.720859528" lon="35.019180298">
  <ele>388.955566</ele>
  <time>2011-10-20T06:24:43Z</time>
  <speed>1.640000</speed>
</trkpt>
<trkpt lat="32.720882416" lon="35.019203186">
  <ele>389.846191</ele>
  <time>2011-10-20T06:24:45Z</time>
  <speed>1.130000</speed>
</trkpt>
<trkpt lat="32.720893860" lon="35.019233704">
  <ele>390.182129</ele>
  <time>2011-10-20T06:24:47Z</time>
  <speed>1.160000</speed>
</trkpt>
<trkpt lat="32.720920563" lon="35.019264221">
  <ele>390.635254</ele>
  <time>2011-10-20T06:24:50Z</time>
  <speed>1.230000</speed>
</trkpt>
<trkpt lat="32.720954895" lon="35.019287109">
  <ele>390.385254</ele>
  <time>2011-10-20T06:24:53Z</time>
  <speed>1.450000</speed>
</trkpt>
<trkpt lat="32.720981598" lon="35.019302368">
  <ele>390.127441</ele>
  <time>2011-10-20T06:24:55Z</time>
  <speed>1.660000</speed>
</trkpt>
<trkpt lat="32.721019745" lon="35.019317627">
  <ele>390.768066</ele>
  <time>2011-10-20T06:24:58Z</time>
  <speed>1.660000</speed>
</trkpt>
<trkpt lat="32.721046448" lon="35.019336700">
  <ele>390.807129</ele>
  <time>2011-10-20T06:25:00Z</time>
  <speed>1.590000</speed>
</trkpt>
<trkpt lat="32.721073151" lon="35.019344330">
  <ele>391.252441</ele>
  <time>2011-10-20T06:25:02Z</time>
  <speed>1.470000</speed>
</trkpt>
<trkpt lat="32.721103668" lon="35.019359589">
  <ele>391.549316</ele>
  <time>2011-10-20T06:25:04Z</time>
  <speed>1.670000</speed>
</trkpt>
<trkpt lat="32.721130371" lon="35.019374847">
  <ele>391.752441</ele>
  <time>2011-10-20T06:25:06Z</time>
  <speed>1.550000</speed>
</trkpt>
<trkpt lat="32.721157074" lon="35.019390106">
  <ele>392.010254</ele>
  <time>2011-10-20T06:25:08Z</time>
  <speed>1.550000</speed>
</trkpt>
<trkpt lat="32.721191406" lon="35.019397736">
  <ele>392.244629</ele>
  <time>2011-10-20T06:25:10Z</time>
  <speed>1.870000</speed>
</trkpt>
<trkpt lat="32.721218109" lon="35.019409180">
  <ele>392.736816</ele>
  <time>2011-10-20T06:25:12Z</time>
  <speed>1.630000</speed>
</trkpt>
<trkpt lat="32.721252441" lon="35.019416809">
  <ele>393.268066</ele>
  <time>2011-10-20T06:25:14Z</time>
  <speed>1.470000</speed>
</trkpt>
<trkpt lat="32.721279144" lon="35.019424438">
  <ele>393.697754</ele>
  <time>2011-10-20T06:25:16Z</time>
  <speed>1.460000</speed>
</trkpt>
<trkpt lat="32.721305847" lon="35.019432068">
  <ele>393.963379</ele>
  <time>2011-10-20T06:25:18Z</time>
  <speed>1.540000</speed>
</trkpt>
<trkpt lat="32.721343994" lon="35.019443512">
  <ele>394.096191</ele>
  <time>2011-10-20T06:25:21Z</time>
  <speed>1.620000</speed>
</trkpt>
<trkpt lat="32.721385956" lon="35.019458771">
  <ele>393.916504</ele>
  <time>2011-10-20T06:25:24Z</time>
  <speed>1.600000</speed>
</trkpt>
<trkpt lat="32.721412659" lon="35.019470215">
  <ele>393.564941</ele>
  <time>2011-10-20T06:25:26Z</time>
  <speed>1.400000</speed>
</trkpt>
<trkpt lat="32.721450806" lon="35.019489288">
  <ele>393.900879</ele>
  <time>2011-10-20T06:25:29Z</time>
  <speed>1.780000</speed>
</trkpt>
<trkpt lat="32.721481323" lon="35.019508362">
  <ele>394.338379</ele>
  <time>2011-10-20T06:25:31Z</time>
  <speed>1.700000</speed>
</trkpt>
<trkpt lat="32.721508026" lon="35.019519806">
  <ele>394.455566</ele>
  <time>2011-10-20T06:25:33Z</time>
  <speed>1.690000</speed>
</trkpt>
<trkpt lat="32.721538544" lon="35.019542694">
  <ele>394.260254</ele>
  <time>2011-10-20T06:25:35Z</time>
  <speed>1.760000</speed>
</trkpt>
<trkpt lat="32.721557617" lon="35.019565582">
  <ele>393.627441</ele>
  <time>2011-10-20T06:25:37Z</time>
  <speed>1.800000</speed>
</trkpt>
<trkpt lat="32.721580505" lon="35.019596100">
  <ele>393.479004</ele>
  <time>2011-10-20T06:25:39Z</time>
  <speed>1.990000</speed>
</trkpt>
<trkpt lat="32.721595764" lon="35.019630432">
  <ele>393.596191</ele>
  <time>2011-10-20T06:25:41Z</time>
  <speed>1.810000</speed>
</trkpt>
<trkpt lat="32.721599579" lon="35.019676208">
  <ele>393.729004</ele>
  <time>2011-10-20T06:25:43Z</time>
  <speed>2.090000</speed>
</trkpt>
<trkpt lat="32.721588135" lon="35.019721985">
  <ele>393.580566</ele>
  <time>2011-10-20T06:25:45Z</time>
  <speed>2.220000</speed>
</trkpt>
<trkpt lat="32.721561432" lon="35.019760132">
  <ele>393.533691</ele>
  <time>2011-10-20T06:25:47Z</time>
  <speed>1.950000</speed>
</trkpt>
<trkpt lat="32.721530914" lon="35.019783020">
  <ele>394.104004</ele>
  <time>2011-10-20T06:25:49Z</time>
  <speed>1.770000</speed>
</trkpt>
<trkpt lat="32.721496582" lon="35.019798279">
  <ele>395.064941</ele>
  <time>2011-10-20T06:25:51Z</time>
  <speed>1.850000</speed>
</trkpt>
<trkpt lat="32.721450806" lon="35.019813538">
  <ele>396.400879</ele>
  <time>2011-10-20T06:25:53Z</time>
  <speed>2.020000</speed>
</trkpt>
<trkpt lat="32.721420288" lon="35.019824982">
  <ele>396.588379</ele>
  <time>2011-10-20T06:25:55Z</time>
  <speed>1.710000</speed>
</trkpt>
<trkpt lat="32.721385956" lon="35.019836426">
  <ele>396.197754</ele>
  <time>2011-10-20T06:25:57Z</time>
  <speed>1.630000</speed>
</trkpt>
<trkpt lat="32.721355438" lon="35.019828796">
  <ele>397.439941</ele>
  <time>2011-10-20T06:25:59Z</time>
  <speed>1.860000</speed>
</trkpt>
<trkpt lat="32.721321106" lon="35.019828796">
  <ele>397.807129</ele>
  <time>2011-10-20T06:26:01Z</time>
  <speed>1.630000</speed>
</trkpt>
<trkpt lat="32.721294403" lon="35.019840240">
  <ele>398.025879</ele>
  <time>2011-10-20T06:26:03Z</time>
  <speed>1.600000</speed>
</trkpt>
<trkpt lat="32.721260071" lon="35.019859314">
  <ele>398.557129</ele>
  <time>2011-10-20T06:26:05Z</time>
  <speed>1.610000</speed>
</trkpt>
<trkpt lat="32.721233368" lon="35.019878387">
  <ele>399.408691</ele>
  <time>2011-10-20T06:26:07Z</time>
  <speed>1.870000</speed>
</trkpt>
<trkpt lat="32.721210480" lon="35.019912720">
  <ele>399.377441</ele>
  <time>2011-10-20T06:26:09Z</time>
  <speed>1.860000</speed>
</trkpt>
<trkpt lat="32.721195221" lon="35.019950867">
  <ele>400.158691</ele>
  <time>2011-10-20T06:26:11Z</time>
  <speed>1.810000</speed>
</trkpt>
<trkpt lat="32.721187592" lon="35.019989014">
  <ele>400.877441</ele>
  <time>2011-10-20T06:26:13Z</time>
  <speed>1.630000</speed>
</trkpt>
<trkpt lat="32.721179962" lon="35.020019531">
  <ele>402.158691</ele>
  <time>2011-10-20T06:26:15Z</time>
  <speed>1.690000</speed>
</trkpt>
<trkpt lat="32.721183777" lon="35.020065308">
  <ele>403.838379</ele>
  <time>2011-10-20T06:26:18Z</time>
  <speed>1.460000</speed>
</trkpt>
<trkpt lat="32.721183777" lon="35.020111084">
  <ele>404.971191</ele>
  <time>2011-10-20T06:26:21Z</time>
  <speed>1.080000</speed>
</trkpt>
<trkpt lat="32.721187592" lon="35.020149231">
  <ele>405.869629</ele>
  <time>2011-10-20T06:26:23Z</time>
  <speed>1.520000</speed>
</trkpt>
<trkpt lat="32.721183777" lon="35.020179749">
  <ele>406.627441</ele>
  <time>2011-10-20T06:26:25Z</time>
  <speed>1.530000</speed>
</trkpt>
<trkpt lat="32.721183777" lon="35.020217896">
  <ele>407.275879</ele>
  <time>2011-10-20T06:26:27Z</time>
  <speed>1.670000</speed>
</trkpt>
<trkpt lat="32.721187592" lon="35.020256042">
  <ele>407.721191</ele>
  <time>2011-10-20T06:26:29Z</time>
  <speed>1.500000</speed>
</trkpt>
<trkpt lat="32.721191406" lon="35.020286560">
  <ele>409.041504</ele>
  <time>2011-10-20T06:26:31Z</time>
  <speed>1.570000</speed>
</trkpt>
<trkpt lat="32.721191406" lon="35.020320892">
  <ele>410.830566</ele>
  <time>2011-10-20T06:26:34Z</time>
  <speed>1.190000</speed>
</trkpt>
<trkpt lat="32.721195221" lon="35.020355225">
  <ele>411.861816</ele>
  <time>2011-10-20T06:26:37Z</time>
  <speed>1.170000</speed>
</trkpt>
<trkpt lat="32.721210480" lon="35.020397186">
  <ele>411.877441</ele>
  <time>2011-10-20T06:26:40Z</time>
  <speed>1.480000</speed>
</trkpt>
<trkpt lat="32.721210480" lon="35.020435333">
  <ele>411.721191</ele>
  <time>2011-10-20T06:26:42Z</time>
  <speed>1.480000</speed>
</trkpt>
<trkpt lat="32.721218109" lon="35.020465851">
  <ele>412.119629</ele>
  <time>2011-10-20T06:26:44Z</time>
  <speed>1.490000</speed>
</trkpt>
<trkpt lat="32.721218109" lon="35.020500183">
  <ele>412.557129</ele>
  <time>2011-10-20T06:26:46Z</time>
  <speed>1.070000</speed>
</trkpt>
<trkpt lat="32.721218109" lon="35.020538330">
  <ele>413.455566</ele>
  <time>2011-10-20T06:26:49Z</time>
  <speed>1.130000</speed>
</trkpt>
<trkpt lat="32.721233368" lon="35.020568848">
  <ele>414.518066</ele>
  <time>2011-10-20T06:26:52Z</time>
  <speed>0.980000</speed>
</trkpt>
<trkpt lat="32.721233368" lon="35.020599365">
  <ele>415.221191</ele>
  <time>2011-10-20T06:26:55Z</time>
  <speed>1.320000</speed>
</trkpt>
<trkpt lat="32.721237183" lon="35.020641327">
  <ele>415.760254</ele>
  <time>2011-10-20T06:26:59Z</time>
  <speed>1.020000</speed>
</trkpt>
<trkpt lat="32.721240997" lon="35.020683289">
  <ele>416.096191</ele>
  <time>2011-10-20T06:27:02Z</time>
  <speed>1.180000</speed>
</trkpt>
<trkpt lat="32.721240997" lon="35.020713806">
  <ele>416.471191</ele>
  <time>2011-10-20T06:27:05Z</time>
  <speed>1.060000</speed>
</trkpt>
<trkpt lat="32.721244812" lon="35.020748138">
  <ele>417.236816</ele>
  <time>2011-10-20T06:27:08Z</time>
  <speed>0.980000</speed>
</trkpt>
<trkpt lat="32.721252441" lon="35.020778656">
  <ele>418.939941</ele>
  <time>2011-10-20T06:27:11Z</time>
  <speed>1.170000</speed>
</trkpt>
<trkpt lat="32.721248627" lon="35.020812988">
  <ele>419.158691</ele>
  <time>2011-10-20T06:27:14Z</time>
  <speed>1.100000</speed>
</trkpt>
<trkpt lat="32.721252441" lon="35.020851135">
  <ele>419.682129</ele>
  <time>2011-10-20T06:27:17Z</time>
  <speed>1.090000</speed>
</trkpt>
<trkpt lat="32.721248627" lon="35.020893097">
  <ele>419.979004</ele>
  <time>2011-10-20T06:27:21Z</time>
  <speed>1.410000</speed>
</trkpt>
<trkpt lat="32.721248627" lon="35.020927429">
  <ele>420.877441</ele>
  <time>2011-10-20T06:27:24Z</time>
  <speed>1.110000</speed>
</trkpt>
<trkpt lat="32.721248627" lon="35.020969391">
  <ele>421.307129</ele>
  <time>2011-10-20T06:27:27Z</time>
  <speed>1.370000</speed>
</trkpt>
<trkpt lat="32.721248627" lon="35.020999908">
  <ele>422.096191</ele>
  <time>2011-10-20T06:27:30Z</time>
  <speed>1.120000</speed>
</trkpt>
<trkpt lat="32.721244812" lon="35.021034241">
  <ele>422.736816</ele>
  <time>2011-10-20T06:27:33Z</time>
  <speed>1.260000</speed>
</trkpt>
<trkpt lat="32.721248627" lon="35.021068573">
  <ele>423.424316</ele>
  <time>2011-10-20T06:27:35Z</time>
  <speed>1.170000</speed>
</trkpt>
<trkpt lat="32.721240997" lon="35.021099091">
  <ele>423.572754</ele>
  <time>2011-10-20T06:27:38Z</time>
  <speed>1.290000</speed>
</trkpt>
<trkpt lat="32.721240997" lon="35.021148682">
  <ele>424.299316</ele>
  <time>2011-10-20T06:27:41Z</time>
  <speed>1.500000</speed>
</trkpt>
<trkpt lat="32.721240997" lon="35.021186829">
  <ele>424.924316</ele>
  <time>2011-10-20T06:27:44Z</time>
  <speed>1.120000</speed>
</trkpt>
<trkpt lat="32.721233368" lon="35.021221161">
  <ele>425.041504</ele>
  <time>2011-10-20T06:27:47Z</time>
  <speed>1.140000</speed>
</trkpt>
<trkpt lat="32.721225739" lon="35.021255493">
  <ele>425.283691</ele>
  <time>2011-10-20T06:27:49Z</time>
  <speed>1.190000</speed>
</trkpt>
<trkpt lat="32.721202850" lon="35.021293640">
  <ele>425.666504</ele>
  <time>2011-10-20T06:27:52Z</time>
  <speed>1.270000</speed>
</trkpt>
<trkpt lat="32.721187592" lon="35.021320343">
  <ele>425.885254</ele>
  <time>2011-10-20T06:27:54Z</time>
  <speed>1.060000</speed>
</trkpt>
<trkpt lat="32.721168518" lon="35.021347046">
  <ele>426.174316</ele>
  <time>2011-10-20T06:27:57Z</time>
  <speed>1.410000</speed>
</trkpt>
<trkpt lat="32.721157074" lon="35.021385193">
  <ele>426.525879</ele>
  <time>2011-10-20T06:28:00Z</time>
  <speed>0.900000</speed>
</trkpt>
<trkpt lat="32.721149445" lon="35.021419525">
  <ele>426.994629</ele>
  <time>2011-10-20T06:28:03Z</time>
  <speed>1.280000</speed>
</trkpt>
<trkpt lat="32.721145630" lon="35.021453857">
  <ele>427.682129</ele>
  <time>2011-10-20T06:28:06Z</time>
  <speed>1.310000</speed>
</trkpt>
<trkpt lat="32.721134186" lon="35.021492004">
  <ele>427.143066</ele>
  <time>2011-10-20T06:28:09Z</time>
  <speed>1.120000</speed>
</trkpt>
<trkpt lat="32.721118927" lon="35.021526337">
  <ele>427.955566</ele>
  <time>2011-10-20T06:28:12Z</time>
  <speed>0.970000</speed>
</trkpt>
<trkpt lat="32.721103668" lon="35.021564484">
  <ele>428.650879</ele>
  <time>2011-10-20T06:28:17Z</time>
  <speed>1.020000</speed>
</trkpt>
<trkpt lat="32.721080780" lon="35.021587372">
  <ele>428.564941</ele>
  <time>2011-10-20T06:28:20Z</time>
  <speed>1.090000</speed>
</trkpt>
<trkpt lat="32.721057892" lon="35.021625519">
  <ele>428.971191</ele>
  <time>2011-10-20T06:28:23Z</time>
  <speed>1.400000</speed>
</trkpt>
<trkpt lat="32.721031189" lon="35.021648407">
  <ele>429.689941</ele>
  <time>2011-10-20T06:28:26Z</time>
  <speed>1.350000</speed>
</trkpt>
<trkpt lat="32.721008301" lon="35.021671295">
  <ele>430.479004</ele>
  <time>2011-10-20T06:28:30Z</time>
  <speed>1.030000</speed>
</trkpt>
<trkpt lat="32.720973969" lon="35.021686554">
  <ele>430.939941</ele>
  <time>2011-10-20T06:28:34Z</time>
  <speed>1.170000</speed>
</trkpt>
<trkpt lat="32.720947266" lon="35.021697998">
  <ele>430.666504</ele>
  <time>2011-10-20T06:28:37Z</time>
  <speed>1.170000</speed>
</trkpt>
<trkpt lat="32.720920563" lon="35.021717072">
  <ele>431.096191</ele>
  <time>2011-10-20T06:28:40Z</time>
  <speed>1.370000</speed>
</trkpt>
<trkpt lat="32.720890045" lon="35.021739960">
  <ele>431.150879</ele>
  <time>2011-10-20T06:28:43Z</time>
  <speed>1.140000</speed>
</trkpt>
<trkpt lat="32.720855713" lon="35.021755219">
  <ele>431.619629</ele>
  <time>2011-10-20T06:28:46Z</time>
  <speed>1.400000</speed>
</trkpt>
<trkpt lat="32.720829010" lon="35.021774292">
  <ele>431.689941</ele>
  <time>2011-10-20T06:28:48Z</time>
  <speed>1.610000</speed>
</trkpt>
<trkpt lat="32.720806122" lon="35.021808624">
  <ele>432.135254</ele>
  <time>2011-10-20T06:28:51Z</time>
  <speed>1.660000</speed>
</trkpt>
<trkpt lat="32.720779419" lon="35.021839142">
  <ele>432.236816</ele>
  <time>2011-10-20T06:28:54Z</time>
  <speed>1.300000</speed>
</trkpt>
<trkpt lat="32.720756531" lon="35.021877289">
  <ele>432.744629</ele>
  <time>2011-10-20T06:28:57Z</time>
  <speed>1.070000</speed>
</trkpt>
<trkpt lat="32.720741272" lon="35.021907806">
  <ele>432.299316</ele>
  <time>2011-10-20T06:29:00Z</time>
  <speed>1.260000</speed>
</trkpt>
<trkpt lat="32.720710754" lon="35.021930695">
  <ele>432.354004</ele>
  <time>2011-10-20T06:29:03Z</time>
  <speed>1.490000</speed>
</trkpt>
<trkpt lat="32.720684052" lon="35.021945953">
  <ele>432.010254</ele>
  <time>2011-10-20T06:29:05Z</time>
  <speed>1.940000</speed>
</trkpt>
<trkpt lat="32.720649719" lon="35.021972656">
  <ele>431.314941</ele>
  <time>2011-10-20T06:29:07Z</time>
  <speed>2.450000</speed>
</trkpt>
<trkpt lat="32.720615387" lon="35.022010803">
  <ele>431.080566</ele>
  <time>2011-10-20T06:29:09Z</time>
  <speed>3.010000</speed>
</trkpt>
<trkpt lat="32.720577240" lon="35.022052765">
  <ele>430.471191</ele>
  <time>2011-10-20T06:29:11Z</time>
  <speed>3.000000</speed>
</trkpt>
<trkpt lat="32.720531464" lon="35.022087097">
  <ele>429.908691</ele>
  <time>2011-10-20T06:29:13Z</time>
  <speed>2.970000</speed>
</trkpt>
<trkpt lat="32.720493317" lon="35.022125244">
  <ele>429.338379</ele>
  <time>2011-10-20T06:29:15Z</time>
  <speed>2.610000</speed>
</trkpt>
<trkpt lat="32.720455170" lon="35.022148132">
  <ele>428.979004</ele>
  <time>2011-10-20T06:29:17Z</time>
  <speed>2.160000</speed>
</trkpt>
<trkpt lat="32.720420837" lon="35.022159576">
  <ele>428.541504</ele>
  <time>2011-10-20T06:29:19Z</time>
  <speed>1.330000</speed>
</trkpt>
<trkpt lat="32.720394135" lon="35.022186279">
  <ele>429.479004</ele>
  <time>2011-10-20T06:29:22Z</time>
  <speed>1.620000</speed>
</trkpt>
<trkpt lat="32.720371246" lon="35.022212982">
  <ele>429.486816</ele>
  <time>2011-10-20T06:29:25Z</time>
  <speed>1.380000</speed>
</trkpt>
<trkpt lat="32.720336914" lon="35.022239685">
  <ele>429.385254</ele>
  <time>2011-10-20T06:29:28Z</time>
  <speed>1.600000</speed>
</trkpt>
<trkpt lat="32.720302582" lon="35.022243500">
  <ele>429.588379</ele>
  <time>2011-10-20T06:29:30Z</time>
  <speed>1.610000</speed>
</trkpt>
<trkpt lat="32.720264435" lon="35.022247314">
  <ele>429.947754</ele>
  <time>2011-10-20T06:29:33Z</time>
  <speed>1.600000</speed>
</trkpt>
<trkpt lat="32.720233917" lon="35.022247314">
  <ele>430.166504</ele>
  <time>2011-10-20T06:29:35Z</time>
  <speed>1.450000</speed>
</trkpt>
<trkpt lat="32.720207214" lon="35.022258759">
  <ele>430.088379</ele>
  <time>2011-10-20T06:29:37Z</time>
  <speed>1.700000</speed>
</trkpt>
<trkpt lat="32.720161438" lon="35.022270203">
  <ele>431.033691</ele>
  <time>2011-10-20T06:29:39Z</time>
  <speed>1.720000</speed>
</trkpt>
<trkpt lat="32.720119476" lon="35.022277832">
  <ele>431.229004</ele>
  <time>2011-10-20T06:29:41Z</time>
  <speed>1.700000</speed>
</trkpt>
<trkpt lat="32.720081329" lon="35.022289276">
  <ele>430.893066</ele>
  <time>2011-10-20T06:29:43Z</time>
  <speed>1.830000</speed>
</trkpt>
<trkpt lat="32.720046997" lon="35.022285461">
  <ele>431.072754</ele>
  <time>2011-10-20T06:29:45Z</time>
  <speed>2.230000</speed>
</trkpt>
<trkpt lat="32.719997406" lon="35.022281647">
  <ele>431.314941</ele>
  <time>2011-10-20T06:29:47Z</time>
  <speed>2.180000</speed>
</trkpt>
<trkpt lat="32.719955444" lon="35.022277832">
  <ele>431.268066</ele>
  <time>2011-10-20T06:29:49Z</time>
  <speed>2.210000</speed>
</trkpt>
<trkpt lat="32.719913483" lon="35.022274017">
  <ele>431.393066</ele>
  <time>2011-10-20T06:29:51Z</time>
  <speed>1.750000</speed>
</trkpt>
<trkpt lat="32.719886780" lon="35.022270203">
  <ele>431.299316</ele>
  <time>2011-10-20T06:29:53Z</time>
  <speed>1.310000</speed>
</trkpt>
<trkpt lat="32.719856262" lon="35.022254944">
  <ele>431.471191</ele>
  <time>2011-10-20T06:29:56Z</time>
  <speed>1.760000</speed>
</trkpt>
<trkpt lat="32.719825745" lon="35.022239685">
  <ele>432.064941</ele>
  <time>2011-10-20T06:29:58Z</time>
  <speed>1.730000</speed>
</trkpt>
<trkpt lat="32.719799042" lon="35.022235870">
  <ele>432.283691</ele>
  <time>2011-10-20T06:30:00Z</time>
  <speed>1.340000</speed>
</trkpt>
<trkpt lat="32.719764709" lon="35.022224426">
  <ele>432.588379</ele>
  <time>2011-10-20T06:30:02Z</time>
  <speed>1.850000</speed>
</trkpt>
<trkpt lat="32.719722748" lon="35.022224426">
  <ele>433.346191</ele>
  <time>2011-10-20T06:30:04Z</time>
  <speed>2.070000</speed>
</trkpt>
<trkpt lat="32.719680786" lon="35.022212982">
  <ele>433.705566</ele>
  <time>2011-10-20T06:30:06Z</time>
  <speed>1.920000</speed>
</trkpt>
<trkpt lat="32.719646454" lon="35.022201538">
  <ele>433.729004</ele>
  <time>2011-10-20T06:30:08Z</time>
  <speed>2.110000</speed>
</trkpt>
<trkpt lat="32.719615936" lon="35.022190094">
  <ele>433.807129</ele>
  <time>2011-10-20T06:30:10Z</time>
  <speed>2.160000</speed>
</trkpt>
<trkpt lat="32.719573975" lon="35.022174835">
  <ele>434.361816</ele>
  <time>2011-10-20T06:30:12Z</time>
  <speed>2.130000</speed>
</trkpt>
<trkpt lat="32.719547272" lon="35.022159576">
  <ele>434.010254</ele>
  <time>2011-10-20T06:30:14Z</time>
  <speed>1.880000</speed>
</trkpt>
<trkpt lat="32.719505310" lon="35.022151947">
  <ele>434.150879</ele>
  <time>2011-10-20T06:30:16Z</time>
  <speed>1.960000</speed>
</trkpt>
<trkpt lat="32.719474792" lon="35.022132874">
  <ele>434.854004</ele>
  <time>2011-10-20T06:30:18Z</time>
  <speed>2.060000</speed>
</trkpt>
<trkpt lat="32.719444275" lon="35.022113800">
  <ele>435.455566</ele>
  <time>2011-10-20T06:30:20Z</time>
  <speed>2.040000</speed>
</trkpt>
<trkpt lat="32.719413757" lon="35.022090912">
  <ele>436.611816</ele>
  <time>2011-10-20T06:30:22Z</time>
  <speed>2.260000</speed>
</trkpt>
<trkpt lat="32.719379425" lon="35.022071838">
  <ele>436.393066</ele>
  <time>2011-10-20T06:30:24Z</time>
  <speed>2.010000</speed>
</trkpt>
<trkpt lat="32.719348907" lon="35.022045135">
  <ele>436.658691</ele>
  <time>2011-10-20T06:30:26Z</time>
  <speed>2.110000</speed>
</trkpt>
<trkpt lat="32.719322205" lon="35.022014618">
  <ele>437.283691</ele>
  <time>2011-10-20T06:30:28Z</time>
  <speed>1.900000</speed>
</trkpt>
<trkpt lat="32.719303131" lon="35.021976471">
  <ele>437.650879</ele>
  <time>2011-10-20T06:30:30Z</time>
  <speed>2.150000</speed>
</trkpt>
<trkpt lat="32.719272614" lon="35.021953583">
  <ele>437.635254</ele>
  <time>2011-10-20T06:30:32Z</time>
  <speed>2.050000</speed>
</trkpt>
<trkpt lat="32.719242096" lon="35.021926880">
  <ele>438.354004</ele>
  <time>2011-10-20T06:30:34Z</time>
  <speed>2.100000</speed>
</trkpt>
<trkpt lat="32.719211578" lon="35.021907806">
  <ele>438.658691</ele>
  <time>2011-10-20T06:30:36Z</time>
  <speed>1.780000</speed>
</trkpt>
<trkpt lat="32.719181061" lon="35.021884918">
  <ele>440.096191</ele>
  <time>2011-10-20T06:30:38Z</time>
  <speed>2.080000</speed>
</trkpt>
<trkpt lat="32.719146729" lon="35.021877289">
  <ele>440.174316</ele>
  <time>2011-10-20T06:30:40Z</time>
  <speed>2.230000</speed>
</trkpt>
<trkpt lat="32.719112396" lon="35.021858215">
  <ele>440.127441</ele>
  <time>2011-10-20T06:30:42Z</time>
  <speed>1.950000</speed>
</trkpt>
<trkpt lat="32.719070435" lon="35.021846771">
  <ele>440.830566</ele>
  <time>2011-10-20T06:30:44Z</time>
  <speed>1.980000</speed>
</trkpt>
<trkpt lat="32.719032288" lon="35.021835327">
  <ele>440.314941</ele>
  <time>2011-10-20T06:30:46Z</time>
  <speed>2.040000</speed>
</trkpt>
<trkpt lat="32.719005585" lon="35.021808624">
  <ele>441.033691</ele>
  <time>2011-10-20T06:30:48Z</time>
  <speed>1.770000</speed>
</trkpt>
<trkpt lat="32.718978882" lon="35.021785736">
  <ele>441.768066</ele>
  <time>2011-10-20T06:30:50Z</time>
  <speed>1.980000</speed>
</trkpt>
<trkpt lat="32.718952179" lon="35.021762848">
  <ele>442.268066</ele>
  <time>2011-10-20T06:30:52Z</time>
  <speed>1.970000</speed>
</trkpt>
<trkpt lat="32.718917847" lon="35.021739960">
  <ele>443.150879</ele>
  <time>2011-10-20T06:30:54Z</time>
  <speed>1.770000</speed>
</trkpt>
<trkpt lat="32.718891144" lon="35.021728516">
  <ele>443.057129</ele>
  <time>2011-10-20T06:30:56Z</time>
  <speed>1.680000</speed>
</trkpt>
<trkpt lat="32.718856812" lon="35.021713257">
  <ele>442.807129</ele>
  <time>2011-10-20T06:30:58Z</time>
  <speed>1.910000</speed>
</trkpt>
<trkpt lat="32.718830109" lon="35.021694183">
  <ele>443.002441</ele>
  <time>2011-10-20T06:31:00Z</time>
  <speed>1.670000</speed>
</trkpt>
<trkpt lat="32.718799591" lon="35.021678925">
  <ele>442.979004</ele>
  <time>2011-10-20T06:31:02Z</time>
  <speed>1.890000</speed>
</trkpt>
<trkpt lat="32.718772888" lon="35.021659851">
  <ele>442.877441</ele>
  <time>2011-10-20T06:31:04Z</time>
  <speed>1.670000</speed>
</trkpt>
<trkpt lat="32.718746185" lon="35.021656036">
  <ele>443.338379</ele>
  <time>2011-10-20T06:31:06Z</time>
  <speed>1.810000</speed>
</trkpt>
<trkpt lat="32.718704224" lon="35.021652222">
  <ele>443.791504</ele>
  <time>2011-10-20T06:31:09Z</time>
  <speed>1.900000</speed>
</trkpt>
<trkpt lat="32.718673706" lon="35.021652222">
  <ele>443.572754</ele>
  <time>2011-10-20T06:31:11Z</time>
  <speed>1.890000</speed>
</trkpt>
<trkpt lat="32.718635559" lon="35.021663666">
  <ele>443.838379</ele>
  <time>2011-10-20T06:31:13Z</time>
  <speed>1.860000</speed>
</trkpt>
<trkpt lat="32.718601227" lon="35.021682739">
  <ele>443.885254</ele>
  <time>2011-10-20T06:31:15Z</time>
  <speed>1.870000</speed>
</trkpt>
<trkpt lat="32.718566895" lon="35.021694183">
  <ele>443.869629</ele>
  <time>2011-10-20T06:31:17Z</time>
  <speed>1.810000</speed>
</trkpt>
<trkpt lat="32.718528748" lon="35.021720886">
  <ele>444.533691</ele>
  <time>2011-10-20T06:31:20Z</time>
  <speed>1.780000</speed>
</trkpt>
<trkpt lat="32.718486786" lon="35.021743774">
  <ele>445.502441</ele>
  <time>2011-10-20T06:31:23Z</time>
  <speed>1.880000</speed>
</trkpt>
<trkpt lat="32.718460083" lon="35.021755219">
  <ele>445.752441</ele>
  <time>2011-10-20T06:31:25Z</time>
  <speed>1.600000</speed>
</trkpt>
<trkpt lat="32.718433380" lon="35.021774292">
  <ele>445.877441</ele>
  <time>2011-10-20T06:31:27Z</time>
  <speed>1.820000</speed>
</trkpt>
<trkpt lat="32.718402863" lon="35.021789551">
  <ele>445.994629</ele>
  <time>2011-10-20T06:31:29Z</time>
  <speed>1.620000</speed>
</trkpt>
<trkpt lat="32.718376160" lon="35.021804810">
  <ele>446.064941</ele>
  <time>2011-10-20T06:31:31Z</time>
  <speed>1.630000</speed>
</trkpt>
<trkpt lat="32.718349457" lon="35.021816254">
  <ele>446.072754</ele>
  <time>2011-10-20T06:31:33Z</time>
  <speed>1.820000</speed>
</trkpt>
<trkpt lat="32.718326569" lon="35.021835327">
  <ele>446.666504</ele>
  <time>2011-10-20T06:31:35Z</time>
  <speed>1.700000</speed>
</trkpt>
<trkpt lat="32.718299866" lon="35.021854401">
  <ele>446.947754</ele>
  <time>2011-10-20T06:31:37Z</time>
  <speed>1.730000</speed>
</trkpt>
<trkpt lat="32.718269348" lon="35.021877289">
  <ele>447.096191</ele>
  <time>2011-10-20T06:31:39Z</time>
  <speed>1.800000</speed>
</trkpt>
<trkpt lat="32.718242645" lon="35.021903992">
  <ele>447.346191</ele>
  <time>2011-10-20T06:31:41Z</time>
  <speed>1.820000</speed>
</trkpt>
<trkpt lat="32.718212128" lon="35.021926880">
  <ele>447.588379</ele>
  <time>2011-10-20T06:31:43Z</time>
  <speed>1.730000</speed>
</trkpt>
<trkpt lat="32.718173981" lon="35.021949768">
  <ele>448.213379</ele>
  <time>2011-10-20T06:31:46Z</time>
  <speed>2.010000</speed>
</trkpt>
<trkpt lat="32.718143463" lon="35.021968842">
  <ele>449.182129</ele>
  <time>2011-10-20T06:31:48Z</time>
  <speed>1.610000</speed>
</trkpt>
<trkpt lat="32.718116760" lon="35.021980286">
  <ele>449.229004</ele>
  <time>2011-10-20T06:31:50Z</time>
  <speed>1.640000</speed>
</trkpt>
<trkpt lat="32.718090057" lon="35.021991730">
  <ele>449.439941</ele>
  <time>2011-10-20T06:31:52Z</time>
  <speed>1.640000</speed>
</trkpt>
<trkpt lat="32.718051910" lon="35.022006989">
  <ele>450.166504</ele>
  <time>2011-10-20T06:31:55Z</time>
  <speed>1.380000</speed>
</trkpt>
<trkpt lat="32.718021393" lon="35.022018433">
  <ele>450.307129</ele>
  <time>2011-10-20T06:31:57Z</time>
  <speed>1.680000</speed>
</trkpt>
<trkpt lat="32.717994690" lon="35.022033691">
  <ele>449.604004</ele>
  <time>2011-10-20T06:31:59Z</time>
  <speed>1.700000</speed>
</trkpt>
<trkpt lat="32.717967987" lon="35.022048950">
  <ele>449.525879</ele>
  <time>2011-10-20T06:32:01Z</time>
  <speed>1.750000</speed>
</trkpt>
<trkpt lat="32.717933655" lon="35.022071838">
  <ele>449.861816</ele>
  <time>2011-10-20T06:32:03Z</time>
  <speed>2.200000</speed>
</trkpt>
<trkpt lat="32.717899323" lon="35.022087097">
  <ele>450.127441</ele>
  <time>2011-10-20T06:32:05Z</time>
  <speed>1.990000</speed>
</trkpt>
<trkpt lat="32.717876434" lon="35.022109985">
  <ele>450.494629</ele>
  <time>2011-10-20T06:32:07Z</time>
  <speed>1.930000</speed>
</trkpt>
<trkpt lat="32.717853546" lon="35.022144318">
  <ele>450.900879</ele>
  <time>2011-10-20T06:32:09Z</time>
  <speed>1.870000</speed>
</trkpt>
<trkpt lat="32.717842102" lon="35.022186279">
  <ele>451.299316</ele>
  <time>2011-10-20T06:32:11Z</time>
  <speed>1.910000</speed>
</trkpt>
<trkpt lat="32.717826843" lon="35.022224426">
  <ele>451.729004</ele>
  <time>2011-10-20T06:32:13Z</time>
  <speed>1.890000</speed>
</trkpt>
<trkpt lat="32.717811584" lon="35.022262573">
  <ele>451.807129</ele>
  <time>2011-10-20T06:32:15Z</time>
  <speed>2.070000</speed>
</trkpt>
<trkpt lat="32.717800140" lon="35.022296906">
  <ele>451.932129</ele>
  <time>2011-10-20T06:32:17Z</time>
  <speed>1.830000</speed>
</trkpt>
<trkpt lat="32.717788696" lon="35.022331238">
  <ele>451.252441</ele>
  <time>2011-10-20T06:32:19Z</time>
  <speed>1.670000</speed>
</trkpt>
<trkpt lat="32.717769623" lon="35.022361755">
  <ele>450.846191</ele>
  <time>2011-10-20T06:32:21Z</time>
  <speed>1.580000</speed>
</trkpt>
<trkpt lat="32.717761993" lon="35.022403717">
  <ele>451.572754</ele>
  <time>2011-10-20T06:32:23Z</time>
  <speed>1.720000</speed>
</trkpt>
<trkpt lat="32.717754364" lon="35.022434235">
  <ele>451.814941</ele>
  <time>2011-10-20T06:32:25Z</time>
  <speed>1.800000</speed>
</trkpt>
<trkpt lat="32.717746735" lon="35.022476196">
  <ele>453.049316</ele>
  <time>2011-10-20T06:32:27Z</time>
  <speed>1.890000</speed>
</trkpt>
<trkpt lat="32.717739105" lon="35.022510529">
  <ele>453.518066</ele>
  <time>2011-10-20T06:32:29Z</time>
  <speed>1.890000</speed>
</trkpt>
<trkpt lat="32.717731476" lon="35.022552490">
  <ele>454.049316</ele>
  <time>2011-10-20T06:32:31Z</time>
  <speed>1.860000</speed>
</trkpt>
<trkpt lat="32.717723846" lon="35.022586823">
  <ele>454.596191</ele>
  <time>2011-10-20T06:32:33Z</time>
  <speed>1.830000</speed>
</trkpt>
<trkpt lat="32.717720032" lon="35.022632599">
  <ele>454.697754</ele>
  <time>2011-10-20T06:32:35Z</time>
  <speed>1.690000</speed>
</trkpt>
<trkpt lat="32.717712402" lon="35.022670746">
  <ele>455.189941</ele>
  <time>2011-10-20T06:32:37Z</time>
  <speed>1.880000</speed>
</trkpt>
<trkpt lat="32.717708588" lon="35.022708893">
  <ele>455.385254</ele>
  <time>2011-10-20T06:32:39Z</time>
  <speed>1.760000</speed>
</trkpt>
<trkpt lat="32.717708588" lon="35.022754669">
  <ele>455.572754</ele>
  <time>2011-10-20T06:32:41Z</time>
  <speed>1.690000</speed>
</trkpt>
<trkpt lat="32.717700958" lon="35.022792816">
  <ele>456.979004</ele>
  <time>2011-10-20T06:32:43Z</time>
  <speed>1.990000</speed>
</trkpt>
<trkpt lat="32.717678070" lon="35.022830963">
  <ele>456.580566</ele>
  <time>2011-10-20T06:32:45Z</time>
  <speed>2.190000</speed>
</trkpt>
<trkpt lat="32.717658997" lon="35.022869110">
  <ele>456.455566</ele>
  <time>2011-10-20T06:32:47Z</time>
  <speed>2.120000</speed>
</trkpt>
<trkpt lat="32.717643738" lon="35.022914886">
  <ele>456.111816</ele>
  <time>2011-10-20T06:32:49Z</time>
  <speed>2.520000</speed>
</trkpt>
<trkpt lat="32.717632294" lon="35.022941589">
  <ele>455.564941</ele>
  <time>2011-10-20T06:32:50Z</time>
  <speed>2.490000</speed>
</trkpt>
<trkpt lat="32.717613220" lon="35.022983551">
  <ele>455.479004</ele>
  <time>2011-10-20T06:32:52Z</time>
  <speed>2.220000</speed>
</trkpt>
<trkpt lat="32.717597961" lon="35.023033142">
  <ele>454.705566</ele>
  <time>2011-10-20T06:32:54Z</time>
  <speed>2.600000</speed>
</trkpt>
<trkpt lat="32.717582703" lon="35.023090363">
  <ele>454.033691</ele>
  <time>2011-10-20T06:32:56Z</time>
  <speed>2.810000</speed>
</trkpt>
<trkpt lat="32.717586517" lon="35.023128510">
  <ele>454.361816</ele>
  <time>2011-10-20T06:32:57Z</time>
  <speed>2.680000</speed>
</trkpt>
<trkpt lat="32.717575073" lon="35.023181915">
  <ele>454.479004</ele>
  <time>2011-10-20T06:32:59Z</time>
  <speed>2.320000</speed>
</trkpt>
<trkpt lat="32.717563629" lon="35.023235321">
  <ele>455.174316</ele>
  <time>2011-10-20T06:33:01Z</time>
  <speed>2.450000</speed>
</trkpt>
<trkpt lat="32.717559814" lon="35.023288727">
  <ele>455.721191</ele>
  <time>2011-10-20T06:33:03Z</time>
  <speed>2.620000</speed>
</trkpt>
<trkpt lat="32.717544556" lon="35.023349762">
  <ele>456.557129</ele>
  <time>2011-10-20T06:33:05Z</time>
  <speed>2.840000</speed>
</trkpt>
<trkpt lat="32.717536926" lon="35.023380280">
  <ele>456.596191</ele>
  <time>2011-10-20T06:33:06Z</time>
  <speed>2.740000</speed>
</trkpt>
<trkpt lat="32.717525482" lon="35.023441315">
  <ele>456.213379</ele>
  <time>2011-10-20T06:33:08Z</time>
  <speed>2.720000</speed>
</trkpt>
<trkpt lat="32.717514038" lon="35.023498535">
  <ele>456.189941</ele>
  <time>2011-10-20T06:33:10Z</time>
  <speed>2.550000</speed>
</trkpt>
<trkpt lat="32.717506409" lon="35.023551941">
  <ele>456.221191</ele>
  <time>2011-10-20T06:33:12Z</time>
  <speed>2.540000</speed>
</trkpt>
<trkpt lat="32.717494965" lon="35.023601532">
  <ele>456.150879</ele>
  <time>2011-10-20T06:33:14Z</time>
  <speed>2.710000</speed>
</trkpt>
<trkpt lat="32.717483521" lon="35.023654938">
  <ele>456.229004</ele>
  <time>2011-10-20T06:33:16Z</time>
  <speed>2.700000</speed>
</trkpt>
<trkpt lat="32.717472076" lon="35.023704529">
  <ele>457.018066</ele>
  <time>2011-10-20T06:33:18Z</time>
  <speed>2.170000</speed>
</trkpt>
<trkpt lat="32.717456818" lon="35.023742676">
  <ele>457.260254</ele>
  <time>2011-10-20T06:33:20Z</time>
  <speed>2.100000</speed>
</trkpt>
<trkpt lat="32.717453003" lon="35.023796082">
  <ele>458.291504</ele>
  <time>2011-10-20T06:33:22Z</time>
  <speed>2.640000</speed>
</trkpt>
<trkpt lat="32.717441559" lon="35.023826599">
  <ele>457.916504</ele>
  <time>2011-10-20T06:33:23Z</time>
  <speed>2.660000</speed>
</trkpt>
<trkpt lat="32.717430115" lon="35.023857117">
  <ele>458.002441</ele>
  <time>2011-10-20T06:33:24Z</time>
  <speed>2.850000</speed>
</trkpt>
<trkpt lat="32.717407227" lon="35.023910522">
  <ele>457.330566</ele>
  <time>2011-10-20T06:33:26Z</time>
  <speed>2.970000</speed>
</trkpt>
<trkpt lat="32.717388153" lon="35.023941040">
  <ele>456.689941</ele>
  <time>2011-10-20T06:33:27Z</time>
  <speed>3.480000</speed>
</trkpt>
<trkpt lat="32.717365265" lon="35.023971558">
  <ele>455.955566</ele>
  <time>2011-10-20T06:33:28Z</time>
  <speed>3.640000</speed>
</trkpt>
<trkpt lat="32.717338562" lon="35.024002075">
  <ele>455.166504</ele>
  <time>2011-10-20T06:33:29Z</time>
  <speed>3.780000</speed>
</trkpt>
<trkpt lat="32.717308044" lon="35.024036407">
  <ele>454.439941</ele>
  <time>2011-10-20T06:33:30Z</time>
  <speed>4.510000</speed>
</trkpt>
<trkpt lat="32.717277527" lon="35.024066925">
  <ele>453.932129</ele>
  <time>2011-10-20T06:33:31Z</time>
  <speed>4.710000</speed>
</trkpt>
<trkpt lat="32.717243195" lon="35.024101257">
  <ele>453.494629</ele>
  <time>2011-10-20T06:33:32Z</time>
  <speed>5.000000</speed>
</trkpt>
<trkpt lat="32.717208862" lon="35.024135590">
  <ele>452.346191</ele>
  <time>2011-10-20T06:33:33Z</time>
  <speed>4.670000</speed>
</trkpt>
<trkpt lat="32.717174530" lon="35.024173737">
  <ele>450.572754</ele>
  <time>2011-10-20T06:33:34Z</time>
  <speed>5.740000</speed>
</trkpt>
<trkpt lat="32.717132568" lon="35.024215698">
  <ele>449.924316</ele>
  <time>2011-10-20T06:33:35Z</time>
  <speed>6.140000</speed>
</trkpt>
<trkpt lat="32.717086792" lon="35.024246216">
  <ele>449.627441</ele>
  <time>2011-10-20T06:33:36Z</time>
  <speed>6.340000</speed>
</trkpt>
<trkpt lat="32.717033386" lon="35.024272919">
  <ele>449.752441</ele>
  <time>2011-10-20T06:33:37Z</time>
  <speed>6.270000</speed>
</trkpt>
<trkpt lat="32.716972351" lon="35.024295807">
  <ele>449.510254</ele>
  <time>2011-10-20T06:33:38Z</time>
  <speed>6.750000</speed>
</trkpt>
<trkpt lat="32.716911316" lon="35.024318695">
  <ele>449.854004</ele>
  <time>2011-10-20T06:33:39Z</time>
  <speed>6.830000</speed>
</trkpt>
<trkpt lat="32.716850281" lon="35.024341583">
  <ele>449.564941</ele>
  <time>2011-10-20T06:33:40Z</time>
  <speed>6.830000</speed>
</trkpt>
<trkpt lat="32.716793060" lon="35.024364471">
  <ele>449.135254</ele>
  <time>2011-10-20T06:33:41Z</time>
  <speed>6.660000</speed>
</trkpt>
<trkpt lat="32.716735840" lon="35.024391174">
  <ele>449.619629</ele>
  <time>2011-10-20T06:33:42Z</time>
  <speed>6.430000</speed>
</trkpt>
<trkpt lat="32.716682434" lon="35.024406433">
  <ele>449.643066</ele>
  <time>2011-10-20T06:33:43Z</time>
  <speed>5.950000</speed>
</trkpt>
<trkpt lat="32.716632843" lon="35.024417877">
  <ele>449.705566</ele>
  <time>2011-10-20T06:33:44Z</time>
  <speed>5.730000</speed>
</trkpt>
<trkpt lat="32.716583252" lon="35.024429321">
  <ele>449.830566</ele>
  <time>2011-10-20T06:33:45Z</time>
  <speed>5.410000</speed>
</trkpt>
<trkpt lat="32.716537476" lon="35.024433136">
  <ele>449.682129</ele>
  <time>2011-10-20T06:33:46Z</time>
  <speed>4.420000</speed>
</trkpt>
<trkpt lat="32.716499329" lon="35.024436951">
  <ele>449.916504</ele>
  <time>2011-10-20T06:33:47Z</time>
  <speed>3.900000</speed>
</trkpt>
<trkpt lat="32.716468811" lon="35.024440765">
  <ele>449.877441</ele>
  <time>2011-10-20T06:33:48Z</time>
  <speed>3.190000</speed>
</trkpt>
<trkpt lat="32.716442108" lon="35.024448395">
  <ele>450.393066</ele>
  <time>2011-10-20T06:33:49Z</time>
  <speed>2.440000</speed>
</trkpt>
<trkpt lat="32.716396332" lon="35.024440765">
  <ele>450.791504</ele>
  <time>2011-10-20T06:33:51Z</time>
  <speed>2.360000</speed>
</trkpt>
<trkpt lat="32.716342926" lon="35.024433136">
  <ele>451.377441</ele>
  <time>2011-10-20T06:33:53Z</time>
  <speed>3.190000</speed>
</trkpt>
<trkpt lat="32.716312408" lon="35.024425507">
  <ele>451.244629</ele>
  <time>2011-10-20T06:33:54Z</time>
  <speed>3.300000</speed>
</trkpt>
<trkpt lat="32.716281891" lon="35.024417877">
  <ele>451.268066</ele>
  <time>2011-10-20T06:33:55Z</time>
  <speed>3.530000</speed>
</trkpt>
<trkpt lat="32.716251373" lon="35.024410248">
  <ele>451.486816</ele>
  <time>2011-10-20T06:33:56Z</time>
  <speed>3.820000</speed>
</trkpt>
<trkpt lat="32.716217041" lon="35.024410248">
  <ele>451.057129</ele>
  <time>2011-10-20T06:33:57Z</time>
  <speed>4.030000</speed>
</trkpt>
<trkpt lat="32.716178894" lon="35.024406433">
  <ele>450.971191</ele>
  <time>2011-10-20T06:33:58Z</time>
  <speed>3.880000</speed>
</trkpt>
<trkpt lat="32.716140747" lon="35.024410248">
  <ele>451.033691</ele>
  <time>2011-10-20T06:33:59Z</time>
  <speed>3.900000</speed>
</trkpt>
<trkpt lat="32.716110229" lon="35.024402618">
  <ele>451.236816</ele>
  <time>2011-10-20T06:34:00Z</time>
  <speed>3.510000</speed>
</trkpt>
<trkpt lat="32.716075897" lon="35.024406433">
  <ele>450.814941</ele>
  <time>2011-10-20T06:34:01Z</time>
  <speed>3.500000</speed>
</trkpt>
<trkpt lat="32.716041565" lon="35.024410248">
  <ele>450.721191</ele>
  <time>2011-10-20T06:34:02Z</time>
  <speed>3.310000</speed>
</trkpt>
<trkpt lat="32.716014862" lon="35.024414063">
  <ele>450.830566</ele>
  <time>2011-10-20T06:34:03Z</time>
  <speed>3.200000</speed>
</trkpt>
<trkpt lat="32.715984344" lon="35.024421692">
  <ele>450.830566</ele>
  <time>2011-10-20T06:34:04Z</time>
  <speed>3.500000</speed>
</trkpt>
<trkpt lat="32.715957642" lon="35.024425507">
  <ele>450.197754</ele>
  <time>2011-10-20T06:34:05Z</time>
  <speed>3.480000</speed>
</trkpt>
<trkpt lat="32.715927124" lon="35.024429321">
  <ele>450.236816</ele>
  <time>2011-10-20T06:34:06Z</time>
  <speed>2.990000</speed>
</trkpt>
<trkpt lat="32.715900421" lon="35.024429321">
  <ele>450.088379</ele>
  <time>2011-10-20T06:34:07Z</time>
  <speed>3.060000</speed>
</trkpt>
<trkpt lat="32.715869904" lon="35.024414063">
  <ele>450.330566</ele>
  <time>2011-10-20T06:34:08Z</time>
  <speed>3.370000</speed>
</trkpt>
<trkpt lat="32.715839386" lon="35.024402618">
  <ele>450.502441</ele>
  <time>2011-10-20T06:34:09Z</time>
  <speed>3.620000</speed>
</trkpt>
<trkpt lat="32.715808868" lon="35.024391174">
  <ele>450.197754</ele>
  <time>2011-10-20T06:34:10Z</time>
  <speed>3.960000</speed>
</trkpt>
<trkpt lat="32.715766907" lon="35.024383545">
  <ele>450.158691</ele>
  <time>2011-10-20T06:34:11Z</time>
  <speed>3.820000</speed>
</trkpt>
<trkpt lat="32.715736389" lon="35.024368286">
  <ele>450.486816</ele>
  <time>2011-10-20T06:34:12Z</time>
  <speed>3.480000</speed>
</trkpt>
<trkpt lat="32.715709686" lon="35.024356842">
  <ele>450.385254</ele>
  <time>2011-10-20T06:34:13Z</time>
  <speed>3.340000</speed>
</trkpt>
<trkpt lat="32.715679169" lon="35.024345398">
  <ele>450.463379</ele>
  <time>2011-10-20T06:34:14Z</time>
  <speed>3.140000</speed>
</trkpt>
<trkpt lat="32.715656281" lon="35.024330139">
  <ele>450.143066</ele>
  <time>2011-10-20T06:34:15Z</time>
  <speed>3.100000</speed>
</trkpt>
<trkpt lat="32.715606689" lon="35.024299622">
  <ele>449.947754</ele>
  <time>2011-10-20T06:34:17Z</time>
  <speed>3.220000</speed>
</trkpt>
<trkpt lat="32.715579987" lon="35.024280548">
  <ele>449.908691</ele>
  <time>2011-10-20T06:34:18Z</time>
  <speed>3.280000</speed>
</trkpt>
<trkpt lat="32.715553284" lon="35.024265289">
  <ele>449.830566</ele>
  <time>2011-10-20T06:34:19Z</time>
  <speed>3.400000</speed>
</trkpt>
<trkpt lat="32.715522766" lon="35.024250031">
  <ele>449.924316</ele>
  <time>2011-10-20T06:34:20Z</time>
  <speed>3.280000</speed>
</trkpt>
<trkpt lat="32.715496063" lon="35.024234772">
  <ele>449.643066</ele>
  <time>2011-10-20T06:34:21Z</time>
  <speed>3.280000</speed>
</trkpt>
<trkpt lat="32.715465546" lon="35.024215698">
  <ele>449.869629</ele>
  <time>2011-10-20T06:34:22Z</time>
  <speed>3.520000</speed>
</trkpt>
<trkpt lat="32.715438843" lon="35.024204254">
  <ele>450.291504</ele>
  <time>2011-10-20T06:34:23Z</time>
  <speed>3.280000</speed>
</trkpt>
<trkpt lat="32.715404510" lon="35.024196625">
  <ele>450.682129</ele>
  <time>2011-10-20T06:34:24Z</time>
  <speed>3.340000</speed>
</trkpt>
<trkpt lat="32.715377808" lon="35.024181366">
  <ele>450.877441</ele>
  <time>2011-10-20T06:34:25Z</time>
  <speed>3.320000</speed>
</trkpt>
<trkpt lat="32.715343475" lon="35.024177551">
  <ele>451.814941</ele>
  <time>2011-10-20T06:34:26Z</time>
  <speed>3.280000</speed>
</trkpt>
<trkpt lat="32.715290070" lon="35.024177551">
  <ele>451.963379</ele>
  <time>2011-10-20T06:34:28Z</time>
  <speed>2.470000</speed>
</trkpt>
<trkpt lat="32.715248108" lon="35.024162292">
  <ele>452.525879</ele>
  <time>2011-10-20T06:34:30Z</time>
  <speed>2.440000</speed>
</trkpt>
<trkpt lat="32.715202332" lon="35.024150848">
  <ele>453.002441</ele>
  <time>2011-10-20T06:34:32Z</time>
  <speed>2.550000</speed>
</trkpt>
<trkpt lat="32.715152740" lon="35.024139404">
  <ele>454.314941</ele>
  <time>2011-10-20T06:34:34Z</time>
  <speed>2.820000</speed>
</trkpt>
<trkpt lat="32.715106964" lon="35.024120331">
  <ele>454.518066</ele>
  <time>2011-10-20T06:34:36Z</time>
  <speed>2.740000</speed>
</trkpt>
<trkpt lat="32.715053558" lon="35.024124146">
  <ele>454.791504</ele>
  <time>2011-10-20T06:34:38Z</time>
  <speed>2.790000</speed>
</trkpt>
<trkpt lat="32.715003967" lon="35.024112701">
  <ele>455.369629</ele>
  <time>2011-10-20T06:34:40Z</time>
  <speed>2.970000</speed>
</trkpt>
<trkpt lat="32.714954376" lon="35.024120331">
  <ele>455.002441</ele>
  <time>2011-10-20T06:34:42Z</time>
  <speed>2.770000</speed>
</trkpt>
<trkpt lat="32.714908600" lon="35.024127960">
  <ele>454.846191</ele>
  <time>2011-10-20T06:34:44Z</time>
  <speed>2.950000</speed>
</trkpt>
<trkpt lat="32.714855194" lon="35.024143219">
  <ele>454.869629</ele>
  <time>2011-10-20T06:34:46Z</time>
  <speed>3.250000</speed>
</trkpt>
<trkpt lat="32.714824677" lon="35.024162292">
  <ele>455.377441</ele>
  <time>2011-10-20T06:34:47Z</time>
  <speed>3.100000</speed>
</trkpt>
<trkpt lat="32.714801788" lon="35.024177551">
  <ele>455.736816</ele>
  <time>2011-10-20T06:34:48Z</time>
  <speed>2.920000</speed>
</trkpt>
<trkpt lat="32.714763641" lon="35.024204254">
  <ele>455.736816</ele>
  <time>2011-10-20T06:34:50Z</time>
  <speed>2.700000</speed>
</trkpt>
<trkpt lat="32.714729309" lon="35.024242401">
  <ele>456.322754</ele>
  <time>2011-10-20T06:34:52Z</time>
  <speed>2.640000</speed>
</trkpt>
<trkpt lat="32.714698792" lon="35.024280548">
  <ele>456.361816</ele>
  <time>2011-10-20T06:34:54Z</time>
  <speed>2.490000</speed>
</trkpt>
<trkpt lat="32.714656830" lon="35.024314880">
  <ele>456.025879</ele>
  <time>2011-10-20T06:34:56Z</time>
  <speed>2.550000</speed>
</trkpt>
<trkpt lat="32.714626312" lon="35.024353027">
  <ele>456.369629</ele>
  <time>2011-10-20T06:34:58Z</time>
  <speed>2.540000</speed>
</trkpt>
<trkpt lat="32.714591980" lon="35.024387360">
  <ele>456.064941</ele>
  <time>2011-10-20T06:35:00Z</time>
  <speed>2.190000</speed>
</trkpt>
<trkpt lat="32.714565277" lon="35.024417877">
  <ele>455.729004</ele>
  <time>2011-10-20T06:35:02Z</time>
  <speed>2.360000</speed>
</trkpt>
<trkpt lat="32.714534760" lon="35.024452209">
  <ele>455.572754</ele>
  <time>2011-10-20T06:35:04Z</time>
  <speed>2.420000</speed>
</trkpt>
<trkpt lat="32.714496613" lon="35.024494171">
  <ele>456.158691</ele>
  <time>2011-10-20T06:35:06Z</time>
  <speed>2.720000</speed>
</trkpt>
<trkpt lat="32.714473724" lon="35.024509430">
  <ele>456.111816</ele>
  <time>2011-10-20T06:35:07Z</time>
  <speed>3.020000</speed>
</trkpt>
<trkpt lat="32.714427948" lon="35.024539948">
  <ele>456.510254</ele>
  <time>2011-10-20T06:35:09Z</time>
  <speed>2.980000</speed>
</trkpt>
<trkpt lat="32.714401245" lon="35.024559021">
  <ele>456.502441</ele>
  <time>2011-10-20T06:35:10Z</time>
  <speed>3.110000</speed>
</trkpt>
<trkpt lat="32.714370728" lon="35.024570465">
  <ele>456.838379</ele>
  <time>2011-10-20T06:35:11Z</time>
  <speed>2.950000</speed>
</trkpt>
<trkpt lat="32.714347839" lon="35.024581909">
  <ele>456.736816</ele>
  <time>2011-10-20T06:35:12Z</time>
  <speed>2.820000</speed>
</trkpt>
<trkpt lat="32.714305878" lon="35.024608612">
  <ele>456.424316</ele>
  <time>2011-10-20T06:35:14Z</time>
  <speed>2.480000</speed>
</trkpt>
<trkpt lat="32.714263916" lon="35.024620056">
  <ele>456.322754</ele>
  <time>2011-10-20T06:35:16Z</time>
  <speed>2.330000</speed>
</trkpt>
<trkpt lat="32.714221954" lon="35.024658203">
  <ele>456.057129</ele>
  <time>2011-10-20T06:35:18Z</time>
  <speed>3.250000</speed>
</trkpt>
<trkpt lat="32.714199066" lon="35.024677277">
  <ele>455.619629</ele>
  <time>2011-10-20T06:35:19Z</time>
  <speed>3.340000</speed>
</trkpt>
<trkpt lat="32.714164734" lon="35.024696350">
  <ele>455.814941</ele>
  <time>2011-10-20T06:35:20Z</time>
  <speed>3.650000</speed>
</trkpt>
<trkpt lat="32.714130402" lon="35.024711609">
  <ele>455.814941</ele>
  <time>2011-10-20T06:35:21Z</time>
  <speed>3.930000</speed>
</trkpt>
<trkpt lat="32.714099884" lon="35.024726868">
  <ele>455.588379</ele>
  <time>2011-10-20T06:35:22Z</time>
  <speed>3.990000</speed>
</trkpt>
<trkpt lat="32.714069366" lon="35.024742126">
  <ele>455.494629</ele>
  <time>2011-10-20T06:35:23Z</time>
  <speed>3.870000</speed>
</trkpt>
<trkpt lat="32.714042664" lon="35.024761200">
  <ele>456.127441</ele>
  <time>2011-10-20T06:35:24Z</time>
  <speed>3.880000</speed>
</trkpt>
<trkpt lat="32.714012146" lon="35.024780273">
  <ele>456.463379</ele>
  <time>2011-10-20T06:35:25Z</time>
  <speed>3.710000</speed>
</trkpt>
<trkpt lat="32.713985443" lon="35.024799347">
  <ele>456.479004</ele>
  <time>2011-10-20T06:35:26Z</time>
  <speed>3.590000</speed>
</trkpt>
<trkpt lat="32.713954926" lon="35.024826050">
  <ele>456.736816</ele>
  <time>2011-10-20T06:35:27Z</time>
  <speed>3.770000</speed>
</trkpt>
<trkpt lat="32.713924408" lon="35.024845123">
  <ele>456.939941</ele>
  <time>2011-10-20T06:35:28Z</time>
  <speed>3.490000</speed>
</trkpt>
<trkpt lat="32.713897705" lon="35.024868011">
  <ele>456.955566</ele>
  <time>2011-10-20T06:35:29Z</time>
  <speed>3.600000</speed>
</trkpt>
<trkpt lat="32.713867188" lon="35.024887085">
  <ele>456.814941</ele>
  <time>2011-10-20T06:35:30Z</time>
  <speed>3.880000</speed>
</trkpt>
<trkpt lat="32.713840485" lon="35.024913788">
  <ele>456.666504</ele>
  <time>2011-10-20T06:35:31Z</time>
  <speed>3.800000</speed>
</trkpt>
<trkpt lat="32.713813782" lon="35.024936676">
  <ele>457.127441</ele>
  <time>2011-10-20T06:35:32Z</time>
  <speed>3.930000</speed>
</trkpt>
<trkpt lat="32.713787079" lon="35.024963379">
  <ele>456.604004</ele>
  <time>2011-10-20T06:35:33Z</time>
  <speed>3.420000</speed>
</trkpt>
<trkpt lat="32.713764191" lon="35.024986267">
  <ele>456.635254</ele>
  <time>2011-10-20T06:35:34Z</time>
  <speed>3.470000</speed>
</trkpt>
<trkpt lat="32.713741302" lon="35.025009155">
  <ele>456.588379</ele>
  <time>2011-10-20T06:35:35Z</time>
  <speed>3.740000</speed>
</trkpt>
<trkpt lat="32.713718414" lon="35.025035858">
  <ele>457.057129</ele>
  <time>2011-10-20T06:35:36Z</time>
  <speed>3.340000</speed>
</trkpt>
<trkpt lat="32.713695526" lon="35.025051117">
  <ele>456.830566</ele>
  <time>2011-10-20T06:35:37Z</time>
  <speed>3.270000</speed>
</trkpt>
<trkpt lat="32.713668823" lon="35.025070190">
  <ele>456.416504</ele>
  <time>2011-10-20T06:35:38Z</time>
  <speed>3.400000</speed>
</trkpt>
<trkpt lat="32.713642120" lon="35.025085449">
  <ele>456.900879</ele>
  <time>2011-10-20T06:35:39Z</time>
  <speed>3.400000</speed>
</trkpt>
<trkpt lat="32.713607788" lon="35.025112152">
  <ele>457.338379</ele>
  <time>2011-10-20T06:35:40Z</time>
  <speed>3.340000</speed>
</trkpt>
<trkpt lat="32.713577271" lon="35.025131226">
  <ele>457.400879</ele>
  <time>2011-10-20T06:35:41Z</time>
  <speed>3.360000</speed>
</trkpt>
<trkpt lat="32.713554382" lon="35.025154114">
  <ele>457.424316</ele>
  <time>2011-10-20T06:35:42Z</time>
  <speed>3.700000</speed>
</trkpt>
<trkpt lat="32.713527679" lon="35.025177002">
  <ele>456.861816</ele>
  <time>2011-10-20T06:35:43Z</time>
  <speed>3.850000</speed>
</trkpt>
<trkpt lat="32.713500977" lon="35.025203705">
  <ele>456.635254</ele>
  <time>2011-10-20T06:35:44Z</time>
  <speed>4.050000</speed>
</trkpt>
<trkpt lat="32.713474274" lon="35.025238037">
  <ele>456.197754</ele>
  <time>2011-10-20T06:35:45Z</time>
  <speed>4.050000</speed>
</trkpt>
<trkpt lat="32.713447571" lon="35.025264740">
  <ele>456.338379</ele>
  <time>2011-10-20T06:35:46Z</time>
  <speed>4.020000</speed>
</trkpt>
<trkpt lat="32.713420868" lon="35.025291443">
  <ele>456.119629</ele>
  <time>2011-10-20T06:35:47Z</time>
  <speed>3.840000</speed>
</trkpt>
<trkpt lat="32.713394165" lon="35.025318146">
  <ele>455.846191</ele>
  <time>2011-10-20T06:35:48Z</time>
  <speed>3.810000</speed>
</trkpt>
<trkpt lat="32.713363647" lon="35.025344849">
  <ele>455.830566</ele>
  <time>2011-10-20T06:35:49Z</time>
  <speed>3.790000</speed>
</trkpt>
<trkpt lat="32.713336945" lon="35.025367737">
  <ele>455.885254</ele>
  <time>2011-10-20T06:35:50Z</time>
  <speed>3.570000</speed>
</trkpt>
<trkpt lat="32.713310242" lon="35.025386810">
  <ele>455.541504</ele>
  <time>2011-10-20T06:35:51Z</time>
  <speed>3.630000</speed>
</trkpt>
<trkpt lat="32.713283539" lon="35.025413513">
  <ele>455.916504</ele>
  <time>2011-10-20T06:35:52Z</time>
  <speed>3.630000</speed>
</trkpt>
<trkpt lat="32.713253021" lon="35.025432587">
  <ele>455.916504</ele>
  <time>2011-10-20T06:35:53Z</time>
  <speed>3.810000</speed>
</trkpt>
<trkpt lat="32.713222504" lon="35.025451660">
  <ele>456.018066</ele>
  <time>2011-10-20T06:35:54Z</time>
  <speed>3.960000</speed>
</trkpt>
<trkpt lat="32.713191986" lon="35.025474548">
  <ele>456.197754</ele>
  <time>2011-10-20T06:35:55Z</time>
  <speed>4.230000</speed>
</trkpt>
<trkpt lat="32.713157654" lon="35.025493622">
  <ele>456.627441</ele>
  <time>2011-10-20T06:35:56Z</time>
  <speed>4.060000</speed>
</trkpt>
<trkpt lat="32.713130951" lon="35.025508881">
  <ele>457.018066</ele>
  <time>2011-10-20T06:35:57Z</time>
  <speed>3.760000</speed>
</trkpt>
<trkpt lat="32.713100433" lon="35.025520325">
  <ele>456.838379</ele>
  <time>2011-10-20T06:35:58Z</time>
  <speed>3.850000</speed>
</trkpt>
<trkpt lat="32.713069916" lon="35.025535583">
  <ele>456.377441</ele>
  <time>2011-10-20T06:35:59Z</time>
  <speed>3.790000</speed>
</trkpt>
<trkpt lat="32.713039398" lon="35.025547028">
  <ele>456.174316</ele>
  <time>2011-10-20T06:36:00Z</time>
  <speed>3.600000</speed>
</trkpt>
<trkpt lat="32.713008881" lon="35.025558472">
  <ele>455.518066</ele>
  <time>2011-10-20T06:36:01Z</time>
  <speed>4.000000</speed>
</trkpt>
<trkpt lat="32.712970734" lon="35.025569916">
  <ele>455.408691</ele>
  <time>2011-10-20T06:36:02Z</time>
  <speed>4.410000</speed>
</trkpt>
<trkpt lat="32.712932587" lon="35.025585175">
  <ele>455.283691</ele>
  <time>2011-10-20T06:36:03Z</time>
  <speed>4.330000</speed>
</trkpt>
<trkpt lat="32.712894440" lon="35.025604248">
  <ele>455.236816</ele>
  <time>2011-10-20T06:36:04Z</time>
  <speed>4.520000</speed>
</trkpt>
<trkpt lat="32.712860107" lon="35.025623322">
  <ele>454.908691</ele>
  <time>2011-10-20T06:36:05Z</time>
  <speed>4.550000</speed>
</trkpt>
<trkpt lat="32.712818146" lon="35.025646210">
  <ele>454.455566</ele>
  <time>2011-10-20T06:36:06Z</time>
  <speed>4.790000</speed>
</trkpt>
<trkpt lat="32.712779999" lon="35.025661469">
  <ele>454.049316</ele>
  <time>2011-10-20T06:36:07Z</time>
  <speed>5.200000</speed>
</trkpt>
<trkpt lat="32.712730408" lon="35.025676727">
  <ele>454.080566</ele>
  <time>2011-10-20T06:36:08Z</time>
  <speed>5.360000</speed>
</trkpt>
<trkpt lat="32.712684631" lon="35.025684357">
  <ele>453.799316</ele>
  <time>2011-10-20T06:36:09Z</time>
  <speed>5.390000</speed>
</trkpt>
<trkpt lat="32.712631226" lon="35.025691986">
  <ele>453.330566</ele>
  <time>2011-10-20T06:36:10Z</time>
  <speed>5.460000</speed>
</trkpt>
<trkpt lat="32.712581635" lon="35.025691986">
  <ele>453.307129</ele>
  <time>2011-10-20T06:36:11Z</time>
  <speed>5.190000</speed>
</trkpt>
<trkpt lat="32.712535858" lon="35.025680542">
  <ele>453.455566</ele>
  <time>2011-10-20T06:36:12Z</time>
  <speed>4.790000</speed>
</trkpt>
<trkpt lat="32.712490082" lon="35.025669098">
  <ele>452.752441</ele>
  <time>2011-10-20T06:36:13Z</time>
  <speed>5.030000</speed>
</trkpt>
<trkpt lat="32.712444305" lon="35.025653839">
  <ele>452.986816</ele>
  <time>2011-10-20T06:36:14Z</time>
  <speed>4.890000</speed>
</trkpt>
<trkpt lat="32.712398529" lon="35.025638580">
  <ele>453.479004</ele>
  <time>2011-10-20T06:36:15Z</time>
  <speed>4.930000</speed>
</trkpt>
<trkpt lat="32.712352753" lon="35.025634766">
  <ele>453.674316</ele>
  <time>2011-10-20T06:36:16Z</time>
  <speed>4.270000</speed>
</trkpt>
<trkpt lat="32.712310791" lon="35.025627136">
  <ele>453.736816</ele>
  <time>2011-10-20T06:36:17Z</time>
  <speed>4.280000</speed>
</trkpt>
<trkpt lat="32.712268829" lon="35.025627136">
  <ele>454.064941</ele>
  <time>2011-10-20T06:36:18Z</time>
  <speed>4.020000</speed>
</trkpt>
<trkpt lat="32.712238312" lon="35.025619507">
  <ele>454.111816</ele>
  <time>2011-10-20T06:36:19Z</time>
  <speed>3.520000</speed>
</trkpt>
<trkpt lat="32.712203979" lon="35.025619507">
  <ele>454.408691</ele>
  <time>2011-10-20T06:36:20Z</time>
  <speed>3.390000</speed>
</trkpt>
<trkpt lat="32.712177277" lon="35.025615692">
  <ele>454.666504</ele>
  <time>2011-10-20T06:36:21Z</time>
  <speed>3.500000</speed>
</trkpt>
<trkpt lat="32.712139130" lon="35.025615692">
  <ele>454.627441</ele>
  <time>2011-10-20T06:36:22Z</time>
  <speed>3.720000</speed>
</trkpt>
<trkpt lat="32.712112427" lon="35.025615692">
  <ele>454.455566</ele>
  <time>2011-10-20T06:36:23Z</time>
  <speed>3.460000</speed>
</trkpt>
<trkpt lat="32.712074280" lon="35.025627136">
  <ele>454.182129</ele>
  <time>2011-10-20T06:36:24Z</time>
  <speed>3.740000</speed>
</trkpt>
<trkpt lat="32.712036133" lon="35.025638580">
  <ele>455.033691</ele>
  <time>2011-10-20T06:36:25Z</time>
  <speed>3.860000</speed>
</trkpt>
<trkpt lat="32.712001801" lon="35.025642395">
  <ele>455.072754</ele>
  <time>2011-10-20T06:36:26Z</time>
  <speed>3.790000</speed>
</trkpt>
<trkpt lat="32.711967468" lon="35.025642395">
  <ele>455.025879</ele>
  <time>2011-10-20T06:36:27Z</time>
  <speed>3.830000</speed>
</trkpt>
<trkpt lat="32.711933136" lon="35.025646210">
  <ele>454.924316</ele>
  <time>2011-10-20T06:36:28Z</time>
  <speed>4.000000</speed>
</trkpt>
<trkpt lat="32.711894989" lon="35.025646210">
  <ele>454.932129</ele>
  <time>2011-10-20T06:36:29Z</time>
  <speed>4.170000</speed>
</trkpt>
<trkpt lat="32.711853027" lon="35.025657654">
  <ele>454.689941</ele>
  <time>2011-10-20T06:36:30Z</time>
  <speed>4.280000</speed>
</trkpt>
<trkpt lat="32.711814880" lon="35.025657654">
  <ele>453.729004</ele>
  <time>2011-10-20T06:36:31Z</time>
  <speed>4.210000</speed>
</trkpt>
<trkpt lat="32.711780548" lon="35.025650024">
  <ele>453.900879</ele>
  <time>2011-10-20T06:36:32Z</time>
  <speed>3.970000</speed>
</trkpt>
<trkpt lat="32.711742401" lon="35.025634766">
  <ele>453.971191</ele>
  <time>2011-10-20T06:36:33Z</time>
  <speed>4.350000</speed>
</trkpt>
<trkpt lat="32.711704254" lon="35.025619507">
  <ele>454.213379</ele>
  <time>2011-10-20T06:36:34Z</time>
  <speed>3.970000</speed>
</trkpt>
<trkpt lat="32.711673737" lon="35.025600433">
  <ele>454.189941</ele>
  <time>2011-10-20T06:36:35Z</time>
  <speed>3.580000</speed>
</trkpt>
<trkpt lat="32.711647034" lon="35.025577545">
  <ele>454.518066</ele>
  <time>2011-10-20T06:36:36Z</time>
  <speed>3.400000</speed>
</trkpt>
<trkpt lat="32.711616516" lon="35.025562286">
  <ele>454.682129</ele>
  <time>2011-10-20T06:36:37Z</time>
  <speed>3.430000</speed>
</trkpt>
<trkpt lat="32.711585999" lon="35.025554657">
  <ele>454.369629</ele>
  <time>2011-10-20T06:36:38Z</time>
  <speed>3.160000</speed>
</trkpt>
<trkpt lat="32.711559296" lon="35.025535583">
  <ele>454.619629</ele>
  <time>2011-10-20T06:36:39Z</time>
  <speed>3.220000</speed>
</trkpt>
<trkpt lat="32.711532593" lon="35.025516510">
  <ele>454.455566</ele>
  <time>2011-10-20T06:36:40Z</time>
  <speed>3.380000</speed>
</trkpt>
<trkpt lat="32.711509705" lon="35.025493622">
  <ele>454.650879</ele>
  <time>2011-10-20T06:36:41Z</time>
  <speed>3.320000</speed>
</trkpt>
<trkpt lat="32.711486816" lon="35.025474548">
  <ele>455.033691</ele>
  <time>2011-10-20T06:36:42Z</time>
  <speed>3.170000</speed>
</trkpt>
<trkpt lat="32.711460114" lon="35.025455475">
  <ele>455.338379</ele>
  <time>2011-10-20T06:36:43Z</time>
  <speed>3.290000</speed>
</trkpt>
<trkpt lat="32.711437225" lon="35.025432587">
  <ele>455.393066</ele>
  <time>2011-10-20T06:36:44Z</time>
  <speed>3.240000</speed>
</trkpt>
<trkpt lat="32.711410522" lon="35.025417328">
  <ele>456.010254</ele>
  <time>2011-10-20T06:36:45Z</time>
  <speed>3.250000</speed>
</trkpt>
<trkpt lat="32.711380005" lon="35.025402069">
  <ele>456.604004</ele>
  <time>2011-10-20T06:36:46Z</time>
  <speed>3.420000</speed>
</trkpt>
<trkpt lat="32.711349487" lon="35.025390625">
  <ele>456.822754</ele>
  <time>2011-10-20T06:36:47Z</time>
  <speed>3.460000</speed>
</trkpt>
<trkpt lat="32.711315155" lon="35.025382996">
  <ele>456.877441</ele>
  <time>2011-10-20T06:36:48Z</time>
  <speed>3.390000</speed>
</trkpt>
<trkpt lat="32.711288452" lon="35.025379181">
  <ele>456.518066</ele>
  <time>2011-10-20T06:36:49Z</time>
  <speed>3.410000</speed>
</trkpt>
<trkpt lat="32.711257935" lon="35.025379181">
  <ele>457.252441</ele>
  <time>2011-10-20T06:36:50Z</time>
  <speed>3.540000</speed>
</trkpt>
<trkpt lat="32.711227417" lon="35.025375366">
  <ele>457.174316</ele>
  <time>2011-10-20T06:36:51Z</time>
  <speed>3.340000</speed>
</trkpt>
<trkpt lat="32.711196899" lon="35.025379181">
  <ele>457.010254</ele>
  <time>2011-10-20T06:36:52Z</time>
  <speed>3.540000</speed>
</trkpt>
<trkpt lat="32.711154938" lon="35.025386810">
  <ele>456.799316</ele>
  <time>2011-10-20T06:36:53Z</time>
  <speed>3.620000</speed>
</trkpt>
<trkpt lat="32.711124420" lon="35.025390625">
  <ele>457.268066</ele>
  <time>2011-10-20T06:36:54Z</time>
  <speed>3.520000</speed>
</trkpt>
<trkpt lat="32.711090088" lon="35.025386810">
  <ele>457.580566</ele>
  <time>2011-10-20T06:36:55Z</time>
  <speed>3.620000</speed>
</trkpt>
<trkpt lat="32.711059570" lon="35.025386810">
  <ele>457.104004</ele>
  <time>2011-10-20T06:36:56Z</time>
  <speed>3.370000</speed>
</trkpt>
<trkpt lat="32.711025238" lon="35.025379181">
  <ele>457.650879</ele>
  <time>2011-10-20T06:36:57Z</time>
  <speed>3.360000</speed>
</trkpt>
<trkpt lat="32.710994720" lon="35.025371552">
  <ele>458.213379</ele>
  <time>2011-10-20T06:36:58Z</time>
  <speed>3.010000</speed>
</trkpt>
<trkpt lat="32.710948944" lon="35.025352478">
  <ele>458.197754</ele>
  <time>2011-10-20T06:37:00Z</time>
  <speed>2.220000</speed>
</trkpt>
<trkpt lat="32.710910797" lon="35.025352478">
  <ele>458.580566</ele>
  <time>2011-10-20T06:37:02Z</time>
  <speed>1.900000</speed>
</trkpt>
<trkpt lat="32.710876465" lon="35.025356293">
  <ele>459.119629</ele>
  <time>2011-10-20T06:37:04Z</time>
  <speed>2.160000</speed>
</trkpt>
<trkpt lat="32.710830688" lon="35.025356293">
  <ele>459.783691</ele>
  <time>2011-10-20T06:37:06Z</time>
  <speed>2.670000</speed>
</trkpt>
<trkpt lat="32.710784912" lon="35.025356293">
  <ele>460.018066</ele>
  <time>2011-10-20T06:37:08Z</time>
  <speed>2.190000</speed>
</trkpt>
<trkpt lat="32.710746765" lon="35.025363922">
  <ele>460.244629</ele>
  <time>2011-10-20T06:37:10Z</time>
  <speed>2.600000</speed>
</trkpt>
<trkpt lat="32.710708618" lon="35.025367737">
  <ele>460.510254</ele>
  <time>2011-10-20T06:37:12Z</time>
  <speed>2.350000</speed>
</trkpt>
<trkpt lat="32.710662842" lon="35.025379181">
  <ele>461.049316</ele>
  <time>2011-10-20T06:37:14Z</time>
  <speed>2.440000</speed>
</trkpt>
<trkpt lat="32.710620880" lon="35.025390625">
  <ele>461.854004</ele>
  <time>2011-10-20T06:37:16Z</time>
  <speed>2.440000</speed>
</trkpt>
<trkpt lat="32.710578918" lon="35.025409698">
  <ele>462.002441</ele>
  <time>2011-10-20T06:37:18Z</time>
  <speed>2.330000</speed>
</trkpt>
<trkpt lat="32.710536957" lon="35.025428772">
  <ele>462.432129</ele>
  <time>2011-10-20T06:37:20Z</time>
  <speed>2.170000</speed>
</trkpt>
<trkpt lat="32.710498810" lon="35.025440216">
  <ele>462.807129</ele>
  <time>2011-10-20T06:37:22Z</time>
  <speed>2.300000</speed>
</trkpt>
<trkpt lat="32.710472107" lon="35.025447845">
  <ele>463.416504</ele>
  <time>2011-10-20T06:37:24Z</time>
  <speed>2.080000</speed>
</trkpt>
<trkpt lat="32.710445404" lon="35.025463104">
  <ele>463.666504</ele>
  <time>2011-10-20T06:37:26Z</time>
  <speed>2.360000</speed>
</trkpt>
<trkpt lat="32.710403442" lon="35.025482178">
  <ele>463.799316</ele>
  <time>2011-10-20T06:37:28Z</time>
  <speed>1.800000</speed>
</trkpt>
<trkpt lat="32.710369110" lon="35.025489807">
  <ele>463.986816</ele>
  <time>2011-10-20T06:37:30Z</time>
  <speed>2.240000</speed>
</trkpt>
<trkpt lat="32.710330963" lon="35.025512695">
  <ele>464.057129</ele>
  <time>2011-10-20T06:37:32Z</time>
  <speed>1.790000</speed>
</trkpt>
<trkpt lat="32.710304260" lon="35.025524139">
  <ele>465.143066</ele>
  <time>2011-10-20T06:37:34Z</time>
  <speed>1.940000</speed>
</trkpt>
<trkpt lat="32.710273743" lon="35.025547028">
  <ele>465.268066</ele>
  <time>2011-10-20T06:37:36Z</time>
  <speed>2.010000</speed>
</trkpt>
<trkpt lat="32.710239410" lon="35.025558472">
  <ele>465.760254</ele>
  <time>2011-10-20T06:37:38Z</time>
  <speed>2.050000</speed>
</trkpt>
<trkpt lat="32.710205078" lon="35.025577545">
  <ele>465.330566</ele>
  <time>2011-10-20T06:37:40Z</time>
  <speed>1.910000</speed>
</trkpt>
<trkpt lat="32.710170746" lon="35.025596619">
  <ele>465.533691</ele>
  <time>2011-10-20T06:37:42Z</time>
  <speed>2.110000</speed>
</trkpt>
<trkpt lat="32.710128784" lon="35.025611877">
  <ele>465.791504</ele>
  <time>2011-10-20T06:37:44Z</time>
  <speed>2.330000</speed>
</trkpt>
<trkpt lat="32.710094452" lon="35.025619507">
  <ele>466.525879</ele>
  <time>2011-10-20T06:37:46Z</time>
  <speed>1.940000</speed>
</trkpt>
<trkpt lat="32.710056305" lon="35.025623322">
  <ele>467.072754</ele>
  <time>2011-10-20T06:37:48Z</time>
  <speed>1.910000</speed>
</trkpt>
<trkpt lat="32.710014343" lon="35.025634766">
  <ele>466.307129</ele>
  <time>2011-10-20T06:37:50Z</time>
  <speed>1.580000</speed>
</trkpt>
<trkpt lat="32.709983826" lon="35.025630951">
  <ele>466.799316</ele>
  <time>2011-10-20T06:37:52Z</time>
  <speed>1.590000</speed>
</trkpt>
<trkpt lat="32.709949493" lon="35.025611877">
  <ele>467.236816</ele>
  <time>2011-10-20T06:37:55Z</time>
  <speed>1.740000</speed>
</trkpt>
<trkpt lat="32.709918976" lon="35.025604248">
  <ele>467.721191</ele>
  <time>2011-10-20T06:37:57Z</time>
  <speed>1.670000</speed>
</trkpt>
<trkpt lat="32.709888458" lon="35.025596619">
  <ele>468.768066</ele>
  <time>2011-10-20T06:37:59Z</time>
  <speed>1.430000</speed>
</trkpt>
<trkpt lat="32.709857941" lon="35.025588989">
  <ele>469.002441</ele>
  <time>2011-10-20T06:38:01Z</time>
  <speed>1.830000</speed>
</trkpt>
<trkpt lat="32.709831238" lon="35.025569916">
  <ele>469.611816</ele>
  <time>2011-10-20T06:38:03Z</time>
  <speed>1.830000</speed>
</trkpt>
<trkpt lat="32.709796906" lon="35.025566101">
  <ele>469.557129</ele>
  <time>2011-10-20T06:38:05Z</time>
  <speed>1.690000</speed>
</trkpt>
<trkpt lat="32.709766388" lon="35.025562286">
  <ele>469.822754</ele>
  <time>2011-10-20T06:38:07Z</time>
  <speed>1.740000</speed>
</trkpt>
<trkpt lat="32.709724426" lon="35.025543213">
  <ele>470.057129</ele>
  <time>2011-10-20T06:38:10Z</time>
  <speed>1.880000</speed>
</trkpt>
<trkpt lat="32.709690094" lon="35.025531769">
  <ele>470.283691</ele>
  <time>2011-10-20T06:38:12Z</time>
  <speed>1.640000</speed>
</trkpt>
<trkpt lat="32.709655762" lon="35.025531769">
  <ele>470.955566</ele>
  <time>2011-10-20T06:38:14Z</time>
  <speed>1.680000</speed>
</trkpt>
<trkpt lat="32.709629059" lon="35.025527954">
  <ele>471.119629</ele>
  <time>2011-10-20T06:38:16Z</time>
  <speed>1.640000</speed>
</trkpt>
<trkpt lat="32.709590912" lon="35.025531769">
  <ele>471.744629</ele>
  <time>2011-10-20T06:38:19Z</time>
  <speed>1.440000</speed>
</trkpt>
<trkpt lat="32.709556580" lon="35.025535583">
  <ele>471.400879</ele>
  <time>2011-10-20T06:38:21Z</time>
  <speed>1.880000</speed>
</trkpt>
<trkpt lat="32.709518433" lon="35.025558472">
  <ele>470.963379</ele>
  <time>2011-10-20T06:38:24Z</time>
  <speed>1.390000</speed>
</trkpt>
<trkpt lat="32.709487915" lon="35.025569916">
  <ele>471.283691</ele>
  <time>2011-10-20T06:38:26Z</time>
  <speed>1.740000</speed>
</trkpt>
<trkpt lat="32.709449768" lon="35.025577545">
  <ele>471.432129</ele>
  <time>2011-10-20T06:38:28Z</time>
  <speed>1.800000</speed>
</trkpt>
<trkpt lat="32.709411621" lon="35.025588989">
  <ele>472.025879</ele>
  <time>2011-10-20T06:38:30Z</time>
  <speed>1.640000</speed>
</trkpt>
<trkpt lat="32.709377289" lon="35.025588989">
  <ele>472.479004</ele>
  <time>2011-10-20T06:38:33Z</time>
  <speed>1.500000</speed>
</trkpt>
<trkpt lat="32.709342957" lon="35.025604248">
  <ele>473.197754</ele>
  <time>2011-10-20T06:38:36Z</time>
  <speed>1.190000</speed>
</trkpt>
<trkpt lat="32.709312439" lon="35.025615692">
  <ele>473.104004</ele>
  <time>2011-10-20T06:38:39Z</time>
  <speed>1.260000</speed>
</trkpt>
<trkpt lat="32.709281921" lon="35.025623322">
  <ele>473.400879</ele>
  <time>2011-10-20T06:38:42Z</time>
  <speed>1.460000</speed>
</trkpt>
<trkpt lat="32.709247589" lon="35.025623322">
  <ele>473.799316</ele>
  <time>2011-10-20T06:38:45Z</time>
  <speed>1.400000</speed>
</trkpt>
<trkpt lat="32.709220886" lon="35.025627136">
  <ele>473.572754</ele>
  <time>2011-10-20T06:38:47Z</time>
  <speed>1.070000</speed>
</trkpt>
<trkpt lat="32.709178925" lon="35.025619507">
  <ele>474.088379</ele>
  <time>2011-10-20T06:38:50Z</time>
  <speed>1.260000</speed>
</trkpt>
<trkpt lat="32.709148407" lon="35.025638580">
  <ele>474.689941</ele>
  <time>2011-10-20T06:38:53Z</time>
  <speed>0.960000</speed>
</trkpt>
<trkpt lat="32.709117889" lon="35.025653839">
  <ele>475.807129</ele>
  <time>2011-10-20T06:38:56Z</time>
  <speed>1.070000</speed>
</trkpt>
<trkpt lat="32.709091187" lon="35.025672913">
  <ele>476.135254</ele>
  <time>2011-10-20T06:38:58Z</time>
  <speed>0.980000</speed>
</trkpt>
<trkpt lat="32.709060669" lon="35.025695801">
  <ele>476.268066</ele>
  <time>2011-10-20T06:39:01Z</time>
  <speed>1.170000</speed>
</trkpt>
<trkpt lat="32.709045410" lon="35.025722504">
  <ele>477.510254</ele>
  <time>2011-10-20T06:39:04Z</time>
  <speed>1.170000</speed>
</trkpt>
<trkpt lat="32.709037781" lon="35.025764465">
  <ele>478.033691</ele>
  <time>2011-10-20T06:39:07Z</time>
  <speed>0.910000</speed>
</trkpt>
<trkpt lat="32.709033966" lon="35.025810242">
  <ele>477.580566</ele>
  <time>2011-10-20T06:39:12Z</time>
  <speed>1.040000</speed>
</trkpt>
<trkpt lat="32.709053040" lon="35.025848389">
  <ele>478.627441</ele>
  <time>2011-10-20T06:39:15Z</time>
  <speed>1.140000</speed>
</trkpt>
<trkpt lat="32.709060669" lon="35.025878906">
  <ele>478.979004</ele>
  <time>2011-10-20T06:39:18Z</time>
  <speed>0.380000</speed>
</trkpt>
<trkpt lat="32.709033966" lon="35.025871277">
  <ele>479.814941</ele>
  <time>2011-10-20T06:39:51Z</time>
  <speed>0.350000</speed>
</trkpt>
<trkpt lat="32.709007263" lon="35.025871277">
  <ele>481.205566</ele>
  <time>2011-10-20T06:43:51Z</time>
</trkpt>
<trkpt lat="32.709033966" lon="35.025848389">
  <ele>481.893066</ele>
  <time>2011-10-20T06:47:32Z</time>
  <speed>0.080000</speed>
</trkpt>
<trkpt lat="32.709033966" lon="35.025810242">
  <ele>482.619629</ele>
  <time>2011-10-20T06:48:18Z</time>
  <speed>1.470000</speed>
</trkpt>
<trkpt lat="32.709030151" lon="35.025764465">
  <ele>482.643066</ele>
  <time>2011-10-20T06:48:20Z</time>
  <speed>2.020000</speed>
</trkpt>
<trkpt lat="32.709026337" lon="35.025703430">
  <ele>482.494629</ele>
  <time>2011-10-20T06:48:22Z</time>
  <speed>3.320000</speed>
</trkpt>
<trkpt lat="32.709033966" lon="35.025657654">
  <ele>482.385254</ele>
  <time>2011-10-20T06:48:23Z</time>
  <speed>3.800000</speed>
</trkpt>
<trkpt lat="32.709037781" lon="35.025619507">
  <ele>481.346191</ele>
  <time>2011-10-20T06:48:24Z</time>
  <speed>3.860000</speed>
</trkpt>
<trkpt lat="32.709045410" lon="35.025573730">
  <ele>480.939941</ele>
  <time>2011-10-20T06:48:25Z</time>
  <speed>4.390000</speed>
</trkpt>
<trkpt lat="32.709049225" lon="35.025516510">
  <ele>481.057129</ele>
  <time>2011-10-20T06:48:26Z</time>
  <speed>5.280000</speed>
</trkpt>
<trkpt lat="32.709056854" lon="35.025459290">
  <ele>480.986816</ele>
  <time>2011-10-20T06:48:27Z</time>
  <speed>5.160000</speed>
</trkpt>
<trkpt lat="32.709072113" lon="35.025413513">
  <ele>480.346191</ele>
  <time>2011-10-20T06:48:28Z</time>
  <speed>4.370000</speed>
</trkpt>
<trkpt lat="32.709102631" lon="35.025382996">
  <ele>480.143066</ele>
  <time>2011-10-20T06:48:29Z</time>
  <speed>4.690000</speed>
</trkpt>
<trkpt lat="32.709136963" lon="35.025375366">
  <ele>479.424316</ele>
  <time>2011-10-20T06:48:30Z</time>
  <speed>3.390000</speed>
</trkpt>
<trkpt lat="32.709156036" lon="35.025360107">
  <ele>478.768066</ele>
  <time>2011-10-20T06:48:31Z</time>
  <speed>2.960000</speed>
</trkpt>
<trkpt lat="32.709167480" lon="35.025329590">
  <ele>477.689941</ele>
  <time>2011-10-20T06:48:32Z</time>
  <speed>3.070000</speed>
</trkpt>
<trkpt lat="32.709182739" lon="35.025302887">
  <ele>477.322754</ele>
  <time>2011-10-20T06:48:33Z</time>
  <speed>3.520000</speed>
</trkpt>
<trkpt lat="32.709201813" lon="35.025264740">
  <ele>477.627441</ele>
  <time>2011-10-20T06:48:34Z</time>
  <speed>3.610000</speed>
</trkpt>
<trkpt lat="32.709205627" lon="35.025218964">
  <ele>478.057129</ele>
  <time>2011-10-20T06:48:35Z</time>
  <speed>3.120000</speed>
</trkpt>
<trkpt lat="32.709213257" lon="35.025184631">
  <ele>477.783691</ele>
  <time>2011-10-20T06:48:36Z</time>
  <speed>2.850000</speed>
</trkpt>
<trkpt lat="32.709213257" lon="35.025131226">
  <ele>477.213379</ele>
  <time>2011-10-20T06:48:38Z</time>
  <speed>2.440000</speed>
</trkpt>
<trkpt lat="32.709205627" lon="35.025096893">
  <ele>476.908691</ele>
  <time>2011-10-20T06:48:40Z</time>
  <speed>0.550000</speed>
</trkpt>
<trkpt lat="32.709201813" lon="35.025054932">
  <ele>477.752441</ele>
  <time>2011-10-20T06:48:55Z</time>
  <speed>1.910000</speed>
</trkpt>
<trkpt lat="32.709194183" lon="35.025016785">
  <ele>476.666504</ele>
  <time>2011-10-20T06:48:57Z</time>
  <speed>1.850000</speed>
</trkpt>
<trkpt lat="32.709194183" lon="35.024974823">
  <ele>475.955566</ele>
  <time>2011-10-20T06:48:59Z</time>
  <speed>1.380000</speed>
</trkpt>
<trkpt lat="32.709213257" lon="35.024932861">
  <ele>474.775879</ele>
  <time>2011-10-20T06:49:02Z</time>
  <speed>1.100000</speed>
</trkpt>
<trkpt lat="32.709224701" lon="35.024894714">
  <ele>474.307129</ele>
  <time>2011-10-20T06:49:06Z</time>
  <speed>0.490000</speed>
</trkpt>
<trkpt lat="32.709224701" lon="35.024856567">
  <ele>473.260254</ele>
  <time>2011-10-20T06:49:11Z</time>
  <speed>1.400000</speed>
</trkpt>
<trkpt lat="32.709236145" lon="35.024818420">
  <ele>472.338379</ele>
  <time>2011-10-20T06:49:13Z</time>
  <speed>2.420000</speed>
</trkpt>
<trkpt lat="32.709266663" lon="35.024765015">
  <ele>472.072754</ele>
  <time>2011-10-20T06:49:15Z</time>
  <speed>2.890000</speed>
</trkpt>
<trkpt lat="32.709300995" lon="35.024723053">
  <ele>471.182129</ele>
  <time>2011-10-20T06:49:17Z</time>
  <speed>2.810000</speed>
</trkpt>
<trkpt lat="32.709331512" lon="35.024696350">
  <ele>470.135254</ele>
  <time>2011-10-20T06:49:19Z</time>
  <speed>1.930000</speed>
</trkpt>
<trkpt lat="32.709362030" lon="35.024681091">
  <ele>469.861816</ele>
  <time>2011-10-20T06:49:21Z</time>
  <speed>2.080000</speed>
</trkpt>
<trkpt lat="32.709400177" lon="35.024646759">
  <ele>469.541504</ele>
  <time>2011-10-20T06:49:23Z</time>
  <speed>2.550000</speed>
</trkpt>
<trkpt lat="32.709426880" lon="35.024642944">
  <ele>468.814941</ele>
  <time>2011-10-20T06:49:24Z</time>
  <speed>2.940000</speed>
</trkpt>
<trkpt lat="32.709453583" lon="35.024631500">
  <ele>468.041504</ele>
  <time>2011-10-20T06:49:25Z</time>
  <speed>2.550000</speed>
</trkpt>
<trkpt lat="32.709476471" lon="35.024631500">
  <ele>466.877441</ele>
  <time>2011-10-20T06:49:26Z</time>
  <speed>2.710000</speed>
</trkpt>
<trkpt lat="32.709518433" lon="35.024608612">
  <ele>464.666504</ele>
  <time>2011-10-20T06:49:28Z</time>
  <speed>2.140000</speed>
</trkpt>
<trkpt lat="32.709533691" lon="35.024562836">
  <ele>463.760254</ele>
  <time>2011-10-20T06:49:30Z</time>
  <speed>2.630000</speed>
</trkpt>
<trkpt lat="32.709541321" lon="35.024520874">
  <ele>463.275879</ele>
  <time>2011-10-20T06:49:31Z</time>
  <speed>3.310000</speed>
</trkpt>
<trkpt lat="32.709548950" lon="35.024475098">
  <ele>463.080566</ele>
  <time>2011-10-20T06:49:32Z</time>
  <speed>3.820000</speed>
</trkpt>
<trkpt lat="32.709560394" lon="35.024433136">
  <ele>462.986816</ele>
  <time>2011-10-20T06:49:33Z</time>
  <speed>3.360000</speed>
</trkpt>
<trkpt lat="32.709571838" lon="35.024394989">
  <ele>462.221191</ele>
  <time>2011-10-20T06:49:34Z</time>
  <speed>3.390000</speed>
</trkpt>
<trkpt lat="32.709571838" lon="35.024364471">
  <ele>461.486816</ele>
  <time>2011-10-20T06:49:35Z</time>
  <speed>3.080000</speed>
</trkpt>
<trkpt lat="32.709575653" lon="35.024326324">
  <ele>461.025879</ele>
  <time>2011-10-20T06:49:36Z</time>
  <speed>3.590000</speed>
</trkpt>
<trkpt lat="32.709579468" lon="35.024272919">
  <ele>461.486816</ele>
  <time>2011-10-20T06:49:37Z</time>
  <speed>4.030000</speed>
</trkpt>
<trkpt lat="32.709583282" lon="35.024219513">
  <ele>462.096191</ele>
  <time>2011-10-20T06:49:38Z</time>
  <speed>4.180000</speed>
</trkpt>
<trkpt lat="32.709594727" lon="35.024177551">
  <ele>461.885254</ele>
  <time>2011-10-20T06:49:39Z</time>
  <speed>4.310000</speed>
</trkpt>
<trkpt lat="32.709609985" lon="35.024135590">
  <ele>461.439941</ele>
  <time>2011-10-20T06:49:40Z</time>
  <speed>4.460000</speed>
</trkpt>
<trkpt lat="32.709632874" lon="35.024093628">
  <ele>460.830566</ele>
  <time>2011-10-20T06:49:41Z</time>
  <speed>4.360000</speed>
</trkpt>
<trkpt lat="32.709648132" lon="35.024047852">
  <ele>460.354004</ele>
  <time>2011-10-20T06:49:42Z</time>
  <speed>3.830000</speed>
</trkpt>
<trkpt lat="32.709667206" lon="35.024005890">
  <ele>460.080566</ele>
  <time>2011-10-20T06:49:43Z</time>
  <speed>4.070000</speed>
</trkpt>
<trkpt lat="32.709678650" lon="35.023963928">
  <ele>460.002441</ele>
  <time>2011-10-20T06:49:44Z</time>
  <speed>3.500000</speed>
</trkpt>
<trkpt lat="32.709690094" lon="35.023929596">
  <ele>459.494629</ele>
  <time>2011-10-20T06:49:45Z</time>
  <speed>3.160000</speed>
</trkpt>
<trkpt lat="32.709697723" lon="35.023891449">
  <ele>459.877441</ele>
  <time>2011-10-20T06:49:46Z</time>
  <speed>3.380000</speed>
</trkpt>
<trkpt lat="32.709709167" lon="35.023857117">
  <ele>459.283691</ele>
  <time>2011-10-20T06:49:47Z</time>
  <speed>3.640000</speed>
</trkpt>
<trkpt lat="32.709724426" lon="35.023818970">
  <ele>459.104004</ele>
  <time>2011-10-20T06:49:48Z</time>
  <speed>4.180000</speed>
</trkpt>
<trkpt lat="32.709743500" lon="35.023780823">
  <ele>458.893066</ele>
  <time>2011-10-20T06:49:49Z</time>
  <speed>3.890000</speed>
</trkpt>
<trkpt lat="32.709766388" lon="35.023754120">
  <ele>457.713379</ele>
  <time>2011-10-20T06:49:50Z</time>
  <speed>3.970000</speed>
</trkpt>
<trkpt lat="32.709789276" lon="35.023719788">
  <ele>457.057129</ele>
  <time>2011-10-20T06:49:51Z</time>
  <speed>4.060000</speed>
</trkpt>
<trkpt lat="32.709808350" lon="35.023677826">
  <ele>456.814941</ele>
  <time>2011-10-20T06:49:52Z</time>
  <speed>4.080000</speed>
</trkpt>
<trkpt lat="32.709823608" lon="35.023635864">
  <ele>456.564941</ele>
  <time>2011-10-20T06:49:53Z</time>
  <speed>3.910000</speed>
</trkpt>
<trkpt lat="32.709846497" lon="35.023597717">
  <ele>456.760254</ele>
  <time>2011-10-20T06:49:54Z</time>
  <speed>3.980000</speed>
</trkpt>
<trkpt lat="32.709865570" lon="35.023559570">
  <ele>456.213379</ele>
  <time>2011-10-20T06:49:55Z</time>
  <speed>3.950000</speed>
</trkpt>
<trkpt lat="32.709884644" lon="35.023513794">
  <ele>456.494629</ele>
  <time>2011-10-20T06:49:56Z</time>
  <speed>3.930000</speed>
</trkpt>
<trkpt lat="32.709888458" lon="35.023468018">
  <ele>456.689941</ele>
  <time>2011-10-20T06:49:57Z</time>
  <speed>3.750000</speed>
</trkpt>
<trkpt lat="32.709888458" lon="35.023429871">
  <ele>455.900879</ele>
  <time>2011-10-20T06:49:58Z</time>
  <speed>3.150000</speed>
</trkpt>
<trkpt lat="32.709880829" lon="35.023395538">
  <ele>455.064941</ele>
  <time>2011-10-20T06:49:59Z</time>
  <speed>2.740000</speed>
</trkpt>
<trkpt lat="32.709884644" lon="35.023334503">
  <ele>454.768066</ele>
  <time>2011-10-20T06:50:01Z</time>
  <speed>2.690000</speed>
</trkpt>
<trkpt lat="32.709888458" lon="35.023303986">
  <ele>454.361816</ele>
  <time>2011-10-20T06:50:02Z</time>
  <speed>2.760000</speed>
</trkpt>
<trkpt lat="32.709899902" lon="35.023269653">
  <ele>454.338379</ele>
  <time>2011-10-20T06:50:03Z</time>
  <speed>3.030000</speed>
</trkpt>
<trkpt lat="32.709911346" lon="35.023216248">
  <ele>456.658691</ele>
  <time>2011-10-20T06:50:04Z</time>
  <speed>3.490000</speed>
</trkpt>
<trkpt lat="32.709922791" lon="35.023170471">
  <ele>458.096191</ele>
  <time>2011-10-20T06:50:05Z</time>
  <speed>3.210000</speed>
</trkpt>
<trkpt lat="32.709926605" lon="35.023136139">
  <ele>458.557129</ele>
  <time>2011-10-20T06:50:06Z</time>
  <speed>2.620000</speed>
</trkpt>
<trkpt lat="32.709934235" lon="35.023105621">
  <ele>458.799316</ele>
  <time>2011-10-20T06:50:07Z</time>
  <speed>2.990000</speed>
</trkpt>
<trkpt lat="32.709957123" lon="35.023040771">
  <ele>458.119629</ele>
  <time>2011-10-20T06:50:09Z</time>
  <speed>3.430000</speed>
</trkpt>
<trkpt lat="32.709960938" lon="35.023002625">
  <ele>457.643066</ele>
  <time>2011-10-20T06:50:10Z</time>
  <speed>3.490000</speed>
</trkpt>
<trkpt lat="32.709964752" lon="35.022964478">
  <ele>456.861816</ele>
  <time>2011-10-20T06:50:11Z</time>
  <speed>4.060000</speed>
</trkpt>
<trkpt lat="32.709983826" lon="35.022926331">
  <ele>456.330566</ele>
  <time>2011-10-20T06:50:12Z</time>
  <speed>4.030000</speed>
</trkpt>
<trkpt lat="32.710018158" lon="35.022918701">
  <ele>455.150879</ele>
  <time>2011-10-20T06:50:13Z</time>
  <speed>3.690000</speed>
</trkpt>
<trkpt lat="32.710048676" lon="35.022907257">
  <ele>454.385254</ele>
  <time>2011-10-20T06:50:14Z</time>
  <speed>3.720000</speed>
</trkpt>
<trkpt lat="32.710083008" lon="35.022884369">
  <ele>454.393066</ele>
  <time>2011-10-20T06:50:15Z</time>
  <speed>4.050000</speed>
</trkpt>
<trkpt lat="32.710113525" lon="35.022853851">
  <ele>454.729004</ele>
  <time>2011-10-20T06:50:16Z</time>
  <speed>3.870000</speed>
</trkpt>
<trkpt lat="32.710132599" lon="35.022819519">
  <ele>454.439941</ele>
  <time>2011-10-20T06:50:17Z</time>
  <speed>3.330000</speed>
</trkpt>
<trkpt lat="32.710144043" lon="35.022785187">
  <ele>454.049316</ele>
  <time>2011-10-20T06:50:18Z</time>
  <speed>2.910000</speed>
</trkpt>
<trkpt lat="32.710155487" lon="35.022754669">
  <ele>454.533691</ele>
  <time>2011-10-20T06:50:19Z</time>
  <speed>2.920000</speed>
</trkpt>
<trkpt lat="32.710170746" lon="35.022720337">
  <ele>455.627441</ele>
  <time>2011-10-20T06:50:20Z</time>
  <speed>2.920000</speed>
</trkpt>
<trkpt lat="32.710189819" lon="35.022689819">
  <ele>455.619629</ele>
  <time>2011-10-20T06:50:21Z</time>
  <speed>3.190000</speed>
</trkpt>
<trkpt lat="32.710208893" lon="35.022663116">
  <ele>454.377441</ele>
  <time>2011-10-20T06:50:22Z</time>
  <speed>2.640000</speed>
</trkpt>
<trkpt lat="32.710247040" lon="35.022640228">
  <ele>453.697754</ele>
  <time>2011-10-20T06:50:24Z</time>
  <speed>1.570000</speed>
</trkpt>
<trkpt lat="32.710269928" lon="35.022624969">
  <ele>453.877441</ele>
  <time>2011-10-20T06:50:27Z</time>
  <speed>0.220000</speed>
</trkpt>
<trkpt lat="32.710300446" lon="35.022636414">
  <ele>454.041504</ele>
  <time>2011-10-20T06:50:46Z</time>
  <speed>1.970000</speed>
</trkpt>
<trkpt lat="32.710346222" lon="35.022632599">
  <ele>454.674316</ele>
  <time>2011-10-20T06:50:48Z</time>
  <speed>3.260000</speed>
</trkpt>
<trkpt lat="32.710388184" lon="35.022640228">
  <ele>454.400879</ele>
  <time>2011-10-20T06:50:49Z</time>
  <speed>4.660000</speed>
</trkpt>
<trkpt lat="32.710433960" lon="35.022644043">
  <ele>453.846191</ele>
  <time>2011-10-20T06:50:50Z</time>
  <speed>4.900000</speed>
</trkpt>
<trkpt lat="32.710483551" lon="35.022647858">
  <ele>453.822754</ele>
  <time>2011-10-20T06:50:51Z</time>
  <speed>5.300000</speed>
</trkpt>
<trkpt lat="32.710533142" lon="35.022640228">
  <ele>453.861816</ele>
  <time>2011-10-20T06:50:52Z</time>
  <speed>5.440000</speed>
</trkpt>
<trkpt lat="32.710586548" lon="35.022628784">
  <ele>454.236816</ele>
  <time>2011-10-20T06:50:53Z</time>
  <speed>5.850000</speed>
</trkpt>
<trkpt lat="32.710639954" lon="35.022605896">
  <ele>453.557129</ele>
  <time>2011-10-20T06:50:54Z</time>
  <speed>6.190000</speed>
</trkpt>
<trkpt lat="32.710693359" lon="35.022579193">
  <ele>452.580566</ele>
  <time>2011-10-20T06:50:55Z</time>
  <speed>6.120000</speed>
</trkpt>
<trkpt lat="32.710746765" lon="35.022552490">
  <ele>452.244629</ele>
  <time>2011-10-20T06:50:56Z</time>
  <speed>5.710000</speed>
</trkpt>
<trkpt lat="32.710796356" lon="35.022529602">
  <ele>452.885254</ele>
  <time>2011-10-20T06:50:57Z</time>
  <speed>5.500000</speed>
</trkpt>
<trkpt lat="32.710845947" lon="35.022499084">
  <ele>452.635254</ele>
  <time>2011-10-20T06:50:58Z</time>
  <speed>5.470000</speed>
</trkpt>
<trkpt lat="32.710891724" lon="35.022472382">
  <ele>451.010254</ele>
  <time>2011-10-20T06:50:59Z</time>
  <speed>5.240000</speed>
</trkpt>
<trkpt lat="32.710933685" lon="35.022445679">
  <ele>450.096191</ele>
  <time>2011-10-20T06:51:00Z</time>
  <speed>4.810000</speed>
</trkpt>
<trkpt lat="32.710975647" lon="35.022422791">
  <ele>449.393066</ele>
  <time>2011-10-20T06:51:01Z</time>
  <speed>4.870000</speed>
</trkpt>
<trkpt lat="32.711013794" lon="35.022396088">
  <ele>448.486816</ele>
  <time>2011-10-20T06:51:02Z</time>
  <speed>5.140000</speed>
</trkpt>
<trkpt lat="32.711059570" lon="35.022373199">
  <ele>448.111816</ele>
  <time>2011-10-20T06:51:03Z</time>
  <speed>5.200000</speed>
</trkpt>
<trkpt lat="32.711105347" lon="35.022346497">
  <ele>447.025879</ele>
  <time>2011-10-20T06:51:04Z</time>
  <speed>5.650000</speed>
</trkpt>
<trkpt lat="32.711151123" lon="35.022315979">
  <ele>447.057129</ele>
  <time>2011-10-20T06:51:05Z</time>
  <speed>5.560000</speed>
</trkpt>
<trkpt lat="32.711193085" lon="35.022281647">
  <ele>446.455566</ele>
  <time>2011-10-20T06:51:06Z</time>
  <speed>5.720000</speed>
</trkpt>
<trkpt lat="32.711235046" lon="35.022243500">
  <ele>445.627441</ele>
  <time>2011-10-20T06:51:07Z</time>
  <speed>5.630000</speed>
</trkpt>
<trkpt lat="32.711265564" lon="35.022193909">
  <ele>444.822754</ele>
  <time>2011-10-20T06:51:08Z</time>
  <speed>4.790000</speed>
</trkpt>
<trkpt lat="32.711280823" lon="35.022132874">
  <ele>444.588379</ele>
  <time>2011-10-20T06:51:09Z</time>
  <speed>5.130000</speed>
</trkpt>
<trkpt lat="32.711296082" lon="35.022075653">
  <ele>444.611816</ele>
  <time>2011-10-20T06:51:10Z</time>
  <speed>5.450000</speed>
</trkpt>
<trkpt lat="32.711322784" lon="35.022014618">
  <ele>444.221191</ele>
  <time>2011-10-20T06:51:11Z</time>
  <speed>5.390000</speed>
</trkpt>
<trkpt lat="32.711353302" lon="35.021965027">
  <ele>443.947754</ele>
  <time>2011-10-20T06:51:12Z</time>
  <speed>5.440000</speed>
</trkpt>
<trkpt lat="32.711380005" lon="35.021911621">
  <ele>444.088379</ele>
  <time>2011-10-20T06:51:13Z</time>
  <speed>5.220000</speed>
</trkpt>
<trkpt lat="32.711402893" lon="35.021858215">
  <ele>444.010254</ele>
  <time>2011-10-20T06:51:14Z</time>
  <speed>5.090000</speed>
</trkpt>
<trkpt lat="32.711421967" lon="35.021812439">
  <ele>443.408691</ele>
  <time>2011-10-20T06:51:15Z</time>
  <speed>4.710000</speed>
</trkpt>
<trkpt lat="32.711444855" lon="35.021770477">
  <ele>441.877441</ele>
  <time>2011-10-20T06:51:16Z</time>
  <speed>4.880000</speed>
</trkpt>
<trkpt lat="32.711460114" lon="35.021720886">
  <ele>440.814941</ele>
  <time>2011-10-20T06:51:17Z</time>
  <speed>4.040000</speed>
</trkpt>
<trkpt lat="32.711471558" lon="35.021675110">
  <ele>440.510254</ele>
  <time>2011-10-20T06:51:18Z</time>
  <speed>3.450000</speed>
</trkpt>
<trkpt lat="32.711486816" lon="35.021644592">
  <ele>439.908691</ele>
  <time>2011-10-20T06:51:19Z</time>
  <speed>2.720000</speed>
</trkpt>
<trkpt lat="32.711505890" lon="35.021617889">
  <ele>439.033691</ele>
  <time>2011-10-20T06:51:20Z</time>
  <speed>2.980000</speed>
</trkpt>
<trkpt lat="32.711517334" lon="35.021587372">
  <ele>437.713379</ele>
  <time>2011-10-20T06:51:22Z</time>
  <speed>1.690000</speed>
</trkpt>
<trkpt lat="32.711505890" lon="35.021530151">
  <ele>436.025879</ele>
  <time>2011-10-20T06:51:24Z</time>
  <speed>3.180000</speed>
</trkpt>
<trkpt lat="32.711509705" lon="35.021495819">
  <ele>435.471191</ele>
  <time>2011-10-20T06:51:25Z</time>
  <speed>2.460000</speed>
</trkpt>
<trkpt lat="32.711547852" lon="35.021465302">
  <ele>434.666504</ele>
  <time>2011-10-20T06:51:27Z</time>
  <speed>3.260000</speed>
</trkpt>
<trkpt lat="32.711578369" lon="35.021450043">
  <ele>433.299316</ele>
  <time>2011-10-20T06:51:28Z</time>
  <speed>3.890000</speed>
</trkpt>
<trkpt lat="32.711612701" lon="35.021427155">
  <ele>432.955566</ele>
  <time>2011-10-20T06:51:29Z</time>
  <speed>3.840000</speed>
</trkpt>
<trkpt lat="32.711647034" lon="35.021396637">
  <ele>432.439941</ele>
  <time>2011-10-20T06:51:30Z</time>
  <speed>5.410000</speed>
</trkpt>
<trkpt lat="32.711685181" lon="35.021339417">
  <ele>431.541504</ele>
  <time>2011-10-20T06:51:31Z</time>
  <speed>6.380000</speed>
</trkpt>
<trkpt lat="32.711715698" lon="35.021282196">
  <ele>430.596191</ele>
  <time>2011-10-20T06:51:32Z</time>
  <speed>6.170000</speed>
</trkpt>
<trkpt lat="32.711750031" lon="35.021221161">
  <ele>429.564941</ele>
  <time>2011-10-20T06:51:33Z</time>
  <speed>6.330000</speed>
</trkpt>
<trkpt lat="32.711788177" lon="35.021183014">
  <ele>427.775879</ele>
  <time>2011-10-20T06:51:34Z</time>
  <speed>4.740000</speed>
</trkpt>
<trkpt lat="32.711822510" lon="35.021144867">
  <ele>426.150879</ele>
  <time>2011-10-20T06:51:35Z</time>
  <speed>4.780000</speed>
</trkpt>
<trkpt lat="32.711849213" lon="35.021099091">
  <ele>424.705566</ele>
  <time>2011-10-20T06:51:36Z</time>
  <speed>5.090000</speed>
</trkpt>
<trkpt lat="32.711879730" lon="35.021060944">
  <ele>424.018066</ele>
  <time>2011-10-20T06:51:37Z</time>
  <speed>4.420000</speed>
</trkpt>
<trkpt lat="32.711906433" lon="35.021026611">
  <ele>423.236816</ele>
  <time>2011-10-20T06:51:38Z</time>
  <speed>3.800000</speed>
</trkpt>
<trkpt lat="32.711925507" lon="35.020999908">
  <ele>422.893066</ele>
  <time>2011-10-20T06:51:39Z</time>
  <speed>2.570000</speed>
</trkpt>
<trkpt lat="32.711940765" lon="35.020961761">
  <ele>422.533691</ele>
  <time>2011-10-20T06:51:41Z</time>
  <speed>1.330000</speed>
</trkpt>
<trkpt lat="32.711940765" lon="35.020931244">
  <ele>422.291504</ele>
  <time>2011-10-20T06:53:53Z</time>
</trkpt>
<trkpt lat="32.711940765" lon="35.020965576">
  <ele>422.580566</ele>
  <time>2011-10-20T06:57:11Z</time>
  <speed>0.380000</speed>
</trkpt>
<trkpt lat="32.711971283" lon="35.020946503">
  <ele>424.604004</ele>
  <time>2011-10-20T06:57:19Z</time>
  <speed>2.300000</speed>
</trkpt>
<trkpt lat="32.712005615" lon="35.020927429">
  <ele>424.221191</ele>
  <time>2011-10-20T06:57:21Z</time>
  <speed>2.490000</speed>
</trkpt>
<trkpt lat="32.712024689" lon="35.020904541">
  <ele>424.314941</ele>
  <time>2011-10-20T06:57:22Z</time>
  <speed>3.220000</speed>
</trkpt>
<trkpt lat="32.712047577" lon="35.020874023">
  <ele>423.572754</ele>
  <time>2011-10-20T06:57:23Z</time>
  <speed>3.480000</speed>
</trkpt>
<trkpt lat="32.712062836" lon="35.020843506">
  <ele>423.283691</ele>
  <time>2011-10-20T06:57:24Z</time>
  <speed>3.550000</speed>
</trkpt>
<trkpt lat="32.712074280" lon="35.020801544">
  <ele>422.377441</ele>
  <time>2011-10-20T06:57:25Z</time>
  <speed>3.900000</speed>
</trkpt>
<trkpt lat="32.712085724" lon="35.020763397">
  <ele>421.697754</ele>
  <time>2011-10-20T06:57:26Z</time>
  <speed>3.580000</speed>
</trkpt>
<trkpt lat="32.712100983" lon="35.020729065">
  <ele>420.447754</ele>
  <time>2011-10-20T06:57:27Z</time>
  <speed>3.540000</speed>
</trkpt>
<trkpt lat="32.712123871" lon="35.020694733">
  <ele>419.885254</ele>
  <time>2011-10-20T06:57:28Z</time>
  <speed>3.990000</speed>
</trkpt>
<trkpt lat="32.712139130" lon="35.020652771">
  <ele>418.971191</ele>
  <time>2011-10-20T06:57:29Z</time>
  <speed>5.030000</speed>
</trkpt>
<trkpt lat="32.712146759" lon="35.020595551">
  <ele>417.986816</ele>
  <time>2011-10-20T06:57:30Z</time>
  <speed>5.010000</speed>
</trkpt>
<trkpt lat="32.712150574" lon="35.020545959">
  <ele>416.705566</ele>
  <time>2011-10-20T06:57:31Z</time>
  <speed>4.710000</speed>
</trkpt>
<trkpt lat="32.712135315" lon="35.020484924">
  <ele>416.119629</ele>
  <time>2011-10-20T06:57:32Z</time>
  <speed>4.380000</speed>
</trkpt>
<trkpt lat="32.712116241" lon="35.020431519">
  <ele>416.088379</ele>
  <time>2011-10-20T06:57:33Z</time>
  <speed>3.610000</speed>
</trkpt>
<trkpt lat="32.712100983" lon="35.020401001">
  <ele>414.385254</ele>
  <time>2011-10-20T06:57:34Z</time>
  <speed>3.210000</speed>
</trkpt>
<trkpt lat="32.712093353" lon="35.020355225">
  <ele>413.729004</ele>
  <time>2011-10-20T06:57:35Z</time>
  <speed>4.690000</speed>
</trkpt>
<trkpt lat="32.712089539" lon="35.020301819">
  <ele>413.455566</ele>
  <time>2011-10-20T06:57:36Z</time>
  <speed>4.790000</speed>
</trkpt>
<trkpt lat="32.712085724" lon="35.020248413">
  <ele>412.182129</ele>
  <time>2011-10-20T06:57:37Z</time>
  <speed>4.970000</speed>
</trkpt>
<trkpt lat="32.712078094" lon="35.020191193">
  <ele>411.393066</ele>
  <time>2011-10-20T06:57:38Z</time>
  <speed>5.230000</speed>
</trkpt>
<trkpt lat="32.712066650" lon="35.020141602">
  <ele>409.752441</ele>
  <time>2011-10-20T06:57:39Z</time>
  <speed>4.940000</speed>
</trkpt>
<trkpt lat="32.712036133" lon="35.020095825">
  <ele>409.424316</ele>
  <time>2011-10-20T06:57:40Z</time>
  <speed>4.690000</speed>
</trkpt>
<trkpt lat="32.712005615" lon="35.020065308">
  <ele>409.025879</ele>
  <time>2011-10-20T06:57:41Z</time>
  <speed>3.980000</speed>
</trkpt>
<trkpt lat="32.711975098" lon="35.020053864">
  <ele>407.768066</ele>
  <time>2011-10-20T06:57:42Z</time>
  <speed>3.120000</speed>
</trkpt>
<trkpt lat="32.711933136" lon="35.020038605">
  <ele>405.799316</ele>
  <time>2011-10-20T06:57:44Z</time>
  <speed>1.980000</speed>
</trkpt>
<trkpt lat="32.711944580" lon="35.019989014">
  <ele>404.307129</ele>
  <time>2011-10-20T06:57:46Z</time>
  <speed>2.740000</speed>
</trkpt>
<trkpt lat="32.711975098" lon="35.019969940">
  <ele>403.908691</ele>
  <time>2011-10-20T06:57:48Z</time>
  <speed>2.430000</speed>
</trkpt>
<trkpt lat="32.712032318" lon="35.019969940">
  <ele>401.650879</ele>
  <time>2011-10-20T06:57:50Z</time>
  <speed>3.350000</speed>
</trkpt>
<trkpt lat="32.712059021" lon="35.019954681">
  <ele>400.939941</ele>
  <time>2011-10-20T06:57:51Z</time>
  <speed>3.200000</speed>
</trkpt>
<trkpt lat="32.712112427" lon="35.019966125">
  <ele>400.791504</ele>
  <time>2011-10-20T06:57:53Z</time>
  <speed>3.870000</speed>
</trkpt>
<trkpt lat="32.712150574" lon="35.019981384">
  <ele>399.721191</ele>
  <time>2011-10-20T06:57:54Z</time>
  <speed>4.090000</speed>
</trkpt>
<trkpt lat="32.712192535" lon="35.019981384">
  <ele>398.932129</ele>
  <time>2011-10-20T06:57:55Z</time>
  <speed>4.820000</speed>
</trkpt>
<trkpt lat="32.712230682" lon="35.019977570">
  <ele>398.221191</ele>
  <time>2011-10-20T06:57:56Z</time>
  <speed>4.660000</speed>
</trkpt>
<trkpt lat="32.712272644" lon="35.019969940">
  <ele>399.166504</ele>
  <time>2011-10-20T06:57:57Z</time>
  <speed>4.260000</speed>
</trkpt>
<trkpt lat="32.712310791" lon="35.019966125">
  <ele>399.338379</ele>
  <time>2011-10-20T06:57:58Z</time>
  <speed>4.010000</speed>
</trkpt>
<trkpt lat="32.712348938" lon="35.019947052">
  <ele>398.580566</ele>
  <time>2011-10-20T06:57:59Z</time>
  <speed>4.380000</speed>
</trkpt>
<trkpt lat="32.712383270" lon="35.019916534">
  <ele>397.541504</ele>
  <time>2011-10-20T06:58:00Z</time>
  <speed>5.120000</speed>
</trkpt>
<trkpt lat="32.712429047" lon="35.019882202">
  <ele>396.275879</ele>
  <time>2011-10-20T06:58:01Z</time>
  <speed>5.450000</speed>
</trkpt>
<trkpt lat="32.712471008" lon="35.019855499">
  <ele>396.322754</ele>
  <time>2011-10-20T06:58:02Z</time>
  <speed>4.920000</speed>
</trkpt>
<trkpt lat="32.712512970" lon="35.019832611">
  <ele>395.752441</ele>
  <time>2011-10-20T06:58:03Z</time>
  <speed>4.450000</speed>
</trkpt>
<trkpt lat="32.712543488" lon="35.019813538">
  <ele>395.049316</ele>
  <time>2011-10-20T06:58:04Z</time>
  <speed>3.020000</speed>
</trkpt>
<trkpt lat="32.712566376" lon="35.019798279">
  <ele>394.096191</ele>
  <time>2011-10-20T06:58:05Z</time>
  <speed>2.500000</speed>
</trkpt>
<trkpt lat="32.712558746" lon="35.019763947">
  <ele>393.291504</ele>
  <time>2011-10-20T06:58:06Z</time>
  <speed>3.090000</speed>
</trkpt>
<trkpt lat="32.712554932" lon="35.019695282">
  <ele>392.580566</ele>
  <time>2011-10-20T06:58:08Z</time>
  <speed>2.680000</speed>
</trkpt>
<trkpt lat="32.712566376" lon="35.019664764">
  <ele>391.564941</ele>
  <time>2011-10-20T06:58:09Z</time>
  <speed>2.450000</speed>
</trkpt>
<trkpt lat="32.712604523" lon="35.019622803">
  <ele>391.314941</ele>
  <time>2011-10-20T06:58:11Z</time>
  <speed>3.930000</speed>
</trkpt>
<trkpt lat="32.712642670" lon="35.019611359">
  <ele>391.471191</ele>
  <time>2011-10-20T06:58:12Z</time>
  <speed>4.190000</speed>
</trkpt>
<trkpt lat="32.712677002" lon="35.019599915">
  <ele>391.018066</ele>
  <time>2011-10-20T06:58:13Z</time>
  <speed>3.980000</speed>
</trkpt>
<trkpt lat="32.712715149" lon="35.019599915">
  <ele>390.674316</ele>
  <time>2011-10-20T06:58:14Z</time>
  <speed>3.920000</speed>
</trkpt>
<trkpt lat="32.712753296" lon="35.019584656">
  <ele>390.088379</ele>
  <time>2011-10-20T06:58:15Z</time>
  <speed>4.520000</speed>
</trkpt>
<trkpt lat="32.712787628" lon="35.019554138">
  <ele>387.947754</ele>
  <time>2011-10-20T06:58:16Z</time>
  <speed>4.720000</speed>
</trkpt>
<trkpt lat="32.712814331" lon="35.019504547">
  <ele>386.760254</ele>
  <time>2011-10-20T06:58:17Z</time>
  <speed>4.910000</speed>
</trkpt>
<trkpt lat="32.712844849" lon="35.019462585">
  <ele>384.721191</ele>
  <time>2011-10-20T06:58:18Z</time>
  <speed>5.080000</speed>
</trkpt>
<trkpt lat="32.712863922" lon="35.019405365">
  <ele>383.838379</ele>
  <time>2011-10-20T06:58:19Z</time>
  <speed>5.460000</speed>
</trkpt>
<trkpt lat="32.712882996" lon="35.019344330">
  <ele>382.838379</ele>
  <time>2011-10-20T06:58:20Z</time>
  <speed>5.600000</speed>
</trkpt>
<trkpt lat="32.712898254" lon="35.019283295">
  <ele>381.260254</ele>
  <time>2011-10-20T06:58:21Z</time>
  <speed>5.540000</speed>
</trkpt>
<trkpt lat="32.712917328" lon="35.019222260">
  <ele>380.611816</ele>
  <time>2011-10-20T06:58:22Z</time>
  <speed>5.360000</speed>
</trkpt>
<trkpt lat="32.712928772" lon="35.019161224">
  <ele>380.080566</ele>
  <time>2011-10-20T06:58:23Z</time>
  <speed>5.530000</speed>
</trkpt>
<trkpt lat="32.712951660" lon="35.019096375">
  <ele>378.807129</ele>
  <time>2011-10-20T06:58:24Z</time>
  <speed>6.400000</speed>
</trkpt>
<trkpt lat="32.712978363" lon="35.019035339">
  <ele>377.814941</ele>
  <time>2011-10-20T06:58:25Z</time>
  <speed>6.470000</speed>
</trkpt>
<trkpt lat="32.713005066" lon="35.018970490">
  <ele>376.674316</ele>
  <time>2011-10-20T06:58:26Z</time>
  <speed>6.750000</speed>
</trkpt>
<trkpt lat="32.713031769" lon="35.018898010">
  <ele>376.143066</ele>
  <time>2011-10-20T06:58:27Z</time>
  <speed>6.920000</speed>
</trkpt>
<trkpt lat="32.713054657" lon="35.018825531">
  <ele>375.861816</ele>
  <time>2011-10-20T06:58:28Z</time>
  <speed>5.960000</speed>
</trkpt>
<trkpt lat="32.713069916" lon="35.018768311">
  <ele>375.439941</ele>
  <time>2011-10-20T06:58:29Z</time>
  <speed>4.780000</speed>
</trkpt>
<trkpt lat="32.713081360" lon="35.018726349">
  <ele>375.299316</ele>
  <time>2011-10-20T06:58:30Z</time>
  <speed>3.180000</speed>
</trkpt>
<trkpt lat="32.713088989" lon="35.018695831">
  <ele>375.150879</ele>
  <time>2011-10-20T06:58:31Z</time>
  <speed>2.250000</speed>
</trkpt>
<trkpt lat="32.713092804" lon="35.018653870">
  <ele>376.721191</ele>
  <time>2011-10-20T06:58:35Z</time>
  <speed>0.220000</speed>
</trkpt>
<trkpt lat="32.713111877" lon="35.018627167">
  <ele>376.979004</ele>
  <time>2011-10-20T07:01:51Z</time>
  <speed>3.360000</speed>
</trkpt>
<trkpt lat="32.713146210" lon="35.018608093">
  <ele>377.322754</ele>
  <time>2011-10-20T07:01:52Z</time>
  <speed>3.980000</speed>
</trkpt>
<trkpt lat="32.713180542" lon="35.018592834">
  <ele>377.283691</ele>
  <time>2011-10-20T07:01:53Z</time>
  <speed>4.670000</speed>
</trkpt>
<trkpt lat="32.713230133" lon="35.018577576">
  <ele>377.377441</ele>
  <time>2011-10-20T07:01:54Z</time>
  <speed>5.250000</speed>
</trkpt>
<trkpt lat="32.713279724" lon="35.018562317">
  <ele>377.447754</ele>
  <time>2011-10-20T07:01:55Z</time>
  <speed>5.350000</speed>
</trkpt>
<trkpt lat="32.713329315" lon="35.018554688">
  <ele>377.158691</ele>
  <time>2011-10-20T07:01:56Z</time>
  <speed>5.420000</speed>
</trkpt>
<trkpt lat="32.713382721" lon="35.018554688">
  <ele>376.658691</ele>
  <time>2011-10-20T07:01:57Z</time>
  <speed>5.540000</speed>
</trkpt>
<trkpt lat="32.713432312" lon="35.018539429">
  <ele>377.049316</ele>
  <time>2011-10-20T07:01:58Z</time>
  <speed>5.380000</speed>
</trkpt>
<trkpt lat="32.713481903" lon="35.018524170">
  <ele>377.752441</ele>
  <time>2011-10-20T07:01:59Z</time>
  <speed>5.370000</speed>
</trkpt>
<trkpt lat="32.713531494" lon="35.018531799">
  <ele>378.166504</ele>
  <time>2011-10-20T07:02:00Z</time>
  <speed>5.400000</speed>
</trkpt>
<trkpt lat="32.713577271" lon="35.018550873">
  <ele>378.635254</ele>
  <time>2011-10-20T07:02:01Z</time>
  <speed>5.500000</speed>
</trkpt>
<trkpt lat="32.713626862" lon="35.018566132">
  <ele>378.877441</ele>
  <time>2011-10-20T07:02:02Z</time>
  <speed>5.700000</speed>
</trkpt>
<trkpt lat="32.713680267" lon="35.018569946">
  <ele>378.893066</ele>
  <time>2011-10-20T07:02:03Z</time>
  <speed>5.700000</speed>
</trkpt>
<trkpt lat="32.713737488" lon="35.018558502">
  <ele>378.143066</ele>
  <time>2011-10-20T07:02:04Z</time>
  <speed>5.960000</speed>
</trkpt>
<trkpt lat="32.713787079" lon="35.018550873">
  <ele>376.447754</ele>
  <time>2011-10-20T07:02:05Z</time>
  <speed>4.690000</speed>
</trkpt>
<trkpt lat="32.713825226" lon="35.018547058">
  <ele>375.736816</ele>
  <time>2011-10-20T07:02:06Z</time>
  <speed>3.750000</speed>
</trkpt>
<trkpt lat="32.713851929" lon="35.018531799">
  <ele>375.479004</ele>
  <time>2011-10-20T07:02:07Z</time>
  <speed>3.570000</speed>
</trkpt>
<trkpt lat="32.713874817" lon="35.018497467">
  <ele>374.377441</ele>
  <time>2011-10-20T07:02:08Z</time>
  <speed>4.490000</speed>
</trkpt>
<trkpt lat="32.713897705" lon="35.018455505">
  <ele>374.486816</ele>
  <time>2011-10-20T07:02:09Z</time>
  <speed>4.210000</speed>
</trkpt>
<trkpt lat="32.713912964" lon="35.018402100">
  <ele>374.252441</ele>
  <time>2011-10-20T07:02:10Z</time>
  <speed>4.610000</speed>
</trkpt>
<trkpt lat="32.713928223" lon="35.018352509">
  <ele>373.346191</ele>
  <time>2011-10-20T07:02:11Z</time>
  <speed>4.530000</speed>
</trkpt>
<trkpt lat="32.713947296" lon="35.018302917">
  <ele>372.666504</ele>
  <time>2011-10-20T07:02:12Z</time>
  <speed>5.230000</speed>
</trkpt>
<trkpt lat="32.713958740" lon="35.018253326">
  <ele>371.338379</ele>
  <time>2011-10-20T07:02:13Z</time>
  <speed>4.460000</speed>
</trkpt>
<trkpt lat="32.713962555" lon="35.018203735">
  <ele>370.416504</ele>
  <time>2011-10-20T07:02:14Z</time>
  <speed>4.650000</speed>
</trkpt>
<trkpt lat="32.713970184" lon="35.018154144">
  <ele>369.299316</ele>
  <time>2011-10-20T07:02:15Z</time>
  <speed>4.630000</speed>
</trkpt>
<trkpt lat="32.713970184" lon="35.018100739">
  <ele>368.768066</ele>
  <time>2011-10-20T07:02:16Z</time>
  <speed>4.510000</speed>
</trkpt>
<trkpt lat="32.713973999" lon="35.018058777">
  <ele>368.447754</ele>
  <time>2011-10-20T07:02:17Z</time>
  <speed>4.590000</speed>
</trkpt>
<trkpt lat="32.713970184" lon="35.018001556">
  <ele>368.596191</ele>
  <time>2011-10-20T07:02:18Z</time>
  <speed>4.310000</speed>
</trkpt>
<trkpt lat="32.713970184" lon="35.017948151">
  <ele>368.682129</ele>
  <time>2011-10-20T07:02:19Z</time>
  <speed>4.590000</speed>
</trkpt>
<trkpt lat="32.713973999" lon="35.017894745">
  <ele>368.424316</ele>
  <time>2011-10-20T07:02:20Z</time>
  <speed>4.890000</speed>
</trkpt>
<trkpt lat="32.713981628" lon="35.017845154">
  <ele>367.752441</ele>
  <time>2011-10-20T07:02:21Z</time>
  <speed>4.990000</speed>
</trkpt>
<trkpt lat="32.714000702" lon="35.017791748">
  <ele>366.541504</ele>
  <time>2011-10-20T07:02:22Z</time>
  <speed>5.450000</speed>
</trkpt>
<trkpt lat="32.714019775" lon="35.017738342">
  <ele>366.049316</ele>
  <time>2011-10-20T07:02:23Z</time>
  <speed>5.390000</speed>
</trkpt>
<trkpt lat="32.714035034" lon="35.017681122">
  <ele>366.338379</ele>
  <time>2011-10-20T07:02:24Z</time>
  <speed>5.170000</speed>
</trkpt>
<trkpt lat="32.714057922" lon="35.017627716">
  <ele>366.557129</ele>
  <time>2011-10-20T07:02:25Z</time>
  <speed>5.220000</speed>
</trkpt>
<trkpt lat="32.714084625" lon="35.017570496">
  <ele>367.166504</ele>
  <time>2011-10-20T07:02:26Z</time>
  <speed>5.600000</speed>
</trkpt>
<trkpt lat="32.714115143" lon="35.017524719">
  <ele>367.369629</ele>
  <time>2011-10-20T07:02:27Z</time>
  <speed>5.440000</speed>
</trkpt>
<trkpt lat="32.714145660" lon="35.017486572">
  <ele>367.025879</ele>
  <time>2011-10-20T07:02:28Z</time>
  <speed>5.400000</speed>
</trkpt>
<trkpt lat="32.714183807" lon="35.017448425">
  <ele>367.486816</ele>
  <time>2011-10-20T07:02:29Z</time>
  <speed>5.530000</speed>
</trkpt>
<trkpt lat="32.714218140" lon="35.017406464">
  <ele>367.924316</ele>
  <time>2011-10-20T07:02:30Z</time>
  <speed>5.140000</speed>
</trkpt>
<trkpt lat="32.714252472" lon="35.017368317">
  <ele>368.518066</ele>
  <time>2011-10-20T07:02:31Z</time>
  <speed>4.330000</speed>
</trkpt>
<trkpt lat="32.714279175" lon="35.017345428">
  <ele>368.244629</ele>
  <time>2011-10-20T07:02:32Z</time>
  <speed>4.140000</speed>
</trkpt>
<trkpt lat="32.714305878" lon="35.017314911">
  <ele>368.963379</ele>
  <time>2011-10-20T07:02:33Z</time>
  <speed>4.540000</speed>
</trkpt>
<trkpt lat="32.714344025" lon="35.017292023">
  <ele>369.525879</ele>
  <time>2011-10-20T07:02:34Z</time>
  <speed>4.690000</speed>
</trkpt>
<trkpt lat="32.714378357" lon="35.017265320">
  <ele>369.986816</ele>
  <time>2011-10-20T07:02:35Z</time>
  <speed>4.630000</speed>
</trkpt>
<trkpt lat="32.714412689" lon="35.017238617">
  <ele>370.471191</ele>
  <time>2011-10-20T07:02:36Z</time>
  <speed>4.160000</speed>
</trkpt>
<trkpt lat="32.714443207" lon="35.017215729">
  <ele>371.143066</ele>
  <time>2011-10-20T07:02:37Z</time>
  <speed>3.390000</speed>
</trkpt>
<trkpt lat="32.714466095" lon="35.017200470">
  <ele>371.588379</ele>
  <time>2011-10-20T07:02:38Z</time>
  <speed>2.840000</speed>
</trkpt>
<trkpt lat="32.714511871" lon="35.017169952">
  <ele>372.182129</ele>
  <time>2011-10-20T07:02:40Z</time>
  <speed>3.040000</speed>
</trkpt>
<trkpt lat="32.714538574" lon="35.017158508">
  <ele>372.650879</ele>
  <time>2011-10-20T07:02:41Z</time>
  <speed>3.320000</speed>
</trkpt>
<trkpt lat="32.714565277" lon="35.017150879">
  <ele>373.479004</ele>
  <time>2011-10-20T07:02:42Z</time>
  <speed>3.330000</speed>
</trkpt>
<trkpt lat="32.714599609" lon="35.017139435">
  <ele>373.744629</ele>
  <time>2011-10-20T07:02:43Z</time>
  <speed>3.520000</speed>
</trkpt>
<trkpt lat="32.714630127" lon="35.017124176">
  <ele>373.877441</ele>
  <time>2011-10-20T07:02:44Z</time>
  <speed>3.110000</speed>
</trkpt>
<trkpt lat="32.714653015" lon="35.017112732">
  <ele>373.744629</ele>
  <time>2011-10-20T07:02:45Z</time>
  <speed>3.350000</speed>
</trkpt>
<trkpt lat="32.714687347" lon="35.017089844">
  <ele>373.705566</ele>
  <time>2011-10-20T07:02:46Z</time>
  <speed>4.040000</speed>
</trkpt>
<trkpt lat="32.714717865" lon="35.017059326">
  <ele>373.627441</ele>
  <time>2011-10-20T07:02:47Z</time>
  <speed>4.090000</speed>
</trkpt>
<trkpt lat="32.714748383" lon="35.017040253">
  <ele>373.830566</ele>
  <time>2011-10-20T07:02:48Z</time>
  <speed>3.800000</speed>
</trkpt>
<trkpt lat="32.714797974" lon="35.017002106">
  <ele>373.291504</ele>
  <time>2011-10-20T07:02:50Z</time>
  <speed>3.870000</speed>
</trkpt>
<trkpt lat="32.714832306" lon="35.016979218">
  <ele>373.205566</ele>
  <time>2011-10-20T07:02:51Z</time>
  <speed>3.990000</speed>
</trkpt>
<trkpt lat="32.714859009" lon="35.016960144">
  <ele>373.338379</ele>
  <time>2011-10-20T07:02:52Z</time>
  <speed>3.960000</speed>
</trkpt>
<trkpt lat="32.714881897" lon="35.016933441">
  <ele>373.596191</ele>
  <time>2011-10-20T07:02:53Z</time>
  <speed>3.260000</speed>
</trkpt>
<trkpt lat="32.714908600" lon="35.016906738">
  <ele>373.611816</ele>
  <time>2011-10-20T07:02:54Z</time>
  <speed>4.010000</speed>
</trkpt>
<trkpt lat="32.714927673" lon="35.016876221">
  <ele>374.174316</ele>
  <time>2011-10-20T07:02:55Z</time>
  <speed>3.750000</speed>
</trkpt>
<trkpt lat="32.714950562" lon="35.016849518">
  <ele>373.893066</ele>
  <time>2011-10-20T07:02:56Z</time>
  <speed>3.850000</speed>
</trkpt>
<trkpt lat="32.714981079" lon="35.016819000">
  <ele>373.611816</ele>
  <time>2011-10-20T07:02:57Z</time>
  <speed>3.890000</speed>
</trkpt>
<trkpt lat="32.715003967" lon="35.016784668">
  <ele>374.158691</ele>
  <time>2011-10-20T07:02:58Z</time>
  <speed>3.430000</speed>
</trkpt>
<trkpt lat="32.715026855" lon="35.016750336">
  <ele>374.377441</ele>
  <time>2011-10-20T07:02:59Z</time>
  <speed>3.290000</speed>
</trkpt>
<trkpt lat="32.715045929" lon="35.016719818">
  <ele>374.885254</ele>
  <time>2011-10-20T07:03:00Z</time>
  <speed>3.290000</speed>
</trkpt>
<trkpt lat="32.715053558" lon="35.016681671">
  <ele>375.354004</ele>
  <time>2011-10-20T07:03:01Z</time>
  <speed>3.220000</speed>
</trkpt>
<trkpt lat="32.715057373" lon="35.016624451">
  <ele>375.986816</ele>
  <time>2011-10-20T07:03:02Z</time>
  <speed>3.370000</speed>
</trkpt>
<trkpt lat="32.715045929" lon="35.016578674">
  <ele>376.346191</ele>
  <time>2011-10-20T07:03:03Z</time>
  <speed>3.390000</speed>
</trkpt>
<trkpt lat="32.715026855" lon="35.016532898">
  <ele>376.869629</ele>
  <time>2011-10-20T07:03:04Z</time>
  <speed>3.350000</speed>
</trkpt>
<trkpt lat="32.715003967" lon="35.016506195">
  <ele>376.822754</ele>
  <time>2011-10-20T07:03:05Z</time>
  <speed>3.050000</speed>
</trkpt>
<trkpt lat="32.714977264" lon="35.016464233">
  <ele>377.744629</ele>
  <time>2011-10-20T07:03:06Z</time>
  <speed>2.970000</speed>
</trkpt>
<trkpt lat="32.714958191" lon="35.016441345">
  <ele>376.588379</ele>
  <time>2011-10-20T07:03:07Z</time>
  <speed>3.060000</speed>
</trkpt>
<trkpt lat="32.714942932" lon="35.016410828">
  <ele>376.760254</ele>
  <time>2011-10-20T07:03:08Z</time>
  <speed>3.110000</speed>
</trkpt>
<trkpt lat="32.714920044" lon="35.016380310">
  <ele>376.947754</ele>
  <time>2011-10-20T07:03:09Z</time>
  <speed>2.980000</speed>
</trkpt>
<trkpt lat="32.714878082" lon="35.016365051">
  <ele>375.182129</ele>
  <time>2011-10-20T07:03:11Z</time>
  <speed>3.310000</speed>
</trkpt>
<trkpt lat="32.714843750" lon="35.016372681">
  <ele>374.432129</ele>
  <time>2011-10-20T07:03:12Z</time>
  <speed>3.390000</speed>
</trkpt>
<trkpt lat="32.714809418" lon="35.016368866">
  <ele>374.432129</ele>
  <time>2011-10-20T07:03:13Z</time>
  <speed>3.190000</speed>
</trkpt>
<trkpt lat="32.714782715" lon="35.016357422">
  <ele>374.682129</ele>
  <time>2011-10-20T07:03:14Z</time>
  <speed>2.860000</speed>
</trkpt>
<trkpt lat="32.714736938" lon="35.016334534">
  <ele>374.510254</ele>
  <time>2011-10-20T07:03:16Z</time>
  <speed>2.690000</speed>
</trkpt>
<trkpt lat="32.714710236" lon="35.016326904">
  <ele>374.682129</ele>
  <time>2011-10-20T07:03:17Z</time>
  <speed>3.260000</speed>
</trkpt>
<trkpt lat="32.714679718" lon="35.016323090">
  <ele>375.057129</ele>
  <time>2011-10-20T07:03:18Z</time>
  <speed>2.860000</speed>
</trkpt>
<trkpt lat="32.714641571" lon="35.016334534">
  <ele>374.846191</ele>
  <time>2011-10-20T07:03:19Z</time>
  <speed>2.960000</speed>
</trkpt>
<trkpt lat="32.714614868" lon="35.016330719">
  <ele>374.854004</ele>
  <time>2011-10-20T07:03:20Z</time>
  <speed>2.890000</speed>
</trkpt>
<trkpt lat="32.714584351" lon="35.016326904">
  <ele>374.971191</ele>
  <time>2011-10-20T07:03:21Z</time>
  <speed>2.990000</speed>
</trkpt>
<trkpt lat="32.714557648" lon="35.016323090">
  <ele>374.408691</ele>
  <time>2011-10-20T07:03:22Z</time>
  <speed>3.000000</speed>
</trkpt>
<trkpt lat="32.714508057" lon="35.016315460">
  <ele>375.174316</ele>
  <time>2011-10-20T07:03:24Z</time>
  <speed>2.660000</speed>
</trkpt>
<trkpt lat="32.714473724" lon="35.016323090">
  <ele>375.533691</ele>
  <time>2011-10-20T07:03:25Z</time>
  <speed>2.560000</speed>
</trkpt>
<trkpt lat="32.714416504" lon="35.016315460">
  <ele>376.229004</ele>
  <time>2011-10-20T07:03:27Z</time>
  <speed>2.860000</speed>
</trkpt>
<trkpt lat="32.714382172" lon="35.016319275">
  <ele>376.479004</ele>
  <time>2011-10-20T07:03:28Z</time>
  <speed>3.080000</speed>
</trkpt>
<trkpt lat="32.714347839" lon="35.016330719">
  <ele>376.463379</ele>
  <time>2011-10-20T07:03:29Z</time>
  <speed>2.720000</speed>
</trkpt>
<trkpt lat="32.714294434" lon="35.016342163">
  <ele>376.541504</ele>
  <time>2011-10-20T07:03:31Z</time>
  <speed>2.820000</speed>
</trkpt>
<trkpt lat="32.714248657" lon="35.016357422">
  <ele>376.158691</ele>
  <time>2011-10-20T07:03:33Z</time>
  <speed>2.050000</speed>
</trkpt>
<trkpt lat="32.714218140" lon="35.016353607">
  <ele>374.721191</ele>
  <time>2011-10-20T07:03:35Z</time>
  <speed>2.300000</speed>
</trkpt>
<trkpt lat="32.714168549" lon="35.016330719">
  <ele>374.705566</ele>
  <time>2011-10-20T07:03:37Z</time>
  <speed>3.110000</speed>
</trkpt>
<trkpt lat="32.714138031" lon="35.016323090">
  <ele>374.494629</ele>
  <time>2011-10-20T07:03:38Z</time>
  <speed>3.250000</speed>
</trkpt>
<trkpt lat="32.714096069" lon="35.016315460">
  <ele>374.486816</ele>
  <time>2011-10-20T07:03:40Z</time>
  <speed>2.580000</speed>
</trkpt>
<trkpt lat="32.714057922" lon="35.016307831">
  <ele>373.580566</ele>
  <time>2011-10-20T07:03:42Z</time>
  <speed>2.110000</speed>
</trkpt>
<trkpt lat="32.714012146" lon="35.016288757">
  <ele>372.346191</ele>
  <time>2011-10-20T07:03:44Z</time>
  <speed>2.510000</speed>
</trkpt>
<trkpt lat="32.713977814" lon="35.016258240">
  <ele>371.494629</ele>
  <time>2011-10-20T07:03:46Z</time>
  <speed>1.660000</speed>
</trkpt>
<trkpt lat="32.713973999" lon="35.016223907">
  <ele>370.072754</ele>
  <time>2011-10-20T07:03:48Z</time>
  <speed>1.400000</speed>
</trkpt>
<trkpt lat="32.714000702" lon="35.016197205">
  <ele>368.900879</ele>
  <time>2011-10-20T07:03:50Z</time>
  <speed>1.900000</speed>
</trkpt>
<trkpt lat="32.713989258" lon="35.016136169">
  <ele>366.432129</ele>
  <time>2011-10-20T07:03:52Z</time>
  <speed>3.760000</speed>
</trkpt>
<trkpt lat="32.713966370" lon="35.016101837">
  <ele>365.221191</ele>
  <time>2011-10-20T07:03:53Z</time>
  <speed>3.890000</speed>
</trkpt>
<trkpt lat="32.713947296" lon="35.016063690">
  <ele>364.346191</ele>
  <time>2011-10-20T07:03:54Z</time>
  <speed>3.670000</speed>
</trkpt>
<trkpt lat="32.713924408" lon="35.016021729">
  <ele>363.869629</ele>
  <time>2011-10-20T07:03:55Z</time>
  <speed>4.500000</speed>
</trkpt>
<trkpt lat="32.713901520" lon="35.015972137">
  <ele>363.236816</ele>
  <time>2011-10-20T07:03:56Z</time>
  <speed>4.760000</speed>
</trkpt>
<trkpt lat="32.713882446" lon="35.015926361">
  <ele>362.713379</ele>
  <time>2011-10-20T07:03:57Z</time>
  <speed>3.450000</speed>
</trkpt>
<trkpt lat="32.713867188" lon="35.015899658">
  <ele>361.752441</ele>
  <time>2011-10-20T07:03:58Z</time>
  <speed>2.400000</speed>
</trkpt>
<trkpt lat="32.713867188" lon="35.015884399">
  <ele>359.143066</ele>
  <time>2011-10-20T07:04:13Z</time>
  <speed>0.510000</speed>
</trkpt>
<trkpt lat="32.713893890" lon="35.015857697">
  <ele>359.260254</ele>
  <time>2011-10-20T07:04:16Z</time>
  <speed>2.100000</speed>
</trkpt>
<trkpt lat="32.713912964" lon="35.015834808">
  <ele>359.338379</ele>
  <time>2011-10-20T07:04:17Z</time>
  <speed>3.610000</speed>
</trkpt>
<trkpt lat="32.713939667" lon="35.015796661">
  <ele>359.307129</ele>
  <time>2011-10-20T07:04:18Z</time>
  <speed>4.700000</speed>
</trkpt>
<trkpt lat="32.713962555" lon="35.015743256">
  <ele>359.385254</ele>
  <time>2011-10-20T07:04:19Z</time>
  <speed>5.530000</speed>
</trkpt>
<trkpt lat="32.713989258" lon="35.015689850">
  <ele>359.291504</ele>
  <time>2011-10-20T07:04:20Z</time>
  <speed>5.920000</speed>
</trkpt>
<trkpt lat="32.714019775" lon="35.015636444">
  <ele>359.244629</ele>
  <time>2011-10-20T07:04:21Z</time>
  <speed>5.600000</speed>
</trkpt>
<trkpt lat="32.714042664" lon="35.015571594">
  <ele>359.775879</ele>
  <time>2011-10-20T07:04:22Z</time>
  <speed>5.650000</speed>
</trkpt>
<trkpt lat="32.714065552" lon="35.015510559">
  <ele>359.322754</ele>
  <time>2011-10-20T07:04:23Z</time>
  <speed>5.590000</speed>
</trkpt>
<trkpt lat="32.714080811" lon="35.015445709">
  <ele>358.783691</ele>
  <time>2011-10-20T07:04:24Z</time>
  <speed>6.060000</speed>
</trkpt>
<trkpt lat="32.714096069" lon="35.015377045">
  <ele>359.439941</ele>
  <time>2011-10-20T07:04:25Z</time>
  <speed>6.010000</speed>
</trkpt>
<trkpt lat="32.714115143" lon="35.015319824">
  <ele>359.408691</ele>
  <time>2011-10-20T07:04:26Z</time>
  <speed>5.480000</speed>
</trkpt>
<trkpt lat="32.714130402" lon="35.015266418">
  <ele>358.627441</ele>
  <time>2011-10-20T07:04:27Z</time>
  <speed>4.260000</speed>
</trkpt>
<trkpt lat="32.714145660" lon="35.015228271">
  <ele>358.213379</ele>
  <time>2011-10-20T07:04:28Z</time>
  <speed>4.140000</speed>
</trkpt>
<trkpt lat="32.714168549" lon="35.015193939">
  <ele>357.197754</ele>
  <time>2011-10-20T07:04:29Z</time>
  <speed>3.860000</speed>
</trkpt>
<trkpt lat="32.714187622" lon="35.015159607">
  <ele>356.463379</ele>
  <time>2011-10-20T07:04:30Z</time>
  <speed>3.720000</speed>
</trkpt>
<trkpt lat="32.714206696" lon="35.015117645">
  <ele>355.213379</ele>
  <time>2011-10-20T07:04:31Z</time>
  <speed>4.450000</speed>
</trkpt>
<trkpt lat="32.714233398" lon="35.015079498">
  <ele>354.752441</ele>
  <time>2011-10-20T07:04:32Z</time>
  <speed>4.730000</speed>
</trkpt>
<trkpt lat="32.714263916" lon="35.015041351">
  <ele>354.299316</ele>
  <time>2011-10-20T07:04:33Z</time>
  <speed>4.550000</speed>
</trkpt>
<trkpt lat="32.714294434" lon="35.015007019">
  <ele>353.385254</ele>
  <time>2011-10-20T07:04:34Z</time>
  <speed>4.850000</speed>
</trkpt>
<trkpt lat="32.714324951" lon="35.014965057">
  <ele>352.760254</ele>
  <time>2011-10-20T07:04:35Z</time>
  <speed>4.560000</speed>
</trkpt>
<trkpt lat="32.714347839" lon="35.014930725">
  <ele>351.557129</ele>
  <time>2011-10-20T07:04:36Z</time>
  <speed>4.160000</speed>
</trkpt>
<trkpt lat="32.714366913" lon="35.014896393">
  <ele>350.807129</ele>
  <time>2011-10-20T07:04:37Z</time>
  <speed>4.130000</speed>
</trkpt>
<trkpt lat="32.714374542" lon="35.014846802">
  <ele>349.736816</ele>
  <time>2011-10-20T07:04:38Z</time>
  <speed>4.950000</speed>
</trkpt>
<trkpt lat="32.714366913" lon="35.014793396">
  <ele>348.838379</ele>
  <time>2011-10-20T07:04:39Z</time>
  <speed>5.540000</speed>
</trkpt>
<trkpt lat="32.714366913" lon="35.014732361">
  <ele>347.854004</ele>
  <time>2011-10-20T07:04:40Z</time>
  <speed>5.370000</speed>
</trkpt>
<trkpt lat="32.714355469" lon="35.014663696">
  <ele>347.252441</ele>
  <time>2011-10-20T07:04:41Z</time>
  <speed>6.090000</speed>
</trkpt>
<trkpt lat="32.714344025" lon="35.014598846">
  <ele>346.689941</ele>
  <time>2011-10-20T07:04:42Z</time>
  <speed>5.740000</speed>
</trkpt>
<trkpt lat="32.714340210" lon="35.014514923">
  <ele>347.650879</ele>
  <time>2011-10-20T07:04:43Z</time>
  <speed>6.030000</speed>
</trkpt>
<trkpt lat="32.714332581" lon="35.014450073">
  <ele>347.596191</ele>
  <time>2011-10-20T07:04:44Z</time>
  <speed>5.360000</speed>
</trkpt>
<trkpt lat="32.714321136" lon="35.014389038">
  <ele>347.447754</ele>
  <time>2011-10-20T07:04:45Z</time>
  <speed>4.850000</speed>
</trkpt>
<trkpt lat="32.714321136" lon="35.014339447">
  <ele>347.447754</ele>
  <time>2011-10-20T07:04:46Z</time>
  <speed>4.320000</speed>
</trkpt>
<trkpt lat="32.714324951" lon="35.014301300">
  <ele>346.994629</ele>
  <time>2011-10-20T07:04:47Z</time>
  <speed>3.810000</speed>
</trkpt>
<trkpt lat="32.714344025" lon="35.014263153">
  <ele>346.189941</ele>
  <time>2011-10-20T07:04:48Z</time>
  <speed>4.230000</speed>
</trkpt>
<trkpt lat="32.714366913" lon="35.014217377">
  <ele>345.682129</ele>
  <time>2011-10-20T07:04:49Z</time>
  <speed>4.150000</speed>
</trkpt>
<trkpt lat="32.714385986" lon="35.014171600">
  <ele>345.291504</ele>
  <time>2011-10-20T07:04:50Z</time>
  <speed>4.300000</speed>
</trkpt>
<trkpt lat="32.714408875" lon="35.014125824">
  <ele>345.408691</ele>
  <time>2011-10-20T07:04:51Z</time>
  <speed>3.780000</speed>
</trkpt>
<trkpt lat="32.714439392" lon="35.014106750">
  <ele>346.502441</ele>
  <time>2011-10-20T07:04:52Z</time>
  <speed>3.700000</speed>
</trkpt>
<trkpt lat="32.714469910" lon="35.014110565">
  <ele>347.486816</ele>
  <time>2011-10-20T07:04:53Z</time>
  <speed>3.670000</speed>
</trkpt>
<trkpt lat="32.714496613" lon="35.014137268">
  <ele>346.885254</ele>
  <time>2011-10-20T07:04:54Z</time>
  <speed>4.180000</speed>
</trkpt>
<trkpt lat="32.714523315" lon="35.014167786">
  <ele>345.768066</ele>
  <time>2011-10-20T07:04:55Z</time>
  <speed>4.470000</speed>
</trkpt>
<trkpt lat="32.714538574" lon="35.014217377">
  <ele>345.494629</ele>
  <time>2011-10-20T07:04:56Z</time>
  <speed>5.190000</speed>
</trkpt>
<trkpt lat="32.714553833" lon="35.014270782">
  <ele>345.229004</ele>
  <time>2011-10-20T07:04:57Z</time>
  <speed>5.310000</speed>
</trkpt>
<trkpt lat="32.714572906" lon="35.014328003">
  <ele>344.502441</ele>
  <time>2011-10-20T07:04:58Z</time>
  <speed>5.720000</speed>
</trkpt>
<trkpt lat="32.714591980" lon="35.014385223">
  <ele>344.072754</ele>
  <time>2011-10-20T07:04:59Z</time>
  <speed>6.160000</speed>
</trkpt>
<trkpt lat="32.714607239" lon="35.014442444">
  <ele>343.455566</ele>
  <time>2011-10-20T07:05:00Z</time>
  <speed>5.540000</speed>
</trkpt>
<trkpt lat="32.714637756" lon="35.014499664">
  <ele>343.314941</ele>
  <time>2011-10-20T07:05:01Z</time>
  <speed>5.840000</speed>
</trkpt>
<trkpt lat="32.714679718" lon="35.014533997">
  <ele>342.213379</ele>
  <time>2011-10-20T07:05:02Z</time>
  <speed>5.340000</speed>
</trkpt>
<trkpt lat="32.714725494" lon="35.014556885">
  <ele>341.564941</ele>
  <time>2011-10-20T07:05:03Z</time>
  <speed>5.380000</speed>
</trkpt>
<trkpt lat="32.714771271" lon="35.014583588">
  <ele>340.541504</ele>
  <time>2011-10-20T07:05:04Z</time>
  <speed>4.950000</speed>
</trkpt>
<trkpt lat="32.714805603" lon="35.014614105">
  <ele>339.854004</ele>
  <time>2011-10-20T07:05:05Z</time>
  <speed>4.110000</speed>
</trkpt>
<trkpt lat="32.714836121" lon="35.014633179">
  <ele>338.791504</ele>
  <time>2011-10-20T07:05:06Z</time>
  <speed>3.360000</speed>
</trkpt>
<trkpt lat="32.714866638" lon="35.014640808">
  <ele>337.580566</ele>
  <time>2011-10-20T07:05:07Z</time>
  <speed>3.360000</speed>
</trkpt>
<trkpt lat="32.714900970" lon="35.014652252">
  <ele>336.604004</ele>
  <time>2011-10-20T07:05:08Z</time>
  <speed>3.540000</speed>
</trkpt>
<trkpt lat="32.714969635" lon="35.014648438">
  <ele>334.549316</ele>
  <time>2011-10-20T07:05:10Z</time>
  <speed>3.500000</speed>
</trkpt>
<trkpt lat="32.715003967" lon="35.014648438">
  <ele>332.877441</ele>
  <time>2011-10-20T07:05:11Z</time>
  <speed>3.070000</speed>
</trkpt>
<trkpt lat="32.715030670" lon="35.014640808">
  <ele>332.158691</ele>
  <time>2011-10-20T07:05:12Z</time>
  <speed>2.530000</speed>
</trkpt>
<trkpt lat="32.715084076" lon="35.014629364">
  <ele>329.799316</ele>
  <time>2011-10-20T07:05:14Z</time>
  <speed>2.900000</speed>
</trkpt>
<trkpt lat="32.715110779" lon="35.014602661">
  <ele>328.275879</ele>
  <time>2011-10-20T07:05:15Z</time>
  <speed>3.070000</speed>
</trkpt>
<trkpt lat="32.715133667" lon="35.014568329">
  <ele>328.971191</ele>
  <time>2011-10-20T07:05:16Z</time>
  <speed>3.070000</speed>
</trkpt>
<trkpt lat="32.715152740" lon="35.014522552">
  <ele>327.268066</ele>
  <time>2011-10-20T07:05:18Z</time>
  <speed>1.750000</speed>
</trkpt>
<trkpt lat="32.715206146" lon="35.014507294">
  <ele>325.268066</ele>
  <time>2011-10-20T07:05:20Z</time>
  <speed>2.960000</speed>
</trkpt>
<trkpt lat="32.715240479" lon="35.014495850">
  <ele>324.572754</ele>
  <time>2011-10-20T07:05:21Z</time>
  <speed>3.380000</speed>
</trkpt>
<trkpt lat="32.715274811" lon="35.014480591">
  <ele>323.002441</ele>
  <time>2011-10-20T07:05:22Z</time>
  <speed>3.270000</speed>
</trkpt>
<trkpt lat="32.715328217" lon="35.014457703">
  <ele>321.033691</ele>
  <time>2011-10-20T07:05:23Z</time>
  <speed>3.600000</speed>
</trkpt>
<trkpt lat="32.715358734" lon="35.014431000">
  <ele>319.799316</ele>
  <time>2011-10-20T07:05:24Z</time>
  <speed>3.780000</speed>
</trkpt>
<trkpt lat="32.715400696" lon="35.014373779">
  <ele>320.885254</ele>
  <time>2011-10-20T07:05:25Z</time>
  <speed>4.250000</speed>
</trkpt>
<trkpt lat="32.715435028" lon="35.014354706">
  <ele>321.330566</ele>
  <time>2011-10-20T07:05:26Z</time>
  <speed>3.760000</speed>
</trkpt>
<trkpt lat="32.715469360" lon="35.014350891">
  <ele>321.307129</ele>
  <time>2011-10-20T07:05:27Z</time>
  <speed>3.630000</speed>
</trkpt>
<trkpt lat="32.715496063" lon="35.014339447">
  <ele>320.494629</ele>
  <time>2011-10-20T07:05:28Z</time>
  <speed>3.230000</speed>
</trkpt>
<trkpt lat="32.715553284" lon="35.014320374">
  <ele>319.557129</ele>
  <time>2011-10-20T07:05:29Z</time>
  <speed>3.910000</speed>
</trkpt>
<trkpt lat="32.715602875" lon="35.014312744">
  <ele>318.439941</ele>
  <time>2011-10-20T07:05:30Z</time>
  <speed>4.490000</speed>
</trkpt>
<trkpt lat="32.715641022" lon="35.014297485">
  <ele>319.322754</ele>
  <time>2011-10-20T07:05:31Z</time>
  <speed>4.360000</speed>
</trkpt>
<trkpt lat="32.715698242" lon="35.014308929">
  <ele>318.854004</ele>
  <time>2011-10-20T07:05:32Z</time>
  <speed>4.420000</speed>
</trkpt>
<trkpt lat="32.715751648" lon="35.014312744">
  <ele>318.549316</ele>
  <time>2011-10-20T07:05:33Z</time>
  <speed>4.830000</speed>
</trkpt>
<trkpt lat="32.715797424" lon="35.014308929">
  <ele>317.064941</ele>
  <time>2011-10-20T07:05:34Z</time>
  <speed>3.910000</speed>
</trkpt>
<trkpt lat="32.715824127" lon="35.014293671">
  <ele>316.049316</ele>
  <time>2011-10-20T07:05:35Z</time>
  <speed>3.260000</speed>
</trkpt>
<trkpt lat="32.715850830" lon="35.014293671">
  <ele>314.213379</ele>
  <time>2011-10-20T07:05:36Z</time>
  <speed>3.280000</speed>
</trkpt>
<trkpt lat="32.715885162" lon="35.014308929">
  <ele>313.150879</ele>
  <time>2011-10-20T07:05:37Z</time>
  <speed>4.040000</speed>
</trkpt>
<trkpt lat="32.715915680" lon="35.014331818">
  <ele>310.627441</ele>
  <time>2011-10-20T07:05:38Z</time>
  <speed>3.750000</speed>
</trkpt>
<trkpt lat="32.715950012" lon="35.014339447">
  <ele>308.752441</ele>
  <time>2011-10-20T07:05:39Z</time>
  <speed>3.290000</speed>
</trkpt>
<trkpt lat="32.715984344" lon="35.014328003">
  <ele>308.455566</ele>
  <time>2011-10-20T07:05:40Z</time>
  <speed>3.740000</speed>
</trkpt>
<trkpt lat="32.716018677" lon="35.014316559">
  <ele>307.643066</ele>
  <time>2011-10-20T07:05:41Z</time>
  <speed>3.960000</speed>
</trkpt>
<trkpt lat="32.716064453" lon="35.014316559">
  <ele>306.455566</ele>
  <time>2011-10-20T07:05:42Z</time>
  <speed>5.260000</speed>
</trkpt>
<trkpt lat="32.716117859" lon="35.014316559">
  <ele>305.244629</ele>
  <time>2011-10-20T07:05:43Z</time>
  <speed>5.500000</speed>
</trkpt>
<trkpt lat="32.716175079" lon="35.014305115">
  <ele>303.869629</ele>
  <time>2011-10-20T07:05:44Z</time>
  <speed>5.860000</speed>
</trkpt>
<trkpt lat="32.716236115" lon="35.014301300">
  <ele>301.143066</ele>
  <time>2011-10-20T07:05:45Z</time>
  <speed>6.170000</speed>
</trkpt>
<trkpt lat="32.716297150" lon="35.014282227">
  <ele>301.580566</ele>
  <time>2011-10-20T07:05:46Z</time>
  <speed>6.160000</speed>
</trkpt>
<trkpt lat="32.716342926" lon="35.014278412">
  <ele>299.955566</ele>
  <time>2011-10-20T07:05:47Z</time>
  <speed>5.730000</speed>
</trkpt>
<trkpt lat="32.716392517" lon="35.014263153">
  <ele>297.893066</ele>
  <time>2011-10-20T07:05:48Z</time>
  <speed>6.430000</speed>
</trkpt>
<trkpt lat="32.716442108" lon="35.014244080">
  <ele>295.877441</ele>
  <time>2011-10-20T07:05:49Z</time>
  <speed>5.730000</speed>
</trkpt>
<trkpt lat="32.716491699" lon="35.014202118">
  <ele>295.729004</ele>
  <time>2011-10-20T07:05:50Z</time>
  <speed>5.350000</speed>
</trkpt>
<trkpt lat="32.716526031" lon="35.014163971">
  <ele>294.494629</ele>
  <time>2011-10-20T07:05:51Z</time>
  <speed>5.300000</speed>
</trkpt>
<trkpt lat="32.716567993" lon="35.014125824">
  <ele>294.314941</ele>
  <time>2011-10-20T07:05:52Z</time>
  <speed>5.600000</speed>
</trkpt>
<trkpt lat="32.716617584" lon="35.014099121">
  <ele>293.135254</ele>
  <time>2011-10-20T07:05:53Z</time>
  <speed>5.470000</speed>
</trkpt>
<trkpt lat="32.716659546" lon="35.014068604">
  <ele>291.533691</ele>
  <time>2011-10-20T07:05:54Z</time>
  <speed>5.460000</speed>
</trkpt>
<trkpt lat="32.716705322" lon="35.014045715">
  <ele>290.150879</ele>
  <time>2011-10-20T07:05:55Z</time>
  <speed>5.770000</speed>
</trkpt>
<trkpt lat="32.716751099" lon="35.014015198">
  <ele>288.455566</ele>
  <time>2011-10-20T07:05:56Z</time>
  <speed>5.230000</speed>
</trkpt>
<trkpt lat="32.716793060" lon="35.013973236">
  <ele>286.377441</ele>
  <time>2011-10-20T07:05:57Z</time>
  <speed>5.840000</speed>
</trkpt>
<trkpt lat="32.716831207" lon="35.013927460">
  <ele>285.385254</ele>
  <time>2011-10-20T07:05:58Z</time>
  <speed>5.810000</speed>
</trkpt>
<trkpt lat="32.716869354" lon="35.013877869">
  <ele>284.330566</ele>
  <time>2011-10-20T07:05:59Z</time>
  <speed>5.720000</speed>
</trkpt>
<trkpt lat="32.716903687" lon="35.013832092">
  <ele>283.947754</ele>
  <time>2011-10-20T07:06:00Z</time>
  <speed>5.180000</speed>
</trkpt>
<trkpt lat="32.716930389" lon="35.013790131">
  <ele>282.252441</ele>
  <time>2011-10-20T07:06:01Z</time>
  <speed>4.880000</speed>
</trkpt>
<trkpt lat="32.716957092" lon="35.013751984">
  <ele>281.143066</ele>
  <time>2011-10-20T07:06:02Z</time>
  <speed>4.500000</speed>
</trkpt>
<trkpt lat="32.716976166" lon="35.013694763">
  <ele>279.611816</ele>
  <time>2011-10-20T07:06:03Z</time>
  <speed>6.120000</speed>
</trkpt>
<trkpt lat="32.717002869" lon="35.013633728">
  <ele>278.533691</ele>
  <time>2011-10-20T07:06:04Z</time>
  <speed>5.860000</speed>
</trkpt>
<trkpt lat="32.717029572" lon="35.013576508">
  <ele>277.557129</ele>
  <time>2011-10-20T07:06:05Z</time>
  <speed>5.860000</speed>
</trkpt>
<trkpt lat="32.717056274" lon="35.013519287">
  <ele>276.666504</ele>
  <time>2011-10-20T07:06:06Z</time>
  <speed>6.470000</speed>
</trkpt>
<trkpt lat="32.717086792" lon="35.013450623">
  <ele>276.275879</ele>
  <time>2011-10-20T07:06:07Z</time>
  <speed>6.910000</speed>
</trkpt>
<trkpt lat="32.717121124" lon="35.013389587">
  <ele>276.361816</ele>
  <time>2011-10-20T07:06:08Z</time>
  <speed>5.250000</speed>
</trkpt>
<trkpt lat="32.717147827" lon="35.013343811">
  <ele>276.119629</ele>
  <time>2011-10-20T07:06:09Z</time>
  <speed>4.370000</speed>
</trkpt>
<trkpt lat="32.717159271" lon="35.013298035">
  <ele>275.588379</ele>
  <time>2011-10-20T07:06:10Z</time>
  <speed>4.180000</speed>
</trkpt>
<trkpt lat="32.717178345" lon="35.013263702">
  <ele>274.971191</ele>
  <time>2011-10-20T07:06:11Z</time>
  <speed>3.890000</speed>
</trkpt>
<trkpt lat="32.717205048" lon="35.013237000">
  <ele>274.900879</ele>
  <time>2011-10-20T07:06:12Z</time>
  <speed>3.680000</speed>
</trkpt>
<trkpt lat="32.717227936" lon="35.013202667">
  <ele>275.174316</ele>
  <time>2011-10-20T07:06:13Z</time>
  <speed>3.610000</speed>
</trkpt>
<trkpt lat="32.717250824" lon="35.013175964">
  <ele>275.260254</ele>
  <time>2011-10-20T07:06:14Z</time>
  <speed>3.880000</speed>
</trkpt>
<trkpt lat="32.717277527" lon="35.013149261">
  <ele>275.244629</ele>
  <time>2011-10-20T07:06:15Z</time>
  <speed>3.340000</speed>
</trkpt>
<trkpt lat="32.717315674" lon="35.013122559">
  <ele>275.885254</ele>
  <time>2011-10-20T07:06:17Z</time>
  <speed>2.140000</speed>
</trkpt>
<trkpt lat="32.717327118" lon="35.013069153">
  <ele>277.072754</ele>
  <time>2011-10-20T07:06:19Z</time>
  <speed>2.890000</speed>
</trkpt>
<trkpt lat="32.717330933" lon="35.013034821">
  <ele>277.541504</ele>
  <time>2011-10-20T07:06:20Z</time>
  <speed>2.800000</speed>
</trkpt>
<trkpt lat="32.717338562" lon="35.012985229">
  <ele>278.104004</ele>
  <time>2011-10-20T07:06:22Z</time>
  <speed>2.000000</speed>
</trkpt>
<trkpt lat="32.717346191" lon="35.012958527">
  <ele>279.432129</ele>
  <time>2011-10-20T07:06:23Z</time>
  <speed>1.720000</speed>
</trkpt>
<trkpt lat="32.717346191" lon="35.012916565">
  <ele>280.393066</ele>
  <time>2011-10-20T07:06:25Z</time>
  <speed>1.270000</speed>
</trkpt>
<trkpt lat="32.717342377" lon="35.012878418">
  <ele>281.072754</ele>
  <time>2011-10-20T07:06:28Z</time>
  <speed>0.510000</speed>
</trkpt>
<trkpt lat="32.717342377" lon="35.012844086">
  <ele>282.760254</ele>
  <time>2011-10-20T07:09:27Z</time>
  <speed>2.140000</speed>
</trkpt>
<trkpt lat="32.717334747" lon="35.012786865">
  <ele>282.736816</ele>
  <time>2011-10-20T07:09:29Z</time>
  <speed>2.830000</speed>
</trkpt>
<trkpt lat="32.717330933" lon="35.012744904">
  <ele>282.299316</ele>
  <time>2011-10-20T07:09:30Z</time>
  <speed>3.880000</speed>
</trkpt>
<trkpt lat="32.717330933" lon="35.012699127">
  <ele>282.002441</ele>
  <time>2011-10-20T07:09:31Z</time>
  <speed>4.740000</speed>
</trkpt>
<trkpt lat="32.717342377" lon="35.012641907">
  <ele>281.736816</ele>
  <time>2011-10-20T07:09:32Z</time>
  <speed>4.700000</speed>
</trkpt>
<trkpt lat="32.717350006" lon="35.012592316">
  <ele>281.768066</ele>
  <time>2011-10-20T07:09:33Z</time>
  <speed>3.980000</speed>
</trkpt>
<trkpt lat="32.717365265" lon="35.012550354">
  <ele>281.674316</ele>
  <time>2011-10-20T07:09:34Z</time>
  <speed>3.610000</speed>
</trkpt>
<trkpt lat="32.717372894" lon="35.012516022">
  <ele>281.307129</ele>
  <time>2011-10-20T07:09:35Z</time>
  <speed>3.260000</speed>
</trkpt>
<trkpt lat="32.717384338" lon="35.012474060">
  <ele>280.525879</ele>
  <time>2011-10-20T07:09:36Z</time>
  <speed>3.680000</speed>
</trkpt>
<trkpt lat="32.717391968" lon="35.012428284">
  <ele>280.072754</ele>
  <time>2011-10-20T07:09:37Z</time>
  <speed>3.410000</speed>
</trkpt>
<trkpt lat="32.717395782" lon="35.012397766">
  <ele>279.275879</ele>
  <time>2011-10-20T07:09:38Z</time>
  <speed>2.670000</speed>
</trkpt>
<trkpt lat="32.717403412" lon="35.012367249">
  <ele>277.986816</ele>
  <time>2011-10-20T07:09:39Z</time>
  <speed>2.630000</speed>
</trkpt>
<trkpt lat="32.717414856" lon="35.012332916">
  <ele>276.236816</ele>
  <time>2011-10-20T07:09:41Z</time>
  <speed>1.530000</speed>
</trkpt>
<trkpt lat="32.717430115" lon="35.012298584">
  <ele>276.393066</ele>
  <time>2011-10-20T07:09:43Z</time>
  <speed>1.040000</speed>
</trkpt>
<trkpt lat="32.717449188" lon="35.012245178">
  <ele>275.893066</ele>
  <time>2011-10-20T07:10:44Z</time>
  <speed>3.080000</speed>
</trkpt>
<trkpt lat="32.717464447" lon="35.012207031">
  <ele>275.721191</ele>
  <time>2011-10-20T07:10:45Z</time>
  <speed>2.850000</speed>
</trkpt>
<trkpt lat="32.717475891" lon="35.012153625">
  <ele>277.252441</ele>
  <time>2011-10-20T07:10:46Z</time>
  <speed>2.280000</speed>
</trkpt>
<trkpt lat="32.717479706" lon="35.012100220">
  <ele>276.275879</ele>
  <time>2011-10-20T07:10:48Z</time>
  <speed>1.620000</speed>
</trkpt>
<trkpt lat="32.717487335" lon="35.012042999">
  <ele>277.861816</ele>
  <time>2011-10-20T07:10:50Z</time>
  <speed>1.600000</speed>
</trkpt>
<trkpt lat="32.717498779" lon="35.012012482">
  <ele>278.049316</ele>
  <time>2011-10-20T07:10:52Z</time>
  <speed>0.660000</speed>
</trkpt>
<trkpt lat="32.717468262" lon="35.012035370">
  <ele>277.525879</ele>
  <time>2011-10-20T07:11:02Z</time>
  <speed>1.190000</speed>
</trkpt>
<trkpt lat="32.717460632" lon="35.012069702">
  <ele>277.119629</ele>
  <time>2011-10-20T07:11:05Z</time>
  <speed>0.630000</speed>
</trkpt>
<trkpt lat="32.717456818" lon="35.012104034">
  <ele>276.830566</ele>
  <time>2011-10-20T07:11:08Z</time>
  <speed>0.790000</speed>
</trkpt>
<trkpt lat="32.717433929" lon="35.012130737">
  <ele>276.557129</ele>
  <time>2011-10-20T07:11:12Z</time>
  <speed>0.760000</speed>
</trkpt>
<trkpt lat="32.717414856" lon="35.012180328">
  <ele>276.104004</ele>
  <time>2011-10-20T07:11:15Z</time>
  <speed>0.970000</speed>
</trkpt>
<trkpt lat="32.717403412" lon="35.012214661">
  <ele>275.791504</ele>
  <time>2011-10-20T07:11:18Z</time>
  <speed>0.470000</speed>
</trkpt>
<trkpt lat="32.717445374" lon="35.012233734">
  <ele>277.150879</ele>
  <time>2011-10-20T07:11:22Z</time>
  <speed>0.260000</speed>
</trkpt>
<trkpt lat="32.717468262" lon="35.012218475">
  <ele>277.104004</ele>
  <time>2011-10-20T07:11:24Z</time>
  <speed>1.040000</speed>
</trkpt>
<trkpt lat="32.717479706" lon="35.012187958">
  <ele>276.549316</ele>
  <time>2011-10-20T07:11:26Z</time>
  <speed>2.180000</speed>
</trkpt>
<trkpt lat="32.717498779" lon="35.012134552">
  <ele>276.393066</ele>
  <time>2011-10-20T07:11:28Z</time>
  <speed>1.890000</speed>
</trkpt>
<trkpt lat="32.717510223" lon="35.012092590">
  <ele>275.229004</ele>
  <time>2011-10-20T07:11:30Z</time>
  <speed>1.410000</speed>
</trkpt>
<trkpt lat="32.717533112" lon="35.012065887">
  <ele>274.525879</ele>
  <time>2011-10-20T07:11:32Z</time>
  <speed>2.100000</speed>
</trkpt>
<trkpt lat="32.717571259" lon="35.012035370">
  <ele>273.666504</ele>
  <time>2011-10-20T07:11:34Z</time>
  <speed>2.500000</speed>
</trkpt>
<trkpt lat="32.717605591" lon="35.011989594">
  <ele>272.619629</ele>
  <time>2011-10-20T07:11:36Z</time>
  <speed>2.620000</speed>
</trkpt>
<trkpt lat="32.717620850" lon="35.011940002">
  <ele>271.111816</ele>
  <time>2011-10-20T07:11:38Z</time>
  <speed>2.150000</speed>
</trkpt>
<trkpt lat="32.717647552" lon="35.011905670">
  <ele>270.260254</ele>
  <time>2011-10-20T07:11:40Z</time>
  <speed>2.590000</speed>
</trkpt>
<trkpt lat="32.717674255" lon="35.011856079">
  <ele>269.244629</ele>
  <time>2011-10-20T07:11:42Z</time>
  <speed>2.840000</speed>
</trkpt>
<trkpt lat="32.717704773" lon="35.011825562">
  <ele>267.354004</ele>
  <time>2011-10-20T07:11:44Z</time>
  <speed>1.770000</speed>
</trkpt>
<trkpt lat="32.717742920" lon="35.011806488">
  <ele>266.854004</ele>
  <time>2011-10-20T07:11:46Z</time>
  <speed>2.440000</speed>
</trkpt>
<trkpt lat="32.717781067" lon="35.011764526">
  <ele>265.713379</ele>
  <time>2011-10-20T07:11:48Z</time>
  <speed>2.280000</speed>
</trkpt>
<trkpt lat="32.717811584" lon="35.011741638">
  <ele>264.314941</ele>
  <time>2011-10-20T07:11:50Z</time>
  <speed>2.180000</speed>
</trkpt>
<trkpt lat="32.717842102" lon="35.011722565">
  <ele>262.900879</ele>
  <time>2011-10-20T07:11:52Z</time>
  <speed>2.000000</speed>
</trkpt>
<trkpt lat="32.717876434" lon="35.011688232">
  <ele>262.611816</ele>
  <time>2011-10-20T07:11:54Z</time>
  <speed>2.340000</speed>
</trkpt>
<trkpt lat="32.717910767" lon="35.011661530">
  <ele>261.533691</ele>
  <time>2011-10-20T07:11:56Z</time>
  <speed>2.380000</speed>
</trkpt>
<trkpt lat="32.717952728" lon="35.011638641">
  <ele>259.713379</ele>
  <time>2011-10-20T07:11:58Z</time>
  <speed>3.340000</speed>
</trkpt>
<trkpt lat="32.717979431" lon="35.011615753">
  <ele>259.455566</ele>
  <time>2011-10-20T07:11:59Z</time>
  <speed>4.600000</speed>
</trkpt>
<trkpt lat="32.718013763" lon="35.011596680">
  <ele>258.830566</ele>
  <time>2011-10-20T07:12:00Z</time>
  <speed>4.490000</speed>
</trkpt>
<trkpt lat="32.718051910" lon="35.011581421">
  <ele>258.150879</ele>
  <time>2011-10-20T07:12:01Z</time>
  <speed>4.010000</speed>
</trkpt>
<trkpt lat="32.718090057" lon="35.011581421">
  <ele>257.174316</ele>
  <time>2011-10-20T07:12:02Z</time>
  <speed>3.810000</speed>
</trkpt>
<trkpt lat="32.718124390" lon="35.011577606">
  <ele>256.666504</ele>
  <time>2011-10-20T07:12:03Z</time>
  <speed>3.330000</speed>
</trkpt>
<trkpt lat="32.718158722" lon="35.011547089">
  <ele>258.275879</ele>
  <time>2011-10-20T07:12:04Z</time>
  <speed>3.270000</speed>
</trkpt>
<trkpt lat="32.718196869" lon="35.011547089">
  <ele>258.049316</ele>
  <time>2011-10-20T07:12:05Z</time>
  <speed>3.400000</speed>
</trkpt>
<trkpt lat="32.718227386" lon="35.011531830">
  <ele>257.424316</ele>
  <time>2011-10-20T07:12:06Z</time>
  <speed>3.960000</speed>
</trkpt>
<trkpt lat="32.718265533" lon="35.011512756">
  <ele>256.111816</ele>
  <time>2011-10-20T07:12:07Z</time>
  <speed>4.010000</speed>
</trkpt>
<trkpt lat="32.718299866" lon="35.011486053">
  <ele>256.096191</ele>
  <time>2011-10-20T07:12:08Z</time>
  <speed>4.180000</speed>
</trkpt>
<trkpt lat="32.718334198" lon="35.011455536">
  <ele>255.458252</ele>
  <time>2011-10-20T07:12:09Z</time>
  <speed>4.230000</speed>
</trkpt>
<trkpt lat="32.718360901" lon="35.011425018">
  <ele>254.200439</ele>
  <time>2011-10-20T07:12:10Z</time>
  <speed>4.020000</speed>
</trkpt>
<trkpt lat="32.718387604" lon="35.011394501">
  <ele>253.313721</ele>
  <time>2011-10-20T07:12:11Z</time>
  <speed>4.000000</speed>
</trkpt>
<trkpt lat="32.718418121" lon="35.011371613">
  <ele>253.055908</ele>
  <time>2011-10-20T07:12:12Z</time>
  <speed>3.630000</speed>
</trkpt>
<trkpt lat="32.718456268" lon="35.011341095">
  <ele>251.630127</ele>
  <time>2011-10-20T07:12:14Z</time>
  <speed>2.330000</speed>
</trkpt>
<trkpt lat="32.718479156" lon="35.011322021">
  <ele>251.567627</ele>
  <time>2011-10-20T07:12:15Z</time>
  <speed>2.450000</speed>
</trkpt>
<trkpt lat="32.718521118" lon="35.011291504">
  <ele>250.630127</ele>
  <time>2011-10-20T07:12:17Z</time>
  <speed>3.470000</speed>
</trkpt>
<trkpt lat="32.718555450" lon="35.011280060">
  <ele>250.052002</ele>
  <time>2011-10-20T07:12:18Z</time>
  <speed>3.550000</speed>
</trkpt>
<trkpt lat="32.718585968" lon="35.011264801">
  <ele>249.665283</ele>
  <time>2011-10-20T07:12:19Z</time>
  <speed>4.230000</speed>
</trkpt>
<trkpt lat="32.718624115" lon="35.011253357">
  <ele>249.204346</ele>
  <time>2011-10-20T07:12:20Z</time>
  <speed>4.360000</speed>
</trkpt>
<trkpt lat="32.718662262" lon="35.011211395">
  <ele>250.798096</ele>
  <time>2011-10-20T07:12:21Z</time>
  <speed>3.250000</speed>
</trkpt>
<trkpt lat="32.718692780" lon="35.011196136">
  <ele>249.848877</ele>
  <time>2011-10-20T07:12:22Z</time>
  <speed>2.810000</speed>
</trkpt>
<trkpt lat="32.718738556" lon="35.011157990">
  <ele>248.192627</ele>
  <time>2011-10-20T07:12:24Z</time>
  <speed>2.740000</speed>
</trkpt>
<trkpt lat="32.718761444" lon="35.011135101">
  <ele>247.493408</ele>
  <time>2011-10-20T07:12:25Z</time>
  <speed>2.930000</speed>
</trkpt>
<trkpt lat="32.718788147" lon="35.011112213">
  <ele>247.466064</ele>
  <time>2011-10-20T07:12:26Z</time>
  <speed>2.810000</speed>
</trkpt>
<trkpt lat="32.718807220" lon="35.011089325">
  <ele>246.587158</ele>
  <time>2011-10-20T07:12:27Z</time>
  <speed>3.140000</speed>
</trkpt>
<trkpt lat="32.718830109" lon="35.011070251">
  <ele>245.325439</ele>
  <time>2011-10-20T07:12:28Z</time>
  <speed>3.440000</speed>
</trkpt>
<trkpt lat="32.718856812" lon="35.011035919">
  <ele>244.333252</ele>
  <time>2011-10-20T07:12:29Z</time>
  <speed>4.060000</speed>
</trkpt>
<trkpt lat="32.718891144" lon="35.011009216">
  <ele>243.743408</ele>
  <time>2011-10-20T07:12:30Z</time>
  <speed>3.790000</speed>
</trkpt>
<trkpt lat="32.718921661" lon="35.010986328">
  <ele>242.645752</ele>
  <time>2011-10-20T07:12:31Z</time>
  <speed>3.800000</speed>
</trkpt>
<trkpt lat="32.718948364" lon="35.010982513">
  <ele>242.091064</ele>
  <time>2011-10-20T07:12:32Z</time>
  <speed>3.290000</speed>
</trkpt>
<trkpt lat="32.718978882" lon="35.010978699">
  <ele>241.563721</ele>
  <time>2011-10-20T07:12:33Z</time>
  <speed>2.980000</speed>
</trkpt>
<trkpt lat="32.719001770" lon="35.010971069">
  <ele>240.614502</ele>
  <time>2011-10-20T07:12:34Z</time>
  <speed>2.800000</speed>
</trkpt>
<trkpt lat="32.719028473" lon="35.010944366">
  <ele>241.344971</ele>
  <time>2011-10-20T07:12:35Z</time>
  <speed>3.670000</speed>
</trkpt>
<trkpt lat="32.719062805" lon="35.010917664">
  <ele>242.727783</ele>
  <time>2011-10-20T07:12:36Z</time>
  <speed>3.940000</speed>
</trkpt>
<trkpt lat="32.719104767" lon="35.010902405">
  <ele>243.044189</ele>
  <time>2011-10-20T07:12:37Z</time>
  <speed>4.830000</speed>
</trkpt>
<trkpt lat="32.719146729" lon="35.010879517">
  <ele>243.247314</ele>
  <time>2011-10-20T07:12:38Z</time>
  <speed>4.920000</speed>
</trkpt>
<trkpt lat="32.719184875" lon="35.010856628">
  <ele>243.075439</ele>
  <time>2011-10-20T07:12:39Z</time>
  <speed>4.430000</speed>
</trkpt>
<trkpt lat="32.719219208" lon="35.010829926">
  <ele>243.071533</ele>
  <time>2011-10-20T07:12:40Z</time>
  <speed>3.930000</speed>
</trkpt>
<trkpt lat="32.719257355" lon="35.010803223">
  <ele>244.247314</ele>
  <time>2011-10-20T07:12:41Z</time>
  <speed>4.540000</speed>
</trkpt>
<trkpt lat="32.719291687" lon="35.010780334">
  <ele>244.325439</ele>
  <time>2011-10-20T07:12:42Z</time>
  <speed>4.390000</speed>
</trkpt>
<trkpt lat="32.719329834" lon="35.010768890">
  <ele>244.028564</ele>
  <time>2011-10-20T07:12:43Z</time>
  <speed>3.940000</speed>
</trkpt>
<trkpt lat="32.719364166" lon="35.010761261">
  <ele>244.071533</ele>
  <time>2011-10-20T07:12:44Z</time>
  <speed>3.420000</speed>
</trkpt>
<trkpt lat="32.719398499" lon="35.010753632">
  <ele>244.274658</ele>
  <time>2011-10-20T07:12:45Z</time>
  <speed>3.810000</speed>
</trkpt>
<trkpt lat="32.719429016" lon="35.010734558">
  <ele>244.540283</ele>
  <time>2011-10-20T07:12:46Z</time>
  <speed>3.260000</speed>
</trkpt>
<trkpt lat="32.719455719" lon="35.010719299">
  <ele>244.134033</ele>
  <time>2011-10-20T07:12:47Z</time>
  <speed>3.630000</speed>
</trkpt>
<trkpt lat="32.719486237" lon="35.010692596">
  <ele>243.790283</ele>
  <time>2011-10-20T07:12:48Z</time>
  <speed>4.290000</speed>
</trkpt>
<trkpt lat="32.719520569" lon="35.010665894">
  <ele>243.489502</ele>
  <time>2011-10-20T07:12:49Z</time>
  <speed>4.000000</speed>
</trkpt>
<trkpt lat="32.719551086" lon="35.010639191">
  <ele>242.782471</ele>
  <time>2011-10-20T07:12:50Z</time>
  <speed>3.760000</speed>
</trkpt>
<trkpt lat="32.719573975" lon="35.010616302">
  <ele>242.341064</ele>
  <time>2011-10-20T07:12:51Z</time>
  <speed>3.200000</speed>
</trkpt>
<trkpt lat="32.719596863" lon="35.010597229">
  <ele>242.126221</ele>
  <time>2011-10-20T07:12:52Z</time>
  <speed>2.660000</speed>
</trkpt>
<trkpt lat="32.719642639" lon="35.010559082">
  <ele>241.454346</ele>
  <time>2011-10-20T07:12:54Z</time>
  <speed>3.200000</speed>
</trkpt>
<trkpt lat="32.719680786" lon="35.010551453">
  <ele>241.583252</ele>
  <time>2011-10-20T07:12:55Z</time>
  <speed>3.620000</speed>
</trkpt>
<trkpt lat="32.719715118" lon="35.010547638">
  <ele>240.985596</ele>
  <time>2011-10-20T07:12:56Z</time>
  <speed>3.550000</speed>
</trkpt>
<trkpt lat="32.719749451" lon="35.010532379">
  <ele>240.423096</ele>
  <time>2011-10-20T07:12:57Z</time>
  <speed>3.840000</speed>
</trkpt>
<trkpt lat="32.719779968" lon="35.010498047">
  <ele>241.454346</ele>
  <time>2011-10-20T07:12:58Z</time>
  <speed>3.720000</speed>
</trkpt>
<trkpt lat="32.719814301" lon="35.010475159">
  <ele>242.872314</ele>
  <time>2011-10-20T07:12:59Z</time>
  <speed>4.130000</speed>
</trkpt>
<trkpt lat="32.719848633" lon="35.010471344">
  <ele>243.442627</ele>
  <time>2011-10-20T07:13:00Z</time>
  <speed>3.870000</speed>
</trkpt>
<trkpt lat="32.719886780" lon="35.010463715">
  <ele>243.290283</ele>
  <time>2011-10-20T07:13:01Z</time>
  <speed>4.130000</speed>
</trkpt>
<trkpt lat="32.719921112" lon="35.010452271">
  <ele>243.130127</ele>
  <time>2011-10-20T07:13:02Z</time>
  <speed>3.810000</speed>
</trkpt>
<trkpt lat="32.719955444" lon="35.010444641">
  <ele>242.208252</ele>
  <time>2011-10-20T07:13:03Z</time>
  <speed>3.550000</speed>
</trkpt>
<trkpt lat="32.719989777" lon="35.010433197">
  <ele>242.313721</ele>
  <time>2011-10-20T07:13:04Z</time>
  <speed>3.600000</speed>
</trkpt>
<trkpt lat="32.720024109" lon="35.010421753">
  <ele>242.216064</ele>
  <time>2011-10-20T07:13:05Z</time>
  <speed>3.900000</speed>
</trkpt>
<trkpt lat="32.720062256" lon="35.010421753">
  <ele>241.989502</ele>
  <time>2011-10-20T07:13:06Z</time>
  <speed>4.220000</speed>
</trkpt>
<trkpt lat="32.720104218" lon="35.010414124">
  <ele>242.516846</ele>
  <time>2011-10-20T07:13:07Z</time>
  <speed>4.250000</speed>
</trkpt>
<trkpt lat="32.720138550" lon="35.010398865">
  <ele>243.505127</ele>
  <time>2011-10-20T07:13:08Z</time>
  <speed>3.640000</speed>
</trkpt>
<trkpt lat="32.720176697" lon="35.010391235">
  <ele>243.395752</ele>
  <time>2011-10-20T07:13:09Z</time>
  <speed>3.620000</speed>
</trkpt>
<trkpt lat="32.720207214" lon="35.010379791">
  <ele>242.989502</ele>
  <time>2011-10-20T07:13:10Z</time>
  <speed>3.840000</speed>
</trkpt>
<trkpt lat="32.720245361" lon="35.010368347">
  <ele>242.802002</ele>
  <time>2011-10-20T07:13:11Z</time>
  <speed>4.200000</speed>
</trkpt>
<trkpt lat="32.720283508" lon="35.010356903">
  <ele>242.235596</ele>
  <time>2011-10-20T07:13:12Z</time>
  <speed>4.560000</speed>
</trkpt>
<trkpt lat="32.720325470" lon="35.010341644">
  <ele>241.899658</ele>
  <time>2011-10-20T07:13:13Z</time>
  <speed>5.420000</speed>
</trkpt>
<trkpt lat="32.720375061" lon="35.010330200">
  <ele>241.977783</ele>
  <time>2011-10-20T07:13:14Z</time>
  <speed>5.560000</speed>
</trkpt>
<trkpt lat="32.720424652" lon="35.010326385">
  <ele>241.884033</ele>
  <time>2011-10-20T07:13:15Z</time>
  <speed>5.520000</speed>
</trkpt>
<trkpt lat="32.720474243" lon="35.010330200">
  <ele>241.786377</ele>
  <time>2011-10-20T07:13:16Z</time>
  <speed>5.410000</speed>
</trkpt>
<trkpt lat="32.720527649" lon="35.010337830">
  <ele>240.575439</ele>
  <time>2011-10-20T07:13:17Z</time>
  <speed>5.030000</speed>
</trkpt>
<trkpt lat="32.720626831" lon="35.010341644">
  <ele>238.966064</ele>
  <time>2011-10-20T07:13:18Z</time>
  <speed>5.110000</speed>
</trkpt>
<trkpt lat="32.720668793" lon="35.010337830">
  <ele>237.930908</ele>
  <time>2011-10-20T07:13:19Z</time>
  <speed>4.770000</speed>
</trkpt>
<trkpt lat="32.720714569" lon="35.010330200">
  <ele>236.891846</ele>
  <time>2011-10-20T07:13:20Z</time>
  <speed>4.530000</speed>
</trkpt>
<trkpt lat="32.720752716" lon="35.010318756">
  <ele>236.485596</ele>
  <time>2011-10-20T07:13:21Z</time>
  <speed>4.480000</speed>
</trkpt>
<trkpt lat="32.720794678" lon="35.010318756">
  <ele>236.016846</ele>
  <time>2011-10-20T07:13:22Z</time>
  <speed>4.470000</speed>
</trkpt>
<trkpt lat="32.720840454" lon="35.010318756">
  <ele>235.200439</ele>
  <time>2011-10-20T07:13:23Z</time>
  <speed>4.440000</speed>
</trkpt>
<trkpt lat="32.720882416" lon="35.010314941">
  <ele>234.196533</ele>
  <time>2011-10-20T07:13:24Z</time>
  <speed>4.690000</speed>
</trkpt>
<trkpt lat="32.720924377" lon="35.010311127">
  <ele>233.208252</ele>
  <time>2011-10-20T07:13:25Z</time>
  <speed>4.980000</speed>
</trkpt>
<trkpt lat="32.720970154" lon="35.010307312">
  <ele>232.645752</ele>
  <time>2011-10-20T07:13:26Z</time>
  <speed>4.650000</speed>
</trkpt>
<trkpt lat="32.721008301" lon="35.010307312">
  <ele>232.255127</ele>
  <time>2011-10-20T07:13:27Z</time>
  <speed>4.410000</speed>
</trkpt>
<trkpt lat="32.721054077" lon="35.010303497">
  <ele>232.102783</ele>
  <time>2011-10-20T07:13:28Z</time>
  <speed>4.710000</speed>
</trkpt>
<trkpt lat="32.721103668" lon="35.010284424">
  <ele>233.208252</ele>
  <time>2011-10-20T07:13:29Z</time>
  <speed>4.650000</speed>
</trkpt>
<trkpt lat="32.721157074" lon="35.010272980">
  <ele>232.942627</ele>
  <time>2011-10-20T07:13:30Z</time>
  <speed>5.040000</speed>
</trkpt>
<trkpt lat="32.721199036" lon="35.010253906">
  <ele>232.610596</ele>
  <time>2011-10-20T07:13:31Z</time>
  <speed>4.170000</speed>
</trkpt>
<trkpt lat="32.721225739" lon="35.010238647">
  <ele>232.954346</ele>
  <time>2011-10-20T07:13:32Z</time>
  <speed>3.550000</speed>
</trkpt>
<trkpt lat="32.721271515" lon="35.010242462">
  <ele>232.454346</ele>
  <time>2011-10-20T07:13:34Z</time>
  <speed>2.090000</speed>
</trkpt>
<trkpt lat="32.721324921" lon="35.010227203">
  <ele>231.536377</ele>
  <time>2011-10-20T07:13:36Z</time>
  <speed>3.140000</speed>
</trkpt>
<trkpt lat="32.721355438" lon="35.010223389">
  <ele>232.278564</ele>
  <time>2011-10-20T07:13:37Z</time>
  <speed>3.590000</speed>
</trkpt>
<trkpt lat="32.721389771" lon="35.010219574">
  <ele>232.266846</ele>
  <time>2011-10-20T07:13:38Z</time>
  <speed>3.940000</speed>
</trkpt>
<trkpt lat="32.721420288" lon="35.010208130">
  <ele>231.708252</ele>
  <time>2011-10-20T07:13:39Z</time>
  <speed>3.660000</speed>
</trkpt>
<trkpt lat="32.721450806" lon="35.010200500">
  <ele>231.512939</ele>
  <time>2011-10-20T07:13:40Z</time>
  <speed>3.420000</speed>
</trkpt>
<trkpt lat="32.721481323" lon="35.010189056">
  <ele>231.505127</ele>
  <time>2011-10-20T07:13:41Z</time>
  <speed>3.770000</speed>
</trkpt>
<trkpt lat="32.721515656" lon="35.010177612">
  <ele>230.946533</ele>
  <time>2011-10-20T07:13:42Z</time>
  <speed>3.990000</speed>
</trkpt>
<trkpt lat="32.721546173" lon="35.010162354">
  <ele>229.844971</ele>
  <time>2011-10-20T07:13:43Z</time>
  <speed>3.060000</speed>
</trkpt>
<trkpt lat="32.721572876" lon="35.010150909">
  <ele>229.657471</ele>
  <time>2011-10-20T07:13:44Z</time>
  <speed>3.460000</speed>
</trkpt>
<trkpt lat="32.721607208" lon="35.010139465">
  <ele>229.751221</ele>
  <time>2011-10-20T07:13:45Z</time>
  <speed>4.070000</speed>
</trkpt>
<trkpt lat="32.721641541" lon="35.010124207">
  <ele>229.548096</ele>
  <time>2011-10-20T07:13:46Z</time>
  <speed>4.090000</speed>
</trkpt>
<trkpt lat="32.721679688" lon="35.010116577">
  <ele>229.317627</ele>
  <time>2011-10-20T07:13:47Z</time>
  <speed>3.960000</speed>
</trkpt>
<trkpt lat="32.721706390" lon="35.010105133">
  <ele>229.348877</ele>
  <time>2011-10-20T07:13:48Z</time>
  <speed>3.360000</speed>
</trkpt>
<trkpt lat="32.721744537" lon="35.010097504">
  <ele>229.532471</ele>
  <time>2011-10-20T07:13:49Z</time>
  <speed>4.110000</speed>
</trkpt>
<trkpt lat="32.721782684" lon="35.010089874">
  <ele>228.520752</ele>
  <time>2011-10-20T07:13:50Z</time>
  <speed>4.340000</speed>
</trkpt>
<trkpt lat="32.721817017" lon="35.010093689">
  <ele>227.329346</ele>
  <time>2011-10-20T07:13:51Z</time>
  <speed>4.060000</speed>
</trkpt>
<trkpt lat="32.721855164" lon="35.010093689">
  <ele>227.903564</ele>
  <time>2011-10-20T07:13:52Z</time>
  <speed>3.980000</speed>
</trkpt>
<trkpt lat="32.721889496" lon="35.010093689">
  <ele>227.887939</ele>
  <time>2011-10-20T07:13:53Z</time>
  <speed>4.000000</speed>
</trkpt>
<trkpt lat="32.721923828" lon="35.010097504">
  <ele>227.469971</ele>
  <time>2011-10-20T07:13:54Z</time>
  <speed>3.410000</speed>
</trkpt>
<trkpt lat="32.721969604" lon="35.010089874">
  <ele>228.618408</ele>
  <time>2011-10-20T07:13:56Z</time>
  <speed>2.680000</speed>
</trkpt>
<trkpt lat="32.721996307" lon="35.010078430">
  <ele>228.149658</ele>
  <time>2011-10-20T07:13:57Z</time>
  <speed>2.810000</speed>
</trkpt>
<trkpt lat="32.722045898" lon="35.010055542">
  <ele>228.903564</ele>
  <time>2011-10-20T07:13:59Z</time>
  <speed>3.510000</speed>
</trkpt>
<trkpt lat="32.722080231" lon="35.010047913">
  <ele>228.329346</ele>
  <time>2011-10-20T07:14:00Z</time>
  <speed>3.770000</speed>
</trkpt>
<trkpt lat="32.722122192" lon="35.010040283">
  <ele>226.708252</ele>
  <time>2011-10-20T07:14:01Z</time>
  <speed>3.990000</speed>
</trkpt>
<trkpt lat="32.722152710" lon="35.010032654">
  <ele>227.239502</ele>
  <time>2011-10-20T07:14:02Z</time>
  <speed>3.390000</speed>
</trkpt>
<trkpt lat="32.722198486" lon="35.010036469">
  <ele>226.997314</ele>
  <time>2011-10-20T07:14:03Z</time>
  <speed>3.370000</speed>
</trkpt>
<trkpt lat="32.722229004" lon="35.010044098">
  <ele>226.989502</ele>
  <time>2011-10-20T07:14:04Z</time>
  <speed>3.500000</speed>
</trkpt>
<trkpt lat="32.722259521" lon="35.010051727">
  <ele>227.208252</ele>
  <time>2011-10-20T07:14:05Z</time>
  <speed>3.550000</speed>
</trkpt>
<trkpt lat="32.722301483" lon="35.010044098">
  <ele>227.684814</ele>
  <time>2011-10-20T07:14:07Z</time>
  <speed>3.110000</speed>
</trkpt>
<trkpt lat="32.722335815" lon="35.010040283">
  <ele>227.446533</ele>
  <time>2011-10-20T07:14:08Z</time>
  <speed>3.710000</speed>
</trkpt>
<trkpt lat="32.722377777" lon="35.010055542">
  <ele>225.759033</ele>
  <time>2011-10-20T07:14:09Z</time>
  <speed>3.660000</speed>
</trkpt>
<trkpt lat="32.722415924" lon="35.010066986">
  <ele>226.087158</ele>
  <time>2011-10-20T07:14:10Z</time>
  <speed>3.230000</speed>
</trkpt>
<trkpt lat="32.722442627" lon="35.010089874">
  <ele>225.825439</ele>
  <time>2011-10-20T07:14:11Z</time>
  <speed>2.250000</speed>
</trkpt>
<trkpt lat="32.722442627" lon="35.010116577">
  <ele>228.446533</ele>
  <time>2011-10-20T07:14:13Z</time>
  <speed>1.540000</speed>
</trkpt>
<trkpt lat="32.722423553" lon="35.010139465">
  <ele>229.278564</ele>
  <time>2011-10-20T07:14:15Z</time>
  <speed>0.850000</speed>
</trkpt>
<trkpt lat="32.722454071" lon="35.010166168">
  <ele>229.130127</ele>
  <time>2011-10-20T07:14:18Z</time>
  <speed>1.540000</speed>
</trkpt>
<trkpt lat="32.722496033" lon="35.010150909">
  <ele>229.192627</ele>
  <time>2011-10-20T07:14:21Z</time>
  <speed>1.760000</speed>
</trkpt>
<trkpt lat="32.722522736" lon="35.010105133">
  <ele>228.704346</ele>
  <time>2011-10-20T07:14:23Z</time>
  <speed>3.230000</speed>
</trkpt>
<trkpt lat="32.722537994" lon="35.010078430">
  <ele>228.005127</ele>
  <time>2011-10-20T07:14:24Z</time>
  <speed>3.740000</speed>
</trkpt>
<trkpt lat="32.722557068" lon="35.010036469">
  <ele>228.059814</ele>
  <time>2011-10-20T07:14:25Z</time>
  <speed>4.310000</speed>
</trkpt>
<trkpt lat="32.722587585" lon="35.010005951">
  <ele>227.571533</ele>
  <time>2011-10-20T07:14:26Z</time>
  <speed>4.320000</speed>
</trkpt>
<trkpt lat="32.722625732" lon="35.009979248">
  <ele>227.571533</ele>
  <time>2011-10-20T07:14:27Z</time>
  <speed>5.050000</speed>
</trkpt>
<trkpt lat="32.722667694" lon="35.009956360">
  <ele>227.813721</ele>
  <time>2011-10-20T07:14:28Z</time>
  <speed>5.190000</speed>
</trkpt>
<trkpt lat="32.722709656" lon="35.009937286">
  <ele>227.466064</ele>
  <time>2011-10-20T07:14:29Z</time>
  <speed>4.780000</speed>
</trkpt>
<trkpt lat="32.722743988" lon="35.009925842">
  <ele>226.591064</ele>
  <time>2011-10-20T07:14:30Z</time>
  <speed>3.820000</speed>
</trkpt>
<trkpt lat="32.722778320" lon="35.009914398">
  <ele>226.001221</ele>
  <time>2011-10-20T07:14:31Z</time>
  <speed>3.830000</speed>
</trkpt>
<trkpt lat="32.722808838" lon="35.009899139">
  <ele>225.657471</ele>
  <time>2011-10-20T07:14:32Z</time>
  <speed>3.510000</speed>
</trkpt>
<trkpt lat="32.722846985" lon="35.009899139">
  <ele>224.997314</ele>
  <time>2011-10-20T07:14:34Z</time>
  <speed>1.610000</speed>
</trkpt>
<trkpt lat="32.722846985" lon="35.009864807">
  <ele>224.052002</ele>
  <time>2011-10-20T07:16:33Z</time>
  <speed>0.210000</speed>
</trkpt>
<trkpt lat="32.722820282" lon="35.009876251">
  <ele>224.384033</ele>
  <time>2011-10-20T07:17:14Z</time>
  <speed>0.120000</speed>
</trkpt>
<trkpt lat="32.722801208" lon="35.009860992">
  <ele>225.137939</ele>
  <time>2011-10-20T07:17:36Z</time>
  <speed>0.330000</speed>
</trkpt>
<trkpt lat="32.722789764" lon="35.009830475">
  <ele>225.251221</ele>
  <time>2011-10-20T07:17:45Z</time>
  <speed>0.290000</speed>
</trkpt>
<trkpt lat="32.722785950" lon="35.009796143">
  <ele>225.243408</ele>
  <time>2011-10-20T07:17:57Z</time>
  <speed>0.250000</speed>
</trkpt>
<trkpt lat="32.722774506" lon="35.009765625">
  <ele>225.009033</ele>
  <time>2011-10-20T07:18:07Z</time>
  <speed>0.260000</speed>
</trkpt>
<trkpt lat="32.722785950" lon="35.009792328">
  <ele>223.434814</ele>
  <time>2011-10-20T07:18:28Z</time>
  <speed>0.360000</speed>
</trkpt>
<trkpt lat="32.722785950" lon="35.009822845">
  <ele>221.981689</ele>
  <time>2011-10-20T07:18:39Z</time>
  <speed>0.160000</speed>
</trkpt>
<trkpt lat="32.722789764" lon="35.009853363">
  <ele>220.341064</ele>
  <time>2011-10-20T07:18:49Z</time>
  <speed>0.300000</speed>
</trkpt>
<trkpt lat="32.722797394" lon="35.009891510">
  <ele>218.552002</ele>
  <time>2011-10-20T07:18:52Z</time>
  <speed>0.320000</speed>
</trkpt>
<trkpt lat="32.722816467" lon="35.009918213">
  <ele>217.704346</ele>
  <time>2011-10-20T07:18:56Z</time>
  <speed>0.300000</speed>
</trkpt>
<trkpt lat="32.722827911" lon="35.009952545">
  <ele>215.661377</ele>
  <time>2011-10-20T07:18:59Z</time>
  <speed>0.320000</speed>
</trkpt>
<trkpt lat="32.722850800" lon="35.009971619">
  <ele>214.708252</ele>
  <time>2011-10-20T07:19:02Z</time>
  <speed>0.280000</speed>
</trkpt>
<trkpt lat="32.722858429" lon="35.009990692">
  <ele>212.645752</ele>
  <time>2011-10-20T07:19:10Z</time>
  <speed>0.190000</speed>
</trkpt>
<trkpt lat="32.722869873" lon="35.010005951">
  <ele>210.173096</ele>
  <time>2011-10-20T07:19:21Z</time>
  <speed>0.070000</speed>
</trkpt>
<trkpt lat="32.722873688" lon="35.010009766">
  <ele>207.141846</ele>
  <time>2011-10-20T07:19:35Z</time>
  <speed>0.120000</speed>
</trkpt>
<trkpt lat="32.722877502" lon="35.010025024">
  <ele>204.313721</ele>
  <time>2011-10-20T07:19:49Z</time>
  <speed>0.050000</speed>
</trkpt>
<trkpt lat="32.722869873" lon="35.009994507">
  <ele>203.555908</ele>
  <time>2011-10-20T07:20:06Z</time>
  <speed>0.240000</speed>
</trkpt>
<trkpt lat="32.722866058" lon="35.009963989">
  <ele>205.118408</ele>
  <time>2011-10-20T07:20:18Z</time>
  <speed>0.160000</speed>
</trkpt>
<trkpt lat="32.722862244" lon="35.009895325">
  <ele>208.391846</ele>
  <time>2011-10-20T07:20:27Z</time>
  <speed>0.290000</speed>
</trkpt>
<trkpt lat="32.722873688" lon="35.009868622">
  <ele>210.290283</ele>
  <time>2011-10-20T07:20:29Z</time>
  <speed>0.270000</speed>
</trkpt>
<trkpt lat="32.722877502" lon="35.009849548">
  <ele>212.708252</ele>
  <time>2011-10-20T07:20:35Z</time>
  <speed>0.200000</speed>
</trkpt>
<trkpt lat="32.722881317" lon="35.009834290">
  <ele>215.649658</ele>
  <time>2011-10-20T07:20:44Z</time>
  <speed>0.070000</speed>
</trkpt>
<trkpt lat="32.722885132" lon="35.009822845">
  <ele>218.661377</ele>
  <time>2011-10-20T07:20:53Z</time>
  <speed>0.150000</speed>
</trkpt>
<trkpt lat="32.722877502" lon="35.009811401">
  <ele>221.544189</ele>
  <time>2011-10-20T07:21:03Z</time>
  <speed>0.040000</speed>
</trkpt>
<trkpt lat="32.722885132" lon="35.009819031">
  <ele>224.501221</ele>
  <time>2011-10-20T07:21:16Z</time>
  <speed>0.110000</speed>
</trkpt>
<trkpt lat="32.722888947" lon="35.009830475">
  <ele>227.348877</ele>
  <time>2011-10-20T07:21:29Z</time>
  <speed>0.110000</speed>
</trkpt>
<trkpt lat="32.722896576" lon="35.009830475">
  <ele>230.438721</ele>
  <time>2011-10-20T07:21:44Z</time>
  <speed>0.040000</speed>
</trkpt>
<trkpt lat="32.722888947" lon="35.009822845">
  <ele>233.356689</ele>
  <time>2011-10-20T07:21:55Z</time>
  <speed>0.090000</speed>
</trkpt>
<trkpt lat="32.722888947" lon="35.009819031">
  <ele>236.341064</ele>
  <time>2011-10-20T07:22:06Z</time>
  <speed>0.140000</speed>
</trkpt>
<trkpt lat="32.722881317" lon="35.009799957">
  <ele>238.977783</ele>
  <time>2011-10-20T07:22:16Z</time>
  <speed>0.280000</speed>
</trkpt>
<trkpt lat="32.722866058" lon="35.009788513">
  <ele>241.239502</ele>
  <time>2011-10-20T07:22:25Z</time>
  <speed>0.100000</speed>
</trkpt>
<trkpt lat="32.722866058" lon="35.009780884">
  <ele>244.231689</ele>
  <time>2011-10-20T07:22:41Z</time>
  <speed>0.100000</speed>
</trkpt>
<trkpt lat="32.722854614" lon="35.009761810">
  <ele>246.442627</ele>
  <time>2011-10-20T07:22:57Z</time>
  <speed>0.150000</speed>
</trkpt>
<trkpt lat="32.722843170" lon="35.009750366">
  <ele>249.098877</ele>
  <time>2011-10-20T07:23:18Z</time>
  <speed>0.110000</speed>
</trkpt>
<trkpt lat="32.722858429" lon="35.009723663">
  <ele>249.981689</ele>
  <time>2011-10-20T07:23:41Z</time>
  <speed>0.140000</speed>
</trkpt>
<trkpt lat="32.722858429" lon="35.009727478">
  <ele>246.688721</ele>
  <time>2011-10-20T07:23:57Z</time>
  <speed>0.150000</speed>
</trkpt>
<trkpt lat="32.722858429" lon="35.009742737">
  <ele>243.782471</ele>
  <time>2011-10-20T07:24:05Z</time>
  <speed>0.180000</speed>
</trkpt>
<trkpt lat="32.722858429" lon="35.009757996">
  <ele>240.848877</ele>
  <time>2011-10-20T07:24:14Z</time>
  <speed>0.100000</speed>
</trkpt>
<trkpt lat="32.722858429" lon="35.009769440">
  <ele>237.837158</ele>
  <time>2011-10-20T07:24:23Z</time>
  <speed>0.070000</speed>
</trkpt>
<trkpt lat="32.722858429" lon="35.009777069">
  <ele>234.739502</ele>
  <time>2011-10-20T07:24:32Z</time>
  <speed>0.100000</speed>
</trkpt>
<trkpt lat="32.722854614" lon="35.009788513">
  <ele>231.844971</ele>
  <time>2011-10-20T07:24:40Z</time>
  <speed>0.100000</speed>
</trkpt>
<trkpt lat="32.722854614" lon="35.009799957">
  <ele>228.915283</ele>
  <time>2011-10-20T07:24:50Z</time>
  <speed>0.080000</speed>
</trkpt>
<trkpt lat="32.722858429" lon="35.009822845">
  <ele>226.848877</ele>
  <time>2011-10-20T07:25:08Z</time>
  <speed>0.160000</speed>
</trkpt>
<trkpt lat="32.722858429" lon="35.009834290">
  <ele>229.790283</ele>
  <time>2011-10-20T07:25:36Z</time>
  <speed>0.090000</speed>
</trkpt>
<trkpt lat="32.722858429" lon="35.009841919">
  <ele>232.805908</ele>
  <time>2011-10-20T07:25:55Z</time>
  <speed>0.110000</speed>
</trkpt>
<trkpt lat="32.722846985" lon="35.009834290">
  <ele>235.559814</ele>
  <time>2011-10-20T07:26:13Z</time>
  <speed>0.070000</speed>
</trkpt>
<trkpt lat="32.722858429" lon="35.009838104">
  <ele>232.583252</ele>
  <time>2011-10-20T07:27:26Z</time>
  <speed>0.090000</speed>
</trkpt>
<trkpt lat="32.722869873" lon="35.009838104">
  <ele>229.762939</ele>
  <time>2011-10-20T07:27:36Z</time>
  <speed>0.110000</speed>
</trkpt>
<trkpt lat="32.722881317" lon="35.009841919">
  <ele>226.759033</ele>
  <time>2011-10-20T07:27:47Z</time>
  <speed>0.080000</speed>
</trkpt>
<trkpt lat="32.722881317" lon="35.009853363">
  <ele>223.774658</ele>
  <time>2011-10-20T07:27:57Z</time>
  <speed>0.130000</speed>
</trkpt>
<trkpt lat="32.722881317" lon="35.009864807">
  <ele>220.708252</ele>
  <time>2011-10-20T07:28:06Z</time>
  <speed>0.160000</speed>
</trkpt>
<trkpt lat="32.722885132" lon="35.009880066">
  <ele>217.727783</ele>
  <time>2011-10-20T07:28:14Z</time>
  <speed>0.170000</speed>
</trkpt>
<trkpt lat="32.722892761" lon="35.009895325">
  <ele>214.782471</ele>
  <time>2011-10-20T07:28:22Z</time>
  <speed>0.160000</speed>
</trkpt>
<trkpt lat="32.722900391" lon="35.009902954">
  <ele>211.919189</ele>
  <time>2011-10-20T07:28:30Z</time>
  <speed>0.120000</speed>
</trkpt>
<trkpt lat="32.722904205" lon="35.009902954">
  <ele>208.860596</ele>
  <time>2011-10-20T07:28:42Z</time>
  <speed>0.020000</speed>
</trkpt>
<trkpt lat="32.722923279" lon="35.009925842">
  <ele>208.524658</ele>
  <time>2011-10-20T07:29:07Z</time>
  <speed>0.050000</speed>
</trkpt>
<trkpt lat="32.722915649" lon="35.009929657">
  <ele>211.372314</ele>
  <time>2011-10-20T07:29:24Z</time>
  <speed>0.150000</speed>
</trkpt>
<trkpt lat="32.722904205" lon="35.009914398">
  <ele>213.618408</ele>
  <time>2011-10-20T07:29:35Z</time>
  <speed>0.120000</speed>
</trkpt>
<trkpt lat="32.722881317" lon="35.009880066">
  <ele>215.001221</ele>
  <time>2011-10-20T07:29:44Z</time>
  <speed>0.430000</speed>
</trkpt>
<trkpt lat="32.722850800" lon="35.009860992">
  <ele>215.837158</ele>
  <time>2011-10-20T07:29:47Z</time>
  <speed>0.490000</speed>
</trkpt>
<trkpt lat="32.722831726" lon="35.009834290">
  <ele>216.399658</ele>
  <time>2011-10-20T07:29:51Z</time>
  <speed>0.370000</speed>
</trkpt>
<trkpt lat="32.722812653" lon="35.009803772">
  <ele>216.286377</ele>
  <time>2011-10-20T07:29:54Z</time>
  <speed>1.490000</speed>
</trkpt>
<trkpt lat="32.722808838" lon="35.009773254">
  <ele>216.669189</ele>
  <time>2011-10-20T07:29:56Z</time>
  <speed>1.420000</speed>
</trkpt>
<trkpt lat="32.722801208" lon="35.009735107">
  <ele>217.427002</ele>
  <time>2011-10-20T07:29:58Z</time>
  <speed>1.800000</speed>
</trkpt>
<trkpt lat="32.722812653" lon="35.009677887">
  <ele>217.919189</ele>
  <time>2011-10-20T07:30:00Z</time>
  <speed>2.940000</speed>
</trkpt>
<trkpt lat="32.722831726" lon="35.009654999">
  <ele>218.598877</ele>
  <time>2011-10-20T07:30:01Z</time>
  <speed>3.070000</speed>
</trkpt>
<trkpt lat="32.722858429" lon="35.009635925">
  <ele>219.001221</ele>
  <time>2011-10-20T07:30:02Z</time>
  <speed>3.120000</speed>
</trkpt>
<trkpt lat="32.722881317" lon="35.009620667">
  <ele>219.423096</ele>
  <time>2011-10-20T07:30:03Z</time>
  <speed>3.280000</speed>
</trkpt>
<trkpt lat="32.722908020" lon="35.009613037">
  <ele>219.598877</ele>
  <time>2011-10-20T07:30:04Z</time>
  <speed>3.440000</speed>
</trkpt>
<trkpt lat="32.722942352" lon="35.009613037">
  <ele>219.313721</ele>
  <time>2011-10-20T07:30:05Z</time>
  <speed>3.760000</speed>
</trkpt>
<trkpt lat="32.722969055" lon="35.009613037">
  <ele>218.423096</ele>
  <time>2011-10-20T07:30:06Z</time>
  <speed>3.100000</speed>
</trkpt>
<trkpt lat="32.722999573" lon="35.009590149">
  <ele>219.688721</ele>
  <time>2011-10-20T07:30:08Z</time>
  <speed>1.390000</speed>
</trkpt>
<trkpt lat="32.723033905" lon="35.009582520">
  <ele>219.755127</ele>
  <time>2011-10-20T07:30:10Z</time>
  <speed>2.680000</speed>
</trkpt>
<trkpt lat="32.723068237" lon="35.009559631">
  <ele>220.446533</ele>
  <time>2011-10-20T07:30:12Z</time>
  <speed>2.000000</speed>
</trkpt>
<trkpt lat="32.723102570" lon="35.009552002">
  <ele>219.739502</ele>
  <time>2011-10-20T07:30:14Z</time>
  <speed>1.900000</speed>
</trkpt>
<trkpt lat="32.723133087" lon="35.009548187">
  <ele>219.837158</ele>
  <time>2011-10-20T07:30:16Z</time>
  <speed>1.710000</speed>
</trkpt>
<trkpt lat="32.723186493" lon="35.009548187">
  <ele>218.809814</ele>
  <time>2011-10-20T07:30:18Z</time>
  <speed>2.550000</speed>
</trkpt>
<trkpt lat="32.723220825" lon="35.009544373">
  <ele>219.876221</ele>
  <time>2011-10-20T07:30:20Z</time>
  <speed>2.350000</speed>
</trkpt>
<trkpt lat="32.723266602" lon="35.009548187">
  <ele>220.618408</ele>
  <time>2011-10-20T07:30:22Z</time>
  <speed>2.410000</speed>
</trkpt>
<trkpt lat="32.723308563" lon="35.009552002">
  <ele>221.520752</ele>
  <time>2011-10-20T07:30:24Z</time>
  <speed>2.480000</speed>
</trkpt>
<trkpt lat="32.723346710" lon="35.009559631">
  <ele>221.302002</ele>
  <time>2011-10-20T07:30:26Z</time>
  <speed>1.890000</speed>
</trkpt>
<trkpt lat="32.723384857" lon="35.009567261">
  <ele>220.977783</ele>
  <time>2011-10-20T07:30:28Z</time>
  <speed>2.380000</speed>
</trkpt>
<trkpt lat="32.723434448" lon="35.009563446">
  <ele>221.055908</ele>
  <time>2011-10-20T07:30:30Z</time>
  <speed>2.230000</speed>
</trkpt>
<trkpt lat="32.723480225" lon="35.009563446">
  <ele>220.731689</ele>
  <time>2011-10-20T07:30:32Z</time>
  <speed>1.500000</speed>
</trkpt>
<trkpt lat="32.723506927" lon="35.009555817">
  <ele>220.411377</ele>
  <time>2011-10-20T07:30:34Z</time>
  <speed>1.810000</speed>
</trkpt>
<trkpt lat="32.723533630" lon="35.009536743">
  <ele>221.075439</ele>
  <time>2011-10-20T07:30:36Z</time>
  <speed>1.920000</speed>
</trkpt>
<trkpt lat="32.723560333" lon="35.009506226">
  <ele>221.333252</ele>
  <time>2011-10-20T07:30:38Z</time>
  <speed>2.590000</speed>
</trkpt>
<trkpt lat="32.723587036" lon="35.009487152">
  <ele>221.333252</ele>
  <time>2011-10-20T07:30:39Z</time>
  <speed>2.780000</speed>
</trkpt>
<trkpt lat="32.723609924" lon="35.009468079">
  <ele>221.802002</ele>
  <time>2011-10-20T07:30:40Z</time>
  <speed>2.750000</speed>
</trkpt>
<trkpt lat="32.723632813" lon="35.009449005">
  <ele>222.114502</ele>
  <time>2011-10-20T07:30:41Z</time>
  <speed>2.960000</speed>
</trkpt>
<trkpt lat="32.723678589" lon="35.009407043">
  <ele>221.559814</ele>
  <time>2011-10-20T07:30:43Z</time>
  <speed>3.260000</speed>
</trkpt>
<trkpt lat="32.723701477" lon="35.009376526">
  <ele>221.473877</ele>
  <time>2011-10-20T07:30:44Z</time>
  <speed>3.620000</speed>
</trkpt>
<trkpt lat="32.723731995" lon="35.009357452">
  <ele>221.325439</ele>
  <time>2011-10-20T07:30:45Z</time>
  <speed>4.070000</speed>
</trkpt>
<trkpt lat="32.723773956" lon="35.009334564">
  <ele>221.313721</ele>
  <time>2011-10-20T07:30:46Z</time>
  <speed>4.450000</speed>
</trkpt>
<trkpt lat="32.723812103" lon="35.009311676">
  <ele>220.930908</ele>
  <time>2011-10-20T07:30:47Z</time>
  <speed>4.760000</speed>
</trkpt>
<trkpt lat="32.723854065" lon="35.009288788">
  <ele>221.247314</ele>
  <time>2011-10-20T07:30:48Z</time>
  <speed>4.980000</speed>
</trkpt>
<trkpt lat="32.723899841" lon="35.009273529">
  <ele>221.669189</ele>
  <time>2011-10-20T07:30:49Z</time>
  <speed>5.110000</speed>
</trkpt>
<trkpt lat="32.723945618" lon="35.009262085">
  <ele>221.423096</ele>
  <time>2011-10-20T07:30:50Z</time>
  <speed>5.310000</speed>
</trkpt>
<trkpt lat="32.723983765" lon="35.009250641">
  <ele>221.348877</ele>
  <time>2011-10-20T07:30:51Z</time>
  <speed>4.930000</speed>
</trkpt>
<trkpt lat="32.724025726" lon="35.009239197">
  <ele>221.446533</ele>
  <time>2011-10-20T07:30:52Z</time>
  <speed>4.870000</speed>
</trkpt>
<trkpt lat="32.724067688" lon="35.009223938">
  <ele>221.661377</ele>
  <time>2011-10-20T07:30:53Z</time>
  <speed>5.460000</speed>
</trkpt>
<trkpt lat="32.724113464" lon="35.009204865">
  <ele>221.509033</ele>
  <time>2011-10-20T07:30:54Z</time>
  <speed>5.350000</speed>
</trkpt>
<trkpt lat="32.724155426" lon="35.009189606">
  <ele>221.680908</ele>
  <time>2011-10-20T07:30:55Z</time>
  <speed>4.850000</speed>
</trkpt>
<trkpt lat="32.724201202" lon="35.009166718">
  <ele>221.774658</ele>
  <time>2011-10-20T07:30:56Z</time>
  <speed>5.010000</speed>
</trkpt>
<trkpt lat="32.724235535" lon="35.009147644">
  <ele>223.012939</ele>
  <time>2011-10-20T07:30:57Z</time>
  <speed>4.880000</speed>
</trkpt>
<trkpt lat="32.724277496" lon="35.009136200">
  <ele>223.048096</ele>
  <time>2011-10-20T07:30:58Z</time>
  <speed>5.010000</speed>
</trkpt>
<trkpt lat="32.724319458" lon="35.009124756">
  <ele>223.395752</ele>
  <time>2011-10-20T07:30:59Z</time>
  <speed>5.290000</speed>
</trkpt>
<trkpt lat="32.724365234" lon="35.009105682">
  <ele>222.938721</ele>
  <time>2011-10-20T07:31:00Z</time>
  <speed>5.300000</speed>
</trkpt>
<trkpt lat="32.724411011" lon="35.009090424">
  <ele>223.079346</ele>
  <time>2011-10-20T07:31:01Z</time>
  <speed>5.710000</speed>
</trkpt>
<trkpt lat="32.724464417" lon="35.009078979">
  <ele>223.180908</ele>
  <time>2011-10-20T07:31:02Z</time>
  <speed>5.950000</speed>
</trkpt>
<trkpt lat="32.724517822" lon="35.009063721">
  <ele>222.270752</ele>
  <time>2011-10-20T07:31:03Z</time>
  <speed>6.050000</speed>
</trkpt>
<trkpt lat="32.724571228" lon="35.009048462">
  <ele>221.844971</ele>
  <time>2011-10-20T07:31:04Z</time>
  <speed>6.060000</speed>
</trkpt>
<trkpt lat="32.724632263" lon="35.009033203">
  <ele>221.833252</ele>
  <time>2011-10-20T07:31:05Z</time>
  <speed>6.550000</speed>
</trkpt>
<trkpt lat="32.724681854" lon="35.009025574">
  <ele>221.239502</ele>
  <time>2011-10-20T07:31:06Z</time>
  <speed>5.810000</speed>
</trkpt>
<trkpt lat="32.724727631" lon="35.009017944">
  <ele>220.274658</ele>
  <time>2011-10-20T07:31:07Z</time>
  <speed>4.800000</speed>
</trkpt>
<trkpt lat="32.724769592" lon="35.009010315">
  <ele>219.864502</ele>
  <time>2011-10-20T07:31:08Z</time>
  <speed>3.840000</speed>
</trkpt>
<trkpt lat="32.724800110" lon="35.009002686">
  <ele>219.766846</ele>
  <time>2011-10-20T07:31:09Z</time>
  <speed>3.610000</speed>
</trkpt>
<trkpt lat="32.724830627" lon="35.008995056">
  <ele>219.520752</ele>
  <time>2011-10-20T07:31:10Z</time>
  <speed>3.290000</speed>
</trkpt>
<trkpt lat="32.724857330" lon="35.008998871">
  <ele>219.544189</ele>
  <time>2011-10-20T07:31:11Z</time>
  <speed>3.570000</speed>
</trkpt>
<trkpt lat="32.724895477" lon="35.008995056">
  <ele>219.602783</ele>
  <time>2011-10-20T07:31:12Z</time>
  <speed>3.710000</speed>
</trkpt>
<trkpt lat="32.724937439" lon="35.008998871">
  <ele>219.907471</ele>
  <time>2011-10-20T07:31:13Z</time>
  <speed>3.970000</speed>
</trkpt>
<trkpt lat="32.724979401" lon="35.008998871">
  <ele>221.192627</ele>
  <time>2011-10-20T07:31:14Z</time>
  <speed>4.060000</speed>
</trkpt>
<trkpt lat="32.725025177" lon="35.009002686">
  <ele>221.532471</ele>
  <time>2011-10-20T07:31:15Z</time>
  <speed>3.990000</speed>
</trkpt>
<trkpt lat="32.725063324" lon="35.009006500">
  <ele>221.782471</ele>
  <time>2011-10-20T07:31:16Z</time>
  <speed>3.810000</speed>
</trkpt>
<trkpt lat="32.725105286" lon="35.009010315">
  <ele>221.723877</ele>
  <time>2011-10-20T07:31:17Z</time>
  <speed>3.930000</speed>
</trkpt>
<trkpt lat="32.725139618" lon="35.009017944">
  <ele>221.649658</ele>
  <time>2011-10-20T07:31:18Z</time>
  <speed>3.810000</speed>
</trkpt>
<trkpt lat="32.725173950" lon="35.009017944">
  <ele>221.555908</ele>
  <time>2011-10-20T07:31:19Z</time>
  <speed>3.920000</speed>
</trkpt>
<trkpt lat="32.725208282" lon="35.009021759">
  <ele>221.466064</ele>
  <time>2011-10-20T07:31:20Z</time>
  <speed>3.930000</speed>
</trkpt>
<trkpt lat="32.725246429" lon="35.009025574">
  <ele>221.071533</ele>
  <time>2011-10-20T07:31:21Z</time>
  <speed>3.850000</speed>
</trkpt>
<trkpt lat="32.725284576" lon="35.009029388">
  <ele>221.024658</ele>
  <time>2011-10-20T07:31:22Z</time>
  <speed>3.760000</speed>
</trkpt>
<trkpt lat="32.725318909" lon="35.009029388">
  <ele>220.618408</ele>
  <time>2011-10-20T07:31:23Z</time>
  <speed>3.440000</speed>
</trkpt>
<trkpt lat="32.725345612" lon="35.009033203">
  <ele>220.692627</ele>
  <time>2011-10-20T07:31:24Z</time>
  <speed>3.280000</speed>
</trkpt>
<trkpt lat="32.725399017" lon="35.009044647">
  <ele>220.575439</ele>
  <time>2011-10-20T07:31:26Z</time>
  <speed>3.380000</speed>
</trkpt>
<trkpt lat="32.725429535" lon="35.009044647">
  <ele>220.653564</ele>
  <time>2011-10-20T07:31:27Z</time>
  <speed>3.150000</speed>
</trkpt>
<trkpt lat="32.725456238" lon="35.009048462">
  <ele>220.712158</ele>
  <time>2011-10-20T07:31:28Z</time>
  <speed>3.310000</speed>
</trkpt>
<trkpt lat="32.725490570" lon="35.009056091">
  <ele>220.446533</ele>
  <time>2011-10-20T07:31:29Z</time>
  <speed>3.310000</speed>
</trkpt>
<trkpt lat="32.725521088" lon="35.009056091">
  <ele>220.677002</ele>
  <time>2011-10-20T07:31:30Z</time>
  <speed>3.090000</speed>
</trkpt>
<trkpt lat="32.725551605" lon="35.009063721">
  <ele>220.938721</ele>
  <time>2011-10-20T07:31:31Z</time>
  <speed>2.800000</speed>
</trkpt>
<trkpt lat="32.725597382" lon="35.009071350">
  <ele>221.903564</ele>
  <time>2011-10-20T07:31:33Z</time>
  <speed>2.560000</speed>
</trkpt>
<trkpt lat="32.725639343" lon="35.009078979">
  <ele>222.083252</ele>
  <time>2011-10-20T07:31:35Z</time>
  <speed>2.520000</speed>
</trkpt>
<trkpt lat="32.725688934" lon="35.009090424">
  <ele>222.317627</ele>
  <time>2011-10-20T07:31:37Z</time>
  <speed>2.650000</speed>
</trkpt>
<trkpt lat="32.725727081" lon="35.009105682">
  <ele>222.118408</ele>
  <time>2011-10-20T07:31:39Z</time>
  <speed>2.420000</speed>
</trkpt>
<trkpt lat="32.725769043" lon="35.009117126">
  <ele>221.868408</ele>
  <time>2011-10-20T07:31:41Z</time>
  <speed>2.760000</speed>
</trkpt>
<trkpt lat="32.725811005" lon="35.009136200">
  <ele>222.501221</ele>
  <time>2011-10-20T07:31:43Z</time>
  <speed>2.510000</speed>
</trkpt>
<trkpt lat="32.725860596" lon="35.009151459">
  <ele>223.411377</ele>
  <time>2011-10-20T07:31:45Z</time>
  <speed>2.620000</speed>
</trkpt>
<trkpt lat="32.725906372" lon="35.009166718">
  <ele>224.028564</ele>
  <time>2011-10-20T07:31:47Z</time>
  <speed>2.600000</speed>
</trkpt>
<trkpt lat="32.725948334" lon="35.009189606">
  <ele>224.649658</ele>
  <time>2011-10-20T07:31:49Z</time>
  <speed>2.240000</speed>
</trkpt>
<trkpt lat="32.725986481" lon="35.009208679">
  <ele>225.341064</ele>
  <time>2011-10-20T07:31:51Z</time>
  <speed>2.310000</speed>
</trkpt>
<trkpt lat="32.726024628" lon="35.009223938">
  <ele>225.719971</ele>
  <time>2011-10-20T07:31:53Z</time>
  <speed>2.020000</speed>
</trkpt>
<trkpt lat="32.726058960" lon="35.009246826">
  <ele>226.911377</ele>
  <time>2011-10-20T07:31:55Z</time>
  <speed>2.030000</speed>
</trkpt>
<trkpt lat="32.726093292" lon="35.009262085">
  <ele>227.368408</ele>
  <time>2011-10-20T07:31:57Z</time>
  <speed>2.200000</speed>
</trkpt>
<trkpt lat="32.726127625" lon="35.009277344">
  <ele>228.309814</ele>
  <time>2011-10-20T07:31:59Z</time>
  <speed>2.360000</speed>
</trkpt>
<trkpt lat="32.726165771" lon="35.009296417">
  <ele>228.204346</ele>
  <time>2011-10-20T07:32:01Z</time>
  <speed>2.140000</speed>
</trkpt>
<trkpt lat="32.726200104" lon="35.009315491">
  <ele>228.696533</ele>
  <time>2011-10-20T07:32:03Z</time>
  <speed>2.050000</speed>
</trkpt>
<trkpt lat="32.726238251" lon="35.009338379">
  <ele>229.864502</ele>
  <time>2011-10-20T07:32:05Z</time>
  <speed>2.190000</speed>
</trkpt>
<trkpt lat="32.726280212" lon="35.009361267">
  <ele>231.438721</ele>
  <time>2011-10-20T07:32:07Z</time>
  <speed>2.410000</speed>
</trkpt>
<trkpt lat="32.726322174" lon="35.009384155">
  <ele>232.083252</ele>
  <time>2011-10-20T07:32:09Z</time>
  <speed>2.580000</speed>
</trkpt>
<trkpt lat="32.726360321" lon="35.009410858">
  <ele>232.403564</ele>
  <time>2011-10-20T07:32:11Z</time>
  <speed>2.340000</speed>
</trkpt>
<trkpt lat="32.726394653" lon="35.009433746">
  <ele>232.606689</ele>
  <time>2011-10-20T07:32:13Z</time>
  <speed>1.970000</speed>
</trkpt>
<trkpt lat="32.726428986" lon="35.009449005">
  <ele>232.751221</ele>
  <time>2011-10-20T07:32:15Z</time>
  <speed>1.840000</speed>
</trkpt>
<trkpt lat="32.726463318" lon="35.009468079">
  <ele>233.009033</ele>
  <time>2011-10-20T07:32:17Z</time>
  <speed>2.260000</speed>
</trkpt>
<trkpt lat="32.726490021" lon="35.009479523">
  <ele>233.501221</ele>
  <time>2011-10-20T07:32:18Z</time>
  <speed>2.530000</speed>
</trkpt>
<trkpt lat="32.726535797" lon="35.009502411">
  <ele>234.024658</ele>
  <time>2011-10-20T07:32:20Z</time>
  <speed>2.510000</speed>
</trkpt>
<trkpt lat="32.726581573" lon="35.009525299">
  <ele>234.161377</ele>
  <time>2011-10-20T07:32:22Z</time>
  <speed>2.080000</speed>
</trkpt>
<trkpt lat="32.726612091" lon="35.009540558">
  <ele>235.376221</ele>
  <time>2011-10-20T07:32:24Z</time>
  <speed>1.940000</speed>
</trkpt>
<trkpt lat="32.726657867" lon="35.009559631">
  <ele>235.532471</ele>
  <time>2011-10-20T07:32:26Z</time>
  <speed>2.170000</speed>
</trkpt>
<trkpt lat="32.726696014" lon="35.009586334">
  <ele>236.016846</ele>
  <time>2011-10-20T07:32:28Z</time>
  <speed>2.390000</speed>
</trkpt>
<trkpt lat="32.726726532" lon="35.009605408">
  <ele>235.020752</ele>
  <time>2011-10-20T07:32:30Z</time>
  <speed>2.080000</speed>
</trkpt>
<trkpt lat="32.726760864" lon="35.009624481">
  <ele>235.759033</ele>
  <time>2011-10-20T07:32:32Z</time>
  <speed>1.820000</speed>
</trkpt>
<trkpt lat="32.726787567" lon="35.009635925">
  <ele>235.630127</ele>
  <time>2011-10-20T07:32:34Z</time>
  <speed>2.050000</speed>
</trkpt>
<trkpt lat="32.726818085" lon="35.009658813">
  <ele>236.384033</ele>
  <time>2011-10-20T07:32:36Z</time>
  <speed>1.880000</speed>
</trkpt>
<trkpt lat="32.726856232" lon="35.009681702">
  <ele>236.997314</ele>
  <time>2011-10-20T07:32:38Z</time>
  <speed>2.000000</speed>
</trkpt>
<trkpt lat="32.726886749" lon="35.009700775">
  <ele>238.137939</ele>
  <time>2011-10-20T07:32:40Z</time>
  <speed>1.840000</speed>
</trkpt>
<trkpt lat="32.726909637" lon="35.009719849">
  <ele>238.309814</ele>
  <time>2011-10-20T07:32:42Z</time>
  <speed>1.570000</speed>
</trkpt>
<trkpt lat="32.726932526" lon="35.009742737">
  <ele>238.278564</ele>
  <time>2011-10-20T07:32:44Z</time>
  <speed>1.710000</speed>
</trkpt>
<trkpt lat="32.726959229" lon="35.009765625">
  <ele>238.626221</ele>
  <time>2011-10-20T07:32:46Z</time>
  <speed>1.910000</speed>
</trkpt>
<trkpt lat="32.726982117" lon="35.009792328">
  <ele>239.348877</ele>
  <time>2011-10-20T07:32:48Z</time>
  <speed>1.560000</speed>
</trkpt>
<trkpt lat="32.727001190" lon="35.009819031">
  <ele>239.645752</ele>
  <time>2011-10-20T07:32:51Z</time>
  <speed>1.630000</speed>
</trkpt>
<trkpt lat="32.727024078" lon="35.009853363">
  <ele>239.637939</ele>
  <time>2011-10-20T07:32:53Z</time>
  <speed>1.910000</speed>
</trkpt>
<trkpt lat="32.727046967" lon="35.009864807">
  <ele>240.196533</ele>
  <time>2011-10-20T07:32:55Z</time>
  <speed>1.770000</speed>
</trkpt>
<trkpt lat="32.727073669" lon="35.009895325">
  <ele>240.524658</ele>
  <time>2011-10-20T07:32:57Z</time>
  <speed>1.600000</speed>
</trkpt>
<trkpt lat="32.727096558" lon="35.009922028">
  <ele>241.505127</ele>
  <time>2011-10-20T07:32:59Z</time>
  <speed>1.500000</speed>
</trkpt>
<trkpt lat="32.727115631" lon="35.009952545">
  <ele>241.899658</ele>
  <time>2011-10-20T07:33:01Z</time>
  <speed>1.560000</speed>
</trkpt>
<trkpt lat="32.727130890" lon="35.009983063">
  <ele>242.173096</ele>
  <time>2011-10-20T07:33:03Z</time>
  <speed>1.520000</speed>
</trkpt>
<trkpt lat="32.727146149" lon="35.010009766">
  <ele>242.626221</ele>
  <time>2011-10-20T07:33:05Z</time>
  <speed>1.690000</speed>
</trkpt>
<trkpt lat="32.727165222" lon="35.010040283">
  <ele>243.219971</ele>
  <time>2011-10-20T07:33:07Z</time>
  <speed>1.740000</speed>
</trkpt>
<trkpt lat="32.727176666" lon="35.010074615">
  <ele>242.887939</ele>
  <time>2011-10-20T07:33:09Z</time>
  <speed>1.600000</speed>
</trkpt>
<trkpt lat="32.727191925" lon="35.010105133">
  <ele>243.469971</ele>
  <time>2011-10-20T07:33:11Z</time>
  <speed>1.620000</speed>
</trkpt>
<trkpt lat="32.727199554" lon="35.010147095">
  <ele>243.813721</ele>
  <time>2011-10-20T07:33:13Z</time>
  <speed>1.630000</speed>
</trkpt>
<trkpt lat="32.727214813" lon="35.010181427">
  <ele>244.544189</ele>
  <time>2011-10-20T07:33:15Z</time>
  <speed>1.630000</speed>
</trkpt>
<trkpt lat="32.727233887" lon="35.010215759">
  <ele>245.157471</ele>
  <time>2011-10-20T07:33:17Z</time>
  <speed>1.720000</speed>
</trkpt>
<trkpt lat="32.727245331" lon="35.010242462">
  <ele>246.012939</ele>
  <time>2011-10-20T07:33:19Z</time>
  <speed>1.520000</speed>
</trkpt>
<trkpt lat="32.727256775" lon="35.010280609">
  <ele>246.110596</ele>
  <time>2011-10-20T07:33:21Z</time>
  <speed>1.900000</speed>
</trkpt>
<trkpt lat="32.727283478" lon="35.010311127">
  <ele>246.247314</ele>
  <time>2011-10-20T07:33:23Z</time>
  <speed>2.290000</speed>
</trkpt>
<trkpt lat="32.727298737" lon="35.010341644">
  <ele>246.391846</ele>
  <time>2011-10-20T07:33:25Z</time>
  <speed>1.490000</speed>
</trkpt>
<trkpt lat="32.727294922" lon="35.010375977">
  <ele>246.173096</ele>
  <time>2011-10-20T07:33:28Z</time>
  <speed>1.240000</speed>
</trkpt>
<trkpt lat="32.727321625" lon="35.010417938">
  <ele>246.895752</ele>
  <time>2011-10-20T07:33:31Z</time>
  <speed>2.150000</speed>
</trkpt>
<trkpt lat="32.727355957" lon="35.010433197">
  <ele>246.942627</ele>
  <time>2011-10-20T07:33:33Z</time>
  <speed>2.380000</speed>
</trkpt>
<trkpt lat="32.727390289" lon="35.010433197">
  <ele>247.262939</ele>
  <time>2011-10-20T07:33:35Z</time>
  <speed>1.770000</speed>
</trkpt>
<trkpt lat="32.727436066" lon="35.010429382">
  <ele>247.466064</ele>
  <time>2011-10-20T07:33:38Z</time>
  <speed>1.700000</speed>
</trkpt>
<trkpt lat="32.727470398" lon="35.010410309">
  <ele>248.856689</ele>
  <time>2011-10-20T07:33:40Z</time>
  <speed>1.960000</speed>
</trkpt>
<trkpt lat="32.727497101" lon="35.010387421">
  <ele>249.493408</ele>
  <time>2011-10-20T07:33:42Z</time>
  <speed>2.230000</speed>
</trkpt>
<trkpt lat="32.727527618" lon="35.010372162">
  <ele>249.067627</ele>
  <time>2011-10-20T07:33:44Z</time>
  <speed>1.790000</speed>
</trkpt>
<trkpt lat="32.727565765" lon="35.010353088">
  <ele>248.759033</ele>
  <time>2011-10-20T07:33:46Z</time>
  <speed>1.890000</speed>
</trkpt>
<trkpt lat="32.727603912" lon="35.010326385">
  <ele>248.696533</ele>
  <time>2011-10-20T07:33:48Z</time>
  <speed>2.540000</speed>
</trkpt>
<trkpt lat="32.727630615" lon="35.010288239">
  <ele>248.391846</ele>
  <time>2011-10-20T07:33:50Z</time>
  <speed>1.780000</speed>
</trkpt>
<trkpt lat="32.727649689" lon="35.010261536">
  <ele>247.719971</ele>
  <time>2011-10-20T07:33:52Z</time>
  <speed>1.290000</speed>
</trkpt>
<trkpt lat="32.727680206" lon="35.010250092">
  <ele>247.930908</ele>
  <time>2011-10-20T07:33:54Z</time>
  <speed>1.530000</speed>
</trkpt>
<trkpt lat="32.727703094" lon="35.010234833">
  <ele>248.548096</ele>
  <time>2011-10-20T07:33:56Z</time>
  <speed>1.400000</speed>
</trkpt>
<trkpt lat="32.727729797" lon="35.010223389">
  <ele>249.669189</ele>
  <time>2011-10-20T07:33:58Z</time>
  <speed>1.400000</speed>
</trkpt>
<trkpt lat="32.727764130" lon="35.010215759">
  <ele>250.673096</ele>
  <time>2011-10-20T07:34:01Z</time>
  <speed>1.250000</speed>
</trkpt>
<trkpt lat="32.727787018" lon="35.010208130">
  <ele>251.895752</ele>
  <time>2011-10-20T07:34:04Z</time>
  <speed>1.440000</speed>
</trkpt>
<trkpt lat="32.727817535" lon="35.010200500">
  <ele>252.161377</ele>
  <time>2011-10-20T07:34:07Z</time>
  <speed>1.190000</speed>
</trkpt>
<trkpt lat="32.727836609" lon="35.010181427">
  <ele>253.630127</ele>
  <time>2011-10-20T07:34:09Z</time>
  <speed>1.750000</speed>
</trkpt>
<trkpt lat="32.727863312" lon="35.010177612">
  <ele>253.880127</ele>
  <time>2011-10-20T07:34:12Z</time>
  <speed>1.160000</speed>
</trkpt>
<trkpt lat="32.727893829" lon="35.010158539">
  <ele>255.106689</ele>
  <time>2011-10-20T07:34:15Z</time>
  <speed>1.090000</speed>
</trkpt>
<trkpt lat="32.727935791" lon="35.010147095">
  <ele>255.903564</ele>
  <time>2011-10-20T07:34:17Z</time>
  <speed>1.890000</speed>
</trkpt>
<trkpt lat="32.727966309" lon="35.010131836">
  <ele>256.814941</ele>
  <time>2011-10-20T07:34:19Z</time>
  <speed>1.750000</speed>
</trkpt>
<trkpt lat="32.728000641" lon="35.010116577">
  <ele>256.963379</ele>
  <time>2011-10-20T07:34:21Z</time>
  <speed>1.350000</speed>
</trkpt>
<trkpt lat="32.728012085" lon="35.010078430">
  <ele>256.791504</ele>
  <time>2011-10-20T07:34:24Z</time>
  <speed>1.440000</speed>
</trkpt>
<trkpt lat="32.728019714" lon="35.010047913">
  <ele>257.400879</ele>
  <time>2011-10-20T07:34:26Z</time>
  <speed>1.500000</speed>
</trkpt>
<trkpt lat="32.728027344" lon="35.010002136">
  <ele>258.846191</ele>
  <time>2011-10-20T07:34:28Z</time>
  <speed>1.390000</speed>
</trkpt>
<trkpt lat="32.728027344" lon="35.009960175">
  <ele>260.002441</ele>
  <time>2011-10-20T07:34:30Z</time>
  <speed>1.480000</speed>
</trkpt>
<trkpt lat="32.728034973" lon="35.009925842">
  <ele>260.791504</ele>
  <time>2011-10-20T07:34:32Z</time>
  <speed>1.430000</speed>
</trkpt>
<trkpt lat="32.728038788" lon="35.009887695">
  <ele>261.096191</ele>
  <time>2011-10-20T07:34:34Z</time>
  <speed>1.590000</speed>
</trkpt>
<trkpt lat="32.728034973" lon="35.009841919">
  <ele>260.533691</ele>
  <time>2011-10-20T07:34:37Z</time>
  <speed>1.360000</speed>
</trkpt>
<trkpt lat="32.728031158" lon="35.009796143">
  <ele>260.408691</ele>
  <time>2011-10-20T07:34:40Z</time>
  <speed>1.600000</speed>
</trkpt>
<trkpt lat="32.728008270" lon="35.009754181">
  <ele>260.229004</ele>
  <time>2011-10-20T07:34:43Z</time>
  <speed>1.630000</speed>
</trkpt>
<trkpt lat="32.727996826" lon="35.009723663">
  <ele>260.564941</ele>
  <time>2011-10-20T07:34:45Z</time>
  <speed>1.630000</speed>
</trkpt>
<trkpt lat="32.727985382" lon="35.009689331">
  <ele>260.260254</ele>
  <time>2011-10-20T07:34:47Z</time>
  <speed>1.750000</speed>
</trkpt>
<trkpt lat="32.727973938" lon="35.009658813">
  <ele>259.752441</ele>
  <time>2011-10-20T07:34:49Z</time>
  <speed>1.440000</speed>
</trkpt>
<trkpt lat="32.727962494" lon="35.009624481">
  <ele>259.299316</ele>
  <time>2011-10-20T07:34:51Z</time>
  <speed>1.420000</speed>
</trkpt>
<trkpt lat="32.727951050" lon="35.009593964">
  <ele>259.260254</ele>
  <time>2011-10-20T07:34:53Z</time>
  <speed>1.360000</speed>
</trkpt>
<trkpt lat="32.727939606" lon="35.009559631">
  <ele>258.947754</ele>
  <time>2011-10-20T07:34:56Z</time>
  <speed>1.440000</speed>
</trkpt>
<trkpt lat="32.727924347" lon="35.009529114">
  <ele>258.322754</ele>
  <time>2011-10-20T07:34:58Z</time>
  <speed>1.680000</speed>
</trkpt>
<trkpt lat="32.727912903" lon="35.009490967">
  <ele>259.697754</ele>
  <time>2011-10-20T07:35:00Z</time>
  <speed>1.420000</speed>
</trkpt>
<trkpt lat="32.727920532" lon="35.009456635">
  <ele>260.830566</ele>
  <time>2011-10-20T07:35:02Z</time>
  <speed>1.270000</speed>
</trkpt>
<trkpt lat="32.727928162" lon="35.009422302">
  <ele>260.799316</ele>
  <time>2011-10-20T07:35:04Z</time>
  <speed>1.600000</speed>
</trkpt>
<trkpt lat="32.727924347" lon="35.009387970">
  <ele>260.947754</ele>
  <time>2011-10-20T07:35:06Z</time>
  <speed>1.330000</speed>
</trkpt>
<trkpt lat="32.727924347" lon="35.009346008">
  <ele>261.213379</ele>
  <time>2011-10-20T07:35:09Z</time>
  <speed>1.350000</speed>
</trkpt>
<trkpt lat="32.727928162" lon="35.009307861">
  <ele>262.299316</ele>
  <time>2011-10-20T07:35:11Z</time>
  <speed>1.480000</speed>
</trkpt>
<trkpt lat="32.727935791" lon="35.009262085">
  <ele>263.596191</ele>
  <time>2011-10-20T07:35:14Z</time>
  <speed>1.620000</speed>
</trkpt>
<trkpt lat="32.727947235" lon="35.009223938">
  <ele>265.111816</ele>
  <time>2011-10-20T07:35:16Z</time>
  <speed>1.520000</speed>
</trkpt>
<trkpt lat="32.727954865" lon="35.009193420">
  <ele>265.971191</ele>
  <time>2011-10-20T07:35:18Z</time>
  <speed>1.530000</speed>
</trkpt>
<trkpt lat="32.727962494" lon="35.009159088">
  <ele>268.025879</ele>
  <time>2011-10-20T07:35:20Z</time>
  <speed>1.470000</speed>
</trkpt>
<trkpt lat="32.727977753" lon="35.009113312">
  <ele>270.627441</ele>
  <time>2011-10-20T07:35:23Z</time>
  <speed>1.280000</speed>
</trkpt>
<trkpt lat="32.727989197" lon="35.009078979">
  <ele>270.971191</ele>
  <time>2011-10-20T07:35:26Z</time>
  <speed>1.540000</speed>
</trkpt>
<trkpt lat="32.727981567" lon="35.009040833">
  <ele>271.143066</ele>
  <time>2011-10-20T07:35:29Z</time>
  <speed>1.200000</speed>
</trkpt>
<trkpt lat="32.727989197" lon="35.009010315">
  <ele>272.744629</ele>
  <time>2011-10-20T07:35:31Z</time>
  <speed>1.040000</speed>
</trkpt>
<trkpt lat="32.728008270" lon="35.008987427">
  <ele>273.291504</ele>
  <time>2011-10-20T07:35:33Z</time>
  <speed>1.490000</speed>
</trkpt>
<trkpt lat="32.728008270" lon="35.008953094">
  <ele>273.830566</ele>
  <time>2011-10-20T07:35:35Z</time>
  <speed>1.650000</speed>
</trkpt>
<trkpt lat="32.728015900" lon="35.008914948">
  <ele>274.041504</ele>
  <time>2011-10-20T07:35:38Z</time>
  <speed>1.410000</speed>
</trkpt>
<trkpt lat="32.728027344" lon="35.008872986">
  <ele>273.932129</ele>
  <time>2011-10-20T07:35:41Z</time>
  <speed>1.470000</speed>
</trkpt>
<trkpt lat="32.728038788" lon="35.008831024">
  <ele>274.205566</ele>
  <time>2011-10-20T07:35:44Z</time>
  <speed>1.390000</speed>
</trkpt>
<trkpt lat="32.728038788" lon="35.008789063">
  <ele>275.314941</ele>
  <time>2011-10-20T07:35:47Z</time>
  <speed>1.340000</speed>
</trkpt>
<trkpt lat="32.728034973" lon="35.008743286">
  <ele>277.463379</ele>
  <time>2011-10-20T07:35:50Z</time>
  <speed>0.960000</speed>
</trkpt>
<trkpt lat="32.728038788" lon="35.008712769">
  <ele>278.369629</ele>
  <time>2011-10-20T07:35:52Z</time>
  <speed>1.550000</speed>
</trkpt>
<trkpt lat="32.728050232" lon="35.008663177">
  <ele>278.518066</ele>
  <time>2011-10-20T07:35:55Z</time>
  <speed>1.240000</speed>
</trkpt>
<trkpt lat="32.728042603" lon="35.008621216">
  <ele>278.330566</ele>
  <time>2011-10-20T07:35:58Z</time>
  <speed>1.190000</speed>
</trkpt>
<trkpt lat="32.728034973" lon="35.008586884">
  <ele>279.002441</ele>
  <time>2011-10-20T07:36:01Z</time>
  <speed>1.110000</speed>
</trkpt>
<trkpt lat="32.728042603" lon="35.008541107">
  <ele>279.244629</ele>
  <time>2011-10-20T07:36:05Z</time>
  <speed>1.170000</speed>
</trkpt>
<trkpt lat="32.728042603" lon="35.008510590">
  <ele>279.916504</ele>
  <time>2011-10-20T07:36:07Z</time>
  <speed>1.380000</speed>
</trkpt>
<trkpt lat="32.728042603" lon="35.008464813">
  <ele>279.611816</ele>
  <time>2011-10-20T07:36:10Z</time>
  <speed>1.610000</speed>
</trkpt>
<trkpt lat="32.728034973" lon="35.008422852">
  <ele>279.924316</ele>
  <time>2011-10-20T07:36:13Z</time>
  <speed>1.460000</speed>
</trkpt>
<trkpt lat="32.728031158" lon="35.008373260">
  <ele>280.643066</ele>
  <time>2011-10-20T07:36:16Z</time>
  <speed>1.420000</speed>
</trkpt>
<trkpt lat="32.728031158" lon="35.008335114">
  <ele>281.049316</ele>
  <time>2011-10-20T07:36:19Z</time>
  <speed>1.260000</speed>
</trkpt>
<trkpt lat="32.728031158" lon="35.008300781">
  <ele>280.236816</ele>
  <time>2011-10-20T07:36:22Z</time>
  <speed>1.240000</speed>
</trkpt>
<trkpt lat="32.728034973" lon="35.008270264">
  <ele>281.260254</ele>
  <time>2011-10-20T07:36:24Z</time>
  <speed>1.310000</speed>
</trkpt>
<trkpt lat="32.728042603" lon="35.008224487">
  <ele>281.580566</ele>
  <time>2011-10-20T07:36:27Z</time>
  <speed>1.100000</speed>
</trkpt>
<trkpt lat="32.728050232" lon="35.008182526">
  <ele>282.463379</ele>
  <time>2011-10-20T07:36:30Z</time>
  <speed>1.370000</speed>
</trkpt>
<trkpt lat="32.728057861" lon="35.008144379">
  <ele>282.502441</ele>
  <time>2011-10-20T07:36:32Z</time>
  <speed>1.280000</speed>
</trkpt>
<trkpt lat="32.728065491" lon="35.008098602">
  <ele>283.518066</ele>
  <time>2011-10-20T07:36:35Z</time>
  <speed>1.550000</speed>
</trkpt>
<trkpt lat="32.728065491" lon="35.008064270">
  <ele>284.377441</ele>
  <time>2011-10-20T07:36:37Z</time>
  <speed>1.100000</speed>
</trkpt>
<trkpt lat="32.728054047" lon="35.008018494">
  <ele>283.689941</ele>
  <time>2011-10-20T07:36:40Z</time>
  <speed>1.400000</speed>
</trkpt>
<trkpt lat="32.728054047" lon="35.007987976">
  <ele>282.846191</ele>
  <time>2011-10-20T07:36:42Z</time>
  <speed>1.320000</speed>
</trkpt>
<trkpt lat="32.728054047" lon="35.007942200">
  <ele>282.549316</ele>
  <time>2011-10-20T07:36:45Z</time>
  <speed>1.310000</speed>
</trkpt>
<trkpt lat="32.728061676" lon="35.007907867">
  <ele>282.775879</ele>
  <time>2011-10-20T07:36:47Z</time>
  <speed>1.530000</speed>
</trkpt>
<trkpt lat="32.728065491" lon="35.007877350">
  <ele>282.533691</ele>
  <time>2011-10-20T07:36:49Z</time>
  <speed>1.680000</speed>
</trkpt>
<trkpt lat="32.728057861" lon="35.007843018">
  <ele>282.018066</ele>
  <time>2011-10-20T07:36:51Z</time>
  <speed>1.460000</speed>
</trkpt>
<trkpt lat="32.728050232" lon="35.007808685">
  <ele>279.666504</ele>
  <time>2011-10-20T07:36:54Z</time>
  <speed>1.540000</speed>
</trkpt>
<trkpt lat="32.728050232" lon="35.007770538">
  <ele>278.041504</ele>
  <time>2011-10-20T07:36:57Z</time>
  <speed>1.530000</speed>
</trkpt>
<trkpt lat="32.728046417" lon="35.007732391">
  <ele>277.244629</ele>
  <time>2011-10-20T07:36:59Z</time>
  <speed>1.570000</speed>
</trkpt>
<trkpt lat="32.728038788" lon="35.007694244">
  <ele>276.861816</ele>
  <time>2011-10-20T07:37:01Z</time>
  <speed>1.760000</speed>
</trkpt>
<trkpt lat="32.728031158" lon="35.007663727">
  <ele>275.525879</ele>
  <time>2011-10-20T07:37:03Z</time>
  <speed>2.260000</speed>
</trkpt>
<trkpt lat="32.728019714" lon="35.007625580">
  <ele>274.260254</ele>
  <time>2011-10-20T07:37:05Z</time>
  <speed>2.070000</speed>
</trkpt>
<trkpt lat="32.728012085" lon="35.007575989">
  <ele>273.150879</ele>
  <time>2011-10-20T07:37:07Z</time>
  <speed>2.710000</speed>
</trkpt>
<trkpt lat="32.728008270" lon="35.007545471">
  <ele>272.596191</ele>
  <time>2011-10-20T07:37:08Z</time>
  <speed>3.020000</speed>
</trkpt>
<trkpt lat="32.728004456" lon="35.007514954">
  <ele>272.018066</ele>
  <time>2011-10-20T07:37:09Z</time>
  <speed>2.710000</speed>
</trkpt>
<trkpt lat="32.727993011" lon="35.007484436">
  <ele>271.236816</ele>
  <time>2011-10-20T07:37:10Z</time>
  <speed>3.200000</speed>
</trkpt>
<trkpt lat="32.727977753" lon="35.007450104">
  <ele>270.580566</ele>
  <time>2011-10-20T07:37:11Z</time>
  <speed>3.330000</speed>
</trkpt>
<trkpt lat="32.727966309" lon="35.007415771">
  <ele>269.986816</ele>
  <time>2011-10-20T07:37:12Z</time>
  <speed>3.320000</speed>
</trkpt>
<trkpt lat="32.727954865" lon="35.007381439">
  <ele>269.518066</ele>
  <time>2011-10-20T07:37:13Z</time>
  <speed>2.980000</speed>
</trkpt>
<trkpt lat="32.727939606" lon="35.007347107">
  <ele>268.963379</ele>
  <time>2011-10-20T07:37:14Z</time>
  <speed>3.520000</speed>
</trkpt>
<trkpt lat="32.727924347" lon="35.007320404">
  <ele>268.197754</ele>
  <time>2011-10-20T07:37:15Z</time>
  <speed>3.190000</speed>
</trkpt>
<trkpt lat="32.727909088" lon="35.007289886">
  <ele>267.666504</ele>
  <time>2011-10-20T07:37:16Z</time>
  <speed>3.160000</speed>
</trkpt>
<trkpt lat="32.727893829" lon="35.007259369">
  <ele>267.002441</ele>
  <time>2011-10-20T07:37:17Z</time>
  <speed>3.100000</speed>
</trkpt>
<trkpt lat="32.727874756" lon="35.007198334">
  <ele>266.236816</ele>
  <time>2011-10-20T07:37:19Z</time>
  <speed>3.000000</speed>
</trkpt>
<trkpt lat="32.727863312" lon="35.007167816">
  <ele>265.557129</ele>
  <time>2011-10-20T07:37:20Z</time>
  <speed>2.780000</speed>
</trkpt>
<trkpt lat="32.727840424" lon="35.007110596">
  <ele>265.213379</ele>
  <time>2011-10-20T07:37:22Z</time>
  <speed>2.670000</speed>
</trkpt>
<trkpt lat="32.727825165" lon="35.007076263">
  <ele>265.416504</ele>
  <time>2011-10-20T07:37:23Z</time>
  <speed>2.830000</speed>
</trkpt>
<trkpt lat="32.727813721" lon="35.007022858">
  <ele>263.736816</ele>
  <time>2011-10-20T07:37:25Z</time>
  <speed>2.880000</speed>
</trkpt>
<trkpt lat="32.727798462" lon="35.006965637">
  <ele>262.705566</ele>
  <time>2011-10-20T07:37:27Z</time>
  <speed>2.580000</speed>
</trkpt>
<trkpt lat="32.727783203" lon="35.006912231">
  <ele>262.104004</ele>
  <time>2011-10-20T07:37:29Z</time>
  <speed>2.700000</speed>
</trkpt>
<trkpt lat="32.727771759" lon="35.006858826">
  <ele>261.643066</ele>
  <time>2011-10-20T07:37:31Z</time>
  <speed>2.480000</speed>
</trkpt>
<trkpt lat="32.727764130" lon="35.006809235">
  <ele>261.416504</ele>
  <time>2011-10-20T07:37:33Z</time>
  <speed>2.810000</speed>
</trkpt>
<trkpt lat="32.727745056" lon="35.006748199">
  <ele>260.822754</ele>
  <time>2011-10-20T07:37:35Z</time>
  <speed>2.670000</speed>
</trkpt>
<trkpt lat="32.727722168" lon="35.006694794">
  <ele>260.197754</ele>
  <time>2011-10-20T07:37:37Z</time>
  <speed>2.590000</speed>
</trkpt>
<trkpt lat="32.727703094" lon="35.006649017">
  <ele>259.971191</ele>
  <time>2011-10-20T07:37:39Z</time>
  <speed>2.770000</speed>
</trkpt>
<trkpt lat="32.727691650" lon="35.006614685">
  <ele>259.580566</ele>
  <time>2011-10-20T07:37:40Z</time>
  <speed>3.490000</speed>
</trkpt>
<trkpt lat="32.727672577" lon="35.006580353">
  <ele>259.713379</ele>
  <time>2011-10-20T07:37:41Z</time>
  <speed>3.140000</speed>
</trkpt>
<trkpt lat="32.727649689" lon="35.006553650">
  <ele>259.916504</ele>
  <time>2011-10-20T07:37:42Z</time>
  <speed>2.830000</speed>
</trkpt>
<trkpt lat="32.727626801" lon="35.006538391">
  <ele>259.682129</ele>
  <time>2011-10-20T07:37:43Z</time>
  <speed>2.620000</speed>
</trkpt>
<trkpt lat="32.727584839" lon="35.006504059">
  <ele>258.947754</ele>
  <time>2011-10-20T07:37:45Z</time>
  <speed>2.890000</speed>
</trkpt>
<trkpt lat="32.727558136" lon="35.006477356">
  <ele>259.869629</ele>
  <time>2011-10-20T07:37:46Z</time>
  <speed>2.900000</speed>
</trkpt>
<trkpt lat="32.727531433" lon="35.006454468">
  <ele>261.143066</ele>
  <time>2011-10-20T07:37:47Z</time>
  <speed>2.710000</speed>
</trkpt>
<trkpt lat="32.727500916" lon="35.006435394">
  <ele>262.822754</ele>
  <time>2011-10-20T07:37:48Z</time>
  <speed>3.020000</speed>
</trkpt>
<trkpt lat="32.727474213" lon="35.006420135">
  <ele>263.869629</ele>
  <time>2011-10-20T07:37:49Z</time>
  <speed>2.770000</speed>
</trkpt>
<trkpt lat="32.727458954" lon="35.006404877">
  <ele>266.197754</ele>
  <time>2011-10-20T07:37:50Z</time>
  <speed>2.610000</speed>
</trkpt>
<trkpt lat="32.727420807" lon="35.006393433">
  <ele>266.197754</ele>
  <time>2011-10-20T07:37:52Z</time>
  <speed>2.260000</speed>
</trkpt>
<trkpt lat="32.727375031" lon="35.006374359">
  <ele>265.361816</ele>
  <time>2011-10-20T07:37:54Z</time>
  <speed>2.340000</speed>
</trkpt>
<trkpt lat="32.727333069" lon="35.006351471">
  <ele>264.557129</ele>
  <time>2011-10-20T07:37:56Z</time>
  <speed>2.340000</speed>
</trkpt>
<trkpt lat="32.727302551" lon="35.006317139">
  <ele>264.150879</ele>
  <time>2011-10-20T07:37:58Z</time>
  <speed>2.270000</speed>
</trkpt>
<trkpt lat="32.727268219" lon="35.006282806">
  <ele>265.432129</ele>
  <time>2011-10-20T07:38:00Z</time>
  <speed>2.530000</speed>
</trkpt>
<trkpt lat="32.727245331" lon="35.006237030">
  <ele>266.580566</ele>
  <time>2011-10-20T07:38:02Z</time>
  <speed>2.440000</speed>
</trkpt>
<trkpt lat="32.727237701" lon="35.006187439">
  <ele>267.518066</ele>
  <time>2011-10-20T07:38:04Z</time>
  <speed>2.130000</speed>
</trkpt>
<trkpt lat="32.727226257" lon="35.006130219">
  <ele>268.994629</ele>
  <time>2011-10-20T07:38:06Z</time>
  <speed>2.880000</speed>
</trkpt>
<trkpt lat="32.727222443" lon="35.006095886">
  <ele>268.729004</ele>
  <time>2011-10-20T07:38:07Z</time>
  <speed>3.220000</speed>
</trkpt>
<trkpt lat="32.727214813" lon="35.006057739">
  <ele>268.463379</ele>
  <time>2011-10-20T07:38:08Z</time>
  <speed>3.470000</speed>
</trkpt>
<trkpt lat="32.727210999" lon="35.006011963">
  <ele>268.385254</ele>
  <time>2011-10-20T07:38:09Z</time>
  <speed>4.110000</speed>
</trkpt>
<trkpt lat="32.727210999" lon="35.005958557">
  <ele>269.111816</ele>
  <time>2011-10-20T07:38:10Z</time>
  <speed>4.690000</speed>
</trkpt>
<trkpt lat="32.727210999" lon="35.005901337">
  <ele>268.963379</ele>
  <time>2011-10-20T07:38:11Z</time>
  <speed>5.530000</speed>
</trkpt>
<trkpt lat="32.727222443" lon="35.005840302">
  <ele>270.807129</ele>
  <time>2011-10-20T07:38:12Z</time>
  <speed>6.240000</speed>
</trkpt>
<trkpt lat="32.727233887" lon="35.005767822">
  <ele>271.041504</ele>
  <time>2011-10-20T07:38:13Z</time>
  <speed>6.670000</speed>
</trkpt>
<trkpt lat="32.727249146" lon="35.005691528">
  <ele>271.744629</ele>
  <time>2011-10-20T07:38:14Z</time>
  <speed>6.540000</speed>
</trkpt>
<trkpt lat="32.727268219" lon="35.005626678">
  <ele>272.025879</ele>
  <time>2011-10-20T07:38:15Z</time>
  <speed>5.950000</speed>
</trkpt>
<trkpt lat="32.727279663" lon="35.005565643">
  <ele>271.994629</ele>
  <time>2011-10-20T07:38:16Z</time>
  <speed>5.450000</speed>
</trkpt>
<trkpt lat="32.727291107" lon="35.005512238">
  <ele>272.182129</ele>
  <time>2011-10-20T07:38:17Z</time>
  <speed>5.030000</speed>
</trkpt>
<trkpt lat="32.727298737" lon="35.005458832">
  <ele>272.955566</ele>
  <time>2011-10-20T07:38:18Z</time>
  <speed>3.800000</speed>
</trkpt>
<trkpt lat="32.727302551" lon="35.005424500">
  <ele>273.447754</ele>
  <time>2011-10-20T07:38:19Z</time>
  <speed>3.350000</speed>
</trkpt>
<trkpt lat="32.727310181" lon="35.005371094">
  <ele>276.619629</ele>
  <time>2011-10-20T07:38:20Z</time>
  <speed>3.050000</speed>
</trkpt>
<trkpt lat="32.727317810" lon="35.005340576">
  <ele>277.885254</ele>
  <time>2011-10-20T07:38:21Z</time>
  <speed>2.740000</speed>
</trkpt>
<trkpt lat="32.727317810" lon="35.005279541">
  <ele>277.643066</ele>
  <time>2011-10-20T07:38:23Z</time>
  <speed>2.750000</speed>
</trkpt>
<trkpt lat="32.727321625" lon="35.005233765">
  <ele>279.854004</ele>
  <time>2011-10-20T07:38:24Z</time>
  <speed>2.730000</speed>
</trkpt>
<trkpt lat="32.727317810" lon="35.005157471">
  <ele>280.760254</ele>
  <time>2011-10-20T07:38:26Z</time>
  <speed>2.750000</speed>
</trkpt>
<trkpt lat="32.727325439" lon="35.005096436">
  <ele>280.744629</ele>
  <time>2011-10-20T07:38:28Z</time>
  <speed>2.790000</speed>
</trkpt>
<trkpt lat="32.727321625" lon="35.005043030">
  <ele>279.900879</ele>
  <time>2011-10-20T07:38:30Z</time>
  <speed>2.610000</speed>
</trkpt>
<trkpt lat="32.727313995" lon="35.004989624">
  <ele>280.072754</ele>
  <time>2011-10-20T07:38:32Z</time>
  <speed>2.410000</speed>
</trkpt>
<trkpt lat="32.727310181" lon="35.004928589">
  <ele>281.385254</ele>
  <time>2011-10-20T07:38:34Z</time>
  <speed>2.600000</speed>
</trkpt>
<trkpt lat="32.727306366" lon="35.004875183">
  <ele>280.471191</ele>
  <time>2011-10-20T07:38:36Z</time>
  <speed>2.750000</speed>
</trkpt>
<trkpt lat="32.727313995" lon="35.004814148">
  <ele>281.166504</ele>
  <time>2011-10-20T07:38:38Z</time>
  <speed>2.740000</speed>
</trkpt>
<trkpt lat="32.727321625" lon="35.004783630">
  <ele>281.338379</ele>
  <time>2011-10-20T07:38:39Z</time>
  <speed>2.770000</speed>
</trkpt>
<trkpt lat="32.727325439" lon="35.004726410">
  <ele>281.729004</ele>
  <time>2011-10-20T07:38:41Z</time>
  <speed>2.290000</speed>
</trkpt>
<trkpt lat="32.727317810" lon="35.004665375">
  <ele>281.971191</ele>
  <time>2011-10-20T07:38:43Z</time>
  <speed>2.480000</speed>
</trkpt>
<trkpt lat="32.727306366" lon="35.004611969">
  <ele>281.354004</ele>
  <time>2011-10-20T07:38:45Z</time>
  <speed>2.540000</speed>
</trkpt>
<trkpt lat="32.727294922" lon="35.004558563">
  <ele>280.619629</ele>
  <time>2011-10-20T07:38:47Z</time>
  <speed>2.580000</speed>
</trkpt>
<trkpt lat="32.727291107" lon="35.004505157">
  <ele>281.744629</ele>
  <time>2011-10-20T07:38:49Z</time>
  <speed>2.730000</speed>
</trkpt>
<trkpt lat="32.727287292" lon="35.004470825">
  <ele>283.236816</ele>
  <time>2011-10-20T07:38:50Z</time>
  <speed>2.580000</speed>
</trkpt>
<trkpt lat="32.727283478" lon="35.004417419">
  <ele>284.189941</ele>
  <time>2011-10-20T07:38:52Z</time>
  <speed>2.550000</speed>
</trkpt>
<trkpt lat="32.727283478" lon="35.004360199">
  <ele>284.846191</ele>
  <time>2011-10-20T07:38:54Z</time>
  <speed>2.640000</speed>
</trkpt>
<trkpt lat="32.727279663" lon="35.004302979">
  <ele>284.611816</ele>
  <time>2011-10-20T07:38:56Z</time>
  <speed>2.680000</speed>
</trkpt>
<trkpt lat="32.727279663" lon="35.004272461">
  <ele>285.807129</ele>
  <time>2011-10-20T07:38:57Z</time>
  <speed>2.640000</speed>
</trkpt>
<trkpt lat="32.727272034" lon="35.004207611">
  <ele>287.088379</ele>
  <time>2011-10-20T07:38:59Z</time>
  <speed>2.400000</speed>
</trkpt>
<trkpt lat="32.727268219" lon="35.004154205">
  <ele>287.830566</ele>
  <time>2011-10-20T07:39:01Z</time>
  <speed>2.650000</speed>
</trkpt>
<trkpt lat="32.727264404" lon="35.004104614">
  <ele>289.104004</ele>
  <time>2011-10-20T07:39:03Z</time>
  <speed>2.410000</speed>
</trkpt>
<trkpt lat="32.727264404" lon="35.004047394">
  <ele>291.111816</ele>
  <time>2011-10-20T07:39:05Z</time>
  <speed>2.500000</speed>
</trkpt>
<trkpt lat="32.727268219" lon="35.003993988">
  <ele>292.049316</ele>
  <time>2011-10-20T07:39:07Z</time>
  <speed>2.380000</speed>
</trkpt>
<trkpt lat="32.727268219" lon="35.003944397">
  <ele>292.666504</ele>
  <time>2011-10-20T07:39:09Z</time>
  <speed>2.350000</speed>
</trkpt>
<trkpt lat="32.727252960" lon="35.003887177">
  <ele>292.838379</ele>
  <time>2011-10-20T07:39:11Z</time>
  <speed>2.660000</speed>
</trkpt>
<trkpt lat="32.727233887" lon="35.003841400">
  <ele>292.111816</ele>
  <time>2011-10-20T07:39:13Z</time>
  <speed>2.070000</speed>
</trkpt>
<trkpt lat="32.727218628" lon="35.003803253">
  <ele>291.330566</ele>
  <time>2011-10-20T07:39:15Z</time>
  <speed>2.160000</speed>
</trkpt>
<trkpt lat="32.727218628" lon="35.003753662">
  <ele>291.135254</ele>
  <time>2011-10-20T07:39:17Z</time>
  <speed>2.410000</speed>
</trkpt>
<trkpt lat="32.727207184" lon="35.003711700">
  <ele>288.783691</ele>
  <time>2011-10-20T07:39:19Z</time>
  <speed>2.610000</speed>
</trkpt>
<trkpt lat="32.727191925" lon="35.003658295">
  <ele>288.861816</ele>
  <time>2011-10-20T07:39:21Z</time>
  <speed>2.280000</speed>
</trkpt>
<trkpt lat="32.727184296" lon="35.003612518">
  <ele>287.908691</ele>
  <time>2011-10-20T07:39:23Z</time>
  <speed>2.520000</speed>
</trkpt>
<trkpt lat="32.727180481" lon="35.003555298">
  <ele>288.088379</ele>
  <time>2011-10-20T07:39:25Z</time>
  <speed>2.360000</speed>
</trkpt>
<trkpt lat="32.727180481" lon="35.003501892">
  <ele>288.611816</ele>
  <time>2011-10-20T07:39:27Z</time>
  <speed>2.560000</speed>
</trkpt>
<trkpt lat="32.727180481" lon="35.003448486">
  <ele>289.088379</ele>
  <time>2011-10-20T07:39:29Z</time>
  <speed>2.230000</speed>
</trkpt>
<trkpt lat="32.727180481" lon="35.003391266">
  <ele>289.604004</ele>
  <time>2011-10-20T07:39:31Z</time>
  <speed>2.540000</speed>
</trkpt>
<trkpt lat="32.727184296" lon="35.003334045">
  <ele>290.025879</ele>
  <time>2011-10-20T07:39:33Z</time>
  <speed>2.450000</speed>
</trkpt>
<trkpt lat="32.727184296" lon="35.003280640">
  <ele>289.479004</ele>
  <time>2011-10-20T07:39:35Z</time>
  <speed>2.390000</speed>
</trkpt>
<trkpt lat="32.727184296" lon="35.003246307">
  <ele>289.713379</ele>
  <time>2011-10-20T07:39:36Z</time>
  <speed>2.580000</speed>
</trkpt>
<trkpt lat="32.727188110" lon="35.003189087">
  <ele>289.635254</ele>
  <time>2011-10-20T07:39:38Z</time>
  <speed>2.550000</speed>
</trkpt>
<trkpt lat="32.727191925" lon="35.003154755">
  <ele>290.729004</ele>
  <time>2011-10-20T07:39:39Z</time>
  <speed>2.430000</speed>
</trkpt>
<trkpt lat="32.727199554" lon="35.003124237">
  <ele>291.760254</ele>
  <time>2011-10-20T07:39:40Z</time>
  <speed>2.460000</speed>
</trkpt>
<trkpt lat="32.727210999" lon="35.003074646">
  <ele>291.947754</ele>
  <time>2011-10-20T07:39:42Z</time>
  <speed>2.240000</speed>
</trkpt>
<trkpt lat="32.727226257" lon="35.003032684">
  <ele>290.213379</ele>
  <time>2011-10-20T07:39:44Z</time>
  <speed>2.130000</speed>
</trkpt>
<trkpt lat="32.727233887" lon="35.002979279">
  <ele>290.822754</ele>
  <time>2011-10-20T07:39:46Z</time>
  <speed>2.260000</speed>
</trkpt>
<trkpt lat="32.727237701" lon="35.002948761">
  <ele>290.955566</ele>
  <time>2011-10-20T07:39:47Z</time>
  <speed>2.510000</speed>
</trkpt>
<trkpt lat="32.727245331" lon="35.002895355">
  <ele>290.189941</ele>
  <time>2011-10-20T07:39:49Z</time>
  <speed>2.450000</speed>
</trkpt>
<trkpt lat="32.727256775" lon="35.002864838">
  <ele>291.033691</ele>
  <time>2011-10-20T07:39:50Z</time>
  <speed>2.400000</speed>
</trkpt>
<trkpt lat="32.727264404" lon="35.002834320">
  <ele>291.486816</ele>
  <time>2011-10-20T07:39:51Z</time>
  <speed>2.310000</speed>
</trkpt>
<trkpt lat="32.727279663" lon="35.002780914">
  <ele>291.057129</ele>
  <time>2011-10-20T07:39:53Z</time>
  <speed>2.370000</speed>
</trkpt>
<trkpt lat="32.727294922" lon="35.002735138">
  <ele>290.807129</ele>
  <time>2011-10-20T07:39:55Z</time>
  <speed>2.340000</speed>
</trkpt>
<trkpt lat="32.727313995" lon="35.002708435">
  <ele>291.057129</ele>
  <time>2011-10-20T07:39:56Z</time>
  <speed>2.980000</speed>
</trkpt>
<trkpt lat="32.727333069" lon="35.002681732">
  <ele>290.729004</ele>
  <time>2011-10-20T07:39:57Z</time>
  <speed>3.280000</speed>
</trkpt>
<trkpt lat="32.727352142" lon="35.002643585">
  <ele>292.729004</ele>
  <time>2011-10-20T07:39:58Z</time>
  <speed>3.540000</speed>
</trkpt>
<trkpt lat="32.727371216" lon="35.002609253">
  <ele>293.049316</ele>
  <time>2011-10-20T07:39:59Z</time>
  <speed>3.830000</speed>
</trkpt>
<trkpt lat="32.727394104" lon="35.002574921">
  <ele>293.275879</ele>
  <time>2011-10-20T07:40:00Z</time>
  <speed>3.980000</speed>
</trkpt>
<trkpt lat="32.727413177" lon="35.002536774">
  <ele>293.385254</ele>
  <time>2011-10-20T07:40:01Z</time>
  <speed>4.150000</speed>
</trkpt>
<trkpt lat="32.727432251" lon="35.002502441">
  <ele>292.994629</ele>
  <time>2011-10-20T07:40:02Z</time>
  <speed>4.090000</speed>
</trkpt>
<trkpt lat="32.727451324" lon="35.002468109">
  <ele>293.041504</ele>
  <time>2011-10-20T07:40:03Z</time>
  <speed>3.810000</speed>
</trkpt>
<trkpt lat="32.727470398" lon="35.002429962">
  <ele>292.533691</ele>
  <time>2011-10-20T07:40:04Z</time>
  <speed>4.090000</speed>
</trkpt>
<trkpt lat="32.727493286" lon="35.002391815">
  <ele>292.229004</ele>
  <time>2011-10-20T07:40:05Z</time>
  <speed>4.220000</speed>
</trkpt>
<trkpt lat="32.727512360" lon="35.002349854">
  <ele>291.807129</ele>
  <time>2011-10-20T07:40:06Z</time>
  <speed>5.000000</speed>
</trkpt>
<trkpt lat="32.727542877" lon="35.002304077">
  <ele>291.111816</ele>
  <time>2011-10-20T07:40:07Z</time>
  <speed>5.560000</speed>
</trkpt>
<trkpt lat="32.727577209" lon="35.002246857">
  <ele>290.635254</ele>
  <time>2011-10-20T07:40:08Z</time>
  <speed>6.250000</speed>
</trkpt>
<trkpt lat="32.727611542" lon="35.002193451">
  <ele>289.713379</ele>
  <time>2011-10-20T07:40:09Z</time>
  <speed>6.440000</speed>
</trkpt>
<trkpt lat="32.727645874" lon="35.002143860">
  <ele>289.291504</ele>
  <time>2011-10-20T07:40:10Z</time>
  <speed>6.620000</speed>
</trkpt>
<trkpt lat="32.727684021" lon="35.002098083">
  <ele>289.307129</ele>
  <time>2011-10-20T07:40:11Z</time>
  <speed>7.070000</speed>
</trkpt>
<trkpt lat="32.727729797" lon="35.002048492">
  <ele>288.791504</ele>
  <time>2011-10-20T07:40:12Z</time>
  <speed>7.080000</speed>
</trkpt>
<trkpt lat="32.727775574" lon="35.002002716">
  <ele>288.791504</ele>
  <time>2011-10-20T07:40:13Z</time>
  <speed>6.720000</speed>
</trkpt>
<trkpt lat="32.727828979" lon="35.001968384">
  <ele>288.346191</ele>
  <time>2011-10-20T07:40:14Z</time>
  <speed>6.610000</speed>
</trkpt>
<trkpt lat="32.727882385" lon="35.001941681">
  <ele>287.838379</ele>
  <time>2011-10-20T07:40:15Z</time>
  <speed>6.110000</speed>
</trkpt>
<trkpt lat="32.727935791" lon="35.001922607">
  <ele>288.283691</ele>
  <time>2011-10-20T07:40:16Z</time>
  <speed>6.270000</speed>
</trkpt>
<trkpt lat="32.727989197" lon="35.001911163">
  <ele>288.025879</ele>
  <time>2011-10-20T07:40:17Z</time>
  <speed>5.970000</speed>
</trkpt>
<trkpt lat="32.728038788" lon="35.001903534">
  <ele>288.236816</ele>
  <time>2011-10-20T07:40:18Z</time>
  <speed>5.360000</speed>
</trkpt>
<trkpt lat="32.728084564" lon="35.001907349">
  <ele>288.408691</ele>
  <time>2011-10-20T07:40:19Z</time>
  <speed>4.820000</speed>
</trkpt>
<trkpt lat="32.728122711" lon="35.001907349">
  <ele>288.010254</ele>
  <time>2011-10-20T07:40:20Z</time>
  <speed>4.510000</speed>
</trkpt>
<trkpt lat="32.728160858" lon="35.001903534">
  <ele>288.439941</ele>
  <time>2011-10-20T07:40:21Z</time>
  <speed>4.160000</speed>
</trkpt>
<trkpt lat="32.728191376" lon="35.001899719">
  <ele>289.182129</ele>
  <time>2011-10-20T07:40:22Z</time>
  <speed>3.410000</speed>
</trkpt>
<trkpt lat="32.728221893" lon="35.001899719">
  <ele>289.400879</ele>
  <time>2011-10-20T07:40:23Z</time>
  <speed>3.290000</speed>
</trkpt>
<trkpt lat="32.728252411" lon="35.001892090">
  <ele>290.088379</ele>
  <time>2011-10-20T07:40:24Z</time>
  <speed>3.590000</speed>
</trkpt>
<trkpt lat="32.728282928" lon="35.001880646">
  <ele>290.611816</ele>
  <time>2011-10-20T07:40:25Z</time>
  <speed>4.310000</speed>
</trkpt>
<trkpt lat="32.728317261" lon="35.001873016">
  <ele>290.838379</ele>
  <time>2011-10-20T07:40:26Z</time>
  <speed>4.300000</speed>
</trkpt>
<trkpt lat="32.728351593" lon="35.001857758">
  <ele>290.393066</ele>
  <time>2011-10-20T07:40:27Z</time>
  <speed>4.020000</speed>
</trkpt>
<trkpt lat="32.728382111" lon="35.001842499">
  <ele>291.018066</ele>
  <time>2011-10-20T07:40:28Z</time>
  <speed>4.370000</speed>
</trkpt>
<trkpt lat="32.728420258" lon="35.001815796">
  <ele>291.057129</ele>
  <time>2011-10-20T07:40:29Z</time>
  <speed>4.990000</speed>
</trkpt>
<trkpt lat="32.728466034" lon="35.001781464">
  <ele>291.260254</ele>
  <time>2011-10-20T07:40:30Z</time>
  <speed>4.450000</speed>
</trkpt>
<trkpt lat="32.728504181" lon="35.001747131">
  <ele>291.213379</ele>
  <time>2011-10-20T07:40:31Z</time>
  <speed>3.920000</speed>
</trkpt>
<trkpt lat="32.728530884" lon="35.001712799">
  <ele>291.658691</ele>
  <time>2011-10-20T07:40:32Z</time>
  <speed>3.570000</speed>
</trkpt>
<trkpt lat="32.728549957" lon="35.001674652">
  <ele>291.932129</ele>
  <time>2011-10-20T07:40:33Z</time>
  <speed>3.550000</speed>
</trkpt>
<trkpt lat="32.728557587" lon="35.001636505">
  <ele>292.143066</ele>
  <time>2011-10-20T07:40:34Z</time>
  <speed>3.360000</speed>
</trkpt>
<trkpt lat="32.728561401" lon="35.001602173">
  <ele>292.729004</ele>
  <time>2011-10-20T07:40:35Z</time>
  <speed>3.140000</speed>
</trkpt>
<trkpt lat="32.728569031" lon="35.001564026">
  <ele>292.822754</ele>
  <time>2011-10-20T07:40:36Z</time>
  <speed>3.460000</speed>
</trkpt>
<trkpt lat="32.728580475" lon="35.001529694">
  <ele>293.439941</ele>
  <time>2011-10-20T07:40:37Z</time>
  <speed>3.550000</speed>
</trkpt>
<trkpt lat="32.728588104" lon="35.001491547">
  <ele>293.893066</ele>
  <time>2011-10-20T07:40:38Z</time>
  <speed>4.280000</speed>
</trkpt>
<trkpt lat="32.728595734" lon="35.001445770">
  <ele>293.760254</ele>
  <time>2011-10-20T07:40:39Z</time>
  <speed>4.640000</speed>
</trkpt>
<trkpt lat="32.728607178" lon="35.001399994">
  <ele>294.275879</ele>
  <time>2011-10-20T07:40:40Z</time>
  <speed>4.960000</speed>
</trkpt>
<trkpt lat="32.728618622" lon="35.001350403">
  <ele>294.666504</ele>
  <time>2011-10-20T07:40:41Z</time>
  <speed>5.210000</speed>
</trkpt>
<trkpt lat="32.728637695" lon="35.001300812">
  <ele>295.236816</ele>
  <time>2011-10-20T07:40:42Z</time>
  <speed>5.070000</speed>
</trkpt>
<trkpt lat="32.728652954" lon="35.001247406">
  <ele>296.299316</ele>
  <time>2011-10-20T07:40:43Z</time>
  <speed>5.210000</speed>
</trkpt>
<trkpt lat="32.728668213" lon="35.001201630">
  <ele>295.768066</ele>
  <time>2011-10-20T07:40:44Z</time>
  <speed>5.100000</speed>
</trkpt>
<trkpt lat="32.728687286" lon="35.001155853">
  <ele>296.018066</ele>
  <time>2011-10-20T07:40:45Z</time>
  <speed>5.100000</speed>
</trkpt>
<trkpt lat="32.728702545" lon="35.001117706">
  <ele>295.439941</ele>
  <time>2011-10-20T07:40:46Z</time>
  <speed>4.970000</speed>
</trkpt>
<trkpt lat="32.728721619" lon="35.001071930">
  <ele>295.799316</ele>
  <time>2011-10-20T07:40:47Z</time>
  <speed>4.950000</speed>
</trkpt>
<trkpt lat="32.728744507" lon="35.001037598">
  <ele>295.619629</ele>
  <time>2011-10-20T07:40:48Z</time>
  <speed>4.940000</speed>
</trkpt>
<trkpt lat="32.728771210" lon="35.000999451">
  <ele>296.150879</ele>
  <time>2011-10-20T07:40:49Z</time>
  <speed>4.790000</speed>
</trkpt>
<trkpt lat="32.728797913" lon="35.000965118">
  <ele>295.924316</ele>
  <time>2011-10-20T07:40:50Z</time>
  <speed>5.100000</speed>
</trkpt>
<trkpt lat="32.728824615" lon="35.000923157">
  <ele>296.518066</ele>
  <time>2011-10-20T07:40:51Z</time>
  <speed>5.330000</speed>
</trkpt>
<trkpt lat="32.728855133" lon="35.000885010">
  <ele>297.822754</ele>
  <time>2011-10-20T07:40:52Z</time>
  <speed>5.320000</speed>
</trkpt>
<trkpt lat="32.728885651" lon="35.000843048">
  <ele>298.814941</ele>
  <time>2011-10-20T07:40:53Z</time>
  <speed>5.830000</speed>
</trkpt>
<trkpt lat="32.728919983" lon="35.000801086">
  <ele>298.354004</ele>
  <time>2011-10-20T07:40:54Z</time>
  <speed>6.490000</speed>
</trkpt>
<trkpt lat="32.728954315" lon="35.000751495">
  <ele>299.338379</ele>
  <time>2011-10-20T07:40:55Z</time>
  <speed>6.180000</speed>
</trkpt>
<trkpt lat="32.728981018" lon="35.000713348">
  <ele>299.018066</ele>
  <time>2011-10-20T07:40:56Z</time>
  <speed>5.680000</speed>
</trkpt>
<trkpt lat="32.729003906" lon="35.000667572">
  <ele>299.760254</ele>
  <time>2011-10-20T07:40:57Z</time>
  <speed>5.490000</speed>
</trkpt>
<trkpt lat="32.729003906" lon="35.000629425">
  <ele>299.416504</ele>
  <time>2011-10-20T07:40:58Z</time>
  <speed>4.710000</speed>
</trkpt>
<trkpt lat="32.729003906" lon="35.000587463">
  <ele>299.361816</ele>
  <time>2011-10-20T07:40:59Z</time>
  <speed>4.280000</speed>
</trkpt>
<trkpt lat="32.728988647" lon="35.000545502">
  <ele>300.221191</ele>
  <time>2011-10-20T07:41:00Z</time>
  <speed>4.010000</speed>
</trkpt>
<trkpt lat="32.728969574" lon="35.000514984">
  <ele>300.893066</ele>
  <time>2011-10-20T07:41:01Z</time>
  <speed>4.040000</speed>
</trkpt>
<trkpt lat="32.728950500" lon="35.000484467">
  <ele>300.361816</ele>
  <time>2011-10-20T07:41:02Z</time>
  <speed>4.530000</speed>
</trkpt>
<trkpt lat="32.728931427" lon="35.000453949">
  <ele>298.518066</ele>
  <time>2011-10-20T07:41:04Z</time>
  <speed>3.550000</speed>
</trkpt>
<trkpt lat="32.728912354" lon="35.000423431">
  <ele>298.502441</ele>
  <time>2011-10-20T07:41:05Z</time>
  <speed>3.810000</speed>
</trkpt>
<trkpt lat="32.728904724" lon="35.000389099">
  <ele>298.721191</ele>
  <time>2011-10-20T07:41:06Z</time>
  <speed>3.720000</speed>
</trkpt>
<trkpt lat="32.728893280" lon="35.000350952">
  <ele>299.525879</ele>
  <time>2011-10-20T07:41:07Z</time>
  <speed>4.090000</speed>
</trkpt>
<trkpt lat="32.728878021" lon="35.000316620">
  <ele>299.533691</ele>
  <time>2011-10-20T07:41:08Z</time>
  <speed>3.850000</speed>
</trkpt>
<trkpt lat="32.728862762" lon="35.000282288">
  <ele>299.596191</ele>
  <time>2011-10-20T07:41:09Z</time>
  <speed>3.960000</speed>
</trkpt>
<trkpt lat="32.728855133" lon="35.000244141">
  <ele>299.299316</ele>
  <time>2011-10-20T07:41:10Z</time>
  <speed>4.100000</speed>
</trkpt>
<trkpt lat="32.728843689" lon="35.000205994">
  <ele>299.135254</ele>
  <time>2011-10-20T07:41:11Z</time>
  <speed>4.060000</speed>
</trkpt>
<trkpt lat="32.728836060" lon="35.000164032">
  <ele>299.564941</ele>
  <time>2011-10-20T07:41:12Z</time>
  <speed>4.040000</speed>
</trkpt>
<trkpt lat="32.728824615" lon="35.000125885">
  <ele>299.830566</ele>
  <time>2011-10-20T07:41:13Z</time>
  <speed>3.770000</speed>
</trkpt>
<trkpt lat="32.728820801" lon="35.000091553">
  <ele>300.400879</ele>
  <time>2011-10-20T07:41:14Z</time>
  <speed>3.620000</speed>
</trkpt>
<trkpt lat="32.728816986" lon="35.000045776">
  <ele>299.947754</ele>
  <time>2011-10-20T07:41:16Z</time>
  <speed>3.410000</speed>
</trkpt>
<trkpt lat="32.728813171" lon="34.999984741">
  <ele>299.643066</ele>
  <time>2011-10-20T07:41:18Z</time>
  <speed>3.530000</speed>
</trkpt>
<trkpt lat="32.728816986" lon="34.999954224">
  <ele>300.510254</ele>
  <time>2011-10-20T07:41:19Z</time>
  <speed>3.800000</speed>
</trkpt>
<trkpt lat="32.728816986" lon="34.999916077">
  <ele>300.314941</ele>
  <time>2011-10-20T07:41:20Z</time>
  <speed>3.410000</speed>
</trkpt>
<trkpt lat="32.728820801" lon="34.999877930">
  <ele>300.221191</ele>
  <time>2011-10-20T07:41:21Z</time>
  <speed>3.700000</speed>
</trkpt>
<trkpt lat="32.728820801" lon="34.999843597">
  <ele>301.541504</ele>
  <time>2011-10-20T07:41:22Z</time>
  <speed>3.470000</speed>
</trkpt>
<trkpt lat="32.728828430" lon="34.999778748">
  <ele>300.869629</ele>
  <time>2011-10-20T07:41:24Z</time>
  <speed>3.870000</speed>
</trkpt>
<trkpt lat="32.728828430" lon="34.999744415">
  <ele>300.916504</ele>
  <time>2011-10-20T07:41:25Z</time>
  <speed>4.070000</speed>
</trkpt>
<trkpt lat="32.728832245" lon="34.999698639">
  <ele>300.807129</ele>
  <time>2011-10-20T07:41:26Z</time>
  <speed>4.210000</speed>
</trkpt>
<trkpt lat="32.728836060" lon="34.999656677">
  <ele>300.900879</ele>
  <time>2011-10-20T07:41:27Z</time>
  <speed>4.250000</speed>
</trkpt>
<trkpt lat="32.728832245" lon="34.999610901">
  <ele>301.393066</ele>
  <time>2011-10-20T07:41:28Z</time>
  <speed>4.270000</speed>
</trkpt>
<trkpt lat="32.728828430" lon="34.999565125">
  <ele>301.752441</ele>
  <time>2011-10-20T07:41:29Z</time>
  <speed>4.370000</speed>
</trkpt>
<trkpt lat="32.728816986" lon="34.999519348">
  <ele>301.682129</ele>
  <time>2011-10-20T07:41:30Z</time>
  <speed>4.410000</speed>
</trkpt>
<trkpt lat="32.728809357" lon="34.999477386">
  <ele>301.947754</ele>
  <time>2011-10-20T07:41:31Z</time>
  <speed>4.150000</speed>
</trkpt>
<trkpt lat="32.728809357" lon="34.999427795">
  <ele>302.299316</ele>
  <time>2011-10-20T07:41:32Z</time>
  <speed>4.670000</speed>
</trkpt>
<trkpt lat="32.728801727" lon="34.999393463">
  <ele>300.150879</ele>
  <time>2011-10-20T07:41:33Z</time>
  <speed>4.960000</speed>
</trkpt>
<trkpt lat="32.728801727" lon="34.999351501">
  <ele>298.182129</ele>
  <time>2011-10-20T07:41:34Z</time>
  <speed>5.500000</speed>
</trkpt>
<trkpt lat="32.728801727" lon="34.999305725">
  <ele>295.979004</ele>
  <time>2011-10-20T07:41:35Z</time>
  <speed>6.100000</speed>
</trkpt>
<trkpt lat="32.728809357" lon="34.999244690">
  <ele>295.182129</ele>
  <time>2011-10-20T07:41:36Z</time>
  <speed>6.310000</speed>
</trkpt>
<trkpt lat="32.728820801" lon="34.999179840">
  <ele>294.393066</ele>
  <time>2011-10-20T07:41:37Z</time>
  <speed>6.590000</speed>
</trkpt>
<trkpt lat="32.728836060" lon="34.999122620">
  <ele>293.424316</ele>
  <time>2011-10-20T07:41:38Z</time>
  <speed>6.300000</speed>
</trkpt>
<trkpt lat="32.728847504" lon="34.999065399">
  <ele>293.463379</ele>
  <time>2011-10-20T07:41:39Z</time>
  <speed>6.170000</speed>
</trkpt>
<trkpt lat="32.728862762" lon="34.999008179">
  <ele>292.768066</ele>
  <time>2011-10-20T07:41:40Z</time>
  <speed>5.950000</speed>
</trkpt>
<trkpt lat="32.728870392" lon="34.998947144">
  <ele>293.049316</ele>
  <time>2011-10-20T07:41:41Z</time>
  <speed>5.810000</speed>
</trkpt>
<trkpt lat="32.728874207" lon="34.998886108">
  <ele>293.275879</ele>
  <time>2011-10-20T07:41:42Z</time>
  <speed>5.780000</speed>
</trkpt>
<trkpt lat="32.728878021" lon="34.998828888">
  <ele>292.236816</ele>
  <time>2011-10-20T07:41:43Z</time>
  <speed>5.630000</speed>
</trkpt>
<trkpt lat="32.728881836" lon="34.998771667">
  <ele>291.752441</ele>
  <time>2011-10-20T07:41:44Z</time>
  <speed>5.120000</speed>
</trkpt>
<trkpt lat="32.728881836" lon="34.998718262">
  <ele>291.416504</ele>
  <time>2011-10-20T07:41:45Z</time>
  <speed>4.990000</speed>
</trkpt>
<trkpt lat="32.728885651" lon="34.998672485">
  <ele>290.346191</ele>
  <time>2011-10-20T07:41:46Z</time>
  <speed>4.720000</speed>
</trkpt>
<trkpt lat="32.728889465" lon="34.998622894">
  <ele>290.221191</ele>
  <time>2011-10-20T07:41:47Z</time>
  <speed>4.550000</speed>
</trkpt>
<trkpt lat="32.728897095" lon="34.998580933">
  <ele>289.666504</ele>
  <time>2011-10-20T07:41:48Z</time>
  <speed>4.420000</speed>
</trkpt>
<trkpt lat="32.728900909" lon="34.998531342">
  <ele>289.463379</ele>
  <time>2011-10-20T07:41:49Z</time>
  <speed>4.660000</speed>
</trkpt>
<trkpt lat="32.728908539" lon="34.998485565">
  <ele>289.275879</ele>
  <time>2011-10-20T07:41:50Z</time>
  <speed>4.480000</speed>
</trkpt>
<trkpt lat="32.728916168" lon="34.998439789">
  <ele>289.182129</ele>
  <time>2011-10-20T07:41:51Z</time>
  <speed>4.390000</speed>
</trkpt>
<trkpt lat="32.728923798" lon="34.998394012">
  <ele>289.611816</ele>
  <time>2011-10-20T07:41:52Z</time>
  <speed>4.580000</speed>
</trkpt>
<trkpt lat="32.728927612" lon="34.998340607">
  <ele>290.010254</ele>
  <time>2011-10-20T07:41:53Z</time>
  <speed>4.550000</speed>
</trkpt>
<trkpt lat="32.728935242" lon="34.998294830">
  <ele>289.471191</ele>
  <time>2011-10-20T07:41:54Z</time>
  <speed>4.430000</speed>
</trkpt>
<trkpt lat="32.728942871" lon="34.998252869">
  <ele>289.283691</ele>
  <time>2011-10-20T07:41:55Z</time>
  <speed>4.410000</speed>
</trkpt>
<trkpt lat="32.728950500" lon="34.998207092">
  <ele>289.291504</ele>
  <time>2011-10-20T07:41:56Z</time>
  <speed>4.260000</speed>
</trkpt>
<trkpt lat="32.728958130" lon="34.998161316">
  <ele>289.307129</ele>
  <time>2011-10-20T07:41:57Z</time>
  <speed>4.440000</speed>
</trkpt>
<trkpt lat="32.728961945" lon="34.998115540">
  <ele>288.713379</ele>
  <time>2011-10-20T07:41:58Z</time>
  <speed>4.530000</speed>
</trkpt>
<trkpt lat="32.728965759" lon="34.998069763">
  <ele>287.830566</ele>
  <time>2011-10-20T07:41:59Z</time>
  <speed>4.600000</speed>
</trkpt>
<trkpt lat="32.728965759" lon="34.998023987">
  <ele>287.580566</ele>
  <time>2011-10-20T07:42:00Z</time>
  <speed>4.290000</speed>
</trkpt>
<trkpt lat="32.728973389" lon="34.997978210">
  <ele>287.049316</ele>
  <time>2011-10-20T07:42:01Z</time>
  <speed>4.370000</speed>
</trkpt>
<trkpt lat="32.728973389" lon="34.997936249">
  <ele>286.564941</ele>
  <time>2011-10-20T07:42:02Z</time>
  <speed>4.390000</speed>
</trkpt>
<trkpt lat="32.728977203" lon="34.997886658">
  <ele>286.432129</ele>
  <time>2011-10-20T07:42:03Z</time>
  <speed>4.580000</speed>
</trkpt>
<trkpt lat="32.728977203" lon="34.997840881">
  <ele>286.479004</ele>
  <time>2011-10-20T07:42:04Z</time>
  <speed>4.350000</speed>
</trkpt>
<trkpt lat="32.728973389" lon="34.997795105">
  <ele>286.057129</ele>
  <time>2011-10-20T07:42:05Z</time>
  <speed>4.550000</speed>
</trkpt>
<trkpt lat="32.728969574" lon="34.997741699">
  <ele>285.736816</ele>
  <time>2011-10-20T07:42:06Z</time>
  <speed>5.050000</speed>
</trkpt>
<trkpt lat="32.728973389" lon="34.997688293">
  <ele>285.682129</ele>
  <time>2011-10-20T07:42:07Z</time>
  <speed>4.960000</speed>
</trkpt>
<trkpt lat="32.728977203" lon="34.997642517">
  <ele>285.307129</ele>
  <time>2011-10-20T07:42:08Z</time>
  <speed>4.860000</speed>
</trkpt>
<trkpt lat="32.728977203" lon="34.997589111">
  <ele>285.525879</ele>
  <time>2011-10-20T07:42:09Z</time>
  <speed>4.700000</speed>
</trkpt>
<trkpt lat="32.728973389" lon="34.997543335">
  <ele>285.104004</ele>
  <time>2011-10-20T07:42:10Z</time>
  <speed>4.400000</speed>
</trkpt>
<trkpt lat="32.728977203" lon="34.997493744">
  <ele>285.619629</ele>
  <time>2011-10-20T07:42:11Z</time>
  <speed>4.420000</speed>
</trkpt>
<trkpt lat="32.728969574" lon="34.997447968">
  <ele>285.814941</ele>
  <time>2011-10-20T07:42:12Z</time>
  <speed>4.160000</speed>
</trkpt>
<trkpt lat="32.728965759" lon="34.997402191">
  <ele>285.127441</ele>
  <time>2011-10-20T07:42:13Z</time>
  <speed>4.610000</speed>
</trkpt>
<trkpt lat="32.728958130" lon="34.997356415">
  <ele>285.268066</ele>
  <time>2011-10-20T07:42:14Z</time>
  <speed>4.410000</speed>
</trkpt>
<trkpt lat="32.728954315" lon="34.997314453">
  <ele>284.096191</ele>
  <time>2011-10-20T07:42:15Z</time>
  <speed>4.310000</speed>
</trkpt>
<trkpt lat="32.728946686" lon="34.997268677">
  <ele>283.947754</ele>
  <time>2011-10-20T07:42:16Z</time>
  <speed>4.620000</speed>
</trkpt>
<trkpt lat="32.728935242" lon="34.997219086">
  <ele>283.619629</ele>
  <time>2011-10-20T07:42:17Z</time>
  <speed>4.840000</speed>
</trkpt>
<trkpt lat="32.728919983" lon="34.997169495">
  <ele>283.080566</ele>
  <time>2011-10-20T07:42:18Z</time>
  <speed>4.830000</speed>
</trkpt>
<trkpt lat="32.728904724" lon="34.997127533">
  <ele>281.916504</ele>
  <time>2011-10-20T07:42:19Z</time>
  <speed>4.660000</speed>
</trkpt>
<trkpt lat="32.728889465" lon="34.997081757">
  <ele>281.564941</ele>
  <time>2011-10-20T07:42:20Z</time>
  <speed>4.460000</speed>
</trkpt>
<trkpt lat="32.728874207" lon="34.997035980">
  <ele>281.385254</ele>
  <time>2011-10-20T07:42:21Z</time>
  <speed>4.860000</speed>
</trkpt>
<trkpt lat="32.728862762" lon="34.996986389">
  <ele>281.221191</ele>
  <time>2011-10-20T07:42:22Z</time>
  <speed>4.750000</speed>
</trkpt>
<trkpt lat="32.728847504" lon="34.996936798">
  <ele>280.979004</ele>
  <time>2011-10-20T07:42:23Z</time>
  <speed>4.480000</speed>
</trkpt>
<trkpt lat="32.728839874" lon="34.996887207">
  <ele>280.635254</ele>
  <time>2011-10-20T07:42:24Z</time>
  <speed>4.590000</speed>
</trkpt>
<trkpt lat="32.728832245" lon="34.996841431">
  <ele>280.424316</ele>
  <time>2011-10-20T07:42:25Z</time>
  <speed>4.310000</speed>
</trkpt>
<trkpt lat="32.728824615" lon="34.996791840">
  <ele>280.283691</ele>
  <time>2011-10-20T07:42:26Z</time>
  <speed>4.550000</speed>
</trkpt>
<trkpt lat="32.728816986" lon="34.996746063">
  <ele>280.338379</ele>
  <time>2011-10-20T07:42:27Z</time>
  <speed>4.350000</speed>
</trkpt>
<trkpt lat="32.728809357" lon="34.996704102">
  <ele>280.182129</ele>
  <time>2011-10-20T07:42:28Z</time>
  <speed>4.150000</speed>
</trkpt>
<trkpt lat="32.728805542" lon="34.996658325">
  <ele>280.236816</ele>
  <time>2011-10-20T07:42:29Z</time>
  <speed>4.100000</speed>
</trkpt>
<trkpt lat="32.728805542" lon="34.996616364">
  <ele>280.111816</ele>
  <time>2011-10-20T07:42:30Z</time>
  <speed>4.160000</speed>
</trkpt>
<trkpt lat="32.728797913" lon="34.996574402">
  <ele>279.783691</ele>
  <time>2011-10-20T07:42:31Z</time>
  <speed>3.940000</speed>
</trkpt>
<trkpt lat="32.728794098" lon="34.996532440">
  <ele>279.744629</ele>
  <time>2011-10-20T07:42:32Z</time>
  <speed>3.930000</speed>
</trkpt>
<trkpt lat="32.728790283" lon="34.996490479">
  <ele>279.783691</ele>
  <time>2011-10-20T07:42:33Z</time>
  <speed>3.380000</speed>
</trkpt>
<trkpt lat="32.728790283" lon="34.996452332">
  <ele>280.057129</ele>
  <time>2011-10-20T07:42:34Z</time>
  <speed>3.290000</speed>
</trkpt>
<trkpt lat="32.728778839" lon="34.996421814">
  <ele>279.502441</ele>
  <time>2011-10-20T07:42:35Z</time>
  <speed>3.200000</speed>
</trkpt>
<trkpt lat="32.728767395" lon="34.996391296">
  <ele>279.463379</ele>
  <time>2011-10-20T07:42:36Z</time>
  <speed>3.230000</speed>
</trkpt>
<trkpt lat="32.728755951" lon="34.996356964">
  <ele>279.682129</ele>
  <time>2011-10-20T07:42:37Z</time>
  <speed>3.220000</speed>
</trkpt>
<trkpt lat="32.728744507" lon="34.996326447">
  <ele>279.924316</ele>
  <time>2011-10-20T07:42:38Z</time>
  <speed>2.850000</speed>
</trkpt>
<trkpt lat="32.728733063" lon="34.996295929">
  <ele>280.033691</ele>
  <time>2011-10-20T07:42:39Z</time>
  <speed>2.840000</speed>
</trkpt>
<trkpt lat="32.728725433" lon="34.996261597">
  <ele>280.307129</ele>
  <time>2011-10-20T07:42:40Z</time>
  <speed>2.740000</speed>
</trkpt>
<trkpt lat="32.728717804" lon="34.996231079">
  <ele>280.385254</ele>
  <time>2011-10-20T07:42:41Z</time>
  <speed>2.890000</speed>
</trkpt>
<trkpt lat="32.728698730" lon="34.996196747">
  <ele>280.893066</ele>
  <time>2011-10-20T07:42:42Z</time>
  <speed>2.940000</speed>
</trkpt>
<trkpt lat="32.728687286" lon="34.996166229">
  <ele>280.713379</ele>
  <time>2011-10-20T07:42:43Z</time>
  <speed>2.900000</speed>
</trkpt>
<trkpt lat="32.728683472" lon="34.996135712">
  <ele>281.400879</ele>
  <time>2011-10-20T07:42:44Z</time>
  <speed>2.790000</speed>
</trkpt>
<trkpt lat="32.728664398" lon="34.996082306">
  <ele>281.463379</ele>
  <time>2011-10-20T07:42:46Z</time>
  <speed>2.660000</speed>
</trkpt>
<trkpt lat="32.728645325" lon="34.996055603">
  <ele>281.229004</ele>
  <time>2011-10-20T07:42:47Z</time>
  <speed>2.750000</speed>
</trkpt>
<trkpt lat="32.728622437" lon="34.996002197">
  <ele>281.525879</ele>
  <time>2011-10-20T07:42:49Z</time>
  <speed>2.570000</speed>
</trkpt>
<trkpt lat="32.728603363" lon="34.995960236">
  <ele>281.744629</ele>
  <time>2011-10-20T07:42:51Z</time>
  <speed>2.150000</speed>
</trkpt>
<trkpt lat="32.728569031" lon="34.995918274">
  <ele>280.885254</ele>
  <time>2011-10-20T07:42:53Z</time>
  <speed>2.440000</speed>
</trkpt>
<trkpt lat="32.728546143" lon="34.995876312">
  <ele>280.557129</ele>
  <time>2011-10-20T07:42:55Z</time>
  <speed>2.090000</speed>
</trkpt>
<trkpt lat="32.728523254" lon="34.995834351">
  <ele>280.299316</ele>
  <time>2011-10-20T07:42:57Z</time>
  <speed>2.160000</speed>
</trkpt>
<trkpt lat="32.728500366" lon="34.995792389">
  <ele>279.729004</ele>
  <time>2011-10-20T07:42:59Z</time>
  <speed>2.000000</speed>
</trkpt>
<trkpt lat="32.728473663" lon="34.995746613">
  <ele>278.979004</ele>
  <time>2011-10-20T07:43:01Z</time>
  <speed>2.120000</speed>
</trkpt>
<trkpt lat="32.728458405" lon="34.995704651">
  <ele>278.885254</ele>
  <time>2011-10-20T07:43:03Z</time>
  <speed>1.810000</speed>
</trkpt>
<trkpt lat="32.728439331" lon="34.995666504">
  <ele>279.166504</ele>
  <time>2011-10-20T07:43:05Z</time>
  <speed>2.060000</speed>
</trkpt>
<trkpt lat="32.728420258" lon="34.995624542">
  <ele>280.385254</ele>
  <time>2011-10-20T07:43:07Z</time>
  <speed>1.990000</speed>
</trkpt>
<trkpt lat="32.728404999" lon="34.995578766">
  <ele>280.971191</ele>
  <time>2011-10-20T07:43:09Z</time>
  <speed>1.980000</speed>
</trkpt>
<trkpt lat="32.728385925" lon="34.995544434">
  <ele>280.861816</ele>
  <time>2011-10-20T07:43:11Z</time>
  <speed>1.840000</speed>
</trkpt>
<trkpt lat="32.728378296" lon="34.995498657">
  <ele>281.096191</ele>
  <time>2011-10-20T07:43:13Z</time>
  <speed>2.020000</speed>
</trkpt>
<trkpt lat="32.728355408" lon="34.995449066">
  <ele>282.307129</ele>
  <time>2011-10-20T07:43:15Z</time>
  <speed>1.910000</speed>
</trkpt>
<trkpt lat="32.728343964" lon="34.995403290">
  <ele>281.939941</ele>
  <time>2011-10-20T07:43:17Z</time>
  <speed>2.010000</speed>
</trkpt>
<trkpt lat="32.728336334" lon="34.995361328">
  <ele>281.689941</ele>
  <time>2011-10-20T07:43:19Z</time>
  <speed>1.990000</speed>
</trkpt>
<trkpt lat="32.728328705" lon="34.995311737">
  <ele>281.838379</ele>
  <time>2011-10-20T07:43:21Z</time>
  <speed>1.970000</speed>
</trkpt>
<trkpt lat="32.728321075" lon="34.995262146">
  <ele>281.596191</ele>
  <time>2011-10-20T07:43:23Z</time>
  <speed>1.890000</speed>
</trkpt>
<trkpt lat="32.728317261" lon="34.995223999">
  <ele>281.900879</ele>
  <time>2011-10-20T07:43:25Z</time>
  <speed>1.540000</speed>
</trkpt>
<trkpt lat="32.728305817" lon="34.995185852">
  <ele>281.682129</ele>
  <time>2011-10-20T07:43:27Z</time>
  <speed>1.740000</speed>
</trkpt>
<trkpt lat="32.728298187" lon="34.995155334">
  <ele>282.955566</ele>
  <time>2011-10-20T07:43:29Z</time>
  <speed>1.370000</speed>
</trkpt>
<trkpt lat="32.728282928" lon="34.995128632">
  <ele>284.041504</ele>
  <time>2011-10-20T07:43:31Z</time>
  <speed>1.180000</speed>
</trkpt>
<trkpt lat="32.728267670" lon="34.995098114">
  <ele>283.463379</ele>
  <time>2011-10-20T07:43:33Z</time>
  <speed>1.440000</speed>
</trkpt>
<trkpt lat="32.728252411" lon="34.995067596">
  <ele>283.572754</ele>
  <time>2011-10-20T07:43:35Z</time>
  <speed>1.370000</speed>
</trkpt>
<trkpt lat="32.728240967" lon="34.995033264">
  <ele>283.564941</ele>
  <time>2011-10-20T07:43:37Z</time>
  <speed>1.660000</speed>
</trkpt>
<trkpt lat="32.728221893" lon="34.995002747">
  <ele>283.807129</ele>
  <time>2011-10-20T07:43:39Z</time>
  <speed>1.440000</speed>
</trkpt>
<trkpt lat="32.728210449" lon="34.994972229">
  <ele>284.213379</ele>
  <time>2011-10-20T07:43:41Z</time>
  <speed>1.470000</speed>
</trkpt>
<trkpt lat="32.728199005" lon="34.994937897">
  <ele>284.510254</ele>
  <time>2011-10-20T07:43:43Z</time>
  <speed>1.470000</speed>
</trkpt>
<trkpt lat="32.728176117" lon="34.994907379">
  <ele>284.666504</ele>
  <time>2011-10-20T07:43:45Z</time>
  <speed>1.510000</speed>
</trkpt>
<trkpt lat="32.728145599" lon="34.994880676">
  <ele>285.150879</ele>
  <time>2011-10-20T07:43:47Z</time>
  <speed>1.610000</speed>
</trkpt>
<trkpt lat="32.728115082" lon="34.994857788">
  <ele>286.182129</ele>
  <time>2011-10-20T07:43:49Z</time>
  <speed>2.330000</speed>
</trkpt>
<trkpt lat="32.728080750" lon="34.994831085">
  <ele>286.924316</ele>
  <time>2011-10-20T07:43:51Z</time>
  <speed>1.660000</speed>
</trkpt>
<trkpt lat="32.728054047" lon="34.994808197">
  <ele>288.033691</ele>
  <time>2011-10-20T07:43:53Z</time>
  <speed>1.940000</speed>
</trkpt>
<trkpt lat="32.728019714" lon="34.994792938">
  <ele>288.166504</ele>
  <time>2011-10-20T07:43:55Z</time>
  <speed>1.840000</speed>
</trkpt>
<trkpt lat="32.727981567" lon="34.994777679">
  <ele>288.564941</ele>
  <time>2011-10-20T07:43:57Z</time>
  <speed>2.070000</speed>
</trkpt>
<trkpt lat="32.727939606" lon="34.994754791">
  <ele>289.689941</ele>
  <time>2011-10-20T07:43:59Z</time>
  <speed>2.340000</speed>
</trkpt>
<trkpt lat="32.727901459" lon="34.994747162">
  <ele>290.346191</ele>
  <time>2011-10-20T07:44:01Z</time>
  <speed>2.510000</speed>
</trkpt>
<trkpt lat="32.727859497" lon="34.994728088">
  <ele>290.807129</ele>
  <time>2011-10-20T07:44:03Z</time>
  <speed>2.400000</speed>
</trkpt>
<trkpt lat="32.727821350" lon="34.994712830">
  <ele>291.096191</ele>
  <time>2011-10-20T07:44:05Z</time>
  <speed>2.110000</speed>
</trkpt>
<trkpt lat="32.727779388" lon="34.994693756">
  <ele>291.174316</ele>
  <time>2011-10-20T07:44:07Z</time>
  <speed>2.340000</speed>
</trkpt>
<trkpt lat="32.727745056" lon="34.994682312">
  <ele>291.533691</ele>
  <time>2011-10-20T07:44:09Z</time>
  <speed>2.000000</speed>
</trkpt>
<trkpt lat="32.727710724" lon="34.994663239">
  <ele>292.549316</ele>
  <time>2011-10-20T07:44:11Z</time>
  <speed>2.280000</speed>
</trkpt>
<trkpt lat="32.727676392" lon="34.994640350">
  <ele>293.314941</ele>
  <time>2011-10-20T07:44:13Z</time>
  <speed>2.170000</speed>
</trkpt>
<trkpt lat="32.727645874" lon="34.994617462">
  <ele>293.619629</ele>
  <time>2011-10-20T07:44:15Z</time>
  <speed>2.040000</speed>
</trkpt>
<trkpt lat="32.727607727" lon="34.994583130">
  <ele>294.135254</ele>
  <time>2011-10-20T07:44:17Z</time>
  <speed>2.110000</speed>
</trkpt>
<trkpt lat="32.727577209" lon="34.994552612">
  <ele>294.744629</ele>
  <time>2011-10-20T07:44:19Z</time>
  <speed>1.710000</speed>
</trkpt>
<trkpt lat="32.727554321" lon="34.994522095">
  <ele>294.619629</ele>
  <time>2011-10-20T07:44:21Z</time>
  <speed>1.480000</speed>
</trkpt>
<trkpt lat="32.727550507" lon="34.994480133">
  <ele>295.939941</ele>
  <time>2011-10-20T07:44:23Z</time>
  <speed>1.730000</speed>
</trkpt>
<trkpt lat="32.727569580" lon="34.994457245">
  <ele>296.213379</ele>
  <time>2011-10-20T07:44:25Z</time>
  <speed>1.700000</speed>
</trkpt>
<trkpt lat="32.727603912" lon="34.994457245">
  <ele>296.822754</ele>
  <time>2011-10-20T07:44:27Z</time>
  <speed>1.390000</speed>
</trkpt>
<trkpt lat="32.727638245" lon="34.994464874">
  <ele>297.666504</ele>
  <time>2011-10-20T07:44:29Z</time>
  <speed>1.730000</speed>
</trkpt>
<trkpt lat="32.727680206" lon="34.994483948">
  <ele>297.229004</ele>
  <time>2011-10-20T07:44:31Z</time>
  <speed>1.830000</speed>
</trkpt>
<trkpt lat="32.727718353" lon="34.994495392">
  <ele>298.830566</ele>
  <time>2011-10-20T07:44:33Z</time>
  <speed>1.880000</speed>
</trkpt>
<trkpt lat="32.727748871" lon="34.994510651">
  <ele>299.135254</ele>
  <time>2011-10-20T07:44:35Z</time>
  <speed>1.760000</speed>
</trkpt>
<trkpt lat="32.727775574" lon="34.994525909">
  <ele>299.135254</ele>
  <time>2011-10-20T07:44:37Z</time>
  <speed>1.670000</speed>
</trkpt>
<trkpt lat="32.727806091" lon="34.994537354">
  <ele>298.924316</ele>
  <time>2011-10-20T07:44:40Z</time>
  <speed>0.660000</speed>
</trkpt>
<trkpt lat="32.727832794" lon="34.994556427">
  <ele>299.393066</ele>
  <time>2011-10-20T07:46:41Z</time>
  <speed>1.690000</speed>
</trkpt>
<trkpt lat="32.727870941" lon="34.994583130">
  <ele>300.260254</ele>
  <time>2011-10-20T07:46:43Z</time>
  <speed>2.590000</speed>
</trkpt>
<trkpt lat="32.727909088" lon="34.994602203">
  <ele>301.143066</ele>
  <time>2011-10-20T07:46:45Z</time>
  <speed>2.180000</speed>
</trkpt>
<trkpt lat="32.727951050" lon="34.994617462">
  <ele>301.549316</ele>
  <time>2011-10-20T07:46:47Z</time>
  <speed>2.630000</speed>
</trkpt>
<trkpt lat="32.727993011" lon="34.994628906">
  <ele>301.908691</ele>
  <time>2011-10-20T07:46:49Z</time>
  <speed>1.820000</speed>
</trkpt>
<trkpt lat="32.728023529" lon="34.994636536">
  <ele>301.705566</ele>
  <time>2011-10-20T07:46:51Z</time>
  <speed>1.890000</speed>
</trkpt>
<trkpt lat="32.728065491" lon="34.994651794">
  <ele>301.354004</ele>
  <time>2011-10-20T07:46:53Z</time>
  <speed>2.190000</speed>
</trkpt>
<trkpt lat="32.728111267" lon="34.994667053">
  <ele>302.010254</ele>
  <time>2011-10-20T07:46:55Z</time>
  <speed>2.560000</speed>
</trkpt>
<trkpt lat="32.728153229" lon="34.994674683">
  <ele>302.807129</ele>
  <time>2011-10-20T07:46:57Z</time>
  <speed>2.270000</speed>
</trkpt>
<trkpt lat="32.728187561" lon="34.994689941">
  <ele>303.541504</ele>
  <time>2011-10-20T07:46:59Z</time>
  <speed>1.860000</speed>
</trkpt>
<trkpt lat="32.728221893" lon="34.994705200">
  <ele>303.408691</ele>
  <time>2011-10-20T07:47:01Z</time>
  <speed>2.130000</speed>
</trkpt>
<trkpt lat="32.728256226" lon="34.994731903">
  <ele>304.283691</ele>
  <time>2011-10-20T07:47:03Z</time>
  <speed>2.450000</speed>
</trkpt>
<trkpt lat="32.728286743" lon="34.994762421">
  <ele>304.604004</ele>
  <time>2011-10-20T07:47:05Z</time>
  <speed>2.170000</speed>
</trkpt>
<trkpt lat="32.728321075" lon="34.994800568">
  <ele>305.268066</ele>
  <time>2011-10-20T07:47:07Z</time>
  <speed>2.190000</speed>
</trkpt>
<trkpt lat="32.728347778" lon="34.994831085">
  <ele>306.377441</ele>
  <time>2011-10-20T07:47:09Z</time>
  <speed>2.180000</speed>
</trkpt>
<trkpt lat="32.728378296" lon="34.994865417">
  <ele>307.088379</ele>
  <time>2011-10-20T07:47:11Z</time>
  <speed>2.060000</speed>
</trkpt>
<trkpt lat="32.728404999" lon="34.994895935">
  <ele>307.666504</ele>
  <time>2011-10-20T07:47:13Z</time>
  <speed>1.990000</speed>
</trkpt>
<trkpt lat="32.728431702" lon="34.994918823">
  <ele>308.588379</ele>
  <time>2011-10-20T07:47:15Z</time>
  <speed>2.000000</speed>
</trkpt>
<trkpt lat="32.728462219" lon="34.994941711">
  <ele>308.627441</ele>
  <time>2011-10-20T07:47:17Z</time>
  <speed>2.000000</speed>
</trkpt>
<trkpt lat="32.728485107" lon="34.994960785">
  <ele>309.322754</ele>
  <time>2011-10-20T07:47:19Z</time>
  <speed>1.620000</speed>
</trkpt>
<trkpt lat="32.728515625" lon="34.994976044">
  <ele>310.158691</ele>
  <time>2011-10-20T07:47:21Z</time>
  <speed>1.700000</speed>
</trkpt>
<trkpt lat="32.728538513" lon="34.994991302">
  <ele>311.104004</ele>
  <time>2011-10-20T07:47:23Z</time>
  <speed>1.400000</speed>
</trkpt>
<trkpt lat="32.728565216" lon="34.995006561">
  <ele>312.002441</ele>
  <time>2011-10-20T07:47:25Z</time>
  <speed>1.500000</speed>
</trkpt>
<trkpt lat="32.728591919" lon="34.995025635">
  <ele>312.080566</ele>
  <time>2011-10-20T07:47:27Z</time>
  <speed>1.510000</speed>
</trkpt>
<trkpt lat="32.728618622" lon="34.995044708">
  <ele>312.111816</ele>
  <time>2011-10-20T07:47:29Z</time>
  <speed>1.610000</speed>
</trkpt>
<trkpt lat="32.728656769" lon="34.995063782">
  <ele>312.994629</ele>
  <time>2011-10-20T07:47:31Z</time>
  <speed>1.900000</speed>
</trkpt>
<trkpt lat="32.728687286" lon="34.995086670">
  <ele>313.775879</ele>
  <time>2011-10-20T07:47:34Z</time>
  <speed>1.220000</speed>
</trkpt>
<trkpt lat="32.728710175" lon="34.995109558">
  <ele>314.205566</ele>
  <time>2011-10-20T07:47:37Z</time>
  <speed>1.370000</speed>
</trkpt>
<trkpt lat="32.728736877" lon="34.995140076">
  <ele>314.697754</ele>
  <time>2011-10-20T07:47:40Z</time>
  <speed>1.280000</speed>
</trkpt>
<trkpt lat="32.728763580" lon="34.995155334">
  <ele>315.096191</ele>
  <time>2011-10-20T07:47:42Z</time>
  <speed>1.670000</speed>
</trkpt>
<trkpt lat="32.728786469" lon="34.995174408">
  <ele>315.541504</ele>
  <time>2011-10-20T07:47:44Z</time>
  <speed>1.250000</speed>
</trkpt>
<trkpt lat="32.728813171" lon="34.995201111">
  <ele>315.963379</ele>
  <time>2011-10-20T07:47:47Z</time>
  <speed>1.680000</speed>
</trkpt>
<trkpt lat="32.728832245" lon="34.995227814">
  <ele>316.018066</ele>
  <time>2011-10-20T07:47:49Z</time>
  <speed>1.410000</speed>
</trkpt>
<trkpt lat="32.728858948" lon="34.995246887">
  <ele>316.510254</ele>
  <time>2011-10-20T07:47:51Z</time>
  <speed>1.420000</speed>
</trkpt>
<trkpt lat="32.728878021" lon="34.995269775">
  <ele>316.939941</ele>
  <time>2011-10-20T07:47:53Z</time>
  <speed>1.500000</speed>
</trkpt>
<trkpt lat="32.728904724" lon="34.995304108">
  <ele>317.127441</ele>
  <time>2011-10-20T07:47:56Z</time>
  <speed>1.290000</speed>
</trkpt>
<trkpt lat="32.728939056" lon="34.995326996">
  <ele>317.221191</ele>
  <time>2011-10-20T07:47:59Z</time>
  <speed>1.490000</speed>
</trkpt>
<trkpt lat="32.728969574" lon="34.995353699">
  <ele>317.674316</ele>
  <time>2011-10-20T07:48:02Z</time>
  <speed>1.270000</speed>
</trkpt>
<trkpt lat="32.728996277" lon="34.995384216">
  <ele>318.189941</ele>
  <time>2011-10-20T07:48:05Z</time>
  <speed>1.170000</speed>
</trkpt>
<trkpt lat="32.729026794" lon="34.995407104">
  <ele>318.213379</ele>
  <time>2011-10-20T07:48:08Z</time>
  <speed>1.400000</speed>
</trkpt>
<trkpt lat="32.729049683" lon="34.995429993">
  <ele>318.564941</ele>
  <time>2011-10-20T07:48:10Z</time>
  <speed>1.570000</speed>
</trkpt>
<trkpt lat="32.729068756" lon="34.995452881">
  <ele>318.635254</ele>
  <time>2011-10-20T07:48:12Z</time>
  <speed>1.310000</speed>
</trkpt>
<trkpt lat="32.729091644" lon="34.995475769">
  <ele>318.619629</ele>
  <time>2011-10-20T07:48:14Z</time>
  <speed>1.730000</speed>
</trkpt>
<trkpt lat="32.729110718" lon="34.995498657">
  <ele>318.729004</ele>
  <time>2011-10-20T07:48:16Z</time>
  <speed>1.660000</speed>
</trkpt>
<trkpt lat="32.729129791" lon="34.995525360">
  <ele>319.416504</ele>
  <time>2011-10-20T07:48:18Z</time>
  <speed>1.420000</speed>
</trkpt>
<trkpt lat="32.729152679" lon="34.995548248">
  <ele>319.916504</ele>
  <time>2011-10-20T07:48:20Z</time>
  <speed>1.460000</speed>
</trkpt>
<trkpt lat="32.729175568" lon="34.995571136">
  <ele>320.393066</ele>
  <time>2011-10-20T07:48:22Z</time>
  <speed>1.250000</speed>
</trkpt>
<trkpt lat="32.729194641" lon="34.995594025">
  <ele>320.971191</ele>
  <time>2011-10-20T07:48:24Z</time>
  <speed>1.390000</speed>
</trkpt>
<trkpt lat="32.729225159" lon="34.995628357">
  <ele>321.643066</ele>
  <time>2011-10-20T07:48:27Z</time>
  <speed>1.560000</speed>
</trkpt>
<trkpt lat="32.729244232" lon="34.995658875">
  <ele>321.674316</ele>
  <time>2011-10-20T07:48:29Z</time>
  <speed>1.430000</speed>
</trkpt>
<trkpt lat="32.729270935" lon="34.995685577">
  <ele>322.408691</ele>
  <time>2011-10-20T07:48:32Z</time>
  <speed>1.540000</speed>
</trkpt>
<trkpt lat="32.729286194" lon="34.995712280">
  <ele>323.049316</ele>
  <time>2011-10-20T07:48:34Z</time>
  <speed>1.510000</speed>
</trkpt>
<trkpt lat="32.729305267" lon="34.995738983">
  <ele>323.627441</ele>
  <time>2011-10-20T07:48:36Z</time>
  <speed>1.390000</speed>
</trkpt>
<trkpt lat="32.729320526" lon="34.995777130">
  <ele>324.174316</ele>
  <time>2011-10-20T07:48:39Z</time>
  <speed>1.600000</speed>
</trkpt>
<trkpt lat="32.729331970" lon="34.995811462">
  <ele>324.268066</ele>
  <time>2011-10-20T07:48:41Z</time>
  <speed>1.890000</speed>
</trkpt>
<trkpt lat="32.729343414" lon="34.995849609">
  <ele>324.330566</ele>
  <time>2011-10-20T07:48:43Z</time>
  <speed>2.070000</speed>
</trkpt>
<trkpt lat="32.729358673" lon="34.995891571">
  <ele>324.299316</ele>
  <time>2011-10-20T07:48:45Z</time>
  <speed>1.980000</speed>
</trkpt>
<trkpt lat="32.729366302" lon="34.995929718">
  <ele>324.455566</ele>
  <time>2011-10-20T07:48:47Z</time>
  <speed>2.290000</speed>
</trkpt>
<trkpt lat="32.729385376" lon="34.995975494">
  <ele>324.494629</ele>
  <time>2011-10-20T07:48:49Z</time>
  <speed>2.350000</speed>
</trkpt>
<trkpt lat="32.729400635" lon="34.996017456">
  <ele>324.854004</ele>
  <time>2011-10-20T07:48:51Z</time>
  <speed>2.270000</speed>
</trkpt>
<trkpt lat="32.729415894" lon="34.996063232">
  <ele>325.072754</ele>
  <time>2011-10-20T07:48:53Z</time>
  <speed>2.200000</speed>
</trkpt>
<trkpt lat="32.729431152" lon="34.996109009">
  <ele>325.252441</ele>
  <time>2011-10-20T07:48:55Z</time>
  <speed>2.330000</speed>
</trkpt>
<trkpt lat="32.729442596" lon="34.996154785">
  <ele>325.252441</ele>
  <time>2011-10-20T07:48:57Z</time>
  <speed>2.300000</speed>
</trkpt>
<trkpt lat="32.729461670" lon="34.996204376">
  <ele>325.307129</ele>
  <time>2011-10-20T07:48:59Z</time>
  <speed>2.330000</speed>
</trkpt>
<trkpt lat="32.729473114" lon="34.996253967">
  <ele>325.346191</ele>
  <time>2011-10-20T07:49:01Z</time>
  <speed>2.370000</speed>
</trkpt>
<trkpt lat="32.729492188" lon="34.996299744">
  <ele>325.385254</ele>
  <time>2011-10-20T07:49:03Z</time>
  <speed>2.200000</speed>
</trkpt>
<trkpt lat="32.729499817" lon="34.996345520">
  <ele>325.010254</ele>
  <time>2011-10-20T07:49:05Z</time>
  <speed>2.440000</speed>
</trkpt>
<trkpt lat="32.729518890" lon="34.996395111">
  <ele>324.525879</ele>
  <time>2011-10-20T07:49:07Z</time>
  <speed>2.590000</speed>
</trkpt>
<trkpt lat="32.729537964" lon="34.996444702">
  <ele>324.229004</ele>
  <time>2011-10-20T07:49:09Z</time>
  <speed>2.420000</speed>
</trkpt>
<trkpt lat="32.729557037" lon="34.996494293">
  <ele>324.143066</ele>
  <time>2011-10-20T07:49:11Z</time>
  <speed>2.660000</speed>
</trkpt>
<trkpt lat="32.729576111" lon="34.996540070">
  <ele>323.814941</ele>
  <time>2011-10-20T07:49:13Z</time>
  <speed>2.420000</speed>
</trkpt>
<trkpt lat="32.729598999" lon="34.996582031">
  <ele>323.877441</ele>
  <time>2011-10-20T07:49:15Z</time>
  <speed>2.360000</speed>
</trkpt>
<trkpt lat="32.729621887" lon="34.996631622">
  <ele>323.869629</ele>
  <time>2011-10-20T07:49:17Z</time>
  <speed>2.650000</speed>
</trkpt>
<trkpt lat="32.729644775" lon="34.996681213">
  <ele>324.041504</ele>
  <time>2011-10-20T07:49:19Z</time>
  <speed>2.720000</speed>
</trkpt>
<trkpt lat="32.729663849" lon="34.996726990">
  <ele>323.588379</ele>
  <time>2011-10-20T07:49:21Z</time>
  <speed>2.690000</speed>
</trkpt>
<trkpt lat="32.729686737" lon="34.996776581">
  <ele>323.330566</ele>
  <time>2011-10-20T07:49:23Z</time>
  <speed>2.380000</speed>
</trkpt>
<trkpt lat="32.729705811" lon="34.996826172">
  <ele>323.822754</ele>
  <time>2011-10-20T07:49:25Z</time>
  <speed>2.350000</speed>
</trkpt>
<trkpt lat="32.729724884" lon="34.996868134">
  <ele>323.611816</ele>
  <time>2011-10-20T07:49:27Z</time>
  <speed>2.490000</speed>
</trkpt>
<trkpt lat="32.729747772" lon="34.996917725">
  <ele>324.096191</ele>
  <time>2011-10-20T07:49:29Z</time>
  <speed>2.390000</speed>
</trkpt>
<trkpt lat="32.729763031" lon="34.996967316">
  <ele>324.002441</ele>
  <time>2011-10-20T07:49:31Z</time>
  <speed>2.600000</speed>
</trkpt>
<trkpt lat="32.729782104" lon="34.997016907">
  <ele>324.189941</ele>
  <time>2011-10-20T07:49:33Z</time>
  <speed>2.540000</speed>
</trkpt>
<trkpt lat="32.729797363" lon="34.997070313">
  <ele>324.385254</ele>
  <time>2011-10-20T07:49:35Z</time>
  <speed>2.300000</speed>
</trkpt>
<trkpt lat="32.729816437" lon="34.997112274">
  <ele>325.166504</ele>
  <time>2011-10-20T07:49:37Z</time>
  <speed>2.360000</speed>
</trkpt>
<trkpt lat="32.729835510" lon="34.997165680">
  <ele>325.721191</ele>
  <time>2011-10-20T07:49:39Z</time>
  <speed>2.670000</speed>
</trkpt>
<trkpt lat="32.729858398" lon="34.997219086">
  <ele>326.041504</ele>
  <time>2011-10-20T07:49:41Z</time>
  <speed>2.580000</speed>
</trkpt>
<trkpt lat="32.729869843" lon="34.997249603">
  <ele>326.463379</ele>
  <time>2011-10-20T07:49:42Z</time>
  <speed>2.800000</speed>
</trkpt>
<trkpt lat="32.729888916" lon="34.997299194">
  <ele>327.221191</ele>
  <time>2011-10-20T07:49:44Z</time>
  <speed>2.540000</speed>
</trkpt>
<trkpt lat="32.729896545" lon="34.997348785">
  <ele>327.752441</ele>
  <time>2011-10-20T07:49:46Z</time>
  <speed>2.360000</speed>
</trkpt>
<trkpt lat="32.729911804" lon="34.997406006">
  <ele>328.174316</ele>
  <time>2011-10-20T07:49:48Z</time>
  <speed>2.620000</speed>
</trkpt>
<trkpt lat="32.729930878" lon="34.997459412">
  <ele>329.057129</ele>
  <time>2011-10-20T07:49:50Z</time>
  <speed>2.520000</speed>
</trkpt>
<trkpt lat="32.729946136" lon="34.997501373">
  <ele>329.650879</ele>
  <time>2011-10-20T07:49:52Z</time>
  <speed>2.190000</speed>
</trkpt>
<trkpt lat="32.729965210" lon="34.997547150">
  <ele>329.814941</ele>
  <time>2011-10-20T07:49:54Z</time>
  <speed>2.330000</speed>
</trkpt>
<trkpt lat="32.729972839" lon="34.997589111">
  <ele>329.697754</ele>
  <time>2011-10-20T07:49:56Z</time>
  <speed>2.320000</speed>
</trkpt>
<trkpt lat="32.729980469" lon="34.997634888">
  <ele>329.854004</ele>
  <time>2011-10-20T07:49:58Z</time>
  <speed>2.140000</speed>
</trkpt>
<trkpt lat="32.729980469" lon="34.997676849">
  <ele>329.838379</ele>
  <time>2011-10-20T07:50:00Z</time>
  <speed>2.160000</speed>
</trkpt>
<trkpt lat="32.729984283" lon="34.997722626">
  <ele>330.049316</ele>
  <time>2011-10-20T07:50:02Z</time>
  <speed>2.270000</speed>
</trkpt>
<trkpt lat="32.729988098" lon="34.997768402">
  <ele>330.291504</ele>
  <time>2011-10-20T07:50:04Z</time>
  <speed>2.380000</speed>
</trkpt>
<trkpt lat="32.729995728" lon="34.997814178">
  <ele>329.994629</ele>
  <time>2011-10-20T07:50:06Z</time>
  <speed>2.340000</speed>
</trkpt>
<trkpt lat="32.730003357" lon="34.997863770">
  <ele>329.689941</ele>
  <time>2011-10-20T07:50:08Z</time>
  <speed>2.470000</speed>
</trkpt>
<trkpt lat="32.730003357" lon="34.997917175">
  <ele>329.838379</ele>
  <time>2011-10-20T07:50:10Z</time>
  <speed>2.010000</speed>
</trkpt>
<trkpt lat="32.730007172" lon="34.997962952">
  <ele>329.900879</ele>
  <time>2011-10-20T07:50:12Z</time>
  <speed>2.260000</speed>
</trkpt>
<trkpt lat="32.730010986" lon="34.998004913">
  <ele>330.619629</ele>
  <time>2011-10-20T07:50:14Z</time>
  <speed>2.360000</speed>
</trkpt>
<trkpt lat="32.730010986" lon="34.998050690">
  <ele>330.682129</ele>
  <time>2011-10-20T07:50:16Z</time>
  <speed>2.400000</speed>
</trkpt>
<trkpt lat="32.730014801" lon="34.998100281">
  <ele>331.033691</ele>
  <time>2011-10-20T07:50:18Z</time>
  <speed>2.460000</speed>
</trkpt>
<trkpt lat="32.730022430" lon="34.998153687">
  <ele>330.955566</ele>
  <time>2011-10-20T07:50:20Z</time>
  <speed>2.400000</speed>
</trkpt>
<trkpt lat="32.730026245" lon="34.998203278">
  <ele>330.994629</ele>
  <time>2011-10-20T07:50:22Z</time>
  <speed>2.320000</speed>
</trkpt>
<trkpt lat="32.730033875" lon="34.998252869">
  <ele>331.010254</ele>
  <time>2011-10-20T07:50:24Z</time>
  <speed>2.420000</speed>
</trkpt>
<trkpt lat="32.730041504" lon="34.998302460">
  <ele>330.643066</ele>
  <time>2011-10-20T07:50:26Z</time>
  <speed>2.470000</speed>
</trkpt>
<trkpt lat="32.730045319" lon="34.998359680">
  <ele>330.611816</ele>
  <time>2011-10-20T07:50:28Z</time>
  <speed>2.610000</speed>
</trkpt>
<trkpt lat="32.730060577" lon="34.998409271">
  <ele>330.666504</ele>
  <time>2011-10-20T07:50:30Z</time>
  <speed>2.520000</speed>
</trkpt>
<trkpt lat="32.730072021" lon="34.998462677">
  <ele>331.041504</ele>
  <time>2011-10-20T07:50:32Z</time>
  <speed>2.730000</speed>
</trkpt>
<trkpt lat="32.730079651" lon="34.998493195">
  <ele>331.510254</ele>
  <time>2011-10-20T07:50:33Z</time>
  <speed>2.920000</speed>
</trkpt>
<trkpt lat="32.730098724" lon="34.998550415">
  <ele>331.549316</ele>
  <time>2011-10-20T07:50:35Z</time>
  <speed>2.790000</speed>
</trkpt>
<trkpt lat="32.730125427" lon="34.998603821">
  <ele>331.713379</ele>
  <time>2011-10-20T07:50:37Z</time>
  <speed>2.830000</speed>
</trkpt>
<trkpt lat="32.730144501" lon="34.998630524">
  <ele>331.502441</ele>
  <time>2011-10-20T07:50:38Z</time>
  <speed>3.000000</speed>
</trkpt>
<trkpt lat="32.730171204" lon="34.998683929">
  <ele>331.994629</ele>
  <time>2011-10-20T07:50:40Z</time>
  <speed>3.060000</speed>
</trkpt>
<trkpt lat="32.730186462" lon="34.998714447">
  <ele>332.447754</ele>
  <time>2011-10-20T07:50:41Z</time>
  <speed>2.980000</speed>
</trkpt>
<trkpt lat="32.730228424" lon="34.998756409">
  <ele>333.330566</ele>
  <time>2011-10-20T07:50:43Z</time>
  <speed>2.580000</speed>
</trkpt>
<trkpt lat="32.730270386" lon="34.998775482">
  <ele>333.674316</ele>
  <time>2011-10-20T07:50:45Z</time>
  <speed>2.560000</speed>
</trkpt>
<trkpt lat="32.730316162" lon="34.998798370">
  <ele>334.369629</ele>
  <time>2011-10-20T07:50:47Z</time>
  <speed>2.500000</speed>
</trkpt>
<trkpt lat="32.730350494" lon="34.998821259">
  <ele>334.814941</ele>
  <time>2011-10-20T07:50:49Z</time>
  <speed>2.440000</speed>
</trkpt>
<trkpt lat="32.730384827" lon="34.998844147">
  <ele>334.729004</ele>
  <time>2011-10-20T07:50:51Z</time>
  <speed>2.300000</speed>
</trkpt>
<trkpt lat="32.730426788" lon="34.998867035">
  <ele>334.533691</ele>
  <time>2011-10-20T07:50:53Z</time>
  <speed>2.120000</speed>
</trkpt>
<trkpt lat="32.730457306" lon="34.998889923">
  <ele>334.299316</ele>
  <time>2011-10-20T07:50:55Z</time>
  <speed>2.410000</speed>
</trkpt>
<trkpt lat="32.730472565" lon="34.998931885">
  <ele>333.033691</ele>
  <time>2011-10-20T07:50:57Z</time>
  <speed>2.430000</speed>
</trkpt>
<trkpt lat="32.730484009" lon="34.998985291">
  <ele>333.361816</ele>
  <time>2011-10-20T07:50:59Z</time>
  <speed>2.170000</speed>
</trkpt>
<trkpt lat="32.730503082" lon="34.999031067">
  <ele>333.635254</ele>
  <time>2011-10-20T07:51:01Z</time>
  <speed>2.380000</speed>
</trkpt>
<trkpt lat="32.730522156" lon="34.999080658">
  <ele>333.838379</ele>
  <time>2011-10-20T07:51:03Z</time>
  <speed>2.440000</speed>
</trkpt>
<trkpt lat="32.730545044" lon="34.999126434">
  <ele>333.830566</ele>
  <time>2011-10-20T07:51:05Z</time>
  <speed>2.360000</speed>
</trkpt>
<trkpt lat="32.730560303" lon="34.999176025">
  <ele>334.385254</ele>
  <time>2011-10-20T07:51:07Z</time>
  <speed>2.260000</speed>
</trkpt>
<trkpt lat="32.730587006" lon="34.999217987">
  <ele>335.408691</ele>
  <time>2011-10-20T07:51:09Z</time>
  <speed>2.480000</speed>
</trkpt>
<trkpt lat="32.730609894" lon="34.999267578">
  <ele>335.557129</ele>
  <time>2011-10-20T07:51:11Z</time>
  <speed>2.650000</speed>
</trkpt>
<trkpt lat="32.730625153" lon="34.999317169">
  <ele>335.877441</ele>
  <time>2011-10-20T07:51:13Z</time>
  <speed>2.210000</speed>
</trkpt>
<trkpt lat="32.730644226" lon="34.999362946">
  <ele>336.033691</ele>
  <time>2011-10-20T07:51:15Z</time>
  <speed>2.350000</speed>
</trkpt>
<trkpt lat="32.730659485" lon="34.999412537">
  <ele>336.369629</ele>
  <time>2011-10-20T07:51:17Z</time>
  <speed>2.490000</speed>
</trkpt>
<trkpt lat="32.730678558" lon="34.999462128">
  <ele>336.205566</ele>
  <time>2011-10-20T07:51:19Z</time>
  <speed>2.290000</speed>
</trkpt>
<trkpt lat="32.730693817" lon="34.999511719">
  <ele>336.549316</ele>
  <time>2011-10-20T07:51:21Z</time>
  <speed>2.490000</speed>
</trkpt>
<trkpt lat="32.730712891" lon="34.999561310">
  <ele>336.486816</ele>
  <time>2011-10-20T07:51:23Z</time>
  <speed>2.530000</speed>
</trkpt>
<trkpt lat="32.730728149" lon="34.999607086">
  <ele>336.541504</ele>
  <time>2011-10-20T07:51:25Z</time>
  <speed>2.310000</speed>
</trkpt>
<trkpt lat="32.730739594" lon="34.999656677">
  <ele>336.736816</ele>
  <time>2011-10-20T07:51:27Z</time>
  <speed>2.470000</speed>
</trkpt>
<trkpt lat="32.730747223" lon="34.999713898">
  <ele>337.135254</ele>
  <time>2011-10-20T07:51:29Z</time>
  <speed>2.560000</speed>
</trkpt>
<trkpt lat="32.730758667" lon="34.999767303">
  <ele>337.439941</ele>
  <time>2011-10-20T07:51:31Z</time>
  <speed>2.710000</speed>
</trkpt>
<trkpt lat="32.730762482" lon="34.999820709">
  <ele>337.502441</ele>
  <time>2011-10-20T07:51:33Z</time>
  <speed>2.770000</speed>
</trkpt>
<trkpt lat="32.730758667" lon="34.999885559">
  <ele>338.260254</ele>
  <time>2011-10-20T07:51:35Z</time>
  <speed>2.670000</speed>
</trkpt>
<trkpt lat="32.730751038" lon="34.999946594">
  <ele>338.682129</ele>
  <time>2011-10-20T07:51:37Z</time>
  <speed>2.650000</speed>
</trkpt>
<trkpt lat="32.730747223" lon="35.000003815">
  <ele>338.283691</ele>
  <time>2011-10-20T07:51:39Z</time>
  <speed>2.860000</speed>
</trkpt>
<trkpt lat="32.730747223" lon="35.000038147">
  <ele>338.463379</ele>
  <time>2011-10-20T07:51:40Z</time>
  <speed>2.940000</speed>
</trkpt>
<trkpt lat="32.730743408" lon="35.000068665">
  <ele>338.838379</ele>
  <time>2011-10-20T07:51:41Z</time>
  <speed>2.960000</speed>
</trkpt>
<trkpt lat="32.730743408" lon="35.000106812">
  <ele>339.510254</ele>
  <time>2011-10-20T07:51:42Z</time>
  <speed>3.120000</speed>
</trkpt>
<trkpt lat="32.730735779" lon="35.000144958">
  <ele>339.869629</ele>
  <time>2011-10-20T07:51:43Z</time>
  <speed>3.100000</speed>
</trkpt>
<trkpt lat="32.730731964" lon="35.000179291">
  <ele>339.541504</ele>
  <time>2011-10-20T07:51:44Z</time>
  <speed>3.030000</speed>
</trkpt>
<trkpt lat="32.730731964" lon="35.000244141">
  <ele>339.572754</ele>
  <time>2011-10-20T07:51:46Z</time>
  <speed>2.950000</speed>
</trkpt>
<trkpt lat="32.730728149" lon="35.000301361">
  <ele>339.588379</ele>
  <time>2011-10-20T07:51:48Z</time>
  <speed>2.900000</speed>
</trkpt>
<trkpt lat="32.730724335" lon="35.000335693">
  <ele>339.947754</ele>
  <time>2011-10-20T07:51:49Z</time>
  <speed>2.810000</speed>
</trkpt>
<trkpt lat="32.730724335" lon="35.000385284">
  <ele>339.104004</ele>
  <time>2011-10-20T07:51:51Z</time>
  <speed>2.650000</speed>
</trkpt>
<trkpt lat="32.730716705" lon="35.000442505">
  <ele>338.814941</ele>
  <time>2011-10-20T07:51:53Z</time>
  <speed>3.050000</speed>
</trkpt>
<trkpt lat="32.730712891" lon="35.000507355">
  <ele>338.447754</ele>
  <time>2011-10-20T07:51:55Z</time>
  <speed>3.120000</speed>
</trkpt>
<trkpt lat="32.730709076" lon="35.000576019">
  <ele>338.900879</ele>
  <time>2011-10-20T07:51:57Z</time>
  <speed>3.430000</speed>
</trkpt>
<trkpt lat="32.730712891" lon="35.000614166">
  <ele>338.916504</ele>
  <time>2011-10-20T07:51:58Z</time>
  <speed>3.510000</speed>
</trkpt>
<trkpt lat="32.730709076" lon="35.000652313">
  <ele>339.119629</ele>
  <time>2011-10-20T07:51:59Z</time>
  <speed>3.420000</speed>
</trkpt>
<trkpt lat="32.730705261" lon="35.000694275">
  <ele>339.111816</ele>
  <time>2011-10-20T07:52:00Z</time>
  <speed>3.640000</speed>
</trkpt>
<trkpt lat="32.730709076" lon="35.000736237">
  <ele>339.369629</ele>
  <time>2011-10-20T07:52:01Z</time>
  <speed>3.630000</speed>
</trkpt>
<trkpt lat="32.730705261" lon="35.000782013">
  <ele>339.682129</ele>
  <time>2011-10-20T07:52:02Z</time>
  <speed>3.940000</speed>
</trkpt>
<trkpt lat="32.730709076" lon="35.000820160">
  <ele>339.596191</ele>
  <time>2011-10-20T07:52:03Z</time>
  <speed>3.780000</speed>
</trkpt>
<trkpt lat="32.730712891" lon="35.000862122">
  <ele>339.682129</ele>
  <time>2011-10-20T07:52:04Z</time>
  <speed>3.460000</speed>
</trkpt>
<trkpt lat="32.730712891" lon="35.000896454">
  <ele>339.697754</ele>
  <time>2011-10-20T07:52:05Z</time>
  <speed>3.350000</speed>
</trkpt>
<trkpt lat="32.730712891" lon="35.000930786">
  <ele>339.736816</ele>
  <time>2011-10-20T07:52:06Z</time>
  <speed>3.330000</speed>
</trkpt>
<trkpt lat="32.730712891" lon="35.000968933">
  <ele>340.010254</ele>
  <time>2011-10-20T07:52:07Z</time>
  <speed>3.460000</speed>
</trkpt>
<trkpt lat="32.730709076" lon="35.001007080">
  <ele>339.916504</ele>
  <time>2011-10-20T07:52:08Z</time>
  <speed>3.610000</speed>
</trkpt>
<trkpt lat="32.730705261" lon="35.001045227">
  <ele>339.627441</ele>
  <time>2011-10-20T07:52:09Z</time>
  <speed>3.910000</speed>
</trkpt>
<trkpt lat="32.730693817" lon="35.001087189">
  <ele>339.307129</ele>
  <time>2011-10-20T07:52:10Z</time>
  <speed>3.900000</speed>
</trkpt>
<trkpt lat="32.730674744" lon="35.001125336">
  <ele>338.916504</ele>
  <time>2011-10-20T07:52:11Z</time>
  <speed>4.360000</speed>
</trkpt>
<trkpt lat="32.730655670" lon="35.001167297">
  <ele>338.658691</ele>
  <time>2011-10-20T07:52:12Z</time>
  <speed>4.000000</speed>
</trkpt>
<trkpt lat="32.730644226" lon="35.001205444">
  <ele>338.439941</ele>
  <time>2011-10-20T07:52:13Z</time>
  <speed>4.150000</speed>
</trkpt>
<trkpt lat="32.730632782" lon="35.001247406">
  <ele>338.354004</ele>
  <time>2011-10-20T07:52:14Z</time>
  <speed>4.240000</speed>
</trkpt>
<trkpt lat="32.730625153" lon="35.001285553">
  <ele>337.861816</ele>
  <time>2011-10-20T07:52:15Z</time>
  <speed>3.900000</speed>
</trkpt>
<trkpt lat="32.730621338" lon="35.001323700">
  <ele>337.627441</ele>
  <time>2011-10-20T07:52:16Z</time>
  <speed>3.820000</speed>
</trkpt>
<trkpt lat="32.730621338" lon="35.001365662">
  <ele>338.104004</ele>
  <time>2011-10-20T07:52:17Z</time>
  <speed>3.650000</speed>
</trkpt>
<trkpt lat="32.730617523" lon="35.001403809">
  <ele>338.385254</ele>
  <time>2011-10-20T07:52:18Z</time>
  <speed>3.820000</speed>
</trkpt>
<trkpt lat="32.730613708" lon="35.001449585">
  <ele>338.674316</ele>
  <time>2011-10-20T07:52:19Z</time>
  <speed>3.950000</speed>
</trkpt>
<trkpt lat="32.730602264" lon="35.001495361">
  <ele>339.182129</ele>
  <time>2011-10-20T07:52:20Z</time>
  <speed>3.940000</speed>
</trkpt>
<trkpt lat="32.730590820" lon="35.001541138">
  <ele>339.619629</ele>
  <time>2011-10-20T07:52:21Z</time>
  <speed>3.750000</speed>
</trkpt>
<trkpt lat="32.730583191" lon="35.001579285">
  <ele>339.604004</ele>
  <time>2011-10-20T07:52:22Z</time>
  <speed>3.690000</speed>
</trkpt>
<trkpt lat="32.730571747" lon="35.001621246">
  <ele>340.143066</ele>
  <time>2011-10-20T07:52:23Z</time>
  <speed>3.750000</speed>
</trkpt>
<trkpt lat="32.730564117" lon="35.001663208">
  <ele>340.760254</ele>
  <time>2011-10-20T07:52:24Z</time>
  <speed>3.610000</speed>
</trkpt>
<trkpt lat="32.730548859" lon="35.001701355">
  <ele>341.518066</ele>
  <time>2011-10-20T07:52:25Z</time>
  <speed>3.790000</speed>
</trkpt>
<trkpt lat="32.730537415" lon="35.001743317">
  <ele>341.932129</ele>
  <time>2011-10-20T07:52:26Z</time>
  <speed>3.790000</speed>
</trkpt>
<trkpt lat="32.730529785" lon="35.001781464">
  <ele>342.518066</ele>
  <time>2011-10-20T07:52:27Z</time>
  <speed>3.880000</speed>
</trkpt>
<trkpt lat="32.730525970" lon="35.001827240">
  <ele>342.877441</ele>
  <time>2011-10-20T07:52:28Z</time>
  <speed>3.570000</speed>
</trkpt>
<trkpt lat="32.730522156" lon="35.001865387">
  <ele>343.541504</ele>
  <time>2011-10-20T07:52:29Z</time>
  <speed>3.530000</speed>
</trkpt>
<trkpt lat="32.730518341" lon="35.001907349">
  <ele>343.994629</ele>
  <time>2011-10-20T07:52:30Z</time>
  <speed>3.890000</speed>
</trkpt>
<trkpt lat="32.730518341" lon="35.001949310">
  <ele>344.408691</ele>
  <time>2011-10-20T07:52:31Z</time>
  <speed>3.570000</speed>
</trkpt>
<trkpt lat="32.730510712" lon="35.001983643">
  <ele>344.072754</ele>
  <time>2011-10-20T07:52:32Z</time>
  <speed>3.470000</speed>
</trkpt>
<trkpt lat="32.730506897" lon="35.002025604">
  <ele>344.658691</ele>
  <time>2011-10-20T07:52:33Z</time>
  <speed>3.330000</speed>
</trkpt>
<trkpt lat="32.730495453" lon="35.002063751">
  <ele>345.650879</ele>
  <time>2011-10-20T07:52:34Z</time>
  <speed>3.480000</speed>
</trkpt>
<trkpt lat="32.730487823" lon="35.002098083">
  <ele>345.814941</ele>
  <time>2011-10-20T07:52:35Z</time>
  <speed>3.430000</speed>
</trkpt>
<trkpt lat="32.730487823" lon="35.002132416">
  <ele>346.197754</ele>
  <time>2011-10-20T07:52:36Z</time>
  <speed>3.280000</speed>
</trkpt>
<trkpt lat="32.730484009" lon="35.002166748">
  <ele>346.408691</ele>
  <time>2011-10-20T07:52:37Z</time>
  <speed>3.580000</speed>
</trkpt>
<trkpt lat="32.730480194" lon="35.002204895">
  <ele>346.854004</ele>
  <time>2011-10-20T07:52:38Z</time>
  <speed>3.600000</speed>
</trkpt>
<trkpt lat="32.730476379" lon="35.002239227">
  <ele>346.861816</ele>
  <time>2011-10-20T07:52:39Z</time>
  <speed>3.500000</speed>
</trkpt>
<trkpt lat="32.730476379" lon="35.002281189">
  <ele>347.197754</ele>
  <time>2011-10-20T07:52:40Z</time>
  <speed>3.690000</speed>
</trkpt>
<trkpt lat="32.730476379" lon="35.002319336">
  <ele>347.338379</ele>
  <time>2011-10-20T07:52:41Z</time>
  <speed>3.700000</speed>
</trkpt>
<trkpt lat="32.730484009" lon="35.002357483">
  <ele>348.049316</ele>
  <time>2011-10-20T07:52:42Z</time>
  <speed>3.430000</speed>
</trkpt>
<trkpt lat="32.730514526" lon="35.002388000">
  <ele>349.033691</ele>
  <time>2011-10-20T07:52:44Z</time>
  <speed>2.330000</speed>
</trkpt>
<trkpt lat="32.730541229" lon="35.002376556">
  <ele>347.994629</ele>
  <time>2011-10-20T07:52:45Z</time>
  <speed>2.320000</speed>
</trkpt>
<trkpt lat="32.730587006" lon="35.002376556">
  <ele>347.275879</ele>
  <time>2011-10-20T07:52:47Z</time>
  <speed>2.520000</speed>
</trkpt>
<trkpt lat="32.730617523" lon="35.002414703">
  <ele>347.150879</ele>
  <time>2011-10-20T07:52:49Z</time>
  <speed>2.550000</speed>
</trkpt>
<trkpt lat="32.730625153" lon="35.002468109">
  <ele>346.838379</ele>
  <time>2011-10-20T07:52:51Z</time>
  <speed>2.780000</speed>
</trkpt>
<trkpt lat="32.730621338" lon="35.002529144">
  <ele>347.080566</ele>
  <time>2011-10-20T07:52:53Z</time>
  <speed>2.560000</speed>
</trkpt>
<trkpt lat="32.730606079" lon="35.002586365">
  <ele>347.564941</ele>
  <time>2011-10-20T07:52:55Z</time>
  <speed>2.640000</speed>
</trkpt>
<trkpt lat="32.730590820" lon="35.002655029">
  <ele>348.346191</ele>
  <time>2011-10-20T07:52:57Z</time>
  <speed>3.120000</speed>
</trkpt>
<trkpt lat="32.730583191" lon="35.002689362">
  <ele>348.377441</ele>
  <time>2011-10-20T07:52:58Z</time>
  <speed>3.030000</speed>
</trkpt>
<trkpt lat="32.730571747" lon="35.002750397">
  <ele>348.291504</ele>
  <time>2011-10-20T07:53:00Z</time>
  <speed>2.930000</speed>
</trkpt>
<trkpt lat="32.730552673" lon="35.002815247">
  <ele>348.564941</ele>
  <time>2011-10-20T07:53:02Z</time>
  <speed>3.010000</speed>
</trkpt>
<trkpt lat="32.730548859" lon="35.002845764">
  <ele>348.830566</ele>
  <time>2011-10-20T07:53:03Z</time>
  <speed>2.890000</speed>
</trkpt>
<trkpt lat="32.730545044" lon="35.002880096">
  <ele>348.908691</ele>
  <time>2011-10-20T07:53:04Z</time>
  <speed>3.240000</speed>
</trkpt>
<trkpt lat="32.730537415" lon="35.002918243">
  <ele>348.838379</ele>
  <time>2011-10-20T07:53:05Z</time>
  <speed>2.900000</speed>
</trkpt>
<trkpt lat="32.730537415" lon="35.002952576">
  <ele>349.463379</ele>
  <time>2011-10-20T07:53:06Z</time>
  <speed>2.560000</speed>
</trkpt>
<trkpt lat="32.730537415" lon="35.003005981">
  <ele>349.424316</ele>
  <time>2011-10-20T07:53:08Z</time>
  <speed>2.610000</speed>
</trkpt>
<trkpt lat="32.730545044" lon="35.003059387">
  <ele>350.314941</ele>
  <time>2011-10-20T07:53:10Z</time>
  <speed>2.570000</speed>
</trkpt>
<trkpt lat="32.730548859" lon="35.003112793">
  <ele>350.885254</ele>
  <time>2011-10-20T07:53:12Z</time>
  <speed>2.470000</speed>
</trkpt>
<trkpt lat="32.730556488" lon="35.003166199">
  <ele>351.158691</ele>
  <time>2011-10-20T07:53:14Z</time>
  <speed>2.350000</speed>
</trkpt>
<trkpt lat="32.730564117" lon="35.003208160">
  <ele>350.533691</ele>
  <time>2011-10-20T07:53:16Z</time>
  <speed>2.090000</speed>
</trkpt>
<trkpt lat="32.730579376" lon="35.003253937">
  <ele>350.979004</ele>
  <time>2011-10-20T07:53:18Z</time>
  <speed>2.170000</speed>
</trkpt>
<trkpt lat="32.730590820" lon="35.003303528">
  <ele>351.682129</ele>
  <time>2011-10-20T07:53:20Z</time>
  <speed>2.350000</speed>
</trkpt>
<trkpt lat="32.730602264" lon="35.003356934">
  <ele>351.549316</ele>
  <time>2011-10-20T07:53:22Z</time>
  <speed>2.380000</speed>
</trkpt>
<trkpt lat="32.730617523" lon="35.003402710">
  <ele>351.744629</ele>
  <time>2011-10-20T07:53:24Z</time>
  <speed>2.120000</speed>
</trkpt>
<trkpt lat="32.730632782" lon="35.003440857">
  <ele>351.869629</ele>
  <time>2011-10-20T07:53:26Z</time>
  <speed>2.340000</speed>
</trkpt>
<trkpt lat="32.730651855" lon="35.003475189">
  <ele>352.143066</ele>
  <time>2011-10-20T07:53:28Z</time>
  <speed>1.810000</speed>
</trkpt>
<trkpt lat="32.730674744" lon="35.003505707">
  <ele>352.736816</ele>
  <time>2011-10-20T07:53:30Z</time>
  <speed>2.090000</speed>
</trkpt>
<trkpt lat="32.730693817" lon="35.003536224">
  <ele>352.322754</ele>
  <time>2011-10-20T07:53:32Z</time>
  <speed>2.010000</speed>
</trkpt>
<trkpt lat="32.730716705" lon="35.003570557">
  <ele>352.783691</ele>
  <time>2011-10-20T07:53:34Z</time>
  <speed>1.660000</speed>
</trkpt>
<trkpt lat="32.730739594" lon="35.003597260">
  <ele>352.846191</ele>
  <time>2011-10-20T07:53:36Z</time>
  <speed>1.600000</speed>
</trkpt>
<trkpt lat="32.730751038" lon="35.003627777">
  <ele>352.494629</ele>
  <time>2011-10-20T07:53:38Z</time>
  <speed>1.650000</speed>
</trkpt>
<trkpt lat="32.730770111" lon="35.003654480">
  <ele>352.205566</ele>
  <time>2011-10-20T07:53:40Z</time>
  <speed>1.590000</speed>
</trkpt>
<trkpt lat="32.730808258" lon="35.003669739">
  <ele>351.768066</ele>
  <time>2011-10-20T07:53:43Z</time>
  <speed>1.760000</speed>
</trkpt>
<trkpt lat="32.730842590" lon="35.003669739">
  <ele>351.705566</ele>
  <time>2011-10-20T07:53:45Z</time>
  <speed>1.830000</speed>
</trkpt>
<trkpt lat="32.730884552" lon="35.003658295">
  <ele>351.057129</ele>
  <time>2011-10-20T07:53:47Z</time>
  <speed>1.920000</speed>
</trkpt>
<trkpt lat="32.730915070" lon="35.003643036">
  <ele>351.479004</ele>
  <time>2011-10-20T07:53:49Z</time>
  <speed>1.580000</speed>
</trkpt>
<trkpt lat="32.730960846" lon="35.003639221">
  <ele>350.955566</ele>
  <time>2011-10-20T07:53:52Z</time>
  <speed>1.650000</speed>
</trkpt>
<trkpt lat="32.730995178" lon="35.003635406">
  <ele>349.822754</ele>
  <time>2011-10-20T07:53:55Z</time>
  <speed>1.760000</speed>
</trkpt>
<trkpt lat="32.731040955" lon="35.003643036">
  <ele>350.244629</ele>
  <time>2011-10-20T07:53:58Z</time>
  <speed>1.580000</speed>
</trkpt>
<trkpt lat="32.731067657" lon="35.003665924">
  <ele>349.854004</ele>
  <time>2011-10-20T07:54:00Z</time>
  <speed>2.020000</speed>
</trkpt>
<trkpt lat="32.731082916" lon="35.003707886">
  <ele>350.002441</ele>
  <time>2011-10-20T07:54:02Z</time>
  <speed>2.000000</speed>
</trkpt>
<trkpt lat="32.731101990" lon="35.003746033">
  <ele>350.385254</ele>
  <time>2011-10-20T07:54:04Z</time>
  <speed>1.800000</speed>
</trkpt>
<trkpt lat="32.731132507" lon="35.003761292">
  <ele>351.580566</ele>
  <time>2011-10-20T07:54:06Z</time>
  <speed>1.700000</speed>
</trkpt>
<trkpt lat="32.731151581" lon="35.003791809">
  <ele>351.807129</ele>
  <time>2011-10-20T07:54:08Z</time>
  <speed>2.030000</speed>
</trkpt>
<trkpt lat="32.731170654" lon="35.003826141">
  <ele>352.049316</ele>
  <time>2011-10-20T07:54:10Z</time>
  <speed>2.240000</speed>
</trkpt>
<trkpt lat="32.731193542" lon="35.003871918">
  <ele>351.611816</ele>
  <time>2011-10-20T07:54:12Z</time>
  <speed>2.220000</speed>
</trkpt>
<trkpt lat="32.731208801" lon="35.003917694">
  <ele>351.916504</ele>
  <time>2011-10-20T07:54:14Z</time>
  <speed>1.990000</speed>
</trkpt>
<trkpt lat="32.731227875" lon="35.003955841">
  <ele>352.268066</ele>
  <time>2011-10-20T07:54:16Z</time>
  <speed>1.990000</speed>
</trkpt>
<trkpt lat="32.731235504" lon="35.004005432">
  <ele>352.682129</ele>
  <time>2011-10-20T07:54:18Z</time>
  <speed>2.540000</speed>
</trkpt>
<trkpt lat="32.731250763" lon="35.004058838">
  <ele>352.799316</ele>
  <time>2011-10-20T07:54:20Z</time>
  <speed>2.580000</speed>
</trkpt>
<trkpt lat="32.731269836" lon="35.004123688">
  <ele>353.291504</ele>
  <time>2011-10-20T07:54:22Z</time>
  <speed>3.470000</speed>
</trkpt>
<trkpt lat="32.731277466" lon="35.004161835">
  <ele>353.939941</ele>
  <time>2011-10-20T07:54:23Z</time>
  <speed>3.350000</speed>
</trkpt>
<trkpt lat="32.731269836" lon="35.004199982">
  <ele>353.768066</ele>
  <time>2011-10-20T07:54:24Z</time>
  <speed>3.230000</speed>
</trkpt>
<trkpt lat="32.731269836" lon="35.004234314">
  <ele>353.807129</ele>
  <time>2011-10-20T07:54:25Z</time>
  <speed>2.780000</speed>
</trkpt>
<trkpt lat="32.731281281" lon="35.004287720">
  <ele>352.900879</ele>
  <time>2011-10-20T07:54:27Z</time>
  <speed>2.780000</speed>
</trkpt>
<trkpt lat="32.731300354" lon="35.004344940">
  <ele>353.213379</ele>
  <time>2011-10-20T07:54:29Z</time>
  <speed>2.610000</speed>
</trkpt>
<trkpt lat="32.731315613" lon="35.004394531">
  <ele>353.236816</ele>
  <time>2011-10-20T07:54:31Z</time>
  <speed>2.800000</speed>
</trkpt>
<trkpt lat="32.731330872" lon="35.004459381">
  <ele>353.658691</ele>
  <time>2011-10-20T07:54:33Z</time>
  <speed>3.020000</speed>
</trkpt>
<trkpt lat="32.731338501" lon="35.004520416">
  <ele>354.018066</ele>
  <time>2011-10-20T07:54:35Z</time>
  <speed>3.120000</speed>
</trkpt>
<trkpt lat="32.731349945" lon="35.004547119">
  <ele>354.260254</ele>
  <time>2011-10-20T07:54:36Z</time>
  <speed>2.910000</speed>
</trkpt>
<trkpt lat="32.731365204" lon="35.004577637">
  <ele>354.572754</ele>
  <time>2011-10-20T07:54:37Z</time>
  <speed>2.870000</speed>
</trkpt>
<trkpt lat="32.731384277" lon="35.004631042">
  <ele>355.018066</ele>
  <time>2011-10-20T07:54:39Z</time>
  <speed>2.620000</speed>
</trkpt>
<trkpt lat="32.731407166" lon="35.004680634">
  <ele>354.549316</ele>
  <time>2011-10-20T07:54:41Z</time>
  <speed>2.480000</speed>
</trkpt>
<trkpt lat="32.731426239" lon="35.004730225">
  <ele>354.291504</ele>
  <time>2011-10-20T07:54:43Z</time>
  <speed>2.480000</speed>
</trkpt>
<trkpt lat="32.731445313" lon="35.004776001">
  <ele>354.322754</ele>
  <time>2011-10-20T07:54:45Z</time>
  <speed>2.180000</speed>
</trkpt>
<trkpt lat="32.731452942" lon="35.004817963">
  <ele>354.174316</ele>
  <time>2011-10-20T07:54:47Z</time>
  <speed>2.100000</speed>
</trkpt>
<trkpt lat="32.731468201" lon="35.004867554">
  <ele>353.619629</ele>
  <time>2011-10-20T07:54:49Z</time>
  <speed>2.300000</speed>
</trkpt>
<trkpt lat="32.731479645" lon="35.004913330">
  <ele>353.854004</ele>
  <time>2011-10-20T07:54:51Z</time>
  <speed>2.200000</speed>
</trkpt>
<trkpt lat="32.731498718" lon="35.004943848">
  <ele>354.557129</ele>
  <time>2011-10-20T07:54:52Z</time>
  <speed>2.450000</speed>
</trkpt>
<trkpt lat="32.731510162" lon="35.004989624">
  <ele>355.143066</ele>
  <time>2011-10-20T07:54:54Z</time>
  <speed>2.180000</speed>
</trkpt>
<trkpt lat="32.731533051" lon="35.005043030">
  <ele>355.236816</ele>
  <time>2011-10-20T07:54:56Z</time>
  <speed>2.450000</speed>
</trkpt>
<trkpt lat="32.731555939" lon="35.005092621">
  <ele>355.963379</ele>
  <time>2011-10-20T07:54:58Z</time>
  <speed>2.620000</speed>
</trkpt>
<trkpt lat="32.731582642" lon="35.005138397">
  <ele>356.447754</ele>
  <time>2011-10-20T07:55:00Z</time>
  <speed>2.630000</speed>
</trkpt>
<trkpt lat="32.731613159" lon="35.005187988">
  <ele>356.627441</ele>
  <time>2011-10-20T07:55:02Z</time>
  <speed>2.600000</speed>
</trkpt>
<trkpt lat="32.731632233" lon="35.005210876">
  <ele>356.377441</ele>
  <time>2011-10-20T07:55:03Z</time>
  <speed>2.680000</speed>
</trkpt>
<trkpt lat="32.731674194" lon="35.005252838">
  <ele>357.041504</ele>
  <time>2011-10-20T07:55:05Z</time>
  <speed>2.750000</speed>
</trkpt>
<trkpt lat="32.731689453" lon="35.005275726">
  <ele>357.346191</ele>
  <time>2011-10-20T07:55:06Z</time>
  <speed>2.540000</speed>
</trkpt>
<trkpt lat="32.731719971" lon="35.005329132">
  <ele>358.924316</ele>
  <time>2011-10-20T07:55:08Z</time>
  <speed>2.580000</speed>
</trkpt>
<trkpt lat="32.731750488" lon="35.005367279">
  <ele>359.471191</ele>
  <time>2011-10-20T07:55:10Z</time>
  <speed>2.670000</speed>
</trkpt>
<trkpt lat="32.731769562" lon="35.005413055">
  <ele>359.291504</ele>
  <time>2011-10-20T07:55:12Z</time>
  <speed>2.820000</speed>
</trkpt>
<trkpt lat="32.731781006" lon="35.005462646">
  <ele>360.721191</ele>
  <time>2011-10-20T07:55:14Z</time>
  <speed>2.570000</speed>
</trkpt>
<trkpt lat="32.731769562" lon="35.005516052">
  <ele>361.744629</ele>
  <time>2011-10-20T07:55:16Z</time>
  <speed>2.190000</speed>
</trkpt>
<trkpt lat="32.731769562" lon="35.005558014">
  <ele>362.854004</ele>
  <time>2011-10-20T07:55:18Z</time>
  <speed>1.990000</speed>
</trkpt>
<trkpt lat="32.731761932" lon="35.005599976">
  <ele>363.627441</ele>
  <time>2011-10-20T07:55:20Z</time>
  <speed>1.920000</speed>
</trkpt>
<trkpt lat="32.731746674" lon="35.005634308">
  <ele>362.775879</ele>
  <time>2011-10-20T07:55:22Z</time>
  <speed>2.020000</speed>
</trkpt>
<trkpt lat="32.731750488" lon="35.005691528">
  <ele>362.877441</ele>
  <time>2011-10-20T07:55:24Z</time>
  <speed>2.810000</speed>
</trkpt>
<trkpt lat="32.731773376" lon="35.005744934">
  <ele>361.924316</ele>
  <time>2011-10-20T07:55:26Z</time>
  <speed>3.230000</speed>
</trkpt>
<trkpt lat="32.731792450" lon="35.005775452">
  <ele>361.893066</ele>
  <time>2011-10-20T07:55:27Z</time>
  <speed>3.700000</speed>
</trkpt>
<trkpt lat="32.731811523" lon="35.005805969">
  <ele>361.510254</ele>
  <time>2011-10-20T07:55:28Z</time>
  <speed>3.860000</speed>
</trkpt>
<trkpt lat="32.731834412" lon="35.005847931">
  <ele>361.588379</ele>
  <time>2011-10-20T07:55:29Z</time>
  <speed>4.090000</speed>
</trkpt>
<trkpt lat="32.731853485" lon="35.005882263">
  <ele>360.455566</ele>
  <time>2011-10-20T07:55:30Z</time>
  <speed>4.280000</speed>
</trkpt>
<trkpt lat="32.731868744" lon="35.005920410">
  <ele>360.166504</ele>
  <time>2011-10-20T07:55:31Z</time>
  <speed>4.450000</speed>
</trkpt>
<trkpt lat="32.731891632" lon="35.005962372">
  <ele>359.916504</ele>
  <time>2011-10-20T07:55:32Z</time>
  <speed>4.850000</speed>
</trkpt>
<trkpt lat="32.731914520" lon="35.006011963">
  <ele>359.197754</ele>
  <time>2011-10-20T07:55:33Z</time>
  <speed>5.480000</speed>
</trkpt>
<trkpt lat="32.731937408" lon="35.006061554">
  <ele>358.939941</ele>
  <time>2011-10-20T07:55:34Z</time>
  <speed>5.560000</speed>
</trkpt>
<trkpt lat="32.731960297" lon="35.006111145">
  <ele>358.705566</ele>
  <time>2011-10-20T07:55:35Z</time>
  <speed>6.000000</speed>
</trkpt>
<trkpt lat="32.731987000" lon="35.006172180">
  <ele>358.814941</ele>
  <time>2011-10-20T07:55:36Z</time>
  <speed>6.340000</speed>
</trkpt>
<trkpt lat="32.732009888" lon="35.006237030">
  <ele>358.564941</ele>
  <time>2011-10-20T07:55:37Z</time>
  <speed>7.140000</speed>
</trkpt>
<trkpt lat="32.732028961" lon="35.006309509">
  <ele>358.346191</ele>
  <time>2011-10-20T07:55:38Z</time>
  <speed>7.910000</speed>
</trkpt>
<trkpt lat="32.732044220" lon="35.006393433">
  <ele>358.150879</ele>
  <time>2011-10-20T07:55:39Z</time>
  <speed>8.360000</speed>
</trkpt>
<trkpt lat="32.732063293" lon="35.006481171">
  <ele>358.119629</ele>
  <time>2011-10-20T07:55:40Z</time>
  <speed>8.660000</speed>
</trkpt>
<trkpt lat="32.732078552" lon="35.006572723">
  <ele>356.947754</ele>
  <time>2011-10-20T07:55:41Z</time>
  <speed>8.910000</speed>
</trkpt>
<trkpt lat="32.732093811" lon="35.006668091">
  <ele>356.611816</ele>
  <time>2011-10-20T07:55:42Z</time>
  <speed>9.380000</speed>
</trkpt>
<trkpt lat="32.732105255" lon="35.006767273">
  <ele>356.072754</ele>
  <time>2011-10-20T07:55:43Z</time>
  <speed>9.530000</speed>
</trkpt>
<trkpt lat="32.732116699" lon="35.006870270">
  <ele>355.807129</ele>
  <time>2011-10-20T07:55:44Z</time>
  <speed>9.570000</speed>
</trkpt>
<trkpt lat="32.732120514" lon="35.006977081">
  <ele>355.330566</ele>
  <time>2011-10-20T07:55:45Z</time>
  <speed>10.140000</speed>
</trkpt>
<trkpt lat="32.732128143" lon="35.007083893">
  <ele>353.650879</ele>
  <time>2011-10-20T07:55:46Z</time>
  <speed>10.290000</speed>
</trkpt>
<trkpt lat="32.732116699" lon="35.007194519">
  <ele>352.127441</ele>
  <time>2011-10-20T07:55:47Z</time>
  <speed>10.540000</speed>
</trkpt>
<trkpt lat="32.732105255" lon="35.007305145">
  <ele>351.924316</ele>
  <time>2011-10-20T07:55:48Z</time>
  <speed>10.240000</speed>
</trkpt>
<trkpt lat="32.732086182" lon="35.007415771">
  <ele>351.119629</ele>
  <time>2011-10-20T07:55:49Z</time>
  <speed>10.900000</speed>
</trkpt>
<trkpt lat="32.732059479" lon="35.007530212">
  <ele>350.619629</ele>
  <time>2011-10-20T07:55:50Z</time>
  <speed>11.270000</speed>
</trkpt>
<trkpt lat="32.732036591" lon="35.007648468">
  <ele>349.916504</ele>
  <time>2011-10-20T07:55:51Z</time>
  <speed>11.380000</speed>
</trkpt>
<trkpt lat="32.732028961" lon="35.007762909">
  <ele>349.830566</ele>
  <time>2011-10-20T07:55:52Z</time>
  <speed>11.510000</speed>
</trkpt>
<trkpt lat="32.732013702" lon="35.007884979">
  <ele>349.158691</ele>
  <time>2011-10-20T07:55:53Z</time>
  <speed>11.810000</speed>
</trkpt>
<trkpt lat="32.731990814" lon="35.008010864">
  <ele>348.354004</ele>
  <time>2011-10-20T07:55:54Z</time>
  <speed>11.970000</speed>
</trkpt>
<trkpt lat="32.731967926" lon="35.008140564">
  <ele>347.791504</ele>
  <time>2011-10-20T07:55:55Z</time>
  <speed>12.340000</speed>
</trkpt>
<trkpt lat="32.731952667" lon="35.008274078">
  <ele>347.197754</ele>
  <time>2011-10-20T07:55:56Z</time>
  <speed>12.350000</speed>
</trkpt>
<trkpt lat="32.731937408" lon="35.008403778">
  <ele>346.518066</ele>
  <time>2011-10-20T07:55:57Z</time>
  <speed>12.330000</speed>
</trkpt>
<trkpt lat="32.731922150" lon="35.008533478">
  <ele>345.822754</ele>
  <time>2011-10-20T07:55:58Z</time>
  <speed>12.520000</speed>
</trkpt>
<trkpt lat="32.731906891" lon="35.008666992">
  <ele>345.213379</ele>
  <time>2011-10-20T07:55:59Z</time>
  <speed>12.660000</speed>
</trkpt>
<trkpt lat="32.731895447" lon="35.008804321">
  <ele>344.596191</ele>
  <time>2011-10-20T07:56:00Z</time>
  <speed>12.780000</speed>
</trkpt>
<trkpt lat="32.731876373" lon="35.008937836">
  <ele>343.486816</ele>
  <time>2011-10-20T07:56:01Z</time>
  <speed>12.860000</speed>
</trkpt>
<trkpt lat="32.731861115" lon="35.009067535">
  <ele>342.197754</ele>
  <time>2011-10-20T07:56:02Z</time>
  <speed>12.860000</speed>
</trkpt>
<trkpt lat="32.731842041" lon="35.009204865">
  <ele>341.064941</ele>
  <time>2011-10-20T07:56:03Z</time>
  <speed>13.170000</speed>
</trkpt>
<trkpt lat="32.731822968" lon="35.009346008">
  <ele>339.986816</ele>
  <time>2011-10-20T07:56:04Z</time>
  <speed>13.140000</speed>
</trkpt>
<trkpt lat="32.731807709" lon="35.009487152">
  <ele>339.439941</ele>
  <time>2011-10-20T07:56:05Z</time>
  <speed>13.030000</speed>
</trkpt>
<trkpt lat="32.731792450" lon="35.009624481">
  <ele>338.869629</ele>
  <time>2011-10-20T07:56:06Z</time>
  <speed>12.880000</speed>
</trkpt>
<trkpt lat="32.731781006" lon="35.009765625">
  <ele>338.338379</ele>
  <time>2011-10-20T07:56:07Z</time>
  <speed>12.720000</speed>
</trkpt>
<trkpt lat="32.731773376" lon="35.009891510">
  <ele>338.088379</ele>
  <time>2011-10-20T07:56:08Z</time>
  <speed>12.110000</speed>
</trkpt>
<trkpt lat="32.731773376" lon="35.010021210">
  <ele>337.736816</ele>
  <time>2011-10-20T07:56:09Z</time>
  <speed>11.620000</speed>
</trkpt>
<trkpt lat="32.731781006" lon="35.010143280">
  <ele>337.174316</ele>
  <time>2011-10-20T07:56:10Z</time>
  <speed>10.949999</speed>
</trkpt>
<trkpt lat="32.731788635" lon="35.010257721">
  <ele>337.361816</ele>
  <time>2011-10-20T07:56:11Z</time>
  <speed>10.440000</speed>
</trkpt>
<trkpt lat="32.731803894" lon="35.010360718">
  <ele>337.596191</ele>
  <time>2011-10-20T07:56:12Z</time>
  <speed>9.220000</speed>
</trkpt>
<trkpt lat="32.731822968" lon="35.010456085">
  <ele>337.588379</ele>
  <time>2011-10-20T07:56:13Z</time>
  <speed>8.390000</speed>
</trkpt>
<trkpt lat="32.731845856" lon="35.010540009">
  <ele>338.088379</ele>
  <time>2011-10-20T07:56:14Z</time>
  <speed>7.910000</speed>
</trkpt>
<trkpt lat="32.731861115" lon="35.010620117">
  <ele>338.479004</ele>
  <time>2011-10-20T07:56:15Z</time>
  <speed>7.440000</speed>
</trkpt>
<trkpt lat="32.731880188" lon="35.010696411">
  <ele>338.580566</ele>
  <time>2011-10-20T07:56:16Z</time>
  <speed>6.840000</speed>
</trkpt>
<trkpt lat="32.731891632" lon="35.010765076">
  <ele>338.963379</ele>
  <time>2011-10-20T07:56:17Z</time>
  <speed>6.340000</speed>
</trkpt>
<trkpt lat="32.731906891" lon="35.010829926">
  <ele>339.439941</ele>
  <time>2011-10-20T07:56:18Z</time>
  <speed>5.950000</speed>
</trkpt>
<trkpt lat="32.731914520" lon="35.010887146">
  <ele>339.666504</ele>
  <time>2011-10-20T07:56:19Z</time>
  <speed>5.170000</speed>
</trkpt>
<trkpt lat="32.731925964" lon="35.010940552">
  <ele>339.713379</ele>
  <time>2011-10-20T07:56:20Z</time>
  <speed>4.720000</speed>
</trkpt>
<trkpt lat="32.731933594" lon="35.010990143">
  <ele>340.658691</ele>
  <time>2011-10-20T07:56:21Z</time>
  <speed>4.560000</speed>
</trkpt>
<trkpt lat="32.731945038" lon="35.011035919">
  <ele>341.143066</ele>
  <time>2011-10-20T07:56:22Z</time>
  <speed>4.520000</speed>
</trkpt>
<trkpt lat="32.731952667" lon="35.011077881">
  <ele>341.135254</ele>
  <time>2011-10-20T07:56:23Z</time>
  <speed>4.120000</speed>
</trkpt>
<trkpt lat="32.731960297" lon="35.011123657">
  <ele>341.572754</ele>
  <time>2011-10-20T07:56:24Z</time>
  <speed>4.020000</speed>
</trkpt>
<trkpt lat="32.731967926" lon="35.011161804">
  <ele>341.807129</ele>
  <time>2011-10-20T07:56:25Z</time>
  <speed>3.960000</speed>
</trkpt>
<trkpt lat="32.731979370" lon="35.011199951">
  <ele>342.143066</ele>
  <time>2011-10-20T07:56:26Z</time>
  <speed>3.790000</speed>
</trkpt>
<trkpt lat="32.731987000" lon="35.011238098">
  <ele>342.557129</ele>
  <time>2011-10-20T07:56:27Z</time>
  <speed>3.880000</speed>
</trkpt>
<trkpt lat="32.731994629" lon="35.011276245">
  <ele>342.752441</ele>
  <time>2011-10-20T07:56:28Z</time>
  <speed>3.850000</speed>
</trkpt>
<trkpt lat="32.732006073" lon="35.011314392">
  <ele>342.939941</ele>
  <time>2011-10-20T07:56:29Z</time>
  <speed>3.730000</speed>
</trkpt>
<trkpt lat="32.732009888" lon="35.011352539">
  <ele>343.260254</ele>
  <time>2011-10-20T07:56:30Z</time>
  <speed>3.600000</speed>
</trkpt>
<trkpt lat="32.732017517" lon="35.011390686">
  <ele>343.322754</ele>
  <time>2011-10-20T07:56:31Z</time>
  <speed>3.710000</speed>
</trkpt>
<trkpt lat="32.732025146" lon="35.011425018">
  <ele>343.424316</ele>
  <time>2011-10-20T07:56:32Z</time>
  <speed>3.470000</speed>
</trkpt>
<trkpt lat="32.732036591" lon="35.011459351">
  <ele>343.447754</ele>
  <time>2011-10-20T07:56:33Z</time>
  <speed>3.480000</speed>
</trkpt>
<trkpt lat="32.732040405" lon="35.011489868">
  <ele>343.361816</ele>
  <time>2011-10-20T07:56:34Z</time>
  <speed>3.510000</speed>
</trkpt>
<trkpt lat="32.732048035" lon="35.011524200">
  <ele>343.557129</ele>
  <time>2011-10-20T07:56:35Z</time>
  <speed>3.260000</speed>
</trkpt>
<trkpt lat="32.732051849" lon="35.011562347">
  <ele>343.979004</ele>
  <time>2011-10-20T07:56:36Z</time>
  <speed>3.310000</speed>
</trkpt>
<trkpt lat="32.732055664" lon="35.011600494">
  <ele>344.471191</ele>
  <time>2011-10-20T07:56:37Z</time>
  <speed>3.220000</speed>
</trkpt>
<trkpt lat="32.732067108" lon="35.011665344">
  <ele>344.854004</ele>
  <time>2011-10-20T07:56:39Z</time>
  <speed>3.260000</speed>
</trkpt>
<trkpt lat="32.732074738" lon="35.011699677">
  <ele>345.525879</ele>
  <time>2011-10-20T07:56:40Z</time>
  <speed>3.160000</speed>
</trkpt>
<trkpt lat="32.732078552" lon="35.011734009">
  <ele>345.689941</ele>
  <time>2011-10-20T07:56:41Z</time>
  <speed>3.140000</speed>
</trkpt>
<trkpt lat="32.732082367" lon="35.011768341">
  <ele>346.205566</ele>
  <time>2011-10-20T07:56:42Z</time>
  <speed>3.220000</speed>
</trkpt>
<trkpt lat="32.732086182" lon="35.011798859">
  <ele>346.182129</ele>
  <time>2011-10-20T07:56:43Z</time>
  <speed>3.260000</speed>
</trkpt>
<trkpt lat="32.732097626" lon="35.011859894">
  <ele>346.854004</ele>
  <time>2011-10-20T07:56:45Z</time>
  <speed>3.030000</speed>
</trkpt>
<trkpt lat="32.732105255" lon="35.011890411">
  <ele>347.307129</ele>
  <time>2011-10-20T07:56:46Z</time>
  <speed>2.920000</speed>
</trkpt>
<trkpt lat="32.732112885" lon="35.011924744">
  <ele>347.572754</ele>
  <time>2011-10-20T07:56:47Z</time>
  <speed>3.040000</speed>
</trkpt>
<trkpt lat="32.732124329" lon="35.011985779">
  <ele>348.346191</ele>
  <time>2011-10-20T07:56:49Z</time>
  <speed>2.910000</speed>
</trkpt>
<trkpt lat="32.732128143" lon="35.012016296">
  <ele>348.635254</ele>
  <time>2011-10-20T07:56:50Z</time>
  <speed>2.900000</speed>
</trkpt>
<trkpt lat="32.732135773" lon="35.012077332">
  <ele>349.189941</ele>
  <time>2011-10-20T07:56:52Z</time>
  <speed>2.750000</speed>
</trkpt>
<trkpt lat="32.732143402" lon="35.012126923">
  <ele>349.338379</ele>
  <time>2011-10-20T07:56:54Z</time>
  <speed>2.650000</speed>
</trkpt>
<trkpt lat="32.732154846" lon="35.012180328">
  <ele>349.494629</ele>
  <time>2011-10-20T07:56:56Z</time>
  <speed>2.900000</speed>
</trkpt>
<trkpt lat="32.732162476" lon="35.012237549">
  <ele>350.018066</ele>
  <time>2011-10-20T07:56:58Z</time>
  <speed>2.600000</speed>
</trkpt>
<trkpt lat="32.732166290" lon="35.012287140">
  <ele>350.455566</ele>
  <time>2011-10-20T07:57:00Z</time>
  <speed>2.630000</speed>
</trkpt>
<trkpt lat="32.732181549" lon="35.012344360">
  <ele>350.994629</ele>
  <time>2011-10-20T07:57:02Z</time>
  <speed>2.730000</speed>
</trkpt>
<trkpt lat="32.732189178" lon="35.012401581">
  <ele>351.760254</ele>
  <time>2011-10-20T07:57:04Z</time>
  <speed>2.420000</speed>
</trkpt>
<trkpt lat="32.732192993" lon="35.012458801">
  <ele>352.229004</ele>
  <time>2011-10-20T07:57:06Z</time>
  <speed>2.410000</speed>
</trkpt>
<trkpt lat="32.732204437" lon="35.012508392">
  <ele>352.752441</ele>
  <time>2011-10-20T07:57:08Z</time>
  <speed>2.250000</speed>
</trkpt>
<trkpt lat="32.732219696" lon="35.012550354">
  <ele>352.838379</ele>
  <time>2011-10-20T07:57:10Z</time>
  <speed>2.160000</speed>
</trkpt>
<trkpt lat="32.732227325" lon="35.012592316">
  <ele>353.447754</ele>
  <time>2011-10-20T07:57:12Z</time>
  <speed>2.090000</speed>
</trkpt>
<trkpt lat="32.732231140" lon="35.012638092">
  <ele>353.393066</ele>
  <time>2011-10-20T07:57:14Z</time>
  <speed>2.210000</speed>
</trkpt>
<trkpt lat="32.732242584" lon="35.012687683">
  <ele>354.533691</ele>
  <time>2011-10-20T07:57:16Z</time>
  <speed>2.040000</speed>
</trkpt>
<trkpt lat="32.732257843" lon="35.012729645">
  <ele>354.518066</ele>
  <time>2011-10-20T07:57:18Z</time>
  <speed>1.790000</speed>
</trkpt>
<trkpt lat="32.732273102" lon="35.012767792">
  <ele>355.400879</ele>
  <time>2011-10-20T07:57:20Z</time>
  <speed>1.820000</speed>
</trkpt>
<trkpt lat="32.732276917" lon="35.012817383">
  <ele>356.439941</ele>
  <time>2011-10-20T07:57:22Z</time>
  <speed>2.080000</speed>
</trkpt>
<trkpt lat="32.732276917" lon="35.012855530">
  <ele>356.510254</ele>
  <time>2011-10-20T07:57:24Z</time>
  <speed>1.890000</speed>
</trkpt>
<trkpt lat="32.732284546" lon="35.012893677">
  <ele>357.025879</ele>
  <time>2011-10-20T07:57:26Z</time>
  <speed>1.530000</speed>
</trkpt>
<trkpt lat="32.732288361" lon="35.012924194">
  <ele>357.158691</ele>
  <time>2011-10-20T07:57:28Z</time>
  <speed>1.590000</speed>
</trkpt>
<trkpt lat="32.732292175" lon="35.012958527">
  <ele>356.611816</ele>
  <time>2011-10-20T07:57:31Z</time>
  <speed>0.840000</speed>
</trkpt>
<trkpt lat="32.732303619" lon="35.013004303">
  <ele>356.596191</ele>
  <time>2011-10-20T07:59:49Z</time>
  <speed>1.400000</speed>
</trkpt>
<trkpt lat="32.732322693" lon="35.013042450">
  <ele>357.424316</ele>
  <time>2011-10-20T07:59:51Z</time>
  <speed>2.070000</speed>
</trkpt>
<trkpt lat="32.732337952" lon="35.013088226">
  <ele>358.221191</ele>
  <time>2011-10-20T07:59:53Z</time>
  <speed>1.970000</speed>
</trkpt>
<trkpt lat="32.732345581" lon="35.013126373">
  <ele>358.494629</ele>
  <time>2011-10-20T07:59:55Z</time>
  <speed>2.380000</speed>
</trkpt>
<trkpt lat="32.732353210" lon="35.013179779">
  <ele>358.885254</ele>
  <time>2011-10-20T07:59:57Z</time>
  <speed>2.320000</speed>
</trkpt>
<trkpt lat="32.732360840" lon="35.013237000">
  <ele>359.346191</ele>
  <time>2011-10-20T07:59:59Z</time>
  <speed>2.440000</speed>
</trkpt>
<trkpt lat="32.732372284" lon="35.013290405">
  <ele>360.299316</ele>
  <time>2011-10-20T08:00:01Z</time>
  <speed>2.460000</speed>
</trkpt>
<trkpt lat="32.732383728" lon="35.013343811">
  <ele>361.338379</ele>
  <time>2011-10-20T08:00:03Z</time>
  <speed>2.380000</speed>
</trkpt>
<trkpt lat="32.732387543" lon="35.013397217">
  <ele>362.260254</ele>
  <time>2011-10-20T08:00:05Z</time>
  <speed>1.740000</speed>
</trkpt>
<trkpt lat="32.732391357" lon="35.013439178">
  <ele>362.830566</ele>
  <time>2011-10-20T08:00:07Z</time>
  <speed>2.010000</speed>
</trkpt>
<trkpt lat="32.732395172" lon="35.013481140">
  <ele>363.330566</ele>
  <time>2011-10-20T08:00:09Z</time>
  <speed>1.770000</speed>
</trkpt>
<trkpt lat="32.732395172" lon="35.013523102">
  <ele>363.588379</ele>
  <time>2011-10-20T08:00:11Z</time>
  <speed>2.250000</speed>
</trkpt>
<trkpt lat="32.732402802" lon="35.013576508">
  <ele>364.119629</ele>
  <time>2011-10-20T08:00:13Z</time>
  <speed>2.280000</speed>
</trkpt>
<trkpt lat="32.732414246" lon="35.013622284">
  <ele>364.807129</ele>
  <time>2011-10-20T08:00:15Z</time>
  <speed>2.360000</speed>
</trkpt>
<trkpt lat="32.732421875" lon="35.013668060">
  <ele>365.244629</ele>
  <time>2011-10-20T08:00:17Z</time>
  <speed>1.870000</speed>
</trkpt>
<trkpt lat="32.732433319" lon="35.013702393">
  <ele>364.572754</ele>
  <time>2011-10-20T08:00:19Z</time>
  <speed>1.980000</speed>
</trkpt>
<trkpt lat="32.732437134" lon="35.013744354">
  <ele>365.299316</ele>
  <time>2011-10-20T08:00:21Z</time>
  <speed>2.050000</speed>
</trkpt>
<trkpt lat="32.732440948" lon="35.013793945">
  <ele>365.604004</ele>
  <time>2011-10-20T08:00:23Z</time>
  <speed>2.160000</speed>
</trkpt>
<trkpt lat="32.732444763" lon="35.013843536">
  <ele>365.893066</ele>
  <time>2011-10-20T08:00:25Z</time>
  <speed>2.200000</speed>
</trkpt>
<trkpt lat="32.732456207" lon="35.013893127">
  <ele>366.088379</ele>
  <time>2011-10-20T08:00:27Z</time>
  <speed>2.170000</speed>
</trkpt>
<trkpt lat="32.732463837" lon="35.013938904">
  <ele>367.010254</ele>
  <time>2011-10-20T08:00:29Z</time>
  <speed>2.280000</speed>
</trkpt>
<trkpt lat="32.732479095" lon="35.013984680">
  <ele>367.799316</ele>
  <time>2011-10-20T08:00:31Z</time>
  <speed>2.410000</speed>
</trkpt>
<trkpt lat="32.732490540" lon="35.014034271">
  <ele>368.268066</ele>
  <time>2011-10-20T08:00:33Z</time>
  <speed>2.110000</speed>
</trkpt>
<trkpt lat="32.732509613" lon="35.014076233">
  <ele>368.221191</ele>
  <time>2011-10-20T08:00:35Z</time>
  <speed>2.120000</speed>
</trkpt>
<trkpt lat="32.732524872" lon="35.014125824">
  <ele>369.260254</ele>
  <time>2011-10-20T08:00:37Z</time>
  <speed>2.420000</speed>
</trkpt>
<trkpt lat="32.732547760" lon="35.014175415">
  <ele>369.838379</ele>
  <time>2011-10-20T08:00:39Z</time>
  <speed>2.370000</speed>
</trkpt>
<trkpt lat="32.732563019" lon="35.014213562">
  <ele>369.846191</ele>
  <time>2011-10-20T08:00:41Z</time>
  <speed>1.640000</speed>
</trkpt>
<trkpt lat="32.732582092" lon="35.014247894">
  <ele>369.979004</ele>
  <time>2011-10-20T08:00:43Z</time>
  <speed>1.790000</speed>
</trkpt>
<trkpt lat="32.732604980" lon="35.014270782">
  <ele>369.416504</ele>
  <time>2011-10-20T08:00:45Z</time>
  <speed>1.780000</speed>
</trkpt>
<trkpt lat="32.732635498" lon="35.014289856">
  <ele>369.463379</ele>
  <time>2011-10-20T08:00:47Z</time>
  <speed>1.670000</speed>
</trkpt>
<trkpt lat="32.732662201" lon="35.014297485">
  <ele>369.557129</ele>
  <time>2011-10-20T08:00:49Z</time>
  <speed>2.010000</speed>
</trkpt>
<trkpt lat="32.732704163" lon="35.014301300">
  <ele>369.416504</ele>
  <time>2011-10-20T08:00:51Z</time>
  <speed>2.180000</speed>
</trkpt>
<trkpt lat="32.732742310" lon="35.014316559">
  <ele>369.541504</ele>
  <time>2011-10-20T08:00:53Z</time>
  <speed>2.410000</speed>
</trkpt>
<trkpt lat="32.732784271" lon="35.014320374">
  <ele>369.533691</ele>
  <time>2011-10-20T08:00:55Z</time>
  <speed>2.270000</speed>
</trkpt>
<trkpt lat="32.732826233" lon="35.014316559">
  <ele>369.424316</ele>
  <time>2011-10-20T08:00:57Z</time>
  <speed>2.220000</speed>
</trkpt>
<trkpt lat="32.732868195" lon="35.014320374">
  <ele>368.924316</ele>
  <time>2011-10-20T08:00:59Z</time>
  <speed>2.380000</speed>
</trkpt>
<trkpt lat="32.732913971" lon="35.014316559">
  <ele>368.502441</ele>
  <time>2011-10-20T08:01:01Z</time>
  <speed>2.620000</speed>
</trkpt>
<trkpt lat="32.732963562" lon="35.014320374">
  <ele>368.338379</ele>
  <time>2011-10-20T08:01:03Z</time>
  <speed>3.020000</speed>
</trkpt>
<trkpt lat="32.733013153" lon="35.014328003">
  <ele>368.588379</ele>
  <time>2011-10-20T08:01:05Z</time>
  <speed>2.890000</speed>
</trkpt>
<trkpt lat="32.733058929" lon="35.014328003">
  <ele>368.291504</ele>
  <time>2011-10-20T08:01:07Z</time>
  <speed>3.140000</speed>
</trkpt>
<trkpt lat="32.733089447" lon="35.014331818">
  <ele>368.346191</ele>
  <time>2011-10-20T08:01:08Z</time>
  <speed>3.230000</speed>
</trkpt>
<trkpt lat="32.733119965" lon="35.014328003">
  <ele>367.916504</ele>
  <time>2011-10-20T08:01:09Z</time>
  <speed>3.510000</speed>
</trkpt>
<trkpt lat="32.733154297" lon="35.014324188">
  <ele>367.799316</ele>
  <time>2011-10-20T08:01:10Z</time>
  <speed>3.680000</speed>
</trkpt>
<trkpt lat="32.733184814" lon="35.014316559">
  <ele>367.713379</ele>
  <time>2011-10-20T08:01:11Z</time>
  <speed>3.460000</speed>
</trkpt>
<trkpt lat="32.733219147" lon="35.014312744">
  <ele>367.377441</ele>
  <time>2011-10-20T08:01:12Z</time>
  <speed>3.530000</speed>
</trkpt>
<trkpt lat="32.733257294" lon="35.014308929">
  <ele>366.666504</ele>
  <time>2011-10-20T08:01:13Z</time>
  <speed>3.510000</speed>
</trkpt>
<trkpt lat="32.733291626" lon="35.014293671">
  <ele>366.064941</ele>
  <time>2011-10-20T08:01:14Z</time>
  <speed>3.770000</speed>
</trkpt>
<trkpt lat="32.733329773" lon="35.014282227">
  <ele>365.924316</ele>
  <time>2011-10-20T08:01:15Z</time>
  <speed>4.050000</speed>
</trkpt>
<trkpt lat="32.733367920" lon="35.014270782">
  <ele>365.479004</ele>
  <time>2011-10-20T08:01:16Z</time>
  <speed>4.360000</speed>
</trkpt>
<trkpt lat="32.733406067" lon="35.014263153">
  <ele>365.174316</ele>
  <time>2011-10-20T08:01:17Z</time>
  <speed>4.730000</speed>
</trkpt>
<trkpt lat="32.733451843" lon="35.014251709">
  <ele>364.564941</ele>
  <time>2011-10-20T08:01:18Z</time>
  <speed>5.110000</speed>
</trkpt>
<trkpt lat="32.733497620" lon="35.014236450">
  <ele>363.986816</ele>
  <time>2011-10-20T08:01:19Z</time>
  <speed>5.350000</speed>
</trkpt>
<trkpt lat="32.733543396" lon="35.014221191">
  <ele>362.916504</ele>
  <time>2011-10-20T08:01:20Z</time>
  <speed>5.510000</speed>
</trkpt>
<trkpt lat="32.733589172" lon="35.014202118">
  <ele>362.650879</ele>
  <time>2011-10-20T08:01:21Z</time>
  <speed>5.790000</speed>
</trkpt>
<trkpt lat="32.733634949" lon="35.014183044">
  <ele>362.424316</ele>
  <time>2011-10-20T08:01:22Z</time>
  <speed>5.960000</speed>
</trkpt>
<trkpt lat="32.733684540" lon="35.014167786">
  <ele>361.994629</ele>
  <time>2011-10-20T08:01:23Z</time>
  <speed>6.170000</speed>
</trkpt>
<trkpt lat="32.733734131" lon="35.014152527">
  <ele>361.932129</ele>
  <time>2011-10-20T08:01:24Z</time>
  <speed>6.140000</speed>
</trkpt>
<trkpt lat="32.733787537" lon="35.014125824">
  <ele>361.666504</ele>
  <time>2011-10-20T08:01:25Z</time>
  <speed>6.170000</speed>
</trkpt>
<trkpt lat="32.733837128" lon="35.014099121">
  <ele>361.143066</ele>
  <time>2011-10-20T08:01:26Z</time>
  <speed>6.090000</speed>
</trkpt>
<trkpt lat="32.733890533" lon="35.014068604">
  <ele>360.354004</ele>
  <time>2011-10-20T08:01:27Z</time>
  <speed>6.640000</speed>
</trkpt>
<trkpt lat="32.733943939" lon="35.014026642">
  <ele>360.041504</ele>
  <time>2011-10-20T08:01:28Z</time>
  <speed>6.560000</speed>
</trkpt>
<trkpt lat="32.733993530" lon="35.013984680">
  <ele>359.807129</ele>
  <time>2011-10-20T08:01:29Z</time>
  <speed>7.040000</speed>
</trkpt>
<trkpt lat="32.734050751" lon="35.013942719">
  <ele>359.096191</ele>
  <time>2011-10-20T08:01:30Z</time>
  <speed>7.170000</speed>
</trkpt>
<trkpt lat="32.734107971" lon="35.013916016">
  <ele>358.604004</ele>
  <time>2011-10-20T08:01:31Z</time>
  <speed>7.180000</speed>
</trkpt>
<trkpt lat="32.734165192" lon="35.013896942">
  <ele>358.260254</ele>
  <time>2011-10-20T08:01:32Z</time>
  <speed>6.770000</speed>
</trkpt>
<trkpt lat="32.734222412" lon="35.013881683">
  <ele>358.049316</ele>
  <time>2011-10-20T08:01:33Z</time>
  <speed>6.650000</speed>
</trkpt>
<trkpt lat="32.734272003" lon="35.013854980">
  <ele>357.760254</ele>
  <time>2011-10-20T08:01:34Z</time>
  <speed>6.260000</speed>
</trkpt>
<trkpt lat="32.734310150" lon="35.013824463">
  <ele>357.814941</ele>
  <time>2011-10-20T08:01:35Z</time>
  <speed>5.720000</speed>
</trkpt>
<trkpt lat="32.734348297" lon="35.013790131">
  <ele>357.729004</ele>
  <time>2011-10-20T08:01:36Z</time>
  <speed>5.440000</speed>
</trkpt>
<trkpt lat="32.734390259" lon="35.013751984">
  <ele>357.932129</ele>
  <time>2011-10-20T08:01:37Z</time>
  <speed>5.970000</speed>
</trkpt>
<trkpt lat="32.734432220" lon="35.013721466">
  <ele>357.518066</ele>
  <time>2011-10-20T08:01:38Z</time>
  <speed>5.700000</speed>
</trkpt>
<trkpt lat="32.734470367" lon="35.013687134">
  <ele>357.838379</ele>
  <time>2011-10-20T08:01:39Z</time>
  <speed>5.190000</speed>
</trkpt>
<trkpt lat="32.734512329" lon="35.013660431">
  <ele>358.111816</ele>
  <time>2011-10-20T08:01:40Z</time>
  <speed>4.850000</speed>
</trkpt>
<trkpt lat="32.734561920" lon="35.013629913">
  <ele>357.471191</ele>
  <time>2011-10-20T08:01:41Z</time>
  <speed>4.350000</speed>
</trkpt>
<trkpt lat="32.734603882" lon="35.013599396">
  <ele>357.518066</ele>
  <time>2011-10-20T08:01:42Z</time>
  <speed>4.380000</speed>
</trkpt>
<trkpt lat="32.734642029" lon="35.013576508">
  <ele>357.658691</ele>
  <time>2011-10-20T08:01:43Z</time>
  <speed>4.150000</speed>
</trkpt>
<trkpt lat="32.734680176" lon="35.013545990">
  <ele>358.283691</ele>
  <time>2011-10-20T08:01:44Z</time>
  <speed>4.220000</speed>
</trkpt>
<trkpt lat="32.734714508" lon="35.013515472">
  <ele>358.994629</ele>
  <time>2011-10-20T08:01:45Z</time>
  <speed>4.110000</speed>
</trkpt>
<trkpt lat="32.734748840" lon="35.013488770">
  <ele>359.096191</ele>
  <time>2011-10-20T08:01:46Z</time>
  <speed>4.070000</speed>
</trkpt>
<trkpt lat="32.734783173" lon="35.013465881">
  <ele>359.283691</ele>
  <time>2011-10-20T08:01:47Z</time>
  <speed>4.020000</speed>
</trkpt>
<trkpt lat="32.734809875" lon="35.013439178">
  <ele>360.275879</ele>
  <time>2011-10-20T08:01:48Z</time>
  <speed>4.010000</speed>
</trkpt>
<trkpt lat="32.734836578" lon="35.013408661">
  <ele>360.885254</ele>
  <time>2011-10-20T08:01:49Z</time>
  <speed>4.000000</speed>
</trkpt>
<trkpt lat="32.734863281" lon="35.013378143">
  <ele>361.064941</ele>
  <time>2011-10-20T08:01:50Z</time>
  <speed>3.930000</speed>
</trkpt>
<trkpt lat="32.734886169" lon="35.013343811">
  <ele>361.197754</ele>
  <time>2011-10-20T08:01:51Z</time>
  <speed>4.110000</speed>
</trkpt>
<trkpt lat="32.734912872" lon="35.013313293">
  <ele>361.439941</ele>
  <time>2011-10-20T08:01:52Z</time>
  <speed>3.930000</speed>
</trkpt>
<trkpt lat="32.734939575" lon="35.013282776">
  <ele>361.330566</ele>
  <time>2011-10-20T08:01:53Z</time>
  <speed>4.020000</speed>
</trkpt>
<trkpt lat="32.734970093" lon="35.013259888">
  <ele>361.447754</ele>
  <time>2011-10-20T08:01:54Z</time>
  <speed>3.870000</speed>
</trkpt>
<trkpt lat="32.735000610" lon="35.013237000">
  <ele>361.611816</ele>
  <time>2011-10-20T08:01:55Z</time>
  <speed>3.770000</speed>
</trkpt>
<trkpt lat="32.735031128" lon="35.013221741">
  <ele>361.979004</ele>
  <time>2011-10-20T08:01:56Z</time>
  <speed>3.580000</speed>
</trkpt>
<trkpt lat="32.735061646" lon="35.013214111">
  <ele>361.588379</ele>
  <time>2011-10-20T08:01:57Z</time>
  <speed>3.510000</speed>
</trkpt>
<trkpt lat="32.735092163" lon="35.013202667">
  <ele>361.877441</ele>
  <time>2011-10-20T08:01:58Z</time>
  <speed>3.510000</speed>
</trkpt>
<trkpt lat="32.735122681" lon="35.013198853">
  <ele>362.729004</ele>
  <time>2011-10-20T08:01:59Z</time>
  <speed>3.220000</speed>
</trkpt>
<trkpt lat="32.735153198" lon="35.013198853">
  <ele>363.174316</ele>
  <time>2011-10-20T08:02:00Z</time>
  <speed>3.130000</speed>
</trkpt>
<trkpt lat="32.735179901" lon="35.013202667">
  <ele>363.549316</ele>
  <time>2011-10-20T08:02:01Z</time>
  <speed>2.980000</speed>
</trkpt>
<trkpt lat="32.735229492" lon="35.013210297">
  <ele>364.588379</ele>
  <time>2011-10-20T08:02:03Z</time>
  <speed>2.710000</speed>
</trkpt>
<trkpt lat="32.735279083" lon="35.013210297">
  <ele>365.393066</ele>
  <time>2011-10-20T08:02:05Z</time>
  <speed>2.630000</speed>
</trkpt>
<trkpt lat="32.735328674" lon="35.013221741">
  <ele>365.330566</ele>
  <time>2011-10-20T08:02:07Z</time>
  <speed>3.230000</speed>
</trkpt>
<trkpt lat="32.735382080" lon="35.013210297">
  <ele>365.135254</ele>
  <time>2011-10-20T08:02:09Z</time>
  <speed>3.350000</speed>
</trkpt>
<trkpt lat="32.735412598" lon="35.013202667">
  <ele>365.182129</ele>
  <time>2011-10-20T08:02:10Z</time>
  <speed>3.850000</speed>
</trkpt>
<trkpt lat="32.735450745" lon="35.013187408">
  <ele>364.900879</ele>
  <time>2011-10-20T08:02:11Z</time>
  <speed>4.380000</speed>
</trkpt>
<trkpt lat="32.735485077" lon="35.013164520">
  <ele>365.135254</ele>
  <time>2011-10-20T08:02:12Z</time>
  <speed>3.980000</speed>
</trkpt>
<trkpt lat="32.735511780" lon="35.013141632">
  <ele>364.549316</ele>
  <time>2011-10-20T08:02:13Z</time>
  <speed>3.600000</speed>
</trkpt>
<trkpt lat="32.735538483" lon="35.013118744">
  <ele>363.963379</ele>
  <time>2011-10-20T08:02:14Z</time>
  <speed>4.020000</speed>
</trkpt>
<trkpt lat="32.735569000" lon="35.013092041">
  <ele>363.463379</ele>
  <time>2011-10-20T08:02:15Z</time>
  <speed>3.790000</speed>
</trkpt>
<trkpt lat="32.735599518" lon="35.013076782">
  <ele>363.143066</ele>
  <time>2011-10-20T08:02:16Z</time>
  <speed>3.660000</speed>
</trkpt>
<trkpt lat="32.735626221" lon="35.013069153">
  <ele>362.736816</ele>
  <time>2011-10-20T08:02:17Z</time>
  <speed>3.180000</speed>
</trkpt>
<trkpt lat="32.735679626" lon="35.013084412">
  <ele>362.494629</ele>
  <time>2011-10-20T08:02:19Z</time>
  <speed>3.610000</speed>
</trkpt>
<trkpt lat="32.735717773" lon="35.013092041">
  <ele>361.916504</ele>
  <time>2011-10-20T08:02:20Z</time>
  <speed>4.170000</speed>
</trkpt>
<trkpt lat="32.735748291" lon="35.013103485">
  <ele>361.127441</ele>
  <time>2011-10-20T08:02:21Z</time>
  <speed>3.500000</speed>
</trkpt>
<trkpt lat="32.735778809" lon="35.013114929">
  <ele>360.104004</ele>
  <time>2011-10-20T08:02:22Z</time>
  <speed>3.670000</speed>
</trkpt>
<trkpt lat="32.735820770" lon="35.013126373">
  <ele>360.658691</ele>
  <time>2011-10-20T08:02:23Z</time>
  <speed>3.900000</speed>
</trkpt>
<trkpt lat="32.735847473" lon="35.013137817">
  <ele>360.432129</ele>
  <time>2011-10-20T08:02:24Z</time>
  <speed>3.490000</speed>
</trkpt>
<trkpt lat="32.735881805" lon="35.013149261">
  <ele>361.072754</ele>
  <time>2011-10-20T08:02:25Z</time>
  <speed>3.720000</speed>
</trkpt>
<trkpt lat="32.735916138" lon="35.013149261">
  <ele>361.127441</ele>
  <time>2011-10-20T08:02:26Z</time>
  <speed>4.190000</speed>
</trkpt>
<trkpt lat="32.735954285" lon="35.013153076">
  <ele>360.971191</ele>
  <time>2011-10-20T08:02:27Z</time>
  <speed>4.050000</speed>
</trkpt>
<trkpt lat="32.735988617" lon="35.013156891">
  <ele>360.150879</ele>
  <time>2011-10-20T08:02:28Z</time>
  <speed>4.070000</speed>
</trkpt>
<trkpt lat="32.736026764" lon="35.013164520">
  <ele>360.182129</ele>
  <time>2011-10-20T08:02:29Z</time>
  <speed>4.310000</speed>
</trkpt>
<trkpt lat="32.736057281" lon="35.013179779">
  <ele>359.510254</ele>
  <time>2011-10-20T08:02:30Z</time>
  <speed>3.950000</speed>
</trkpt>
<trkpt lat="32.736087799" lon="35.013198853">
  <ele>358.869629</ele>
  <time>2011-10-20T08:02:31Z</time>
  <speed>4.240000</speed>
</trkpt>
<trkpt lat="32.736114502" lon="35.013225555">
  <ele>358.611816</ele>
  <time>2011-10-20T08:02:32Z</time>
  <speed>4.290000</speed>
</trkpt>
<trkpt lat="32.736145020" lon="35.013256073">
  <ele>358.557129</ele>
  <time>2011-10-20T08:02:33Z</time>
  <speed>4.080000</speed>
</trkpt>
<trkpt lat="32.736171722" lon="35.013282776">
  <ele>358.557129</ele>
  <time>2011-10-20T08:02:34Z</time>
  <speed>3.960000</speed>
</trkpt>
<trkpt lat="32.736202240" lon="35.013301849">
  <ele>358.361816</ele>
  <time>2011-10-20T08:02:35Z</time>
  <speed>3.820000</speed>
</trkpt>
<trkpt lat="32.736232758" lon="35.013320923">
  <ele>358.627441</ele>
  <time>2011-10-20T08:02:36Z</time>
  <speed>4.090000</speed>
</trkpt>
<trkpt lat="32.736274719" lon="35.013332367">
  <ele>358.455566</ele>
  <time>2011-10-20T08:02:37Z</time>
  <speed>4.530000</speed>
</trkpt>
<trkpt lat="32.736312866" lon="35.013351440">
  <ele>357.947754</ele>
  <time>2011-10-20T08:02:38Z</time>
  <speed>4.730000</speed>
</trkpt>
<trkpt lat="32.736351013" lon="35.013370514">
  <ele>357.596191</ele>
  <time>2011-10-20T08:02:39Z</time>
  <speed>5.090000</speed>
</trkpt>
<trkpt lat="32.736400604" lon="35.013389587">
  <ele>357.385254</ele>
  <time>2011-10-20T08:02:40Z</time>
  <speed>5.370000</speed>
</trkpt>
<trkpt lat="32.736442566" lon="35.013408661">
  <ele>357.158691</ele>
  <time>2011-10-20T08:02:41Z</time>
  <speed>5.230000</speed>
</trkpt>
<trkpt lat="32.736492157" lon="35.013435364">
  <ele>356.322754</ele>
  <time>2011-10-20T08:02:42Z</time>
  <speed>5.670000</speed>
</trkpt>
<trkpt lat="32.736537933" lon="35.013469696">
  <ele>355.572754</ele>
  <time>2011-10-20T08:02:43Z</time>
  <speed>5.870000</speed>
</trkpt>
<trkpt lat="32.736579895" lon="35.013500214">
  <ele>354.557129</ele>
  <time>2011-10-20T08:02:44Z</time>
  <speed>5.760000</speed>
</trkpt>
<trkpt lat="32.736618042" lon="35.013534546">
  <ele>353.385254</ele>
  <time>2011-10-20T08:02:45Z</time>
  <speed>5.420000</speed>
</trkpt>
<trkpt lat="32.736656189" lon="35.013568878">
  <ele>353.244629</ele>
  <time>2011-10-20T08:02:46Z</time>
  <speed>5.380000</speed>
</trkpt>
<trkpt lat="32.736694336" lon="35.013610840">
  <ele>352.846191</ele>
  <time>2011-10-20T08:02:47Z</time>
  <speed>5.580000</speed>
</trkpt>
<trkpt lat="32.736721039" lon="35.013656616">
  <ele>352.361816</ele>
  <time>2011-10-20T08:02:48Z</time>
  <speed>5.000000</speed>
</trkpt>
<trkpt lat="32.736755371" lon="35.013690948">
  <ele>351.900879</ele>
  <time>2011-10-20T08:02:49Z</time>
  <speed>4.920000</speed>
</trkpt>
<trkpt lat="32.736785889" lon="35.013729095">
  <ele>351.518066</ele>
  <time>2011-10-20T08:02:50Z</time>
  <speed>5.320000</speed>
</trkpt>
<trkpt lat="32.736824036" lon="35.013763428">
  <ele>351.010254</ele>
  <time>2011-10-20T08:02:51Z</time>
  <speed>5.330000</speed>
</trkpt>
<trkpt lat="32.736869812" lon="35.013797760">
  <ele>350.744629</ele>
  <time>2011-10-20T08:02:52Z</time>
  <speed>5.700000</speed>
</trkpt>
<trkpt lat="32.736911774" lon="35.013824463">
  <ele>349.947754</ele>
  <time>2011-10-20T08:02:53Z</time>
  <speed>5.590000</speed>
</trkpt>
<trkpt lat="32.736949921" lon="35.013858795">
  <ele>349.049316</ele>
  <time>2011-10-20T08:02:54Z</time>
  <speed>5.040000</speed>
</trkpt>
<trkpt lat="32.736995697" lon="35.013881683">
  <ele>348.783691</ele>
  <time>2011-10-20T08:02:55Z</time>
  <speed>5.270000</speed>
</trkpt>
<trkpt lat="32.737037659" lon="35.013896942">
  <ele>348.674316</ele>
  <time>2011-10-20T08:02:56Z</time>
  <speed>3.990000</speed>
</trkpt>
<trkpt lat="32.737071991" lon="35.013908386">
  <ele>348.666504</ele>
  <time>2011-10-20T08:02:57Z</time>
  <speed>4.520000</speed>
</trkpt>
<trkpt lat="32.737106323" lon="35.013923645">
  <ele>348.580566</ele>
  <time>2011-10-20T08:02:58Z</time>
  <speed>4.360000</speed>
</trkpt>
<trkpt lat="32.737140656" lon="35.013946533">
  <ele>348.393066</ele>
  <time>2011-10-20T08:02:59Z</time>
  <speed>4.430000</speed>
</trkpt>
<trkpt lat="32.737163544" lon="35.013980865">
  <ele>347.994629</ele>
  <time>2011-10-20T08:03:00Z</time>
  <speed>5.380000</speed>
</trkpt>
<trkpt lat="32.737186432" lon="35.014038086">
  <ele>348.025879</ele>
  <time>2011-10-20T08:03:01Z</time>
  <speed>5.690000</speed>
</trkpt>
<trkpt lat="32.737213135" lon="35.014091492">
  <ele>348.041504</ele>
  <time>2011-10-20T08:03:02Z</time>
  <speed>5.120000</speed>
</trkpt>
<trkpt lat="32.737236023" lon="35.014137268">
  <ele>347.963379</ele>
  <time>2011-10-20T08:03:03Z</time>
  <speed>4.900000</speed>
</trkpt>
<trkpt lat="32.737258911" lon="35.014179230">
  <ele>347.869629</ele>
  <time>2011-10-20T08:03:04Z</time>
  <speed>4.660000</speed>
</trkpt>
<trkpt lat="32.737289429" lon="35.014221191">
  <ele>347.791504</ele>
  <time>2011-10-20T08:03:05Z</time>
  <speed>4.400000</speed>
</trkpt>
<trkpt lat="32.737319946" lon="35.014251709">
  <ele>347.916504</ele>
  <time>2011-10-20T08:03:06Z</time>
  <speed>4.350000</speed>
</trkpt>
<trkpt lat="32.737342834" lon="35.014278412">
  <ele>347.611816</ele>
  <time>2011-10-20T08:03:07Z</time>
  <speed>4.110000</speed>
</trkpt>
<trkpt lat="32.737365723" lon="35.014312744">
  <ele>347.549316</ele>
  <time>2011-10-20T08:03:08Z</time>
  <speed>3.960000</speed>
</trkpt>
<trkpt lat="32.737388611" lon="35.014339447">
  <ele>347.682129</ele>
  <time>2011-10-20T08:03:09Z</time>
  <speed>3.990000</speed>
</trkpt>
<trkpt lat="32.737403870" lon="35.014373779">
  <ele>347.049316</ele>
  <time>2011-10-20T08:03:10Z</time>
  <speed>3.780000</speed>
</trkpt>
<trkpt lat="32.737422943" lon="35.014400482">
  <ele>347.314941</ele>
  <time>2011-10-20T08:03:11Z</time>
  <speed>3.810000</speed>
</trkpt>
<trkpt lat="32.737438202" lon="35.014434814">
  <ele>347.111816</ele>
  <time>2011-10-20T08:03:12Z</time>
  <speed>4.070000</speed>
</trkpt>
<trkpt lat="32.737449646" lon="35.014469147">
  <ele>346.893066</ele>
  <time>2011-10-20T08:03:13Z</time>
  <speed>4.130000</speed>
</trkpt>
<trkpt lat="32.737464905" lon="35.014507294">
  <ele>346.799316</ele>
  <time>2011-10-20T08:03:14Z</time>
  <speed>3.950000</speed>
</trkpt>
<trkpt lat="32.737487793" lon="35.014545441">
  <ele>346.939941</ele>
  <time>2011-10-20T08:03:15Z</time>
  <speed>3.900000</speed>
</trkpt>
<trkpt lat="32.737506866" lon="35.014579773">
  <ele>347.057129</ele>
  <time>2011-10-20T08:03:16Z</time>
  <speed>3.740000</speed>
</trkpt>
<trkpt lat="32.737529755" lon="35.014614105">
  <ele>347.510254</ele>
  <time>2011-10-20T08:03:17Z</time>
  <speed>3.780000</speed>
</trkpt>
<trkpt lat="32.737552643" lon="35.014644623">
  <ele>347.689941</ele>
  <time>2011-10-20T08:03:18Z</time>
  <speed>3.990000</speed>
</trkpt>
<trkpt lat="32.737575531" lon="35.014678955">
  <ele>347.643066</ele>
  <time>2011-10-20T08:03:19Z</time>
  <speed>4.120000</speed>
</trkpt>
<trkpt lat="32.737598419" lon="35.014713287">
  <ele>347.533691</ele>
  <time>2011-10-20T08:03:20Z</time>
  <speed>3.840000</speed>
</trkpt>
<trkpt lat="32.737621307" lon="35.014743805">
  <ele>347.729004</ele>
  <time>2011-10-20T08:03:21Z</time>
  <speed>3.810000</speed>
</trkpt>
<trkpt lat="32.737644196" lon="35.014774323">
  <ele>348.096191</ele>
  <time>2011-10-20T08:03:22Z</time>
  <speed>3.850000</speed>
</trkpt>
<trkpt lat="32.737667084" lon="35.014804840">
  <ele>348.041504</ele>
  <time>2011-10-20T08:03:23Z</time>
  <speed>3.940000</speed>
</trkpt>
<trkpt lat="32.737682343" lon="35.014839172">
  <ele>347.744629</ele>
  <time>2011-10-20T08:03:24Z</time>
  <speed>3.840000</speed>
</trkpt>
<trkpt lat="32.737705231" lon="35.014869690">
  <ele>347.338379</ele>
  <time>2011-10-20T08:03:25Z</time>
  <speed>3.970000</speed>
</trkpt>
<trkpt lat="32.737728119" lon="35.014896393">
  <ele>347.322754</ele>
  <time>2011-10-20T08:03:26Z</time>
  <speed>3.430000</speed>
</trkpt>
<trkpt lat="32.737754822" lon="35.014919281">
  <ele>347.775879</ele>
  <time>2011-10-20T08:03:27Z</time>
  <speed>3.210000</speed>
</trkpt>
<trkpt lat="32.737781525" lon="35.014938354">
  <ele>347.346191</ele>
  <time>2011-10-20T08:03:28Z</time>
  <speed>3.470000</speed>
</trkpt>
<trkpt lat="32.737804413" lon="35.014961243">
  <ele>347.416504</ele>
  <time>2011-10-20T08:03:29Z</time>
  <speed>3.430000</speed>
</trkpt>
<trkpt lat="32.737831116" lon="35.014980316">
  <ele>347.893066</ele>
  <time>2011-10-20T08:03:30Z</time>
  <speed>3.430000</speed>
</trkpt>
<trkpt lat="32.737854004" lon="35.014999390">
  <ele>348.088379</ele>
  <time>2011-10-20T08:03:31Z</time>
  <speed>3.530000</speed>
</trkpt>
<trkpt lat="32.737880707" lon="35.015022278">
  <ele>348.111816</ele>
  <time>2011-10-20T08:03:32Z</time>
  <speed>3.430000</speed>
</trkpt>
<trkpt lat="32.737903595" lon="35.015045166">
  <ele>348.119629</ele>
  <time>2011-10-20T08:03:33Z</time>
  <speed>3.570000</speed>
</trkpt>
<trkpt lat="32.737926483" lon="35.015071869">
  <ele>348.049316</ele>
  <time>2011-10-20T08:03:34Z</time>
  <speed>3.170000</speed>
</trkpt>
<trkpt lat="32.737960815" lon="35.015125275">
  <ele>348.338379</ele>
  <time>2011-10-20T08:03:36Z</time>
  <speed>3.180000</speed>
</trkpt>
<trkpt lat="32.737979889" lon="35.015148163">
  <ele>348.549316</ele>
  <time>2011-10-20T08:03:37Z</time>
  <speed>3.360000</speed>
</trkpt>
<trkpt lat="32.738002777" lon="35.015174866">
  <ele>348.604004</ele>
  <time>2011-10-20T08:03:38Z</time>
  <speed>3.280000</speed>
</trkpt>
<trkpt lat="32.738025665" lon="35.015197754">
  <ele>348.182129</ele>
  <time>2011-10-20T08:03:39Z</time>
  <speed>3.270000</speed>
</trkpt>
<trkpt lat="32.738048553" lon="35.015216827">
  <ele>348.197754</ele>
  <time>2011-10-20T08:03:40Z</time>
  <speed>3.310000</speed>
</trkpt>
<trkpt lat="32.738075256" lon="35.015235901">
  <ele>348.314941</ele>
  <time>2011-10-20T08:03:41Z</time>
  <speed>3.070000</speed>
</trkpt>
<trkpt lat="32.738098145" lon="35.015254974">
  <ele>349.025879</ele>
  <time>2011-10-20T08:03:42Z</time>
  <speed>3.280000</speed>
</trkpt>
<trkpt lat="32.738113403" lon="35.015281677">
  <ele>349.025879</ele>
  <time>2011-10-20T08:03:43Z</time>
  <speed>3.230000</speed>
</trkpt>
<trkpt lat="32.738143921" lon="35.015308380">
  <ele>349.533691</ele>
  <time>2011-10-20T08:03:44Z</time>
  <speed>3.480000</speed>
</trkpt>
<trkpt lat="32.738182068" lon="35.015323639">
  <ele>350.010254</ele>
  <time>2011-10-20T08:03:45Z</time>
  <speed>4.000000</speed>
</trkpt>
<trkpt lat="32.738208771" lon="35.015342712">
  <ele>350.127441</ele>
  <time>2011-10-20T08:03:46Z</time>
  <speed>3.790000</speed>
</trkpt>
<trkpt lat="32.738239288" lon="35.015373230">
  <ele>350.299316</ele>
  <time>2011-10-20T08:03:47Z</time>
  <speed>3.750000</speed>
</trkpt>
<trkpt lat="32.738265991" lon="35.015396118">
  <ele>350.557129</ele>
  <time>2011-10-20T08:03:48Z</time>
  <speed>3.440000</speed>
</trkpt>
<trkpt lat="32.738285065" lon="35.015419006">
  <ele>350.400879</ele>
  <time>2011-10-20T08:03:49Z</time>
  <speed>3.610000</speed>
</trkpt>
<trkpt lat="32.738307953" lon="35.015441895">
  <ele>350.268066</ele>
  <time>2011-10-20T08:03:50Z</time>
  <speed>3.660000</speed>
</trkpt>
<trkpt lat="32.738330841" lon="35.015468597">
  <ele>350.447754</ele>
  <time>2011-10-20T08:03:51Z</time>
  <speed>3.820000</speed>
</trkpt>
<trkpt lat="32.738349915" lon="35.015502930">
  <ele>350.424316</ele>
  <time>2011-10-20T08:03:52Z</time>
  <speed>3.700000</speed>
</trkpt>
<trkpt lat="32.738376617" lon="35.015533447">
  <ele>350.588379</ele>
  <time>2011-10-20T08:03:53Z</time>
  <speed>4.020000</speed>
</trkpt>
<trkpt lat="32.738399506" lon="35.015560150">
  <ele>350.791504</ele>
  <time>2011-10-20T08:03:54Z</time>
  <speed>3.600000</speed>
</trkpt>
<trkpt lat="32.738422394" lon="35.015590668">
  <ele>350.596191</ele>
  <time>2011-10-20T08:03:55Z</time>
  <speed>3.910000</speed>
</trkpt>
<trkpt lat="32.738449097" lon="35.015625000">
  <ele>350.627441</ele>
  <time>2011-10-20T08:03:56Z</time>
  <speed>3.520000</speed>
</trkpt>
<trkpt lat="32.738468170" lon="35.015655518">
  <ele>350.775879</ele>
  <time>2011-10-20T08:03:57Z</time>
  <speed>3.230000</speed>
</trkpt>
<trkpt lat="32.738487244" lon="35.015686035">
  <ele>350.783691</ele>
  <time>2011-10-20T08:03:58Z</time>
  <speed>3.250000</speed>
</trkpt>
<trkpt lat="32.738513947" lon="35.015739441">
  <ele>350.775879</ele>
  <time>2011-10-20T08:04:00Z</time>
  <speed>2.860000</speed>
</trkpt>
<trkpt lat="32.738536835" lon="35.015766144">
  <ele>350.682129</ele>
  <time>2011-10-20T08:04:01Z</time>
  <speed>3.090000</speed>
</trkpt>
<trkpt lat="32.738552094" lon="35.015819550">
  <ele>349.213379</ele>
  <time>2011-10-20T08:04:03Z</time>
  <speed>3.330000</speed>
</trkpt>
<trkpt lat="32.738563538" lon="35.015853882">
  <ele>349.174316</ele>
  <time>2011-10-20T08:04:04Z</time>
  <speed>3.370000</speed>
</trkpt>
<trkpt lat="32.738574982" lon="35.015880585">
  <ele>348.736816</ele>
  <time>2011-10-20T08:04:05Z</time>
  <speed>3.210000</speed>
</trkpt>
<trkpt lat="32.738594055" lon="35.015914917">
  <ele>348.814941</ele>
  <time>2011-10-20T08:04:06Z</time>
  <speed>3.690000</speed>
</trkpt>
<trkpt lat="32.738609314" lon="35.015949249">
  <ele>348.846191</ele>
  <time>2011-10-20T08:04:07Z</time>
  <speed>3.430000</speed>
</trkpt>
<trkpt lat="32.738616943" lon="35.015983582">
  <ele>348.830566</ele>
  <time>2011-10-20T08:04:08Z</time>
  <speed>3.080000</speed>
</trkpt>
<trkpt lat="32.738632202" lon="35.016010284">
  <ele>348.791504</ele>
  <time>2011-10-20T08:04:09Z</time>
  <speed>3.130000</speed>
</trkpt>
<trkpt lat="32.738647461" lon="35.016044617">
  <ele>349.104004</ele>
  <time>2011-10-20T08:04:10Z</time>
  <speed>3.350000</speed>
</trkpt>
<trkpt lat="32.738666534" lon="35.016075134">
  <ele>349.525879</ele>
  <time>2011-10-20T08:04:11Z</time>
  <speed>3.230000</speed>
</trkpt>
<trkpt lat="32.738681793" lon="35.016101837">
  <ele>349.580566</ele>
  <time>2011-10-20T08:04:12Z</time>
  <speed>2.930000</speed>
</trkpt>
<trkpt lat="32.738697052" lon="35.016128540">
  <ele>349.275879</ele>
  <time>2011-10-20T08:04:13Z</time>
  <speed>3.680000</speed>
</trkpt>
<trkpt lat="32.738723755" lon="35.016155243">
  <ele>348.900879</ele>
  <time>2011-10-20T08:04:14Z</time>
  <speed>4.090000</speed>
</trkpt>
<trkpt lat="32.738746643" lon="35.016181946">
  <ele>348.619629</ele>
  <time>2011-10-20T08:04:15Z</time>
  <speed>3.750000</speed>
</trkpt>
<trkpt lat="32.738765717" lon="35.016204834">
  <ele>347.822754</ele>
  <time>2011-10-20T08:04:16Z</time>
  <speed>3.880000</speed>
</trkpt>
<trkpt lat="32.738784790" lon="35.016239166">
  <ele>347.518066</ele>
  <time>2011-10-20T08:04:17Z</time>
  <speed>3.600000</speed>
</trkpt>
<trkpt lat="32.738803864" lon="35.016269684">
  <ele>347.400879</ele>
  <time>2011-10-20T08:04:18Z</time>
  <speed>3.690000</speed>
</trkpt>
<trkpt lat="32.738822937" lon="35.016307831">
  <ele>347.650879</ele>
  <time>2011-10-20T08:04:19Z</time>
  <speed>3.880000</speed>
</trkpt>
<trkpt lat="32.738845825" lon="35.016342163">
  <ele>347.455566</ele>
  <time>2011-10-20T08:04:20Z</time>
  <speed>3.970000</speed>
</trkpt>
<trkpt lat="32.738864899" lon="35.016380310">
  <ele>347.314941</ele>
  <time>2011-10-20T08:04:21Z</time>
  <speed>4.010000</speed>
</trkpt>
<trkpt lat="32.738887787" lon="35.016418457">
  <ele>347.564941</ele>
  <time>2011-10-20T08:04:22Z</time>
  <speed>4.070000</speed>
</trkpt>
<trkpt lat="32.738906860" lon="35.016452789">
  <ele>347.822754</ele>
  <time>2011-10-20T08:04:23Z</time>
  <speed>3.950000</speed>
</trkpt>
<trkpt lat="32.738925934" lon="35.016487122">
  <ele>348.213379</ele>
  <time>2011-10-20T08:04:24Z</time>
  <speed>3.640000</speed>
</trkpt>
<trkpt lat="32.738941193" lon="35.016521454">
  <ele>348.971191</ele>
  <time>2011-10-20T08:04:25Z</time>
  <speed>3.210000</speed>
</trkpt>
<trkpt lat="32.738964081" lon="35.016548157">
  <ele>349.307129</ele>
  <time>2011-10-20T08:04:26Z</time>
  <speed>3.590000</speed>
</trkpt>
<trkpt lat="32.738986969" lon="35.016571045">
  <ele>348.932129</ele>
  <time>2011-10-20T08:04:27Z</time>
  <speed>3.640000</speed>
</trkpt>
<trkpt lat="32.739013672" lon="35.016590118">
  <ele>348.549316</ele>
  <time>2011-10-20T08:04:28Z</time>
  <speed>3.700000</speed>
</trkpt>
<trkpt lat="32.739036560" lon="35.016613007">
  <ele>347.893066</ele>
  <time>2011-10-20T08:04:29Z</time>
  <speed>3.440000</speed>
</trkpt>
<trkpt lat="32.739063263" lon="35.016635895">
  <ele>348.033691</ele>
  <time>2011-10-20T08:04:30Z</time>
  <speed>3.400000</speed>
</trkpt>
<trkpt lat="32.739093781" lon="35.016654968">
  <ele>348.361816</ele>
  <time>2011-10-20T08:04:31Z</time>
  <speed>3.730000</speed>
</trkpt>
<trkpt lat="32.739116669" lon="35.016677856">
  <ele>348.635254</ele>
  <time>2011-10-20T08:04:32Z</time>
  <speed>3.330000</speed>
</trkpt>
<trkpt lat="32.739139557" lon="35.016700745">
  <ele>349.135254</ele>
  <time>2011-10-20T08:04:33Z</time>
  <speed>2.960000</speed>
</trkpt>
<trkpt lat="32.739166260" lon="35.016719818">
  <ele>349.377441</ele>
  <time>2011-10-20T08:04:34Z</time>
  <speed>3.200000</speed>
</trkpt>
<trkpt lat="32.739192963" lon="35.016738892">
  <ele>349.525879</ele>
  <time>2011-10-20T08:04:35Z</time>
  <speed>3.450000</speed>
</trkpt>
<trkpt lat="32.739219666" lon="35.016754150">
  <ele>349.174316</ele>
  <time>2011-10-20T08:04:36Z</time>
  <speed>3.610000</speed>
</trkpt>
<trkpt lat="32.739246368" lon="35.016773224">
  <ele>348.822754</ele>
  <time>2011-10-20T08:04:37Z</time>
  <speed>3.690000</speed>
</trkpt>
<trkpt lat="32.739276886" lon="35.016796112">
  <ele>348.760254</ele>
  <time>2011-10-20T08:04:38Z</time>
  <speed>4.000000</speed>
</trkpt>
<trkpt lat="32.739307404" lon="35.016815186">
  <ele>348.533691</ele>
  <time>2011-10-20T08:04:39Z</time>
  <speed>4.030000</speed>
</trkpt>
<trkpt lat="32.739334106" lon="35.016834259">
  <ele>348.400879</ele>
  <time>2011-10-20T08:04:40Z</time>
  <speed>3.490000</speed>
</trkpt>
<trkpt lat="32.739353180" lon="35.016860962">
  <ele>347.611816</ele>
  <time>2011-10-20T08:04:41Z</time>
  <speed>3.490000</speed>
</trkpt>
<trkpt lat="32.739379883" lon="35.016891479">
  <ele>346.736816</ele>
  <time>2011-10-20T08:04:42Z</time>
  <speed>4.100000</speed>
</trkpt>
<trkpt lat="32.739402771" lon="35.016925812">
  <ele>345.611816</ele>
  <time>2011-10-20T08:04:43Z</time>
  <speed>3.930000</speed>
</trkpt>
<trkpt lat="32.739437103" lon="35.016960144">
  <ele>345.283691</ele>
  <time>2011-10-20T08:04:44Z</time>
  <speed>4.720000</speed>
</trkpt>
<trkpt lat="32.739463806" lon="35.017002106">
  <ele>345.002441</ele>
  <time>2011-10-20T08:04:45Z</time>
  <speed>4.500000</speed>
</trkpt>
<trkpt lat="32.739486694" lon="35.017047882">
  <ele>345.010254</ele>
  <time>2011-10-20T08:04:46Z</time>
  <speed>4.530000</speed>
</trkpt>
<trkpt lat="32.739501953" lon="35.017093658">
  <ele>344.846191</ele>
  <time>2011-10-20T08:04:47Z</time>
  <speed>4.410000</speed>
</trkpt>
<trkpt lat="32.739528656" lon="35.017135620">
  <ele>345.705566</ele>
  <time>2011-10-20T08:04:48Z</time>
  <speed>4.630000</speed>
</trkpt>
<trkpt lat="32.739536285" lon="35.017185211">
  <ele>345.283691</ele>
  <time>2011-10-20T08:04:49Z</time>
  <speed>4.530000</speed>
</trkpt>
<trkpt lat="32.739555359" lon="35.017227173">
  <ele>345.494629</ele>
  <time>2011-10-20T08:04:50Z</time>
  <speed>4.320000</speed>
</trkpt>
<trkpt lat="32.739562988" lon="35.017276764">
  <ele>345.627441</ele>
  <time>2011-10-20T08:04:51Z</time>
  <speed>4.110000</speed>
</trkpt>
<trkpt lat="32.739574432" lon="35.017318726">
  <ele>345.822754</ele>
  <time>2011-10-20T08:04:52Z</time>
  <speed>3.820000</speed>
</trkpt>
<trkpt lat="32.739585876" lon="35.017360687">
  <ele>346.182129</ele>
  <time>2011-10-20T08:04:53Z</time>
  <speed>3.620000</speed>
</trkpt>
<trkpt lat="32.739593506" lon="35.017398834">
  <ele>346.424316</ele>
  <time>2011-10-20T08:04:54Z</time>
  <speed>3.300000</speed>
</trkpt>
<trkpt lat="32.739608765" lon="35.017429352">
  <ele>346.588379</ele>
  <time>2011-10-20T08:04:55Z</time>
  <speed>2.980000</speed>
</trkpt>
<trkpt lat="32.739624023" lon="35.017459869">
  <ele>346.932129</ele>
  <time>2011-10-20T08:04:56Z</time>
  <speed>3.550000</speed>
</trkpt>
<trkpt lat="32.739635468" lon="35.017494202">
  <ele>346.400879</ele>
  <time>2011-10-20T08:04:57Z</time>
  <speed>3.140000</speed>
</trkpt>
<trkpt lat="32.739643097" lon="35.017528534">
  <ele>346.104004</ele>
  <time>2011-10-20T08:04:58Z</time>
  <speed>3.170000</speed>
</trkpt>
<trkpt lat="32.739658356" lon="35.017559052">
  <ele>345.807129</ele>
  <time>2011-10-20T08:04:59Z</time>
  <speed>3.470000</speed>
</trkpt>
<trkpt lat="32.739665985" lon="35.017593384">
  <ele>345.627441</ele>
  <time>2011-10-20T08:05:00Z</time>
  <speed>3.240000</speed>
</trkpt>
<trkpt lat="32.739685059" lon="35.017627716">
  <ele>345.814941</ele>
  <time>2011-10-20T08:05:01Z</time>
  <speed>3.550000</speed>
</trkpt>
<trkpt lat="32.739704132" lon="35.017658234">
  <ele>345.127441</ele>
  <time>2011-10-20T08:05:02Z</time>
  <speed>3.740000</speed>
</trkpt>
<trkpt lat="32.739719391" lon="35.017692566">
  <ele>344.791504</ele>
  <time>2011-10-20T08:05:03Z</time>
  <speed>3.710000</speed>
</trkpt>
<trkpt lat="32.739746094" lon="35.017723083">
  <ele>344.541504</ele>
  <time>2011-10-20T08:05:04Z</time>
  <speed>3.840000</speed>
</trkpt>
<trkpt lat="32.739772797" lon="35.017749786">
  <ele>344.205566</ele>
  <time>2011-10-20T08:05:05Z</time>
  <speed>4.020000</speed>
</trkpt>
<trkpt lat="32.739795685" lon="35.017776489">
  <ele>343.854004</ele>
  <time>2011-10-20T08:05:06Z</time>
  <speed>4.000000</speed>
</trkpt>
<trkpt lat="32.739826202" lon="35.017799377">
  <ele>344.299316</ele>
  <time>2011-10-20T08:05:07Z</time>
  <speed>4.030000</speed>
</trkpt>
<trkpt lat="32.739856720" lon="35.017818451">
  <ele>344.049316</ele>
  <time>2011-10-20T08:05:08Z</time>
  <speed>3.930000</speed>
</trkpt>
<trkpt lat="32.739879608" lon="35.017841339">
  <ele>344.346191</ele>
  <time>2011-10-20T08:05:09Z</time>
  <speed>3.030000</speed>
</trkpt>
<trkpt lat="32.739910126" lon="35.017860413">
  <ele>344.947754</ele>
  <time>2011-10-20T08:05:10Z</time>
  <speed>3.500000</speed>
</trkpt>
<trkpt lat="32.739933014" lon="35.017875671">
  <ele>345.525879</ele>
  <time>2011-10-20T08:05:11Z</time>
  <speed>2.910000</speed>
</trkpt>
<trkpt lat="32.739955902" lon="35.017883301">
  <ele>346.596191</ele>
  <time>2011-10-20T08:05:12Z</time>
  <speed>2.690000</speed>
</trkpt>
<trkpt lat="32.739990234" lon="35.017906189">
  <ele>346.260254</ele>
  <time>2011-10-20T08:05:14Z</time>
  <speed>2.350000</speed>
</trkpt>
<trkpt lat="32.740032196" lon="35.017917633">
  <ele>346.385254</ele>
  <time>2011-10-20T08:05:16Z</time>
  <speed>2.520000</speed>
</trkpt>
<trkpt lat="32.740081787" lon="35.017929077">
  <ele>347.221191</ele>
  <time>2011-10-20T08:05:18Z</time>
  <speed>3.020000</speed>
</trkpt>
<trkpt lat="32.740108490" lon="35.017936707">
  <ele>348.416504</ele>
  <time>2011-10-20T08:05:19Z</time>
  <speed>2.710000</speed>
</trkpt>
<trkpt lat="32.740150452" lon="35.017948151">
  <ele>349.158691</ele>
  <time>2011-10-20T08:05:21Z</time>
  <speed>2.740000</speed>
</trkpt>
<trkpt lat="32.740200043" lon="35.017955780">
  <ele>349.900879</ele>
  <time>2011-10-20T08:05:23Z</time>
  <speed>2.730000</speed>
</trkpt>
<trkpt lat="32.740242004" lon="35.017974854">
  <ele>350.033691</ele>
  <time>2011-10-20T08:05:25Z</time>
  <speed>2.600000</speed>
</trkpt>
<trkpt lat="32.740291595" lon="35.017990112">
  <ele>351.307129</ele>
  <time>2011-10-20T08:05:27Z</time>
  <speed>2.900000</speed>
</trkpt>
<trkpt lat="32.740333557" lon="35.018013000">
  <ele>351.010254</ele>
  <time>2011-10-20T08:05:29Z</time>
  <speed>2.540000</speed>
</trkpt>
<trkpt lat="32.740360260" lon="35.018028259">
  <ele>351.041504</ele>
  <time>2011-10-20T08:05:30Z</time>
  <speed>2.800000</speed>
</trkpt>
<trkpt lat="32.740406036" lon="35.018047333">
  <ele>352.447754</ele>
  <time>2011-10-20T08:05:32Z</time>
  <speed>2.240000</speed>
</trkpt>
<trkpt lat="32.740451813" lon="35.018054962">
  <ele>352.197754</ele>
  <time>2011-10-20T08:05:34Z</time>
  <speed>2.720000</speed>
</trkpt>
<trkpt lat="32.740497589" lon="35.018074036">
  <ele>352.354004</ele>
  <time>2011-10-20T08:05:36Z</time>
  <speed>2.760000</speed>
</trkpt>
<trkpt lat="32.740535736" lon="35.018093109">
  <ele>353.119629</ele>
  <time>2011-10-20T08:05:38Z</time>
  <speed>2.490000</speed>
</trkpt>
<trkpt lat="32.740570068" lon="35.018115997">
  <ele>353.377441</ele>
  <time>2011-10-20T08:05:40Z</time>
  <speed>2.450000</speed>
</trkpt>
<trkpt lat="32.740600586" lon="35.018131256">
  <ele>352.807129</ele>
  <time>2011-10-20T08:05:42Z</time>
  <speed>2.590000</speed>
</trkpt>
<trkpt lat="32.740646362" lon="35.018154144">
  <ele>353.119629</ele>
  <time>2011-10-20T08:05:44Z</time>
  <speed>2.410000</speed>
</trkpt>
<trkpt lat="32.740692139" lon="35.018180847">
  <ele>353.611816</ele>
  <time>2011-10-20T08:05:46Z</time>
  <speed>2.780000</speed>
</trkpt>
<trkpt lat="32.740730286" lon="35.018199921">
  <ele>353.182129</ele>
  <time>2011-10-20T08:05:48Z</time>
  <speed>2.390000</speed>
</trkpt>
<trkpt lat="32.740760803" lon="35.018222809">
  <ele>352.354004</ele>
  <time>2011-10-20T08:05:50Z</time>
  <speed>2.370000</speed>
</trkpt>
<trkpt lat="32.740802765" lon="35.018249512">
  <ele>352.416504</ele>
  <time>2011-10-20T08:05:52Z</time>
  <speed>2.600000</speed>
</trkpt>
<trkpt lat="32.740840912" lon="35.018280029">
  <ele>352.463379</ele>
  <time>2011-10-20T08:05:54Z</time>
  <speed>2.870000</speed>
</trkpt>
<trkpt lat="32.740867615" lon="35.018295288">
  <ele>352.604004</ele>
  <time>2011-10-20T08:05:55Z</time>
  <speed>2.470000</speed>
</trkpt>
<trkpt lat="32.740901947" lon="35.018318176">
  <ele>352.189941</ele>
  <time>2011-10-20T08:05:57Z</time>
  <speed>2.210000</speed>
</trkpt>
<trkpt lat="32.740940094" lon="35.018337250">
  <ele>352.783691</ele>
  <time>2011-10-20T08:05:59Z</time>
  <speed>1.880000</speed>
</trkpt>
<trkpt lat="32.740974426" lon="35.018360138">
  <ele>352.244629</ele>
  <time>2011-10-20T08:06:01Z</time>
  <speed>2.370000</speed>
</trkpt>
<trkpt lat="32.741012573" lon="35.018383026">
  <ele>352.205566</ele>
  <time>2011-10-20T08:06:03Z</time>
  <speed>2.380000</speed>
</trkpt>
<trkpt lat="32.741050720" lon="35.018405914">
  <ele>352.268066</ele>
  <time>2011-10-20T08:06:05Z</time>
  <speed>2.730000</speed>
</trkpt>
<trkpt lat="32.741088867" lon="35.018428802">
  <ele>352.049316</ele>
  <time>2011-10-20T08:06:07Z</time>
  <speed>2.650000</speed>
</trkpt>
<trkpt lat="32.741123199" lon="35.018463135">
  <ele>352.346191</ele>
  <time>2011-10-20T08:06:09Z</time>
  <speed>2.470000</speed>
</trkpt>
<trkpt lat="32.741157532" lon="35.018497467">
  <ele>352.846191</ele>
  <time>2011-10-20T08:06:11Z</time>
  <speed>2.460000</speed>
</trkpt>
<trkpt lat="32.741207123" lon="35.018520355">
  <ele>353.221191</ele>
  <time>2011-10-20T08:06:13Z</time>
  <speed>2.990000</speed>
</trkpt>
<trkpt lat="32.741245270" lon="35.018527985">
  <ele>352.111816</ele>
  <time>2011-10-20T08:06:15Z</time>
  <speed>2.260000</speed>
</trkpt>
<trkpt lat="32.741291046" lon="35.018558502">
  <ele>352.643066</ele>
  <time>2011-10-20T08:06:17Z</time>
  <speed>2.400000</speed>
</trkpt>
<trkpt lat="32.741336823" lon="35.018581390">
  <ele>352.791504</ele>
  <time>2011-10-20T08:06:19Z</time>
  <speed>2.560000</speed>
</trkpt>
<trkpt lat="32.741386414" lon="35.018589020">
  <ele>352.814941</ele>
  <time>2011-10-20T08:06:21Z</time>
  <speed>2.470000</speed>
</trkpt>
<trkpt lat="32.741432190" lon="35.018604279">
  <ele>353.400879</ele>
  <time>2011-10-20T08:06:23Z</time>
  <speed>2.570000</speed>
</trkpt>
<trkpt lat="32.741470337" lon="35.018634796">
  <ele>353.822754</ele>
  <time>2011-10-20T08:06:25Z</time>
  <speed>2.870000</speed>
</trkpt>
<trkpt lat="32.741512299" lon="35.018650055">
  <ele>354.752441</ele>
  <time>2011-10-20T08:06:27Z</time>
  <speed>3.110000</speed>
</trkpt>
<trkpt lat="32.741558075" lon="35.018680573">
  <ele>354.666504</ele>
  <time>2011-10-20T08:06:29Z</time>
  <speed>2.720000</speed>
</trkpt>
<trkpt lat="32.741603851" lon="35.018714905">
  <ele>354.713379</ele>
  <time>2011-10-20T08:06:31Z</time>
  <speed>2.600000</speed>
</trkpt>
<trkpt lat="32.741649628" lon="35.018745422">
  <ele>354.986816</ele>
  <time>2011-10-20T08:06:33Z</time>
  <speed>2.950000</speed>
</trkpt>
<trkpt lat="32.741668701" lon="35.018764496">
  <ele>355.041504</ele>
  <time>2011-10-20T08:06:34Z</time>
  <speed>3.090000</speed>
</trkpt>
<trkpt lat="32.741691589" lon="35.018787384">
  <ele>355.229004</ele>
  <time>2011-10-20T08:06:35Z</time>
  <speed>3.220000</speed>
</trkpt>
<trkpt lat="32.741714478" lon="35.018810272">
  <ele>355.252441</ele>
  <time>2011-10-20T08:06:36Z</time>
  <speed>3.290000</speed>
</trkpt>
<trkpt lat="32.741733551" lon="35.018836975">
  <ele>355.072754</ele>
  <time>2011-10-20T08:06:37Z</time>
  <speed>3.270000</speed>
</trkpt>
<trkpt lat="32.741760254" lon="35.018856049">
  <ele>355.064941</ele>
  <time>2011-10-20T08:06:38Z</time>
  <speed>3.220000</speed>
</trkpt>
<trkpt lat="32.741786957" lon="35.018875122">
  <ele>355.338379</ele>
  <time>2011-10-20T08:06:39Z</time>
  <speed>2.940000</speed>
</trkpt>
<trkpt lat="32.741821289" lon="35.018913269">
  <ele>355.143066</ele>
  <time>2011-10-20T08:06:41Z</time>
  <speed>2.930000</speed>
</trkpt>
<trkpt lat="32.741844177" lon="35.018936157">
  <ele>355.291504</ele>
  <time>2011-10-20T08:06:42Z</time>
  <speed>2.610000</speed>
</trkpt>
<trkpt lat="32.741870880" lon="35.018959045">
  <ele>355.588379</ele>
  <time>2011-10-20T08:06:43Z</time>
  <speed>3.110000</speed>
</trkpt>
<trkpt lat="32.741889954" lon="35.018985748">
  <ele>355.736816</ele>
  <time>2011-10-20T08:06:44Z</time>
  <speed>2.960000</speed>
</trkpt>
<trkpt lat="32.741912842" lon="35.019004822">
  <ele>355.564941</ele>
  <time>2011-10-20T08:06:45Z</time>
  <speed>2.950000</speed>
</trkpt>
<trkpt lat="32.741931915" lon="35.019027710">
  <ele>355.541504</ele>
  <time>2011-10-20T08:06:46Z</time>
  <speed>2.990000</speed>
</trkpt>
<trkpt lat="32.741954803" lon="35.019042969">
  <ele>355.533691</ele>
  <time>2011-10-20T08:06:47Z</time>
  <speed>3.020000</speed>
</trkpt>
<trkpt lat="32.741985321" lon="35.019088745">
  <ele>354.760254</ele>
  <time>2011-10-20T08:06:49Z</time>
  <speed>3.000000</speed>
</trkpt>
<trkpt lat="32.742004395" lon="35.019115448">
  <ele>354.822754</ele>
  <time>2011-10-20T08:06:50Z</time>
  <speed>2.940000</speed>
</trkpt>
<trkpt lat="32.742023468" lon="35.019149780">
  <ele>355.314941</ele>
  <time>2011-10-20T08:06:51Z</time>
  <speed>3.090000</speed>
</trkpt>
<trkpt lat="32.742042542" lon="35.019168854">
  <ele>356.096191</ele>
  <time>2011-10-20T08:06:52Z</time>
  <speed>3.220000</speed>
</trkpt>
<trkpt lat="32.742065430" lon="35.019187927">
  <ele>356.439941</ele>
  <time>2011-10-20T08:06:53Z</time>
  <speed>3.040000</speed>
</trkpt>
<trkpt lat="32.742088318" lon="35.019210815">
  <ele>356.322754</ele>
  <time>2011-10-20T08:06:54Z</time>
  <speed>3.120000</speed>
</trkpt>
<trkpt lat="32.742134094" lon="35.019245148">
  <ele>356.900879</ele>
  <time>2011-10-20T08:06:56Z</time>
  <speed>2.850000</speed>
</trkpt>
<trkpt lat="32.742156982" lon="35.019260406">
  <ele>357.486816</ele>
  <time>2011-10-20T08:06:57Z</time>
  <speed>2.910000</speed>
</trkpt>
<trkpt lat="32.742187500" lon="35.019294739">
  <ele>357.377441</ele>
  <time>2011-10-20T08:06:59Z</time>
  <speed>2.060000</speed>
</trkpt>
<trkpt lat="32.742218018" lon="35.019329071">
  <ele>357.900879</ele>
  <time>2011-10-20T08:07:01Z</time>
  <speed>2.250000</speed>
</trkpt>
<trkpt lat="32.742240906" lon="35.019359589">
  <ele>357.408691</ele>
  <time>2011-10-20T08:07:03Z</time>
  <speed>2.160000</speed>
</trkpt>
<trkpt lat="32.742275238" lon="35.019393921">
  <ele>357.979004</ele>
  <time>2011-10-20T08:07:05Z</time>
  <speed>2.320000</speed>
</trkpt>
<trkpt lat="32.742321014" lon="35.019416809">
  <ele>358.533691</ele>
  <time>2011-10-20T08:07:07Z</time>
  <speed>2.810000</speed>
</trkpt>
<trkpt lat="32.742347717" lon="35.019416809">
  <ele>358.666504</ele>
  <time>2011-10-20T08:07:08Z</time>
  <speed>3.050000</speed>
</trkpt>
<trkpt lat="32.742397308" lon="35.019420624">
  <ele>357.908691</ele>
  <time>2011-10-20T08:07:10Z</time>
  <speed>3.120000</speed>
</trkpt>
<trkpt lat="32.742427826" lon="35.019416809">
  <ele>357.518066</ele>
  <time>2011-10-20T08:07:11Z</time>
  <speed>3.150000</speed>
</trkpt>
<trkpt lat="32.742462158" lon="35.019416809">
  <ele>357.385254</ele>
  <time>2011-10-20T08:07:12Z</time>
  <speed>3.630000</speed>
</trkpt>
<trkpt lat="32.742496490" lon="35.019409180">
  <ele>357.486816</ele>
  <time>2011-10-20T08:07:13Z</time>
  <speed>3.410000</speed>
</trkpt>
<trkpt lat="32.742530823" lon="35.019409180">
  <ele>357.518066</ele>
  <time>2011-10-20T08:07:14Z</time>
  <speed>3.410000</speed>
</trkpt>
<trkpt lat="32.742565155" lon="35.019409180">
  <ele>357.221191</ele>
  <time>2011-10-20T08:07:15Z</time>
  <speed>3.020000</speed>
</trkpt>
<trkpt lat="32.742603302" lon="35.019424438">
  <ele>357.611816</ele>
  <time>2011-10-20T08:07:17Z</time>
  <speed>1.890000</speed>
</trkpt>
<trkpt lat="32.742630005" lon="35.019443512">
  <ele>357.455566</ele>
  <time>2011-10-20T08:07:20Z</time>
  <speed>0.660000</speed>
</trkpt>
<trkpt lat="32.742630005" lon="35.019489288">
  <ele>357.869629</ele>
  <time>2011-10-20T08:08:05Z</time>
  <speed>2.060000</speed>
</trkpt>
<trkpt lat="32.742614746" lon="35.019546509">
  <ele>358.947754</ele>
  <time>2011-10-20T08:08:07Z</time>
  <speed>2.460000</speed>
</trkpt>
<trkpt lat="32.742603302" lon="35.019573212">
  <ele>359.330566</ele>
  <time>2011-10-20T08:08:08Z</time>
  <speed>2.530000</speed>
</trkpt>
<trkpt lat="32.742580414" lon="35.019622803">
  <ele>359.799316</ele>
  <time>2011-10-20T08:08:10Z</time>
  <speed>2.690000</speed>
</trkpt>
<trkpt lat="32.742568970" lon="35.019657135">
  <ele>360.393066</ele>
  <time>2011-10-20T08:08:11Z</time>
  <speed>2.470000</speed>
</trkpt>
<trkpt lat="32.742542267" lon="35.019702911">
  <ele>360.682129</ele>
  <time>2011-10-20T08:08:13Z</time>
  <speed>2.630000</speed>
</trkpt>
<trkpt lat="32.742519379" lon="35.019752502">
  <ele>361.150879</ele>
  <time>2011-10-20T08:08:15Z</time>
  <speed>2.670000</speed>
</trkpt>
<trkpt lat="32.742504120" lon="35.019786835">
  <ele>361.643066</ele>
  <time>2011-10-20T08:08:16Z</time>
  <speed>2.970000</speed>
</trkpt>
<trkpt lat="32.742492676" lon="35.019844055">
  <ele>362.275879</ele>
  <time>2011-10-20T08:08:18Z</time>
  <speed>2.710000</speed>
</trkpt>
<trkpt lat="32.742481232" lon="35.019878387">
  <ele>362.979004</ele>
  <time>2011-10-20T08:08:19Z</time>
  <speed>2.810000</speed>
</trkpt>
<trkpt lat="32.742473602" lon="35.019908905">
  <ele>363.471191</ele>
  <time>2011-10-20T08:08:20Z</time>
  <speed>2.890000</speed>
</trkpt>
<trkpt lat="32.742465973" lon="35.019939423">
  <ele>363.229004</ele>
  <time>2011-10-20T08:08:21Z</time>
  <speed>3.000000</speed>
</trkpt>
<trkpt lat="32.742454529" lon="35.019973755">
  <ele>363.229004</ele>
  <time>2011-10-20T08:08:22Z</time>
  <speed>3.190000</speed>
</trkpt>
<trkpt lat="32.742446899" lon="35.020004272">
  <ele>363.158691</ele>
  <time>2011-10-20T08:08:23Z</time>
  <speed>2.910000</speed>
</trkpt>
<trkpt lat="32.742439270" lon="35.020034790">
  <ele>362.986816</ele>
  <time>2011-10-20T08:08:24Z</time>
  <speed>3.070000</speed>
</trkpt>
<trkpt lat="32.742424011" lon="35.020072937">
  <ele>363.283691</ele>
  <time>2011-10-20T08:08:25Z</time>
  <speed>3.620000</speed>
</trkpt>
<trkpt lat="32.742408752" lon="35.020118713">
  <ele>363.299316</ele>
  <time>2011-10-20T08:08:26Z</time>
  <speed>3.860000</speed>
</trkpt>
<trkpt lat="32.742385864" lon="35.020160675">
  <ele>363.150879</ele>
  <time>2011-10-20T08:08:27Z</time>
  <speed>4.130000</speed>
</trkpt>
<trkpt lat="32.742370605" lon="35.020195007">
  <ele>363.400879</ele>
  <time>2011-10-20T08:08:28Z</time>
  <speed>3.910000</speed>
</trkpt>
<trkpt lat="32.742362976" lon="35.020248413">
  <ele>363.666504</ele>
  <time>2011-10-20T08:08:29Z</time>
  <speed>4.420000</speed>
</trkpt>
<trkpt lat="32.742359161" lon="35.020290375">
  <ele>363.135254</ele>
  <time>2011-10-20T08:08:30Z</time>
  <speed>3.880000</speed>
</trkpt>
<trkpt lat="32.742355347" lon="35.020336151">
  <ele>363.096191</ele>
  <time>2011-10-20T08:08:31Z</time>
  <speed>4.180000</speed>
</trkpt>
<trkpt lat="32.742351532" lon="35.020381927">
  <ele>363.049316</ele>
  <time>2011-10-20T08:08:32Z</time>
  <speed>3.860000</speed>
</trkpt>
<trkpt lat="32.742355347" lon="35.020431519">
  <ele>362.963379</ele>
  <time>2011-10-20T08:08:33Z</time>
  <speed>4.950000</speed>
</trkpt>
<trkpt lat="32.742355347" lon="35.020492554">
  <ele>362.471191</ele>
  <time>2011-10-20T08:08:34Z</time>
  <speed>5.230000</speed>
</trkpt>
<trkpt lat="32.742359161" lon="35.020549774">
  <ele>362.205566</ele>
  <time>2011-10-20T08:08:35Z</time>
  <speed>4.990000</speed>
</trkpt>
<trkpt lat="32.742370605" lon="35.020603180">
  <ele>362.088379</ele>
  <time>2011-10-20T08:08:36Z</time>
  <speed>5.170000</speed>
</trkpt>
<trkpt lat="32.742393494" lon="35.020660400">
  <ele>361.385254</ele>
  <time>2011-10-20T08:08:37Z</time>
  <speed>5.650000</speed>
</trkpt>
<trkpt lat="32.742420197" lon="35.020709991">
  <ele>360.658691</ele>
  <time>2011-10-20T08:08:38Z</time>
  <speed>5.540000</speed>
</trkpt>
<trkpt lat="32.742443085" lon="35.020759583">
  <ele>359.861816</ele>
  <time>2011-10-20T08:08:39Z</time>
  <speed>5.870000</speed>
</trkpt>
<trkpt lat="32.742473602" lon="35.020805359">
  <ele>358.908691</ele>
  <time>2011-10-20T08:08:40Z</time>
  <speed>5.720000</speed>
</trkpt>
<trkpt lat="32.742515564" lon="35.020843506">
  <ele>358.432129</ele>
  <time>2011-10-20T08:08:41Z</time>
  <speed>5.590000</speed>
</trkpt>
<trkpt lat="32.742561340" lon="35.020877838">
  <ele>358.494629</ele>
  <time>2011-10-20T08:08:42Z</time>
  <speed>5.580000</speed>
</trkpt>
<trkpt lat="32.742599487" lon="35.020908356">
  <ele>358.080566</ele>
  <time>2011-10-20T08:08:43Z</time>
  <speed>5.170000</speed>
</trkpt>
<trkpt lat="32.742633820" lon="35.020938873">
  <ele>357.861816</ele>
  <time>2011-10-20T08:08:44Z</time>
  <speed>4.840000</speed>
</trkpt>
<trkpt lat="32.742660522" lon="35.020980835">
  <ele>358.002441</ele>
  <time>2011-10-20T08:08:45Z</time>
  <speed>4.320000</speed>
</trkpt>
<trkpt lat="32.742683411" lon="35.021018982">
  <ele>358.314941</ele>
  <time>2011-10-20T08:08:46Z</time>
  <speed>3.910000</speed>
</trkpt>
<trkpt lat="32.742710114" lon="35.021049500">
  <ele>358.463379</ele>
  <time>2011-10-20T08:08:47Z</time>
  <speed>3.700000</speed>
</trkpt>
<trkpt lat="32.742729187" lon="35.021080017">
  <ele>358.439941</ele>
  <time>2011-10-20T08:08:48Z</time>
  <speed>3.700000</speed>
</trkpt>
<trkpt lat="32.742755890" lon="35.021110535">
  <ele>358.385254</ele>
  <time>2011-10-20T08:08:49Z</time>
  <speed>3.610000</speed>
</trkpt>
<trkpt lat="32.742774963" lon="35.021141052">
  <ele>358.205566</ele>
  <time>2011-10-20T08:08:50Z</time>
  <speed>3.150000</speed>
</trkpt>
<trkpt lat="32.742786407" lon="35.021171570">
  <ele>358.307129</ele>
  <time>2011-10-20T08:08:51Z</time>
  <speed>3.030000</speed>
</trkpt>
<trkpt lat="32.742801666" lon="35.021202087">
  <ele>358.799316</ele>
  <time>2011-10-20T08:08:52Z</time>
  <speed>3.540000</speed>
</trkpt>
<trkpt lat="32.742813110" lon="35.021240234">
  <ele>358.580566</ele>
  <time>2011-10-20T08:08:53Z</time>
  <speed>3.500000</speed>
</trkpt>
<trkpt lat="32.742835999" lon="35.021282196">
  <ele>358.252441</ele>
  <time>2011-10-20T08:08:54Z</time>
  <speed>3.900000</speed>
</trkpt>
<trkpt lat="32.742851257" lon="35.021320343">
  <ele>358.463379</ele>
  <time>2011-10-20T08:08:55Z</time>
  <speed>3.880000</speed>
</trkpt>
<trkpt lat="32.742858887" lon="35.021358490">
  <ele>358.354004</ele>
  <time>2011-10-20T08:08:56Z</time>
  <speed>3.590000</speed>
</trkpt>
<trkpt lat="32.742866516" lon="35.021400452">
  <ele>358.041504</ele>
  <time>2011-10-20T08:08:57Z</time>
  <speed>4.040000</speed>
</trkpt>
<trkpt lat="32.742870331" lon="35.021442413">
  <ele>356.908691</ele>
  <time>2011-10-20T08:08:58Z</time>
  <speed>4.580000</speed>
</trkpt>
<trkpt lat="32.742889404" lon="35.021495819">
  <ele>357.143066</ele>
  <time>2011-10-20T08:08:59Z</time>
  <speed>5.150000</speed>
</trkpt>
<trkpt lat="32.742900848" lon="35.021553040">
  <ele>356.596191</ele>
  <time>2011-10-20T08:09:00Z</time>
  <speed>5.600000</speed>
</trkpt>
<trkpt lat="32.742904663" lon="35.021614075">
  <ele>356.221191</ele>
  <time>2011-10-20T08:09:01Z</time>
  <speed>5.530000</speed>
</trkpt>
<trkpt lat="32.742904663" lon="35.021675110">
  <ele>355.783691</ele>
  <time>2011-10-20T08:09:02Z</time>
  <speed>5.700000</speed>
</trkpt>
<trkpt lat="32.742904663" lon="35.021728516">
  <ele>355.205566</ele>
  <time>2011-10-20T08:09:03Z</time>
  <speed>4.900000</speed>
</trkpt>
<trkpt lat="32.742904663" lon="35.021778107">
  <ele>354.744629</ele>
  <time>2011-10-20T08:09:04Z</time>
  <speed>4.910000</speed>
</trkpt>
<trkpt lat="32.742885590" lon="35.021827698">
  <ele>354.166504</ele>
  <time>2011-10-20T08:09:05Z</time>
  <speed>4.810000</speed>
</trkpt>
<trkpt lat="32.742870331" lon="35.021884918">
  <ele>353.533691</ele>
  <time>2011-10-20T08:09:06Z</time>
  <speed>5.490000</speed>
</trkpt>
<trkpt lat="32.742870331" lon="35.021942139">
  <ele>352.994629</ele>
  <time>2011-10-20T08:09:07Z</time>
  <speed>5.390000</speed>
</trkpt>
<trkpt lat="32.742870331" lon="35.021999359">
  <ele>352.588379</ele>
  <time>2011-10-20T08:09:08Z</time>
  <speed>4.630000</speed>
</trkpt>
<trkpt lat="32.742877960" lon="35.022052765">
  <ele>352.127441</ele>
  <time>2011-10-20T08:09:09Z</time>
  <speed>4.880000</speed>
</trkpt>
<trkpt lat="32.742881775" lon="35.022106171">
  <ele>351.197754</ele>
  <time>2011-10-20T08:09:10Z</time>
  <speed>4.550000</speed>
</trkpt>
<trkpt lat="32.742893219" lon="35.022155762">
  <ele>350.783691</ele>
  <time>2011-10-20T08:09:11Z</time>
  <speed>4.930000</speed>
</trkpt>
<trkpt lat="32.742897034" lon="35.022209167">
  <ele>350.299316</ele>
  <time>2011-10-20T08:09:12Z</time>
  <speed>5.450000</speed>
</trkpt>
<trkpt lat="32.742893219" lon="35.022266388">
  <ele>349.705566</ele>
  <time>2011-10-20T08:09:13Z</time>
  <speed>5.030000</speed>
</trkpt>
<trkpt lat="32.742877960" lon="35.022319794">
  <ele>348.471191</ele>
  <time>2011-10-20T08:09:14Z</time>
  <speed>5.040000</speed>
</trkpt>
<trkpt lat="32.742874146" lon="35.022369385">
  <ele>347.377441</ele>
  <time>2011-10-20T08:09:15Z</time>
  <speed>4.490000</speed>
</trkpt>
<trkpt lat="32.742877960" lon="35.022415161">
  <ele>346.861816</ele>
  <time>2011-10-20T08:09:16Z</time>
  <speed>4.370000</speed>
</trkpt>
<trkpt lat="32.742881775" lon="35.022464752">
  <ele>346.221191</ele>
  <time>2011-10-20T08:09:17Z</time>
  <speed>4.900000</speed>
</trkpt>
<trkpt lat="32.742877960" lon="35.022521973">
  <ele>345.205566</ele>
  <time>2011-10-20T08:09:18Z</time>
  <speed>5.190000</speed>
</trkpt>
<trkpt lat="32.742885590" lon="35.022579193">
  <ele>344.768066</ele>
  <time>2011-10-20T08:09:19Z</time>
  <speed>5.660000</speed>
</trkpt>
<trkpt lat="32.742897034" lon="35.022632599">
  <ele>344.932129</ele>
  <time>2011-10-20T08:09:20Z</time>
  <speed>5.450000</speed>
</trkpt>
<trkpt lat="32.742908478" lon="35.022689819">
  <ele>344.197754</ele>
  <time>2011-10-20T08:09:21Z</time>
  <speed>4.970000</speed>
</trkpt>
<trkpt lat="32.742900848" lon="35.022743225">
  <ele>343.463379</ele>
  <time>2011-10-20T08:09:22Z</time>
  <speed>5.140000</speed>
</trkpt>
<trkpt lat="32.742889404" lon="35.022804260">
  <ele>342.510254</ele>
  <time>2011-10-20T08:09:23Z</time>
  <speed>5.760000</speed>
</trkpt>
<trkpt lat="32.742874146" lon="35.022861481">
  <ele>342.072754</ele>
  <time>2011-10-20T08:09:24Z</time>
  <speed>5.640000</speed>
</trkpt>
<trkpt lat="32.742855072" lon="35.022914886">
  <ele>341.486816</ele>
  <time>2011-10-20T08:09:25Z</time>
  <speed>5.610000</speed>
</trkpt>
<trkpt lat="32.742839813" lon="35.022968292">
  <ele>340.994629</ele>
  <time>2011-10-20T08:09:26Z</time>
  <speed>5.250000</speed>
</trkpt>
<trkpt lat="32.742824554" lon="35.023025513">
  <ele>340.314941</ele>
  <time>2011-10-20T08:09:27Z</time>
  <speed>5.800000</speed>
</trkpt>
<trkpt lat="32.742805481" lon="35.023082733">
  <ele>340.213379</ele>
  <time>2011-10-20T08:09:28Z</time>
  <speed>5.860000</speed>
</trkpt>
<trkpt lat="32.742794037" lon="35.023139954">
  <ele>339.596191</ele>
  <time>2011-10-20T08:09:29Z</time>
  <speed>4.800000</speed>
</trkpt>
<trkpt lat="32.742786407" lon="35.023189545">
  <ele>339.275879</ele>
  <time>2011-10-20T08:09:30Z</time>
  <speed>4.390000</speed>
</trkpt>
<trkpt lat="32.742774963" lon="35.023231506">
  <ele>339.143066</ele>
  <time>2011-10-20T08:09:31Z</time>
  <speed>3.970000</speed>
</trkpt>
<trkpt lat="32.742774963" lon="35.023273468">
  <ele>339.799316</ele>
  <time>2011-10-20T08:09:32Z</time>
  <speed>4.090000</speed>
</trkpt>
<trkpt lat="32.742778778" lon="35.023315430">
  <ele>340.705566</ele>
  <time>2011-10-20T08:09:33Z</time>
  <speed>3.630000</speed>
</trkpt>
<trkpt lat="32.742782593" lon="35.023353577">
  <ele>340.963379</ele>
  <time>2011-10-20T08:09:34Z</time>
  <speed>3.240000</speed>
</trkpt>
<trkpt lat="32.742801666" lon="35.023384094">
  <ele>341.510254</ele>
  <time>2011-10-20T08:09:35Z</time>
  <speed>2.980000</speed>
</trkpt>
<trkpt lat="32.742828369" lon="35.023414612">
  <ele>342.197754</ele>
  <time>2011-10-20T08:09:36Z</time>
  <speed>3.270000</speed>
</trkpt>
<trkpt lat="32.742889404" lon="35.023464203">
  <ele>344.252441</ele>
  <time>2011-10-20T08:09:38Z</time>
  <speed>2.690000</speed>
</trkpt>
<trkpt lat="32.742919922" lon="35.023509979">
  <ele>344.916504</ele>
  <time>2011-10-20T08:09:40Z</time>
  <speed>3.240000</speed>
</trkpt>
<trkpt lat="32.742927551" lon="35.023544312">
  <ele>344.893066</ele>
  <time>2011-10-20T08:09:41Z</time>
  <speed>3.570000</speed>
</trkpt>
<trkpt lat="32.742919922" lon="35.023574829">
  <ele>344.643066</ele>
  <time>2011-10-20T08:09:42Z</time>
  <speed>3.650000</speed>
</trkpt>
<trkpt lat="32.742881775" lon="35.023624420">
  <ele>344.041504</ele>
  <time>2011-10-20T08:09:44Z</time>
  <speed>3.580000</speed>
</trkpt>
<trkpt lat="32.742832184" lon="35.023639679">
  <ele>343.447754</ele>
  <time>2011-10-20T08:09:46Z</time>
  <speed>3.230000</speed>
</trkpt>
<trkpt lat="32.742797852" lon="35.023651123">
  <ele>343.752441</ele>
  <time>2011-10-20T08:09:47Z</time>
  <speed>3.280000</speed>
</trkpt>
<trkpt lat="32.742767334" lon="35.023654938">
  <ele>343.502441</ele>
  <time>2011-10-20T08:09:48Z</time>
  <speed>4.260000</speed>
</trkpt>
<trkpt lat="32.742733002" lon="35.023666382">
  <ele>343.346191</ele>
  <time>2011-10-20T08:09:49Z</time>
  <speed>4.500000</speed>
</trkpt>
<trkpt lat="32.742694855" lon="35.023677826">
  <ele>343.322754</ele>
  <time>2011-10-20T08:09:50Z</time>
  <speed>3.610000</speed>
</trkpt>
<trkpt lat="32.742664337" lon="35.023689270">
  <ele>342.994629</ele>
  <time>2011-10-20T08:09:51Z</time>
  <speed>3.380000</speed>
</trkpt>
<trkpt lat="32.742630005" lon="35.023700714">
  <ele>342.338379</ele>
  <time>2011-10-20T08:09:52Z</time>
  <speed>3.940000</speed>
</trkpt>
<trkpt lat="32.742595673" lon="35.023727417">
  <ele>341.854004</ele>
  <time>2011-10-20T08:09:53Z</time>
  <speed>5.020000</speed>
</trkpt>
<trkpt lat="32.742565155" lon="35.023761749">
  <ele>341.439941</ele>
  <time>2011-10-20T08:09:54Z</time>
  <speed>5.050000</speed>
</trkpt>
<trkpt lat="32.742527008" lon="35.023807526">
  <ele>340.885254</ele>
  <time>2011-10-20T08:09:55Z</time>
  <speed>5.910000</speed>
</trkpt>
<trkpt lat="32.742488861" lon="35.023860931">
  <ele>340.447754</ele>
  <time>2011-10-20T08:09:56Z</time>
  <speed>6.770000</speed>
</trkpt>
<trkpt lat="32.742446899" lon="35.023933411">
  <ele>340.611816</ele>
  <time>2011-10-20T08:09:57Z</time>
  <speed>5.650000</speed>
</trkpt>
<trkpt lat="32.742420197" lon="35.023986816">
  <ele>340.158691</ele>
  <time>2011-10-20T08:09:58Z</time>
  <speed>5.160000</speed>
</trkpt>
<trkpt lat="32.742393494" lon="35.024044037">
  <ele>340.064941</ele>
  <time>2011-10-20T08:09:59Z</time>
  <speed>5.520000</speed>
</trkpt>
<trkpt lat="32.742366791" lon="35.024101257">
  <ele>339.682129</ele>
  <time>2011-10-20T08:10:00Z</time>
  <speed>5.820000</speed>
</trkpt>
<trkpt lat="32.742343903" lon="35.024158478">
  <ele>339.291504</ele>
  <time>2011-10-20T08:10:01Z</time>
  <speed>5.700000</speed>
</trkpt>
<trkpt lat="32.742321014" lon="35.024223328">
  <ele>339.205566</ele>
  <time>2011-10-20T08:10:02Z</time>
  <speed>5.370000</speed>
</trkpt>
<trkpt lat="32.742301941" lon="35.024272919">
  <ele>338.736816</ele>
  <time>2011-10-20T08:10:03Z</time>
  <speed>5.210000</speed>
</trkpt>
<trkpt lat="32.742290497" lon="35.024322510">
  <ele>338.143066</ele>
  <time>2011-10-20T08:10:04Z</time>
  <speed>4.300000</speed>
</trkpt>
<trkpt lat="32.742271423" lon="35.024360657">
  <ele>337.877441</ele>
  <time>2011-10-20T08:10:05Z</time>
  <speed>3.610000</speed>
</trkpt>
<trkpt lat="32.742259979" lon="35.024394989">
  <ele>337.361816</ele>
  <time>2011-10-20T08:10:06Z</time>
  <speed>3.220000</speed>
</trkpt>
<trkpt lat="32.742259979" lon="35.024433136">
  <ele>336.955566</ele>
  <time>2011-10-20T08:10:07Z</time>
  <speed>3.430000</speed>
</trkpt>
<trkpt lat="32.742282867" lon="35.024471283">
  <ele>335.916504</ele>
  <time>2011-10-20T08:10:09Z</time>
  <speed>1.960000</speed>
</trkpt>
<trkpt lat="32.742309570" lon="35.024475098">
  <ele>334.830566</ele>
  <time>2011-10-20T08:10:11Z</time>
  <speed>1.130000</speed>
</trkpt>
<trkpt lat="32.742328644" lon="35.024448395">
  <ele>334.518066</ele>
  <time>2011-10-20T08:10:26Z</time>
  <speed>0.900000</speed>
</trkpt>
<trkpt lat="32.742404938" lon="35.024444580">
  <ele>334.299316</ele>
  <time>2011-10-20T08:10:29Z</time>
  <speed>1.110000</speed>
</trkpt>
<trkpt lat="32.742412567" lon="35.024414063">
  <ele>334.439941</ele>
  <time>2011-10-20T08:10:51Z</time>
  <speed>0.090000</speed>
</trkpt>
<trkpt lat="32.742420197" lon="35.024383545">
  <ele>334.580566</ele>
  <time>2011-10-20T08:11:40Z</time>
</trkpt>
<trkpt lat="32.742458344" lon="35.024349213">
  <ele>334.572754</ele>
  <time>2011-10-20T08:12:21Z</time>
  <speed>1.830000</speed>
</trkpt>
<trkpt lat="32.742488861" lon="35.024314880">
  <ele>334.705566</ele>
  <time>2011-10-20T08:12:23Z</time>
  <speed>2.120000</speed>
</trkpt>
<trkpt lat="32.742523193" lon="35.024284363">
  <ele>334.869629</ele>
  <time>2011-10-20T08:12:25Z</time>
  <speed>1.480000</speed>
</trkpt>
<trkpt lat="32.742549896" lon="35.024253845">
  <ele>334.932129</ele>
  <time>2011-10-20T08:12:27Z</time>
  <speed>2.120000</speed>
</trkpt>
<trkpt lat="32.742591858" lon="35.024234772">
  <ele>335.057129</ele>
  <time>2011-10-20T08:12:29Z</time>
  <speed>2.610000</speed>
</trkpt>
<trkpt lat="32.742622375" lon="35.024246216">
  <ele>334.900879</ele>
  <time>2011-10-20T08:12:30Z</time>
  <speed>2.720000</speed>
</trkpt>
<trkpt lat="32.742671967" lon="35.024238586">
  <ele>334.807129</ele>
  <time>2011-10-20T08:12:32Z</time>
  <speed>2.580000</speed>
</trkpt>
<trkpt lat="32.742717743" lon="35.024238586">
  <ele>335.283691</ele>
  <time>2011-10-20T08:12:34Z</time>
  <speed>2.350000</speed>
</trkpt>
<trkpt lat="32.742752075" lon="35.024223328">
  <ele>335.658691</ele>
  <time>2011-10-20T08:12:36Z</time>
  <speed>2.240000</speed>
</trkpt>
<trkpt lat="32.742794037" lon="35.024208069">
  <ele>335.963379</ele>
  <time>2011-10-20T08:12:38Z</time>
  <speed>2.300000</speed>
</trkpt>
<trkpt lat="32.742835999" lon="35.024219513">
  <ele>336.197754</ele>
  <time>2011-10-20T08:12:40Z</time>
  <speed>2.510000</speed>
</trkpt>
<trkpt lat="32.742881775" lon="35.024223328">
  <ele>336.088379</ele>
  <time>2011-10-20T08:12:42Z</time>
  <speed>2.100000</speed>
</trkpt>
<trkpt lat="32.742912292" lon="35.024227142">
  <ele>337.580566</ele>
  <time>2011-10-20T08:12:45Z</time>
  <speed>1.840000</speed>
</trkpt>
<trkpt lat="32.742942810" lon="35.024223328">
  <ele>337.010254</ele>
  <time>2011-10-20T08:12:47Z</time>
  <speed>1.680000</speed>
</trkpt>
<trkpt lat="32.742977142" lon="35.024230957">
  <ele>334.635254</ele>
  <time>2011-10-20T08:12:49Z</time>
  <speed>2.170000</speed>
</trkpt>
<trkpt lat="32.743011475" lon="35.024234772">
  <ele>334.900879</ele>
  <time>2011-10-20T08:12:51Z</time>
  <speed>1.650000</speed>
</trkpt>
<trkpt lat="32.743034363" lon="35.024238586">
  <ele>336.775879</ele>
  <time>2011-10-20T08:12:54Z</time>
  <speed>1.040000</speed>
</trkpt>
<trkpt lat="32.743064880" lon="35.024234772">
  <ele>337.854004</ele>
  <time>2011-10-20T08:13:01Z</time>
  <speed>0.490000</speed>
</trkpt>
<trkpt lat="32.743064880" lon="35.024211884">
  <ele>341.025879</ele>
  <time>2011-10-20T08:13:05Z</time>
  <speed>0.590000</speed>
</trkpt>
<trkpt lat="32.743095398" lon="35.024223328">
  <ele>341.830566</ele>
  <time>2011-10-20T08:13:08Z</time>
  <speed>1.040000</speed>
</trkpt>
<trkpt lat="32.743118286" lon="35.024234772">
  <ele>340.689941</ele>
  <time>2011-10-20T08:13:11Z</time>
  <speed>0.890000</speed>
</trkpt>
<trkpt lat="32.743152618" lon="35.024227142">
  <ele>340.268066</ele>
  <time>2011-10-20T08:13:17Z</time>
  <speed>1.050000</speed>
</trkpt>
<trkpt lat="32.743179321" lon="35.024242401">
  <ele>339.814941</ele>
  <time>2011-10-20T08:13:23Z</time>
  <speed>0.900000</speed>
</trkpt>
<trkpt lat="32.743209839" lon="35.024257660">
  <ele>338.260254</ele>
  <time>2011-10-20T08:13:27Z</time>
  <speed>0.420000</speed>
</trkpt>
<trkpt lat="32.743240356" lon="35.024261475">
  <ele>338.182129</ele>
  <time>2011-10-20T08:13:30Z</time>
  <speed>0.750000</speed>
</trkpt>
<trkpt lat="32.743270874" lon="35.024272919">
  <ele>338.346191</ele>
  <time>2011-10-20T08:13:35Z</time>
  <speed>0.870000</speed>
</trkpt>
<trkpt lat="32.743305206" lon="35.024288177">
  <ele>338.619629</ele>
  <time>2011-10-20T08:13:37Z</time>
  <speed>1.050000</speed>
</trkpt>
<trkpt lat="32.743339539" lon="35.024280548">
  <ele>338.104004</ele>
  <time>2011-10-20T08:13:40Z</time>
  <speed>0.520000</speed>
</trkpt>
<trkpt lat="32.743370056" lon="35.024295807">
  <ele>337.111816</ele>
  <time>2011-10-20T08:13:46Z</time>
  <speed>0.650000</speed>
</trkpt>
<trkpt lat="32.743400574" lon="35.024311066">
  <ele>338.072754</ele>
  <time>2011-10-20T08:13:54Z</time>
  <speed>1.620000</speed>
</trkpt>
<trkpt lat="32.743431091" lon="35.024318695">
  <ele>338.104004</ele>
  <time>2011-10-20T08:13:56Z</time>
  <speed>1.410000</speed>
</trkpt>
<trkpt lat="32.743503571" lon="35.024269104">
  <ele>338.189941</ele>
  <time>2011-10-20T08:13:59Z</time>
  <speed>2.260000</speed>
</trkpt>
<trkpt lat="32.743518829" lon="35.024238586">
  <ele>338.244629</ele>
  <time>2011-10-20T08:14:00Z</time>
  <speed>2.240000</speed>
</trkpt>
<trkpt lat="32.743526459" lon="35.024208069">
  <ele>338.369629</ele>
  <time>2011-10-20T08:14:01Z</time>
  <speed>2.280000</speed>
</trkpt>
<trkpt lat="32.743530273" lon="35.024166107">
  <ele>338.291504</ele>
  <time>2011-10-20T08:14:03Z</time>
  <speed>1.750000</speed>
</trkpt>
<trkpt lat="32.743541718" lon="35.024124146">
  <ele>338.299316</ele>
  <time>2011-10-20T08:14:05Z</time>
  <speed>1.510000</speed>
</trkpt>
<trkpt lat="32.743526459" lon="35.024078369">
  <ele>338.018066</ele>
  <time>2011-10-20T08:14:07Z</time>
  <speed>2.240000</speed>
</trkpt>
<trkpt lat="32.743492126" lon="35.024024963">
  <ele>337.971191</ele>
  <time>2011-10-20T08:14:09Z</time>
  <speed>2.920000</speed>
</trkpt>
<trkpt lat="32.743473053" lon="35.023994446">
  <ele>337.963379</ele>
  <time>2011-10-20T08:14:10Z</time>
  <speed>2.480000</speed>
</trkpt>
<trkpt lat="32.743453979" lon="35.023963928">
  <ele>337.900879</ele>
  <time>2011-10-20T08:14:11Z</time>
  <speed>1.760000</speed>
</trkpt>
<trkpt lat="32.743442535" lon="35.023899078">
  <ele>338.611816</ele>
  <time>2011-10-20T08:14:13Z</time>
  <speed>2.760000</speed>
</trkpt>
<trkpt lat="32.743427277" lon="35.023868561">
  <ele>339.244629</ele>
  <time>2011-10-20T08:14:14Z</time>
  <speed>2.510000</speed>
</trkpt>
<trkpt lat="32.743400574" lon="35.023822784">
  <ele>340.588379</ele>
  <time>2011-10-20T08:14:16Z</time>
  <speed>2.270000</speed>
</trkpt>
<trkpt lat="32.743381500" lon="35.023777008">
  <ele>341.307129</ele>
  <time>2011-10-20T08:14:18Z</time>
  <speed>2.070000</speed>
</trkpt>
<trkpt lat="32.743358612" lon="35.023735046">
  <ele>341.205566</ele>
  <time>2011-10-20T08:14:20Z</time>
  <speed>2.790000</speed>
</trkpt>
<trkpt lat="32.743347168" lon="35.023704529">
  <ele>341.330566</ele>
  <time>2011-10-20T08:14:21Z</time>
  <speed>3.210000</speed>
</trkpt>
<trkpt lat="32.743354797" lon="35.023670197">
  <ele>341.447754</ele>
  <time>2011-10-20T08:14:22Z</time>
  <speed>3.190000</speed>
</trkpt>
<trkpt lat="32.743366241" lon="35.023639679">
  <ele>341.072754</ele>
  <time>2011-10-20T08:14:23Z</time>
  <speed>3.340000</speed>
</trkpt>
<trkpt lat="32.743385315" lon="35.023609161">
  <ele>341.494629</ele>
  <time>2011-10-20T08:14:24Z</time>
  <speed>3.240000</speed>
</trkpt>
<trkpt lat="32.743404388" lon="35.023582458">
  <ele>341.916504</ele>
  <time>2011-10-20T08:14:25Z</time>
  <speed>3.010000</speed>
</trkpt>
<trkpt lat="32.743419647" lon="35.023555756">
  <ele>342.330566</ele>
  <time>2011-10-20T08:14:26Z</time>
  <speed>3.030000</speed>
</trkpt>
<trkpt lat="32.743453979" lon="35.023513794">
  <ele>343.111816</ele>
  <time>2011-10-20T08:14:28Z</time>
  <speed>2.730000</speed>
</trkpt>
<trkpt lat="32.743488312" lon="35.023471832">
  <ele>343.986816</ele>
  <time>2011-10-20T08:14:30Z</time>
  <speed>2.640000</speed>
</trkpt>
<trkpt lat="32.743518829" lon="35.023433685">
  <ele>344.916504</ele>
  <time>2011-10-20T08:14:32Z</time>
  <speed>1.390000</speed>
</trkpt>
<trkpt lat="32.743518829" lon="35.023387909">
  <ele>344.682129</ele>
  <time>2011-10-20T08:14:34Z</time>
  <speed>2.290000</speed>
</trkpt>
<trkpt lat="32.743534088" lon="35.023353577">
  <ele>344.424316</ele>
  <time>2011-10-20T08:14:36Z</time>
  <speed>1.840000</speed>
</trkpt>
<trkpt lat="32.743553162" lon="35.023319244">
  <ele>344.830566</ele>
  <time>2011-10-20T08:14:38Z</time>
  <speed>1.600000</speed>
</trkpt>
<trkpt lat="32.743583679" lon="35.023277283">
  <ele>343.916504</ele>
  <time>2011-10-20T08:14:40Z</time>
  <speed>3.050000</speed>
</trkpt>
<trkpt lat="32.743602753" lon="35.023254395">
  <ele>343.799316</ele>
  <time>2011-10-20T08:14:41Z</time>
  <speed>3.000000</speed>
</trkpt>
<trkpt lat="32.743633270" lon="35.023239136">
  <ele>343.736816</ele>
  <time>2011-10-20T08:14:42Z</time>
  <speed>4.330000</speed>
</trkpt>
<trkpt lat="32.743671417" lon="35.023223877">
  <ele>343.908691</ele>
  <time>2011-10-20T08:14:43Z</time>
  <speed>4.170000</speed>
</trkpt>
<trkpt lat="32.743705750" lon="35.023212433">
  <ele>344.533691</ele>
  <time>2011-10-20T08:14:44Z</time>
  <speed>4.120000</speed>
</trkpt>
<trkpt lat="32.743740082" lon="35.023200989">
  <ele>344.705566</ele>
  <time>2011-10-20T08:14:45Z</time>
  <speed>3.380000</speed>
</trkpt>
<trkpt lat="32.743770599" lon="35.023185730">
  <ele>344.783691</ele>
  <time>2011-10-20T08:14:46Z</time>
  <speed>3.020000</speed>
</trkpt>
<trkpt lat="32.743797302" lon="35.023174286">
  <ele>344.338379</ele>
  <time>2011-10-20T08:14:47Z</time>
  <speed>2.820000</speed>
</trkpt>
<trkpt lat="32.743835449" lon="35.023155212">
  <ele>343.994629</ele>
  <time>2011-10-20T08:14:49Z</time>
  <speed>2.370000</speed>
</trkpt>
<trkpt lat="32.743885040" lon="35.023139954">
  <ele>342.994629</ele>
  <time>2011-10-20T08:14:51Z</time>
  <speed>3.080000</speed>
</trkpt>
<trkpt lat="32.743915558" lon="35.023132324">
  <ele>342.627441</ele>
  <time>2011-10-20T08:14:52Z</time>
  <speed>3.480000</speed>
</trkpt>
<trkpt lat="32.743946075" lon="35.023117065">
  <ele>342.463379</ele>
  <time>2011-10-20T08:14:53Z</time>
  <speed>3.730000</speed>
</trkpt>
<trkpt lat="32.743976593" lon="35.023109436">
  <ele>342.236816</ele>
  <time>2011-10-20T08:14:54Z</time>
  <speed>3.260000</speed>
</trkpt>
<trkpt lat="32.744022369" lon="35.023075104">
  <ele>342.783691</ele>
  <time>2011-10-20T08:14:56Z</time>
  <speed>2.700000</speed>
</trkpt>
<trkpt lat="32.744041443" lon="35.023048401">
  <ele>343.018066</ele>
  <time>2011-10-20T08:14:57Z</time>
  <speed>2.550000</speed>
</trkpt>
<trkpt lat="32.744075775" lon="35.023014069">
  <ele>343.369629</ele>
  <time>2011-10-20T08:14:59Z</time>
  <speed>2.330000</speed>
</trkpt>
<trkpt lat="32.744102478" lon="35.022991180">
  <ele>343.986816</ele>
  <time>2011-10-20T08:15:00Z</time>
  <speed>2.800000</speed>
</trkpt>
<trkpt lat="32.744125366" lon="35.022972107">
  <ele>344.197754</ele>
  <time>2011-10-20T08:15:01Z</time>
  <speed>2.690000</speed>
</trkpt>
<trkpt lat="32.744148254" lon="35.022956848">
  <ele>344.736816</ele>
  <time>2011-10-20T08:15:02Z</time>
  <speed>2.720000</speed>
</trkpt>
<trkpt lat="32.744194031" lon="35.022918701">
  <ele>345.768066</ele>
  <time>2011-10-20T08:15:04Z</time>
  <speed>2.310000</speed>
</trkpt>
<trkpt lat="32.744220734" lon="35.022884369">
  <ele>346.025879</ele>
  <time>2011-10-20T08:15:06Z</time>
  <speed>2.290000</speed>
</trkpt>
<trkpt lat="32.744247437" lon="35.022846222">
  <ele>347.314941</ele>
  <time>2011-10-20T08:15:08Z</time>
  <speed>2.370000</speed>
</trkpt>
<trkpt lat="32.744277954" lon="35.022823334">
  <ele>347.463379</ele>
  <time>2011-10-20T08:15:10Z</time>
  <speed>2.680000</speed>
</trkpt>
<trkpt lat="32.744316101" lon="35.022789001">
  <ele>347.971191</ele>
  <time>2011-10-20T08:15:12Z</time>
  <speed>2.430000</speed>
</trkpt>
<trkpt lat="32.744350433" lon="35.022754669">
  <ele>348.557129</ele>
  <time>2011-10-20T08:15:14Z</time>
  <speed>2.210000</speed>
</trkpt>
<trkpt lat="32.744377136" lon="35.022724152">
  <ele>349.455566</ele>
  <time>2011-10-20T08:15:16Z</time>
  <speed>2.390000</speed>
</trkpt>
<trkpt lat="32.744407654" lon="35.022697449">
  <ele>349.908691</ele>
  <time>2011-10-20T08:15:18Z</time>
  <speed>2.070000</speed>
</trkpt>
<trkpt lat="32.744438171" lon="35.022659302">
  <ele>350.166504</ele>
  <time>2011-10-20T08:15:20Z</time>
  <speed>2.120000</speed>
</trkpt>
<trkpt lat="32.744472504" lon="35.022628784">
  <ele>350.916504</ele>
  <time>2011-10-20T08:15:22Z</time>
  <speed>2.150000</speed>
</trkpt>
<trkpt lat="32.744491577" lon="35.022586823">
  <ele>351.627441</ele>
  <time>2011-10-20T08:15:24Z</time>
  <speed>2.280000</speed>
</trkpt>
<trkpt lat="32.744518280" lon="35.022552490">
  <ele>352.572754</ele>
  <time>2011-10-20T08:15:26Z</time>
  <speed>2.610000</speed>
</trkpt>
<trkpt lat="32.744541168" lon="35.022514343">
  <ele>352.049316</ele>
  <time>2011-10-20T08:15:28Z</time>
  <speed>1.960000</speed>
</trkpt>
<trkpt lat="32.744560242" lon="35.022483826">
  <ele>351.705566</ele>
  <time>2011-10-20T08:15:30Z</time>
  <speed>1.850000</speed>
</trkpt>
<trkpt lat="32.744590759" lon="35.022449493">
  <ele>351.752441</ele>
  <time>2011-10-20T08:15:32Z</time>
  <speed>2.280000</speed>
</trkpt>
<trkpt lat="32.744602203" lon="35.022418976">
  <ele>352.018066</ele>
  <time>2011-10-20T08:15:34Z</time>
  <speed>1.610000</speed>
</trkpt>
<trkpt lat="32.744632721" lon="35.022377014">
  <ele>352.213379</ele>
  <time>2011-10-20T08:15:36Z</time>
  <speed>2.050000</speed>
</trkpt>
<trkpt lat="32.744655609" lon="35.022342682">
  <ele>352.736816</ele>
  <time>2011-10-20T08:15:38Z</time>
  <speed>1.910000</speed>
</trkpt>
<trkpt lat="32.744670868" lon="35.022312164">
  <ele>352.736816</ele>
  <time>2011-10-20T08:15:40Z</time>
  <speed>1.620000</speed>
</trkpt>
<trkpt lat="32.744689941" lon="35.022274017">
  <ele>352.604004</ele>
  <time>2011-10-20T08:15:42Z</time>
  <speed>1.750000</speed>
</trkpt>
<trkpt lat="32.744697571" lon="35.022232056">
  <ele>352.400879</ele>
  <time>2011-10-20T08:15:44Z</time>
  <speed>1.740000</speed>
</trkpt>
<trkpt lat="32.744724274" lon="35.022201538">
  <ele>352.064941</ele>
  <time>2011-10-20T08:15:46Z</time>
  <speed>1.860000</speed>
</trkpt>
<trkpt lat="32.744747162" lon="35.022171021">
  <ele>352.166504</ele>
  <time>2011-10-20T08:15:49Z</time>
  <speed>1.360000</speed>
</trkpt>
<trkpt lat="32.744758606" lon="35.022125244">
  <ele>352.658691</ele>
  <time>2011-10-20T08:15:51Z</time>
  <speed>1.820000</speed>
</trkpt>
<trkpt lat="32.744773865" lon="35.022090912">
  <ele>352.744629</ele>
  <time>2011-10-20T08:15:53Z</time>
  <speed>1.810000</speed>
</trkpt>
<trkpt lat="32.744792938" lon="35.022052765">
  <ele>352.752441</ele>
  <time>2011-10-20T08:15:55Z</time>
  <speed>1.760000</speed>
</trkpt>
<trkpt lat="32.744808197" lon="35.022014618">
  <ele>351.744629</ele>
  <time>2011-10-20T08:15:57Z</time>
  <speed>1.570000</speed>
</trkpt>
<trkpt lat="32.744819641" lon="35.021972656">
  <ele>351.814941</ele>
  <time>2011-10-20T08:15:59Z</time>
  <speed>2.110000</speed>
</trkpt>
<trkpt lat="32.744842529" lon="35.021926880">
  <ele>351.299316</ele>
  <time>2011-10-20T08:16:01Z</time>
  <speed>2.030000</speed>
</trkpt>
<trkpt lat="32.744861603" lon="35.021881104">
  <ele>350.682129</ele>
  <time>2011-10-20T08:16:03Z</time>
  <speed>2.100000</speed>
</trkpt>
<trkpt lat="32.744876862" lon="35.021858215">
  <ele>351.502441</ele>
  <time>2011-10-20T08:16:04Z</time>
  <speed>2.840000</speed>
</trkpt>
<trkpt lat="32.744899750" lon="35.021835327">
  <ele>351.580566</ele>
  <time>2011-10-20T08:16:05Z</time>
  <speed>2.490000</speed>
</trkpt>
<trkpt lat="32.744922638" lon="35.021812439">
  <ele>350.830566</ele>
  <time>2011-10-20T08:16:06Z</time>
  <speed>3.040000</speed>
</trkpt>
<trkpt lat="32.744953156" lon="35.021789551">
  <ele>350.189941</ele>
  <time>2011-10-20T08:16:07Z</time>
  <speed>3.080000</speed>
</trkpt>
<trkpt lat="32.744979858" lon="35.021766663">
  <ele>349.447754</ele>
  <time>2011-10-20T08:16:08Z</time>
  <speed>3.340000</speed>
</trkpt>
<trkpt lat="32.745002747" lon="35.021747589">
  <ele>349.760254</ele>
  <time>2011-10-20T08:16:09Z</time>
  <speed>2.680000</speed>
</trkpt>
<trkpt lat="32.745037079" lon="35.021755219">
  <ele>349.752441</ele>
  <time>2011-10-20T08:16:11Z</time>
  <speed>0.810000</speed>
</trkpt>
<trkpt lat="32.745059967" lon="35.021781921">
  <ele>350.408691</ele>
  <time>2011-10-20T08:16:14Z</time>
  <speed>1.770000</speed>
</trkpt>
<trkpt lat="32.745082855" lon="35.021800995">
  <ele>350.346191</ele>
  <time>2011-10-20T08:16:15Z</time>
  <speed>2.200000</speed>
</trkpt>
<trkpt lat="32.745124817" lon="35.021831512">
  <ele>350.111816</ele>
  <time>2011-10-20T08:16:17Z</time>
  <speed>2.060000</speed>
</trkpt>
<trkpt lat="32.745155334" lon="35.021850586">
  <ele>351.158691</ele>
  <time>2011-10-20T08:16:19Z</time>
  <speed>1.790000</speed>
</trkpt>
<trkpt lat="32.745185852" lon="35.021877289">
  <ele>351.049316</ele>
  <time>2011-10-20T08:16:21Z</time>
  <speed>1.670000</speed>
</trkpt>
<trkpt lat="32.745204926" lon="35.021903992">
  <ele>351.439941</ele>
  <time>2011-10-20T08:16:23Z</time>
  <speed>1.640000</speed>
</trkpt>
<trkpt lat="32.745227814" lon="35.021938324">
  <ele>352.736816</ele>
  <time>2011-10-20T08:16:25Z</time>
  <speed>1.920000</speed>
</trkpt>
<trkpt lat="32.745258331" lon="35.021972656">
  <ele>354.041504</ele>
  <time>2011-10-20T08:16:27Z</time>
  <speed>1.550000</speed>
</trkpt>
<trkpt lat="32.745258331" lon="35.022006989">
  <ele>354.924316</ele>
  <time>2011-10-20T08:16:30Z</time>
  <speed>0.600000</speed>
</trkpt>
<trkpt lat="32.745285034" lon="35.022018433">
  <ele>355.689941</ele>
  <time>2011-10-20T08:16:37Z</time>
  <speed>0.540000</speed>
</trkpt>
<trkpt lat="32.745311737" lon="35.022037506">
  <ele>355.963379</ele>
  <time>2011-10-20T08:16:42Z</time>
  <speed>1.010000</speed>
</trkpt>
<trkpt lat="32.745338440" lon="35.022056580">
  <ele>356.588379</ele>
  <time>2011-10-20T08:16:45Z</time>
  <speed>1.140000</speed>
</trkpt>
<trkpt lat="32.745365143" lon="35.022068024">
  <ele>356.736816</ele>
  <time>2011-10-20T08:16:47Z</time>
  <speed>1.290000</speed>
</trkpt>
<trkpt lat="32.745395660" lon="35.022098541">
  <ele>356.385254</ele>
  <time>2011-10-20T08:16:49Z</time>
  <speed>1.620000</speed>
</trkpt>
<trkpt lat="32.745418549" lon="35.022129059">
  <ele>356.768066</ele>
  <time>2011-10-20T08:16:51Z</time>
  <speed>1.510000</speed>
</trkpt>
<trkpt lat="32.745452881" lon="35.022151947">
  <ele>357.057129</ele>
  <time>2011-10-20T08:16:54Z</time>
  <speed>1.510000</speed>
</trkpt>
<trkpt lat="32.745483398" lon="35.022174835">
  <ele>357.682129</ele>
  <time>2011-10-20T08:16:56Z</time>
  <speed>1.340000</speed>
</trkpt>
<trkpt lat="32.745502472" lon="35.022197723">
  <ele>358.846191</ele>
  <time>2011-10-20T08:16:58Z</time>
  <speed>1.240000</speed>
</trkpt>
<trkpt lat="32.745532990" lon="35.022216797">
  <ele>358.299316</ele>
  <time>2011-10-20T08:17:00Z</time>
  <speed>1.540000</speed>
</trkpt>
<trkpt lat="32.745563507" lon="35.022235870">
  <ele>359.064941</ele>
  <time>2011-10-20T08:17:03Z</time>
  <speed>1.030000</speed>
</trkpt>
<trkpt lat="32.745601654" lon="35.022258759">
  <ele>360.127441</ele>
  <time>2011-10-20T08:17:05Z</time>
  <speed>1.560000</speed>
</trkpt>
<trkpt lat="32.745632172" lon="35.022293091">
  <ele>361.049316</ele>
  <time>2011-10-20T08:17:08Z</time>
  <speed>1.550000</speed>
</trkpt>
<trkpt lat="32.745643616" lon="35.022323608">
  <ele>361.322754</ele>
  <time>2011-10-20T08:17:10Z</time>
  <speed>1.460000</speed>
</trkpt>
<trkpt lat="32.745670319" lon="35.022338867">
  <ele>361.830566</ele>
  <time>2011-10-20T08:17:11Z</time>
  <speed>1.520000</speed>
</trkpt>
<trkpt lat="32.745685577" lon="35.022365570">
  <ele>362.994629</ele>
  <time>2011-10-20T08:17:13Z</time>
  <speed>1.380000</speed>
</trkpt>
<trkpt lat="32.745708466" lon="35.022380829">
  <ele>364.838379</ele>
  <time>2011-10-20T08:17:15Z</time>
  <speed>0.340000</speed>
</trkpt>
<trkpt lat="32.745685577" lon="35.022403717">
  <ele>366.580566</ele>
  <time>2011-10-20T08:17:22Z</time>
  <speed>1.010000</speed>
</trkpt>
<trkpt lat="32.745662689" lon="35.022418976">
  <ele>368.096191</ele>
  <time>2011-10-20T08:17:26Z</time>
  <speed>0.470000</speed>
</trkpt>
<trkpt lat="32.745647430" lon="35.022392273">
  <ele>368.533691</ele>
  <time>2011-10-20T08:17:32Z</time>
  <speed>0.710000</speed>
</trkpt>
<trkpt lat="32.745624542" lon="35.022369385">
  <ele>368.869629</ele>
  <time>2011-10-20T08:17:35Z</time>
  <speed>1.180000</speed>
</trkpt>
<trkpt lat="32.745594025" lon="35.022369385">
  <ele>369.135254</ele>
  <time>2011-10-20T08:17:38Z</time>
  <speed>0.960000</speed>
</trkpt>
<trkpt lat="32.745567322" lon="35.022377014">
  <ele>369.705566</ele>
  <time>2011-10-20T08:17:43Z</time>
  <speed>0.690000</speed>
</trkpt>
<trkpt lat="32.745532990" lon="35.022369385">
  <ele>369.572754</ele>
  <time>2011-10-20T08:17:46Z</time>
  <speed>1.450000</speed>
</trkpt>
<trkpt lat="32.745494843" lon="35.022377014">
  <ele>369.510254</ele>
  <time>2011-10-20T08:17:48Z</time>
  <speed>1.870000</speed>
</trkpt>
<trkpt lat="32.745464325" lon="35.022396088">
  <ele>369.697754</ele>
  <time>2011-10-20T08:17:50Z</time>
  <speed>1.810000</speed>
</trkpt>
<trkpt lat="32.745433807" lon="35.022407532">
  <ele>369.979004</ele>
  <time>2011-10-20T08:17:52Z</time>
  <speed>2.030000</speed>
</trkpt>
<trkpt lat="32.745407104" lon="35.022434235">
  <ele>370.729004</ele>
  <time>2011-10-20T08:17:54Z</time>
  <speed>1.480000</speed>
</trkpt>
<trkpt lat="32.745391846" lon="35.022480011">
  <ele>371.736816</ele>
  <time>2011-10-20T08:17:56Z</time>
  <speed>2.130000</speed>
</trkpt>
<trkpt lat="32.745395660" lon="35.022521973">
  <ele>372.697754</ele>
  <time>2011-10-20T08:17:58Z</time>
  <speed>1.630000</speed>
</trkpt>
<trkpt lat="32.745414734" lon="35.022556305">
  <ele>373.869629</ele>
  <time>2011-10-20T08:18:00Z</time>
  <speed>1.660000</speed>
</trkpt>
<trkpt lat="32.745433807" lon="35.022586823">
  <ele>374.564941</ele>
  <time>2011-10-20T08:18:02Z</time>
  <speed>1.610000</speed>
</trkpt>
<trkpt lat="32.745449066" lon="35.022613525">
  <ele>375.533691</ele>
  <time>2011-10-20T08:18:04Z</time>
  <speed>1.600000</speed>
</trkpt>
<trkpt lat="32.745468140" lon="35.022647858">
  <ele>375.947754</ele>
  <time>2011-10-20T08:18:06Z</time>
  <speed>1.750000</speed>
</trkpt>
<trkpt lat="32.745491028" lon="35.022678375">
  <ele>376.822754</ele>
  <time>2011-10-20T08:18:08Z</time>
  <speed>1.670000</speed>
</trkpt>
<trkpt lat="32.745510101" lon="35.022705078">
  <ele>376.971191</ele>
  <time>2011-10-20T08:18:10Z</time>
  <speed>1.660000</speed>
</trkpt>
<trkpt lat="32.745521545" lon="35.022747040">
  <ele>377.299316</ele>
  <time>2011-10-20T08:18:13Z</time>
  <speed>1.350000</speed>
</trkpt>
<trkpt lat="32.745540619" lon="35.022773743">
  <ele>377.939941</ele>
  <time>2011-10-20T08:18:15Z</time>
  <speed>1.770000</speed>
</trkpt>
<trkpt lat="32.745552063" lon="35.022804260">
  <ele>378.330566</ele>
  <time>2011-10-20T08:18:17Z</time>
  <speed>1.620000</speed>
</trkpt>
<trkpt lat="32.745563507" lon="35.022850037">
  <ele>378.072754</ele>
  <time>2011-10-20T08:18:20Z</time>
  <speed>1.820000</speed>
</trkpt>
<trkpt lat="32.745574951" lon="35.022888184">
  <ele>378.143066</ele>
  <time>2011-10-20T08:18:22Z</time>
  <speed>1.620000</speed>
</trkpt>
<trkpt lat="32.745590210" lon="35.022922516">
  <ele>378.604004</ele>
  <time>2011-10-20T08:18:24Z</time>
  <speed>1.940000</speed>
</trkpt>
<trkpt lat="32.745616913" lon="35.022960663">
  <ele>378.971191</ele>
  <time>2011-10-20T08:18:26Z</time>
  <speed>1.660000</speed>
</trkpt>
<trkpt lat="32.745620728" lon="35.022998810">
  <ele>379.369629</ele>
  <time>2011-10-20T08:18:28Z</time>
  <speed>1.540000</speed>
</trkpt>
<trkpt lat="32.745643616" lon="35.023036957">
  <ele>379.486816</ele>
  <time>2011-10-20T08:18:31Z</time>
  <speed>1.590000</speed>
</trkpt>
<trkpt lat="32.745647430" lon="35.023075104">
  <ele>379.791504</ele>
  <time>2011-10-20T08:18:34Z</time>
  <speed>1.660000</speed>
</trkpt>
<trkpt lat="32.745655060" lon="35.023117065">
  <ele>380.439941</ele>
  <time>2011-10-20T08:18:37Z</time>
  <speed>1.450000</speed>
</trkpt>
<trkpt lat="32.745662689" lon="35.023151398">
  <ele>380.580566</ele>
  <time>2011-10-20T08:18:39Z</time>
  <speed>1.360000</speed>
</trkpt>
<trkpt lat="32.745681763" lon="35.023193359">
  <ele>381.268066</ele>
  <time>2011-10-20T08:18:42Z</time>
  <speed>1.880000</speed>
</trkpt>
<trkpt lat="32.745704651" lon="35.023227692">
  <ele>381.400879</ele>
  <time>2011-10-20T08:18:44Z</time>
  <speed>1.720000</speed>
</trkpt>
<trkpt lat="32.745700836" lon="35.023269653">
  <ele>381.143066</ele>
  <time>2011-10-20T08:18:47Z</time>
  <speed>1.460000</speed>
</trkpt>
<trkpt lat="32.745689392" lon="35.023311615">
  <ele>380.814941</ele>
  <time>2011-10-20T08:18:49Z</time>
  <speed>1.970000</speed>
</trkpt>
<trkpt lat="32.745685577" lon="35.023353577">
  <ele>381.252441</ele>
  <time>2011-10-20T08:18:51Z</time>
  <speed>1.790000</speed>
</trkpt>
<trkpt lat="32.745685577" lon="35.023403168">
  <ele>382.197754</ele>
  <time>2011-10-20T08:18:53Z</time>
  <speed>2.270000</speed>
</trkpt>
<trkpt lat="32.745685577" lon="35.023452759">
  <ele>383.330566</ele>
  <time>2011-10-20T08:18:55Z</time>
  <speed>1.990000</speed>
</trkpt>
<trkpt lat="32.745685577" lon="35.023487091">
  <ele>383.502441</ele>
  <time>2011-10-20T08:18:57Z</time>
  <speed>1.520000</speed>
</trkpt>
<trkpt lat="32.745677948" lon="35.023529053">
  <ele>383.002441</ele>
  <time>2011-10-20T08:19:00Z</time>
  <speed>1.010000</speed>
</trkpt>
<trkpt lat="32.745658875" lon="35.023555756">
  <ele>382.658691</ele>
  <time>2011-10-20T08:19:02Z</time>
  <speed>1.190000</speed>
</trkpt>
<trkpt lat="32.745662689" lon="35.023601532">
  <ele>382.104004</ele>
  <time>2011-10-20T08:19:05Z</time>
  <speed>1.780000</speed>
</trkpt>
<trkpt lat="32.745655060" lon="35.023639679">
  <ele>382.064941</ele>
  <time>2011-10-20T08:19:08Z</time>
  <speed>0.650000</speed>
</trkpt>
<trkpt lat="32.745670319" lon="35.023612976">
  <ele>382.025879</ele>
  <time>2011-10-20T08:19:14Z</time>
  <speed>0.220000</speed>
</trkpt>
<trkpt lat="32.745689392" lon="35.023590088">
  <ele>382.299316</ele>
  <time>2011-10-20T08:19:17Z</time>
  <speed>0.540000</speed>
</trkpt>
<trkpt lat="32.745689392" lon="35.023548126">
  <ele>381.791504</ele>
  <time>2011-10-20T08:19:20Z</time>
  <speed>0.470000</speed>
</trkpt>
<trkpt lat="32.745674133" lon="35.023521423">
  <ele>382.697754</ele>
  <time>2011-10-20T08:19:28Z</time>
  <speed>0.040000</speed>
</trkpt>
<trkpt lat="32.745651245" lon="35.023544312">
  <ele>384.033691</ele>
  <time>2011-10-20T08:19:34Z</time>
  <speed>0.060000</speed>
</trkpt>
<trkpt lat="32.745632172" lon="35.023567200">
  <ele>383.799316</ele>
  <time>2011-10-20T08:20:04Z</time>
  <speed>0.440000</speed>
</trkpt>
<trkpt lat="32.745635986" lon="35.023601532">
  <ele>384.439941</ele>
  <time>2011-10-20T08:20:08Z</time>
  <speed>0.050000</speed>
</trkpt>
<trkpt lat="32.745635986" lon="35.023635864">
  <ele>384.338379</ele>
  <time>2011-10-20T08:20:13Z</time>
  <speed>0.780000</speed>
</trkpt>
<trkpt lat="32.745647430" lon="35.023674011">
  <ele>384.205566</ele>
  <time>2011-10-20T08:20:16Z</time>
  <speed>0.820000</speed>
</trkpt>
<trkpt lat="32.745647430" lon="35.023712158">
  <ele>384.025879</ele>
  <time>2011-10-20T08:20:19Z</time>
  <speed>1.040000</speed>
</trkpt>
<trkpt lat="32.745647430" lon="35.023746490">
  <ele>383.916504</ele>
  <time>2011-10-20T08:20:22Z</time>
  <speed>0.960000</speed>
</trkpt>
<trkpt lat="32.745674133" lon="35.023761749">
  <ele>384.869629</ele>
  <time>2011-10-20T08:20:24Z</time>
  <speed>0.840000</speed>
</trkpt>
<trkpt lat="32.745685577" lon="35.023799896">
  <ele>385.307129</ele>
  <time>2011-10-20T08:20:28Z</time>
  <speed>0.900000</speed>
</trkpt>
<trkpt lat="32.745723724" lon="35.023796082">
  <ele>386.604004</ele>
  <time>2011-10-20T08:20:31Z</time>
  <speed>0.180000</speed>
</trkpt>
<trkpt lat="32.745742798" lon="35.023773193">
  <ele>385.838379</ele>
  <time>2011-10-20T08:20:45Z</time>
  <speed>0.030000</speed>
</trkpt>
<trkpt lat="32.745746613" lon="35.023799896">
  <ele>383.939941</ele>
  <time>2011-10-20T08:21:00Z</time>
</trkpt>
<trkpt lat="32.745758057" lon="35.023830414">
  <ele>385.213379</ele>
  <time>2011-10-20T08:21:07Z</time>
</trkpt>
<trkpt lat="32.745780945" lon="35.023868561">
  <ele>384.221191</ele>
  <time>2011-10-20T08:23:41Z</time>
  <speed>2.130000</speed>
</trkpt>
<trkpt lat="32.745803833" lon="35.023918152">
  <ele>383.783691</ele>
  <time>2011-10-20T08:23:43Z</time>
  <speed>2.420000</speed>
</trkpt>
<trkpt lat="32.745819092" lon="35.023967743">
  <ele>383.479004</ele>
  <time>2011-10-20T08:23:45Z</time>
  <speed>1.860000</speed>
</trkpt>
<trkpt lat="32.745838165" lon="35.024028778">
  <ele>383.861816</ele>
  <time>2011-10-20T08:23:47Z</time>
  <speed>2.570000</speed>
</trkpt>
<trkpt lat="32.745857239" lon="35.024074554">
  <ele>383.354004</ele>
  <time>2011-10-20T08:23:49Z</time>
  <speed>2.220000</speed>
</trkpt>
<trkpt lat="32.745861053" lon="35.024112701">
  <ele>383.908691</ele>
  <time>2011-10-20T08:23:51Z</time>
  <speed>1.590000</speed>
</trkpt>
<trkpt lat="32.745868683" lon="35.024150848">
  <ele>384.104004</ele>
  <time>2011-10-20T08:23:53Z</time>
  <speed>1.820000</speed>
</trkpt>
<trkpt lat="32.745883942" lon="35.024188995">
  <ele>385.150879</ele>
  <time>2011-10-20T08:23:55Z</time>
  <speed>1.680000</speed>
</trkpt>
<trkpt lat="32.745906830" lon="35.024219513">
  <ele>384.768066</ele>
  <time>2011-10-20T08:23:57Z</time>
  <speed>1.780000</speed>
</trkpt>
<trkpt lat="32.745925903" lon="35.024253845">
  <ele>384.916504</ele>
  <time>2011-10-20T08:23:59Z</time>
  <speed>2.110000</speed>
</trkpt>
<trkpt lat="32.745933533" lon="35.024295807">
  <ele>385.939941</ele>
  <time>2011-10-20T08:24:01Z</time>
  <speed>1.710000</speed>
</trkpt>
<trkpt lat="32.745956421" lon="35.024333954">
  <ele>385.744629</ele>
  <time>2011-10-20T08:24:03Z</time>
  <speed>2.140000</speed>
</trkpt>
<trkpt lat="32.745990753" lon="35.024372101">
  <ele>385.627441</ele>
  <time>2011-10-20T08:24:05Z</time>
  <speed>1.960000</speed>
</trkpt>
<trkpt lat="32.746025085" lon="35.024398804">
  <ele>385.416504</ele>
  <time>2011-10-20T08:24:07Z</time>
  <speed>2.160000</speed>
</trkpt>
<trkpt lat="32.746047974" lon="35.024425507">
  <ele>384.955566</ele>
  <time>2011-10-20T08:24:09Z</time>
  <speed>2.050000</speed>
</trkpt>
<trkpt lat="32.746078491" lon="35.024459839">
  <ele>385.877441</ele>
  <time>2011-10-20T08:24:11Z</time>
  <speed>1.900000</speed>
</trkpt>
<trkpt lat="32.746112823" lon="35.024482727">
  <ele>385.658691</ele>
  <time>2011-10-20T08:24:13Z</time>
  <speed>1.820000</speed>
</trkpt>
<trkpt lat="32.746150970" lon="35.024490356">
  <ele>386.072754</ele>
  <time>2011-10-20T08:24:16Z</time>
  <speed>1.640000</speed>
</trkpt>
<trkpt lat="32.746185303" lon="35.024490356">
  <ele>386.189941</ele>
  <time>2011-10-20T08:24:18Z</time>
  <speed>2.160000</speed>
</trkpt>
<trkpt lat="32.746223450" lon="35.024494171">
  <ele>386.549316</ele>
  <time>2011-10-20T08:24:20Z</time>
  <speed>2.100000</speed>
</trkpt>
<trkpt lat="32.746257782" lon="35.024482727">
  <ele>387.080566</ele>
  <time>2011-10-20T08:24:22Z</time>
  <speed>2.040000</speed>
</trkpt>
<trkpt lat="32.746303558" lon="35.024478912">
  <ele>387.791504</ele>
  <time>2011-10-20T08:24:25Z</time>
  <speed>2.260000</speed>
</trkpt>
<trkpt lat="32.746349335" lon="35.024471283">
  <ele>387.689941</ele>
  <time>2011-10-20T08:24:27Z</time>
  <speed>2.460000</speed>
</trkpt>
<trkpt lat="32.746395111" lon="35.024475098">
  <ele>387.994629</ele>
  <time>2011-10-20T08:24:29Z</time>
  <speed>2.030000</speed>
</trkpt>
<trkpt lat="32.746425629" lon="35.024471283">
  <ele>388.854004</ele>
  <time>2011-10-20T08:24:31Z</time>
  <speed>2.490000</speed>
</trkpt>
<trkpt lat="32.746471405" lon="35.024486542">
  <ele>388.557129</ele>
  <time>2011-10-20T08:24:33Z</time>
  <speed>2.580000</speed>
</trkpt>
<trkpt lat="32.746513367" lon="35.024509430">
  <ele>388.643066</ele>
  <time>2011-10-20T08:24:35Z</time>
  <speed>2.300000</speed>
</trkpt>
<trkpt lat="32.746551514" lon="35.024532318">
  <ele>388.580566</ele>
  <time>2011-10-20T08:24:37Z</time>
  <speed>2.130000</speed>
</trkpt>
<trkpt lat="32.746593475" lon="35.024555206">
  <ele>388.799316</ele>
  <time>2011-10-20T08:24:39Z</time>
  <speed>2.390000</speed>
</trkpt>
<trkpt lat="32.746639252" lon="35.024570465">
  <ele>389.143066</ele>
  <time>2011-10-20T08:24:41Z</time>
  <speed>2.310000</speed>
</trkpt>
<trkpt lat="32.746688843" lon="35.024585724">
  <ele>388.283691</ele>
  <time>2011-10-20T08:24:43Z</time>
  <speed>1.740000</speed>
</trkpt>
<trkpt lat="32.746715546" lon="35.024604797">
  <ele>388.502441</ele>
  <time>2011-10-20T08:24:45Z</time>
  <speed>1.360000</speed>
</trkpt>
<trkpt lat="32.746726990" lon="35.024627686">
  <ele>390.205566</ele>
  <time>2011-10-20T08:24:47Z</time>
  <speed>1.260000</speed>
</trkpt>
<trkpt lat="32.746746063" lon="35.024650574">
  <ele>391.533691</ele>
  <time>2011-10-20T08:24:50Z</time>
  <speed>0.270000</speed>
</trkpt>
<trkpt lat="32.746757507" lon="35.024646759">
  <ele>394.463379</ele>
  <time>2011-10-20T08:25:03Z</time>
  <speed>1.770000</speed>
</trkpt>
<trkpt lat="32.746795654" lon="35.024646759">
  <ele>393.549316</ele>
  <time>2011-10-20T08:25:06Z</time>
  <speed>1.910000</speed>
</trkpt>
<trkpt lat="32.746826172" lon="35.024662018">
  <ele>392.549316</ele>
  <time>2011-10-20T08:25:08Z</time>
  <speed>1.770000</speed>
</trkpt>
<trkpt lat="32.746868134" lon="35.024681091">
  <ele>392.182129</ele>
  <time>2011-10-20T08:25:10Z</time>
  <speed>1.430000</speed>
</trkpt>
<trkpt lat="32.746891022" lon="35.024692535">
  <ele>392.018066</ele>
  <time>2011-10-20T08:25:12Z</time>
  <speed>1.730000</speed>
</trkpt>
<trkpt lat="32.746925354" lon="35.024707794">
  <ele>391.174316</ele>
  <time>2011-10-20T08:25:14Z</time>
  <speed>1.880000</speed>
</trkpt>
<trkpt lat="32.746952057" lon="35.024723053">
  <ele>391.002441</ele>
  <time>2011-10-20T08:25:16Z</time>
  <speed>1.220000</speed>
</trkpt>
<trkpt lat="32.746978760" lon="35.024734497">
  <ele>391.025879</ele>
  <time>2011-10-20T08:25:18Z</time>
  <speed>1.140000</speed>
</trkpt>
<trkpt lat="32.747005463" lon="35.024753571">
  <ele>391.041504</ele>
  <time>2011-10-20T08:25:20Z</time>
  <speed>1.440000</speed>
</trkpt>
<trkpt lat="32.747016907" lon="35.024799347">
  <ele>390.963379</ele>
  <time>2011-10-20T08:25:22Z</time>
  <speed>1.510000</speed>
</trkpt>
<trkpt lat="32.747024536" lon="35.024837494">
  <ele>391.580566</ele>
  <time>2011-10-20T08:25:24Z</time>
  <speed>1.020000</speed>
</trkpt>
<trkpt lat="32.747058868" lon="35.024864197">
  <ele>391.900879</ele>
  <time>2011-10-20T08:25:27Z</time>
  <speed>0.930000</speed>
</trkpt>
<trkpt lat="32.747081757" lon="35.024887085">
  <ele>391.932129</ele>
  <time>2011-10-20T08:25:29Z</time>
  <speed>0.790000</speed>
</trkpt>
<trkpt lat="32.747112274" lon="35.024883270">
  <ele>392.682129</ele>
  <time>2011-10-20T08:25:33Z</time>
  <speed>0.930000</speed>
</trkpt>
<trkpt lat="32.747154236" lon="35.024879456">
  <ele>393.057129</ele>
  <time>2011-10-20T08:25:36Z</time>
  <speed>1.120000</speed>
</trkpt>
<trkpt lat="32.747184753" lon="35.024894714">
  <ele>394.143066</ele>
  <time>2011-10-20T08:25:38Z</time>
  <speed>1.300000</speed>
</trkpt>
<trkpt lat="32.747230530" lon="35.024887085">
  <ele>395.268066</ele>
  <time>2011-10-20T08:25:40Z</time>
  <speed>2.010000</speed>
</trkpt>
<trkpt lat="32.747257233" lon="35.024883270">
  <ele>396.096191</ele>
  <time>2011-10-20T08:25:41Z</time>
  <speed>2.610000</speed>
</trkpt>
<trkpt lat="32.747310638" lon="35.024860382">
  <ele>395.916504</ele>
  <time>2011-10-20T08:25:43Z</time>
  <speed>2.960000</speed>
</trkpt>
<trkpt lat="32.747352600" lon="35.024856567">
  <ele>395.314941</ele>
  <time>2011-10-20T08:25:44Z</time>
  <speed>3.040000</speed>
</trkpt>
<trkpt lat="32.747386932" lon="35.024852753">
  <ele>394.775879</ele>
  <time>2011-10-20T08:25:45Z</time>
  <speed>3.040000</speed>
</trkpt>
<trkpt lat="32.747425079" lon="35.024852753">
  <ele>394.424316</ele>
  <time>2011-10-20T08:25:46Z</time>
  <speed>3.190000</speed>
</trkpt>
<trkpt lat="32.747455597" lon="35.024848938">
  <ele>394.299316</ele>
  <time>2011-10-20T08:25:47Z</time>
  <speed>3.230000</speed>
</trkpt>
<trkpt lat="32.747493744" lon="35.024856567">
  <ele>393.682129</ele>
  <time>2011-10-20T08:25:48Z</time>
  <speed>2.530000</speed>
</trkpt>
<trkpt lat="32.747535706" lon="35.024852753">
  <ele>393.408691</ele>
  <time>2011-10-20T08:25:50Z</time>
  <speed>2.840000</speed>
</trkpt>
<trkpt lat="32.747600555" lon="35.024837494">
  <ele>393.400879</ele>
  <time>2011-10-20T08:25:52Z</time>
  <speed>2.250000</speed>
</trkpt>
<trkpt lat="32.747627258" lon="35.024833679">
  <ele>393.174316</ele>
  <time>2011-10-20T08:25:53Z</time>
  <speed>2.380000</speed>
</trkpt>
<trkpt lat="32.747676849" lon="35.024818420">
  <ele>393.619629</ele>
  <time>2011-10-20T08:25:55Z</time>
  <speed>2.890000</speed>
</trkpt>
<trkpt lat="32.747707367" lon="35.024799347">
  <ele>393.924316</ele>
  <time>2011-10-20T08:25:56Z</time>
  <speed>3.250000</speed>
</trkpt>
<trkpt lat="32.747756958" lon="35.024776459">
  <ele>394.924316</ele>
  <time>2011-10-20T08:25:57Z</time>
  <speed>3.500000</speed>
</trkpt>
<trkpt lat="32.747795105" lon="35.024749756">
  <ele>395.330566</ele>
  <time>2011-10-20T08:25:58Z</time>
  <speed>3.770000</speed>
</trkpt>
<trkpt lat="32.747825623" lon="35.024738312">
  <ele>395.252441</ele>
  <time>2011-10-20T08:25:59Z</time>
  <speed>3.150000</speed>
</trkpt>
<trkpt lat="32.747856140" lon="35.024734497">
  <ele>395.447754</ele>
  <time>2011-10-20T08:26:00Z</time>
  <speed>2.440000</speed>
</trkpt>
<trkpt lat="32.747898102" lon="35.024734497">
  <ele>396.541504</ele>
  <time>2011-10-20T08:26:02Z</time>
  <speed>2.190000</speed>
</trkpt>
<trkpt lat="32.747928619" lon="35.024738312">
  <ele>397.018066</ele>
  <time>2011-10-20T08:26:04Z</time>
  <speed>2.110000</speed>
</trkpt>
<trkpt lat="32.747959137" lon="35.024738312">
  <ele>397.744629</ele>
  <time>2011-10-20T08:26:06Z</time>
  <speed>2.070000</speed>
</trkpt>
<trkpt lat="32.747993469" lon="35.024745941">
  <ele>398.229004</ele>
  <time>2011-10-20T08:26:08Z</time>
  <speed>2.000000</speed>
</trkpt>
<trkpt lat="32.748031616" lon="35.024753571">
  <ele>398.221191</ele>
  <time>2011-10-20T08:26:10Z</time>
  <speed>2.220000</speed>
</trkpt>
<trkpt lat="32.748081207" lon="35.024753571">
  <ele>397.627441</ele>
  <time>2011-10-20T08:26:12Z</time>
  <speed>2.400000</speed>
</trkpt>
<trkpt lat="32.748126984" lon="35.024765015">
  <ele>397.549316</ele>
  <time>2011-10-20T08:26:14Z</time>
  <speed>2.540000</speed>
</trkpt>
<trkpt lat="32.748157501" lon="35.024772644">
  <ele>397.893066</ele>
  <time>2011-10-20T08:26:15Z</time>
  <speed>2.840000</speed>
</trkpt>
<trkpt lat="32.748210907" lon="35.024776459">
  <ele>399.018066</ele>
  <time>2011-10-20T08:26:17Z</time>
  <speed>2.480000</speed>
</trkpt>
<trkpt lat="32.748252869" lon="35.024780273">
  <ele>397.924316</ele>
  <time>2011-10-20T08:26:19Z</time>
  <speed>2.630000</speed>
</trkpt>
<trkpt lat="32.748291016" lon="35.024795532">
  <ele>398.330566</ele>
  <time>2011-10-20T08:26:21Z</time>
  <speed>1.910000</speed>
</trkpt>
<trkpt lat="32.748332977" lon="35.024814606">
  <ele>399.346191</ele>
  <time>2011-10-20T08:26:23Z</time>
  <speed>1.530000</speed>
</trkpt>
<trkpt lat="32.748363495" lon="35.024826050">
  <ele>399.963379</ele>
  <time>2011-10-20T08:26:25Z</time>
  <speed>1.490000</speed>
</trkpt>
<trkpt lat="32.748394012" lon="35.024841309">
  <ele>400.986816</ele>
  <time>2011-10-20T08:26:27Z</time>
  <speed>1.350000</speed>
</trkpt>
<trkpt lat="32.748424530" lon="35.024868011">
  <ele>402.229004</ele>
  <time>2011-10-20T08:26:29Z</time>
  <speed>1.600000</speed>
</trkpt>
<trkpt lat="32.748458862" lon="35.024898529">
  <ele>402.049316</ele>
  <time>2011-10-20T08:26:32Z</time>
  <speed>1.860000</speed>
</trkpt>
<trkpt lat="32.748485565" lon="35.024932861">
  <ele>402.346191</ele>
  <time>2011-10-20T08:26:35Z</time>
  <speed>1.450000</speed>
</trkpt>
<trkpt lat="32.748485565" lon="35.024971008">
  <ele>402.486816</ele>
  <time>2011-10-20T08:26:38Z</time>
  <speed>1.230000</speed>
</trkpt>
<trkpt lat="32.748481750" lon="35.025005341">
  <ele>401.971191</ele>
  <time>2011-10-20T08:26:40Z</time>
  <speed>2.010000</speed>
</trkpt>
<trkpt lat="32.748458862" lon="35.025062561">
  <ele>400.611816</ele>
  <time>2011-10-20T08:26:42Z</time>
  <speed>3.540000</speed>
</trkpt>
<trkpt lat="32.748443604" lon="35.025093079">
  <ele>400.150879</ele>
  <time>2011-10-20T08:26:43Z</time>
  <speed>3.190000</speed>
</trkpt>
<trkpt lat="32.748401642" lon="35.025115967">
  <ele>398.979004</ele>
  <time>2011-10-20T08:26:45Z</time>
  <speed>2.490000</speed>
</trkpt>
<trkpt lat="32.748359680" lon="35.025123596">
  <ele>397.807129</ele>
  <time>2011-10-20T08:26:47Z</time>
  <speed>2.620000</speed>
</trkpt>
<trkpt lat="32.748332977" lon="35.025131226">
  <ele>397.268066</ele>
  <time>2011-10-20T08:26:48Z</time>
  <speed>2.880000</speed>
</trkpt>
<trkpt lat="32.748279572" lon="35.025142670">
  <ele>396.111816</ele>
  <time>2011-10-20T08:26:50Z</time>
  <speed>2.940000</speed>
</trkpt>
<trkpt lat="32.748256683" lon="35.025150299">
  <ele>395.197754</ele>
  <time>2011-10-20T08:26:51Z</time>
  <speed>2.950000</speed>
</trkpt>
<trkpt lat="32.748226166" lon="35.025157928">
  <ele>394.049316</ele>
  <time>2011-10-20T08:26:52Z</time>
  <speed>2.970000</speed>
</trkpt>
<trkpt lat="32.748168945" lon="35.025161743">
  <ele>393.799316</ele>
  <time>2011-10-20T08:26:54Z</time>
  <speed>3.060000</speed>
</trkpt>
<trkpt lat="32.748134613" lon="35.025154114">
  <ele>394.221191</ele>
  <time>2011-10-20T08:26:55Z</time>
  <speed>2.830000</speed>
</trkpt>
<trkpt lat="32.748104095" lon="35.025154114">
  <ele>394.830566</ele>
  <time>2011-10-20T08:26:56Z</time>
  <speed>2.500000</speed>
</trkpt>
<trkpt lat="32.748062134" lon="35.025173187">
  <ele>394.721191</ele>
  <time>2011-10-20T08:26:58Z</time>
  <speed>2.760000</speed>
</trkpt>
<trkpt lat="32.748035431" lon="35.025192261">
  <ele>394.588379</ele>
  <time>2011-10-20T08:26:59Z</time>
  <speed>3.240000</speed>
</trkpt>
<trkpt lat="32.748012543" lon="35.025215149">
  <ele>393.611816</ele>
  <time>2011-10-20T08:27:00Z</time>
  <speed>3.530000</speed>
</trkpt>
<trkpt lat="32.747982025" lon="35.025234222">
  <ele>393.447754</ele>
  <time>2011-10-20T08:27:01Z</time>
  <speed>3.770000</speed>
</trkpt>
<trkpt lat="32.747947693" lon="35.025249481">
  <ele>393.760254</ele>
  <time>2011-10-20T08:27:02Z</time>
  <speed>3.370000</speed>
</trkpt>
<trkpt lat="32.747920990" lon="35.025260925">
  <ele>394.096191</ele>
  <time>2011-10-20T08:27:03Z</time>
  <speed>2.840000</speed>
</trkpt>
<trkpt lat="32.747890472" lon="35.025268555">
  <ele>394.518066</ele>
  <time>2011-10-20T08:27:04Z</time>
  <speed>3.250000</speed>
</trkpt>
<trkpt lat="32.747863770" lon="35.025276184">
  <ele>394.760254</ele>
  <time>2011-10-20T08:27:05Z</time>
  <speed>3.000000</speed>
</trkpt>
<trkpt lat="32.747833252" lon="35.025299072">
  <ele>395.236816</ele>
  <time>2011-10-20T08:27:06Z</time>
  <speed>2.840000</speed>
</trkpt>
<trkpt lat="32.747802734" lon="35.025337219">
  <ele>397.877441</ele>
  <time>2011-10-20T08:27:07Z</time>
  <speed>2.970000</speed>
</trkpt>
<trkpt lat="32.747764587" lon="35.025386810">
  <ele>398.479004</ele>
  <time>2011-10-20T08:27:09Z</time>
  <speed>3.440000</speed>
</trkpt>
<trkpt lat="32.747745514" lon="35.025424957">
  <ele>399.033691</ele>
  <time>2011-10-20T08:27:10Z</time>
  <speed>3.250000</speed>
</trkpt>
<trkpt lat="32.747726440" lon="35.025451660">
  <ele>399.346191</ele>
  <time>2011-10-20T08:27:11Z</time>
  <speed>3.320000</speed>
</trkpt>
<trkpt lat="32.747699738" lon="35.025474548">
  <ele>399.729004</ele>
  <time>2011-10-20T08:27:12Z</time>
  <speed>3.300000</speed>
</trkpt>
<trkpt lat="32.747676849" lon="35.025497437">
  <ele>399.791504</ele>
  <time>2011-10-20T08:27:13Z</time>
  <speed>3.430000</speed>
</trkpt>
<trkpt lat="32.747657776" lon="35.025520325">
  <ele>399.705566</ele>
  <time>2011-10-20T08:27:14Z</time>
  <speed>3.290000</speed>
</trkpt>
<trkpt lat="32.747638702" lon="35.025547028">
  <ele>400.205566</ele>
  <time>2011-10-20T08:27:15Z</time>
  <speed>2.830000</speed>
</trkpt>
<trkpt lat="32.747596741" lon="35.025588989">
  <ele>400.752441</ele>
  <time>2011-10-20T08:27:17Z</time>
  <speed>2.800000</speed>
</trkpt>
<trkpt lat="32.747577667" lon="35.025611877">
  <ele>401.002441</ele>
  <time>2011-10-20T08:27:18Z</time>
  <speed>2.930000</speed>
</trkpt>
<trkpt lat="32.747554779" lon="35.025634766">
  <ele>400.947754</ele>
  <time>2011-10-20T08:27:19Z</time>
  <speed>3.330000</speed>
</trkpt>
<trkpt lat="32.747531891" lon="35.025653839">
  <ele>400.385254</ele>
  <time>2011-10-20T08:27:20Z</time>
  <speed>3.130000</speed>
</trkpt>
<trkpt lat="32.747509003" lon="35.025680542">
  <ele>400.807129</ele>
  <time>2011-10-20T08:27:21Z</time>
  <speed>3.010000</speed>
</trkpt>
<trkpt lat="32.747486115" lon="35.025699615">
  <ele>400.939941</ele>
  <time>2011-10-20T08:27:22Z</time>
  <speed>3.140000</speed>
</trkpt>
<trkpt lat="32.747467041" lon="35.025722504">
  <ele>401.549316</ele>
  <time>2011-10-20T08:27:23Z</time>
  <speed>2.420000</speed>
</trkpt>
<trkpt lat="32.747436523" lon="35.025756836">
  <ele>401.588379</ele>
  <time>2011-10-20T08:27:25Z</time>
  <speed>2.400000</speed>
</trkpt>
<trkpt lat="32.747409821" lon="35.025787354">
  <ele>400.908691</ele>
  <time>2011-10-20T08:27:27Z</time>
  <speed>2.370000</speed>
</trkpt>
<trkpt lat="32.747379303" lon="35.025833130">
  <ele>401.494629</ele>
  <time>2011-10-20T08:27:29Z</time>
  <speed>2.450000</speed>
</trkpt>
<trkpt lat="32.747348785" lon="35.025875092">
  <ele>401.721191</ele>
  <time>2011-10-20T08:27:31Z</time>
  <speed>2.480000</speed>
</trkpt>
<trkpt lat="32.747322083" lon="35.025909424">
  <ele>402.643066</ele>
  <time>2011-10-20T08:27:33Z</time>
  <speed>1.930000</speed>
</trkpt>
<trkpt lat="32.747299194" lon="35.025951385">
  <ele>403.158691</ele>
  <time>2011-10-20T08:27:35Z</time>
  <speed>2.410000</speed>
</trkpt>
<trkpt lat="32.747272491" lon="35.025989532">
  <ele>403.768066</ele>
  <time>2011-10-20T08:27:37Z</time>
  <speed>2.430000</speed>
</trkpt>
<trkpt lat="32.747245789" lon="35.026027679">
  <ele>403.791504</ele>
  <time>2011-10-20T08:27:39Z</time>
  <speed>2.140000</speed>
</trkpt>
<trkpt lat="32.747222900" lon="35.026069641">
  <ele>404.736816</ele>
  <time>2011-10-20T08:27:41Z</time>
  <speed>2.150000</speed>
</trkpt>
<trkpt lat="32.747200012" lon="35.026115417">
  <ele>405.354004</ele>
  <time>2011-10-20T08:27:43Z</time>
  <speed>1.900000</speed>
</trkpt>
<trkpt lat="32.747180939" lon="35.026142120">
  <ele>405.244629</ele>
  <time>2011-10-20T08:27:46Z</time>
  <speed>0.270000</speed>
</trkpt>
<trkpt lat="32.747158051" lon="35.026172638">
  <ele>405.432129</ele>
  <time>2011-10-20T08:28:08Z</time>
  <speed>0.580000</speed>
</trkpt>
<trkpt lat="32.747138977" lon="35.026195526">
  <ele>406.135254</ele>
  <time>2011-10-20T08:28:31Z</time>
  <speed>0.250000</speed>
</trkpt>
<trkpt lat="32.747123718" lon="35.026226044">
  <ele>406.283691</ele>
  <time>2011-10-20T08:28:39Z</time>
  <speed>1.140000</speed>
</trkpt>
<trkpt lat="32.747112274" lon="35.026252747">
  <ele>406.768066</ele>
  <time>2011-10-20T08:28:42Z</time>
  <speed>0.970000</speed>
</trkpt>
<trkpt lat="32.747089386" lon="35.026283264">
  <ele>408.166504</ele>
  <time>2011-10-20T08:28:45Z</time>
  <speed>1.130000</speed>
</trkpt>
<trkpt lat="32.747066498" lon="35.026309967">
  <ele>408.979004</ele>
  <time>2011-10-20T08:28:47Z</time>
  <speed>1.030000</speed>
</trkpt>
<trkpt lat="32.747055054" lon="35.026344299">
  <ele>409.502441</ele>
  <time>2011-10-20T08:28:51Z</time>
  <speed>1.180000</speed>
</trkpt>
<trkpt lat="32.747051239" lon="35.026382446">
  <ele>409.869629</ele>
  <time>2011-10-20T08:28:55Z</time>
  <speed>0.930000</speed>
</trkpt>
<trkpt lat="32.747043610" lon="35.026416779">
  <ele>411.283691</ele>
  <time>2011-10-20T08:28:58Z</time>
  <speed>1.030000</speed>
</trkpt>
<trkpt lat="32.747051239" lon="35.026451111">
  <ele>411.838379</ele>
  <time>2011-10-20T08:29:03Z</time>
  <speed>0.470000</speed>
</trkpt>
<trkpt lat="32.747055054" lon="35.026496887">
  <ele>412.205566</ele>
  <time>2011-10-20T08:29:06Z</time>
  <speed>1.120000</speed>
</trkpt>
<trkpt lat="32.747085571" lon="35.026531219">
  <ele>412.479004</ele>
  <time>2011-10-20T08:29:09Z</time>
  <speed>2.180000</speed>
</trkpt>
<trkpt lat="32.747112274" lon="35.026565552">
  <ele>412.518066</ele>
  <time>2011-10-20T08:29:11Z</time>
  <speed>2.710000</speed>
</trkpt>
<trkpt lat="32.747146606" lon="35.026622772">
  <ele>412.830566</ele>
  <time>2011-10-20T08:29:13Z</time>
  <speed>2.940000</speed>
</trkpt>
<trkpt lat="32.747173309" lon="35.026672363">
  <ele>413.229004</ele>
  <time>2011-10-20T08:29:15Z</time>
  <speed>2.820000</speed>
</trkpt>
<trkpt lat="32.747203827" lon="35.026721954">
  <ele>413.650879</ele>
  <time>2011-10-20T08:29:17Z</time>
  <speed>2.660000</speed>
</trkpt>
<trkpt lat="32.747211456" lon="35.026756287">
  <ele>413.400879</ele>
  <time>2011-10-20T08:29:18Z</time>
  <speed>2.900000</speed>
</trkpt>
<trkpt lat="32.747222900" lon="35.026809692">
  <ele>413.994629</ele>
  <time>2011-10-20T08:29:20Z</time>
  <speed>2.410000</speed>
</trkpt>
<trkpt lat="32.747241974" lon="35.026863098">
  <ele>414.752441</ele>
  <time>2011-10-20T08:29:22Z</time>
  <speed>2.580000</speed>
</trkpt>
<trkpt lat="32.747264862" lon="35.026908875">
  <ele>415.408691</ele>
  <time>2011-10-20T08:29:24Z</time>
  <speed>2.660000</speed>
</trkpt>
<trkpt lat="32.747276306" lon="35.026954651">
  <ele>415.111816</ele>
  <time>2011-10-20T08:29:26Z</time>
  <speed>2.220000</speed>
</trkpt>
<trkpt lat="32.747295380" lon="35.026996613">
  <ele>415.025879</ele>
  <time>2011-10-20T08:29:28Z</time>
  <speed>2.230000</speed>
</trkpt>
<trkpt lat="32.747329712" lon="35.027034760">
  <ele>414.049316</ele>
  <time>2011-10-20T08:29:30Z</time>
  <speed>2.890000</speed>
</trkpt>
<trkpt lat="32.747352600" lon="35.027061462">
  <ele>414.104004</ele>
  <time>2011-10-20T08:29:31Z</time>
  <speed>2.720000</speed>
</trkpt>
<trkpt lat="32.747375488" lon="35.027103424">
  <ele>414.033691</ele>
  <time>2011-10-20T08:29:33Z</time>
  <speed>2.550000</speed>
</trkpt>
<trkpt lat="32.747390747" lon="35.027156830">
  <ele>414.221191</ele>
  <time>2011-10-20T08:29:35Z</time>
  <speed>2.380000</speed>
</trkpt>
<trkpt lat="32.747421265" lon="35.027202606">
  <ele>413.955566</ele>
  <time>2011-10-20T08:29:37Z</time>
  <speed>2.550000</speed>
</trkpt>
<trkpt lat="32.747467041" lon="35.027259827">
  <ele>414.416504</ele>
  <time>2011-10-20T08:29:39Z</time>
  <speed>3.110000</speed>
</trkpt>
<trkpt lat="32.747486115" lon="35.027286530">
  <ele>414.018066</ele>
  <time>2011-10-20T08:29:40Z</time>
  <speed>3.090000</speed>
</trkpt>
<trkpt lat="32.747509003" lon="35.027305603">
  <ele>413.635254</ele>
  <time>2011-10-20T08:29:41Z</time>
  <speed>3.690000</speed>
</trkpt>
<trkpt lat="32.747535706" lon="35.027328491">
  <ele>412.971191</ele>
  <time>2011-10-20T08:29:42Z</time>
  <speed>3.740000</speed>
</trkpt>
<trkpt lat="32.747554779" lon="35.027362823">
  <ele>412.408691</ele>
  <time>2011-10-20T08:29:43Z</time>
  <speed>4.220000</speed>
</trkpt>
<trkpt lat="32.747581482" lon="35.027404785">
  <ele>412.682129</ele>
  <time>2011-10-20T08:29:44Z</time>
  <speed>3.960000</speed>
</trkpt>
<trkpt lat="32.747600555" lon="35.027442932">
  <ele>412.486816</ele>
  <time>2011-10-20T08:29:45Z</time>
  <speed>4.070000</speed>
</trkpt>
<trkpt lat="32.747612000" lon="35.027477264">
  <ele>412.104004</ele>
  <time>2011-10-20T08:29:46Z</time>
  <speed>3.270000</speed>
</trkpt>
<trkpt lat="32.747619629" lon="35.027538300">
  <ele>411.783691</ele>
  <time>2011-10-20T08:29:48Z</time>
  <speed>2.520000</speed>
</trkpt>
<trkpt lat="32.747642517" lon="35.027587891">
  <ele>412.080566</ele>
  <time>2011-10-20T08:29:50Z</time>
  <speed>2.260000</speed>
</trkpt>
<trkpt lat="32.747642517" lon="35.027626038">
  <ele>413.330566</ele>
  <time>2011-10-20T08:29:52Z</time>
  <speed>1.440000</speed>
</trkpt>
<trkpt lat="32.747665405" lon="35.027652740">
  <ele>413.783691</ele>
  <time>2011-10-20T08:29:54Z</time>
  <speed>1.610000</speed>
</trkpt>
<trkpt lat="32.747669220" lon="35.027698517">
  <ele>414.213379</ele>
  <time>2011-10-20T08:29:56Z</time>
  <speed>1.770000</speed>
</trkpt>
<trkpt lat="32.747665405" lon="35.027736664">
  <ele>414.182129</ele>
  <time>2011-10-20T08:29:58Z</time>
  <speed>1.850000</speed>
</trkpt>
<trkpt lat="32.747653961" lon="35.027774811">
  <ele>414.580566</ele>
  <time>2011-10-20T08:30:00Z</time>
  <speed>1.600000</speed>
</trkpt>
<trkpt lat="32.747653961" lon="35.027812958">
  <ele>415.033691</ele>
  <time>2011-10-20T08:30:02Z</time>
  <speed>1.440000</speed>
</trkpt>
<trkpt lat="32.747661591" lon="35.027847290">
  <ele>416.236816</ele>
  <time>2011-10-20T08:30:04Z</time>
  <speed>1.310000</speed>
</trkpt>
<trkpt lat="32.747657776" lon="35.027896881">
  <ele>417.494629</ele>
  <time>2011-10-20T08:30:08Z</time>
  <speed>1.260000</speed>
</trkpt>
<trkpt lat="32.747673035" lon="35.027938843">
  <ele>417.697754</ele>
  <time>2011-10-20T08:30:10Z</time>
  <speed>0.980000</speed>
</trkpt>
<trkpt lat="32.747699738" lon="35.027961731">
  <ele>417.744629</ele>
  <time>2011-10-20T08:30:13Z</time>
  <speed>1.400000</speed>
</trkpt>
<trkpt lat="32.747734070" lon="35.027980804">
  <ele>417.924316</ele>
  <time>2011-10-20T08:30:15Z</time>
  <speed>1.900000</speed>
</trkpt>
<trkpt lat="32.747768402" lon="35.028015137">
  <ele>416.947754</ele>
  <time>2011-10-20T08:30:17Z</time>
  <speed>2.240000</speed>
</trkpt>
<trkpt lat="32.747787476" lon="35.028053284">
  <ele>417.088379</ele>
  <time>2011-10-20T08:30:19Z</time>
  <speed>2.170000</speed>
</trkpt>
<trkpt lat="32.747814178" lon="35.028083801">
  <ele>417.197754</ele>
  <time>2011-10-20T08:30:21Z</time>
  <speed>1.670000</speed>
</trkpt>
<trkpt lat="32.747844696" lon="35.028106689">
  <ele>417.666504</ele>
  <time>2011-10-20T08:30:23Z</time>
  <speed>1.690000</speed>
</trkpt>
<trkpt lat="32.747871399" lon="35.028133392">
  <ele>417.096191</ele>
  <time>2011-10-20T08:30:25Z</time>
  <speed>1.830000</speed>
</trkpt>
<trkpt lat="32.747901917" lon="35.028160095">
  <ele>416.893066</ele>
  <time>2011-10-20T08:30:28Z</time>
  <speed>1.500000</speed>
</trkpt>
<trkpt lat="32.747928619" lon="35.028190613">
  <ele>417.447754</ele>
  <time>2011-10-20T08:30:30Z</time>
  <speed>1.830000</speed>
</trkpt>
<trkpt lat="32.747940063" lon="35.028228760">
  <ele>417.604004</ele>
  <time>2011-10-20T08:30:32Z</time>
  <speed>1.830000</speed>
</trkpt>
<trkpt lat="32.747951508" lon="35.028274536">
  <ele>417.564941</ele>
  <time>2011-10-20T08:30:34Z</time>
  <speed>2.360000</speed>
</trkpt>
<trkpt lat="32.747985840" lon="35.028308868">
  <ele>417.291504</ele>
  <time>2011-10-20T08:30:36Z</time>
  <speed>2.350000</speed>
</trkpt>
<trkpt lat="32.748004913" lon="35.028350830">
  <ele>416.619629</ele>
  <time>2011-10-20T08:30:38Z</time>
  <speed>2.160000</speed>
</trkpt>
<trkpt lat="32.748020172" lon="35.028396606">
  <ele>416.963379</ele>
  <time>2011-10-20T08:30:40Z</time>
  <speed>1.990000</speed>
</trkpt>
<trkpt lat="32.748035431" lon="35.028423309">
  <ele>417.252441</ele>
  <time>2011-10-20T08:30:42Z</time>
  <speed>2.220000</speed>
</trkpt>
<trkpt lat="32.748069763" lon="35.028476715">
  <ele>417.057129</ele>
  <time>2011-10-20T08:30:44Z</time>
  <speed>1.960000</speed>
</trkpt>
<trkpt lat="32.748096466" lon="35.028514862">
  <ele>417.338379</ele>
  <time>2011-10-20T08:30:46Z</time>
  <speed>2.350000</speed>
</trkpt>
<trkpt lat="32.748130798" lon="35.028545380">
  <ele>417.893066</ele>
  <time>2011-10-20T08:30:48Z</time>
  <speed>2.240000</speed>
</trkpt>
<trkpt lat="32.748165131" lon="35.028575897">
  <ele>418.854004</ele>
  <time>2011-10-20T08:30:50Z</time>
  <speed>1.820000</speed>
</trkpt>
<trkpt lat="32.748195648" lon="35.028587341">
  <ele>419.705566</ele>
  <time>2011-10-20T08:30:52Z</time>
  <speed>1.920000</speed>
</trkpt>
<trkpt lat="32.748233795" lon="35.028594971">
  <ele>420.182129</ele>
  <time>2011-10-20T08:30:54Z</time>
  <speed>2.180000</speed>
</trkpt>
<trkpt lat="32.748271942" lon="35.028640747">
  <ele>418.416504</ele>
  <time>2011-10-20T08:30:56Z</time>
  <speed>2.520000</speed>
</trkpt>
<trkpt lat="32.748306274" lon="35.028663635">
  <ele>418.354004</ele>
  <time>2011-10-20T08:30:58Z</time>
  <speed>2.660000</speed>
</trkpt>
<trkpt lat="32.748355865" lon="35.028686523">
  <ele>419.986816</ele>
  <time>2011-10-20T08:31:00Z</time>
  <speed>2.180000</speed>
</trkpt>
<trkpt lat="32.748378754" lon="35.028713226">
  <ele>420.674316</ele>
  <time>2011-10-20T08:31:02Z</time>
  <speed>1.620000</speed>
</trkpt>
<trkpt lat="32.748413086" lon="35.028743744">
  <ele>421.486816</ele>
  <time>2011-10-20T08:31:05Z</time>
  <speed>1.860000</speed>
</trkpt>
<trkpt lat="32.748451233" lon="35.028778076">
  <ele>421.932129</ele>
  <time>2011-10-20T08:31:07Z</time>
  <speed>2.490000</speed>
</trkpt>
<trkpt lat="32.748493195" lon="35.028785706">
  <ele>422.682129</ele>
  <time>2011-10-20T08:31:09Z</time>
  <speed>1.780000</speed>
</trkpt>
<trkpt lat="32.748542786" lon="35.028789520">
  <ele>423.127441</ele>
  <time>2011-10-20T08:31:11Z</time>
  <speed>1.640000</speed>
</trkpt>
<trkpt lat="32.748588562" lon="35.028770447">
  <ele>423.588379</ele>
  <time>2011-10-20T08:31:12Z</time>
  <speed>1.800000</speed>
</trkpt>
<trkpt lat="32.748615265" lon="35.028739929">
  <ele>424.057129</ele>
  <time>2011-10-20T08:31:14Z</time>
  <speed>2.010000</speed>
</trkpt>
<trkpt lat="32.748630524" lon="35.028701782">
  <ele>424.494629</ele>
  <time>2011-10-20T08:31:16Z</time>
  <speed>1.110000</speed>
</trkpt>
<trkpt lat="32.748645782" lon="35.028675079">
  <ele>424.705566</ele>
  <time>2011-10-20T08:31:17Z</time>
  <speed>1.700000</speed>
</trkpt>
<trkpt lat="32.748641968" lon="35.028621674">
  <ele>425.033691</ele>
  <time>2011-10-20T08:31:19Z</time>
  <speed>1.470000</speed>
</trkpt>
<trkpt lat="32.748641968" lon="35.028560638">
  <ele>424.963379</ele>
  <time>2011-10-20T08:31:21Z</time>
  <speed>2.120000</speed>
</trkpt>
<trkpt lat="32.748638153" lon="35.028507233">
  <ele>423.979004</ele>
  <time>2011-10-20T08:31:23Z</time>
  <speed>2.970000</speed>
</trkpt>
<trkpt lat="32.748638153" lon="35.028469086">
  <ele>423.119629</ele>
  <time>2011-10-20T08:31:24Z</time>
  <speed>3.080000</speed>
</trkpt>
<trkpt lat="32.748634338" lon="35.028430939">
  <ele>422.721191</ele>
  <time>2011-10-20T08:31:25Z</time>
  <speed>3.130000</speed>
</trkpt>
<trkpt lat="32.748622894" lon="35.028385162">
  <ele>423.213379</ele>
  <time>2011-10-20T08:31:26Z</time>
  <speed>3.700000</speed>
</trkpt>
<trkpt lat="32.748619080" lon="35.028335571">
  <ele>424.010254</ele>
  <time>2011-10-20T08:31:27Z</time>
  <speed>3.680000</speed>
</trkpt>
<trkpt lat="32.748619080" lon="35.028289795">
  <ele>423.432129</ele>
  <time>2011-10-20T08:31:28Z</time>
  <speed>3.300000</speed>
</trkpt>
<trkpt lat="32.748619080" lon="35.028244019">
  <ele>423.674316</ele>
  <time>2011-10-20T08:31:29Z</time>
  <speed>3.440000</speed>
</trkpt>
<trkpt lat="32.748611450" lon="35.028213501">
  <ele>423.307129</ele>
  <time>2011-10-20T08:31:30Z</time>
  <speed>3.040000</speed>
</trkpt>
<trkpt lat="32.748603821" lon="35.028182983">
  <ele>423.643066</ele>
  <time>2011-10-20T08:31:31Z</time>
  <speed>2.450000</speed>
</trkpt>
<trkpt lat="32.748600006" lon="35.028144836">
  <ele>425.252441</ele>
  <time>2011-10-20T08:31:33Z</time>
  <speed>1.190000</speed>
</trkpt>
<trkpt lat="32.748615265" lon="35.028110504">
  <ele>426.104004</ele>
  <time>2011-10-20T08:31:36Z</time>
  <speed>0.220000</speed>
</trkpt>
<trkpt lat="32.748626709" lon="35.028068542">
  <ele>424.729004</ele>
  <time>2011-10-20T08:31:42Z</time>
  <speed>1.630000</speed>
</trkpt>
<trkpt lat="32.748630524" lon="35.028038025">
  <ele>425.729004</ele>
  <time>2011-10-20T08:31:44Z</time>
  <speed>1.730000</speed>
</trkpt>
<trkpt lat="32.748649597" lon="35.027992249">
  <ele>426.955566</ele>
  <time>2011-10-20T08:31:46Z</time>
  <speed>1.860000</speed>
</trkpt>
<trkpt lat="32.748676300" lon="35.027954102">
  <ele>427.072754</ele>
  <time>2011-10-20T08:31:48Z</time>
  <speed>2.510000</speed>
</trkpt>
<trkpt lat="32.748714447" lon="35.027915955">
  <ele>426.986816</ele>
  <time>2011-10-20T08:31:50Z</time>
  <speed>2.000000</speed>
</trkpt>
<trkpt lat="32.748741150" lon="35.027885437">
  <ele>426.275879</ele>
  <time>2011-10-20T08:31:52Z</time>
  <speed>1.870000</speed>
</trkpt>
<trkpt lat="32.748764038" lon="35.027847290">
  <ele>425.533691</ele>
  <time>2011-10-20T08:31:54Z</time>
  <speed>1.670000</speed>
</trkpt>
<trkpt lat="32.748771667" lon="35.027809143">
  <ele>425.893066</ele>
  <time>2011-10-20T08:31:56Z</time>
  <speed>1.540000</speed>
</trkpt>
<trkpt lat="32.748802185" lon="35.027786255">
  <ele>425.627441</ele>
  <time>2011-10-20T08:31:58Z</time>
  <speed>1.550000</speed>
</trkpt>
<trkpt lat="32.748825073" lon="35.027767181">
  <ele>425.385254</ele>
  <time>2011-10-20T08:32:07Z</time>
  <speed>0.020000</speed>
</trkpt>
<trkpt lat="32.748844147" lon="35.027736664">
  <ele>425.158691</ele>
  <time>2011-10-20T08:34:18Z</time>
  <speed>2.260000</speed>
</trkpt>
<trkpt lat="32.748870850" lon="35.027683258">
  <ele>424.799316</ele>
  <time>2011-10-20T08:34:20Z</time>
  <speed>2.850000</speed>
</trkpt>
<trkpt lat="32.748889923" lon="35.027656555">
  <ele>424.744629</ele>
  <time>2011-10-20T08:34:21Z</time>
  <speed>2.790000</speed>
</trkpt>
<trkpt lat="32.748931885" lon="35.027622223">
  <ele>424.479004</ele>
  <time>2011-10-20T08:34:23Z</time>
  <speed>2.650000</speed>
</trkpt>
<trkpt lat="32.748954773" lon="35.027606964">
  <ele>424.268066</ele>
  <time>2011-10-20T08:34:24Z</time>
  <speed>2.960000</speed>
</trkpt>
<trkpt lat="32.748977661" lon="35.027580261">
  <ele>424.494629</ele>
  <time>2011-10-20T08:34:25Z</time>
  <speed>3.180000</speed>
</trkpt>
<trkpt lat="32.749008179" lon="35.027557373">
  <ele>424.674316</ele>
  <time>2011-10-20T08:34:26Z</time>
  <speed>3.440000</speed>
</trkpt>
<trkpt lat="32.749031067" lon="35.027526855">
  <ele>424.486816</ele>
  <time>2011-10-20T08:34:27Z</time>
  <speed>3.480000</speed>
</trkpt>
<trkpt lat="32.749053955" lon="35.027500153">
  <ele>424.260254</ele>
  <time>2011-10-20T08:34:28Z</time>
  <speed>3.260000</speed>
</trkpt>
<trkpt lat="32.749080658" lon="35.027492523">
  <ele>423.572754</ele>
  <time>2011-10-20T08:34:29Z</time>
  <speed>3.110000</speed>
</trkpt>
<trkpt lat="32.749107361" lon="35.027477264">
  <ele>423.674316</ele>
  <time>2011-10-20T08:34:30Z</time>
  <speed>2.900000</speed>
</trkpt>
<trkpt lat="32.749137878" lon="35.027484894">
  <ele>423.447754</ele>
  <time>2011-10-20T08:34:31Z</time>
  <speed>2.910000</speed>
</trkpt>
<trkpt lat="32.749168396" lon="35.027488708">
  <ele>423.033691</ele>
  <time>2011-10-20T08:34:32Z</time>
  <speed>3.310000</speed>
</trkpt>
<trkpt lat="32.749195099" lon="35.027492523">
  <ele>422.908691</ele>
  <time>2011-10-20T08:34:33Z</time>
  <speed>2.960000</speed>
</trkpt>
<trkpt lat="32.749240875" lon="35.027503967">
  <ele>423.088379</ele>
  <time>2011-10-20T08:34:35Z</time>
  <speed>2.650000</speed>
</trkpt>
<trkpt lat="32.749282837" lon="35.027507782">
  <ele>423.572754</ele>
  <time>2011-10-20T08:34:37Z</time>
  <speed>2.380000</speed>
</trkpt>
<trkpt lat="32.749317169" lon="35.027507782">
  <ele>423.775879</ele>
  <time>2011-10-20T08:34:39Z</time>
  <speed>2.410000</speed>
</trkpt>
<trkpt lat="32.749343872" lon="35.027496338">
  <ele>424.010254</ele>
  <time>2011-10-20T08:34:40Z</time>
  <speed>2.830000</speed>
</trkpt>
<trkpt lat="32.749370575" lon="35.027473450">
  <ele>424.432129</ele>
  <time>2011-10-20T08:34:41Z</time>
  <speed>3.130000</speed>
</trkpt>
<trkpt lat="32.749401093" lon="35.027462006">
  <ele>424.174316</ele>
  <time>2011-10-20T08:34:42Z</time>
  <speed>3.030000</speed>
</trkpt>
<trkpt lat="32.749427795" lon="35.027450562">
  <ele>423.932129</ele>
  <time>2011-10-20T08:34:43Z</time>
  <speed>3.190000</speed>
</trkpt>
<trkpt lat="32.749477386" lon="35.027427673">
  <ele>422.947754</ele>
  <time>2011-10-20T08:34:45Z</time>
  <speed>3.010000</speed>
</trkpt>
<trkpt lat="32.749504089" lon="35.027423859">
  <ele>422.518066</ele>
  <time>2011-10-20T08:34:46Z</time>
  <speed>2.640000</speed>
</trkpt>
<trkpt lat="32.749549866" lon="35.027423859">
  <ele>422.229004</ele>
  <time>2011-10-20T08:34:48Z</time>
  <speed>1.740000</speed>
</trkpt>
<trkpt lat="32.749584198" lon="35.027416229">
  <ele>421.338379</ele>
  <time>2011-10-20T08:34:50Z</time>
  <speed>2.230000</speed>
</trkpt>
<trkpt lat="32.749610901" lon="35.027420044">
  <ele>421.127441</ele>
  <time>2011-10-20T08:34:51Z</time>
  <speed>2.670000</speed>
</trkpt>
<trkpt lat="32.749645233" lon="35.027427673">
  <ele>420.854004</ele>
  <time>2011-10-20T08:34:53Z</time>
  <speed>2.280000</speed>
</trkpt>
<trkpt lat="32.749683380" lon="35.027427673">
  <ele>419.814941</ele>
  <time>2011-10-20T08:34:55Z</time>
  <speed>2.820000</speed>
</trkpt>
<trkpt lat="32.749710083" lon="35.027439117">
  <ele>419.689941</ele>
  <time>2011-10-20T08:34:56Z</time>
  <speed>3.060000</speed>
</trkpt>
<trkpt lat="32.749736786" lon="35.027446747">
  <ele>418.994629</ele>
  <time>2011-10-20T08:34:57Z</time>
  <speed>3.610000</speed>
</trkpt>
<trkpt lat="32.749763489" lon="35.027469635">
  <ele>418.424316</ele>
  <time>2011-10-20T08:34:58Z</time>
  <speed>3.590000</speed>
</trkpt>
<trkpt lat="32.749782562" lon="35.027503967">
  <ele>417.932129</ele>
  <time>2011-10-20T08:34:59Z</time>
  <speed>4.000000</speed>
</trkpt>
<trkpt lat="32.749797821" lon="35.027542114">
  <ele>417.822754</ele>
  <time>2011-10-20T08:35:00Z</time>
  <speed>4.080000</speed>
</trkpt>
<trkpt lat="32.749816895" lon="35.027580261">
  <ele>417.643066</ele>
  <time>2011-10-20T08:35:01Z</time>
  <speed>4.210000</speed>
</trkpt>
<trkpt lat="32.749832153" lon="35.027618408">
  <ele>417.846191</ele>
  <time>2011-10-20T08:35:02Z</time>
  <speed>3.880000</speed>
</trkpt>
<trkpt lat="32.749851227" lon="35.027656555">
  <ele>417.830566</ele>
  <time>2011-10-20T08:35:03Z</time>
  <speed>4.340000</speed>
</trkpt>
<trkpt lat="32.749870300" lon="35.027694702">
  <ele>417.479004</ele>
  <time>2011-10-20T08:35:04Z</time>
  <speed>4.200000</speed>
</trkpt>
<trkpt lat="32.749893188" lon="35.027732849">
  <ele>417.197754</ele>
  <time>2011-10-20T08:35:05Z</time>
  <speed>3.890000</speed>
</trkpt>
<trkpt lat="32.749916077" lon="35.027767181">
  <ele>416.854004</ele>
  <time>2011-10-20T08:35:06Z</time>
  <speed>4.160000</speed>
</trkpt>
<trkpt lat="32.749942780" lon="35.027801514">
  <ele>416.502441</ele>
  <time>2011-10-20T08:35:07Z</time>
  <speed>4.840000</speed>
</trkpt>
<trkpt lat="32.749961853" lon="35.027835846">
  <ele>416.111816</ele>
  <time>2011-10-20T08:35:08Z</time>
  <speed>4.060000</speed>
</trkpt>
<trkpt lat="32.749969482" lon="35.027877808">
  <ele>415.924316</ele>
  <time>2011-10-20T08:35:09Z</time>
  <speed>3.100000</speed>
</trkpt>
<trkpt lat="32.749980927" lon="35.027908325">
  <ele>415.424316</ele>
  <time>2011-10-20T08:35:10Z</time>
  <speed>2.830000</speed>
</trkpt>
<trkpt lat="32.750011444" lon="35.027935028">
  <ele>414.994629</ele>
  <time>2011-10-20T08:35:11Z</time>
  <speed>3.420000</speed>
</trkpt>
<trkpt lat="32.750030518" lon="35.027961731">
  <ele>414.604004</ele>
  <time>2011-10-20T08:35:12Z</time>
  <speed>2.280000</speed>
</trkpt>
<trkpt lat="32.750045776" lon="35.027984619">
  <ele>415.018066</ele>
  <time>2011-10-20T08:35:13Z</time>
  <speed>2.390000</speed>
</trkpt>
<trkpt lat="32.750041962" lon="35.028018951">
  <ele>416.346191</ele>
  <time>2011-10-20T08:35:14Z</time>
  <speed>2.610000</speed>
</trkpt>
<trkpt lat="32.750041962" lon="35.028064728">
  <ele>416.963379</ele>
  <time>2011-10-20T08:35:16Z</time>
  <speed>1.330000</speed>
</trkpt>
<trkpt lat="32.750061035" lon="35.028091431">
  <ele>416.572754</ele>
  <time>2011-10-20T08:35:18Z</time>
  <speed>2.080000</speed>
</trkpt>
<trkpt lat="32.750099182" lon="35.028110504">
  <ele>416.213379</ele>
  <time>2011-10-20T08:35:20Z</time>
  <speed>2.130000</speed>
</trkpt>
<trkpt lat="32.750144958" lon="35.028110504">
  <ele>415.096191</ele>
  <time>2011-10-20T08:35:22Z</time>
  <speed>2.590000</speed>
</trkpt>
<trkpt lat="32.750175476" lon="35.028087616">
  <ele>412.900879</ele>
  <time>2011-10-20T08:35:24Z</time>
  <speed>1.960000</speed>
</trkpt>
<trkpt lat="32.750190735" lon="35.028057098">
  <ele>411.291504</ele>
  <time>2011-10-20T08:35:26Z</time>
  <speed>1.590000</speed>
</trkpt>
<trkpt lat="32.750225067" lon="35.028053284">
  <ele>409.979004</ele>
  <time>2011-10-20T08:35:28Z</time>
  <speed>2.110000</speed>
</trkpt>
<trkpt lat="32.750247955" lon="35.028057098">
  <ele>408.939941</ele>
  <time>2011-10-20T08:35:29Z</time>
  <speed>2.110000</speed>
</trkpt>
<trkpt lat="32.750274658" lon="35.028041840">
  <ele>408.064941</ele>
  <time>2011-10-20T08:35:30Z</time>
  <speed>2.780000</speed>
</trkpt>
<trkpt lat="32.750328064" lon="35.028003693">
  <ele>407.439941</ele>
  <time>2011-10-20T08:35:32Z</time>
  <speed>2.560000</speed>
</trkpt>
<trkpt lat="32.750350952" lon="35.027988434">
  <ele>406.705566</ele>
  <time>2011-10-20T08:35:33Z</time>
  <speed>2.560000</speed>
</trkpt>
<trkpt lat="32.750392914" lon="35.027988434">
  <ele>405.768066</ele>
  <time>2011-10-20T08:35:35Z</time>
  <speed>2.010000</speed>
</trkpt>
<trkpt lat="32.750427246" lon="35.028015137">
  <ele>405.229004</ele>
  <time>2011-10-20T08:35:37Z</time>
  <speed>0.480000</speed>
</trkpt>
<trkpt lat="32.750465393" lon="35.028015137">
  <ele>405.393066</ele>
  <time>2011-10-20T08:35:40Z</time>
  <speed>1.340000</speed>
</trkpt>
<trkpt lat="32.750484467" lon="35.027992249">
  <ele>406.627441</ele>
  <time>2011-10-20T08:35:44Z</time>
  <speed>0.490000</speed>
</trkpt>
<trkpt lat="32.750514984" lon="35.027988434">
  <ele>407.572754</ele>
  <time>2011-10-20T08:35:52Z</time>
  <speed>0.500000</speed>
</trkpt>
<trkpt lat="32.750541687" lon="35.027969360">
  <ele>408.744629</ele>
  <time>2011-10-20T08:35:58Z</time>
  <speed>0.920000</speed>
</trkpt>
<trkpt lat="32.750568390" lon="35.027942657">
  <ele>409.354004</ele>
  <time>2011-10-20T08:36:01Z</time>
  <speed>1.050000</speed>
</trkpt>
<trkpt lat="32.750598907" lon="35.027915955">
  <ele>409.252441</ele>
  <time>2011-10-20T08:36:04Z</time>
  <speed>0.500000</speed>
</trkpt>
<trkpt lat="32.750614166" lon="35.027870178">
  <ele>410.455566</ele>
  <time>2011-10-20T08:36:06Z</time>
  <speed>2.130000</speed>
</trkpt>
<trkpt lat="32.750644684" lon="35.027812958">
  <ele>411.697754</ele>
  <time>2011-10-20T08:36:08Z</time>
  <speed>2.690000</speed>
</trkpt>
<trkpt lat="32.750667572" lon="35.027786255">
  <ele>412.775879</ele>
  <time>2011-10-20T08:36:09Z</time>
  <speed>3.180000</speed>
</trkpt>
<trkpt lat="32.750694275" lon="35.027786255">
  <ele>412.494629</ele>
  <time>2011-10-20T08:36:10Z</time>
  <speed>3.300000</speed>
</trkpt>
<trkpt lat="32.750720978" lon="35.027767181">
  <ele>412.916504</ele>
  <time>2011-10-20T08:36:11Z</time>
  <speed>2.580000</speed>
</trkpt>
<trkpt lat="32.750740051" lon="35.027744293">
  <ele>413.549316</ele>
  <time>2011-10-20T08:36:12Z</time>
  <speed>2.300000</speed>
</trkpt>
<trkpt lat="32.750759125" lon="35.027721405">
  <ele>413.939941</ele>
  <time>2011-10-20T08:36:13Z</time>
  <speed>2.370000</speed>
</trkpt>
<trkpt lat="32.750789642" lon="35.027690887">
  <ele>414.260254</ele>
  <time>2011-10-20T08:36:15Z</time>
  <speed>1.940000</speed>
</trkpt>
<trkpt lat="32.750820160" lon="35.027645111">
  <ele>414.689941</ele>
  <time>2011-10-20T08:36:17Z</time>
  <speed>2.570000</speed>
</trkpt>
<trkpt lat="32.750835419" lon="35.027618408">
  <ele>414.682129</ele>
  <time>2011-10-20T08:36:18Z</time>
  <speed>3.050000</speed>
</trkpt>
<trkpt lat="32.750850677" lon="35.027587891">
  <ele>414.838379</ele>
  <time>2011-10-20T08:36:19Z</time>
  <speed>3.160000</speed>
</trkpt>
<trkpt lat="32.750865936" lon="35.027561188">
  <ele>414.924316</ele>
  <time>2011-10-20T08:36:20Z</time>
  <speed>2.960000</speed>
</trkpt>
<trkpt lat="32.750892639" lon="35.027507782">
  <ele>415.197754</ele>
  <time>2011-10-20T08:36:22Z</time>
  <speed>2.850000</speed>
</trkpt>
<trkpt lat="32.750904083" lon="35.027477264">
  <ele>415.752441</ele>
  <time>2011-10-20T08:36:23Z</time>
  <speed>3.040000</speed>
</trkpt>
<trkpt lat="32.750923157" lon="35.027454376">
  <ele>415.979004</ele>
  <time>2011-10-20T08:36:24Z</time>
  <speed>2.830000</speed>
</trkpt>
<trkpt lat="32.750961304" lon="35.027420044">
  <ele>416.994629</ele>
  <time>2011-10-20T08:36:26Z</time>
  <speed>2.380000</speed>
</trkpt>
<trkpt lat="32.750999451" lon="35.027393341">
  <ele>416.525879</ele>
  <time>2011-10-20T08:36:28Z</time>
  <speed>2.220000</speed>
</trkpt>
<trkpt lat="32.751022339" lon="35.027343750">
  <ele>415.822754</ele>
  <time>2011-10-20T08:36:30Z</time>
  <speed>2.910000</speed>
</trkpt>
<trkpt lat="32.751033783" lon="35.027309418">
  <ele>415.596191</ele>
  <time>2011-10-20T08:36:31Z</time>
  <speed>3.470000</speed>
</trkpt>
<trkpt lat="32.751041412" lon="35.027267456">
  <ele>415.127441</ele>
  <time>2011-10-20T08:36:32Z</time>
  <speed>3.460000</speed>
</trkpt>
<trkpt lat="32.751060486" lon="35.027229309">
  <ele>415.080566</ele>
  <time>2011-10-20T08:36:33Z</time>
  <speed>3.390000</speed>
</trkpt>
<trkpt lat="32.751083374" lon="35.027206421">
  <ele>415.174316</ele>
  <time>2011-10-20T08:36:34Z</time>
  <speed>3.140000</speed>
</trkpt>
<trkpt lat="32.751102448" lon="35.027187347">
  <ele>415.518066</ele>
  <time>2011-10-20T08:36:35Z</time>
  <speed>2.770000</speed>
</trkpt>
<trkpt lat="32.751140594" lon="35.027141571">
  <ele>416.510254</ele>
  <time>2011-10-20T08:36:37Z</time>
  <speed>2.830000</speed>
</trkpt>
<trkpt lat="32.751167297" lon="35.027084351">
  <ele>417.377441</ele>
  <time>2011-10-20T08:36:39Z</time>
  <speed>2.970000</speed>
</trkpt>
<trkpt lat="32.751197815" lon="35.027050018">
  <ele>418.182129</ele>
  <time>2011-10-20T08:36:41Z</time>
  <speed>2.290000</speed>
</trkpt>
<trkpt lat="32.751247406" lon="35.027061462">
  <ele>417.057129</ele>
  <time>2011-10-20T08:36:43Z</time>
  <speed>2.720000</speed>
</trkpt>
<trkpt lat="32.751277924" lon="35.027061462">
  <ele>417.205566</ele>
  <time>2011-10-20T08:36:44Z</time>
  <speed>2.820000</speed>
</trkpt>
<trkpt lat="32.751308441" lon="35.027069092">
  <ele>415.963379</ele>
  <time>2011-10-20T08:36:45Z</time>
  <speed>3.580000</speed>
</trkpt>
<trkpt lat="32.751346588" lon="35.027076721">
  <ele>415.322754</ele>
  <time>2011-10-20T08:36:46Z</time>
  <speed>3.800000</speed>
</trkpt>
<trkpt lat="32.751384735" lon="35.027088165">
  <ele>414.963379</ele>
  <time>2011-10-20T08:36:47Z</time>
  <speed>3.810000</speed>
</trkpt>
<trkpt lat="32.751419067" lon="35.027095795">
  <ele>414.197754</ele>
  <time>2011-10-20T08:36:48Z</time>
  <speed>3.820000</speed>
</trkpt>
<trkpt lat="32.751457214" lon="35.027095795">
  <ele>413.252441</ele>
  <time>2011-10-20T08:36:49Z</time>
  <speed>3.000000</speed>
</trkpt>
<trkpt lat="32.751487732" lon="35.027080536">
  <ele>412.322754</ele>
  <time>2011-10-20T08:36:50Z</time>
  <speed>3.440000</speed>
</trkpt>
<trkpt lat="32.751518250" lon="35.027076721">
  <ele>411.330566</ele>
  <time>2011-10-20T08:36:51Z</time>
  <speed>3.170000</speed>
</trkpt>
<trkpt lat="32.751548767" lon="35.027076721">
  <ele>411.010254</ele>
  <time>2011-10-20T08:36:52Z</time>
  <speed>3.150000</speed>
</trkpt>
<trkpt lat="32.751579285" lon="35.027088165">
  <ele>410.783691</ele>
  <time>2011-10-20T08:36:53Z</time>
  <speed>3.950000</speed>
</trkpt>
<trkpt lat="32.751609802" lon="35.027107239">
  <ele>410.252441</ele>
  <time>2011-10-20T08:36:54Z</time>
  <speed>3.790000</speed>
</trkpt>
<trkpt lat="32.751640320" lon="35.027122498">
  <ele>409.650879</ele>
  <time>2011-10-20T08:36:55Z</time>
  <speed>3.340000</speed>
</trkpt>
<trkpt lat="32.751670837" lon="35.027141571">
  <ele>409.018066</ele>
  <time>2011-10-20T08:36:56Z</time>
  <speed>3.310000</speed>
</trkpt>
<trkpt lat="32.751701355" lon="35.027156830">
  <ele>408.596191</ele>
  <time>2011-10-20T08:36:57Z</time>
  <speed>3.240000</speed>
</trkpt>
<trkpt lat="32.751731873" lon="35.027164459">
  <ele>408.627441</ele>
  <time>2011-10-20T08:36:58Z</time>
  <speed>3.440000</speed>
</trkpt>
<trkpt lat="32.751762390" lon="35.027160645">
  <ele>407.838379</ele>
  <time>2011-10-20T08:36:59Z</time>
  <speed>3.830000</speed>
</trkpt>
<trkpt lat="32.751789093" lon="35.027153015">
  <ele>406.986816</ele>
  <time>2011-10-20T08:37:00Z</time>
  <speed>3.020000</speed>
</trkpt>
<trkpt lat="32.751834869" lon="35.027126312">
  <ele>405.979004</ele>
  <time>2011-10-20T08:37:02Z</time>
  <speed>3.140000</speed>
</trkpt>
<trkpt lat="32.751869202" lon="35.027099609">
  <ele>406.025879</ele>
  <time>2011-10-20T08:37:03Z</time>
  <speed>3.670000</speed>
</trkpt>
<trkpt lat="32.751899719" lon="35.027084351">
  <ele>405.611816</ele>
  <time>2011-10-20T08:37:04Z</time>
  <speed>3.730000</speed>
</trkpt>
<trkpt lat="32.751926422" lon="35.027069092">
  <ele>405.471191</ele>
  <time>2011-10-20T08:37:05Z</time>
  <speed>3.200000</speed>
</trkpt>
<trkpt lat="32.751956940" lon="35.027061462">
  <ele>406.182129</ele>
  <time>2011-10-20T08:37:06Z</time>
  <speed>2.570000</speed>
</trkpt>
<trkpt lat="32.752006531" lon="35.027030945">
  <ele>406.314941</ele>
  <time>2011-10-20T08:37:08Z</time>
  <speed>2.590000</speed>
</trkpt>
<trkpt lat="32.752029419" lon="35.027008057">
  <ele>406.416504</ele>
  <time>2011-10-20T08:37:09Z</time>
  <speed>2.840000</speed>
</trkpt>
<trkpt lat="32.752048492" lon="35.026988983">
  <ele>405.666504</ele>
  <time>2011-10-20T08:37:10Z</time>
  <speed>2.680000</speed>
</trkpt>
<trkpt lat="32.752086639" lon="35.026950836">
  <ele>405.416504</ele>
  <time>2011-10-20T08:37:12Z</time>
  <speed>2.710000</speed>
</trkpt>
<trkpt lat="32.752113342" lon="35.026924133">
  <ele>405.564941</ele>
  <time>2011-10-20T08:37:13Z</time>
  <speed>3.530000</speed>
</trkpt>
<trkpt lat="32.752140045" lon="35.026893616">
  <ele>405.424316</ele>
  <time>2011-10-20T08:37:14Z</time>
  <speed>3.560000</speed>
</trkpt>
<trkpt lat="32.752166748" lon="35.026870728">
  <ele>405.080566</ele>
  <time>2011-10-20T08:37:15Z</time>
  <speed>3.490000</speed>
</trkpt>
<trkpt lat="32.752189636" lon="35.026836395">
  <ele>405.268066</ele>
  <time>2011-10-20T08:37:16Z</time>
  <speed>3.790000</speed>
</trkpt>
<trkpt lat="32.752212524" lon="35.026802063">
  <ele>405.354004</ele>
  <time>2011-10-20T08:37:17Z</time>
  <speed>3.910000</speed>
</trkpt>
<trkpt lat="32.752243042" lon="35.026767731">
  <ele>404.682129</ele>
  <time>2011-10-20T08:37:18Z</time>
  <speed>3.730000</speed>
</trkpt>
<trkpt lat="32.752269745" lon="35.026741028">
  <ele>404.283691</ele>
  <time>2011-10-20T08:37:19Z</time>
  <speed>3.740000</speed>
</trkpt>
<trkpt lat="32.752296448" lon="35.026710510">
  <ele>404.291504</ele>
  <time>2011-10-20T08:37:20Z</time>
  <speed>3.420000</speed>
</trkpt>
<trkpt lat="32.752326965" lon="35.026676178">
  <ele>404.564941</ele>
  <time>2011-10-20T08:37:21Z</time>
  <speed>2.700000</speed>
</trkpt>
<trkpt lat="32.752353668" lon="35.026664734">
  <ele>404.635254</ele>
  <time>2011-10-20T08:37:22Z</time>
  <speed>1.400000</speed>
</trkpt>
<trkpt lat="32.752357483" lon="35.026603699">
  <ele>405.627441</ele>
  <time>2011-10-20T08:37:24Z</time>
  <speed>0.690000</speed>
</trkpt>
<trkpt lat="32.752372742" lon="35.026576996">
  <ele>407.025879</ele>
  <time>2011-10-20T08:37:29Z</time>
  <speed>0.780000</speed>
</trkpt>
<trkpt lat="32.752361298" lon="35.026527405">
  <ele>407.182129</ele>
  <time>2011-10-20T08:37:32Z</time>
  <speed>2.590000</speed>
</trkpt>
<trkpt lat="32.752338409" lon="35.026489258">
  <ele>407.033691</ele>
  <time>2011-10-20T08:37:33Z</time>
  <speed>3.790000</speed>
</trkpt>
<trkpt lat="32.752330780" lon="35.026443481">
  <ele>406.619629</ele>
  <time>2011-10-20T08:37:34Z</time>
  <speed>4.010000</speed>
</trkpt>
<trkpt lat="32.752342224" lon="35.026397705">
  <ele>407.143066</ele>
  <time>2011-10-20T08:37:35Z</time>
  <speed>4.210000</speed>
</trkpt>
<trkpt lat="32.752357483" lon="35.026359558">
  <ele>406.971191</ele>
  <time>2011-10-20T08:37:36Z</time>
  <speed>3.990000</speed>
</trkpt>
<trkpt lat="32.752384186" lon="35.026317596">
  <ele>406.564941</ele>
  <time>2011-10-20T08:37:37Z</time>
  <speed>4.660000</speed>
</trkpt>
<trkpt lat="32.752410889" lon="35.026279449">
  <ele>405.361816</ele>
  <time>2011-10-20T08:37:38Z</time>
  <speed>4.280000</speed>
</trkpt>
<trkpt lat="32.752429962" lon="35.026241302">
  <ele>405.189941</ele>
  <time>2011-10-20T08:37:39Z</time>
  <speed>3.870000</speed>
</trkpt>
<trkpt lat="32.752449036" lon="35.026214600">
  <ele>404.525879</ele>
  <time>2011-10-20T08:37:40Z</time>
  <speed>3.610000</speed>
</trkpt>
<trkpt lat="32.752464294" lon="35.026176453">
  <ele>404.361816</ele>
  <time>2011-10-20T08:37:41Z</time>
  <speed>2.690000</speed>
</trkpt>
<trkpt lat="32.752490997" lon="35.026142120">
  <ele>404.939941</ele>
  <time>2011-10-20T08:37:43Z</time>
  <speed>2.100000</speed>
</trkpt>
<trkpt lat="32.752529144" lon="35.026111603">
  <ele>405.377441</ele>
  <time>2011-10-20T08:37:45Z</time>
  <speed>2.600000</speed>
</trkpt>
<trkpt lat="32.752548218" lon="35.026084900">
  <ele>405.533691</ele>
  <time>2011-10-20T08:37:46Z</time>
  <speed>3.160000</speed>
</trkpt>
<trkpt lat="32.752571106" lon="35.026054382">
  <ele>405.119629</ele>
  <time>2011-10-20T08:37:47Z</time>
  <speed>3.470000</speed>
</trkpt>
<trkpt lat="32.752590179" lon="35.026012421">
  <ele>404.486816</ele>
  <time>2011-10-20T08:37:48Z</time>
  <speed>3.580000</speed>
</trkpt>
<trkpt lat="32.752624512" lon="35.026000977">
  <ele>404.150879</ele>
  <time>2011-10-20T08:37:50Z</time>
  <speed>1.500000</speed>
</trkpt>
<trkpt lat="32.752651215" lon="35.026008606">
  <ele>403.330566</ele>
  <time>2011-10-20T08:37:54Z</time>
  <speed>0.230000</speed>
</trkpt>
<trkpt lat="32.752670288" lon="35.025985718">
  <ele>402.205566</ele>
  <time>2011-10-20T08:38:31Z</time>
  <speed>0.240000</speed>
</trkpt>
<trkpt lat="32.752696991" lon="35.025970459">
  <ele>402.260254</ele>
  <time>2011-10-20T08:39:07Z</time>
  <speed>2.070000</speed>
</trkpt>
<trkpt lat="32.752746582" lon="35.025936127">
  <ele>403.229004</ele>
  <time>2011-10-20T08:39:09Z</time>
  <speed>2.290000</speed>
</trkpt>
<trkpt lat="32.752784729" lon="35.025917053">
  <ele>403.150879</ele>
  <time>2011-10-20T08:39:11Z</time>
  <speed>1.990000</speed>
</trkpt>
<trkpt lat="32.752822876" lon="35.025890350">
  <ele>403.611816</ele>
  <time>2011-10-20T08:39:13Z</time>
  <speed>2.220000</speed>
</trkpt>
<trkpt lat="32.752857208" lon="35.025859833">
  <ele>403.986816</ele>
  <time>2011-10-20T08:39:15Z</time>
  <speed>2.130000</speed>
</trkpt>
<trkpt lat="32.752891541" lon="35.025833130">
  <ele>404.322754</ele>
  <time>2011-10-20T08:39:17Z</time>
  <speed>2.180000</speed>
</trkpt>
<trkpt lat="32.752929688" lon="35.025806427">
  <ele>405.408691</ele>
  <time>2011-10-20T08:39:19Z</time>
  <speed>2.220000</speed>
</trkpt>
<trkpt lat="32.752964020" lon="35.025775909">
  <ele>405.791504</ele>
  <time>2011-10-20T08:39:21Z</time>
  <speed>2.520000</speed>
</trkpt>
<trkpt lat="32.753002167" lon="35.025745392">
  <ele>406.135254</ele>
  <time>2011-10-20T08:39:23Z</time>
  <speed>2.460000</speed>
</trkpt>
<trkpt lat="32.753025055" lon="35.025726318">
  <ele>406.564941</ele>
  <time>2011-10-20T08:39:24Z</time>
  <speed>2.380000</speed>
</trkpt>
<trkpt lat="32.753059387" lon="35.025695801">
  <ele>407.682129</ele>
  <time>2011-10-20T08:39:26Z</time>
  <speed>2.500000</speed>
</trkpt>
<trkpt lat="32.753101349" lon="35.025665283">
  <ele>407.908691</ele>
  <time>2011-10-20T08:39:28Z</time>
  <speed>2.620000</speed>
</trkpt>
<trkpt lat="32.753139496" lon="35.025630951">
  <ele>408.525879</ele>
  <time>2011-10-20T08:39:30Z</time>
  <speed>2.590000</speed>
</trkpt>
<trkpt lat="32.753177643" lon="35.025596619">
  <ele>408.689941</ele>
  <time>2011-10-20T08:39:32Z</time>
  <speed>2.530000</speed>
</trkpt>
<trkpt lat="32.753219604" lon="35.025573730">
  <ele>409.205566</ele>
  <time>2011-10-20T08:39:34Z</time>
  <speed>2.510000</speed>
</trkpt>
<trkpt lat="32.753257751" lon="35.025554657">
  <ele>409.377441</ele>
  <time>2011-10-20T08:39:36Z</time>
  <speed>2.660000</speed>
</trkpt>
<trkpt lat="32.753303528" lon="35.025539398">
  <ele>409.002441</ele>
  <time>2011-10-20T08:39:38Z</time>
  <speed>2.620000</speed>
</trkpt>
<trkpt lat="32.753341675" lon="35.025527954">
  <ele>409.205566</ele>
  <time>2011-10-20T08:39:40Z</time>
  <speed>2.430000</speed>
</trkpt>
<trkpt lat="32.753387451" lon="35.025508881">
  <ele>409.689941</ele>
  <time>2011-10-20T08:39:42Z</time>
  <speed>2.320000</speed>
</trkpt>
<trkpt lat="32.753433228" lon="35.025489807">
  <ele>410.072754</ele>
  <time>2011-10-20T08:39:44Z</time>
  <speed>2.550000</speed>
</trkpt>
<trkpt lat="32.753475189" lon="35.025485992">
  <ele>410.314941</ele>
  <time>2011-10-20T08:39:46Z</time>
  <speed>2.330000</speed>
</trkpt>
<trkpt lat="32.753528595" lon="35.025482178">
  <ele>411.197754</ele>
  <time>2011-10-20T08:39:48Z</time>
  <speed>2.570000</speed>
</trkpt>
<trkpt lat="32.753574371" lon="35.025470734">
  <ele>411.697754</ele>
  <time>2011-10-20T08:39:50Z</time>
  <speed>2.550000</speed>
</trkpt>
<trkpt lat="32.753620148" lon="35.025466919">
  <ele>412.002441</ele>
  <time>2011-10-20T08:39:52Z</time>
  <speed>2.280000</speed>
</trkpt>
<trkpt lat="32.753662109" lon="35.025459290">
  <ele>412.197754</ele>
  <time>2011-10-20T08:39:54Z</time>
  <speed>2.470000</speed>
</trkpt>
<trkpt lat="32.753707886" lon="35.025451660">
  <ele>412.518066</ele>
  <time>2011-10-20T08:39:56Z</time>
  <speed>2.270000</speed>
</trkpt>
<trkpt lat="32.753749847" lon="35.025451660">
  <ele>413.064941</ele>
  <time>2011-10-20T08:39:58Z</time>
  <speed>2.460000</speed>
</trkpt>
<trkpt lat="32.753795624" lon="35.025451660">
  <ele>413.979004</ele>
  <time>2011-10-20T08:40:00Z</time>
  <speed>2.380000</speed>
</trkpt>
<trkpt lat="32.753833771" lon="35.025447845">
  <ele>414.924316</ele>
  <time>2011-10-20T08:40:02Z</time>
  <speed>2.110000</speed>
</trkpt>
<trkpt lat="32.753871918" lon="35.025447845">
  <ele>414.939941</ele>
  <time>2011-10-20T08:40:04Z</time>
  <speed>2.070000</speed>
</trkpt>
<trkpt lat="32.753917694" lon="35.025444031">
  <ele>415.424316</ele>
  <time>2011-10-20T08:40:06Z</time>
  <speed>2.430000</speed>
</trkpt>
<trkpt lat="32.753963470" lon="35.025440216">
  <ele>416.369629</ele>
  <time>2011-10-20T08:40:08Z</time>
  <speed>2.010000</speed>
</trkpt>
<trkpt lat="32.754001617" lon="35.025432587">
  <ele>416.705566</ele>
  <time>2011-10-20T08:40:10Z</time>
  <speed>2.350000</speed>
</trkpt>
<trkpt lat="32.754047394" lon="35.025424957">
  <ele>418.072754</ele>
  <time>2011-10-20T08:40:12Z</time>
  <speed>2.270000</speed>
</trkpt>
<trkpt lat="32.754089355" lon="35.025413513">
  <ele>419.127441</ele>
  <time>2011-10-20T08:40:14Z</time>
  <speed>2.750000</speed>
</trkpt>
<trkpt lat="32.754116058" lon="35.025409698">
  <ele>419.721191</ele>
  <time>2011-10-20T08:40:15Z</time>
  <speed>2.340000</speed>
</trkpt>
<trkpt lat="32.754158020" lon="35.025398254">
  <ele>420.752441</ele>
  <time>2011-10-20T08:40:17Z</time>
  <speed>2.730000</speed>
</trkpt>
<trkpt lat="32.754207611" lon="35.025382996">
  <ele>420.783691</ele>
  <time>2011-10-20T08:40:19Z</time>
  <speed>2.770000</speed>
</trkpt>
<trkpt lat="32.754261017" lon="35.025375366">
  <ele>420.713379</ele>
  <time>2011-10-20T08:40:21Z</time>
  <speed>2.500000</speed>
</trkpt>
<trkpt lat="32.754310608" lon="35.025363922">
  <ele>420.189941</ele>
  <time>2011-10-20T08:40:23Z</time>
  <speed>2.710000</speed>
</trkpt>
<trkpt lat="32.754337311" lon="35.025356293">
  <ele>419.963379</ele>
  <time>2011-10-20T08:40:24Z</time>
  <speed>3.040000</speed>
</trkpt>
<trkpt lat="32.754390717" lon="35.025333405">
  <ele>419.377441</ele>
  <time>2011-10-20T08:40:26Z</time>
  <speed>3.320000</speed>
</trkpt>
<trkpt lat="32.754417419" lon="35.025310516">
  <ele>420.119629</ele>
  <time>2011-10-20T08:40:27Z</time>
  <speed>3.360000</speed>
</trkpt>
<trkpt lat="32.754440308" lon="35.025291443">
  <ele>419.783691</ele>
  <time>2011-10-20T08:40:28Z</time>
  <speed>3.480000</speed>
</trkpt>
<trkpt lat="32.754470825" lon="35.025279999">
  <ele>419.494629</ele>
  <time>2011-10-20T08:40:29Z</time>
  <speed>3.440000</speed>
</trkpt>
<trkpt lat="32.754501343" lon="35.025268555">
  <ele>419.244629</ele>
  <time>2011-10-20T08:40:30Z</time>
  <speed>3.450000</speed>
</trkpt>
<trkpt lat="32.754528046" lon="35.025245667">
  <ele>419.455566</ele>
  <time>2011-10-20T08:40:31Z</time>
  <speed>3.210000</speed>
</trkpt>
<trkpt lat="32.754554749" lon="35.025226593">
  <ele>419.283691</ele>
  <time>2011-10-20T08:40:32Z</time>
  <speed>3.290000</speed>
</trkpt>
<trkpt lat="32.754577637" lon="35.025203705">
  <ele>419.604004</ele>
  <time>2011-10-20T08:40:33Z</time>
  <speed>3.200000</speed>
</trkpt>
<trkpt lat="32.754592896" lon="35.025177002">
  <ele>419.650879</ele>
  <time>2011-10-20T08:40:34Z</time>
  <speed>3.300000</speed>
</trkpt>
<trkpt lat="32.754611969" lon="35.025146484">
  <ele>419.541504</ele>
  <time>2011-10-20T08:40:35Z</time>
  <speed>3.140000</speed>
</trkpt>
<trkpt lat="32.754627228" lon="35.025119781">
  <ele>419.822754</ele>
  <time>2011-10-20T08:40:36Z</time>
  <speed>3.150000</speed>
</trkpt>
<trkpt lat="32.754653931" lon="35.025066376">
  <ele>419.822754</ele>
  <time>2011-10-20T08:40:38Z</time>
  <speed>2.500000</speed>
</trkpt>
<trkpt lat="32.754676819" lon="35.025024414">
  <ele>420.033691</ele>
  <time>2011-10-20T08:40:40Z</time>
  <speed>2.610000</speed>
</trkpt>
<trkpt lat="32.754695892" lon="35.024971008">
  <ele>420.713379</ele>
  <time>2011-10-20T08:40:42Z</time>
  <speed>2.870000</speed>
</trkpt>
<trkpt lat="32.754711151" lon="35.024940491">
  <ele>420.994629</ele>
  <time>2011-10-20T08:40:43Z</time>
  <speed>2.940000</speed>
</trkpt>
<trkpt lat="32.754737854" lon="35.024887085">
  <ele>421.455566</ele>
  <time>2011-10-20T08:40:45Z</time>
  <speed>2.830000</speed>
</trkpt>
<trkpt lat="32.754764557" lon="35.024841309">
  <ele>422.088379</ele>
  <time>2011-10-20T08:40:47Z</time>
  <speed>2.590000</speed>
</trkpt>
<trkpt lat="32.754791260" lon="35.024795532">
  <ele>422.744629</ele>
  <time>2011-10-20T08:40:49Z</time>
  <speed>2.800000</speed>
</trkpt>
<trkpt lat="32.754817963" lon="35.024749756">
  <ele>423.111816</ele>
  <time>2011-10-20T08:40:51Z</time>
  <speed>2.730000</speed>
</trkpt>
<trkpt lat="32.754844666" lon="35.024711609">
  <ele>423.354004</ele>
  <time>2011-10-20T08:40:53Z</time>
  <speed>2.610000</speed>
</trkpt>
<trkpt lat="32.754863739" lon="35.024662018">
  <ele>424.064941</ele>
  <time>2011-10-20T08:40:55Z</time>
  <speed>2.550000</speed>
</trkpt>
<trkpt lat="32.754882813" lon="35.024612427">
  <ele>424.150879</ele>
  <time>2011-10-20T08:40:57Z</time>
  <speed>2.490000</speed>
</trkpt>
<trkpt lat="32.754909515" lon="35.024562836">
  <ele>423.994629</ele>
  <time>2011-10-20T08:40:59Z</time>
  <speed>2.630000</speed>
</trkpt>
<trkpt lat="32.754936218" lon="35.024517059">
  <ele>424.588379</ele>
  <time>2011-10-20T08:41:01Z</time>
  <speed>2.720000</speed>
</trkpt>
<trkpt lat="32.754966736" lon="35.024471283">
  <ele>424.635254</ele>
  <time>2011-10-20T08:41:03Z</time>
  <speed>2.870000</speed>
</trkpt>
<trkpt lat="32.754985809" lon="35.024448395">
  <ele>424.971191</ele>
  <time>2011-10-20T08:41:04Z</time>
  <speed>2.850000</speed>
</trkpt>
<trkpt lat="32.755008698" lon="35.024391174">
  <ele>425.041504</ele>
  <time>2011-10-20T08:41:06Z</time>
  <speed>2.970000</speed>
</trkpt>
<trkpt lat="32.755023956" lon="35.024360657">
  <ele>425.510254</ele>
  <time>2011-10-20T08:41:07Z</time>
  <speed>3.050000</speed>
</trkpt>
<trkpt lat="32.755043030" lon="35.024333954">
  <ele>425.674316</ele>
  <time>2011-10-20T08:41:08Z</time>
  <speed>3.200000</speed>
</trkpt>
<trkpt lat="32.755062103" lon="35.024303436">
  <ele>425.900879</ele>
  <time>2011-10-20T08:41:09Z</time>
  <speed>3.260000</speed>
</trkpt>
<trkpt lat="32.755084991" lon="35.024280548">
  <ele>425.939941</ele>
  <time>2011-10-20T08:41:10Z</time>
  <speed>3.450000</speed>
</trkpt>
<trkpt lat="32.755107880" lon="35.024253845">
  <ele>426.119629</ele>
  <time>2011-10-20T08:41:11Z</time>
  <speed>3.540000</speed>
</trkpt>
<trkpt lat="32.755134583" lon="35.024230957">
  <ele>426.236816</ele>
  <time>2011-10-20T08:41:12Z</time>
  <speed>3.550000</speed>
</trkpt>
<trkpt lat="32.755157471" lon="35.024204254">
  <ele>426.283691</ele>
  <time>2011-10-20T08:41:13Z</time>
  <speed>3.310000</speed>
</trkpt>
<trkpt lat="32.755180359" lon="35.024177551">
  <ele>426.627441</ele>
  <time>2011-10-20T08:41:14Z</time>
  <speed>3.110000</speed>
</trkpt>
<trkpt lat="32.755203247" lon="35.024158478">
  <ele>426.166504</ele>
  <time>2011-10-20T08:41:15Z</time>
  <speed>3.420000</speed>
</trkpt>
<trkpt lat="32.755229950" lon="35.024135590">
  <ele>426.236816</ele>
  <time>2011-10-20T08:41:16Z</time>
  <speed>3.470000</speed>
</trkpt>
<trkpt lat="32.755256653" lon="35.024116516">
  <ele>425.916504</ele>
  <time>2011-10-20T08:41:17Z</time>
  <speed>3.650000</speed>
</trkpt>
<trkpt lat="32.755287170" lon="35.024101257">
  <ele>425.369629</ele>
  <time>2011-10-20T08:41:18Z</time>
  <speed>3.790000</speed>
</trkpt>
<trkpt lat="32.755313873" lon="35.024074554">
  <ele>425.330566</ele>
  <time>2011-10-20T08:41:19Z</time>
  <speed>3.750000</speed>
</trkpt>
<trkpt lat="32.755344391" lon="35.024059296">
  <ele>425.533691</ele>
  <time>2011-10-20T08:41:20Z</time>
  <speed>3.480000</speed>
</trkpt>
<trkpt lat="32.755371094" lon="35.024040222">
  <ele>425.885254</ele>
  <time>2011-10-20T08:41:21Z</time>
  <speed>3.110000</speed>
</trkpt>
<trkpt lat="32.755390167" lon="35.024017334">
  <ele>426.400879</ele>
  <time>2011-10-20T08:41:22Z</time>
  <speed>2.930000</speed>
</trkpt>
<trkpt lat="32.755428314" lon="35.023983002">
  <ele>427.072754</ele>
  <time>2011-10-20T08:41:24Z</time>
  <speed>2.960000</speed>
</trkpt>
<trkpt lat="32.755451202" lon="35.023963928">
  <ele>427.533691</ele>
  <time>2011-10-20T08:41:25Z</time>
  <speed>3.200000</speed>
</trkpt>
<trkpt lat="32.755466461" lon="35.023937225">
  <ele>427.963379</ele>
  <time>2011-10-20T08:41:26Z</time>
  <speed>3.220000</speed>
</trkpt>
<trkpt lat="32.755496979" lon="35.023880005">
  <ele>428.666504</ele>
  <time>2011-10-20T08:41:28Z</time>
  <speed>3.410000</speed>
</trkpt>
<trkpt lat="32.755512238" lon="35.023849487">
  <ele>429.127441</ele>
  <time>2011-10-20T08:41:29Z</time>
  <speed>3.260000</speed>
</trkpt>
<trkpt lat="32.755542755" lon="35.023796082">
  <ele>429.932129</ele>
  <time>2011-10-20T08:41:31Z</time>
  <speed>2.880000</speed>
</trkpt>
<trkpt lat="32.755561829" lon="35.023769379">
  <ele>430.283691</ele>
  <time>2011-10-20T08:41:32Z</time>
  <speed>2.690000</speed>
</trkpt>
<trkpt lat="32.755573273" lon="35.023738861">
  <ele>430.439941</ele>
  <time>2011-10-20T08:41:33Z</time>
  <speed>2.790000</speed>
</trkpt>
<trkpt lat="32.755603790" lon="35.023689270">
  <ele>430.361816</ele>
  <time>2011-10-20T08:41:35Z</time>
  <speed>2.870000</speed>
</trkpt>
<trkpt lat="32.755649567" lon="35.023674011">
  <ele>430.463379</ele>
  <time>2011-10-20T08:41:37Z</time>
  <speed>2.500000</speed>
</trkpt>
<trkpt lat="32.755699158" lon="35.023693085">
  <ele>430.963379</ele>
  <time>2011-10-20T08:41:39Z</time>
  <speed>2.660000</speed>
</trkpt>
<trkpt lat="32.755725861" lon="35.023712158">
  <ele>431.072754</ele>
  <time>2011-10-20T08:41:40Z</time>
  <speed>2.950000</speed>
</trkpt>
<trkpt lat="32.755752563" lon="35.023727417">
  <ele>431.314941</ele>
  <time>2011-10-20T08:41:41Z</time>
  <speed>2.850000</speed>
</trkpt>
<trkpt lat="32.755798340" lon="35.023735046">
  <ele>432.174316</ele>
  <time>2011-10-20T08:41:43Z</time>
  <speed>3.010000</speed>
</trkpt>
<trkpt lat="32.755825043" lon="35.023731232">
  <ele>432.572754</ele>
  <time>2011-10-20T08:41:44Z</time>
  <speed>3.020000</speed>
</trkpt>
<trkpt lat="32.755878448" lon="35.023719788">
  <ele>433.525879</ele>
  <time>2011-10-20T08:41:46Z</time>
  <speed>2.870000</speed>
</trkpt>
<trkpt lat="32.755920410" lon="35.023696899">
  <ele>434.221191</ele>
  <time>2011-10-20T08:41:48Z</time>
  <speed>2.720000</speed>
</trkpt>
<trkpt lat="32.755962372" lon="35.023662567">
  <ele>435.064941</ele>
  <time>2011-10-20T08:41:50Z</time>
  <speed>2.560000</speed>
</trkpt>
<trkpt lat="32.756004333" lon="35.023628235">
  <ele>436.072754</ele>
  <time>2011-10-20T08:41:52Z</time>
  <speed>2.380000</speed>
</trkpt>
<trkpt lat="32.756046295" lon="35.023597717">
  <ele>436.150879</ele>
  <time>2011-10-20T08:41:54Z</time>
  <speed>2.320000</speed>
</trkpt>
<trkpt lat="32.756088257" lon="35.023590088">
  <ele>435.494629</ele>
  <time>2011-10-20T08:41:56Z</time>
  <speed>2.450000</speed>
</trkpt>
<trkpt lat="32.756134033" lon="35.023593903">
  <ele>435.486816</ele>
  <time>2011-10-20T08:41:58Z</time>
  <speed>2.330000</speed>
</trkpt>
<trkpt lat="32.756168365" lon="35.023597717">
  <ele>435.674316</ele>
  <time>2011-10-20T08:42:00Z</time>
  <speed>2.190000</speed>
</trkpt>
<trkpt lat="32.756214142" lon="35.023586273">
  <ele>435.658691</ele>
  <time>2011-10-20T08:42:02Z</time>
  <speed>2.030000</speed>
</trkpt>
<trkpt lat="32.756240845" lon="35.023567200">
  <ele>436.072754</ele>
  <time>2011-10-20T08:42:04Z</time>
  <speed>2.020000</speed>
</trkpt>
<trkpt lat="32.756275177" lon="35.023548126">
  <ele>436.166504</ele>
  <time>2011-10-20T08:42:06Z</time>
  <speed>2.310000</speed>
</trkpt>
<trkpt lat="32.756320953" lon="35.023529053">
  <ele>435.705566</ele>
  <time>2011-10-20T08:42:08Z</time>
  <speed>2.570000</speed>
</trkpt>
<trkpt lat="32.756355286" lon="35.023483276">
  <ele>436.002441</ele>
  <time>2011-10-20T08:42:10Z</time>
  <speed>2.480000</speed>
</trkpt>
<trkpt lat="32.756374359" lon="35.023429871">
  <ele>435.736816</ele>
  <time>2011-10-20T08:42:12Z</time>
  <speed>2.360000</speed>
</trkpt>
<trkpt lat="32.756389618" lon="35.023380280">
  <ele>436.674316</ele>
  <time>2011-10-20T08:42:14Z</time>
  <speed>2.320000</speed>
</trkpt>
<trkpt lat="32.756412506" lon="35.023334503">
  <ele>436.354004</ele>
  <time>2011-10-20T08:42:16Z</time>
  <speed>2.340000</speed>
</trkpt>
<trkpt lat="32.756435394" lon="35.023292542">
  <ele>436.814941</ele>
  <time>2011-10-20T08:42:18Z</time>
  <speed>2.080000</speed>
</trkpt>
<trkpt lat="32.756446838" lon="35.023239136">
  <ele>437.252441</ele>
  <time>2011-10-20T08:42:20Z</time>
  <speed>2.280000</speed>
</trkpt>
<trkpt lat="32.756462097" lon="35.023193359">
  <ele>437.854004</ele>
  <time>2011-10-20T08:42:22Z</time>
  <speed>2.130000</speed>
</trkpt>
<trkpt lat="32.756481171" lon="35.023159027">
  <ele>438.275879</ele>
  <time>2011-10-20T08:42:24Z</time>
  <speed>2.090000</speed>
</trkpt>
<trkpt lat="32.756500244" lon="35.023117065">
  <ele>439.635254</ele>
  <time>2011-10-20T08:42:26Z</time>
  <speed>2.300000</speed>
</trkpt>
<trkpt lat="32.756515503" lon="35.023067474">
  <ele>440.268066</ele>
  <time>2011-10-20T08:42:28Z</time>
  <speed>2.360000</speed>
</trkpt>
<trkpt lat="32.756542206" lon="35.023021698">
  <ele>440.439941</ele>
  <time>2011-10-20T08:42:30Z</time>
  <speed>2.300000</speed>
</trkpt>
<trkpt lat="32.756561279" lon="35.022972107">
  <ele>440.221191</ele>
  <time>2011-10-20T08:42:32Z</time>
  <speed>2.360000</speed>
</trkpt>
<trkpt lat="32.756587982" lon="35.022926331">
  <ele>439.971191</ele>
  <time>2011-10-20T08:42:34Z</time>
  <speed>2.380000</speed>
</trkpt>
<trkpt lat="32.756614685" lon="35.022884369">
  <ele>439.814941</ele>
  <time>2011-10-20T08:42:36Z</time>
  <speed>2.410000</speed>
</trkpt>
<trkpt lat="32.756645203" lon="35.022842407">
  <ele>439.979004</ele>
  <time>2011-10-20T08:42:38Z</time>
  <speed>2.490000</speed>
</trkpt>
<trkpt lat="32.756679535" lon="35.022804260">
  <ele>441.033691</ele>
  <time>2011-10-20T08:42:40Z</time>
  <speed>2.690000</speed>
</trkpt>
<trkpt lat="32.756721497" lon="35.022777557">
  <ele>441.104004</ele>
  <time>2011-10-20T08:42:42Z</time>
  <speed>2.870000</speed>
</trkpt>
<trkpt lat="32.756763458" lon="35.022739410">
  <ele>440.963379</ele>
  <time>2011-10-20T08:42:44Z</time>
  <speed>2.970000</speed>
</trkpt>
<trkpt lat="32.756786346" lon="35.022720337">
  <ele>440.885254</ele>
  <time>2011-10-20T08:42:45Z</time>
  <speed>3.000000</speed>
</trkpt>
<trkpt lat="32.756805420" lon="35.022697449">
  <ele>440.736816</ele>
  <time>2011-10-20T08:42:46Z</time>
  <speed>2.930000</speed>
</trkpt>
<trkpt lat="32.756847382" lon="35.022663116">
  <ele>440.549316</ele>
  <time>2011-10-20T08:42:48Z</time>
  <speed>2.940000</speed>
</trkpt>
<trkpt lat="32.756885529" lon="35.022621155">
  <ele>440.799316</ele>
  <time>2011-10-20T08:42:50Z</time>
  <speed>2.600000</speed>
</trkpt>
<trkpt lat="32.756927490" lon="35.022583008">
  <ele>440.346191</ele>
  <time>2011-10-20T08:42:52Z</time>
  <speed>2.830000</speed>
</trkpt>
<trkpt lat="32.756965637" lon="35.022556305">
  <ele>440.494629</ele>
  <time>2011-10-20T08:42:54Z</time>
  <speed>2.790000</speed>
</trkpt>
<trkpt lat="32.756999969" lon="35.022518158">
  <ele>441.002441</ele>
  <time>2011-10-20T08:42:56Z</time>
  <speed>2.560000</speed>
</trkpt>
<trkpt lat="32.757026672" lon="35.022480011">
  <ele>441.416504</ele>
  <time>2011-10-20T08:42:58Z</time>
  <speed>2.640000</speed>
</trkpt>
<trkpt lat="32.757064819" lon="35.022449493">
  <ele>441.354004</ele>
  <time>2011-10-20T08:43:00Z</time>
  <speed>2.810000</speed>
</trkpt>
<trkpt lat="32.757106781" lon="35.022411346">
  <ele>441.830566</ele>
  <time>2011-10-20T08:43:02Z</time>
  <speed>2.790000</speed>
</trkpt>
<trkpt lat="32.757141113" lon="35.022369385">
  <ele>441.361816</ele>
  <time>2011-10-20T08:43:04Z</time>
  <speed>2.740000</speed>
</trkpt>
<trkpt lat="32.757183075" lon="35.022331238">
  <ele>441.432129</ele>
  <time>2011-10-20T08:43:06Z</time>
  <speed>2.750000</speed>
</trkpt>
<trkpt lat="32.757217407" lon="35.022281647">
  <ele>441.775879</ele>
  <time>2011-10-20T08:43:08Z</time>
  <speed>2.940000</speed>
</trkpt>
<trkpt lat="32.757232666" lon="35.022258759">
  <ele>441.963379</ele>
  <time>2011-10-20T08:43:09Z</time>
  <speed>2.850000</speed>
</trkpt>
<trkpt lat="32.757263184" lon="35.022205353">
  <ele>442.283691</ele>
  <time>2011-10-20T08:43:11Z</time>
  <speed>2.850000</speed>
</trkpt>
<trkpt lat="32.757297516" lon="35.022155762">
  <ele>442.768066</ele>
  <time>2011-10-20T08:43:13Z</time>
  <speed>2.830000</speed>
</trkpt>
<trkpt lat="32.757331848" lon="35.022117615">
  <ele>442.908691</ele>
  <time>2011-10-20T08:43:15Z</time>
  <speed>2.790000</speed>
</trkpt>
<trkpt lat="32.757354736" lon="35.022098541">
  <ele>442.947754</ele>
  <time>2011-10-20T08:43:16Z</time>
  <speed>2.940000</speed>
</trkpt>
<trkpt lat="32.757373810" lon="35.022075653">
  <ele>443.111816</ele>
  <time>2011-10-20T08:43:17Z</time>
  <speed>2.860000</speed>
</trkpt>
<trkpt lat="32.757415771" lon="35.022029877">
  <ele>443.549316</ele>
  <time>2011-10-20T08:43:19Z</time>
  <speed>3.170000</speed>
</trkpt>
<trkpt lat="32.757431030" lon="35.021999359">
  <ele>443.244629</ele>
  <time>2011-10-20T08:43:20Z</time>
  <speed>3.290000</speed>
</trkpt>
<trkpt lat="32.757450104" lon="35.021972656">
  <ele>443.260254</ele>
  <time>2011-10-20T08:43:21Z</time>
  <speed>3.160000</speed>
</trkpt>
<trkpt lat="32.757465363" lon="35.021942139">
  <ele>443.549316</ele>
  <time>2011-10-20T08:43:22Z</time>
  <speed>2.860000</speed>
</trkpt>
<trkpt lat="32.757484436" lon="35.021919250">
  <ele>443.658691</ele>
  <time>2011-10-20T08:43:23Z</time>
  <speed>2.840000</speed>
</trkpt>
<trkpt lat="32.757522583" lon="35.021884918">
  <ele>443.525879</ele>
  <time>2011-10-20T08:43:25Z</time>
  <speed>2.510000</speed>
</trkpt>
<trkpt lat="32.757549286" lon="35.021854401">
  <ele>444.307129</ele>
  <time>2011-10-20T08:43:27Z</time>
  <speed>2.250000</speed>
</trkpt>
<trkpt lat="32.757568359" lon="35.021808624">
  <ele>445.143066</ele>
  <time>2011-10-20T08:43:29Z</time>
  <speed>2.170000</speed>
</trkpt>
<trkpt lat="32.757575989" lon="35.021762848">
  <ele>446.174316</ele>
  <time>2011-10-20T08:43:31Z</time>
  <speed>2.130000</speed>
</trkpt>
<trkpt lat="32.757598877" lon="35.021724701">
  <ele>446.205566</ele>
  <time>2011-10-20T08:43:33Z</time>
  <speed>2.440000</speed>
</trkpt>
<trkpt lat="32.757621765" lon="35.021671295">
  <ele>446.314941</ele>
  <time>2011-10-20T08:43:35Z</time>
  <speed>2.650000</speed>
</trkpt>
<trkpt lat="32.757644653" lon="35.021614075">
  <ele>446.330566</ele>
  <time>2011-10-20T08:43:37Z</time>
  <speed>2.930000</speed>
</trkpt>
<trkpt lat="32.757667542" lon="35.021553040">
  <ele>446.260254</ele>
  <time>2011-10-20T08:43:39Z</time>
  <speed>2.870000</speed>
</trkpt>
<trkpt lat="32.757682800" lon="35.021526337">
  <ele>445.791504</ele>
  <time>2011-10-20T08:43:40Z</time>
  <speed>2.910000</speed>
</trkpt>
<trkpt lat="32.757698059" lon="35.021495819">
  <ele>445.705566</ele>
  <time>2011-10-20T08:43:41Z</time>
  <speed>2.930000</speed>
</trkpt>
<trkpt lat="32.757720947" lon="35.021472931">
  <ele>445.635254</ele>
  <time>2011-10-20T08:43:42Z</time>
  <speed>2.750000</speed>
</trkpt>
<trkpt lat="32.757743835" lon="35.021453857">
  <ele>445.455566</ele>
  <time>2011-10-20T08:43:43Z</time>
  <speed>2.730000</speed>
</trkpt>
<trkpt lat="32.757781982" lon="35.021415710">
  <ele>445.189941</ele>
  <time>2011-10-20T08:43:45Z</time>
  <speed>2.700000</speed>
</trkpt>
<trkpt lat="32.757816315" lon="35.021377563">
  <ele>445.518066</ele>
  <time>2011-10-20T08:43:47Z</time>
  <speed>2.670000</speed>
</trkpt>
<trkpt lat="32.757850647" lon="35.021331787">
  <ele>446.111816</ele>
  <time>2011-10-20T08:43:49Z</time>
  <speed>2.730000</speed>
</trkpt>
<trkpt lat="32.757884979" lon="35.021289825">
  <ele>447.018066</ele>
  <time>2011-10-20T08:43:51Z</time>
  <speed>3.020000</speed>
</trkpt>
<trkpt lat="32.757907867" lon="35.021270752">
  <ele>447.268066</ele>
  <time>2011-10-20T08:43:52Z</time>
  <speed>2.910000</speed>
</trkpt>
<trkpt lat="32.757953644" lon="35.021244049">
  <ele>447.729004</ele>
  <time>2011-10-20T08:43:54Z</time>
  <speed>2.810000</speed>
</trkpt>
<trkpt lat="32.757995605" lon="35.021213531">
  <ele>448.533691</ele>
  <time>2011-10-20T08:43:56Z</time>
  <speed>2.860000</speed>
</trkpt>
<trkpt lat="32.758026123" lon="35.021205902">
  <ele>448.322754</ele>
  <time>2011-10-20T08:43:57Z</time>
  <speed>2.750000</speed>
</trkpt>
<trkpt lat="32.758071899" lon="35.021186829">
  <ele>447.916504</ele>
  <time>2011-10-20T08:43:59Z</time>
  <speed>2.670000</speed>
</trkpt>
<trkpt lat="32.758098602" lon="35.021171570">
  <ele>447.955566</ele>
  <time>2011-10-20T08:44:00Z</time>
  <speed>2.700000</speed>
</trkpt>
<trkpt lat="32.758140564" lon="35.021148682">
  <ele>447.963379</ele>
  <time>2011-10-20T08:44:02Z</time>
  <speed>2.540000</speed>
</trkpt>
<trkpt lat="32.758182526" lon="35.021129608">
  <ele>447.471191</ele>
  <time>2011-10-20T08:44:04Z</time>
  <speed>2.550000</speed>
</trkpt>
<trkpt lat="32.758228302" lon="35.021118164">
  <ele>447.088379</ele>
  <time>2011-10-20T08:44:06Z</time>
  <speed>2.600000</speed>
</trkpt>
<trkpt lat="32.758266449" lon="35.021095276">
  <ele>447.346191</ele>
  <time>2011-10-20T08:44:08Z</time>
  <speed>2.800000</speed>
</trkpt>
<trkpt lat="32.758312225" lon="35.021076202">
  <ele>446.986816</ele>
  <time>2011-10-20T08:44:10Z</time>
  <speed>2.540000</speed>
</trkpt>
<trkpt lat="32.758354187" lon="35.021057129">
  <ele>446.525879</ele>
  <time>2011-10-20T08:44:12Z</time>
  <speed>2.520000</speed>
</trkpt>
<trkpt lat="32.758399963" lon="35.021041870">
  <ele>446.127441</ele>
  <time>2011-10-20T08:44:14Z</time>
  <speed>2.530000</speed>
</trkpt>
<trkpt lat="32.758449554" lon="35.021018982">
  <ele>445.924316</ele>
  <time>2011-10-20T08:44:16Z</time>
  <speed>3.120000</speed>
</trkpt>
<trkpt lat="32.758495331" lon="35.020988464">
  <ele>446.080566</ele>
  <time>2011-10-20T08:44:18Z</time>
  <speed>2.960000</speed>
</trkpt>
<trkpt lat="32.758525848" lon="35.020977020">
  <ele>446.088379</ele>
  <time>2011-10-20T08:44:19Z</time>
  <speed>3.160000</speed>
</trkpt>
<trkpt lat="32.758552551" lon="35.020965576">
  <ele>445.908691</ele>
  <time>2011-10-20T08:44:20Z</time>
  <speed>3.280000</speed>
</trkpt>
<trkpt lat="32.758579254" lon="35.020946503">
  <ele>446.541504</ele>
  <time>2011-10-20T08:44:21Z</time>
  <speed>3.430000</speed>
</trkpt>
<trkpt lat="32.758605957" lon="35.020931244">
  <ele>446.580566</ele>
  <time>2011-10-20T08:44:22Z</time>
  <speed>3.380000</speed>
</trkpt>
<trkpt lat="32.758632660" lon="35.020915985">
  <ele>446.674316</ele>
  <time>2011-10-20T08:44:23Z</time>
  <speed>3.130000</speed>
</trkpt>
<trkpt lat="32.758659363" lon="35.020896912">
  <ele>446.377441</ele>
  <time>2011-10-20T08:44:24Z</time>
  <speed>3.110000</speed>
</trkpt>
<trkpt lat="32.758682251" lon="35.020877838">
  <ele>446.330566</ele>
  <time>2011-10-20T08:44:25Z</time>
  <speed>3.470000</speed>
</trkpt>
<trkpt lat="32.758712769" lon="35.020858765">
  <ele>446.111816</ele>
  <time>2011-10-20T08:44:26Z</time>
  <speed>3.400000</speed>
</trkpt>
<trkpt lat="32.758735657" lon="35.020839691">
  <ele>445.658691</ele>
  <time>2011-10-20T08:44:27Z</time>
  <speed>3.090000</speed>
</trkpt>
<trkpt lat="32.758773804" lon="35.020805359">
  <ele>444.955566</ele>
  <time>2011-10-20T08:44:29Z</time>
  <speed>2.520000</speed>
</trkpt>
<trkpt lat="32.758796692" lon="35.020786285">
  <ele>444.619629</ele>
  <time>2011-10-20T08:44:30Z</time>
  <speed>3.130000</speed>
</trkpt>
<trkpt lat="32.758819580" lon="35.020759583">
  <ele>444.283691</ele>
  <time>2011-10-20T08:44:31Z</time>
  <speed>3.190000</speed>
</trkpt>
<trkpt lat="32.758838654" lon="35.020732880">
  <ele>443.846191</ele>
  <time>2011-10-20T08:44:32Z</time>
  <speed>3.120000</speed>
</trkpt>
<trkpt lat="32.758861542" lon="35.020706177">
  <ele>443.721191</ele>
  <time>2011-10-20T08:44:33Z</time>
  <speed>3.250000</speed>
</trkpt>
<trkpt lat="32.758884430" lon="35.020679474">
  <ele>443.799316</ele>
  <time>2011-10-20T08:44:34Z</time>
  <speed>3.190000</speed>
</trkpt>
<trkpt lat="32.758914948" lon="35.020660400">
  <ele>443.518066</ele>
  <time>2011-10-20T08:44:35Z</time>
  <speed>3.460000</speed>
</trkpt>
<trkpt lat="32.758945465" lon="35.020633698">
  <ele>443.916504</ele>
  <time>2011-10-20T08:44:36Z</time>
  <speed>3.410000</speed>
</trkpt>
<trkpt lat="32.758972168" lon="35.020606995">
  <ele>444.463379</ele>
  <time>2011-10-20T08:44:37Z</time>
  <speed>3.300000</speed>
</trkpt>
<trkpt lat="32.758995056" lon="35.020580292">
  <ele>444.791504</ele>
  <time>2011-10-20T08:44:38Z</time>
  <speed>3.240000</speed>
</trkpt>
<trkpt lat="32.759014130" lon="35.020553589">
  <ele>445.182129</ele>
  <time>2011-10-20T08:44:39Z</time>
  <speed>3.210000</speed>
</trkpt>
<trkpt lat="32.759033203" lon="35.020523071">
  <ele>446.025879</ele>
  <time>2011-10-20T08:44:40Z</time>
  <speed>3.370000</speed>
</trkpt>
<trkpt lat="32.759056091" lon="35.020496368">
  <ele>446.760254</ele>
  <time>2011-10-20T08:44:41Z</time>
  <speed>3.320000</speed>
</trkpt>
<trkpt lat="32.759078979" lon="35.020473480">
  <ele>447.236816</ele>
  <time>2011-10-20T08:44:42Z</time>
  <speed>3.240000</speed>
</trkpt>
<trkpt lat="32.759128571" lon="35.020439148">
  <ele>448.158691</ele>
  <time>2011-10-20T08:44:44Z</time>
  <speed>3.170000</speed>
</trkpt>
<trkpt lat="32.759174347" lon="35.020412445">
  <ele>448.580566</ele>
  <time>2011-10-20T08:44:46Z</time>
  <speed>3.060000</speed>
</trkpt>
<trkpt lat="32.759201050" lon="35.020393372">
  <ele>448.689941</ele>
  <time>2011-10-20T08:44:47Z</time>
  <speed>3.100000</speed>
</trkpt>
<trkpt lat="32.759223938" lon="35.020374298">
  <ele>449.174316</ele>
  <time>2011-10-20T08:44:48Z</time>
  <speed>3.080000</speed>
</trkpt>
<trkpt lat="32.759246826" lon="35.020359039">
  <ele>449.197754</ele>
  <time>2011-10-20T08:44:49Z</time>
  <speed>3.070000</speed>
</trkpt>
<trkpt lat="32.759273529" lon="35.020339966">
  <ele>448.838379</ele>
  <time>2011-10-20T08:44:50Z</time>
  <speed>3.110000</speed>
</trkpt>
<trkpt lat="32.759292603" lon="35.020313263">
  <ele>448.611816</ele>
  <time>2011-10-20T08:44:51Z</time>
  <speed>3.050000</speed>
</trkpt>
<trkpt lat="32.759315491" lon="35.020290375">
  <ele>448.252441</ele>
  <time>2011-10-20T08:44:52Z</time>
  <speed>3.180000</speed>
</trkpt>
<trkpt lat="32.759338379" lon="35.020267487">
  <ele>448.439941</ele>
  <time>2011-10-20T08:44:53Z</time>
  <speed>3.020000</speed>
</trkpt>
<trkpt lat="32.759357452" lon="35.020244598">
  <ele>448.439941</ele>
  <time>2011-10-20T08:44:54Z</time>
  <speed>3.000000</speed>
</trkpt>
<trkpt lat="32.759380341" lon="35.020221710">
  <ele>448.174316</ele>
  <time>2011-10-20T08:44:55Z</time>
  <speed>3.180000</speed>
</trkpt>
<trkpt lat="32.759403229" lon="35.020202637">
  <ele>448.174316</ele>
  <time>2011-10-20T08:44:56Z</time>
  <speed>3.290000</speed>
</trkpt>
<trkpt lat="32.759426117" lon="35.020175934">
  <ele>447.979004</ele>
  <time>2011-10-20T08:44:57Z</time>
  <speed>3.490000</speed>
</trkpt>
<trkpt lat="32.759445190" lon="35.020149231">
  <ele>448.197754</ele>
  <time>2011-10-20T08:44:58Z</time>
  <speed>3.370000</speed>
</trkpt>
<trkpt lat="32.759471893" lon="35.020130157">
  <ele>448.557129</ele>
  <time>2011-10-20T08:44:59Z</time>
  <speed>3.310000</speed>
</trkpt>
<trkpt lat="32.759494781" lon="35.020103455">
  <ele>449.330566</ele>
  <time>2011-10-20T08:45:00Z</time>
  <speed>3.300000</speed>
</trkpt>
<trkpt lat="32.759517670" lon="35.020076752">
  <ele>449.674316</ele>
  <time>2011-10-20T08:45:01Z</time>
  <speed>3.290000</speed>
</trkpt>
<trkpt lat="32.759540558" lon="35.020057678">
  <ele>450.158691</ele>
  <time>2011-10-20T08:45:02Z</time>
  <speed>3.200000</speed>
</trkpt>
<trkpt lat="32.759559631" lon="35.020030975">
  <ele>450.525879</ele>
  <time>2011-10-20T08:45:03Z</time>
  <speed>3.210000</speed>
</trkpt>
<trkpt lat="32.759586334" lon="35.020011902">
  <ele>450.611816</ele>
  <time>2011-10-20T08:45:04Z</time>
  <speed>2.890000</speed>
</trkpt>
<trkpt lat="32.759628296" lon="35.019969940">
  <ele>450.510254</ele>
  <time>2011-10-20T08:45:06Z</time>
  <speed>3.380000</speed>
</trkpt>
<trkpt lat="32.759647369" lon="35.019943237">
  <ele>451.002441</ele>
  <time>2011-10-20T08:45:07Z</time>
  <speed>3.590000</speed>
</trkpt>
<trkpt lat="32.759670258" lon="35.019916534">
  <ele>451.049316</ele>
  <time>2011-10-20T08:45:08Z</time>
  <speed>3.490000</speed>
</trkpt>
<trkpt lat="32.759693146" lon="35.019886017">
  <ele>451.002441</ele>
  <time>2011-10-20T08:45:09Z</time>
  <speed>3.640000</speed>
</trkpt>
<trkpt lat="32.759712219" lon="35.019851685">
  <ele>451.150879</ele>
  <time>2011-10-20T08:45:10Z</time>
  <speed>3.710000</speed>
</trkpt>
<trkpt lat="32.759735107" lon="35.019813538">
  <ele>451.494629</ele>
  <time>2011-10-20T08:45:11Z</time>
  <speed>3.950000</speed>
</trkpt>
<trkpt lat="32.759761810" lon="35.019779205">
  <ele>451.596191</ele>
  <time>2011-10-20T08:45:12Z</time>
  <speed>3.910000</speed>
</trkpt>
<trkpt lat="32.759784698" lon="35.019748688">
  <ele>452.064941</ele>
  <time>2011-10-20T08:45:13Z</time>
  <speed>3.740000</speed>
</trkpt>
<trkpt lat="32.759803772" lon="35.019718170">
  <ele>452.010254</ele>
  <time>2011-10-20T08:45:14Z</time>
  <speed>3.760000</speed>
</trkpt>
<trkpt lat="32.759830475" lon="35.019687653">
  <ele>452.158691</ele>
  <time>2011-10-20T08:45:15Z</time>
  <speed>3.630000</speed>
</trkpt>
<trkpt lat="32.759849548" lon="35.019660950">
  <ele>452.635254</ele>
  <time>2011-10-20T08:45:16Z</time>
  <speed>3.550000</speed>
</trkpt>
<trkpt lat="32.759872437" lon="35.019634247">
  <ele>452.854004</ele>
  <time>2011-10-20T08:45:17Z</time>
  <speed>3.540000</speed>
</trkpt>
<trkpt lat="32.759895325" lon="35.019615173">
  <ele>453.080566</ele>
  <time>2011-10-20T08:45:18Z</time>
  <speed>3.810000</speed>
</trkpt>
<trkpt lat="32.759922028" lon="35.019584656">
  <ele>453.900879</ele>
  <time>2011-10-20T08:45:19Z</time>
  <speed>3.750000</speed>
</trkpt>
<trkpt lat="32.759944916" lon="35.019554138">
  <ele>454.135254</ele>
  <time>2011-10-20T08:45:20Z</time>
  <speed>3.570000</speed>
</trkpt>
<trkpt lat="32.759971619" lon="35.019527435">
  <ele>454.908691</ele>
  <time>2011-10-20T08:45:21Z</time>
  <speed>3.620000</speed>
</trkpt>
<trkpt lat="32.759994507" lon="35.019496918">
  <ele>455.564941</ele>
  <time>2011-10-20T08:45:22Z</time>
  <speed>3.670000</speed>
</trkpt>
<trkpt lat="32.760021210" lon="35.019462585">
  <ele>456.377441</ele>
  <time>2011-10-20T08:45:23Z</time>
  <speed>3.730000</speed>
</trkpt>
<trkpt lat="32.760040283" lon="35.019432068">
  <ele>456.814941</ele>
  <time>2011-10-20T08:45:24Z</time>
  <speed>3.600000</speed>
</trkpt>
<trkpt lat="32.760059357" lon="35.019401550">
  <ele>456.854004</ele>
  <time>2011-10-20T08:45:25Z</time>
  <speed>3.680000</speed>
</trkpt>
<trkpt lat="32.760086060" lon="35.019378662">
  <ele>456.635254</ele>
  <time>2011-10-20T08:45:26Z</time>
  <speed>3.510000</speed>
</trkpt>
<trkpt lat="32.760108948" lon="35.019351959">
  <ele>457.002441</ele>
  <time>2011-10-20T08:45:27Z</time>
  <speed>3.470000</speed>
</trkpt>
<trkpt lat="32.760131836" lon="35.019325256">
  <ele>457.080566</ele>
  <time>2011-10-20T08:45:28Z</time>
  <speed>3.630000</speed>
</trkpt>
<trkpt lat="32.760154724" lon="35.019294739">
  <ele>457.564941</ele>
  <time>2011-10-20T08:45:29Z</time>
  <speed>3.500000</speed>
</trkpt>
<trkpt lat="32.760177612" lon="35.019271851">
  <ele>457.893066</ele>
  <time>2011-10-20T08:45:30Z</time>
  <speed>3.180000</speed>
</trkpt>
<trkpt lat="32.760196686" lon="35.019245148">
  <ele>458.518066</ele>
  <time>2011-10-20T08:45:31Z</time>
  <speed>2.900000</speed>
</trkpt>
<trkpt lat="32.760215759" lon="35.019218445">
  <ele>458.596191</ele>
  <time>2011-10-20T08:45:32Z</time>
  <speed>3.030000</speed>
</trkpt>
<trkpt lat="32.760246277" lon="35.019172668">
  <ele>459.322754</ele>
  <time>2011-10-20T08:45:34Z</time>
  <speed>2.840000</speed>
</trkpt>
<trkpt lat="32.760272980" lon="35.019123077">
  <ele>460.244629</ele>
  <time>2011-10-20T08:45:36Z</time>
  <speed>2.990000</speed>
</trkpt>
<trkpt lat="32.760314941" lon="35.019096375">
  <ele>460.299316</ele>
  <time>2011-10-20T08:45:38Z</time>
  <speed>2.990000</speed>
</trkpt>
<trkpt lat="32.760349274" lon="35.019054413">
  <ele>460.744629</ele>
  <time>2011-10-20T08:45:40Z</time>
  <speed>2.770000</speed>
</trkpt>
<trkpt lat="32.760368347" lon="35.019031525">
  <ele>460.869629</ele>
  <time>2011-10-20T08:45:41Z</time>
  <speed>2.880000</speed>
</trkpt>
<trkpt lat="32.760402679" lon="35.018981934">
  <ele>460.588379</ele>
  <time>2011-10-20T08:45:43Z</time>
  <speed>2.860000</speed>
</trkpt>
<trkpt lat="32.760437012" lon="35.018939972">
  <ele>460.729004</ele>
  <time>2011-10-20T08:45:45Z</time>
  <speed>2.770000</speed>
</trkpt>
<trkpt lat="32.760475159" lon="35.018894196">
  <ele>460.908691</ele>
  <time>2011-10-20T08:45:47Z</time>
  <speed>2.900000</speed>
</trkpt>
<trkpt lat="32.760513306" lon="35.018856049">
  <ele>461.635254</ele>
  <time>2011-10-20T08:45:49Z</time>
  <speed>2.780000</speed>
</trkpt>
<trkpt lat="32.760540009" lon="35.018814087">
  <ele>462.213379</ele>
  <time>2011-10-20T08:45:51Z</time>
  <speed>2.740000</speed>
</trkpt>
<trkpt lat="32.760566711" lon="35.018764496">
  <ele>462.408691</ele>
  <time>2011-10-20T08:45:53Z</time>
  <speed>2.560000</speed>
</trkpt>
<trkpt lat="32.760585785" lon="35.018707275">
  <ele>462.838379</ele>
  <time>2011-10-20T08:45:55Z</time>
  <speed>2.900000</speed>
</trkpt>
<trkpt lat="32.760604858" lon="35.018650055">
  <ele>462.705566</ele>
  <time>2011-10-20T08:45:57Z</time>
  <speed>2.650000</speed>
</trkpt>
<trkpt lat="32.760616302" lon="35.018592834">
  <ele>462.838379</ele>
  <time>2011-10-20T08:45:59Z</time>
  <speed>3.040000</speed>
</trkpt>
<trkpt lat="32.760623932" lon="35.018558502">
  <ele>462.682129</ele>
  <time>2011-10-20T08:46:00Z</time>
  <speed>3.260000</speed>
</trkpt>
<trkpt lat="32.760631561" lon="35.018527985">
  <ele>462.260254</ele>
  <time>2011-10-20T08:46:01Z</time>
  <speed>3.410000</speed>
</trkpt>
<trkpt lat="32.760639191" lon="35.018493652">
  <ele>461.947754</ele>
  <time>2011-10-20T08:46:02Z</time>
  <speed>3.490000</speed>
</trkpt>
<trkpt lat="32.760646820" lon="35.018455505">
  <ele>461.658691</ele>
  <time>2011-10-20T08:46:03Z</time>
  <speed>3.480000</speed>
</trkpt>
<trkpt lat="32.760654449" lon="35.018413544">
  <ele>461.557129</ele>
  <time>2011-10-20T08:46:04Z</time>
  <speed>3.420000</speed>
</trkpt>
<trkpt lat="32.760662079" lon="35.018379211">
  <ele>461.354004</ele>
  <time>2011-10-20T08:46:05Z</time>
  <speed>3.370000</speed>
</trkpt>
<trkpt lat="32.760665894" lon="35.018341064">
  <ele>461.385254</ele>
  <time>2011-10-20T08:46:06Z</time>
  <speed>3.300000</speed>
</trkpt>
<trkpt lat="32.760673523" lon="35.018302917">
  <ele>461.393066</ele>
  <time>2011-10-20T08:46:07Z</time>
  <speed>3.050000</speed>
</trkpt>
<trkpt lat="32.760681152" lon="35.018268585">
  <ele>461.572754</ele>
  <time>2011-10-20T08:46:08Z</time>
  <speed>2.960000</speed>
</trkpt>
<trkpt lat="32.760684967" lon="35.018238068">
  <ele>461.580566</ele>
  <time>2011-10-20T08:46:09Z</time>
  <speed>2.600000</speed>
</trkpt>
<trkpt lat="32.760700226" lon="35.018173218">
  <ele>462.064941</ele>
  <time>2011-10-20T08:46:11Z</time>
  <speed>2.680000</speed>
</trkpt>
<trkpt lat="32.760726929" lon="35.018123627">
  <ele>462.307129</ele>
  <time>2011-10-20T08:46:13Z</time>
  <speed>2.930000</speed>
</trkpt>
<trkpt lat="32.760742188" lon="35.018093109">
  <ele>462.104004</ele>
  <time>2011-10-20T08:46:14Z</time>
  <speed>3.030000</speed>
</trkpt>
<trkpt lat="32.760776520" lon="35.018039703">
  <ele>462.283691</ele>
  <time>2011-10-20T08:46:16Z</time>
  <speed>3.100000</speed>
</trkpt>
<trkpt lat="32.760795593" lon="35.018013000">
  <ele>462.088379</ele>
  <time>2011-10-20T08:46:17Z</time>
  <speed>3.120000</speed>
</trkpt>
<trkpt lat="32.760818481" lon="35.017978668">
  <ele>461.854004</ele>
  <time>2011-10-20T08:46:18Z</time>
  <speed>3.370000</speed>
</trkpt>
<trkpt lat="32.760841370" lon="35.017959595">
  <ele>461.900879</ele>
  <time>2011-10-20T08:46:19Z</time>
  <speed>3.310000</speed>
</trkpt>
<trkpt lat="32.760868073" lon="35.017948151">
  <ele>461.205566</ele>
  <time>2011-10-20T08:46:20Z</time>
  <speed>3.310000</speed>
</trkpt>
<trkpt lat="32.760894775" lon="35.017929077">
  <ele>461.338379</ele>
  <time>2011-10-20T08:46:21Z</time>
  <speed>3.340000</speed>
</trkpt>
<trkpt lat="32.760925293" lon="35.017921448">
  <ele>460.736816</ele>
  <time>2011-10-20T08:46:22Z</time>
  <speed>3.410000</speed>
</trkpt>
<trkpt lat="32.760951996" lon="35.017906189">
  <ele>460.572754</ele>
  <time>2011-10-20T08:46:23Z</time>
  <speed>3.200000</speed>
</trkpt>
<trkpt lat="32.760978699" lon="35.017890930">
  <ele>460.791504</ele>
  <time>2011-10-20T08:46:24Z</time>
  <speed>3.270000</speed>
</trkpt>
<trkpt lat="32.761005402" lon="35.017875671">
  <ele>460.736816</ele>
  <time>2011-10-20T08:46:25Z</time>
  <speed>3.270000</speed>
</trkpt>
<trkpt lat="32.761028290" lon="35.017864227">
  <ele>461.041504</ele>
  <time>2011-10-20T08:46:26Z</time>
  <speed>3.140000</speed>
</trkpt>
<trkpt lat="32.761054993" lon="35.017852783">
  <ele>461.408691</ele>
  <time>2011-10-20T08:46:27Z</time>
  <speed>3.240000</speed>
</trkpt>
<trkpt lat="32.761081696" lon="35.017833710">
  <ele>461.627441</ele>
  <time>2011-10-20T08:46:28Z</time>
  <speed>3.150000</speed>
</trkpt>
<trkpt lat="32.761123657" lon="35.017795563">
  <ele>462.400879</ele>
  <time>2011-10-20T08:46:30Z</time>
  <speed>3.210000</speed>
</trkpt>
<trkpt lat="32.761150360" lon="35.017780304">
  <ele>462.494629</ele>
  <time>2011-10-20T08:46:31Z</time>
  <speed>3.590000</speed>
</trkpt>
<trkpt lat="32.761180878" lon="35.017757416">
  <ele>463.150879</ele>
  <time>2011-10-20T08:46:32Z</time>
  <speed>3.710000</speed>
</trkpt>
<trkpt lat="32.761211395" lon="35.017745972">
  <ele>462.314941</ele>
  <time>2011-10-20T08:46:33Z</time>
  <speed>3.980000</speed>
</trkpt>
<trkpt lat="32.761241913" lon="35.017726898">
  <ele>462.033691</ele>
  <time>2011-10-20T08:46:34Z</time>
  <speed>4.010000</speed>
</trkpt>
<trkpt lat="32.761268616" lon="35.017696381">
  <ele>462.057129</ele>
  <time>2011-10-20T08:46:35Z</time>
  <speed>4.230000</speed>
</trkpt>
<trkpt lat="32.761302948" lon="35.017665863">
  <ele>461.986816</ele>
  <time>2011-10-20T08:46:36Z</time>
  <speed>4.450000</speed>
</trkpt>
<trkpt lat="32.761329651" lon="35.017627716">
  <ele>461.971191</ele>
  <time>2011-10-20T08:46:37Z</time>
  <speed>4.630000</speed>
</trkpt>
<trkpt lat="32.761352539" lon="35.017581940">
  <ele>461.916504</ele>
  <time>2011-10-20T08:46:38Z</time>
  <speed>4.680000</speed>
</trkpt>
<trkpt lat="32.761383057" lon="35.017532349">
  <ele>461.439941</ele>
  <time>2011-10-20T08:46:39Z</time>
  <speed>5.280000</speed>
</trkpt>
<trkpt lat="32.761409760" lon="35.017482758">
  <ele>461.838379</ele>
  <time>2011-10-20T08:46:40Z</time>
  <speed>5.300000</speed>
</trkpt>
<trkpt lat="32.761432648" lon="35.017429352">
  <ele>461.510254</ele>
  <time>2011-10-20T08:46:41Z</time>
  <speed>5.420000</speed>
</trkpt>
<trkpt lat="32.761459351" lon="35.017375946">
  <ele>461.635254</ele>
  <time>2011-10-20T08:46:42Z</time>
  <speed>5.750000</speed>
</trkpt>
<trkpt lat="32.761493683" lon="35.017326355">
  <ele>461.822754</ele>
  <time>2011-10-20T08:46:43Z</time>
  <speed>5.820000</speed>
</trkpt>
<trkpt lat="32.761524200" lon="35.017276764">
  <ele>461.838379</ele>
  <time>2011-10-20T08:46:44Z</time>
  <speed>5.780000</speed>
</trkpt>
<trkpt lat="32.761554718" lon="35.017227173">
  <ele>461.924316</ele>
  <time>2011-10-20T08:46:45Z</time>
  <speed>6.000000</speed>
</trkpt>
<trkpt lat="32.761589050" lon="35.017173767">
  <ele>461.791504</ele>
  <time>2011-10-20T08:46:46Z</time>
  <speed>6.080000</speed>
</trkpt>
<trkpt lat="32.761623383" lon="35.017116547">
  <ele>461.830566</ele>
  <time>2011-10-20T08:46:47Z</time>
  <speed>6.060000</speed>
</trkpt>
<trkpt lat="32.761653900" lon="35.017063141">
  <ele>462.182129</ele>
  <time>2011-10-20T08:46:48Z</time>
  <speed>6.350000</speed>
</trkpt>
<trkpt lat="32.761684418" lon="35.017002106">
  <ele>462.463379</ele>
  <time>2011-10-20T08:46:49Z</time>
  <speed>6.310000</speed>
</trkpt>
<trkpt lat="32.761722565" lon="35.016948700">
  <ele>462.064941</ele>
  <time>2011-10-20T08:46:50Z</time>
  <speed>6.300000</speed>
</trkpt>
<trkpt lat="32.761753082" lon="35.016895294">
  <ele>462.143066</ele>
  <time>2011-10-20T08:46:51Z</time>
  <speed>6.020000</speed>
</trkpt>
<trkpt lat="32.761787415" lon="35.016838074">
  <ele>461.986816</ele>
  <time>2011-10-20T08:46:52Z</time>
  <speed>5.900000</speed>
</trkpt>
<trkpt lat="32.761817932" lon="35.016784668">
  <ele>461.783691</ele>
  <time>2011-10-20T08:46:53Z</time>
  <speed>5.700000</speed>
</trkpt>
<trkpt lat="32.761856079" lon="35.016735077">
  <ele>461.393066</ele>
  <time>2011-10-20T08:46:54Z</time>
  <speed>5.230000</speed>
</trkpt>
<trkpt lat="32.761882782" lon="35.016685486">
  <ele>461.564941</ele>
  <time>2011-10-20T08:46:55Z</time>
  <speed>4.840000</speed>
</trkpt>
<trkpt lat="32.761909485" lon="35.016639709">
  <ele>461.338379</ele>
  <time>2011-10-20T08:46:56Z</time>
  <speed>4.410000</speed>
</trkpt>
<trkpt lat="32.761932373" lon="35.016601563">
  <ele>461.150879</ele>
  <time>2011-10-20T08:46:57Z</time>
  <speed>3.830000</speed>
</trkpt>
<trkpt lat="32.761955261" lon="35.016571045">
  <ele>461.229004</ele>
  <time>2011-10-20T08:46:58Z</time>
  <speed>3.470000</speed>
</trkpt>
<trkpt lat="32.761974335" lon="35.016548157">
  <ele>460.666504</ele>
  <time>2011-10-20T08:46:59Z</time>
  <speed>3.410000</speed>
</trkpt>
<trkpt lat="32.761993408" lon="35.016521454">
  <ele>460.682129</ele>
  <time>2011-10-20T08:47:00Z</time>
  <speed>3.510000</speed>
</trkpt>
<trkpt lat="32.762012482" lon="35.016490936">
  <ele>461.143066</ele>
  <time>2011-10-20T08:47:01Z</time>
  <speed>3.290000</speed>
</trkpt>
<trkpt lat="32.762031555" lon="35.016464233">
  <ele>461.283691</ele>
  <time>2011-10-20T08:47:02Z</time>
  <speed>3.440000</speed>
</trkpt>
<trkpt lat="32.762050629" lon="35.016437531">
  <ele>461.783691</ele>
  <time>2011-10-20T08:47:03Z</time>
  <speed>3.210000</speed>
</trkpt>
<trkpt lat="32.762088776" lon="35.016387939">
  <ele>462.838379</ele>
  <time>2011-10-20T08:47:05Z</time>
  <speed>3.080000</speed>
</trkpt>
<trkpt lat="32.762107849" lon="35.016357422">
  <ele>463.494629</ele>
  <time>2011-10-20T08:47:06Z</time>
  <speed>3.440000</speed>
</trkpt>
<trkpt lat="32.762123108" lon="35.016330719">
  <ele>463.814941</ele>
  <time>2011-10-20T08:47:07Z</time>
  <speed>3.120000</speed>
</trkpt>
<trkpt lat="32.762157440" lon="35.016296387">
  <ele>464.580566</ele>
  <time>2011-10-20T08:47:09Z</time>
  <speed>2.860000</speed>
</trkpt>
<trkpt lat="32.762195587" lon="35.016262054">
  <ele>464.877441</ele>
  <time>2011-10-20T08:47:11Z</time>
  <speed>2.540000</speed>
</trkpt>
<trkpt lat="32.762222290" lon="35.016216278">
  <ele>465.393066</ele>
  <time>2011-10-20T08:47:13Z</time>
  <speed>2.520000</speed>
</trkpt>
<trkpt lat="32.762252808" lon="35.016174316">
  <ele>465.135254</ele>
  <time>2011-10-20T08:47:15Z</time>
  <speed>2.550000</speed>
</trkpt>
<trkpt lat="32.762279510" lon="35.016132355">
  <ele>465.346191</ele>
  <time>2011-10-20T08:47:17Z</time>
  <speed>2.670000</speed>
</trkpt>
<trkpt lat="32.762298584" lon="35.016109467">
  <ele>465.111816</ele>
  <time>2011-10-20T08:47:18Z</time>
  <speed>2.660000</speed>
</trkpt>
<trkpt lat="32.762329102" lon="35.016059875">
  <ele>465.182129</ele>
  <time>2011-10-20T08:47:20Z</time>
  <speed>2.360000</speed>
</trkpt>
<trkpt lat="32.762359619" lon="35.016021729">
  <ele>465.033691</ele>
  <time>2011-10-20T08:47:22Z</time>
  <speed>2.360000</speed>
</trkpt>
<trkpt lat="32.762382507" lon="35.015979767">
  <ele>464.705566</ele>
  <time>2011-10-20T08:47:24Z</time>
  <speed>2.590000</speed>
</trkpt>
<trkpt lat="32.762401581" lon="35.015945435">
  <ele>464.166504</ele>
  <time>2011-10-20T08:47:26Z</time>
  <speed>1.650000</speed>
</trkpt>
<trkpt lat="32.762432098" lon="35.015933990">
  <ele>462.869629</ele>
  <time>2011-10-20T08:47:29Z</time>
  <speed>0.920000</speed>
</trkpt>
<trkpt lat="32.762443542" lon="35.015937805">
  <ele>461.947754</ele>
  <time>2011-10-20T08:47:37Z</time>
  <speed>0.030000</speed>
</trkpt>
</trkseg>
</trk>
</gpx>
